<?xml version="1.0" encoding="UTF-8" standalone="no" ?>
<gpx xmlns="http://www.topografix.com/GPX/1/1" xmlns:xsi="http://www.w3.org/2001/XMLSchema-instance" xsi:schemaLocation="http://www.topografix.com/GPX/1/1 http://www.topografix.com/GPX/1/1/gpx.xsd" version="1.1" creator="VisuGPX - https://www.visugpx.com">
  <metadata>
    <name>Gorges du ras de la Carança / pic du Géant</name>
    <desc><![CDATA[un premier itinéraire vous emmène de Thuès entre Valls au refuge du ras de la Carança en traversant les gorges du même nom. Le deuxième est une boucle qui part du refuge pour grimper au pic du Géant et qui suit ensuite la crête frontière jusqu'au col de la Vaca avant de redescendre au refuge. Enfin le dernier passe par le col Mitja avant de redescendre vers fontpédrouse et de revenir à Tuès. ]]></desc>
  </metadata>
  <trk>
    <name><![CDATA[Tracé actuel: 29 JUIN 2016 11:19]]></name>
    <trkseg>
      <trkpt lat="42.52235" lon="2.22192">
        <ele>863.88</ele>
        <time>2016-06-29T09:19:31Z</time>
      </trkpt>
      <trkpt lat="42.52237" lon="2.22186">
        <ele>864.84</ele>
        <time>2016-06-29T09:19:35Z</time>
      </trkpt>
      <trkpt lat="42.52212" lon="2.2218">
        <ele>863.88</ele>
        <time>2016-06-29T09:19:51Z</time>
      </trkpt>
      <trkpt lat="42.52196" lon="2.22176">
        <ele>860.52</ele>
        <time>2016-06-29T09:20:04Z</time>
      </trkpt>
      <trkpt lat="42.52191" lon="2.22172">
        <ele>860.04</ele>
        <time>2016-06-29T09:20:14Z</time>
      </trkpt>
      <trkpt lat="42.52185" lon="2.22176">
        <ele>859.08</ele>
        <time>2016-06-29T09:20:22Z</time>
      </trkpt>
      <trkpt lat="42.5218" lon="2.22178">
        <ele>858.11</ele>
        <time>2016-06-29T09:20:26Z</time>
      </trkpt>
      <trkpt lat="42.52176" lon="2.22176">
        <ele>857.15</ele>
        <time>2016-06-29T09:20:29Z</time>
      </trkpt>
      <trkpt lat="42.52174" lon="2.22175">
        <ele>856.67</ele>
        <time>2016-06-29T09:20:30Z</time>
      </trkpt>
      <trkpt lat="42.52172" lon="2.22174">
        <ele>857.63</ele>
        <time>2016-06-29T09:20:31Z</time>
      </trkpt>
      <trkpt lat="42.51861" lon="2.22252">
        <ele>878.78</ele>
        <time>2016-06-29T09:25:23Z</time>
      </trkpt>
      <trkpt lat="42.51878" lon="2.22262">
        <ele>879.26</ele>
        <time>2016-06-29T09:25:35Z</time>
      </trkpt>
      <trkpt lat="42.5188" lon="2.22272">
        <ele>880.71</ele>
        <time>2016-06-29T09:25:45Z</time>
      </trkpt>
      <trkpt lat="42.51868" lon="2.22287">
        <ele>881.19</ele>
        <time>2016-06-29T09:25:52Z</time>
      </trkpt>
      <trkpt lat="42.51854" lon="2.22294">
        <ele>882.15</ele>
        <time>2016-06-29T09:26:01Z</time>
      </trkpt>
      <trkpt lat="42.51847" lon="2.22295">
        <ele>882.15</ele>
        <time>2016-06-29T09:26:04Z</time>
      </trkpt>
      <trkpt lat="42.51845" lon="2.22298">
        <ele>882.63</ele>
        <time>2016-06-29T09:26:06Z</time>
      </trkpt>
      <trkpt lat="42.51842" lon="2.223">
        <ele>882.63</ele>
        <time>2016-06-29T09:26:08Z</time>
      </trkpt>
      <trkpt lat="42.51837" lon="2.22304">
        <ele>883.11</ele>
        <time>2016-06-29T09:26:12Z</time>
      </trkpt>
      <trkpt lat="42.51836" lon="2.22306">
        <ele>883.11</ele>
        <time>2016-06-29T09:26:14Z</time>
      </trkpt>
      <trkpt lat="42.51831" lon="2.22318">
        <ele>884.07</ele>
        <time>2016-06-29T09:26:24Z</time>
      </trkpt>
      <trkpt lat="42.51828" lon="2.22325">
        <ele>884.07</ele>
        <time>2016-06-29T09:26:30Z</time>
      </trkpt>
      <trkpt lat="42.51821" lon="2.22329">
        <ele>885.51</ele>
        <time>2016-06-29T09:26:40Z</time>
      </trkpt>
      <trkpt lat="42.51819" lon="2.22333">
        <ele>885.99</ele>
        <time>2016-06-29T09:26:46Z</time>
      </trkpt>
      <trkpt lat="42.51818" lon="2.22337">
        <ele>886.47</ele>
        <time>2016-06-29T09:26:51Z</time>
      </trkpt>
      <trkpt lat="42.51814" lon="2.22339">
        <ele>886.95</ele>
        <time>2016-06-29T09:26:55Z</time>
      </trkpt>
      <trkpt lat="42.51809" lon="2.22342">
        <ele>886.95</ele>
        <time>2016-06-29T09:27:00Z</time>
      </trkpt>
      <trkpt lat="42.51801" lon="2.2235">
        <ele>888.4</ele>
        <time>2016-06-29T09:27:11Z</time>
      </trkpt>
      <trkpt lat="42.51797" lon="2.22353">
        <ele>889.36</ele>
        <time>2016-06-29T09:27:22Z</time>
      </trkpt>
      <trkpt lat="42.51786" lon="2.22349">
        <ele>890.32</ele>
        <time>2016-06-29T09:27:31Z</time>
      </trkpt>
      <trkpt lat="42.51783" lon="2.22347">
        <ele>890.32</ele>
        <time>2016-06-29T09:27:33Z</time>
      </trkpt>
      <trkpt lat="42.5178" lon="2.22337">
        <ele>891.28</ele>
        <time>2016-06-29T09:27:46Z</time>
      </trkpt>
      <trkpt lat="42.5178" lon="2.22336">
        <ele>891.76</ele>
        <time>2016-06-29T09:27:59Z</time>
      </trkpt>
      <trkpt lat="42.51782" lon="2.22332">
        <ele>892.24</ele>
        <time>2016-06-29T09:28:03Z</time>
      </trkpt>
      <trkpt lat="42.51797" lon="2.22335">
        <ele>893.2</ele>
        <time>2016-06-29T09:28:16Z</time>
      </trkpt>
      <trkpt lat="42.51803" lon="2.22323">
        <ele>895.12</ele>
        <time>2016-06-29T09:28:30Z</time>
      </trkpt>
      <trkpt lat="42.51806" lon="2.22315">
        <ele>897.05</ele>
        <time>2016-06-29T09:28:40Z</time>
      </trkpt>
      <trkpt lat="42.51805" lon="2.22309">
        <ele>898.49</ele>
        <time>2016-06-29T09:28:51Z</time>
      </trkpt>
      <trkpt lat="42.51808" lon="2.22302">
        <ele>900.89</ele>
        <time>2016-06-29T09:29:02Z</time>
      </trkpt>
      <trkpt lat="42.51808" lon="2.22299">
        <ele>903.78</ele>
        <time>2016-06-29T09:29:07Z</time>
      </trkpt>
      <trkpt lat="42.51807" lon="2.22302">
        <ele>905.7</ele>
        <time>2016-06-29T09:29:14Z</time>
      </trkpt>
      <trkpt lat="42.51805" lon="2.22295">
        <ele>906.18</ele>
        <time>2016-06-29T09:29:29Z</time>
      </trkpt>
      <trkpt lat="42.51809" lon="2.22289">
        <ele>908.58</ele>
        <time>2016-06-29T09:29:42Z</time>
      </trkpt>
      <trkpt lat="42.51806" lon="2.22289">
        <ele>910.03</ele>
        <time>2016-06-29T09:29:54Z</time>
      </trkpt>
      <trkpt lat="42.51806" lon="2.22282">
        <ele>911.95</ele>
        <time>2016-06-29T09:30:06Z</time>
      </trkpt>
      <trkpt lat="42.51811" lon="2.22273">
        <ele>913.39</ele>
        <time>2016-06-29T09:30:17Z</time>
      </trkpt>
      <trkpt lat="42.5181" lon="2.22262">
        <ele>915.79</ele>
        <time>2016-06-29T09:30:32Z</time>
      </trkpt>
      <trkpt lat="42.5181" lon="2.22258">
        <ele>916.75</ele>
        <time>2016-06-29T09:30:38Z</time>
      </trkpt>
      <trkpt lat="42.51812" lon="2.22249">
        <ele>918.2</ele>
        <time>2016-06-29T09:30:47Z</time>
      </trkpt>
      <trkpt lat="42.51813" lon="2.22241">
        <ele>920.12</ele>
        <time>2016-06-29T09:30:58Z</time>
      </trkpt>
      <trkpt lat="42.51813" lon="2.22236">
        <ele>922.52</ele>
        <time>2016-06-29T09:31:04Z</time>
      </trkpt>
      <trkpt lat="42.51814" lon="2.22231">
        <ele>925.41</ele>
        <time>2016-06-29T09:31:10Z</time>
      </trkpt>
      <trkpt lat="42.51812" lon="2.22225">
        <ele>925.89</ele>
        <time>2016-06-29T09:31:21Z</time>
      </trkpt>
      <trkpt lat="42.51811" lon="2.22225">
        <ele>926.85</ele>
        <time>2016-06-29T09:31:30Z</time>
      </trkpt>
      <trkpt lat="42.5181" lon="2.22226">
        <ele>926.85</ele>
        <time>2016-06-29T09:31:32Z</time>
      </trkpt>
      <trkpt lat="42.51809" lon="2.22229">
        <ele>927.81</ele>
        <time>2016-06-29T09:31:35Z</time>
      </trkpt>
      <trkpt lat="42.51809" lon="2.22234">
        <ele>928.29</ele>
        <time>2016-06-29T09:31:38Z</time>
      </trkpt>
      <trkpt lat="42.51805" lon="2.22243">
        <ele>929.73</ele>
        <time>2016-06-29T09:31:49Z</time>
      </trkpt>
      <trkpt lat="42.51803" lon="2.22247">
        <ele>930.21</ele>
        <time>2016-06-29T09:31:54Z</time>
      </trkpt>
      <trkpt lat="42.51791" lon="2.22263">
        <ele>932.62</ele>
        <time>2016-06-29T09:32:08Z</time>
      </trkpt>
      <trkpt lat="42.51767" lon="2.22256">
        <ele>934.54</ele>
        <time>2016-06-29T09:32:20Z</time>
      </trkpt>
      <trkpt lat="42.51746" lon="2.22247">
        <ele>936.46</ele>
        <time>2016-06-29T09:32:32Z</time>
      </trkpt>
      <trkpt lat="42.51746" lon="2.22236">
        <ele>937.42</ele>
        <time>2016-06-29T09:32:41Z</time>
      </trkpt>
      <trkpt lat="42.51751" lon="2.22227">
        <ele>939.35</ele>
        <time>2016-06-29T09:32:52Z</time>
      </trkpt>
      <trkpt lat="42.51753" lon="2.22218">
        <ele>940.31</ele>
        <time>2016-06-29T09:33:02Z</time>
      </trkpt>
      <trkpt lat="42.51756" lon="2.22207">
        <ele>942.23</ele>
        <time>2016-06-29T09:33:14Z</time>
      </trkpt>
      <trkpt lat="42.51756" lon="2.22205">
        <ele>942.23</ele>
        <time>2016-06-29T09:33:16Z</time>
      </trkpt>
      <trkpt lat="42.51752" lon="2.22205">
        <ele>944.63</ele>
        <time>2016-06-29T09:33:27Z</time>
      </trkpt>
      <trkpt lat="42.51749" lon="2.2221">
        <ele>945.59</ele>
        <time>2016-06-29T09:33:36Z</time>
      </trkpt>
      <trkpt lat="42.51743" lon="2.22217">
        <ele>947.52</ele>
        <time>2016-06-29T09:33:46Z</time>
      </trkpt>
      <trkpt lat="42.51736" lon="2.22221">
        <ele>948.96</ele>
        <time>2016-06-29T09:33:54Z</time>
      </trkpt>
      <trkpt lat="42.51733" lon="2.22222">
        <ele>949.44</ele>
        <time>2016-06-29T09:33:57Z</time>
      </trkpt>
      <trkpt lat="42.51726" lon="2.22226">
        <ele>950.4</ele>
        <time>2016-06-29T09:34:03Z</time>
      </trkpt>
      <trkpt lat="42.51712" lon="2.2223">
        <ele>952.32</ele>
        <time>2016-06-29T09:34:15Z</time>
      </trkpt>
      <trkpt lat="42.517" lon="2.22229">
        <ele>953.77</ele>
        <time>2016-06-29T09:34:27Z</time>
      </trkpt>
      <trkpt lat="42.51698" lon="2.2223">
        <ele>954.73</ele>
        <time>2016-06-29T09:34:29Z</time>
      </trkpt>
      <trkpt lat="42.51689" lon="2.22228">
        <ele>957.61</ele>
        <time>2016-06-29T09:34:42Z</time>
      </trkpt>
      <trkpt lat="42.51685" lon="2.22229">
        <ele>960.49</ele>
        <time>2016-06-29T09:34:47Z</time>
      </trkpt>
      <trkpt lat="42.5168" lon="2.22224">
        <ele>962.9</ele>
        <time>2016-06-29T09:34:58Z</time>
      </trkpt>
      <trkpt lat="42.51678" lon="2.22221">
        <ele>963.38</ele>
        <time>2016-06-29T09:35:09Z</time>
      </trkpt>
      <trkpt lat="42.51673" lon="2.22218">
        <ele>964.82</ele>
        <time>2016-06-29T09:35:19Z</time>
      </trkpt>
      <trkpt lat="42.51671" lon="2.22217">
        <ele>966.26</ele>
        <time>2016-06-29T09:35:32Z</time>
      </trkpt>
      <trkpt lat="42.51669" lon="2.22221">
        <ele>969.63</ele>
        <time>2016-06-29T09:35:38Z</time>
      </trkpt>
      <trkpt lat="42.51666" lon="2.22229">
        <ele>972.03</ele>
        <time>2016-06-29T09:35:50Z</time>
      </trkpt>
      <trkpt lat="42.51661" lon="2.22228">
        <ele>972.03</ele>
        <time>2016-06-29T09:36:03Z</time>
      </trkpt>
      <trkpt lat="42.51657" lon="2.22212">
        <ele>973.47</ele>
        <time>2016-06-29T09:36:12Z</time>
      </trkpt>
      <trkpt lat="42.51658" lon="2.22205">
        <ele>975.88</ele>
        <time>2016-06-29T09:36:24Z</time>
      </trkpt>
      <trkpt lat="42.51658" lon="2.22204">
        <ele>976.36</ele>
        <time>2016-06-29T09:36:25Z</time>
      </trkpt>
      <trkpt lat="42.51649" lon="2.22199">
        <ele>977.8</ele>
        <time>2016-06-29T09:36:36Z</time>
      </trkpt>
      <trkpt lat="42.51647" lon="2.22209">
        <ele>979.72</ele>
        <time>2016-06-29T09:36:46Z</time>
      </trkpt>
      <trkpt lat="42.51647" lon="2.22211">
        <ele>979.72</ele>
        <time>2016-06-29T09:36:47Z</time>
      </trkpt>
      <trkpt lat="42.5164" lon="2.22215">
        <ele>983.57</ele>
        <time>2016-06-29T09:36:56Z</time>
      </trkpt>
      <trkpt lat="42.51626" lon="2.22217">
        <ele>984.05</ele>
        <time>2016-06-29T09:37:07Z</time>
      </trkpt>
      <trkpt lat="42.5161" lon="2.22213">
        <ele>985.49</ele>
        <time>2016-06-29T09:37:20Z</time>
      </trkpt>
      <trkpt lat="42.51602" lon="2.22213">
        <ele>986.93</ele>
        <time>2016-06-29T09:37:31Z</time>
      </trkpt>
      <trkpt lat="42.516" lon="2.22214">
        <ele>987.89</ele>
        <time>2016-06-29T09:37:35Z</time>
      </trkpt>
      <trkpt lat="42.51599" lon="2.22218">
        <ele>988.85</ele>
        <time>2016-06-29T09:37:46Z</time>
      </trkpt>
      <trkpt lat="42.51599" lon="2.22223">
        <ele>990.3</ele>
        <time>2016-06-29T09:37:55Z</time>
      </trkpt>
      <trkpt lat="42.51605" lon="2.22229">
        <ele>992.22</ele>
        <time>2016-06-29T09:38:06Z</time>
      </trkpt>
      <trkpt lat="42.51607" lon="2.22232">
        <ele>992.7</ele>
        <time>2016-06-29T09:38:10Z</time>
      </trkpt>
      <trkpt lat="42.51608" lon="2.22229">
        <ele>995.58</ele>
        <time>2016-06-29T09:38:23Z</time>
      </trkpt>
      <trkpt lat="42.51609" lon="2.22228">
        <ele>997.51</ele>
        <time>2016-06-29T09:38:36Z</time>
      </trkpt>
      <trkpt lat="42.51606" lon="2.2222">
        <ele>999.43</ele>
        <time>2016-06-29T09:38:46Z</time>
      </trkpt>
      <trkpt lat="42.51604" lon="2.22216">
        <ele>1000.39</ele>
        <time>2016-06-29T09:38:57Z</time>
      </trkpt>
      <trkpt lat="42.516" lon="2.22212">
        <ele>1001.83</ele>
        <time>2016-06-29T09:39:08Z</time>
      </trkpt>
      <trkpt lat="42.51589" lon="2.22205">
        <ele>1002.31</ele>
        <time>2016-06-29T09:39:19Z</time>
      </trkpt>
      <trkpt lat="42.51589" lon="2.22204">
        <ele>1002.31</ele>
        <time>2016-06-29T09:39:27Z</time>
      </trkpt>
      <trkpt lat="42.51585" lon="2.22203">
        <ele>1002.31</ele>
        <time>2016-06-29T09:39:31Z</time>
      </trkpt>
      <trkpt lat="42.51578" lon="2.22206">
        <ele>1002.79</ele>
        <time>2016-06-29T09:39:41Z</time>
      </trkpt>
      <trkpt lat="42.51563" lon="2.22209">
        <ele>1002.79</ele>
        <time>2016-06-29T09:39:53Z</time>
      </trkpt>
      <trkpt lat="42.51547" lon="2.22206">
        <ele>1002.79</ele>
        <time>2016-06-29T09:40:05Z</time>
      </trkpt>
      <trkpt lat="42.51545" lon="2.22205">
        <ele>1002.79</ele>
        <time>2016-06-29T09:40:07Z</time>
      </trkpt>
      <trkpt lat="42.51535" lon="2.22206">
        <ele>1002.79</ele>
        <time>2016-06-29T09:40:16Z</time>
      </trkpt>
      <trkpt lat="42.51531" lon="2.22208">
        <ele>1002.79</ele>
        <time>2016-06-29T09:40:19Z</time>
      </trkpt>
      <trkpt lat="42.51525" lon="2.22213">
        <ele>1002.79</ele>
        <time>2016-06-29T09:40:25Z</time>
      </trkpt>
      <trkpt lat="42.51516" lon="2.22213">
        <ele>1002.79</ele>
        <time>2016-06-29T09:40:33Z</time>
      </trkpt>
      <trkpt lat="42.51502" lon="2.22213">
        <ele>1002.79</ele>
        <time>2016-06-29T09:40:46Z</time>
      </trkpt>
      <trkpt lat="42.51499" lon="2.22212">
        <ele>1002.79</ele>
        <time>2016-06-29T09:40:48Z</time>
      </trkpt>
      <trkpt lat="42.51496" lon="2.22209">
        <ele>1002.79</ele>
        <time>2016-06-29T09:40:50Z</time>
      </trkpt>
      <trkpt lat="42.5149" lon="2.22203">
        <ele>1002.79</ele>
        <time>2016-06-29T09:40:56Z</time>
      </trkpt>
      <trkpt lat="42.51475" lon="2.22201">
        <ele>1003.75</ele>
        <time>2016-06-29T09:41:10Z</time>
      </trkpt>
      <trkpt lat="42.51471" lon="2.222">
        <ele>1004.23</ele>
        <time>2016-06-29T09:41:14Z</time>
      </trkpt>
      <trkpt lat="42.51465" lon="2.22202">
        <ele>1004.72</ele>
        <time>2016-06-29T09:41:21Z</time>
      </trkpt>
      <trkpt lat="42.51461" lon="2.22206">
        <ele>1004.72</ele>
        <time>2016-06-29T09:41:26Z</time>
      </trkpt>
      <trkpt lat="42.51459" lon="2.22205">
        <ele>1004.72</ele>
        <time>2016-06-29T09:41:28Z</time>
      </trkpt>
      <trkpt lat="42.51444" lon="2.22211">
        <ele>1005.2</ele>
        <time>2016-06-29T09:41:39Z</time>
      </trkpt>
      <trkpt lat="42.51435" lon="2.22209">
        <ele>1005.2</ele>
        <time>2016-06-29T09:41:46Z</time>
      </trkpt>
      <trkpt lat="42.5143" lon="2.22209">
        <ele>1005.68</ele>
        <time>2016-06-29T09:41:49Z</time>
      </trkpt>
      <trkpt lat="42.51423" lon="2.22208">
        <ele>1005.68</ele>
        <time>2016-06-29T09:41:53Z</time>
      </trkpt>
      <trkpt lat="42.51405" lon="2.22205">
        <ele>1006.16</ele>
        <time>2016-06-29T09:42:04Z</time>
      </trkpt>
      <trkpt lat="42.51392" lon="2.222">
        <ele>1006.64</ele>
        <time>2016-06-29T09:42:16Z</time>
      </trkpt>
      <trkpt lat="42.51389" lon="2.22201">
        <ele>1007.12</ele>
        <time>2016-06-29T09:42:27Z</time>
      </trkpt>
      <trkpt lat="42.5138" lon="2.22201">
        <ele>1007.6</ele>
        <time>2016-06-29T09:42:35Z</time>
      </trkpt>
      <trkpt lat="42.51369" lon="2.22205">
        <ele>1008.08</ele>
        <time>2016-06-29T09:42:45Z</time>
      </trkpt>
      <trkpt lat="42.51368" lon="2.22206">
        <ele>1008.08</ele>
        <time>2016-06-29T09:42:46Z</time>
      </trkpt>
      <trkpt lat="42.51362" lon="2.22218">
        <ele>1008.08</ele>
        <time>2016-06-29T09:42:56Z</time>
      </trkpt>
      <trkpt lat="42.51359" lon="2.22227">
        <ele>1008.08</ele>
        <time>2016-06-29T09:43:01Z</time>
      </trkpt>
      <trkpt lat="42.51357" lon="2.22227">
        <ele>1008.56</ele>
        <time>2016-06-29T09:43:03Z</time>
      </trkpt>
      <trkpt lat="42.51356" lon="2.22229">
        <ele>1008.56</ele>
        <time>2016-06-29T09:43:05Z</time>
      </trkpt>
      <trkpt lat="42.51353" lon="2.22232">
        <ele>1008.56</ele>
        <time>2016-06-29T09:43:10Z</time>
      </trkpt>
      <trkpt lat="42.51347" lon="2.22241">
        <ele>1009.04</ele>
        <time>2016-06-29T09:43:21Z</time>
      </trkpt>
      <trkpt lat="42.51347" lon="2.22246">
        <ele>1009.52</ele>
        <time>2016-06-29T09:43:24Z</time>
      </trkpt>
      <trkpt lat="42.51349" lon="2.22264">
        <ele>1010</ele>
        <time>2016-06-29T09:43:35Z</time>
      </trkpt>
      <trkpt lat="42.5135" lon="2.22268">
        <ele>1010</ele>
        <time>2016-06-29T09:43:37Z</time>
      </trkpt>
      <trkpt lat="42.51351" lon="2.22275">
        <ele>1010</ele>
        <time>2016-06-29T09:43:40Z</time>
      </trkpt>
      <trkpt lat="42.51352" lon="2.22278">
        <ele>1010</ele>
        <time>2016-06-29T09:43:42Z</time>
      </trkpt>
      <trkpt lat="42.51355" lon="2.22298">
        <ele>1010</ele>
        <time>2016-06-29T09:43:53Z</time>
      </trkpt>
      <trkpt lat="42.51357" lon="2.22308">
        <ele>1010</ele>
        <time>2016-06-29T09:43:58Z</time>
      </trkpt>
      <trkpt lat="42.51356" lon="2.2232">
        <ele>1010</ele>
        <time>2016-06-29T09:44:05Z</time>
      </trkpt>
      <trkpt lat="42.51356" lon="2.22323">
        <ele>1010</ele>
        <time>2016-06-29T09:44:07Z</time>
      </trkpt>
      <trkpt lat="42.51357" lon="2.2233">
        <ele>1010.48</ele>
        <time>2016-06-29T09:44:11Z</time>
      </trkpt>
      <trkpt lat="42.51357" lon="2.22337">
        <ele>1010.48</ele>
        <time>2016-06-29T09:44:15Z</time>
      </trkpt>
      <trkpt lat="42.51348" lon="2.22351">
        <ele>1010.48</ele>
        <time>2016-06-29T09:44:27Z</time>
      </trkpt>
      <trkpt lat="42.51346" lon="2.22363">
        <ele>1010.48</ele>
        <time>2016-06-29T09:44:34Z</time>
      </trkpt>
      <trkpt lat="42.51337" lon="2.22375">
        <ele>1010</ele>
        <time>2016-06-29T09:44:46Z</time>
      </trkpt>
      <trkpt lat="42.51332" lon="2.22386">
        <ele>1010</ele>
        <time>2016-06-29T09:44:58Z</time>
      </trkpt>
      <trkpt lat="42.51349" lon="2.22445">
        <ele>1010.96</ele>
        <time>2016-06-29T09:45:22Z</time>
      </trkpt>
      <trkpt lat="42.51365" lon="2.22477">
        <ele>1010.48</ele>
        <time>2016-06-29T09:45:42Z</time>
      </trkpt>
      <trkpt lat="42.51366" lon="2.22486">
        <ele>1010.48</ele>
        <time>2016-06-29T09:45:59Z</time>
      </trkpt>
      <trkpt lat="42.51368" lon="2.22498">
        <ele>1010.48</ele>
        <time>2016-06-29T09:46:18Z</time>
      </trkpt>
      <trkpt lat="42.51349" lon="2.22517">
        <ele>1010.48</ele>
        <time>2016-06-29T09:46:36Z</time>
      </trkpt>
      <trkpt lat="42.51349" lon="2.22534">
        <ele>1010.48</ele>
        <time>2016-06-29T09:46:47Z</time>
      </trkpt>
      <trkpt lat="42.51337" lon="2.22549">
        <ele>1010.48</ele>
        <time>2016-06-29T09:47:02Z</time>
      </trkpt>
      <trkpt lat="42.51335" lon="2.22552">
        <ele>1010.48</ele>
        <time>2016-06-29T09:47:05Z</time>
      </trkpt>
      <trkpt lat="42.51328" lon="2.22569">
        <ele>1010.48</ele>
        <time>2016-06-29T09:47:21Z</time>
      </trkpt>
      <trkpt lat="42.51321" lon="2.22578">
        <ele>1010.48</ele>
        <time>2016-06-29T09:47:34Z</time>
      </trkpt>
      <trkpt lat="42.5132" lon="2.22577">
        <ele>1010.48</ele>
        <time>2016-06-29T09:47:36Z</time>
      </trkpt>
      <trkpt lat="42.5131" lon="2.22583">
        <ele>1010.48</ele>
        <time>2016-06-29T09:47:49Z</time>
      </trkpt>
      <trkpt lat="42.51308" lon="2.22588">
        <ele>1010.48</ele>
        <time>2016-06-29T09:47:51Z</time>
      </trkpt>
      <trkpt lat="42.51263" lon="2.225">
        <ele>1010.48</ele>
        <time>2016-06-29T09:47:59Z</time>
      </trkpt>
      <trkpt lat="42.51253" lon="2.22473">
        <ele>1010.48</ele>
        <time>2016-06-29T09:48:02Z</time>
      </trkpt>
      <trkpt lat="42.51244" lon="2.22449">
        <ele>1010.48</ele>
        <time>2016-06-29T09:48:08Z</time>
      </trkpt>
      <trkpt lat="42.51244" lon="2.22447">
        <ele>1010.48</ele>
        <time>2016-06-29T09:48:09Z</time>
      </trkpt>
      <trkpt lat="42.51234" lon="2.22398">
        <ele>1010.48</ele>
        <time>2016-06-29T09:48:17Z</time>
      </trkpt>
      <trkpt lat="42.51233" lon="2.22394">
        <ele>1010.48</ele>
        <time>2016-06-29T09:48:22Z</time>
      </trkpt>
      <trkpt lat="42.5123" lon="2.22398">
        <ele>1010.48</ele>
        <time>2016-06-29T09:48:26Z</time>
      </trkpt>
      <trkpt lat="42.51235" lon="2.22436">
        <ele>1010.48</ele>
        <time>2016-06-29T09:48:35Z</time>
      </trkpt>
      <trkpt lat="42.51257" lon="2.22569">
        <ele>1010.48</ele>
        <time>2016-06-29T09:48:55Z</time>
      </trkpt>
      <trkpt lat="42.51256" lon="2.22571">
        <ele>1010.48</ele>
        <time>2016-06-29T09:48:58Z</time>
      </trkpt>
      <trkpt lat="42.51259" lon="2.22589">
        <ele>1010.48</ele>
        <time>2016-06-29T09:49:10Z</time>
      </trkpt>
      <trkpt lat="42.51253" lon="2.22597">
        <ele>1010.48</ele>
        <time>2016-06-29T09:49:23Z</time>
      </trkpt>
      <trkpt lat="42.51245" lon="2.22609">
        <ele>1010.48</ele>
        <time>2016-06-29T09:49:36Z</time>
      </trkpt>
      <trkpt lat="42.51226" lon="2.22613">
        <ele>1010.48</ele>
        <time>2016-06-29T09:49:50Z</time>
      </trkpt>
      <trkpt lat="42.51229" lon="2.22614">
        <ele>1010.48</ele>
        <time>2016-06-29T09:49:54Z</time>
      </trkpt>
      <trkpt lat="42.5121" lon="2.22601">
        <ele>1010.96</ele>
        <time>2016-06-29T09:50:09Z</time>
      </trkpt>
      <trkpt lat="42.51197" lon="2.22595">
        <ele>1010.96</ele>
        <time>2016-06-29T09:50:19Z</time>
      </trkpt>
      <trkpt lat="42.5118" lon="2.22589">
        <ele>1010.96</ele>
        <time>2016-06-29T09:50:34Z</time>
      </trkpt>
      <trkpt lat="42.51178" lon="2.22591">
        <ele>1010.96</ele>
        <time>2016-06-29T09:50:36Z</time>
      </trkpt>
      <trkpt lat="42.51175" lon="2.22591">
        <ele>1010.96</ele>
        <time>2016-06-29T09:50:38Z</time>
      </trkpt>
      <trkpt lat="42.51172" lon="2.22585">
        <ele>1010.96</ele>
        <time>2016-06-29T09:50:41Z</time>
      </trkpt>
      <trkpt lat="42.51109" lon="2.22444">
        <ele>1010.96</ele>
        <time>2016-06-29T09:50:54Z</time>
      </trkpt>
      <trkpt lat="42.51104" lon="2.22433">
        <ele>1010.96</ele>
        <time>2016-06-29T09:50:55Z</time>
      </trkpt>
      <trkpt lat="42.51101" lon="2.22395">
        <ele>1010.96</ele>
        <time>2016-06-29T09:51:10Z</time>
      </trkpt>
      <trkpt lat="42.5109" lon="2.22388">
        <ele>1010.96</ele>
        <time>2016-06-29T09:51:21Z</time>
      </trkpt>
      <trkpt lat="42.51075" lon="2.22365">
        <ele>1010.96</ele>
        <time>2016-06-29T09:51:29Z</time>
      </trkpt>
      <trkpt lat="42.51068" lon="2.22381">
        <ele>1010.96</ele>
        <time>2016-06-29T09:51:40Z</time>
      </trkpt>
      <trkpt lat="42.51071" lon="2.22401">
        <ele>1010.96</ele>
        <time>2016-06-29T09:51:44Z</time>
      </trkpt>
      <trkpt lat="42.5107" lon="2.22412">
        <ele>1010.96</ele>
        <time>2016-06-29T09:51:49Z</time>
      </trkpt>
      <trkpt lat="42.51053" lon="2.2241">
        <ele>1010.96</ele>
        <time>2016-06-29T09:52:02Z</time>
      </trkpt>
      <trkpt lat="42.51048" lon="2.22408">
        <ele>1010.96</ele>
        <time>2016-06-29T09:52:05Z</time>
      </trkpt>
      <trkpt lat="42.51039" lon="2.22402">
        <ele>1011.44</ele>
        <time>2016-06-29T09:52:14Z</time>
      </trkpt>
      <trkpt lat="42.51037" lon="2.22397">
        <ele>1011.44</ele>
        <time>2016-06-29T09:52:17Z</time>
      </trkpt>
      <trkpt lat="42.51033" lon="2.22396">
        <ele>1011.44</ele>
        <time>2016-06-29T09:52:23Z</time>
      </trkpt>
      <trkpt lat="42.51033" lon="2.22399">
        <ele>1011.44</ele>
        <time>2016-06-29T09:52:25Z</time>
      </trkpt>
      <trkpt lat="42.51028" lon="2.22402">
        <ele>1011.44</ele>
        <time>2016-06-29T09:52:29Z</time>
      </trkpt>
      <trkpt lat="42.51024" lon="2.22404">
        <ele>1011.44</ele>
        <time>2016-06-29T09:52:33Z</time>
      </trkpt>
      <trkpt lat="42.51019" lon="2.22402">
        <ele>1011.44</ele>
        <time>2016-06-29T09:52:38Z</time>
      </trkpt>
      <trkpt lat="42.5101" lon="2.22401">
        <ele>1011.44</ele>
        <time>2016-06-29T09:52:46Z</time>
      </trkpt>
      <trkpt lat="42.51005" lon="2.2241">
        <ele>1011.93</ele>
        <time>2016-06-29T09:52:55Z</time>
      </trkpt>
      <trkpt lat="42.51003" lon="2.22415">
        <ele>1011.93</ele>
        <time>2016-06-29T09:52:58Z</time>
      </trkpt>
      <trkpt lat="42.51001" lon="2.22417">
        <ele>1011.93</ele>
        <time>2016-06-29T09:53:00Z</time>
      </trkpt>
      <trkpt lat="42.50988" lon="2.22421">
        <ele>1012.41</ele>
        <time>2016-06-29T09:53:11Z</time>
      </trkpt>
      <trkpt lat="42.50977" lon="2.22432">
        <ele>1012.41</ele>
        <time>2016-06-29T09:53:25Z</time>
      </trkpt>
      <trkpt lat="42.50969" lon="2.22448">
        <ele>1013.37</ele>
        <time>2016-06-29T09:53:35Z</time>
      </trkpt>
      <trkpt lat="42.50968" lon="2.22449">
        <ele>1013.37</ele>
        <time>2016-06-29T09:53:36Z</time>
      </trkpt>
      <trkpt lat="42.50962" lon="2.22453">
        <ele>1013.37</ele>
        <time>2016-06-29T09:53:49Z</time>
      </trkpt>
      <trkpt lat="42.50961" lon="2.22466">
        <ele>1013.37</ele>
        <time>2016-06-29T09:53:54Z</time>
      </trkpt>
      <trkpt lat="42.50951" lon="2.22461">
        <ele>1013.37</ele>
        <time>2016-06-29T09:54:07Z</time>
      </trkpt>
      <trkpt lat="42.50947" lon="2.22449">
        <ele>1013.37</ele>
        <time>2016-06-29T09:54:10Z</time>
      </trkpt>
      <trkpt lat="42.50949" lon="2.22433">
        <ele>1013.37</ele>
        <time>2016-06-29T09:54:22Z</time>
      </trkpt>
      <trkpt lat="42.50946" lon="2.22429">
        <ele>1013.37</ele>
        <time>2016-06-29T09:54:27Z</time>
      </trkpt>
      <trkpt lat="42.50942" lon="2.22426">
        <ele>1013.37</ele>
        <time>2016-06-29T09:54:29Z</time>
      </trkpt>
      <trkpt lat="42.50939" lon="2.22425">
        <ele>1013.37</ele>
        <time>2016-06-29T09:54:30Z</time>
      </trkpt>
      <trkpt lat="42.50934" lon="2.22423">
        <ele>1013.37</ele>
        <time>2016-06-29T09:54:33Z</time>
      </trkpt>
      <trkpt lat="42.50923" lon="2.22436">
        <ele>1013.37</ele>
        <time>2016-06-29T09:54:46Z</time>
      </trkpt>
      <trkpt lat="42.5092" lon="2.22442">
        <ele>1013.37</ele>
        <time>2016-06-29T09:54:50Z</time>
      </trkpt>
      <trkpt lat="42.50908" lon="2.22449">
        <ele>1013.37</ele>
        <time>2016-06-29T09:55:04Z</time>
      </trkpt>
      <trkpt lat="42.50908" lon="2.22469">
        <ele>1013.37</ele>
        <time>2016-06-29T09:55:17Z</time>
      </trkpt>
      <trkpt lat="42.50909" lon="2.22459">
        <ele>1012.41</ele>
        <time>2016-06-29T09:55:31Z</time>
      </trkpt>
      <trkpt lat="42.50914" lon="2.22459">
        <ele>1012.41</ele>
        <time>2016-06-29T09:55:38Z</time>
      </trkpt>
      <trkpt lat="42.50903" lon="2.2247">
        <ele>1011.93</ele>
        <time>2016-06-29T09:55:51Z</time>
      </trkpt>
      <trkpt lat="42.50879" lon="2.22478">
        <ele>1011.93</ele>
        <time>2016-06-29T09:56:01Z</time>
      </trkpt>
      <trkpt lat="42.50882" lon="2.2249">
        <ele>1011.93</ele>
        <time>2016-06-29T09:56:06Z</time>
      </trkpt>
      <trkpt lat="42.50883" lon="2.22503">
        <ele>1011.93</ele>
        <time>2016-06-29T09:56:13Z</time>
      </trkpt>
      <trkpt lat="42.50884" lon="2.22504">
        <ele>1011.93</ele>
        <time>2016-06-29T09:56:14Z</time>
      </trkpt>
      <trkpt lat="42.50881" lon="2.22512">
        <ele>1011.93</ele>
        <time>2016-06-29T09:56:20Z</time>
      </trkpt>
      <trkpt lat="42.50882" lon="2.22517">
        <ele>1011.93</ele>
        <time>2016-06-29T09:56:24Z</time>
      </trkpt>
      <trkpt lat="42.50879" lon="2.22529">
        <ele>1013.37</ele>
        <time>2016-06-29T09:56:38Z</time>
      </trkpt>
      <trkpt lat="42.50876" lon="2.22536">
        <ele>1013.37</ele>
        <time>2016-06-29T09:56:49Z</time>
      </trkpt>
      <trkpt lat="42.50877" lon="2.22541">
        <ele>1013.37</ele>
        <time>2016-06-29T09:56:52Z</time>
      </trkpt>
      <trkpt lat="42.50876" lon="2.2255">
        <ele>1013.85</ele>
        <time>2016-06-29T09:56:57Z</time>
      </trkpt>
      <trkpt lat="42.50872" lon="2.22557">
        <ele>1013.85</ele>
        <time>2016-06-29T09:57:03Z</time>
      </trkpt>
      <trkpt lat="42.50859" lon="2.22561">
        <ele>1013.85</ele>
        <time>2016-06-29T09:57:16Z</time>
      </trkpt>
      <trkpt lat="42.50855" lon="2.22568">
        <ele>1013.85</ele>
        <time>2016-06-29T09:57:28Z</time>
      </trkpt>
      <trkpt lat="42.50856" lon="2.22569">
        <ele>1013.85</ele>
        <time>2016-06-29T09:57:29Z</time>
      </trkpt>
      <trkpt lat="42.5086" lon="2.2258">
        <ele>1013.85</ele>
        <time>2016-06-29T09:57:38Z</time>
      </trkpt>
      <trkpt lat="42.50865" lon="2.22598">
        <ele>1013.85</ele>
        <time>2016-06-29T09:57:52Z</time>
      </trkpt>
      <trkpt lat="42.50871" lon="2.22607">
        <ele>1013.85</ele>
        <time>2016-06-29T09:58:01Z</time>
      </trkpt>
      <trkpt lat="42.50875" lon="2.22617">
        <ele>1013.85</ele>
        <time>2016-06-29T09:58:09Z</time>
      </trkpt>
      <trkpt lat="42.50869" lon="2.22625">
        <ele>1013.85</ele>
        <time>2016-06-29T09:58:13Z</time>
      </trkpt>
      <trkpt lat="42.50869" lon="2.22629">
        <ele>1013.85</ele>
        <time>2016-06-29T09:58:16Z</time>
      </trkpt>
      <trkpt lat="42.50869" lon="2.22636">
        <ele>1013.85</ele>
        <time>2016-06-29T09:58:21Z</time>
      </trkpt>
      <trkpt lat="42.5087" lon="2.22646">
        <ele>1013.85</ele>
        <time>2016-06-29T09:58:29Z</time>
      </trkpt>
      <trkpt lat="42.5087" lon="2.22657">
        <ele>1013.85</ele>
        <time>2016-06-29T09:58:35Z</time>
      </trkpt>
      <trkpt lat="42.50865" lon="2.22673">
        <ele>1013.85</ele>
        <time>2016-06-29T09:58:45Z</time>
      </trkpt>
      <trkpt lat="42.50866" lon="2.22678">
        <ele>1013.85</ele>
        <time>2016-06-29T09:58:49Z</time>
      </trkpt>
      <trkpt lat="42.50865" lon="2.22681">
        <ele>1013.85</ele>
        <time>2016-06-29T09:58:51Z</time>
      </trkpt>
      <trkpt lat="42.50879" lon="2.22693">
        <ele>1012.41</ele>
        <time>2016-06-29T09:59:03Z</time>
      </trkpt>
      <trkpt lat="42.5088" lon="2.22702">
        <ele>1012.41</ele>
        <time>2016-06-29T09:59:13Z</time>
      </trkpt>
      <trkpt lat="42.5088" lon="2.22709">
        <ele>1012.41</ele>
        <time>2016-06-29T09:59:20Z</time>
      </trkpt>
      <trkpt lat="42.50881" lon="2.22716">
        <ele>1012.41</ele>
        <time>2016-06-29T09:59:25Z</time>
      </trkpt>
      <trkpt lat="42.50868" lon="2.22738">
        <ele>1012.41</ele>
        <time>2016-06-29T09:59:38Z</time>
      </trkpt>
      <trkpt lat="42.50868" lon="2.22744">
        <ele>1011.93</ele>
        <time>2016-06-29T09:59:42Z</time>
      </trkpt>
      <trkpt lat="42.50869" lon="2.22757">
        <ele>1011.93</ele>
        <time>2016-06-29T09:59:54Z</time>
      </trkpt>
      <trkpt lat="42.50866" lon="2.22761">
        <ele>1011.93</ele>
        <time>2016-06-29T10:00:07Z</time>
      </trkpt>
      <trkpt lat="42.50864" lon="2.22762">
        <ele>1013.37</ele>
        <time>2016-06-29T10:00:10Z</time>
      </trkpt>
      <trkpt lat="42.50854" lon="2.2277">
        <ele>1014.33</ele>
        <time>2016-06-29T10:00:19Z</time>
      </trkpt>
      <trkpt lat="42.50841" lon="2.22783">
        <ele>1014.81</ele>
        <time>2016-06-29T10:00:31Z</time>
      </trkpt>
      <trkpt lat="42.50831" lon="2.22789">
        <ele>1014.81</ele>
        <time>2016-06-29T10:00:44Z</time>
      </trkpt>
      <trkpt lat="42.50829" lon="2.2279">
        <ele>1014.81</ele>
        <time>2016-06-29T10:01:00Z</time>
      </trkpt>
      <trkpt lat="42.50827" lon="2.2279">
        <ele>1014.81</ele>
        <time>2016-06-29T10:01:25Z</time>
      </trkpt>
      <trkpt lat="42.50826" lon="2.22791">
        <ele>1014.33</ele>
        <time>2016-06-29T10:01:42Z</time>
      </trkpt>
      <trkpt lat="42.50825" lon="2.22792">
        <ele>1014.33</ele>
        <time>2016-06-29T10:01:52Z</time>
      </trkpt>
      <trkpt lat="42.50821" lon="2.22801">
        <ele>1014.33</ele>
        <time>2016-06-29T10:02:04Z</time>
      </trkpt>
      <trkpt lat="42.50824" lon="2.22809">
        <ele>1014.33</ele>
        <time>2016-06-29T10:02:16Z</time>
      </trkpt>
      <trkpt lat="42.50821" lon="2.2282">
        <ele>1014.33</ele>
        <time>2016-06-29T10:02:26Z</time>
      </trkpt>
      <trkpt lat="42.50822" lon="2.2282">
        <ele>1014.33</ele>
        <time>2016-06-29T10:02:29Z</time>
      </trkpt>
      <trkpt lat="42.50831" lon="2.22822">
        <ele>1014.33</ele>
        <time>2016-06-29T10:02:41Z</time>
      </trkpt>
      <trkpt lat="42.50831" lon="2.22819">
        <ele>1014.81</ele>
        <time>2016-06-29T10:02:53Z</time>
      </trkpt>
      <trkpt lat="42.50833" lon="2.2282">
        <ele>1014.81</ele>
        <time>2016-06-29T10:03:05Z</time>
      </trkpt>
      <trkpt lat="42.50833" lon="2.22823">
        <ele>1014.33</ele>
        <time>2016-06-29T10:03:20Z</time>
      </trkpt>
      <trkpt lat="42.50833" lon="2.22823">
        <ele>1014.33</ele>
        <time>2016-06-29T10:03:24Z</time>
      </trkpt>
      <trkpt lat="42.50832" lon="2.22824">
        <ele>1014.33</ele>
        <time>2016-06-29T10:03:35Z</time>
      </trkpt>
      <trkpt lat="42.50832" lon="2.22824">
        <ele>1014.33</ele>
        <time>2016-06-29T10:03:36Z</time>
      </trkpt>
      <trkpt lat="42.50835" lon="2.22836">
        <ele>1012.89</ele>
        <time>2016-06-29T10:03:46Z</time>
      </trkpt>
      <trkpt lat="42.50843" lon="2.22842">
        <ele>1012.89</ele>
        <time>2016-06-29T10:03:58Z</time>
      </trkpt>
      <trkpt lat="42.50843" lon="2.22842">
        <ele>1012.89</ele>
        <time>2016-06-29T10:04:00Z</time>
      </trkpt>
      <trkpt lat="42.50845" lon="2.22838">
        <ele>1012.41</ele>
        <time>2016-06-29T10:04:11Z</time>
      </trkpt>
      <trkpt lat="42.50844" lon="2.22838">
        <ele>1012.41</ele>
        <time>2016-06-29T10:04:16Z</time>
      </trkpt>
      <trkpt lat="42.50841" lon="2.22843">
        <ele>1012.41</ele>
        <time>2016-06-29T10:04:20Z</time>
      </trkpt>
      <trkpt lat="42.50835" lon="2.22854">
        <ele>1012.41</ele>
        <time>2016-06-29T10:04:28Z</time>
      </trkpt>
      <trkpt lat="42.50839" lon="2.22864">
        <ele>1012.41</ele>
        <time>2016-06-29T10:04:35Z</time>
      </trkpt>
      <trkpt lat="42.50841" lon="2.22869">
        <ele>1013.85</ele>
        <time>2016-06-29T10:04:39Z</time>
      </trkpt>
      <trkpt lat="42.50841" lon="2.2287">
        <ele>1013.85</ele>
        <time>2016-06-29T10:04:40Z</time>
      </trkpt>
      <trkpt lat="42.50846" lon="2.22882">
        <ele>1013.37</ele>
        <time>2016-06-29T10:04:50Z</time>
      </trkpt>
      <trkpt lat="42.50844" lon="2.22886">
        <ele>1014.33</ele>
        <time>2016-06-29T10:04:53Z</time>
      </trkpt>
      <trkpt lat="42.5084" lon="2.22902">
        <ele>1014.81</ele>
        <time>2016-06-29T10:05:03Z</time>
      </trkpt>
      <trkpt lat="42.5086" lon="2.22905">
        <ele>1015.77</ele>
        <time>2016-06-29T10:05:12Z</time>
      </trkpt>
      <trkpt lat="42.5086" lon="2.22911">
        <ele>1015.77</ele>
        <time>2016-06-29T10:05:22Z</time>
      </trkpt>
      <trkpt lat="42.50858" lon="2.22924">
        <ele>1016.73</ele>
        <time>2016-06-29T10:05:35Z</time>
      </trkpt>
      <trkpt lat="42.50857" lon="2.22925">
        <ele>1016.73</ele>
        <time>2016-06-29T10:05:42Z</time>
      </trkpt>
      <trkpt lat="42.50851" lon="2.22934">
        <ele>1017.21</ele>
        <time>2016-06-29T10:05:54Z</time>
      </trkpt>
      <trkpt lat="42.50847" lon="2.22934">
        <ele>1018.17</ele>
        <time>2016-06-29T10:06:05Z</time>
      </trkpt>
      <trkpt lat="42.50846" lon="2.22932">
        <ele>1017.69</ele>
        <time>2016-06-29T10:06:21Z</time>
      </trkpt>
      <trkpt lat="42.50844" lon="2.2293">
        <ele>1017.69</ele>
        <time>2016-06-29T10:06:43Z</time>
      </trkpt>
      <trkpt lat="42.50846" lon="2.22931">
        <ele>1018.17</ele>
        <time>2016-06-29T10:06:57Z</time>
      </trkpt>
      <trkpt lat="42.50848" lon="2.22934">
        <ele>1019.13</ele>
        <time>2016-06-29T10:07:09Z</time>
      </trkpt>
      <trkpt lat="42.5085" lon="2.22942">
        <ele>1019.62</ele>
        <time>2016-06-29T10:07:17Z</time>
      </trkpt>
      <trkpt lat="42.50851" lon="2.22944">
        <ele>1019.62</ele>
        <time>2016-06-29T10:07:19Z</time>
      </trkpt>
      <trkpt lat="42.50853" lon="2.2295">
        <ele>1019.62</ele>
        <time>2016-06-29T10:07:28Z</time>
      </trkpt>
      <trkpt lat="42.50847" lon="2.22954">
        <ele>1020.1</ele>
        <time>2016-06-29T10:07:40Z</time>
      </trkpt>
      <trkpt lat="42.50837" lon="2.22966">
        <ele>1020.1</ele>
        <time>2016-06-29T10:07:54Z</time>
      </trkpt>
      <trkpt lat="42.50834" lon="2.22971">
        <ele>1020.58</ele>
        <time>2016-06-29T10:08:01Z</time>
      </trkpt>
      <trkpt lat="42.50832" lon="2.22974">
        <ele>1020.58</ele>
        <time>2016-06-29T10:08:04Z</time>
      </trkpt>
      <trkpt lat="42.50826" lon="2.22987">
        <ele>1021.54</ele>
        <time>2016-06-29T10:08:15Z</time>
      </trkpt>
      <trkpt lat="42.50826" lon="2.22989">
        <ele>1022.02</ele>
        <time>2016-06-29T10:08:17Z</time>
      </trkpt>
      <trkpt lat="42.50822" lon="2.22999">
        <ele>1022.98</ele>
        <time>2016-06-29T10:08:25Z</time>
      </trkpt>
      <trkpt lat="42.50814" lon="2.23011">
        <ele>1023.46</ele>
        <time>2016-06-29T10:08:37Z</time>
      </trkpt>
      <trkpt lat="42.50812" lon="2.23014">
        <ele>1023.46</ele>
        <time>2016-06-29T10:08:42Z</time>
      </trkpt>
      <trkpt lat="42.50807" lon="2.23024">
        <ele>1023.46</ele>
        <time>2016-06-29T10:08:54Z</time>
      </trkpt>
      <trkpt lat="42.50807" lon="2.23029">
        <ele>1023.94</ele>
        <time>2016-06-29T10:09:05Z</time>
      </trkpt>
      <trkpt lat="42.50804" lon="2.23032">
        <ele>1023.94</ele>
        <time>2016-06-29T10:09:18Z</time>
      </trkpt>
      <trkpt lat="42.50799" lon="2.23034">
        <ele>1023.94</ele>
        <time>2016-06-29T10:09:47Z</time>
      </trkpt>
      <trkpt lat="42.50795" lon="2.23042">
        <ele>1023.94</ele>
        <time>2016-06-29T10:09:59Z</time>
      </trkpt>
      <trkpt lat="42.50795" lon="2.23047">
        <ele>1023.94</ele>
        <time>2016-06-29T10:10:11Z</time>
      </trkpt>
      <trkpt lat="42.50789" lon="2.23056">
        <ele>1024.42</ele>
        <time>2016-06-29T10:10:23Z</time>
      </trkpt>
      <trkpt lat="42.50787" lon="2.2306">
        <ele>1024.9</ele>
        <time>2016-06-29T10:10:28Z</time>
      </trkpt>
      <trkpt lat="42.50783" lon="2.23063">
        <ele>1025.38</ele>
        <time>2016-06-29T10:10:33Z</time>
      </trkpt>
      <trkpt lat="42.50777" lon="2.23074">
        <ele>1026.34</ele>
        <time>2016-06-29T10:10:46Z</time>
      </trkpt>
      <trkpt lat="42.50775" lon="2.23079">
        <ele>1026.34</ele>
        <time>2016-06-29T10:10:56Z</time>
      </trkpt>
      <trkpt lat="42.50767" lon="2.23087">
        <ele>1027.31</ele>
        <time>2016-06-29T10:11:08Z</time>
      </trkpt>
      <trkpt lat="42.50763" lon="2.23093">
        <ele>1028.27</ele>
        <time>2016-06-29T10:11:21Z</time>
      </trkpt>
      <trkpt lat="42.50757" lon="2.23099">
        <ele>1029.23</ele>
        <time>2016-06-29T10:11:32Z</time>
      </trkpt>
      <trkpt lat="42.50749" lon="2.23101">
        <ele>1029.23</ele>
        <time>2016-06-29T10:11:45Z</time>
      </trkpt>
      <trkpt lat="42.50747" lon="2.23102">
        <ele>1029.23</ele>
        <time>2016-06-29T10:11:55Z</time>
      </trkpt>
      <trkpt lat="42.50745" lon="2.23095">
        <ele>1028.75</ele>
        <time>2016-06-29T10:12:03Z</time>
      </trkpt>
      <trkpt lat="42.50741" lon="2.23091">
        <ele>1028.75</ele>
        <time>2016-06-29T10:12:10Z</time>
      </trkpt>
      <trkpt lat="42.5074" lon="2.23091">
        <ele>1028.75</ele>
        <time>2016-06-29T10:12:11Z</time>
      </trkpt>
      <trkpt lat="42.50738" lon="2.23092">
        <ele>1028.75</ele>
        <time>2016-06-29T10:12:13Z</time>
      </trkpt>
      <trkpt lat="42.50733" lon="2.23095">
        <ele>1029.23</ele>
        <time>2016-06-29T10:12:24Z</time>
      </trkpt>
      <trkpt lat="42.50732" lon="2.23098">
        <ele>1029.23</ele>
        <time>2016-06-29T10:12:30Z</time>
      </trkpt>
      <trkpt lat="42.50727" lon="2.23102">
        <ele>1031.15</ele>
        <time>2016-06-29T10:12:43Z</time>
      </trkpt>
      <trkpt lat="42.50727" lon="2.23105">
        <ele>1032.59</ele>
        <time>2016-06-29T10:12:57Z</time>
      </trkpt>
      <trkpt lat="42.50722" lon="2.23106">
        <ele>1033.07</ele>
        <time>2016-06-29T10:13:08Z</time>
      </trkpt>
      <trkpt lat="42.50713" lon="2.23107">
        <ele>1033.55</ele>
        <time>2016-06-29T10:13:20Z</time>
      </trkpt>
      <trkpt lat="42.50711" lon="2.23105">
        <ele>1034.04</ele>
        <time>2016-06-29T10:13:31Z</time>
      </trkpt>
      <trkpt lat="42.50706" lon="2.23106">
        <ele>1034.52</ele>
        <time>2016-06-29T10:13:41Z</time>
      </trkpt>
      <trkpt lat="42.50703" lon="2.23109">
        <ele>1035.96</ele>
        <time>2016-06-29T10:13:54Z</time>
      </trkpt>
      <trkpt lat="42.50685" lon="2.23115">
        <ele>1038.36</ele>
        <time>2016-06-29T10:14:08Z</time>
      </trkpt>
      <trkpt lat="42.5068" lon="2.23117">
        <ele>1038.84</ele>
        <time>2016-06-29T10:14:12Z</time>
      </trkpt>
      <trkpt lat="42.50663" lon="2.23114">
        <ele>1039.32</ele>
        <time>2016-06-29T10:14:26Z</time>
      </trkpt>
      <trkpt lat="42.50659" lon="2.23119">
        <ele>1040.76</ele>
        <time>2016-06-29T10:14:39Z</time>
      </trkpt>
      <trkpt lat="42.50655" lon="2.2312">
        <ele>1040.76</ele>
        <time>2016-06-29T10:14:44Z</time>
      </trkpt>
      <trkpt lat="42.50648" lon="2.23114">
        <ele>1040.76</ele>
        <time>2016-06-29T10:14:59Z</time>
      </trkpt>
      <trkpt lat="42.50649" lon="2.23113">
        <ele>1040.76</ele>
        <time>2016-06-29T10:15:18Z</time>
      </trkpt>
      <trkpt lat="42.50652" lon="2.23106">
        <ele>1040.28</ele>
        <time>2016-06-29T10:15:31Z</time>
      </trkpt>
      <trkpt lat="42.50652" lon="2.23104">
        <ele>1039.32</ele>
        <time>2016-06-29T10:15:44Z</time>
      </trkpt>
      <trkpt lat="42.50652" lon="2.23101">
        <ele>1040.28</ele>
        <time>2016-06-29T10:15:57Z</time>
      </trkpt>
      <trkpt lat="42.50649" lon="2.23101">
        <ele>1041.25</ele>
        <time>2016-06-29T10:16:06Z</time>
      </trkpt>
      <trkpt lat="42.50648" lon="2.23099">
        <ele>1043.17</ele>
        <time>2016-06-29T10:16:20Z</time>
      </trkpt>
      <trkpt lat="42.50646" lon="2.23097">
        <ele>1044.13</ele>
        <time>2016-06-29T10:16:29Z</time>
      </trkpt>
      <trkpt lat="42.50628" lon="2.231">
        <ele>1045.57</ele>
        <time>2016-06-29T10:16:45Z</time>
      </trkpt>
      <trkpt lat="42.50617" lon="2.23095">
        <ele>1047.49</ele>
        <time>2016-06-29T10:16:57Z</time>
      </trkpt>
      <trkpt lat="42.50614" lon="2.2309">
        <ele>1047.49</ele>
        <time>2016-06-29T10:17:20Z</time>
      </trkpt>
      <trkpt lat="42.50598" lon="2.23095">
        <ele>1047.97</ele>
        <time>2016-06-29T10:17:33Z</time>
      </trkpt>
      <trkpt lat="42.50587" lon="2.231">
        <ele>1048.45</ele>
        <time>2016-06-29T10:17:46Z</time>
      </trkpt>
      <trkpt lat="42.50567" lon="2.23096">
        <ele>1048.94</ele>
        <time>2016-06-29T10:17:58Z</time>
      </trkpt>
      <trkpt lat="42.50559" lon="2.2307">
        <ele>1048.94</ele>
        <time>2016-06-29T10:18:12Z</time>
      </trkpt>
      <trkpt lat="42.50553" lon="2.23065">
        <ele>1048.94</ele>
        <time>2016-06-29T10:18:28Z</time>
      </trkpt>
      <trkpt lat="42.50552" lon="2.23067">
        <ele>1048.94</ele>
        <time>2016-06-29T10:18:31Z</time>
      </trkpt>
      <trkpt lat="42.50543" lon="2.23076">
        <ele>1048.94</ele>
        <time>2016-06-29T10:18:39Z</time>
      </trkpt>
      <trkpt lat="42.50529" lon="2.23102">
        <ele>1048.94</ele>
        <time>2016-06-29T10:18:51Z</time>
      </trkpt>
      <trkpt lat="42.50528" lon="2.23102">
        <ele>1048.94</ele>
        <time>2016-06-29T10:18:53Z</time>
      </trkpt>
      <trkpt lat="42.50522" lon="2.23099">
        <ele>1050.38</ele>
        <time>2016-06-29T10:19:04Z</time>
      </trkpt>
      <trkpt lat="42.50517" lon="2.23103">
        <ele>1052.3</ele>
        <time>2016-06-29T10:19:17Z</time>
      </trkpt>
      <trkpt lat="42.50516" lon="2.23103">
        <ele>1053.26</ele>
        <time>2016-06-29T10:19:22Z</time>
      </trkpt>
      <trkpt lat="42.50513" lon="2.23094">
        <ele>1053.74</ele>
        <time>2016-06-29T10:19:35Z</time>
      </trkpt>
      <trkpt lat="42.50514" lon="2.23093">
        <ele>1054.7</ele>
        <time>2016-06-29T10:19:38Z</time>
      </trkpt>
      <trkpt lat="42.50514" lon="2.23094">
        <ele>1054.7</ele>
        <time>2016-06-29T10:19:48Z</time>
      </trkpt>
      <trkpt lat="42.50518" lon="2.23107">
        <ele>1055.67</ele>
        <time>2016-06-29T10:20:00Z</time>
      </trkpt>
      <trkpt lat="42.50524" lon="2.23122">
        <ele>1055.67</ele>
        <time>2016-06-29T10:20:12Z</time>
      </trkpt>
      <trkpt lat="42.5052" lon="2.23121">
        <ele>1055.67</ele>
        <time>2016-06-29T10:20:23Z</time>
      </trkpt>
      <trkpt lat="42.50517" lon="2.23122">
        <ele>1056.63</ele>
        <time>2016-06-29T10:20:37Z</time>
      </trkpt>
      <trkpt lat="42.50518" lon="2.2312">
        <ele>1056.63</ele>
        <time>2016-06-29T10:20:49Z</time>
      </trkpt>
      <trkpt lat="42.50516" lon="2.23115">
        <ele>1056.63</ele>
        <time>2016-06-29T10:20:58Z</time>
      </trkpt>
      <trkpt lat="42.50516" lon="2.23113">
        <ele>1056.63</ele>
        <time>2016-06-29T10:21:03Z</time>
      </trkpt>
      <trkpt lat="42.50514" lon="2.2311">
        <ele>1057.11</ele>
        <time>2016-06-29T10:21:08Z</time>
      </trkpt>
      <trkpt lat="42.50516" lon="2.231">
        <ele>1058.55</ele>
        <time>2016-06-29T10:21:18Z</time>
      </trkpt>
      <trkpt lat="42.50514" lon="2.2309">
        <ele>1059.03</ele>
        <time>2016-06-29T10:21:26Z</time>
      </trkpt>
      <trkpt lat="42.50513" lon="2.23085">
        <ele>1059.51</ele>
        <time>2016-06-29T10:21:32Z</time>
      </trkpt>
      <trkpt lat="42.50516" lon="2.23076">
        <ele>1059.99</ele>
        <time>2016-06-29T10:21:41Z</time>
      </trkpt>
      <trkpt lat="42.50519" lon="2.23073">
        <ele>1060.95</ele>
        <time>2016-06-29T10:21:44Z</time>
      </trkpt>
      <trkpt lat="42.50521" lon="2.23063">
        <ele>1061.43</ele>
        <time>2016-06-29T10:21:56Z</time>
      </trkpt>
      <trkpt lat="42.50522" lon="2.23059">
        <ele>1062.39</ele>
        <time>2016-06-29T10:22:04Z</time>
      </trkpt>
      <trkpt lat="42.50528" lon="2.23053">
        <ele>1062.87</ele>
        <time>2016-06-29T10:22:10Z</time>
      </trkpt>
      <trkpt lat="42.5054" lon="2.2304">
        <ele>1063.84</ele>
        <time>2016-06-29T10:22:22Z</time>
      </trkpt>
      <trkpt lat="42.50537" lon="2.23032">
        <ele>1065.76</ele>
        <time>2016-06-29T10:22:33Z</time>
      </trkpt>
      <trkpt lat="42.50532" lon="2.23025">
        <ele>1066.72</ele>
        <time>2016-06-29T10:22:44Z</time>
      </trkpt>
      <trkpt lat="42.50524" lon="2.23018">
        <ele>1066.72</ele>
        <time>2016-06-29T10:22:54Z</time>
      </trkpt>
      <trkpt lat="42.50523" lon="2.23014">
        <ele>1066.72</ele>
        <time>2016-06-29T10:23:15Z</time>
      </trkpt>
      <trkpt lat="42.50523" lon="2.23013">
        <ele>1066.72</ele>
        <time>2016-06-29T10:23:41Z</time>
      </trkpt>
      <trkpt lat="42.50522" lon="2.23013">
        <ele>1066.72</ele>
        <time>2016-06-29T10:24:03Z</time>
      </trkpt>
      <trkpt lat="42.50522" lon="2.23013">
        <ele>1066.72</ele>
        <time>2016-06-29T10:24:19Z</time>
      </trkpt>
      <trkpt lat="42.5052" lon="2.23016">
        <ele>1066.72</ele>
        <time>2016-06-29T10:24:29Z</time>
      </trkpt>
      <trkpt lat="42.50518" lon="2.23016">
        <ele>1069.12</ele>
        <time>2016-06-29T10:24:45Z</time>
      </trkpt>
      <trkpt lat="42.50514" lon="2.23012">
        <ele>1070.57</ele>
        <time>2016-06-29T10:25:00Z</time>
      </trkpt>
      <trkpt lat="42.50511" lon="2.23003">
        <ele>1071.05</ele>
        <time>2016-06-29T10:25:14Z</time>
      </trkpt>
      <trkpt lat="42.50506" lon="2.22997">
        <ele>1071.05</ele>
        <time>2016-06-29T10:25:26Z</time>
      </trkpt>
      <trkpt lat="42.50503" lon="2.2299">
        <ele>1072.01</ele>
        <time>2016-06-29T10:25:41Z</time>
      </trkpt>
      <trkpt lat="42.50502" lon="2.2299">
        <ele>1072.01</ele>
        <time>2016-06-29T10:25:53Z</time>
      </trkpt>
      <trkpt lat="42.50502" lon="2.2299">
        <ele>1070.57</ele>
        <time>2016-06-29T10:25:57Z</time>
      </trkpt>
      <trkpt lat="42.50499" lon="2.22992">
        <ele>1070.57</ele>
        <time>2016-06-29T10:26:07Z</time>
      </trkpt>
      <trkpt lat="42.50498" lon="2.22994">
        <ele>1070.57</ele>
        <time>2016-06-29T10:26:09Z</time>
      </trkpt>
      <trkpt lat="42.50498" lon="2.22997">
        <ele>1070.57</ele>
        <time>2016-06-29T10:26:12Z</time>
      </trkpt>
      <trkpt lat="42.50497" lon="2.22997">
        <ele>1070.57</ele>
        <time>2016-06-29T10:26:13Z</time>
      </trkpt>
      <trkpt lat="42.50494" lon="2.2301">
        <ele>1071.53</ele>
        <time>2016-06-29T10:26:26Z</time>
      </trkpt>
      <trkpt lat="42.5049" lon="2.23017">
        <ele>1072.01</ele>
        <time>2016-06-29T10:26:33Z</time>
      </trkpt>
      <trkpt lat="42.50489" lon="2.2302">
        <ele>1072.01</ele>
        <time>2016-06-29T10:26:38Z</time>
      </trkpt>
      <trkpt lat="42.50487" lon="2.23029">
        <ele>1073.45</ele>
        <time>2016-06-29T10:26:47Z</time>
      </trkpt>
      <trkpt lat="42.50486" lon="2.23034">
        <ele>1074.89</ele>
        <time>2016-06-29T10:26:56Z</time>
      </trkpt>
      <trkpt lat="42.50484" lon="2.23038">
        <ele>1075.37</ele>
        <time>2016-06-29T10:27:02Z</time>
      </trkpt>
      <trkpt lat="42.50467" lon="2.23062">
        <ele>1077.29</ele>
        <time>2016-06-29T10:27:14Z</time>
      </trkpt>
      <trkpt lat="42.5046" lon="2.23058">
        <ele>1078.74</ele>
        <time>2016-06-29T10:27:28Z</time>
      </trkpt>
      <trkpt lat="42.50461" lon="2.23053">
        <ele>1079.7</ele>
        <time>2016-06-29T10:27:38Z</time>
      </trkpt>
      <trkpt lat="42.50457" lon="2.23046">
        <ele>1080.18</ele>
        <time>2016-06-29T10:27:48Z</time>
      </trkpt>
      <trkpt lat="42.50454" lon="2.23038">
        <ele>1082.1</ele>
        <time>2016-06-29T10:28:01Z</time>
      </trkpt>
      <trkpt lat="42.5045" lon="2.23034">
        <ele>1082.58</ele>
        <time>2016-06-29T10:28:15Z</time>
      </trkpt>
      <trkpt lat="42.50446" lon="2.23028">
        <ele>1083.54</ele>
        <time>2016-06-29T10:28:29Z</time>
      </trkpt>
      <trkpt lat="42.50445" lon="2.23029">
        <ele>1084.02</ele>
        <time>2016-06-29T10:28:40Z</time>
      </trkpt>
      <trkpt lat="42.50446" lon="2.23027">
        <ele>1084.5</ele>
        <time>2016-06-29T10:28:50Z</time>
      </trkpt>
      <trkpt lat="42.50446" lon="2.23032">
        <ele>1084.5</ele>
        <time>2016-06-29T10:29:01Z</time>
      </trkpt>
      <trkpt lat="42.50439" lon="2.23033">
        <ele>1084.5</ele>
        <time>2016-06-29T10:29:11Z</time>
      </trkpt>
      <trkpt lat="42.50435" lon="2.23032">
        <ele>1084.99</ele>
        <time>2016-06-29T10:29:24Z</time>
      </trkpt>
      <trkpt lat="42.50431" lon="2.23029">
        <ele>1085.47</ele>
        <time>2016-06-29T10:29:34Z</time>
      </trkpt>
      <trkpt lat="42.5043" lon="2.2302">
        <ele>1086.43</ele>
        <time>2016-06-29T10:29:44Z</time>
      </trkpt>
      <trkpt lat="42.50427" lon="2.23008">
        <ele>1086.91</ele>
        <time>2016-06-29T10:29:55Z</time>
      </trkpt>
      <trkpt lat="42.50424" lon="2.23001">
        <ele>1086.91</ele>
        <time>2016-06-29T10:30:03Z</time>
      </trkpt>
      <trkpt lat="42.50424" lon="2.22998">
        <ele>1086.91</ele>
        <time>2016-06-29T10:30:06Z</time>
      </trkpt>
      <trkpt lat="42.50422" lon="2.22993">
        <ele>1088.35</ele>
        <time>2016-06-29T10:30:15Z</time>
      </trkpt>
      <trkpt lat="42.50416" lon="2.2299">
        <ele>1089.31</ele>
        <time>2016-06-29T10:30:26Z</time>
      </trkpt>
      <trkpt lat="42.50415" lon="2.2299">
        <ele>1089.31</ele>
        <time>2016-06-29T10:30:27Z</time>
      </trkpt>
      <trkpt lat="42.50408" lon="2.22991">
        <ele>1090.75</ele>
        <time>2016-06-29T10:30:38Z</time>
      </trkpt>
      <trkpt lat="42.50408" lon="2.22991">
        <ele>1090.75</ele>
        <time>2016-06-29T10:30:39Z</time>
      </trkpt>
      <trkpt lat="42.504" lon="2.22995">
        <ele>1091.71</ele>
        <time>2016-06-29T10:30:51Z</time>
      </trkpt>
      <trkpt lat="42.50399" lon="2.22998">
        <ele>1093.16</ele>
        <time>2016-06-29T10:31:03Z</time>
      </trkpt>
      <trkpt lat="42.50398" lon="2.22999">
        <ele>1093.16</ele>
        <time>2016-06-29T10:31:04Z</time>
      </trkpt>
      <trkpt lat="42.50395" lon="2.23002">
        <ele>1093.64</ele>
        <time>2016-06-29T10:31:16Z</time>
      </trkpt>
      <trkpt lat="42.50391" lon="2.23003">
        <ele>1095.56</ele>
        <time>2016-06-29T10:31:29Z</time>
      </trkpt>
      <trkpt lat="42.50377" lon="2.23012">
        <ele>1096.52</ele>
        <time>2016-06-29T10:31:44Z</time>
      </trkpt>
      <trkpt lat="42.50373" lon="2.23016">
        <ele>1096.52</ele>
        <time>2016-06-29T10:31:53Z</time>
      </trkpt>
      <trkpt lat="42.5037" lon="2.23015">
        <ele>1097</ele>
        <time>2016-06-29T10:31:58Z</time>
      </trkpt>
      <trkpt lat="42.50366" lon="2.23017">
        <ele>1097.48</ele>
        <time>2016-06-29T10:32:05Z</time>
      </trkpt>
      <trkpt lat="42.50362" lon="2.23024">
        <ele>1098.44</ele>
        <time>2016-06-29T10:32:17Z</time>
      </trkpt>
      <trkpt lat="42.50349" lon="2.23033">
        <ele>1100.37</ele>
        <time>2016-06-29T10:32:30Z</time>
      </trkpt>
      <trkpt lat="42.50341" lon="2.23041">
        <ele>1100.85</ele>
        <time>2016-06-29T10:32:39Z</time>
      </trkpt>
      <trkpt lat="42.50331" lon="2.23039">
        <ele>1101.81</ele>
        <time>2016-06-29T10:32:52Z</time>
      </trkpt>
      <trkpt lat="42.50321" lon="2.23035">
        <ele>1102.29</ele>
        <time>2016-06-29T10:33:02Z</time>
      </trkpt>
      <trkpt lat="42.50309" lon="2.2304">
        <ele>1103.25</ele>
        <time>2016-06-29T10:33:15Z</time>
      </trkpt>
      <trkpt lat="42.50305" lon="2.23048">
        <ele>1104.21</ele>
        <time>2016-06-29T10:33:27Z</time>
      </trkpt>
      <trkpt lat="42.503" lon="2.23054">
        <ele>1105.65</ele>
        <time>2016-06-29T10:33:36Z</time>
      </trkpt>
      <trkpt lat="42.50297" lon="2.23057">
        <ele>1106.13</ele>
        <time>2016-06-29T10:33:39Z</time>
      </trkpt>
      <trkpt lat="42.50294" lon="2.23058">
        <ele>1108.06</ele>
        <time>2016-06-29T10:33:53Z</time>
      </trkpt>
      <trkpt lat="42.50292" lon="2.23058">
        <ele>1108.54</ele>
        <time>2016-06-29T10:34:11Z</time>
      </trkpt>
      <trkpt lat="42.50292" lon="2.23058">
        <ele>1108.54</ele>
        <time>2016-06-29T10:34:25Z</time>
      </trkpt>
      <trkpt lat="42.50291" lon="2.23057">
        <ele>1108.54</ele>
        <time>2016-06-29T10:34:40Z</time>
      </trkpt>
      <trkpt lat="42.50287" lon="2.23058">
        <ele>1108.54</ele>
        <time>2016-06-29T10:34:57Z</time>
      </trkpt>
      <trkpt lat="42.50289" lon="2.2306">
        <ele>1109.02</ele>
        <time>2016-06-29T10:35:21Z</time>
      </trkpt>
      <trkpt lat="42.5029" lon="2.23051">
        <ele>1109.02</ele>
        <time>2016-06-29T10:35:40Z</time>
      </trkpt>
      <trkpt lat="42.50292" lon="2.23059">
        <ele>1109.02</ele>
        <time>2016-06-29T10:36:00Z</time>
      </trkpt>
      <trkpt lat="42.50294" lon="2.23057">
        <ele>1109.02</ele>
        <time>2016-06-29T10:36:12Z</time>
      </trkpt>
      <trkpt lat="42.50293" lon="2.23053">
        <ele>1109.02</ele>
        <time>2016-06-29T10:36:26Z</time>
      </trkpt>
      <trkpt lat="42.50294" lon="2.23044">
        <ele>1109.02</ele>
        <time>2016-06-29T10:36:43Z</time>
      </trkpt>
      <trkpt lat="42.50291" lon="2.23039">
        <ele>1109.5</ele>
        <time>2016-06-29T10:36:56Z</time>
      </trkpt>
      <trkpt lat="42.50286" lon="2.23035">
        <ele>1109.5</ele>
        <time>2016-06-29T10:37:07Z</time>
      </trkpt>
      <trkpt lat="42.50285" lon="2.23037">
        <ele>1109.5</ele>
        <time>2016-06-29T10:37:16Z</time>
      </trkpt>
      <trkpt lat="42.50284" lon="2.23039">
        <ele>1108.06</ele>
        <time>2016-06-29T10:37:21Z</time>
      </trkpt>
      <trkpt lat="42.50279" lon="2.2304">
        <ele>1107.58</ele>
        <time>2016-06-29T10:37:29Z</time>
      </trkpt>
      <trkpt lat="42.50269" lon="2.23045">
        <ele>1107.58</ele>
        <time>2016-06-29T10:37:38Z</time>
      </trkpt>
      <trkpt lat="42.50264" lon="2.23047">
        <ele>1107.58</ele>
        <time>2016-06-29T10:37:43Z</time>
      </trkpt>
      <trkpt lat="42.50263" lon="2.23052">
        <ele>1109.02</ele>
        <time>2016-06-29T10:37:48Z</time>
      </trkpt>
      <trkpt lat="42.50258" lon="2.23061">
        <ele>1110.94</ele>
        <time>2016-06-29T10:37:58Z</time>
      </trkpt>
      <trkpt lat="42.50258" lon="2.23062">
        <ele>1111.42</ele>
        <time>2016-06-29T10:38:00Z</time>
      </trkpt>
      <trkpt lat="42.5025" lon="2.23078">
        <ele>1114.31</ele>
        <time>2016-06-29T10:38:11Z</time>
      </trkpt>
      <trkpt lat="42.50246" lon="2.23085">
        <ele>1117.67</ele>
        <time>2016-06-29T10:38:18Z</time>
      </trkpt>
      <trkpt lat="42.50242" lon="2.23097">
        <ele>1117.67</ele>
        <time>2016-06-29T10:38:30Z</time>
      </trkpt>
      <trkpt lat="42.50239" lon="2.23114">
        <ele>1117.67</ele>
        <time>2016-06-29T10:38:39Z</time>
      </trkpt>
      <trkpt lat="42.50235" lon="2.23121">
        <ele>1117.67</ele>
        <time>2016-06-29T10:38:49Z</time>
      </trkpt>
      <trkpt lat="42.50229" lon="2.2313">
        <ele>1117.67</ele>
        <time>2016-06-29T10:38:58Z</time>
      </trkpt>
      <trkpt lat="42.50224" lon="2.2314">
        <ele>1118.63</ele>
        <time>2016-06-29T10:39:07Z</time>
      </trkpt>
      <trkpt lat="42.50216" lon="2.23149">
        <ele>1120.07</ele>
        <time>2016-06-29T10:39:19Z</time>
      </trkpt>
      <trkpt lat="42.50214" lon="2.23152">
        <ele>1120.55</ele>
        <time>2016-06-29T10:39:23Z</time>
      </trkpt>
      <trkpt lat="42.50211" lon="2.23156">
        <ele>1122</ele>
        <time>2016-06-29T10:39:33Z</time>
      </trkpt>
      <trkpt lat="42.50208" lon="2.23156">
        <ele>1122.96</ele>
        <time>2016-06-29T10:39:43Z</time>
      </trkpt>
      <trkpt lat="42.50204" lon="2.23157">
        <ele>1124.88</ele>
        <time>2016-06-29T10:39:56Z</time>
      </trkpt>
      <trkpt lat="42.50201" lon="2.23156">
        <ele>1124.88</ele>
        <time>2016-06-29T10:40:06Z</time>
      </trkpt>
      <trkpt lat="42.50193" lon="2.23154">
        <ele>1125.84</ele>
        <time>2016-06-29T10:40:17Z</time>
      </trkpt>
      <trkpt lat="42.50187" lon="2.23157">
        <ele>1127.28</ele>
        <time>2016-06-29T10:40:28Z</time>
      </trkpt>
      <trkpt lat="42.50185" lon="2.23158">
        <ele>1127.28</ele>
        <time>2016-06-29T10:40:30Z</time>
      </trkpt>
      <trkpt lat="42.50177" lon="2.23161">
        <ele>1128.24</ele>
        <time>2016-06-29T10:40:40Z</time>
      </trkpt>
      <trkpt lat="42.50169" lon="2.2316">
        <ele>1129.69</ele>
        <time>2016-06-29T10:40:51Z</time>
      </trkpt>
      <trkpt lat="42.50168" lon="2.23161">
        <ele>1130.17</ele>
        <time>2016-06-29T10:40:53Z</time>
      </trkpt>
      <trkpt lat="42.50164" lon="2.23165">
        <ele>1130.17</ele>
        <time>2016-06-29T10:40:57Z</time>
      </trkpt>
      <trkpt lat="42.50159" lon="2.23174">
        <ele>1131.61</ele>
        <time>2016-06-29T10:41:06Z</time>
      </trkpt>
      <trkpt lat="42.50155" lon="2.23183">
        <ele>1132.09</ele>
        <time>2016-06-29T10:41:14Z</time>
      </trkpt>
      <trkpt lat="42.50154" lon="2.23187">
        <ele>1132.57</ele>
        <time>2016-06-29T10:41:17Z</time>
      </trkpt>
      <trkpt lat="42.50149" lon="2.23201">
        <ele>1133.53</ele>
        <time>2016-06-29T10:41:29Z</time>
      </trkpt>
      <trkpt lat="42.50144" lon="2.23214">
        <ele>1134.49</ele>
        <time>2016-06-29T10:41:39Z</time>
      </trkpt>
      <trkpt lat="42.50137" lon="2.23224">
        <ele>1134.97</ele>
        <time>2016-06-29T10:41:48Z</time>
      </trkpt>
      <trkpt lat="42.50134" lon="2.23229">
        <ele>1135.45</ele>
        <time>2016-06-29T10:41:52Z</time>
      </trkpt>
      <trkpt lat="42.5013" lon="2.23234">
        <ele>1135.45</ele>
        <time>2016-06-29T10:41:56Z</time>
      </trkpt>
      <trkpt lat="42.50123" lon="2.23247">
        <ele>1136.42</ele>
        <time>2016-06-29T10:42:07Z</time>
      </trkpt>
      <trkpt lat="42.50112" lon="2.23257">
        <ele>1138.82</ele>
        <time>2016-06-29T10:42:19Z</time>
      </trkpt>
      <trkpt lat="42.50102" lon="2.23267">
        <ele>1139.3</ele>
        <time>2016-06-29T10:42:29Z</time>
      </trkpt>
      <trkpt lat="42.5009" lon="2.23273">
        <ele>1140.74</ele>
        <time>2016-06-29T10:42:40Z</time>
      </trkpt>
      <trkpt lat="42.50082" lon="2.23273">
        <ele>1141.7</ele>
        <time>2016-06-29T10:42:48Z</time>
      </trkpt>
      <trkpt lat="42.5007" lon="2.23272">
        <ele>1143.14</ele>
        <time>2016-06-29T10:42:59Z</time>
      </trkpt>
      <trkpt lat="42.50055" lon="2.23267">
        <ele>1144.59</ele>
        <time>2016-06-29T10:43:12Z</time>
      </trkpt>
      <trkpt lat="42.50054" lon="2.23267">
        <ele>1145.07</ele>
        <time>2016-06-29T10:43:13Z</time>
      </trkpt>
      <trkpt lat="42.50052" lon="2.23266">
        <ele>1145.07</ele>
        <time>2016-06-29T10:43:15Z</time>
      </trkpt>
      <trkpt lat="42.50046" lon="2.23275">
        <ele>1146.99</ele>
        <time>2016-06-29T10:43:26Z</time>
      </trkpt>
      <trkpt lat="42.50045" lon="2.23278">
        <ele>1146.99</ele>
        <time>2016-06-29T10:43:29Z</time>
      </trkpt>
      <trkpt lat="42.50045" lon="2.23293">
        <ele>1148.43</ele>
        <time>2016-06-29T10:43:40Z</time>
      </trkpt>
      <trkpt lat="42.50046" lon="2.23294">
        <ele>1148.43</ele>
        <time>2016-06-29T10:43:41Z</time>
      </trkpt>
      <trkpt lat="42.50049" lon="2.23315">
        <ele>1149.87</ele>
        <time>2016-06-29T10:43:53Z</time>
      </trkpt>
      <trkpt lat="42.50048" lon="2.23323">
        <ele>1149.87</ele>
        <time>2016-06-29T10:43:58Z</time>
      </trkpt>
      <trkpt lat="42.50051" lon="2.23335">
        <ele>1150.35</ele>
        <time>2016-06-29T10:44:04Z</time>
      </trkpt>
      <trkpt lat="42.5005" lon="2.23345">
        <ele>1150.84</ele>
        <time>2016-06-29T10:44:09Z</time>
      </trkpt>
      <trkpt lat="42.5005" lon="2.23348">
        <ele>1151.32</ele>
        <time>2016-06-29T10:44:11Z</time>
      </trkpt>
      <trkpt lat="42.50051" lon="2.23354">
        <ele>1151.8</ele>
        <time>2016-06-29T10:44:14Z</time>
      </trkpt>
      <trkpt lat="42.50051" lon="2.23358">
        <ele>1151.8</ele>
        <time>2016-06-29T10:44:17Z</time>
      </trkpt>
      <trkpt lat="42.50051" lon="2.23369">
        <ele>1153.24</ele>
        <time>2016-06-29T10:44:26Z</time>
      </trkpt>
      <trkpt lat="42.50045" lon="2.23377">
        <ele>1154.2</ele>
        <time>2016-06-29T10:44:31Z</time>
      </trkpt>
      <trkpt lat="42.50034" lon="2.23386">
        <ele>1155.64</ele>
        <time>2016-06-29T10:44:43Z</time>
      </trkpt>
      <trkpt lat="42.50027" lon="2.23393">
        <ele>1156.6</ele>
        <time>2016-06-29T10:44:52Z</time>
      </trkpt>
      <trkpt lat="42.50018" lon="2.23403">
        <ele>1158.53</ele>
        <time>2016-06-29T10:45:01Z</time>
      </trkpt>
      <trkpt lat="42.50015" lon="2.23405">
        <ele>1159.01</ele>
        <time>2016-06-29T10:45:04Z</time>
      </trkpt>
      <trkpt lat="42.5001" lon="2.23408">
        <ele>1159.97</ele>
        <time>2016-06-29T10:45:10Z</time>
      </trkpt>
      <trkpt lat="42.50001" lon="2.23417">
        <ele>1160.93</ele>
        <time>2016-06-29T10:45:18Z</time>
      </trkpt>
      <trkpt lat="42.49993" lon="2.23426">
        <ele>1162.37</ele>
        <time>2016-06-29T10:45:26Z</time>
      </trkpt>
      <trkpt lat="42.49984" lon="2.23434">
        <ele>1163.81</ele>
        <time>2016-06-29T10:45:37Z</time>
      </trkpt>
      <trkpt lat="42.49977" lon="2.2344">
        <ele>1164.29</ele>
        <time>2016-06-29T10:45:45Z</time>
      </trkpt>
      <trkpt lat="42.49968" lon="2.23447">
        <ele>1166.22</ele>
        <time>2016-06-29T10:45:53Z</time>
      </trkpt>
      <trkpt lat="42.49961" lon="2.23452">
        <ele>1167.66</ele>
        <time>2016-06-29T10:46:04Z</time>
      </trkpt>
      <trkpt lat="42.49955" lon="2.23457">
        <ele>1169.58</ele>
        <time>2016-06-29T10:46:14Z</time>
      </trkpt>
      <trkpt lat="42.49944" lon="2.23466">
        <ele>1171.02</ele>
        <time>2016-06-29T10:46:25Z</time>
      </trkpt>
      <trkpt lat="42.49943" lon="2.23467">
        <ele>1171.02</ele>
        <time>2016-06-29T10:46:26Z</time>
      </trkpt>
      <trkpt lat="42.49933" lon="2.23481">
        <ele>1172.47</ele>
        <time>2016-06-29T10:46:37Z</time>
      </trkpt>
      <trkpt lat="42.49929" lon="2.23491">
        <ele>1173.43</ele>
        <time>2016-06-29T10:46:46Z</time>
      </trkpt>
      <trkpt lat="42.49924" lon="2.23497">
        <ele>1173.91</ele>
        <time>2016-06-29T10:46:52Z</time>
      </trkpt>
      <trkpt lat="42.49923" lon="2.235">
        <ele>1173.91</ele>
        <time>2016-06-29T10:46:55Z</time>
      </trkpt>
      <trkpt lat="42.49921" lon="2.23503">
        <ele>1174.39</ele>
        <time>2016-06-29T10:46:57Z</time>
      </trkpt>
      <trkpt lat="42.49913" lon="2.23516">
        <ele>1174.87</ele>
        <time>2016-06-29T10:47:06Z</time>
      </trkpt>
      <trkpt lat="42.49907" lon="2.23524">
        <ele>1176.31</ele>
        <time>2016-06-29T10:47:13Z</time>
      </trkpt>
      <trkpt lat="42.49905" lon="2.23529">
        <ele>1176.79</ele>
        <time>2016-06-29T10:47:17Z</time>
      </trkpt>
      <trkpt lat="42.49898" lon="2.23538">
        <ele>1177.75</ele>
        <time>2016-06-29T10:47:26Z</time>
      </trkpt>
      <trkpt lat="42.49893" lon="2.23541">
        <ele>1178.23</ele>
        <time>2016-06-29T10:47:29Z</time>
      </trkpt>
      <trkpt lat="42.49884" lon="2.2355">
        <ele>1179.19</ele>
        <time>2016-06-29T10:47:40Z</time>
      </trkpt>
      <trkpt lat="42.49883" lon="2.2355">
        <ele>1179.19</ele>
        <time>2016-06-29T10:47:41Z</time>
      </trkpt>
      <trkpt lat="42.49876" lon="2.2356">
        <ele>1180.64</ele>
        <time>2016-06-29T10:47:52Z</time>
      </trkpt>
      <trkpt lat="42.49869" lon="2.23569">
        <ele>1182.08</ele>
        <time>2016-06-29T10:48:00Z</time>
      </trkpt>
      <trkpt lat="42.49865" lon="2.23575">
        <ele>1183.04</ele>
        <time>2016-06-29T10:48:06Z</time>
      </trkpt>
      <trkpt lat="42.49864" lon="2.23577">
        <ele>1183.04</ele>
        <time>2016-06-29T10:48:08Z</time>
      </trkpt>
      <trkpt lat="42.49861" lon="2.23579">
        <ele>1183.52</ele>
        <time>2016-06-29T10:48:11Z</time>
      </trkpt>
      <trkpt lat="42.4986" lon="2.2358">
        <ele>1183.52</ele>
        <time>2016-06-29T10:48:12Z</time>
      </trkpt>
      <trkpt lat="42.49855" lon="2.23587">
        <ele>1184.48</ele>
        <time>2016-06-29T10:48:21Z</time>
      </trkpt>
      <trkpt lat="42.49853" lon="2.23588">
        <ele>1185.44</ele>
        <time>2016-06-29T10:48:23Z</time>
      </trkpt>
      <trkpt lat="42.49851" lon="2.23588">
        <ele>1185.44</ele>
        <time>2016-06-29T10:48:24Z</time>
      </trkpt>
      <trkpt lat="42.49846" lon="2.23594">
        <ele>1185.92</ele>
        <time>2016-06-29T10:48:30Z</time>
      </trkpt>
      <trkpt lat="42.4984" lon="2.236">
        <ele>1186.88</ele>
        <time>2016-06-29T10:48:39Z</time>
      </trkpt>
      <trkpt lat="42.49835" lon="2.23604">
        <ele>1187.37</ele>
        <time>2016-06-29T10:48:45Z</time>
      </trkpt>
      <trkpt lat="42.49833" lon="2.23606">
        <ele>1187.85</ele>
        <time>2016-06-29T10:48:48Z</time>
      </trkpt>
      <trkpt lat="42.49831" lon="2.23609">
        <ele>1188.33</ele>
        <time>2016-06-29T10:48:51Z</time>
      </trkpt>
      <trkpt lat="42.49823" lon="2.23615">
        <ele>1189.77</ele>
        <time>2016-06-29T10:49:02Z</time>
      </trkpt>
      <trkpt lat="42.49818" lon="2.23618">
        <ele>1191.21</ele>
        <time>2016-06-29T10:49:08Z</time>
      </trkpt>
      <trkpt lat="42.49808" lon="2.23624">
        <ele>1192.65</ele>
        <time>2016-06-29T10:49:19Z</time>
      </trkpt>
      <trkpt lat="42.49808" lon="2.23625">
        <ele>1192.65</ele>
        <time>2016-06-29T10:49:21Z</time>
      </trkpt>
      <trkpt lat="42.49798" lon="2.23631">
        <ele>1194.09</ele>
        <time>2016-06-29T10:49:32Z</time>
      </trkpt>
      <trkpt lat="42.49791" lon="2.23638">
        <ele>1195.06</ele>
        <time>2016-06-29T10:49:40Z</time>
      </trkpt>
      <trkpt lat="42.49788" lon="2.23644">
        <ele>1195.54</ele>
        <time>2016-06-29T10:49:43Z</time>
      </trkpt>
      <trkpt lat="42.49776" lon="2.23653">
        <ele>1196.98</ele>
        <time>2016-06-29T10:49:53Z</time>
      </trkpt>
      <trkpt lat="42.49775" lon="2.23654">
        <ele>1196.98</ele>
        <time>2016-06-29T10:49:54Z</time>
      </trkpt>
      <trkpt lat="42.49771" lon="2.23657">
        <ele>1198.42</ele>
        <time>2016-06-29T10:49:59Z</time>
      </trkpt>
      <trkpt lat="42.49768" lon="2.23659">
        <ele>1197.94</ele>
        <time>2016-06-29T10:50:02Z</time>
      </trkpt>
      <trkpt lat="42.49763" lon="2.23664">
        <ele>1199.38</ele>
        <time>2016-06-29T10:50:07Z</time>
      </trkpt>
      <trkpt lat="42.49761" lon="2.23665">
        <ele>1199.38</ele>
        <time>2016-06-29T10:50:09Z</time>
      </trkpt>
      <trkpt lat="42.49756" lon="2.23664">
        <ele>1200.34</ele>
        <time>2016-06-29T10:50:15Z</time>
      </trkpt>
      <trkpt lat="42.49745" lon="2.23663">
        <ele>1201.3</ele>
        <time>2016-06-29T10:50:26Z</time>
      </trkpt>
      <trkpt lat="42.49741" lon="2.2366">
        <ele>1202.27</ele>
        <time>2016-06-29T10:50:29Z</time>
      </trkpt>
      <trkpt lat="42.49733" lon="2.23657">
        <ele>1202.27</ele>
        <time>2016-06-29T10:50:38Z</time>
      </trkpt>
      <trkpt lat="42.49723" lon="2.23657">
        <ele>1203.23</ele>
        <time>2016-06-29T10:50:48Z</time>
      </trkpt>
      <trkpt lat="42.49711" lon="2.23656">
        <ele>1205.15</ele>
        <time>2016-06-29T10:51:00Z</time>
      </trkpt>
      <trkpt lat="42.49707" lon="2.23656">
        <ele>1205.15</ele>
        <time>2016-06-29T10:51:04Z</time>
      </trkpt>
      <trkpt lat="42.49698" lon="2.23657">
        <ele>1206.59</ele>
        <time>2016-06-29T10:51:16Z</time>
      </trkpt>
      <trkpt lat="42.49696" lon="2.23657">
        <ele>1206.59</ele>
        <time>2016-06-29T10:51:17Z</time>
      </trkpt>
      <trkpt lat="42.49686" lon="2.23657">
        <ele>1207.55</ele>
        <time>2016-06-29T10:51:27Z</time>
      </trkpt>
      <trkpt lat="42.49679" lon="2.23659">
        <ele>1208.51</ele>
        <time>2016-06-29T10:51:34Z</time>
      </trkpt>
      <trkpt lat="42.49678" lon="2.23661">
        <ele>1208.51</ele>
        <time>2016-06-29T10:51:35Z</time>
      </trkpt>
      <trkpt lat="42.49676" lon="2.2366">
        <ele>1208.51</ele>
        <time>2016-06-29T10:51:36Z</time>
      </trkpt>
      <trkpt lat="42.49675" lon="2.23659">
        <ele>1208.51</ele>
        <time>2016-06-29T10:51:37Z</time>
      </trkpt>
      <trkpt lat="42.49672" lon="2.23661">
        <ele>1209.48</ele>
        <time>2016-06-29T10:51:39Z</time>
      </trkpt>
      <trkpt lat="42.49669" lon="2.23664">
        <ele>1209.48</ele>
        <time>2016-06-29T10:51:41Z</time>
      </trkpt>
      <trkpt lat="42.49662" lon="2.23668">
        <ele>1209.48</ele>
        <time>2016-06-29T10:51:48Z</time>
      </trkpt>
      <trkpt lat="42.49657" lon="2.23671">
        <ele>1209.96</ele>
        <time>2016-06-29T10:51:52Z</time>
      </trkpt>
      <trkpt lat="42.49648" lon="2.23677">
        <ele>1210.92</ele>
        <time>2016-06-29T10:52:02Z</time>
      </trkpt>
      <trkpt lat="42.49646" lon="2.23679">
        <ele>1211.4</ele>
        <time>2016-06-29T10:52:06Z</time>
      </trkpt>
      <trkpt lat="42.49634" lon="2.23683">
        <ele>1212.84</ele>
        <time>2016-06-29T10:52:17Z</time>
      </trkpt>
      <trkpt lat="42.49621" lon="2.23684">
        <ele>1213.8</ele>
        <time>2016-06-29T10:52:28Z</time>
      </trkpt>
      <trkpt lat="42.49618" lon="2.23683">
        <ele>1214.76</ele>
        <time>2016-06-29T10:52:32Z</time>
      </trkpt>
      <trkpt lat="42.49615" lon="2.23683">
        <ele>1214.76</ele>
        <time>2016-06-29T10:52:37Z</time>
      </trkpt>
      <trkpt lat="42.49608" lon="2.23685">
        <ele>1215.72</ele>
        <time>2016-06-29T10:52:45Z</time>
      </trkpt>
      <trkpt lat="42.49604" lon="2.23683">
        <ele>1217.17</ele>
        <time>2016-06-29T10:52:54Z</time>
      </trkpt>
      <trkpt lat="42.49597" lon="2.23685">
        <ele>1218.61</ele>
        <time>2016-06-29T10:53:02Z</time>
      </trkpt>
      <trkpt lat="42.49596" lon="2.23685">
        <ele>1218.13</ele>
        <time>2016-06-29T10:53:04Z</time>
      </trkpt>
      <trkpt lat="42.49594" lon="2.23684">
        <ele>1219.09</ele>
        <time>2016-06-29T10:53:06Z</time>
      </trkpt>
      <trkpt lat="42.49591" lon="2.23682">
        <ele>1219.09</ele>
        <time>2016-06-29T10:53:10Z</time>
      </trkpt>
      <trkpt lat="42.4959" lon="2.23681">
        <ele>1219.57</ele>
        <time>2016-06-29T10:53:13Z</time>
      </trkpt>
      <trkpt lat="42.49583" lon="2.23682">
        <ele>1220.53</ele>
        <time>2016-06-29T10:53:22Z</time>
      </trkpt>
      <trkpt lat="42.49582" lon="2.23683">
        <ele>1220.53</ele>
        <time>2016-06-29T10:53:24Z</time>
      </trkpt>
      <trkpt lat="42.49571" lon="2.23689">
        <ele>1220.05</ele>
        <time>2016-06-29T10:53:34Z</time>
      </trkpt>
      <trkpt lat="42.49566" lon="2.23683">
        <ele>1221.01</ele>
        <time>2016-06-29T10:53:44Z</time>
      </trkpt>
      <trkpt lat="42.49562" lon="2.23686">
        <ele>1221.97</ele>
        <time>2016-06-29T10:53:55Z</time>
      </trkpt>
      <trkpt lat="42.49563" lon="2.23686">
        <ele>1223.42</ele>
        <time>2016-06-29T10:54:04Z</time>
      </trkpt>
      <trkpt lat="42.49563" lon="2.23686">
        <ele>1223.42</ele>
        <time>2016-06-29T10:54:05Z</time>
      </trkpt>
      <trkpt lat="42.49555" lon="2.23691">
        <ele>1225.34</ele>
        <time>2016-06-29T10:54:18Z</time>
      </trkpt>
      <trkpt lat="42.49547" lon="2.23696">
        <ele>1226.78</ele>
        <time>2016-06-29T10:54:29Z</time>
      </trkpt>
      <trkpt lat="42.49547" lon="2.23697">
        <ele>1227.26</ele>
        <time>2016-06-29T10:54:31Z</time>
      </trkpt>
      <trkpt lat="42.49544" lon="2.23699">
        <ele>1227.26</ele>
        <time>2016-06-29T10:54:34Z</time>
      </trkpt>
      <trkpt lat="42.49538" lon="2.2371">
        <ele>1227.26</ele>
        <time>2016-06-29T10:54:48Z</time>
      </trkpt>
      <trkpt lat="42.49527" lon="2.23712">
        <ele>1228.22</ele>
        <time>2016-06-29T10:54:59Z</time>
      </trkpt>
      <trkpt lat="42.49523" lon="2.23714">
        <ele>1228.22</ele>
        <time>2016-06-29T10:55:11Z</time>
      </trkpt>
      <trkpt lat="42.49521" lon="2.23715">
        <ele>1228.22</ele>
        <time>2016-06-29T10:55:13Z</time>
      </trkpt>
      <trkpt lat="42.49517" lon="2.23716">
        <ele>1228.22</ele>
        <time>2016-06-29T10:55:17Z</time>
      </trkpt>
      <trkpt lat="42.4951" lon="2.23717">
        <ele>1227.74</ele>
        <time>2016-06-29T10:55:24Z</time>
      </trkpt>
      <trkpt lat="42.49511" lon="2.23722">
        <ele>1227.74</ele>
        <time>2016-06-29T10:55:33Z</time>
      </trkpt>
      <trkpt lat="42.49511" lon="2.23726">
        <ele>1227.74</ele>
        <time>2016-06-29T10:55:42Z</time>
      </trkpt>
      <trkpt lat="42.49504" lon="2.23735">
        <ele>1228.7</ele>
        <time>2016-06-29T10:55:55Z</time>
      </trkpt>
      <trkpt lat="42.495" lon="2.23734">
        <ele>1229.18</ele>
        <time>2016-06-29T10:56:04Z</time>
      </trkpt>
      <trkpt lat="42.49497" lon="2.23734">
        <ele>1229.66</ele>
        <time>2016-06-29T10:56:09Z</time>
      </trkpt>
      <trkpt lat="42.49495" lon="2.23736">
        <ele>1229.66</ele>
        <time>2016-06-29T10:56:11Z</time>
      </trkpt>
      <trkpt lat="42.49488" lon="2.23742">
        <ele>1231.11</ele>
        <time>2016-06-29T10:56:24Z</time>
      </trkpt>
      <trkpt lat="42.4948" lon="2.23749">
        <ele>1232.55</ele>
        <time>2016-06-29T10:56:35Z</time>
      </trkpt>
      <trkpt lat="42.49477" lon="2.23751">
        <ele>1233.03</ele>
        <time>2016-06-29T10:56:39Z</time>
      </trkpt>
      <trkpt lat="42.49473" lon="2.23756">
        <ele>1233.99</ele>
        <time>2016-06-29T10:56:47Z</time>
      </trkpt>
      <trkpt lat="42.4947" lon="2.23758">
        <ele>1234.47</ele>
        <time>2016-06-29T10:56:52Z</time>
      </trkpt>
      <trkpt lat="42.49467" lon="2.23761">
        <ele>1234.47</ele>
        <time>2016-06-29T10:56:55Z</time>
      </trkpt>
      <trkpt lat="42.49462" lon="2.23766">
        <ele>1235.43</ele>
        <time>2016-06-29T10:57:04Z</time>
      </trkpt>
      <trkpt lat="42.49458" lon="2.23773">
        <ele>1236.39</ele>
        <time>2016-06-29T10:57:14Z</time>
      </trkpt>
      <trkpt lat="42.49457" lon="2.23775">
        <ele>1235.91</ele>
        <time>2016-06-29T10:57:16Z</time>
      </trkpt>
      <trkpt lat="42.49454" lon="2.23781">
        <ele>1237.35</ele>
        <time>2016-06-29T10:57:22Z</time>
      </trkpt>
      <trkpt lat="42.49453" lon="2.23782">
        <ele>1236.87</ele>
        <time>2016-06-29T10:57:26Z</time>
      </trkpt>
      <trkpt lat="42.49451" lon="2.23784">
        <ele>1237.35</ele>
        <time>2016-06-29T10:57:29Z</time>
      </trkpt>
      <trkpt lat="42.49445" lon="2.23787">
        <ele>1238.32</ele>
        <time>2016-06-29T10:57:36Z</time>
      </trkpt>
      <trkpt lat="42.4944" lon="2.23797">
        <ele>1238.8</ele>
        <time>2016-06-29T10:57:45Z</time>
      </trkpt>
      <trkpt lat="42.49431" lon="2.2381">
        <ele>1240.24</ele>
        <time>2016-06-29T10:57:56Z</time>
      </trkpt>
      <trkpt lat="42.49425" lon="2.23818">
        <ele>1241.2</ele>
        <time>2016-06-29T10:58:06Z</time>
      </trkpt>
      <trkpt lat="42.49418" lon="2.23824">
        <ele>1241.68</ele>
        <time>2016-06-29T10:58:16Z</time>
      </trkpt>
      <trkpt lat="42.49415" lon="2.23825">
        <ele>1242.16</ele>
        <time>2016-06-29T10:58:20Z</time>
      </trkpt>
      <trkpt lat="42.4941" lon="2.2383">
        <ele>1243.6</ele>
        <time>2016-06-29T10:58:29Z</time>
      </trkpt>
      <trkpt lat="42.49406" lon="2.23833">
        <ele>1245.04</ele>
        <time>2016-06-29T10:58:37Z</time>
      </trkpt>
      <trkpt lat="42.49399" lon="2.23842">
        <ele>1246.49</ele>
        <time>2016-06-29T10:58:46Z</time>
      </trkpt>
      <trkpt lat="42.49384" lon="2.23855">
        <ele>1247.93</ele>
        <time>2016-06-29T10:58:56Z</time>
      </trkpt>
      <trkpt lat="42.49384" lon="2.23856">
        <ele>1248.41</ele>
        <time>2016-06-29T10:58:57Z</time>
      </trkpt>
      <trkpt lat="42.49375" lon="2.23867">
        <ele>1248.89</ele>
        <time>2016-06-29T10:59:03Z</time>
      </trkpt>
      <trkpt lat="42.49372" lon="2.23869">
        <ele>1249.37</ele>
        <time>2016-06-29T10:59:05Z</time>
      </trkpt>
      <trkpt lat="42.49365" lon="2.23875">
        <ele>1249.85</ele>
        <time>2016-06-29T10:59:12Z</time>
      </trkpt>
      <trkpt lat="42.49362" lon="2.2388">
        <ele>1250.81</ele>
        <time>2016-06-29T10:59:17Z</time>
      </trkpt>
      <trkpt lat="42.49353" lon="2.23885">
        <ele>1250.81</ele>
        <time>2016-06-29T10:59:25Z</time>
      </trkpt>
      <trkpt lat="42.49342" lon="2.2389">
        <ele>1252.74</ele>
        <time>2016-06-29T10:59:36Z</time>
      </trkpt>
      <trkpt lat="42.49341" lon="2.2389">
        <ele>1252.25</ele>
        <time>2016-06-29T10:59:37Z</time>
      </trkpt>
      <trkpt lat="42.49338" lon="2.23891">
        <ele>1253.22</ele>
        <time>2016-06-29T10:59:49Z</time>
      </trkpt>
      <trkpt lat="42.49339" lon="2.23891">
        <ele>1253.7</ele>
        <time>2016-06-29T11:00:03Z</time>
      </trkpt>
      <trkpt lat="42.4934" lon="2.2389">
        <ele>1253.7</ele>
        <time>2016-06-29T11:00:14Z</time>
      </trkpt>
      <trkpt lat="42.49339" lon="2.23889">
        <ele>1253.7</ele>
        <time>2016-06-29T11:00:29Z</time>
      </trkpt>
      <trkpt lat="42.49338" lon="2.23889">
        <ele>1253.7</ele>
        <time>2016-06-29T11:00:34Z</time>
      </trkpt>
      <trkpt lat="42.49332" lon="2.23891">
        <ele>1254.18</ele>
        <time>2016-06-29T11:00:42Z</time>
      </trkpt>
      <trkpt lat="42.49329" lon="2.23892">
        <ele>1254.18</ele>
        <time>2016-06-29T11:00:44Z</time>
      </trkpt>
      <trkpt lat="42.49322" lon="2.23889">
        <ele>1254.66</ele>
        <time>2016-06-29T11:00:52Z</time>
      </trkpt>
      <trkpt lat="42.49314" lon="2.23893">
        <ele>1255.62</ele>
        <time>2016-06-29T11:00:59Z</time>
      </trkpt>
      <trkpt lat="42.4931" lon="2.23893">
        <ele>1255.62</ele>
        <time>2016-06-29T11:01:02Z</time>
      </trkpt>
      <trkpt lat="42.493" lon="2.2389">
        <ele>1257.54</ele>
        <time>2016-06-29T11:01:14Z</time>
      </trkpt>
      <trkpt lat="42.49296" lon="2.23889">
        <ele>1258.02</ele>
        <time>2016-06-29T11:01:17Z</time>
      </trkpt>
      <trkpt lat="42.49288" lon="2.23889">
        <ele>1258.5</ele>
        <time>2016-06-29T11:01:23Z</time>
      </trkpt>
      <trkpt lat="42.49285" lon="2.23888">
        <ele>1258.98</ele>
        <time>2016-06-29T11:01:27Z</time>
      </trkpt>
      <trkpt lat="42.49281" lon="2.23886">
        <ele>1259.46</ele>
        <time>2016-06-29T11:01:30Z</time>
      </trkpt>
      <trkpt lat="42.49278" lon="2.23886">
        <ele>1259.46</ele>
        <time>2016-06-29T11:01:32Z</time>
      </trkpt>
      <trkpt lat="42.49278" lon="2.23884">
        <ele>1259.46</ele>
        <time>2016-06-29T11:01:34Z</time>
      </trkpt>
      <trkpt lat="42.49276" lon="2.23882">
        <ele>1259.94</ele>
        <time>2016-06-29T11:01:36Z</time>
      </trkpt>
      <trkpt lat="42.49269" lon="2.23883">
        <ele>1260.43</ele>
        <time>2016-06-29T11:01:43Z</time>
      </trkpt>
      <trkpt lat="42.49263" lon="2.23876">
        <ele>1262.35</ele>
        <time>2016-06-29T11:01:56Z</time>
      </trkpt>
      <trkpt lat="42.49262" lon="2.23871">
        <ele>1264.75</ele>
        <time>2016-06-29T11:02:06Z</time>
      </trkpt>
      <trkpt lat="42.49256" lon="2.23869">
        <ele>1268.12</ele>
        <time>2016-06-29T11:02:12Z</time>
      </trkpt>
      <trkpt lat="42.49255" lon="2.23869">
        <ele>1269.08</ele>
        <time>2016-06-29T11:02:13Z</time>
      </trkpt>
      <trkpt lat="42.49251" lon="2.23866">
        <ele>1271</ele>
        <time>2016-06-29T11:02:23Z</time>
      </trkpt>
      <trkpt lat="42.49248" lon="2.23859">
        <ele>1271.48</ele>
        <time>2016-06-29T11:02:33Z</time>
      </trkpt>
      <trkpt lat="42.49244" lon="2.23853">
        <ele>1273.4</ele>
        <time>2016-06-29T11:02:45Z</time>
      </trkpt>
      <trkpt lat="42.49238" lon="2.2385">
        <ele>1274.36</ele>
        <time>2016-06-29T11:02:55Z</time>
      </trkpt>
      <trkpt lat="42.49237" lon="2.23851">
        <ele>1274.36</ele>
        <time>2016-06-29T11:02:56Z</time>
      </trkpt>
      <trkpt lat="42.49231" lon="2.23853">
        <ele>1274.36</ele>
        <time>2016-06-29T11:03:01Z</time>
      </trkpt>
      <trkpt lat="42.49229" lon="2.23852">
        <ele>1273.88</ele>
        <time>2016-06-29T11:03:04Z</time>
      </trkpt>
      <trkpt lat="42.49226" lon="2.23855">
        <ele>1273.88</ele>
        <time>2016-06-29T11:03:07Z</time>
      </trkpt>
      <trkpt lat="42.49219" lon="2.23859">
        <ele>1272.92</ele>
        <time>2016-06-29T11:03:13Z</time>
      </trkpt>
      <trkpt lat="42.49218" lon="2.2386">
        <ele>1272.44</ele>
        <time>2016-06-29T11:03:14Z</time>
      </trkpt>
      <trkpt lat="42.49216" lon="2.23862">
        <ele>1271.48</ele>
        <time>2016-06-29T11:03:21Z</time>
      </trkpt>
      <trkpt lat="42.49211" lon="2.23866">
        <ele>1271.48</ele>
        <time>2016-06-29T11:03:31Z</time>
      </trkpt>
      <trkpt lat="42.49209" lon="2.23867">
        <ele>1271.48</ele>
        <time>2016-06-29T11:03:33Z</time>
      </trkpt>
      <trkpt lat="42.49204" lon="2.23867">
        <ele>1271.48</ele>
        <time>2016-06-29T11:03:37Z</time>
      </trkpt>
      <trkpt lat="42.49195" lon="2.23871">
        <ele>1271.96</ele>
        <time>2016-06-29T11:03:44Z</time>
      </trkpt>
      <trkpt lat="42.49188" lon="2.23869">
        <ele>1273.4</ele>
        <time>2016-06-29T11:03:53Z</time>
      </trkpt>
      <trkpt lat="42.49181" lon="2.23866">
        <ele>1273.88</ele>
        <time>2016-06-29T11:04:00Z</time>
      </trkpt>
      <trkpt lat="42.49176" lon="2.23863">
        <ele>1274.85</ele>
        <time>2016-06-29T11:04:04Z</time>
      </trkpt>
      <trkpt lat="42.49174" lon="2.23866">
        <ele>1274.85</ele>
        <time>2016-06-29T11:04:06Z</time>
      </trkpt>
      <trkpt lat="42.49165" lon="2.23863">
        <ele>1277.25</ele>
        <time>2016-06-29T11:04:16Z</time>
      </trkpt>
      <trkpt lat="42.49162" lon="2.23862">
        <ele>1277.73</ele>
        <time>2016-06-29T11:04:19Z</time>
      </trkpt>
      <trkpt lat="42.49156" lon="2.23862">
        <ele>1278.69</ele>
        <time>2016-06-29T11:04:26Z</time>
      </trkpt>
      <trkpt lat="42.4915" lon="2.23863">
        <ele>1279.65</ele>
        <time>2016-06-29T11:04:35Z</time>
      </trkpt>
      <trkpt lat="42.49146" lon="2.23863">
        <ele>1280.61</ele>
        <time>2016-06-29T11:04:41Z</time>
      </trkpt>
      <trkpt lat="42.49142" lon="2.23865">
        <ele>1281.57</ele>
        <time>2016-06-29T11:04:50Z</time>
      </trkpt>
      <trkpt lat="42.49141" lon="2.23866">
        <ele>1281.57</ele>
        <time>2016-06-29T11:04:52Z</time>
      </trkpt>
      <trkpt lat="42.4914" lon="2.23867">
        <ele>1282.54</ele>
        <time>2016-06-29T11:04:54Z</time>
      </trkpt>
      <trkpt lat="42.49137" lon="2.2387">
        <ele>1283.02</ele>
        <time>2016-06-29T11:04:58Z</time>
      </trkpt>
      <trkpt lat="42.49133" lon="2.23871">
        <ele>1283.02</ele>
        <time>2016-06-29T11:05:02Z</time>
      </trkpt>
      <trkpt lat="42.49128" lon="2.23874">
        <ele>1283.98</ele>
        <time>2016-06-29T11:05:12Z</time>
      </trkpt>
      <trkpt lat="42.49127" lon="2.23875">
        <ele>1283.98</ele>
        <time>2016-06-29T11:05:13Z</time>
      </trkpt>
      <trkpt lat="42.49121" lon="2.23882">
        <ele>1284.94</ele>
        <time>2016-06-29T11:05:22Z</time>
      </trkpt>
      <trkpt lat="42.49118" lon="2.23883">
        <ele>1285.9</ele>
        <time>2016-06-29T11:05:24Z</time>
      </trkpt>
      <trkpt lat="42.49113" lon="2.23888">
        <ele>1286.38</ele>
        <time>2016-06-29T11:05:34Z</time>
      </trkpt>
      <trkpt lat="42.49103" lon="2.23895">
        <ele>1287.82</ele>
        <time>2016-06-29T11:05:44Z</time>
      </trkpt>
      <trkpt lat="42.49099" lon="2.239">
        <ele>1289.27</ele>
        <time>2016-06-29T11:05:52Z</time>
      </trkpt>
      <trkpt lat="42.49093" lon="2.23906">
        <ele>1290.71</ele>
        <time>2016-06-29T11:06:00Z</time>
      </trkpt>
      <trkpt lat="42.49089" lon="2.23908">
        <ele>1291.19</ele>
        <time>2016-06-29T11:06:04Z</time>
      </trkpt>
      <trkpt lat="42.49088" lon="2.23909">
        <ele>1292.15</ele>
        <time>2016-06-29T11:06:10Z</time>
      </trkpt>
      <trkpt lat="42.49086" lon="2.23911">
        <ele>1294.07</ele>
        <time>2016-06-29T11:06:20Z</time>
      </trkpt>
      <trkpt lat="42.49078" lon="2.23918">
        <ele>1295.51</ele>
        <time>2016-06-29T11:06:31Z</time>
      </trkpt>
      <trkpt lat="42.4907" lon="2.2392">
        <ele>1296.48</ele>
        <time>2016-06-29T11:06:38Z</time>
      </trkpt>
      <trkpt lat="42.49066" lon="2.23921">
        <ele>1297.44</ele>
        <time>2016-06-29T11:06:44Z</time>
      </trkpt>
      <trkpt lat="42.49065" lon="2.23921">
        <ele>1297.44</ele>
        <time>2016-06-29T11:06:45Z</time>
      </trkpt>
      <trkpt lat="42.49062" lon="2.23924">
        <ele>1298.4</ele>
        <time>2016-06-29T11:06:48Z</time>
      </trkpt>
      <trkpt lat="42.49054" lon="2.23925">
        <ele>1299.36</ele>
        <time>2016-06-29T11:06:57Z</time>
      </trkpt>
      <trkpt lat="42.4905" lon="2.23925">
        <ele>1299.84</ele>
        <time>2016-06-29T11:07:01Z</time>
      </trkpt>
      <trkpt lat="42.49043" lon="2.23927">
        <ele>1300.8</ele>
        <time>2016-06-29T11:07:09Z</time>
      </trkpt>
      <trkpt lat="42.49021" lon="2.2396">
        <ele>1302.72</ele>
        <time>2016-06-29T11:07:19Z</time>
      </trkpt>
      <trkpt lat="42.4902" lon="2.23965">
        <ele>1303.2</ele>
        <time>2016-06-29T11:07:22Z</time>
      </trkpt>
      <trkpt lat="42.49009" lon="2.23971">
        <ele>1303.69</ele>
        <time>2016-06-29T11:07:29Z</time>
      </trkpt>
      <trkpt lat="42.49001" lon="2.23965">
        <ele>1305.61</ele>
        <time>2016-06-29T11:07:41Z</time>
      </trkpt>
      <trkpt lat="42.48996" lon="2.23959">
        <ele>1307.53</ele>
        <time>2016-06-29T11:07:49Z</time>
      </trkpt>
      <trkpt lat="42.48995" lon="2.23957">
        <ele>1307.05</ele>
        <time>2016-06-29T11:07:50Z</time>
      </trkpt>
      <trkpt lat="42.48988" lon="2.2395">
        <ele>1308.97</ele>
        <time>2016-06-29T11:08:01Z</time>
      </trkpt>
      <trkpt lat="42.48981" lon="2.23941">
        <ele>1310.9</ele>
        <time>2016-06-29T11:08:14Z</time>
      </trkpt>
      <trkpt lat="42.48968" lon="2.23935">
        <ele>1312.34</ele>
        <time>2016-06-29T11:08:27Z</time>
      </trkpt>
      <trkpt lat="42.48965" lon="2.23932">
        <ele>1312.82</ele>
        <time>2016-06-29T11:08:31Z</time>
      </trkpt>
      <trkpt lat="42.48963" lon="2.23931">
        <ele>1313.3</ele>
        <time>2016-06-29T11:08:33Z</time>
      </trkpt>
      <trkpt lat="42.48955" lon="2.23932">
        <ele>1314.74</ele>
        <time>2016-06-29T11:08:38Z</time>
      </trkpt>
      <trkpt lat="42.48949" lon="2.23926">
        <ele>1315.7</ele>
        <time>2016-06-29T11:08:47Z</time>
      </trkpt>
      <trkpt lat="42.48946" lon="2.23925">
        <ele>1316.66</ele>
        <time>2016-06-29T11:08:51Z</time>
      </trkpt>
      <trkpt lat="42.4894" lon="2.23924">
        <ele>1318.1</ele>
        <time>2016-06-29T11:09:04Z</time>
      </trkpt>
      <trkpt lat="42.48937" lon="2.23922">
        <ele>1318.59</ele>
        <time>2016-06-29T11:09:24Z</time>
      </trkpt>
      <trkpt lat="42.48932" lon="2.23922">
        <ele>1319.07</ele>
        <time>2016-06-29T11:09:45Z</time>
      </trkpt>
      <trkpt lat="42.48929" lon="2.23922">
        <ele>1319.55</ele>
        <time>2016-06-29T11:10:04Z</time>
      </trkpt>
      <trkpt lat="42.48926" lon="2.23921">
        <ele>1320.03</ele>
        <time>2016-06-29T11:10:14Z</time>
      </trkpt>
      <trkpt lat="42.48924" lon="2.23918">
        <ele>1320.51</ele>
        <time>2016-06-29T11:10:19Z</time>
      </trkpt>
      <trkpt lat="42.48918" lon="2.23907">
        <ele>1322.43</ele>
        <time>2016-06-29T11:10:30Z</time>
      </trkpt>
      <trkpt lat="42.48917" lon="2.23904">
        <ele>1322.91</ele>
        <time>2016-06-29T11:10:33Z</time>
      </trkpt>
      <trkpt lat="42.48918" lon="2.23891">
        <ele>1324.35</ele>
        <time>2016-06-29T11:10:43Z</time>
      </trkpt>
      <trkpt lat="42.48915" lon="2.2389">
        <ele>1324.83</ele>
        <time>2016-06-29T11:10:45Z</time>
      </trkpt>
      <trkpt lat="42.48909" lon="2.23887">
        <ele>1326.28</ele>
        <time>2016-06-29T11:10:51Z</time>
      </trkpt>
      <trkpt lat="42.48904" lon="2.23878">
        <ele>1327.24</ele>
        <time>2016-06-29T11:11:00Z</time>
      </trkpt>
      <trkpt lat="42.48899" lon="2.23877">
        <ele>1328.68</ele>
        <time>2016-06-29T11:11:07Z</time>
      </trkpt>
      <trkpt lat="42.48893" lon="2.23868">
        <ele>1330.6</ele>
        <time>2016-06-29T11:11:18Z</time>
      </trkpt>
      <trkpt lat="42.48892" lon="2.23866">
        <ele>1331.08</ele>
        <time>2016-06-29T11:11:22Z</time>
      </trkpt>
      <trkpt lat="42.48888" lon="2.23859">
        <ele>1332.52</ele>
        <time>2016-06-29T11:11:32Z</time>
      </trkpt>
      <trkpt lat="42.48881" lon="2.23857">
        <ele>1333.49</ele>
        <time>2016-06-29T11:11:40Z</time>
      </trkpt>
      <trkpt lat="42.48878" lon="2.23848">
        <ele>1334.45</ele>
        <time>2016-06-29T11:11:48Z</time>
      </trkpt>
      <trkpt lat="42.48877" lon="2.23843">
        <ele>1334.93</ele>
        <time>2016-06-29T11:11:53Z</time>
      </trkpt>
      <trkpt lat="42.48869" lon="2.23836">
        <ele>1336.37</ele>
        <time>2016-06-29T11:12:04Z</time>
      </trkpt>
      <trkpt lat="42.48865" lon="2.23832">
        <ele>1336.85</ele>
        <time>2016-06-29T11:12:09Z</time>
      </trkpt>
      <trkpt lat="42.4886" lon="2.23823">
        <ele>1338.29</ele>
        <time>2016-06-29T11:12:20Z</time>
      </trkpt>
      <trkpt lat="42.48854" lon="2.23817">
        <ele>1339.73</ele>
        <time>2016-06-29T11:12:29Z</time>
      </trkpt>
      <trkpt lat="42.48852" lon="2.2381">
        <ele>1340.22</ele>
        <time>2016-06-29T11:12:37Z</time>
      </trkpt>
      <trkpt lat="42.48846" lon="2.23806">
        <ele>1340.7</ele>
        <time>2016-06-29T11:12:45Z</time>
      </trkpt>
      <trkpt lat="42.48846" lon="2.23802">
        <ele>1341.18</ele>
        <time>2016-06-29T11:12:49Z</time>
      </trkpt>
      <trkpt lat="42.48842" lon="2.23796">
        <ele>1341.66</ele>
        <time>2016-06-29T11:12:55Z</time>
      </trkpt>
      <trkpt lat="42.48843" lon="2.23791">
        <ele>1342.14</ele>
        <time>2016-06-29T11:12:58Z</time>
      </trkpt>
      <trkpt lat="42.48842" lon="2.23784">
        <ele>1342.62</ele>
        <time>2016-06-29T11:13:03Z</time>
      </trkpt>
      <trkpt lat="42.48838" lon="2.23781">
        <ele>1345.98</ele>
        <time>2016-06-29T11:13:12Z</time>
      </trkpt>
      <trkpt lat="42.48835" lon="2.23782">
        <ele>1346.46</ele>
        <time>2016-06-29T11:13:14Z</time>
      </trkpt>
      <trkpt lat="42.48824" lon="2.23782">
        <ele>1347.43</ele>
        <time>2016-06-29T11:13:25Z</time>
      </trkpt>
      <trkpt lat="42.4882" lon="2.23781">
        <ele>1347.43</ele>
        <time>2016-06-29T11:13:32Z</time>
      </trkpt>
      <trkpt lat="42.48817" lon="2.2378">
        <ele>1347.43</ele>
        <time>2016-06-29T11:13:35Z</time>
      </trkpt>
      <trkpt lat="42.48807" lon="2.23774">
        <ele>1349.35</ele>
        <time>2016-06-29T11:13:47Z</time>
      </trkpt>
      <trkpt lat="42.48806" lon="2.23774">
        <ele>1349.35</ele>
        <time>2016-06-29T11:13:48Z</time>
      </trkpt>
      <trkpt lat="42.488" lon="2.23773">
        <ele>1349.83</ele>
        <time>2016-06-29T11:13:55Z</time>
      </trkpt>
      <trkpt lat="42.48796" lon="2.23774">
        <ele>1350.31</ele>
        <time>2016-06-29T11:13:59Z</time>
      </trkpt>
      <trkpt lat="42.48792" lon="2.23774">
        <ele>1350.79</ele>
        <time>2016-06-29T11:14:04Z</time>
      </trkpt>
      <trkpt lat="42.48786" lon="2.23773">
        <ele>1351.75</ele>
        <time>2016-06-29T11:14:11Z</time>
      </trkpt>
      <trkpt lat="42.48784" lon="2.23774">
        <ele>1352.23</ele>
        <time>2016-06-29T11:14:14Z</time>
      </trkpt>
      <trkpt lat="42.48777" lon="2.23776">
        <ele>1353.67</ele>
        <time>2016-06-29T11:14:23Z</time>
      </trkpt>
      <trkpt lat="42.48769" lon="2.2378">
        <ele>1355.12</ele>
        <time>2016-06-29T11:14:33Z</time>
      </trkpt>
      <trkpt lat="42.48768" lon="2.2378">
        <ele>1355.12</ele>
        <time>2016-06-29T11:14:35Z</time>
      </trkpt>
      <trkpt lat="42.48768" lon="2.2378">
        <ele>1355.6</ele>
        <time>2016-06-29T11:14:36Z</time>
      </trkpt>
      <trkpt lat="42.48764" lon="2.23779">
        <ele>1356.08</ele>
        <time>2016-06-29T11:14:42Z</time>
      </trkpt>
      <trkpt lat="42.48762" lon="2.23781">
        <ele>1357.04</ele>
        <time>2016-06-29T11:14:44Z</time>
      </trkpt>
      <trkpt lat="42.48757" lon="2.23788">
        <ele>1358</ele>
        <time>2016-06-29T11:14:54Z</time>
      </trkpt>
      <trkpt lat="42.48752" lon="2.23792">
        <ele>1359.44</ele>
        <time>2016-06-29T11:15:04Z</time>
      </trkpt>
      <trkpt lat="42.48743" lon="2.238">
        <ele>1361.36</ele>
        <time>2016-06-29T11:15:17Z</time>
      </trkpt>
      <trkpt lat="42.48735" lon="2.23804">
        <ele>1363.29</ele>
        <time>2016-06-29T11:15:28Z</time>
      </trkpt>
      <trkpt lat="42.48733" lon="2.23803">
        <ele>1363.29</ele>
        <time>2016-06-29T11:15:31Z</time>
      </trkpt>
      <trkpt lat="42.48723" lon="2.23801">
        <ele>1364.73</ele>
        <time>2016-06-29T11:15:42Z</time>
      </trkpt>
      <trkpt lat="42.48714" lon="2.23803">
        <ele>1366.65</ele>
        <time>2016-06-29T11:15:53Z</time>
      </trkpt>
      <trkpt lat="42.48713" lon="2.23803">
        <ele>1366.65</ele>
        <time>2016-06-29T11:15:54Z</time>
      </trkpt>
      <trkpt lat="42.48709" lon="2.23805">
        <ele>1367.61</ele>
        <time>2016-06-29T11:15:59Z</time>
      </trkpt>
      <trkpt lat="42.48707" lon="2.23806">
        <ele>1367.61</ele>
        <time>2016-06-29T11:16:02Z</time>
      </trkpt>
      <trkpt lat="42.487" lon="2.23808">
        <ele>1368.57</ele>
        <time>2016-06-29T11:16:11Z</time>
      </trkpt>
      <trkpt lat="42.48695" lon="2.23811">
        <ele>1369.54</ele>
        <time>2016-06-29T11:16:17Z</time>
      </trkpt>
      <trkpt lat="42.48684" lon="2.23815">
        <ele>1371.46</ele>
        <time>2016-06-29T11:16:29Z</time>
      </trkpt>
      <trkpt lat="42.48676" lon="2.23816">
        <ele>1372.42</ele>
        <time>2016-06-29T11:16:38Z</time>
      </trkpt>
      <trkpt lat="42.48671" lon="2.23814">
        <ele>1372.9</ele>
        <time>2016-06-29T11:16:44Z</time>
      </trkpt>
      <trkpt lat="42.48665" lon="2.23811">
        <ele>1374.34</ele>
        <time>2016-06-29T11:16:53Z</time>
      </trkpt>
      <trkpt lat="42.48659" lon="2.23812">
        <ele>1374.82</ele>
        <time>2016-06-29T11:16:56Z</time>
      </trkpt>
      <trkpt lat="42.48653" lon="2.23808">
        <ele>1375.78</ele>
        <time>2016-06-29T11:17:03Z</time>
      </trkpt>
      <trkpt lat="42.4865" lon="2.23807">
        <ele>1375.78</ele>
        <time>2016-06-29T11:17:06Z</time>
      </trkpt>
      <trkpt lat="42.48645" lon="2.23803">
        <ele>1376.75</ele>
        <time>2016-06-29T11:17:10Z</time>
      </trkpt>
      <trkpt lat="42.48642" lon="2.23799">
        <ele>1377.71</ele>
        <time>2016-06-29T11:17:17Z</time>
      </trkpt>
      <trkpt lat="42.48637" lon="2.23798">
        <ele>1378.19</ele>
        <time>2016-06-29T11:17:21Z</time>
      </trkpt>
      <trkpt lat="42.48627" lon="2.23798">
        <ele>1379.15</ele>
        <time>2016-06-29T11:17:30Z</time>
      </trkpt>
      <trkpt lat="42.48626" lon="2.23796">
        <ele>1379.63</ele>
        <time>2016-06-29T11:17:34Z</time>
      </trkpt>
      <trkpt lat="42.48624" lon="2.23792">
        <ele>1381.07</ele>
        <time>2016-06-29T11:17:39Z</time>
      </trkpt>
      <trkpt lat="42.48622" lon="2.23794">
        <ele>1381.55</ele>
        <time>2016-06-29T11:17:41Z</time>
      </trkpt>
      <trkpt lat="42.48612" lon="2.23795">
        <ele>1382.99</ele>
        <time>2016-06-29T11:17:52Z</time>
      </trkpt>
      <trkpt lat="42.48609" lon="2.23795">
        <ele>1383.47</ele>
        <time>2016-06-29T11:17:55Z</time>
      </trkpt>
      <trkpt lat="42.486" lon="2.23799">
        <ele>1385.4</ele>
        <time>2016-06-29T11:18:06Z</time>
      </trkpt>
      <trkpt lat="42.48596" lon="2.23797">
        <ele>1386.84</ele>
        <time>2016-06-29T11:18:17Z</time>
      </trkpt>
      <trkpt lat="42.48581" lon="2.23803">
        <ele>1388.28</ele>
        <time>2016-06-29T11:18:28Z</time>
      </trkpt>
      <trkpt lat="42.48578" lon="2.23803">
        <ele>1389.72</ele>
        <time>2016-06-29T11:18:34Z</time>
      </trkpt>
      <trkpt lat="42.48575" lon="2.23804">
        <ele>1390.2</ele>
        <time>2016-06-29T11:18:38Z</time>
      </trkpt>
      <trkpt lat="42.48568" lon="2.238">
        <ele>1392.13</ele>
        <time>2016-06-29T11:18:49Z</time>
      </trkpt>
      <trkpt lat="42.48565" lon="2.23798">
        <ele>1393.09</ele>
        <time>2016-06-29T11:18:56Z</time>
      </trkpt>
      <trkpt lat="42.48559" lon="2.23795">
        <ele>1394.53</ele>
        <time>2016-06-29T11:19:07Z</time>
      </trkpt>
      <trkpt lat="42.48548" lon="2.238">
        <ele>1395.49</ele>
        <time>2016-06-29T11:19:14Z</time>
      </trkpt>
      <trkpt lat="42.48538" lon="2.23807">
        <ele>1396.45</ele>
        <time>2016-06-29T11:19:25Z</time>
      </trkpt>
      <trkpt lat="42.48534" lon="2.23811">
        <ele>1397.89</ele>
        <time>2016-06-29T11:19:30Z</time>
      </trkpt>
      <trkpt lat="42.48528" lon="2.23816">
        <ele>1398.37</ele>
        <time>2016-06-29T11:19:36Z</time>
      </trkpt>
      <trkpt lat="42.48521" lon="2.23822">
        <ele>1400.78</ele>
        <time>2016-06-29T11:19:48Z</time>
      </trkpt>
      <trkpt lat="42.48517" lon="2.23824">
        <ele>1401.26</ele>
        <time>2016-06-29T11:19:54Z</time>
      </trkpt>
      <trkpt lat="42.48513" lon="2.23825">
        <ele>1402.22</ele>
        <time>2016-06-29T11:20:00Z</time>
      </trkpt>
      <trkpt lat="42.48514" lon="2.23824">
        <ele>1403.18</ele>
        <time>2016-06-29T11:20:03Z</time>
      </trkpt>
      <trkpt lat="42.48502" lon="2.23826">
        <ele>1404.62</ele>
        <time>2016-06-29T11:20:14Z</time>
      </trkpt>
      <trkpt lat="42.48497" lon="2.23827">
        <ele>1405.1</ele>
        <time>2016-06-29T11:20:28Z</time>
      </trkpt>
      <trkpt lat="42.48497" lon="2.23827">
        <ele>1405.58</ele>
        <time>2016-06-29T11:20:47Z</time>
      </trkpt>
      <trkpt lat="42.48497" lon="2.23827">
        <ele>1405.58</ele>
        <time>2016-06-29T11:20:50Z</time>
      </trkpt>
      <trkpt lat="42.48492" lon="2.2383">
        <ele>1407.51</ele>
        <time>2016-06-29T11:21:00Z</time>
      </trkpt>
      <trkpt lat="42.48488" lon="2.2383">
        <ele>1407.99</ele>
        <time>2016-06-29T11:21:04Z</time>
      </trkpt>
      <trkpt lat="42.48483" lon="2.2383">
        <ele>1409.43</ele>
        <time>2016-06-29T11:21:15Z</time>
      </trkpt>
      <trkpt lat="42.48472" lon="2.23833">
        <ele>1411.35</ele>
        <time>2016-06-29T11:21:26Z</time>
      </trkpt>
      <trkpt lat="42.48472" lon="2.23835">
        <ele>1411.83</ele>
        <time>2016-06-29T11:21:28Z</time>
      </trkpt>
      <trkpt lat="42.4847" lon="2.23838">
        <ele>1412.79</ele>
        <time>2016-06-29T11:21:37Z</time>
      </trkpt>
      <trkpt lat="42.48465" lon="2.2384">
        <ele>1414.24</ele>
        <time>2016-06-29T11:21:46Z</time>
      </trkpt>
      <trkpt lat="42.48462" lon="2.23842">
        <ele>1415.68</ele>
        <time>2016-06-29T11:21:55Z</time>
      </trkpt>
      <trkpt lat="42.48454" lon="2.2385">
        <ele>1416.64</ele>
        <time>2016-06-29T11:22:07Z</time>
      </trkpt>
      <trkpt lat="42.48449" lon="2.23855">
        <ele>1417.6</ele>
        <time>2016-06-29T11:22:13Z</time>
      </trkpt>
      <trkpt lat="42.4844" lon="2.23859">
        <ele>1419.52</ele>
        <time>2016-06-29T11:22:24Z</time>
      </trkpt>
      <trkpt lat="42.48433" lon="2.23864">
        <ele>1420.97</ele>
        <time>2016-06-29T11:22:35Z</time>
      </trkpt>
      <trkpt lat="42.48425" lon="2.23866">
        <ele>1422.89</ele>
        <time>2016-06-29T11:22:46Z</time>
      </trkpt>
      <trkpt lat="42.4842" lon="2.23871">
        <ele>1423.85</ele>
        <time>2016-06-29T11:22:56Z</time>
      </trkpt>
      <trkpt lat="42.48413" lon="2.23871">
        <ele>1425.29</ele>
        <time>2016-06-29T11:23:05Z</time>
      </trkpt>
      <trkpt lat="42.48404" lon="2.2387">
        <ele>1426.25</ele>
        <time>2016-06-29T11:23:16Z</time>
      </trkpt>
      <trkpt lat="42.48398" lon="2.23871">
        <ele>1427.7</ele>
        <time>2016-06-29T11:23:25Z</time>
      </trkpt>
      <trkpt lat="42.48391" lon="2.23869">
        <ele>1429.14</ele>
        <time>2016-06-29T11:23:37Z</time>
      </trkpt>
      <trkpt lat="42.4839" lon="2.23868">
        <ele>1429.62</ele>
        <time>2016-06-29T11:23:40Z</time>
      </trkpt>
      <trkpt lat="42.48389" lon="2.23866">
        <ele>1430.1</ele>
        <time>2016-06-29T11:23:43Z</time>
      </trkpt>
      <trkpt lat="42.48386" lon="2.23866">
        <ele>1430.1</ele>
        <time>2016-06-29T11:23:46Z</time>
      </trkpt>
      <trkpt lat="42.48377" lon="2.23865">
        <ele>1431.54</ele>
        <time>2016-06-29T11:23:56Z</time>
      </trkpt>
      <trkpt lat="42.48369" lon="2.23865">
        <ele>1433.46</ele>
        <time>2016-06-29T11:24:08Z</time>
      </trkpt>
      <trkpt lat="42.48362" lon="2.23869">
        <ele>1434.91</ele>
        <time>2016-06-29T11:24:19Z</time>
      </trkpt>
      <trkpt lat="42.48358" lon="2.23871">
        <ele>1435.39</ele>
        <time>2016-06-29T11:24:26Z</time>
      </trkpt>
      <trkpt lat="42.4835" lon="2.23872">
        <ele>1437.31</ele>
        <time>2016-06-29T11:24:36Z</time>
      </trkpt>
      <trkpt lat="42.48345" lon="2.23874">
        <ele>1438.75</ele>
        <time>2016-06-29T11:24:46Z</time>
      </trkpt>
      <trkpt lat="42.4834" lon="2.23881">
        <ele>1440.19</ele>
        <time>2016-06-29T11:24:57Z</time>
      </trkpt>
      <trkpt lat="42.48338" lon="2.23884">
        <ele>1440.19</ele>
        <time>2016-06-29T11:24:59Z</time>
      </trkpt>
      <trkpt lat="42.48337" lon="2.23887">
        <ele>1440.67</ele>
        <time>2016-06-29T11:25:02Z</time>
      </trkpt>
      <trkpt lat="42.48332" lon="2.23893">
        <ele>1442.11</ele>
        <time>2016-06-29T11:25:09Z</time>
      </trkpt>
      <trkpt lat="42.48324" lon="2.23899">
        <ele>1443.08</ele>
        <time>2016-06-29T11:25:18Z</time>
      </trkpt>
      <trkpt lat="42.48323" lon="2.23899">
        <ele>1443.56</ele>
        <time>2016-06-29T11:25:19Z</time>
      </trkpt>
      <trkpt lat="42.48315" lon="2.23902">
        <ele>1444.52</ele>
        <time>2016-06-29T11:25:29Z</time>
      </trkpt>
      <trkpt lat="42.48307" lon="2.23904">
        <ele>1445.96</ele>
        <time>2016-06-29T11:25:38Z</time>
      </trkpt>
      <trkpt lat="42.48297" lon="2.23907">
        <ele>1447.4</ele>
        <time>2016-06-29T11:25:50Z</time>
      </trkpt>
      <trkpt lat="42.48291" lon="2.23911">
        <ele>1449.32</ele>
        <time>2016-06-29T11:25:59Z</time>
      </trkpt>
      <trkpt lat="42.48282" lon="2.23914">
        <ele>1450.29</ele>
        <time>2016-06-29T11:26:11Z</time>
      </trkpt>
      <trkpt lat="42.48275" lon="2.2392">
        <ele>1452.21</ele>
        <time>2016-06-29T11:26:22Z</time>
      </trkpt>
      <trkpt lat="42.48245" lon="2.2394">
        <ele>1454.13</ele>
        <time>2016-06-29T11:26:36Z</time>
      </trkpt>
      <trkpt lat="42.48239" lon="2.23943">
        <ele>1455.57</ele>
        <time>2016-06-29T11:26:45Z</time>
      </trkpt>
      <trkpt lat="42.48233" lon="2.23943">
        <ele>1456.53</ele>
        <time>2016-06-29T11:26:51Z</time>
      </trkpt>
      <trkpt lat="42.48227" lon="2.23941">
        <ele>1457.98</ele>
        <time>2016-06-29T11:27:03Z</time>
      </trkpt>
      <trkpt lat="42.48225" lon="2.23941">
        <ele>1459.9</ele>
        <time>2016-06-29T11:27:20Z</time>
      </trkpt>
      <trkpt lat="42.48223" lon="2.23953">
        <ele>1460.38</ele>
        <time>2016-06-29T11:27:41Z</time>
      </trkpt>
      <trkpt lat="42.48218" lon="2.23952">
        <ele>1460.86</ele>
        <time>2016-06-29T11:27:51Z</time>
      </trkpt>
      <trkpt lat="42.48209" lon="2.23951">
        <ele>1462.3</ele>
        <time>2016-06-29T11:28:03Z</time>
      </trkpt>
      <trkpt lat="42.48206" lon="2.23951">
        <ele>1462.78</ele>
        <time>2016-06-29T11:28:08Z</time>
      </trkpt>
      <trkpt lat="42.48195" lon="2.23943">
        <ele>1463.74</ele>
        <time>2016-06-29T11:28:18Z</time>
      </trkpt>
      <trkpt lat="42.48186" lon="2.23943">
        <ele>1465.19</ele>
        <time>2016-06-29T11:28:25Z</time>
      </trkpt>
      <trkpt lat="42.48179" lon="2.23939">
        <ele>1466.15</ele>
        <time>2016-06-29T11:28:34Z</time>
      </trkpt>
      <trkpt lat="42.48178" lon="2.23939">
        <ele>1466.15</ele>
        <time>2016-06-29T11:28:35Z</time>
      </trkpt>
      <trkpt lat="42.48167" lon="2.23939">
        <ele>1468.07</ele>
        <time>2016-06-29T11:28:46Z</time>
      </trkpt>
      <trkpt lat="42.48163" lon="2.23938">
        <ele>1469.03</ele>
        <time>2016-06-29T11:28:56Z</time>
      </trkpt>
      <trkpt lat="42.48157" lon="2.23943">
        <ele>1470.95</ele>
        <time>2016-06-29T11:29:09Z</time>
      </trkpt>
      <trkpt lat="42.48148" lon="2.23941">
        <ele>1472.4</ele>
        <time>2016-06-29T11:29:19Z</time>
      </trkpt>
      <trkpt lat="42.48142" lon="2.2394">
        <ele>1473.36</ele>
        <time>2016-06-29T11:29:26Z</time>
      </trkpt>
      <trkpt lat="42.48137" lon="2.23939">
        <ele>1473.84</ele>
        <time>2016-06-29T11:29:32Z</time>
      </trkpt>
      <trkpt lat="42.48124" lon="2.23941">
        <ele>1475.28</ele>
        <time>2016-06-29T11:29:44Z</time>
      </trkpt>
      <trkpt lat="42.48115" lon="2.23944">
        <ele>1477.2</ele>
        <time>2016-06-29T11:29:55Z</time>
      </trkpt>
      <trkpt lat="42.48105" lon="2.23949">
        <ele>1479.13</ele>
        <time>2016-06-29T11:30:07Z</time>
      </trkpt>
      <trkpt lat="42.48095" lon="2.23949">
        <ele>1481.05</ele>
        <time>2016-06-29T11:30:21Z</time>
      </trkpt>
      <trkpt lat="42.48083" lon="2.23946">
        <ele>1482.97</ele>
        <time>2016-06-29T11:30:33Z</time>
      </trkpt>
      <trkpt lat="42.48077" lon="2.2395">
        <ele>1484.89</ele>
        <time>2016-06-29T11:30:44Z</time>
      </trkpt>
      <trkpt lat="42.48076" lon="2.2395">
        <ele>1484.89</ele>
        <time>2016-06-29T11:30:45Z</time>
      </trkpt>
      <trkpt lat="42.48066" lon="2.23951">
        <ele>1487.3</ele>
        <time>2016-06-29T11:30:57Z</time>
      </trkpt>
      <trkpt lat="42.48059" lon="2.23953">
        <ele>1488.26</ele>
        <time>2016-06-29T11:31:07Z</time>
      </trkpt>
      <trkpt lat="42.48052" lon="2.23955">
        <ele>1490.66</ele>
        <time>2016-06-29T11:31:18Z</time>
      </trkpt>
      <trkpt lat="42.48047" lon="2.23955">
        <ele>1491.14</ele>
        <time>2016-06-29T11:31:23Z</time>
      </trkpt>
      <trkpt lat="42.48038" lon="2.23958">
        <ele>1493.06</ele>
        <time>2016-06-29T11:31:33Z</time>
      </trkpt>
      <trkpt lat="42.48034" lon="2.23957">
        <ele>1494.03</ele>
        <time>2016-06-29T11:31:39Z</time>
      </trkpt>
      <trkpt lat="42.48027" lon="2.2396">
        <ele>1495.47</ele>
        <time>2016-06-29T11:31:50Z</time>
      </trkpt>
      <trkpt lat="42.48022" lon="2.23961">
        <ele>1496.43</ele>
        <time>2016-06-29T11:31:59Z</time>
      </trkpt>
      <trkpt lat="42.48019" lon="2.23961">
        <ele>1496.91</ele>
        <time>2016-06-29T11:32:03Z</time>
      </trkpt>
      <trkpt lat="42.48015" lon="2.23968">
        <ele>1498.35</ele>
        <time>2016-06-29T11:32:13Z</time>
      </trkpt>
      <trkpt lat="42.48006" lon="2.2397">
        <ele>1500.27</ele>
        <time>2016-06-29T11:32:25Z</time>
      </trkpt>
      <trkpt lat="42.47992" lon="2.23972">
        <ele>1501.72</ele>
        <time>2016-06-29T11:32:35Z</time>
      </trkpt>
      <trkpt lat="42.47981" lon="2.23971">
        <ele>1502.68</ele>
        <time>2016-06-29T11:32:44Z</time>
      </trkpt>
      <trkpt lat="42.47975" lon="2.23965">
        <ele>1503.64</ele>
        <time>2016-06-29T11:32:54Z</time>
      </trkpt>
      <trkpt lat="42.47973" lon="2.23963">
        <ele>1504.6</ele>
        <time>2016-06-29T11:32:58Z</time>
      </trkpt>
      <trkpt lat="42.47967" lon="2.23959">
        <ele>1505.56</ele>
        <time>2016-06-29T11:33:09Z</time>
      </trkpt>
      <trkpt lat="42.47961" lon="2.23963">
        <ele>1506.52</ele>
        <time>2016-06-29T11:33:19Z</time>
      </trkpt>
      <trkpt lat="42.47958" lon="2.23962">
        <ele>1507.97</ele>
        <time>2016-06-29T11:33:27Z</time>
      </trkpt>
      <trkpt lat="42.47955" lon="2.23962">
        <ele>1508.45</ele>
        <time>2016-06-29T11:33:30Z</time>
      </trkpt>
      <trkpt lat="42.47948" lon="2.23964">
        <ele>1509.89</ele>
        <time>2016-06-29T11:33:41Z</time>
      </trkpt>
      <trkpt lat="42.47948" lon="2.23964">
        <ele>1509.89</ele>
        <time>2016-06-29T11:33:42Z</time>
      </trkpt>
      <trkpt lat="42.47946" lon="2.23962">
        <ele>1509.89</ele>
        <time>2016-06-29T11:33:44Z</time>
      </trkpt>
      <trkpt lat="42.47943" lon="2.23962">
        <ele>1510.85</ele>
        <time>2016-06-29T11:33:47Z</time>
      </trkpt>
      <trkpt lat="42.47939" lon="2.23959">
        <ele>1511.33</ele>
        <time>2016-06-29T11:33:50Z</time>
      </trkpt>
      <trkpt lat="42.4793" lon="2.23963">
        <ele>1512.29</ele>
        <time>2016-06-29T11:34:02Z</time>
      </trkpt>
      <trkpt lat="42.4793" lon="2.23965">
        <ele>1512.77</ele>
        <time>2016-06-29T11:34:05Z</time>
      </trkpt>
      <trkpt lat="42.47922" lon="2.23969">
        <ele>1513.73</ele>
        <time>2016-06-29T11:34:15Z</time>
      </trkpt>
      <trkpt lat="42.47925" lon="2.23967">
        <ele>1514.21</ele>
        <time>2016-06-29T11:34:29Z</time>
      </trkpt>
      <trkpt lat="42.47914" lon="2.23976">
        <ele>1515.18</ele>
        <time>2016-06-29T11:34:48Z</time>
      </trkpt>
      <trkpt lat="42.47916" lon="2.23978">
        <ele>1515.18</ele>
        <time>2016-06-29T11:35:05Z</time>
      </trkpt>
      <trkpt lat="42.47915" lon="2.23979">
        <ele>1515.18</ele>
        <time>2016-06-29T11:35:09Z</time>
      </trkpt>
      <trkpt lat="42.47911" lon="2.23978">
        <ele>1515.66</ele>
        <time>2016-06-29T11:35:16Z</time>
      </trkpt>
      <trkpt lat="42.47909" lon="2.23978">
        <ele>1516.14</ele>
        <time>2016-06-29T11:35:21Z</time>
      </trkpt>
      <trkpt lat="42.47909" lon="2.23977">
        <ele>1516.62</ele>
        <time>2016-06-29T11:35:25Z</time>
      </trkpt>
      <trkpt lat="42.479" lon="2.23985">
        <ele>1518.06</ele>
        <time>2016-06-29T11:35:35Z</time>
      </trkpt>
      <trkpt lat="42.47898" lon="2.23986">
        <ele>1518.54</ele>
        <time>2016-06-29T11:35:37Z</time>
      </trkpt>
      <trkpt lat="42.47883" lon="2.2399">
        <ele>1520.94</ele>
        <time>2016-06-29T11:35:50Z</time>
      </trkpt>
      <trkpt lat="42.47875" lon="2.23988">
        <ele>1521.9</ele>
        <time>2016-06-29T11:35:58Z</time>
      </trkpt>
      <trkpt lat="42.47872" lon="2.23988">
        <ele>1522.87</ele>
        <time>2016-06-29T11:36:05Z</time>
      </trkpt>
      <trkpt lat="42.47869" lon="2.23985">
        <ele>1523.83</ele>
        <time>2016-06-29T11:36:10Z</time>
      </trkpt>
      <trkpt lat="42.47864" lon="2.23985">
        <ele>1524.79</ele>
        <time>2016-06-29T11:36:18Z</time>
      </trkpt>
      <trkpt lat="42.47858" lon="2.23984">
        <ele>1525.75</ele>
        <time>2016-06-29T11:36:26Z</time>
      </trkpt>
      <trkpt lat="42.47852" lon="2.23983">
        <ele>1527.19</ele>
        <time>2016-06-29T11:36:35Z</time>
      </trkpt>
      <trkpt lat="42.47841" lon="2.23982">
        <ele>1529.11</ele>
        <time>2016-06-29T11:36:44Z</time>
      </trkpt>
      <trkpt lat="42.47835" lon="2.23981">
        <ele>1530.08</ele>
        <time>2016-06-29T11:36:54Z</time>
      </trkpt>
      <trkpt lat="42.47831" lon="2.23981">
        <ele>1531.04</ele>
        <time>2016-06-29T11:37:01Z</time>
      </trkpt>
      <trkpt lat="42.47822" lon="2.23984">
        <ele>1532.48</ele>
        <time>2016-06-29T11:37:11Z</time>
      </trkpt>
      <trkpt lat="42.47822" lon="2.23984">
        <ele>1532.48</ele>
        <time>2016-06-29T11:37:12Z</time>
      </trkpt>
      <trkpt lat="42.47816" lon="2.23981">
        <ele>1533.92</ele>
        <time>2016-06-29T11:37:23Z</time>
      </trkpt>
      <trkpt lat="42.4781" lon="2.23979">
        <ele>1535.36</ele>
        <time>2016-06-29T11:37:33Z</time>
      </trkpt>
      <trkpt lat="42.47811" lon="2.2398">
        <ele>1535.84</ele>
        <time>2016-06-29T11:37:34Z</time>
      </trkpt>
      <trkpt lat="42.47807" lon="2.23979">
        <ele>1536.32</ele>
        <time>2016-06-29T11:37:38Z</time>
      </trkpt>
      <trkpt lat="42.47807" lon="2.23978">
        <ele>1536.8</ele>
        <time>2016-06-29T11:37:42Z</time>
      </trkpt>
      <trkpt lat="42.47805" lon="2.23978">
        <ele>1537.29</ele>
        <time>2016-06-29T11:37:45Z</time>
      </trkpt>
      <trkpt lat="42.47797" lon="2.23977">
        <ele>1538.25</ele>
        <time>2016-06-29T11:37:53Z</time>
      </trkpt>
      <trkpt lat="42.47795" lon="2.23973">
        <ele>1539.69</ele>
        <time>2016-06-29T11:38:03Z</time>
      </trkpt>
      <trkpt lat="42.47791" lon="2.23971">
        <ele>1540.65</ele>
        <time>2016-06-29T11:38:10Z</time>
      </trkpt>
      <trkpt lat="42.47786" lon="2.23972">
        <ele>1541.13</ele>
        <time>2016-06-29T11:38:13Z</time>
      </trkpt>
      <trkpt lat="42.4778" lon="2.23972">
        <ele>1543.05</ele>
        <time>2016-06-29T11:38:21Z</time>
      </trkpt>
      <trkpt lat="42.47772" lon="2.23972">
        <ele>1544.01</ele>
        <time>2016-06-29T11:38:28Z</time>
      </trkpt>
      <trkpt lat="42.47768" lon="2.23972">
        <ele>1544.5</ele>
        <time>2016-06-29T11:38:34Z</time>
      </trkpt>
      <trkpt lat="42.47765" lon="2.23971">
        <ele>1544.5</ele>
        <time>2016-06-29T11:38:36Z</time>
      </trkpt>
      <trkpt lat="42.47759" lon="2.23972">
        <ele>1545.46</ele>
        <time>2016-06-29T11:38:42Z</time>
      </trkpt>
      <trkpt lat="42.47759" lon="2.23974">
        <ele>1545.94</ele>
        <time>2016-06-29T11:38:45Z</time>
      </trkpt>
      <trkpt lat="42.47749" lon="2.23974">
        <ele>1546.9</ele>
        <time>2016-06-29T11:38:52Z</time>
      </trkpt>
      <trkpt lat="42.47738" lon="2.23976">
        <ele>1548.34</ele>
        <time>2016-06-29T11:39:01Z</time>
      </trkpt>
      <trkpt lat="42.47735" lon="2.23979">
        <ele>1550.26</ele>
        <time>2016-06-29T11:39:10Z</time>
      </trkpt>
      <trkpt lat="42.47731" lon="2.2398">
        <ele>1550.74</ele>
        <time>2016-06-29T11:39:15Z</time>
      </trkpt>
      <trkpt lat="42.47729" lon="2.23983">
        <ele>1551.71</ele>
        <time>2016-06-29T11:39:22Z</time>
      </trkpt>
      <trkpt lat="42.47723" lon="2.23982">
        <ele>1553.15</ele>
        <time>2016-06-29T11:39:31Z</time>
      </trkpt>
      <trkpt lat="42.47721" lon="2.23982">
        <ele>1553.63</ele>
        <time>2016-06-29T11:39:35Z</time>
      </trkpt>
      <trkpt lat="42.47719" lon="2.23981">
        <ele>1553.63</ele>
        <time>2016-06-29T11:39:37Z</time>
      </trkpt>
      <trkpt lat="42.47713" lon="2.23982">
        <ele>1554.59</ele>
        <time>2016-06-29T11:39:42Z</time>
      </trkpt>
      <trkpt lat="42.4771" lon="2.23984">
        <ele>1554.59</ele>
        <time>2016-06-29T11:39:44Z</time>
      </trkpt>
      <trkpt lat="42.47707" lon="2.23983">
        <ele>1555.07</ele>
        <time>2016-06-29T11:39:49Z</time>
      </trkpt>
      <trkpt lat="42.47699" lon="2.23984">
        <ele>1556.51</ele>
        <time>2016-06-29T11:40:00Z</time>
      </trkpt>
      <trkpt lat="42.47688" lon="2.23985">
        <ele>1557.95</ele>
        <time>2016-06-29T11:40:08Z</time>
      </trkpt>
      <trkpt lat="42.47678" lon="2.2399">
        <ele>1558.92</ele>
        <time>2016-06-29T11:40:19Z</time>
      </trkpt>
      <trkpt lat="42.47676" lon="2.23986">
        <ele>1559.88</ele>
        <time>2016-06-29T11:40:32Z</time>
      </trkpt>
      <trkpt lat="42.47673" lon="2.23979">
        <ele>1560.36</ele>
        <time>2016-06-29T11:40:39Z</time>
      </trkpt>
      <trkpt lat="42.4767" lon="2.23977">
        <ele>1560.36</ele>
        <time>2016-06-29T11:40:41Z</time>
      </trkpt>
      <trkpt lat="42.47658" lon="2.23972">
        <ele>1561.8</ele>
        <time>2016-06-29T11:40:50Z</time>
      </trkpt>
      <trkpt lat="42.47646" lon="2.2397">
        <ele>1562.76</ele>
        <time>2016-06-29T11:41:00Z</time>
      </trkpt>
      <trkpt lat="42.47644" lon="2.23969">
        <ele>1563.24</ele>
        <time>2016-06-29T11:41:03Z</time>
      </trkpt>
      <trkpt lat="42.47634" lon="2.23973">
        <ele>1564.68</ele>
        <time>2016-06-29T11:41:13Z</time>
      </trkpt>
      <trkpt lat="42.4763" lon="2.23975">
        <ele>1566.12</ele>
        <time>2016-06-29T11:41:29Z</time>
      </trkpt>
      <trkpt lat="42.47624" lon="2.23972">
        <ele>1566.61</ele>
        <time>2016-06-29T11:41:35Z</time>
      </trkpt>
      <trkpt lat="42.47622" lon="2.23969">
        <ele>1566.61</ele>
        <time>2016-06-29T11:41:38Z</time>
      </trkpt>
      <trkpt lat="42.47615" lon="2.23963">
        <ele>1567.57</ele>
        <time>2016-06-29T11:41:47Z</time>
      </trkpt>
      <trkpt lat="42.47607" lon="2.23961">
        <ele>1568.53</ele>
        <time>2016-06-29T11:41:55Z</time>
      </trkpt>
      <trkpt lat="42.47601" lon="2.23959">
        <ele>1569.01</ele>
        <time>2016-06-29T11:42:01Z</time>
      </trkpt>
      <trkpt lat="42.47599" lon="2.23956">
        <ele>1570.93</ele>
        <time>2016-06-29T11:42:09Z</time>
      </trkpt>
      <trkpt lat="42.47589" lon="2.23956">
        <ele>1572.37</ele>
        <time>2016-06-29T11:42:21Z</time>
      </trkpt>
      <trkpt lat="42.47584" lon="2.23954">
        <ele>1573.82</ele>
        <time>2016-06-29T11:42:28Z</time>
      </trkpt>
      <trkpt lat="42.47577" lon="2.23958">
        <ele>1574.78</ele>
        <time>2016-06-29T11:42:35Z</time>
      </trkpt>
      <trkpt lat="42.47573" lon="2.23962">
        <ele>1575.74</ele>
        <time>2016-06-29T11:42:40Z</time>
      </trkpt>
      <trkpt lat="42.47568" lon="2.23959">
        <ele>1577.66</ele>
        <time>2016-06-29T11:42:52Z</time>
      </trkpt>
      <trkpt lat="42.47567" lon="2.23958">
        <ele>1577.66</ele>
        <time>2016-06-29T11:42:54Z</time>
      </trkpt>
      <trkpt lat="42.47562" lon="2.2396">
        <ele>1578.14</ele>
        <time>2016-06-29T11:42:58Z</time>
      </trkpt>
      <trkpt lat="42.47549" lon="2.23967">
        <ele>1580.06</ele>
        <time>2016-06-29T11:43:09Z</time>
      </trkpt>
      <trkpt lat="42.47546" lon="2.23968">
        <ele>1580.06</ele>
        <time>2016-06-29T11:43:11Z</time>
      </trkpt>
      <trkpt lat="42.47539" lon="2.23967">
        <ele>1581.99</ele>
        <time>2016-06-29T11:43:20Z</time>
      </trkpt>
      <trkpt lat="42.47534" lon="2.23968">
        <ele>1582.47</ele>
        <time>2016-06-29T11:43:26Z</time>
      </trkpt>
      <trkpt lat="42.47525" lon="2.23972">
        <ele>1583.91</ele>
        <time>2016-06-29T11:43:35Z</time>
      </trkpt>
      <trkpt lat="42.47517" lon="2.23971">
        <ele>1584.87</ele>
        <time>2016-06-29T11:43:46Z</time>
      </trkpt>
      <trkpt lat="42.47516" lon="2.23971">
        <ele>1585.35</ele>
        <time>2016-06-29T11:43:47Z</time>
      </trkpt>
      <trkpt lat="42.47508" lon="2.23971">
        <ele>1585.83</ele>
        <time>2016-06-29T11:43:56Z</time>
      </trkpt>
      <trkpt lat="42.47508" lon="2.23972">
        <ele>1586.79</ele>
        <time>2016-06-29T11:43:57Z</time>
      </trkpt>
      <trkpt lat="42.47501" lon="2.23969">
        <ele>1587.27</ele>
        <time>2016-06-29T11:44:04Z</time>
      </trkpt>
      <trkpt lat="42.47491" lon="2.23965">
        <ele>1588.72</ele>
        <time>2016-06-29T11:44:16Z</time>
      </trkpt>
      <trkpt lat="42.47486" lon="2.23958">
        <ele>1590.64</ele>
        <time>2016-06-29T11:44:23Z</time>
      </trkpt>
      <trkpt lat="42.47474" lon="2.2395">
        <ele>1591.6</ele>
        <time>2016-06-29T11:44:34Z</time>
      </trkpt>
      <trkpt lat="42.47477" lon="2.23941">
        <ele>1592.08</ele>
        <time>2016-06-29T11:44:38Z</time>
      </trkpt>
      <trkpt lat="42.47477" lon="2.2394">
        <ele>1592.08</ele>
        <time>2016-06-29T11:44:40Z</time>
      </trkpt>
      <trkpt lat="42.47473" lon="2.23938">
        <ele>1592.56</ele>
        <time>2016-06-29T11:44:44Z</time>
      </trkpt>
      <trkpt lat="42.47468" lon="2.23938">
        <ele>1593.04</ele>
        <time>2016-06-29T11:44:48Z</time>
      </trkpt>
      <trkpt lat="42.47459" lon="2.23932">
        <ele>1594.96</ele>
        <time>2016-06-29T11:44:58Z</time>
      </trkpt>
      <trkpt lat="42.47452" lon="2.23927">
        <ele>1595.93</ele>
        <time>2016-06-29T11:45:09Z</time>
      </trkpt>
      <trkpt lat="42.47441" lon="2.23923">
        <ele>1596.89</ele>
        <time>2016-06-29T11:45:19Z</time>
      </trkpt>
      <trkpt lat="42.47437" lon="2.23919">
        <ele>1597.37</ele>
        <time>2016-06-29T11:45:24Z</time>
      </trkpt>
      <trkpt lat="42.47427" lon="2.23918">
        <ele>1598.81</ele>
        <time>2016-06-29T11:45:31Z</time>
      </trkpt>
      <trkpt lat="42.47418" lon="2.23914">
        <ele>1599.77</ele>
        <time>2016-06-29T11:45:40Z</time>
      </trkpt>
      <trkpt lat="42.4741" lon="2.23909">
        <ele>1600.73</ele>
        <time>2016-06-29T11:45:48Z</time>
      </trkpt>
      <trkpt lat="42.47409" lon="2.23908">
        <ele>1600.73</ele>
        <time>2016-06-29T11:45:49Z</time>
      </trkpt>
      <trkpt lat="42.474" lon="2.23908">
        <ele>1601.69</ele>
        <time>2016-06-29T11:46:00Z</time>
      </trkpt>
      <trkpt lat="42.47396" lon="2.23909">
        <ele>1602.66</ele>
        <time>2016-06-29T11:46:05Z</time>
      </trkpt>
      <trkpt lat="42.47382" lon="2.23905">
        <ele>1603.62</ele>
        <time>2016-06-29T11:46:15Z</time>
      </trkpt>
      <trkpt lat="42.47374" lon="2.23905">
        <ele>1605.54</ele>
        <time>2016-06-29T11:46:25Z</time>
      </trkpt>
      <trkpt lat="42.47369" lon="2.23906">
        <ele>1605.54</ele>
        <time>2016-06-29T11:46:29Z</time>
      </trkpt>
      <trkpt lat="42.47366" lon="2.23906">
        <ele>1605.54</ele>
        <time>2016-06-29T11:46:30Z</time>
      </trkpt>
      <trkpt lat="42.47354" lon="2.23907">
        <ele>1607.46</ele>
        <time>2016-06-29T11:46:39Z</time>
      </trkpt>
      <trkpt lat="42.47353" lon="2.23906">
        <ele>1607.94</ele>
        <time>2016-06-29T11:46:42Z</time>
      </trkpt>
      <trkpt lat="42.47344" lon="2.23902">
        <ele>1608.42</ele>
        <time>2016-06-29T11:46:50Z</time>
      </trkpt>
      <trkpt lat="42.47343" lon="2.23901">
        <ele>1608.9</ele>
        <time>2016-06-29T11:46:51Z</time>
      </trkpt>
      <trkpt lat="42.47334" lon="2.239">
        <ele>1610.35</ele>
        <time>2016-06-29T11:46:59Z</time>
      </trkpt>
      <trkpt lat="42.47326" lon="2.23903">
        <ele>1611.31</ele>
        <time>2016-06-29T11:47:08Z</time>
      </trkpt>
      <trkpt lat="42.47324" lon="2.23903">
        <ele>1611.79</ele>
        <time>2016-06-29T11:47:12Z</time>
      </trkpt>
      <trkpt lat="42.47316" lon="2.23903">
        <ele>1612.75</ele>
        <time>2016-06-29T11:47:22Z</time>
      </trkpt>
      <trkpt lat="42.47304" lon="2.23897">
        <ele>1613.71</ele>
        <time>2016-06-29T11:47:31Z</time>
      </trkpt>
      <trkpt lat="42.47295" lon="2.23896">
        <ele>1615.15</ele>
        <time>2016-06-29T11:47:37Z</time>
      </trkpt>
      <trkpt lat="42.47282" lon="2.23895">
        <ele>1615.63</ele>
        <time>2016-06-29T11:47:43Z</time>
      </trkpt>
      <trkpt lat="42.47272" lon="2.23887">
        <ele>1616.59</ele>
        <time>2016-06-29T11:47:53Z</time>
      </trkpt>
      <trkpt lat="42.4726" lon="2.23881">
        <ele>1618.52</ele>
        <time>2016-06-29T11:48:04Z</time>
      </trkpt>
      <trkpt lat="42.47257" lon="2.23881">
        <ele>1618.52</ele>
        <time>2016-06-29T11:48:06Z</time>
      </trkpt>
      <trkpt lat="42.47251" lon="2.23885">
        <ele>1619</ele>
        <time>2016-06-29T11:48:10Z</time>
      </trkpt>
      <trkpt lat="42.47249" lon="2.23886">
        <ele>1619</ele>
        <time>2016-06-29T11:48:11Z</time>
      </trkpt>
      <trkpt lat="42.47248" lon="2.23886">
        <ele>1619.48</ele>
        <time>2016-06-29T11:48:16Z</time>
      </trkpt>
      <trkpt lat="42.47248" lon="2.2388">
        <ele>1620.44</ele>
        <time>2016-06-29T11:48:22Z</time>
      </trkpt>
      <trkpt lat="42.4724" lon="2.23875">
        <ele>1620.44</ele>
        <time>2016-06-29T11:48:27Z</time>
      </trkpt>
      <trkpt lat="42.47237" lon="2.23874">
        <ele>1620.92</ele>
        <time>2016-06-29T11:48:29Z</time>
      </trkpt>
      <trkpt lat="42.47235" lon="2.23873">
        <ele>1620.92</ele>
        <time>2016-06-29T11:48:30Z</time>
      </trkpt>
      <trkpt lat="42.47236" lon="2.23867">
        <ele>1621.4</ele>
        <time>2016-06-29T11:48:37Z</time>
      </trkpt>
      <trkpt lat="42.47236" lon="2.23867">
        <ele>1621.88</ele>
        <time>2016-06-29T11:48:38Z</time>
      </trkpt>
      <trkpt lat="42.47262" lon="2.23868">
        <ele>1622.36</ele>
        <time>2016-06-29T11:48:47Z</time>
      </trkpt>
      <trkpt lat="42.47263" lon="2.23865">
        <ele>1622.84</ele>
        <time>2016-06-29T11:48:49Z</time>
      </trkpt>
      <trkpt lat="42.47258" lon="2.23859">
        <ele>1623.8</ele>
        <time>2016-06-29T11:48:59Z</time>
      </trkpt>
      <trkpt lat="42.47255" lon="2.2385">
        <ele>1625.73</ele>
        <time>2016-06-29T11:49:11Z</time>
      </trkpt>
      <trkpt lat="42.47253" lon="2.23846">
        <ele>1626.69</ele>
        <time>2016-06-29T11:49:16Z</time>
      </trkpt>
      <trkpt lat="42.47252" lon="2.23841">
        <ele>1627.65</ele>
        <time>2016-06-29T11:49:25Z</time>
      </trkpt>
      <trkpt lat="42.47245" lon="2.23831">
        <ele>1629.57</ele>
        <time>2016-06-29T11:49:36Z</time>
      </trkpt>
      <trkpt lat="42.4724" lon="2.23819">
        <ele>1631.49</ele>
        <time>2016-06-29T11:49:46Z</time>
      </trkpt>
      <trkpt lat="42.47241" lon="2.23813">
        <ele>1633.42</ele>
        <time>2016-06-29T11:50:02Z</time>
      </trkpt>
      <trkpt lat="42.47233" lon="2.23805">
        <ele>1634.86</ele>
        <time>2016-06-29T11:50:13Z</time>
      </trkpt>
      <trkpt lat="42.47228" lon="2.23804">
        <ele>1636.3</ele>
        <time>2016-06-29T11:50:18Z</time>
      </trkpt>
      <trkpt lat="42.47224" lon="2.23795">
        <ele>1637.26</ele>
        <time>2016-06-29T11:50:28Z</time>
      </trkpt>
      <trkpt lat="42.47225" lon="2.23791">
        <ele>1637.74</ele>
        <time>2016-06-29T11:50:35Z</time>
      </trkpt>
      <trkpt lat="42.47214" lon="2.23781">
        <ele>1642.07</ele>
        <time>2016-06-29T11:50:46Z</time>
      </trkpt>
      <trkpt lat="42.47213" lon="2.23778">
        <ele>1644.95</ele>
        <time>2016-06-29T11:50:51Z</time>
      </trkpt>
      <trkpt lat="42.47211" lon="2.23775">
        <ele>1644.47</ele>
        <time>2016-06-29T11:51:08Z</time>
      </trkpt>
      <trkpt lat="42.47212" lon="2.23772">
        <ele>1644.47</ele>
        <time>2016-06-29T11:51:21Z</time>
      </trkpt>
      <trkpt lat="42.47214" lon="2.23771">
        <ele>1644.47</ele>
        <time>2016-06-29T11:51:24Z</time>
      </trkpt>
      <trkpt lat="42.47215" lon="2.23766">
        <ele>1646.4</ele>
        <time>2016-06-29T11:51:36Z</time>
      </trkpt>
      <trkpt lat="42.47218" lon="2.23764">
        <ele>1648.32</ele>
        <time>2016-06-29T11:51:52Z</time>
      </trkpt>
      <trkpt lat="42.47221" lon="2.23763">
        <ele>1650.24</ele>
        <time>2016-06-29T11:52:05Z</time>
      </trkpt>
      <trkpt lat="42.47226" lon="2.23762">
        <ele>1652.64</ele>
        <time>2016-06-29T11:52:16Z</time>
      </trkpt>
      <trkpt lat="42.47226" lon="2.23759">
        <ele>1655.05</ele>
        <time>2016-06-29T11:52:28Z</time>
      </trkpt>
      <trkpt lat="42.47216" lon="2.23763">
        <ele>1655.53</ele>
        <time>2016-06-29T11:52:46Z</time>
      </trkpt>
      <trkpt lat="42.47218" lon="2.23763">
        <ele>1656.01</ele>
        <time>2016-06-29T11:52:55Z</time>
      </trkpt>
      <trkpt lat="42.47216" lon="2.23757">
        <ele>1657.45</ele>
        <time>2016-06-29T11:53:04Z</time>
      </trkpt>
      <trkpt lat="42.47219" lon="2.2375">
        <ele>1659.85</ele>
        <time>2016-06-29T11:53:16Z</time>
      </trkpt>
      <trkpt lat="42.4722" lon="2.23746">
        <ele>1663.22</ele>
        <time>2016-06-29T11:53:29Z</time>
      </trkpt>
      <trkpt lat="42.47219" lon="2.23743">
        <ele>1666.58</ele>
        <time>2016-06-29T11:53:36Z</time>
      </trkpt>
      <trkpt lat="42.47219" lon="2.2374">
        <ele>1667.06</ele>
        <time>2016-06-29T11:53:49Z</time>
      </trkpt>
      <trkpt lat="42.47219" lon="2.23736">
        <ele>1668.51</ele>
        <time>2016-06-29T11:54:15Z</time>
      </trkpt>
      <trkpt lat="42.47219" lon="2.23731">
        <ele>1668.99</ele>
        <time>2016-06-29T11:54:31Z</time>
      </trkpt>
      <trkpt lat="42.47218" lon="2.23728">
        <ele>1671.39</ele>
        <time>2016-06-29T11:54:43Z</time>
      </trkpt>
      <trkpt lat="42.47219" lon="2.23721">
        <ele>1673.79</ele>
        <time>2016-06-29T11:54:55Z</time>
      </trkpt>
      <trkpt lat="42.47214" lon="2.23716">
        <ele>1675.72</ele>
        <time>2016-06-29T11:55:06Z</time>
      </trkpt>
      <trkpt lat="42.47207" lon="2.23712">
        <ele>1676.68</ele>
        <time>2016-06-29T11:55:16Z</time>
      </trkpt>
      <trkpt lat="42.47204" lon="2.23711">
        <ele>1676.68</ele>
        <time>2016-06-29T11:55:20Z</time>
      </trkpt>
      <trkpt lat="42.47195" lon="2.23705">
        <ele>1677.16</ele>
        <time>2016-06-29T11:55:32Z</time>
      </trkpt>
      <trkpt lat="42.4719" lon="2.23701">
        <ele>1679.08</ele>
        <time>2016-06-29T11:55:43Z</time>
      </trkpt>
      <trkpt lat="42.47182" lon="2.23696">
        <ele>1680.52</ele>
        <time>2016-06-29T11:55:55Z</time>
      </trkpt>
      <trkpt lat="42.47176" lon="2.23696">
        <ele>1681.48</ele>
        <time>2016-06-29T11:56:03Z</time>
      </trkpt>
      <trkpt lat="42.47168" lon="2.23696">
        <ele>1681.48</ele>
        <time>2016-06-29T11:56:14Z</time>
      </trkpt>
      <trkpt lat="42.4716" lon="2.23694">
        <ele>1681.96</ele>
        <time>2016-06-29T11:56:25Z</time>
      </trkpt>
      <trkpt lat="42.47155" lon="2.23687">
        <ele>1684.85</ele>
        <time>2016-06-29T11:56:36Z</time>
      </trkpt>
      <trkpt lat="42.47153" lon="2.23686">
        <ele>1686.77</ele>
        <time>2016-06-29T11:56:47Z</time>
      </trkpt>
      <trkpt lat="42.4715" lon="2.23685">
        <ele>1689.17</ele>
        <time>2016-06-29T11:56:58Z</time>
      </trkpt>
      <trkpt lat="42.47145" lon="2.23682">
        <ele>1690.62</ele>
        <time>2016-06-29T11:57:11Z</time>
      </trkpt>
      <trkpt lat="42.47145" lon="2.23681">
        <ele>1692.06</ele>
        <time>2016-06-29T11:57:29Z</time>
      </trkpt>
      <trkpt lat="42.47137" lon="2.23676">
        <ele>1692.06</ele>
        <time>2016-06-29T11:57:41Z</time>
      </trkpt>
      <trkpt lat="42.47129" lon="2.23677">
        <ele>1692.06</ele>
        <time>2016-06-29T11:57:50Z</time>
      </trkpt>
      <trkpt lat="42.4712" lon="2.23674">
        <ele>1691.1</ele>
        <time>2016-06-29T11:57:59Z</time>
      </trkpt>
      <trkpt lat="42.47118" lon="2.23672">
        <ele>1691.1</ele>
        <time>2016-06-29T11:58:01Z</time>
      </trkpt>
      <trkpt lat="42.47114" lon="2.2367">
        <ele>1690.14</ele>
        <time>2016-06-29T11:58:05Z</time>
      </trkpt>
      <trkpt lat="42.47109" lon="2.23658">
        <ele>1690.14</ele>
        <time>2016-06-29T11:58:17Z</time>
      </trkpt>
      <trkpt lat="42.47105" lon="2.23651">
        <ele>1690.14</ele>
        <time>2016-06-29T11:58:28Z</time>
      </trkpt>
      <trkpt lat="42.47102" lon="2.23645">
        <ele>1690.14</ele>
        <time>2016-06-29T11:58:35Z</time>
      </trkpt>
      <trkpt lat="42.47092" lon="2.2364">
        <ele>1691.1</ele>
        <time>2016-06-29T11:58:46Z</time>
      </trkpt>
      <trkpt lat="42.4709" lon="2.23639">
        <ele>1691.1</ele>
        <time>2016-06-29T11:58:48Z</time>
      </trkpt>
      <trkpt lat="42.47087" lon="2.23637">
        <ele>1691.1</ele>
        <time>2016-06-29T11:58:52Z</time>
      </trkpt>
      <trkpt lat="42.47083" lon="2.23634">
        <ele>1691.58</ele>
        <time>2016-06-29T11:58:58Z</time>
      </trkpt>
      <trkpt lat="42.47078" lon="2.23629">
        <ele>1691.58</ele>
        <time>2016-06-29T11:59:05Z</time>
      </trkpt>
      <trkpt lat="42.47076" lon="2.2363">
        <ele>1692.54</ele>
        <time>2016-06-29T11:59:07Z</time>
      </trkpt>
      <trkpt lat="42.47073" lon="2.23628">
        <ele>1692.54</ele>
        <time>2016-06-29T11:59:10Z</time>
      </trkpt>
      <trkpt lat="42.47071" lon="2.23628">
        <ele>1693.02</ele>
        <time>2016-06-29T11:59:12Z</time>
      </trkpt>
      <trkpt lat="42.4707" lon="2.23624">
        <ele>1693.02</ele>
        <time>2016-06-29T11:59:15Z</time>
      </trkpt>
      <trkpt lat="42.47062" lon="2.2362">
        <ele>1693.98</ele>
        <time>2016-06-29T11:59:25Z</time>
      </trkpt>
      <trkpt lat="42.4706" lon="2.23618">
        <ele>1693.98</ele>
        <time>2016-06-29T11:59:29Z</time>
      </trkpt>
      <trkpt lat="42.47054" lon="2.23606">
        <ele>1695.42</ele>
        <time>2016-06-29T11:59:42Z</time>
      </trkpt>
      <trkpt lat="42.47052" lon="2.23599">
        <ele>1695.9</ele>
        <time>2016-06-29T11:59:51Z</time>
      </trkpt>
      <trkpt lat="42.47052" lon="2.23598">
        <ele>1695.9</ele>
        <time>2016-06-29T11:59:53Z</time>
      </trkpt>
      <trkpt lat="42.47049" lon="2.23589">
        <ele>1697.34</ele>
        <time>2016-06-29T12:00:05Z</time>
      </trkpt>
      <trkpt lat="42.47047" lon="2.23585">
        <ele>1697.83</ele>
        <time>2016-06-29T12:00:09Z</time>
      </trkpt>
      <trkpt lat="42.47041" lon="2.23582">
        <ele>1697.83</ele>
        <time>2016-06-29T12:00:14Z</time>
      </trkpt>
      <trkpt lat="42.47035" lon="2.23576">
        <ele>1697.83</ele>
        <time>2016-06-29T12:00:19Z</time>
      </trkpt>
      <trkpt lat="42.47035" lon="2.23569">
        <ele>1698.31</ele>
        <time>2016-06-29T12:00:28Z</time>
      </trkpt>
      <trkpt lat="42.47028" lon="2.23559">
        <ele>1700.23</ele>
        <time>2016-06-29T12:00:39Z</time>
      </trkpt>
      <trkpt lat="42.47026" lon="2.23557">
        <ele>1700.71</ele>
        <time>2016-06-29T12:00:41Z</time>
      </trkpt>
      <trkpt lat="42.47021" lon="2.23551">
        <ele>1701.67</ele>
        <time>2016-06-29T12:00:47Z</time>
      </trkpt>
      <trkpt lat="42.47012" lon="2.23545">
        <ele>1702.63</ele>
        <time>2016-06-29T12:00:57Z</time>
      </trkpt>
      <trkpt lat="42.4701" lon="2.23545">
        <ele>1702.63</ele>
        <time>2016-06-29T12:00:59Z</time>
      </trkpt>
      <trkpt lat="42.47008" lon="2.23545">
        <ele>1703.59</ele>
        <time>2016-06-29T12:01:01Z</time>
      </trkpt>
      <trkpt lat="42.47002" lon="2.2354">
        <ele>1705.04</ele>
        <time>2016-06-29T12:01:10Z</time>
      </trkpt>
      <trkpt lat="42.46992" lon="2.23534">
        <ele>1706</ele>
        <time>2016-06-29T12:01:20Z</time>
      </trkpt>
      <trkpt lat="42.4699" lon="2.23528">
        <ele>1706.96</ele>
        <time>2016-06-29T12:01:31Z</time>
      </trkpt>
      <trkpt lat="42.46988" lon="2.23526">
        <ele>1706.96</ele>
        <time>2016-06-29T12:01:47Z</time>
      </trkpt>
      <trkpt lat="42.46984" lon="2.23518">
        <ele>1706.96</ele>
        <time>2016-06-29T12:01:54Z</time>
      </trkpt>
      <trkpt lat="42.46976" lon="2.23507">
        <ele>1708.88</ele>
        <time>2016-06-29T12:02:06Z</time>
      </trkpt>
      <trkpt lat="42.46969" lon="2.23498">
        <ele>1710.32</ele>
        <time>2016-06-29T12:02:17Z</time>
      </trkpt>
      <trkpt lat="42.46964" lon="2.23493">
        <ele>1712.25</ele>
        <time>2016-06-29T12:02:28Z</time>
      </trkpt>
      <trkpt lat="42.46962" lon="2.23485">
        <ele>1713.69</ele>
        <time>2016-06-29T12:02:38Z</time>
      </trkpt>
      <trkpt lat="42.46957" lon="2.23473">
        <ele>1715.61</ele>
        <time>2016-06-29T12:02:51Z</time>
      </trkpt>
      <trkpt lat="42.46951" lon="2.23464">
        <ele>1717.53</ele>
        <time>2016-06-29T12:03:02Z</time>
      </trkpt>
      <trkpt lat="42.46947" lon="2.23459">
        <ele>1718.49</ele>
        <time>2016-06-29T12:03:13Z</time>
      </trkpt>
      <trkpt lat="42.46938" lon="2.2345">
        <ele>1720.9</ele>
        <time>2016-06-29T12:03:27Z</time>
      </trkpt>
      <trkpt lat="42.46932" lon="2.23443">
        <ele>1721.38</ele>
        <time>2016-06-29T12:03:36Z</time>
      </trkpt>
      <trkpt lat="42.46922" lon="2.2344">
        <ele>1721.86</ele>
        <time>2016-06-29T12:03:47Z</time>
      </trkpt>
      <trkpt lat="42.46911" lon="2.23435">
        <ele>1722.82</ele>
        <time>2016-06-29T12:04:00Z</time>
      </trkpt>
      <trkpt lat="42.46909" lon="2.23433">
        <ele>1722.82</ele>
        <time>2016-06-29T12:04:02Z</time>
      </trkpt>
      <trkpt lat="42.46903" lon="2.23425">
        <ele>1723.78</ele>
        <time>2016-06-29T12:04:13Z</time>
      </trkpt>
      <trkpt lat="42.46901" lon="2.23423">
        <ele>1724.74</ele>
        <time>2016-06-29T12:04:16Z</time>
      </trkpt>
      <trkpt lat="42.46895" lon="2.23418">
        <ele>1725.22</ele>
        <time>2016-06-29T12:04:25Z</time>
      </trkpt>
      <trkpt lat="42.46895" lon="2.23418">
        <ele>1725.22</ele>
        <time>2016-06-29T12:04:26Z</time>
      </trkpt>
      <trkpt lat="42.46889" lon="2.23413">
        <ele>1725.7</ele>
        <time>2016-06-29T12:04:33Z</time>
      </trkpt>
      <trkpt lat="42.46884" lon="2.23407">
        <ele>1725.7</ele>
        <time>2016-06-29T12:04:39Z</time>
      </trkpt>
      <trkpt lat="42.46884" lon="2.23404">
        <ele>1725.7</ele>
        <time>2016-06-29T12:04:41Z</time>
      </trkpt>
      <trkpt lat="42.46878" lon="2.23391">
        <ele>1726.18</ele>
        <time>2016-06-29T12:04:54Z</time>
      </trkpt>
      <trkpt lat="42.46874" lon="2.23385">
        <ele>1727.15</ele>
        <time>2016-06-29T12:05:01Z</time>
      </trkpt>
      <trkpt lat="42.46871" lon="2.23373">
        <ele>1727.63</ele>
        <time>2016-06-29T12:05:12Z</time>
      </trkpt>
      <trkpt lat="42.46871" lon="2.2336">
        <ele>1727.63</ele>
        <time>2016-06-29T12:05:25Z</time>
      </trkpt>
      <trkpt lat="42.46872" lon="2.2335">
        <ele>1728.11</ele>
        <time>2016-06-29T12:05:36Z</time>
      </trkpt>
      <trkpt lat="42.46873" lon="2.23338">
        <ele>1729.55</ele>
        <time>2016-06-29T12:05:47Z</time>
      </trkpt>
      <trkpt lat="42.4687" lon="2.23333">
        <ele>1729.55</ele>
        <time>2016-06-29T12:05:51Z</time>
      </trkpt>
      <trkpt lat="42.4687" lon="2.23329">
        <ele>1730.03</ele>
        <time>2016-06-29T12:05:54Z</time>
      </trkpt>
      <trkpt lat="42.46869" lon="2.23323">
        <ele>1730.51</ele>
        <time>2016-06-29T12:06:06Z</time>
      </trkpt>
      <trkpt lat="42.46868" lon="2.23321">
        <ele>1730.51</ele>
        <time>2016-06-29T12:06:16Z</time>
      </trkpt>
      <trkpt lat="42.46868" lon="2.23308">
        <ele>1730.99</ele>
        <time>2016-06-29T12:06:25Z</time>
      </trkpt>
      <trkpt lat="42.46865" lon="2.23304">
        <ele>1731.47</ele>
        <time>2016-06-29T12:06:29Z</time>
      </trkpt>
      <trkpt lat="42.46864" lon="2.23301">
        <ele>1731.47</ele>
        <time>2016-06-29T12:06:32Z</time>
      </trkpt>
      <trkpt lat="42.4686" lon="2.23301">
        <ele>1731.47</ele>
        <time>2016-06-29T12:06:37Z</time>
      </trkpt>
      <trkpt lat="42.46855" lon="2.23296">
        <ele>1730.03</ele>
        <time>2016-06-29T12:06:43Z</time>
      </trkpt>
      <trkpt lat="42.4685" lon="2.23294">
        <ele>1728.59</ele>
        <time>2016-06-29T12:06:47Z</time>
      </trkpt>
      <trkpt lat="42.46841" lon="2.23286">
        <ele>1727.63</ele>
        <time>2016-06-29T12:06:56Z</time>
      </trkpt>
      <trkpt lat="42.4684" lon="2.2328">
        <ele>1728.11</ele>
        <time>2016-06-29T12:07:01Z</time>
      </trkpt>
      <trkpt lat="42.46839" lon="2.23274">
        <ele>1728.11</ele>
        <time>2016-06-29T12:07:08Z</time>
      </trkpt>
      <trkpt lat="42.46837" lon="2.23272">
        <ele>1728.11</ele>
        <time>2016-06-29T12:07:10Z</time>
      </trkpt>
      <trkpt lat="42.46837" lon="2.23269">
        <ele>1728.11</ele>
        <time>2016-06-29T12:07:13Z</time>
      </trkpt>
      <trkpt lat="42.46831" lon="2.23262">
        <ele>1728.11</ele>
        <time>2016-06-29T12:07:20Z</time>
      </trkpt>
      <trkpt lat="42.46826" lon="2.23259">
        <ele>1729.07</ele>
        <time>2016-06-29T12:07:25Z</time>
      </trkpt>
      <trkpt lat="42.46824" lon="2.23254">
        <ele>1729.55</ele>
        <time>2016-06-29T12:07:39Z</time>
      </trkpt>
      <trkpt lat="42.46821" lon="2.23246">
        <ele>1729.55</ele>
        <time>2016-06-29T12:07:46Z</time>
      </trkpt>
      <trkpt lat="42.46819" lon="2.23237">
        <ele>1727.63</ele>
        <time>2016-06-29T12:07:58Z</time>
      </trkpt>
      <trkpt lat="42.46812" lon="2.2322">
        <ele>1725.7</ele>
        <time>2016-06-29T12:08:11Z</time>
      </trkpt>
      <trkpt lat="42.46812" lon="2.23219">
        <ele>1725.7</ele>
        <time>2016-06-29T12:08:12Z</time>
      </trkpt>
      <trkpt lat="42.4681" lon="2.23217">
        <ele>1725.7</ele>
        <time>2016-06-29T12:08:14Z</time>
      </trkpt>
      <trkpt lat="42.46808" lon="2.23207">
        <ele>1725.7</ele>
        <time>2016-06-29T12:08:21Z</time>
      </trkpt>
      <trkpt lat="42.46809" lon="2.23204">
        <ele>1725.7</ele>
        <time>2016-06-29T12:08:23Z</time>
      </trkpt>
      <trkpt lat="42.4681" lon="2.23191">
        <ele>1725.7</ele>
        <time>2016-06-29T12:08:35Z</time>
      </trkpt>
      <trkpt lat="42.46809" lon="2.2319">
        <ele>1725.7</ele>
        <time>2016-06-29T12:08:37Z</time>
      </trkpt>
      <trkpt lat="42.46808" lon="2.23188">
        <ele>1726.67</ele>
        <time>2016-06-29T12:08:39Z</time>
      </trkpt>
      <trkpt lat="42.46807" lon="2.23184">
        <ele>1727.15</ele>
        <time>2016-06-29T12:08:42Z</time>
      </trkpt>
      <trkpt lat="42.46805" lon="2.2318">
        <ele>1727.15</ele>
        <time>2016-06-29T12:08:45Z</time>
      </trkpt>
      <trkpt lat="42.46801" lon="2.23177">
        <ele>1727.63</ele>
        <time>2016-06-29T12:08:49Z</time>
      </trkpt>
      <trkpt lat="42.46797" lon="2.23172">
        <ele>1728.11</ele>
        <time>2016-06-29T12:08:54Z</time>
      </trkpt>
      <trkpt lat="42.46799" lon="2.23169">
        <ele>1728.11</ele>
        <time>2016-06-29T12:08:56Z</time>
      </trkpt>
      <trkpt lat="42.46796" lon="2.23156">
        <ele>1729.07</ele>
        <time>2016-06-29T12:09:05Z</time>
      </trkpt>
      <trkpt lat="42.46793" lon="2.23152">
        <ele>1729.55</ele>
        <time>2016-06-29T12:09:10Z</time>
      </trkpt>
      <trkpt lat="42.4679" lon="2.23144">
        <ele>1730.51</ele>
        <time>2016-06-29T12:09:20Z</time>
      </trkpt>
      <trkpt lat="42.46787" lon="2.2314">
        <ele>1730.99</ele>
        <time>2016-06-29T12:09:24Z</time>
      </trkpt>
      <trkpt lat="42.46779" lon="2.23133">
        <ele>1732.43</ele>
        <time>2016-06-29T12:09:35Z</time>
      </trkpt>
      <trkpt lat="42.46778" lon="2.23132">
        <ele>1732.43</ele>
        <time>2016-06-29T12:09:36Z</time>
      </trkpt>
      <trkpt lat="42.4677" lon="2.23124">
        <ele>1732.91</ele>
        <time>2016-06-29T12:09:48Z</time>
      </trkpt>
      <trkpt lat="42.46769" lon="2.23123">
        <ele>1732.91</ele>
        <time>2016-06-29T12:09:50Z</time>
      </trkpt>
      <trkpt lat="42.46765" lon="2.23114">
        <ele>1732.91</ele>
        <time>2016-06-29T12:09:58Z</time>
      </trkpt>
      <trkpt lat="42.46765" lon="2.23109">
        <ele>1733.39</ele>
        <time>2016-06-29T12:10:02Z</time>
      </trkpt>
      <trkpt lat="42.46763" lon="2.23098">
        <ele>1733.88</ele>
        <time>2016-06-29T12:10:13Z</time>
      </trkpt>
      <trkpt lat="42.46761" lon="2.23086">
        <ele>1735.8</ele>
        <time>2016-06-29T12:10:26Z</time>
      </trkpt>
      <trkpt lat="42.46759" lon="2.23076">
        <ele>1737.24</ele>
        <time>2016-06-29T12:10:37Z</time>
      </trkpt>
      <trkpt lat="42.46759" lon="2.23067">
        <ele>1739.16</ele>
        <time>2016-06-29T12:10:49Z</time>
      </trkpt>
      <trkpt lat="42.46756" lon="2.23065">
        <ele>1740.12</ele>
        <time>2016-06-29T12:10:58Z</time>
      </trkpt>
      <trkpt lat="42.46753" lon="2.2306">
        <ele>1740.6</ele>
        <time>2016-06-29T12:11:09Z</time>
      </trkpt>
      <trkpt lat="42.46752" lon="2.23057">
        <ele>1741.08</ele>
        <time>2016-06-29T12:11:37Z</time>
      </trkpt>
      <trkpt lat="42.46753" lon="2.23051">
        <ele>1742.05</ele>
        <time>2016-06-29T12:11:44Z</time>
      </trkpt>
      <trkpt lat="42.46751" lon="2.23048">
        <ele>1742.53</ele>
        <time>2016-06-29T12:11:48Z</time>
      </trkpt>
      <trkpt lat="42.46741" lon="2.23039">
        <ele>1743.49</ele>
        <time>2016-06-29T12:12:00Z</time>
      </trkpt>
      <trkpt lat="42.46734" lon="2.2303">
        <ele>1744.45</ele>
        <time>2016-06-29T12:12:12Z</time>
      </trkpt>
      <trkpt lat="42.46731" lon="2.23025">
        <ele>1745.89</ele>
        <time>2016-06-29T12:12:26Z</time>
      </trkpt>
      <trkpt lat="42.46729" lon="2.23022">
        <ele>1747.33</ele>
        <time>2016-06-29T12:12:43Z</time>
      </trkpt>
      <trkpt lat="42.46726" lon="2.23014">
        <ele>1749.74</ele>
        <time>2016-06-29T12:12:54Z</time>
      </trkpt>
      <trkpt lat="42.4672" lon="2.23009">
        <ele>1751.18</ele>
        <time>2016-06-29T12:13:06Z</time>
      </trkpt>
      <trkpt lat="42.46717" lon="2.23004">
        <ele>1753.1</ele>
        <time>2016-06-29T12:13:18Z</time>
      </trkpt>
      <trkpt lat="42.46714" lon="2.23001">
        <ele>1753.58</ele>
        <time>2016-06-29T12:13:25Z</time>
      </trkpt>
      <trkpt lat="42.46705" lon="2.22993">
        <ele>1754.06</ele>
        <time>2016-06-29T12:13:36Z</time>
      </trkpt>
      <trkpt lat="42.46702" lon="2.22988">
        <ele>1754.54</ele>
        <time>2016-06-29T12:13:41Z</time>
      </trkpt>
      <trkpt lat="42.46699" lon="2.2298">
        <ele>1755.02</ele>
        <time>2016-06-29T12:13:47Z</time>
      </trkpt>
      <trkpt lat="42.46698" lon="2.22974">
        <ele>1755.02</ele>
        <time>2016-06-29T12:13:53Z</time>
      </trkpt>
      <trkpt lat="42.46696" lon="2.22962">
        <ele>1755.99</ele>
        <time>2016-06-29T12:14:04Z</time>
      </trkpt>
      <trkpt lat="42.46695" lon="2.22961">
        <ele>1755.99</ele>
        <time>2016-06-29T12:14:05Z</time>
      </trkpt>
      <trkpt lat="42.4669" lon="2.2295">
        <ele>1756.47</ele>
        <time>2016-06-29T12:14:14Z</time>
      </trkpt>
      <trkpt lat="42.46691" lon="2.22947">
        <ele>1756.95</ele>
        <time>2016-06-29T12:14:17Z</time>
      </trkpt>
      <trkpt lat="42.46687" lon="2.22937">
        <ele>1758.39</ele>
        <time>2016-06-29T12:14:26Z</time>
      </trkpt>
      <trkpt lat="42.46688" lon="2.22935">
        <ele>1758.39</ele>
        <time>2016-06-29T12:14:28Z</time>
      </trkpt>
      <trkpt lat="42.46689" lon="2.22931">
        <ele>1759.35</ele>
        <time>2016-06-29T12:14:38Z</time>
      </trkpt>
      <trkpt lat="42.46683" lon="2.22917">
        <ele>1760.79</ele>
        <time>2016-06-29T12:14:52Z</time>
      </trkpt>
      <trkpt lat="42.46677" lon="2.22905">
        <ele>1762.71</ele>
        <time>2016-06-29T12:15:04Z</time>
      </trkpt>
      <trkpt lat="42.46672" lon="2.22896">
        <ele>1764.64</ele>
        <time>2016-06-29T12:15:14Z</time>
      </trkpt>
      <trkpt lat="42.46669" lon="2.22895">
        <ele>1766.08</ele>
        <time>2016-06-29T12:15:25Z</time>
      </trkpt>
      <trkpt lat="42.46669" lon="2.22884">
        <ele>1768</ele>
        <time>2016-06-29T12:15:37Z</time>
      </trkpt>
      <trkpt lat="42.46665" lon="2.22875">
        <ele>1768</ele>
        <time>2016-06-29T12:15:44Z</time>
      </trkpt>
      <trkpt lat="42.46665" lon="2.22869">
        <ele>1768.48</ele>
        <time>2016-06-29T12:15:49Z</time>
      </trkpt>
      <trkpt lat="42.46663" lon="2.22857">
        <ele>1768.96</ele>
        <time>2016-06-29T12:16:01Z</time>
      </trkpt>
      <trkpt lat="42.46659" lon="2.22849">
        <ele>1769.92</ele>
        <time>2016-06-29T12:16:10Z</time>
      </trkpt>
      <trkpt lat="42.46653" lon="2.22843">
        <ele>1770.89</ele>
        <time>2016-06-29T12:16:19Z</time>
      </trkpt>
      <trkpt lat="42.46645" lon="2.22839">
        <ele>1771.85</ele>
        <time>2016-06-29T12:16:29Z</time>
      </trkpt>
      <trkpt lat="42.46643" lon="2.22831">
        <ele>1772.81</ele>
        <time>2016-06-29T12:16:39Z</time>
      </trkpt>
      <trkpt lat="42.46643" lon="2.22825">
        <ele>1774.25</ele>
        <time>2016-06-29T12:16:51Z</time>
      </trkpt>
      <trkpt lat="42.4664" lon="2.22816">
        <ele>1775.21</ele>
        <time>2016-06-29T12:17:01Z</time>
      </trkpt>
      <trkpt lat="42.4664" lon="2.22813">
        <ele>1775.69</ele>
        <time>2016-06-29T12:17:05Z</time>
      </trkpt>
      <trkpt lat="42.46639" lon="2.22811">
        <ele>1776.17</ele>
        <time>2016-06-29T12:17:07Z</time>
      </trkpt>
      <trkpt lat="42.46634" lon="2.22803">
        <ele>1777.13</ele>
        <time>2016-06-29T12:17:20Z</time>
      </trkpt>
      <trkpt lat="42.46633" lon="2.228">
        <ele>1778.1</ele>
        <time>2016-06-29T12:17:25Z</time>
      </trkpt>
      <trkpt lat="42.4663" lon="2.22793">
        <ele>1778.58</ele>
        <time>2016-06-29T12:17:32Z</time>
      </trkpt>
      <trkpt lat="42.46631" lon="2.22783">
        <ele>1780.02</ele>
        <time>2016-06-29T12:17:43Z</time>
      </trkpt>
      <trkpt lat="42.4663" lon="2.22782">
        <ele>1780.02</ele>
        <time>2016-06-29T12:17:45Z</time>
      </trkpt>
      <trkpt lat="42.46627" lon="2.22774">
        <ele>1781.46</ele>
        <time>2016-06-29T12:17:53Z</time>
      </trkpt>
      <trkpt lat="42.46625" lon="2.22771">
        <ele>1781.94</ele>
        <time>2016-06-29T12:17:56Z</time>
      </trkpt>
      <trkpt lat="42.4662" lon="2.22767">
        <ele>1782.42</ele>
        <time>2016-06-29T12:18:01Z</time>
      </trkpt>
      <trkpt lat="42.46612" lon="2.22755">
        <ele>1782.9</ele>
        <time>2016-06-29T12:18:12Z</time>
      </trkpt>
      <trkpt lat="42.46609" lon="2.22753">
        <ele>1783.38</ele>
        <time>2016-06-29T12:18:15Z</time>
      </trkpt>
      <trkpt lat="42.46602" lon="2.22741">
        <ele>1784.82</ele>
        <time>2016-06-29T12:18:29Z</time>
      </trkpt>
      <trkpt lat="42.46602" lon="2.2274">
        <ele>1785.31</ele>
        <time>2016-06-29T12:18:31Z</time>
      </trkpt>
      <trkpt lat="42.46601" lon="2.22738">
        <ele>1785.31</ele>
        <time>2016-06-29T12:18:33Z</time>
      </trkpt>
      <trkpt lat="42.46598" lon="2.22727">
        <ele>1785.79</ele>
        <time>2016-06-29T12:18:42Z</time>
      </trkpt>
      <trkpt lat="42.46599" lon="2.22721">
        <ele>1786.27</ele>
        <time>2016-06-29T12:18:48Z</time>
      </trkpt>
      <trkpt lat="42.46599" lon="2.22719">
        <ele>1787.23</ele>
        <time>2016-06-29T12:18:50Z</time>
      </trkpt>
      <trkpt lat="42.466" lon="2.22716">
        <ele>1787.23</ele>
        <time>2016-06-29T12:18:52Z</time>
      </trkpt>
      <trkpt lat="42.46601" lon="2.22712">
        <ele>1787.71</ele>
        <time>2016-06-29T12:18:56Z</time>
      </trkpt>
      <trkpt lat="42.46599" lon="2.22705">
        <ele>1788.67</ele>
        <time>2016-06-29T12:19:03Z</time>
      </trkpt>
      <trkpt lat="42.46596" lon="2.22701">
        <ele>1788.67</ele>
        <time>2016-06-29T12:19:08Z</time>
      </trkpt>
      <trkpt lat="42.46595" lon="2.22693">
        <ele>1788.67</ele>
        <time>2016-06-29T12:19:14Z</time>
      </trkpt>
      <trkpt lat="42.46595" lon="2.22691">
        <ele>1788.67</ele>
        <time>2016-06-29T12:19:16Z</time>
      </trkpt>
      <trkpt lat="42.46592" lon="2.22685">
        <ele>1789.15</ele>
        <time>2016-06-29T12:19:21Z</time>
      </trkpt>
      <trkpt lat="42.46588" lon="2.22679">
        <ele>1789.15</ele>
        <time>2016-06-29T12:19:28Z</time>
      </trkpt>
      <trkpt lat="42.46576" lon="2.22669">
        <ele>1790.11</ele>
        <time>2016-06-29T12:19:41Z</time>
      </trkpt>
      <trkpt lat="42.46568" lon="2.22667">
        <ele>1790.11</ele>
        <time>2016-06-29T12:19:48Z</time>
      </trkpt>
      <trkpt lat="42.46562" lon="2.22666">
        <ele>1790.11</ele>
        <time>2016-06-29T12:19:53Z</time>
      </trkpt>
      <trkpt lat="42.46558" lon="2.22663">
        <ele>1790.11</ele>
        <time>2016-06-29T12:19:56Z</time>
      </trkpt>
      <trkpt lat="42.46554" lon="2.2266">
        <ele>1790.11</ele>
        <time>2016-06-29T12:20:10Z</time>
      </trkpt>
      <trkpt lat="42.46553" lon="2.22657">
        <ele>1790.11</ele>
        <time>2016-06-29T12:20:15Z</time>
      </trkpt>
      <trkpt lat="42.4655" lon="2.22646">
        <ele>1792.03</ele>
        <time>2016-06-29T12:20:28Z</time>
      </trkpt>
      <trkpt lat="42.46551" lon="2.22641">
        <ele>1793.48</ele>
        <time>2016-06-29T12:20:36Z</time>
      </trkpt>
      <trkpt lat="42.46551" lon="2.22638">
        <ele>1795.88</ele>
        <time>2016-06-29T12:20:50Z</time>
      </trkpt>
      <trkpt lat="42.46549" lon="2.22636">
        <ele>1796.36</ele>
        <time>2016-06-29T12:21:00Z</time>
      </trkpt>
      <trkpt lat="42.46543" lon="2.22635">
        <ele>1797.32</ele>
        <time>2016-06-29T12:21:07Z</time>
      </trkpt>
      <trkpt lat="42.46539" lon="2.22634">
        <ele>1797.8</ele>
        <time>2016-06-29T12:21:11Z</time>
      </trkpt>
      <trkpt lat="42.46535" lon="2.22631">
        <ele>1797.8</ele>
        <time>2016-06-29T12:21:18Z</time>
      </trkpt>
      <trkpt lat="42.4653" lon="2.22626">
        <ele>1797.8</ele>
        <time>2016-06-29T12:21:26Z</time>
      </trkpt>
      <trkpt lat="42.46522" lon="2.2263">
        <ele>1797.8</ele>
        <time>2016-06-29T12:21:34Z</time>
      </trkpt>
      <trkpt lat="42.46518" lon="2.22626">
        <ele>1797.8</ele>
        <time>2016-06-29T12:21:40Z</time>
      </trkpt>
      <trkpt lat="42.46512" lon="2.2262">
        <ele>1796.84</ele>
        <time>2016-06-29T12:21:51Z</time>
      </trkpt>
      <trkpt lat="42.4651" lon="2.2262">
        <ele>1796.84</ele>
        <time>2016-06-29T12:21:53Z</time>
      </trkpt>
      <trkpt lat="42.46506" lon="2.22615">
        <ele>1797.8</ele>
        <time>2016-06-29T12:22:05Z</time>
      </trkpt>
      <trkpt lat="42.46503" lon="2.22611">
        <ele>1798.28</ele>
        <time>2016-06-29T12:22:09Z</time>
      </trkpt>
      <trkpt lat="42.46495" lon="2.22599">
        <ele>1799.24</ele>
        <time>2016-06-29T12:22:20Z</time>
      </trkpt>
      <trkpt lat="42.46491" lon="2.2259">
        <ele>1800.69</ele>
        <time>2016-06-29T12:22:26Z</time>
      </trkpt>
      <trkpt lat="42.4649" lon="2.22587">
        <ele>1800.69</ele>
        <time>2016-06-29T12:22:29Z</time>
      </trkpt>
      <trkpt lat="42.46492" lon="2.22576">
        <ele>1801.17</ele>
        <time>2016-06-29T12:22:36Z</time>
      </trkpt>
      <trkpt lat="42.46488" lon="2.22559">
        <ele>1802.61</ele>
        <time>2016-06-29T12:22:48Z</time>
      </trkpt>
      <trkpt lat="42.46488" lon="2.22553">
        <ele>1802.61</ele>
        <time>2016-06-29T12:22:52Z</time>
      </trkpt>
      <trkpt lat="42.46487" lon="2.22551">
        <ele>1803.09</ele>
        <time>2016-06-29T12:22:54Z</time>
      </trkpt>
      <trkpt lat="42.46484" lon="2.22535">
        <ele>1804.05</ele>
        <time>2016-06-29T12:23:04Z</time>
      </trkpt>
      <trkpt lat="42.46481" lon="2.22523">
        <ele>1804.53</ele>
        <time>2016-06-29T12:23:12Z</time>
      </trkpt>
      <trkpt lat="42.4648" lon="2.22512">
        <ele>1804.53</ele>
        <time>2016-06-29T12:23:18Z</time>
      </trkpt>
      <trkpt lat="42.46479" lon="2.22507">
        <ele>1804.53</ele>
        <time>2016-06-29T12:23:22Z</time>
      </trkpt>
      <trkpt lat="42.46477" lon="2.22483">
        <ele>1805.97</ele>
        <time>2016-06-29T12:23:37Z</time>
      </trkpt>
      <trkpt lat="42.46476" lon="2.22475">
        <ele>1805.97</ele>
        <time>2016-06-29T12:23:42Z</time>
      </trkpt>
      <trkpt lat="42.46472" lon="2.22462">
        <ele>1806.45</ele>
        <time>2016-06-29T12:23:51Z</time>
      </trkpt>
      <trkpt lat="42.46467" lon="2.22455">
        <ele>1806.94</ele>
        <time>2016-06-29T12:23:57Z</time>
      </trkpt>
      <trkpt lat="42.46466" lon="2.22447">
        <ele>1806.94</ele>
        <time>2016-06-29T12:24:03Z</time>
      </trkpt>
      <trkpt lat="42.46464" lon="2.22442">
        <ele>1807.42</ele>
        <time>2016-06-29T12:24:07Z</time>
      </trkpt>
      <trkpt lat="42.46464" lon="2.22438">
        <ele>1808.38</ele>
        <time>2016-06-29T12:24:10Z</time>
      </trkpt>
      <trkpt lat="42.46461" lon="2.22432">
        <ele>1808.38</ele>
        <time>2016-06-29T12:24:15Z</time>
      </trkpt>
      <trkpt lat="42.46455" lon="2.22417">
        <ele>1809.82</ele>
        <time>2016-06-29T12:24:27Z</time>
      </trkpt>
      <trkpt lat="42.46452" lon="2.2241">
        <ele>1810.3</ele>
        <time>2016-06-29T12:24:33Z</time>
      </trkpt>
      <trkpt lat="42.46452" lon="2.22399">
        <ele>1810.78</ele>
        <time>2016-06-29T12:24:45Z</time>
      </trkpt>
      <trkpt lat="42.46452" lon="2.22397">
        <ele>1810.78</ele>
        <time>2016-06-29T12:24:46Z</time>
      </trkpt>
      <trkpt lat="42.46456" lon="2.22388">
        <ele>1811.74</ele>
        <time>2016-06-29T12:25:00Z</time>
      </trkpt>
      <trkpt lat="42.46455" lon="2.22389">
        <ele>1812.22</ele>
        <time>2016-06-29T12:25:27Z</time>
      </trkpt>
      <trkpt lat="42.46454" lon="2.2239">
        <ele>1812.22</ele>
        <time>2016-06-29T12:25:38Z</time>
      </trkpt>
      <trkpt lat="42.4645" lon="2.22398">
        <ele>1812.22</ele>
        <time>2016-06-29T12:25:50Z</time>
      </trkpt>
      <trkpt lat="42.46449" lon="2.22397">
        <ele>1812.7</ele>
        <time>2016-06-29T12:26:11Z</time>
      </trkpt>
      <trkpt lat="42.4645" lon="2.22399">
        <ele>1812.7</ele>
        <time>2016-06-29T12:26:14Z</time>
      </trkpt>
      <trkpt lat="42.46449" lon="2.22408">
        <ele>1812.7</ele>
        <time>2016-06-29T12:26:25Z</time>
      </trkpt>
      <trkpt lat="42.46449" lon="2.22406">
        <ele>1812.7</ele>
        <time>2016-06-29T12:26:43Z</time>
      </trkpt>
      <trkpt lat="42.46451" lon="2.22404">
        <ele>1813.18</ele>
        <time>2016-06-29T12:27:03Z</time>
      </trkpt>
      <trkpt lat="42.46451" lon="2.22404">
        <ele>1813.18</ele>
        <time>2016-06-29T12:27:27Z</time>
      </trkpt>
      <trkpt lat="42.46451" lon="2.22404">
        <ele>1812.7</ele>
        <time>2016-06-29T12:27:58Z</time>
      </trkpt>
      <trkpt lat="42.46452" lon="2.22404">
        <ele>1812.7</ele>
        <time>2016-06-29T12:28:27Z</time>
      </trkpt>
      <trkpt lat="42.46446" lon="2.22405">
        <ele>1812.7</ele>
        <time>2016-06-29T12:28:38Z</time>
      </trkpt>
      <trkpt lat="42.46442" lon="2.22399">
        <ele>1812.7</ele>
        <time>2016-06-29T12:28:46Z</time>
      </trkpt>
      <trkpt lat="42.46441" lon="2.22397">
        <ele>1812.7</ele>
        <time>2016-06-29T12:28:48Z</time>
      </trkpt>
      <trkpt lat="42.4644" lon="2.2239">
        <ele>1814.15</ele>
        <time>2016-06-29T12:28:53Z</time>
      </trkpt>
      <trkpt lat="42.46435" lon="2.22382">
        <ele>1814.15</ele>
        <time>2016-06-29T12:29:08Z</time>
      </trkpt>
      <trkpt lat="42.46434" lon="2.22383">
        <ele>1815.11</ele>
        <time>2016-06-29T12:29:21Z</time>
      </trkpt>
      <trkpt lat="42.46427" lon="2.22391">
        <ele>1815.11</ele>
        <time>2016-06-29T12:29:34Z</time>
      </trkpt>
      <trkpt lat="42.46424" lon="2.22394">
        <ele>1813.66</ele>
        <time>2016-06-29T12:29:40Z</time>
      </trkpt>
      <trkpt lat="42.46421" lon="2.22393">
        <ele>1812.7</ele>
        <time>2016-06-29T12:29:56Z</time>
      </trkpt>
      <trkpt lat="42.46421" lon="2.22391">
        <ele>1812.22</ele>
        <time>2016-06-29T12:30:07Z</time>
      </trkpt>
      <trkpt lat="42.46422" lon="2.22386">
        <ele>1812.22</ele>
        <time>2016-06-29T12:30:21Z</time>
      </trkpt>
      <trkpt lat="42.46419" lon="2.22383">
        <ele>1812.22</ele>
        <time>2016-06-29T12:30:26Z</time>
      </trkpt>
      <trkpt lat="42.46414" lon="2.22381">
        <ele>1813.18</ele>
        <time>2016-06-29T12:30:33Z</time>
      </trkpt>
      <trkpt lat="42.46406" lon="2.22379">
        <ele>1813.18</ele>
        <time>2016-06-29T12:30:44Z</time>
      </trkpt>
      <trkpt lat="42.46401" lon="2.22385">
        <ele>1813.66</ele>
        <time>2016-06-29T12:30:56Z</time>
      </trkpt>
      <trkpt lat="42.46397" lon="2.22389">
        <ele>1814.63</ele>
        <time>2016-06-29T12:31:08Z</time>
      </trkpt>
      <trkpt lat="42.46394" lon="2.22386">
        <ele>1814.63</ele>
        <time>2016-06-29T12:31:21Z</time>
      </trkpt>
      <trkpt lat="42.46389" lon="2.22387">
        <ele>1815.11</ele>
        <time>2016-06-29T12:31:33Z</time>
      </trkpt>
      <trkpt lat="42.4639" lon="2.22389">
        <ele>1815.11</ele>
        <time>2016-06-29T12:31:45Z</time>
      </trkpt>
      <trkpt lat="42.4639" lon="2.22389">
        <ele>1815.11</ele>
        <time>2016-06-29T12:31:52Z</time>
      </trkpt>
      <trkpt lat="42.46388" lon="2.22391">
        <ele>1815.11</ele>
        <time>2016-06-29T12:32:05Z</time>
      </trkpt>
      <trkpt lat="42.46388" lon="2.2239">
        <ele>1815.11</ele>
        <time>2016-06-29T12:32:18Z</time>
      </trkpt>
      <trkpt lat="42.46388" lon="2.22389">
        <ele>1815.11</ele>
        <time>2016-06-29T12:32:42Z</time>
      </trkpt>
      <trkpt lat="42.46389" lon="2.22387">
        <ele>1815.11</ele>
        <time>2016-06-29T12:32:57Z</time>
      </trkpt>
      <trkpt lat="42.46389" lon="2.22386">
        <ele>1815.11</ele>
        <time>2016-06-29T12:33:17Z</time>
      </trkpt>
      <trkpt lat="42.46388" lon="2.22386">
        <ele>1815.11</ele>
        <time>2016-06-29T12:33:36Z</time>
      </trkpt>
      <trkpt lat="42.46388" lon="2.22386">
        <ele>1815.11</ele>
        <time>2016-06-29T12:33:52Z</time>
      </trkpt>
      <trkpt lat="42.46387" lon="2.22383">
        <ele>1815.11</ele>
        <time>2016-06-29T12:34:10Z</time>
      </trkpt>
      <trkpt lat="42.46387" lon="2.22381">
        <ele>1815.11</ele>
        <time>2016-06-29T12:34:16Z</time>
      </trkpt>
      <trkpt lat="42.46384" lon="2.2238">
        <ele>1816.07</ele>
        <time>2016-06-29T12:34:27Z</time>
      </trkpt>
      <trkpt lat="42.46377" lon="2.2238">
        <ele>1816.07</ele>
        <time>2016-06-29T12:34:37Z</time>
      </trkpt>
      <trkpt lat="42.46375" lon="2.22377">
        <ele>1816.07</ele>
        <time>2016-06-29T12:34:53Z</time>
      </trkpt>
      <trkpt lat="42.46371" lon="2.22375">
        <ele>1816.07</ele>
        <time>2016-06-29T12:35:05Z</time>
      </trkpt>
      <trkpt lat="42.4637" lon="2.22367">
        <ele>1816.55</ele>
        <time>2016-06-29T12:35:18Z</time>
      </trkpt>
      <trkpt lat="42.46365" lon="2.22359">
        <ele>1817.51</ele>
        <time>2016-06-29T12:35:27Z</time>
      </trkpt>
      <trkpt lat="42.46365" lon="2.22359">
        <ele>1817.51</ele>
        <time>2016-06-29T12:35:28Z</time>
      </trkpt>
      <trkpt lat="42.46355" lon="2.2236">
        <ele>1817.99</ele>
        <time>2016-06-29T12:35:39Z</time>
      </trkpt>
      <trkpt lat="42.4635" lon="2.22355">
        <ele>1818.47</ele>
        <time>2016-06-29T12:35:48Z</time>
      </trkpt>
      <trkpt lat="42.46345" lon="2.2235">
        <ele>1818.95</ele>
        <time>2016-06-29T12:35:55Z</time>
      </trkpt>
      <trkpt lat="42.46336" lon="2.2236">
        <ele>1819.43</ele>
        <time>2016-06-29T12:36:07Z</time>
      </trkpt>
      <trkpt lat="42.46333" lon="2.22371">
        <ele>1820.39</ele>
        <time>2016-06-29T12:36:18Z</time>
      </trkpt>
      <trkpt lat="42.46333" lon="2.22374">
        <ele>1820.39</ele>
        <time>2016-06-29T12:36:20Z</time>
      </trkpt>
      <trkpt lat="42.46333" lon="2.2238">
        <ele>1820.39</ele>
        <time>2016-06-29T12:36:24Z</time>
      </trkpt>
      <trkpt lat="42.46331" lon="2.22383">
        <ele>1820.39</ele>
        <time>2016-06-29T12:36:27Z</time>
      </trkpt>
      <trkpt lat="42.46329" lon="2.22384">
        <ele>1820.39</ele>
        <time>2016-06-29T12:36:29Z</time>
      </trkpt>
      <trkpt lat="42.46321" lon="2.22385">
        <ele>1820.39</ele>
        <time>2016-06-29T12:36:40Z</time>
      </trkpt>
      <trkpt lat="42.46317" lon="2.22383">
        <ele>1820.39</ele>
        <time>2016-06-29T12:36:51Z</time>
      </trkpt>
      <trkpt lat="42.46315" lon="2.22381">
        <ele>1821.35</ele>
        <time>2016-06-29T12:37:07Z</time>
      </trkpt>
      <trkpt lat="42.46312" lon="2.22379">
        <ele>1821.84</ele>
        <time>2016-06-29T12:37:24Z</time>
      </trkpt>
      <trkpt lat="42.46306" lon="2.22374">
        <ele>1822.32</ele>
        <time>2016-06-29T12:37:34Z</time>
      </trkpt>
      <trkpt lat="42.46304" lon="2.22362">
        <ele>1822.8</ele>
        <time>2016-06-29T12:37:48Z</time>
      </trkpt>
      <trkpt lat="42.46305" lon="2.22347">
        <ele>1823.28</ele>
        <time>2016-06-29T12:38:03Z</time>
      </trkpt>
      <trkpt lat="42.46299" lon="2.22346">
        <ele>1823.28</ele>
        <time>2016-06-29T12:38:20Z</time>
      </trkpt>
      <trkpt lat="42.46298" lon="2.22343">
        <ele>1823.28</ele>
        <time>2016-06-29T12:38:23Z</time>
      </trkpt>
      <trkpt lat="42.46292" lon="2.22334">
        <ele>1823.76</ele>
        <time>2016-06-29T12:38:35Z</time>
      </trkpt>
      <trkpt lat="42.46283" lon="2.22327">
        <ele>1824.72</ele>
        <time>2016-06-29T12:38:47Z</time>
      </trkpt>
      <trkpt lat="42.46278" lon="2.22322">
        <ele>1824.72</ele>
        <time>2016-06-29T12:38:58Z</time>
      </trkpt>
      <trkpt lat="42.46277" lon="2.22321">
        <ele>1824.72</ele>
        <time>2016-06-29T12:38:59Z</time>
      </trkpt>
      <trkpt lat="42.46268" lon="2.22319">
        <ele>1825.2</ele>
        <time>2016-06-29T12:39:12Z</time>
      </trkpt>
      <trkpt lat="42.46267" lon="2.22319">
        <ele>1825.68</ele>
        <time>2016-06-29T12:39:26Z</time>
      </trkpt>
      <trkpt lat="42.46265" lon="2.22311">
        <ele>1825.68</ele>
        <time>2016-06-29T12:39:40Z</time>
      </trkpt>
      <trkpt lat="42.46261" lon="2.22302">
        <ele>1826.16</ele>
        <time>2016-06-29T12:39:49Z</time>
      </trkpt>
      <trkpt lat="42.46257" lon="2.22298">
        <ele>1826.16</ele>
        <time>2016-06-29T12:40:06Z</time>
      </trkpt>
      <trkpt lat="42.46254" lon="2.22292">
        <ele>1826.64</ele>
        <time>2016-06-29T12:40:16Z</time>
      </trkpt>
      <trkpt lat="42.4625" lon="2.22288">
        <ele>1827.12</ele>
        <time>2016-06-29T12:40:32Z</time>
      </trkpt>
      <trkpt lat="42.46249" lon="2.22285">
        <ele>1828.08</ele>
        <time>2016-06-29T12:40:37Z</time>
      </trkpt>
      <trkpt lat="42.46243" lon="2.22278">
        <ele>1828.56</ele>
        <time>2016-06-29T12:40:50Z</time>
      </trkpt>
      <trkpt lat="42.46239" lon="2.22271">
        <ele>1829.05</ele>
        <time>2016-06-29T12:41:02Z</time>
      </trkpt>
      <trkpt lat="42.4624" lon="2.22266">
        <ele>1829.53</ele>
        <time>2016-06-29T12:41:20Z</time>
      </trkpt>
      <trkpt lat="42.46239" lon="2.22265">
        <ele>1830.01</ele>
        <time>2016-06-29T12:41:34Z</time>
      </trkpt>
      <trkpt lat="42.46238" lon="2.22265">
        <ele>1830.01</ele>
        <time>2016-06-29T12:41:55Z</time>
      </trkpt>
      <trkpt lat="42.46238" lon="2.22265">
        <ele>1830.49</ele>
        <time>2016-06-29T12:42:14Z</time>
      </trkpt>
      <trkpt lat="42.46237" lon="2.22264">
        <ele>1830.49</ele>
        <time>2016-06-29T12:42:43Z</time>
      </trkpt>
      <trkpt lat="42.46237" lon="2.22265">
        <ele>1830.49</ele>
        <time>2016-06-29T12:43:08Z</time>
      </trkpt>
      <trkpt lat="42.46237" lon="2.22264">
        <ele>1830.49</ele>
        <time>2016-06-29T12:43:26Z</time>
      </trkpt>
      <trkpt lat="42.46237" lon="2.22263">
        <ele>1830.97</ele>
        <time>2016-06-29T12:43:48Z</time>
      </trkpt>
      <trkpt lat="42.46238" lon="2.22262">
        <ele>1831.45</ele>
        <time>2016-06-29T12:44:16Z</time>
      </trkpt>
      <trkpt lat="42.46238" lon="2.22262">
        <ele>1831.45</ele>
        <time>2016-06-29T12:44:40Z</time>
      </trkpt>
      <trkpt lat="42.46238" lon="2.22261">
        <ele>1831.93</ele>
        <time>2016-06-29T12:45:09Z</time>
      </trkpt>
      <trkpt lat="42.46239" lon="2.22262">
        <ele>1832.41</ele>
        <time>2016-06-29T12:45:36Z</time>
      </trkpt>
      <trkpt lat="42.46239" lon="2.22261">
        <ele>1832.41</ele>
        <time>2016-06-29T12:46:00Z</time>
      </trkpt>
      <trkpt lat="42.46238" lon="2.22261">
        <ele>1832.89</ele>
        <time>2016-06-29T12:46:21Z</time>
      </trkpt>
      <trkpt lat="42.46237" lon="2.2226">
        <ele>1833.37</ele>
        <time>2016-06-29T12:46:49Z</time>
      </trkpt>
      <trkpt lat="42.46237" lon="2.2226">
        <ele>1833.37</ele>
        <time>2016-06-29T12:47:09Z</time>
      </trkpt>
      <trkpt lat="42.46238" lon="2.2226">
        <ele>1833.85</ele>
        <time>2016-06-29T12:47:31Z</time>
      </trkpt>
      <trkpt lat="42.46239" lon="2.2226">
        <ele>1833.85</ele>
        <time>2016-06-29T12:47:53Z</time>
      </trkpt>
      <trkpt lat="42.46239" lon="2.22261">
        <ele>1834.33</ele>
        <time>2016-06-29T12:48:20Z</time>
      </trkpt>
      <trkpt lat="42.46237" lon="2.22263">
        <ele>1834.33</ele>
        <time>2016-06-29T12:48:36Z</time>
      </trkpt>
      <trkpt lat="42.46237" lon="2.22264">
        <ele>1835.29</ele>
        <time>2016-06-29T12:48:58Z</time>
      </trkpt>
      <trkpt lat="42.46238" lon="2.22263">
        <ele>1835.29</ele>
        <time>2016-06-29T12:49:11Z</time>
      </trkpt>
      <trkpt lat="42.46237" lon="2.22256">
        <ele>1835.77</ele>
        <time>2016-06-29T12:49:23Z</time>
      </trkpt>
      <trkpt lat="42.46231" lon="2.22251">
        <ele>1836.74</ele>
        <time>2016-06-29T12:49:33Z</time>
      </trkpt>
      <trkpt lat="42.46229" lon="2.22246">
        <ele>1836.74</ele>
        <time>2016-06-29T12:49:38Z</time>
      </trkpt>
      <trkpt lat="42.46227" lon="2.22245">
        <ele>1836.74</ele>
        <time>2016-06-29T12:49:41Z</time>
      </trkpt>
      <trkpt lat="42.4622" lon="2.22236">
        <ele>1837.7</ele>
        <time>2016-06-29T12:49:53Z</time>
      </trkpt>
      <trkpt lat="42.46221" lon="2.22232">
        <ele>1837.7</ele>
        <time>2016-06-29T12:49:56Z</time>
      </trkpt>
      <trkpt lat="42.46223" lon="2.22221">
        <ele>1838.66</ele>
        <time>2016-06-29T12:50:08Z</time>
      </trkpt>
      <trkpt lat="42.46224" lon="2.22217">
        <ele>1839.62</ele>
        <time>2016-06-29T12:50:19Z</time>
      </trkpt>
      <trkpt lat="42.46228" lon="2.22215">
        <ele>1840.1</ele>
        <time>2016-06-29T12:50:31Z</time>
      </trkpt>
      <trkpt lat="42.46226" lon="2.22215">
        <ele>1840.1</ele>
        <time>2016-06-29T12:50:50Z</time>
      </trkpt>
      <trkpt lat="42.46226" lon="2.22215">
        <ele>1840.58</ele>
        <time>2016-06-29T12:51:17Z</time>
      </trkpt>
      <trkpt lat="42.46227" lon="2.22217">
        <ele>1840.58</ele>
        <time>2016-06-29T12:51:35Z</time>
      </trkpt>
      <trkpt lat="42.46227" lon="2.22216">
        <ele>1840.58</ele>
        <time>2016-06-29T12:51:59Z</time>
      </trkpt>
      <trkpt lat="42.46227" lon="2.22216">
        <ele>1841.06</ele>
        <time>2016-06-29T12:52:14Z</time>
      </trkpt>
      <trkpt lat="42.46228" lon="2.22216">
        <ele>1841.06</ele>
        <time>2016-06-29T12:52:40Z</time>
      </trkpt>
      <trkpt lat="42.46227" lon="2.22216">
        <ele>1841.06</ele>
        <time>2016-06-29T12:53:02Z</time>
      </trkpt>
      <trkpt lat="42.46224" lon="2.22217">
        <ele>1841.06</ele>
        <time>2016-06-29T12:53:12Z</time>
      </trkpt>
      <trkpt lat="42.46224" lon="2.22213">
        <ele>1842.02</ele>
        <time>2016-06-29T12:53:25Z</time>
      </trkpt>
      <trkpt lat="42.46225" lon="2.22212">
        <ele>1842.02</ele>
        <time>2016-06-29T12:53:51Z</time>
      </trkpt>
      <trkpt lat="42.46223" lon="2.22214">
        <ele>1842.5</ele>
        <time>2016-06-29T12:54:13Z</time>
      </trkpt>
      <trkpt lat="42.46216" lon="2.22207">
        <ele>1842.98</ele>
        <time>2016-06-29T12:54:26Z</time>
      </trkpt>
      <trkpt lat="42.46212" lon="2.22198">
        <ele>1842.98</ele>
        <time>2016-06-29T12:54:39Z</time>
      </trkpt>
      <trkpt lat="42.46212" lon="2.22191">
        <ele>1842.98</ele>
        <time>2016-06-29T12:54:50Z</time>
      </trkpt>
      <trkpt lat="42.46213" lon="2.22185">
        <ele>1843.47</ele>
        <time>2016-06-29T12:55:01Z</time>
      </trkpt>
      <trkpt lat="42.4621" lon="2.22181">
        <ele>1842.5</ele>
        <time>2016-06-29T12:55:16Z</time>
      </trkpt>
      <trkpt lat="42.46207" lon="2.22181">
        <ele>1842.5</ele>
        <time>2016-06-29T12:55:28Z</time>
      </trkpt>
      <trkpt lat="42.46206" lon="2.2218">
        <ele>1842.5</ele>
        <time>2016-06-29T12:55:35Z</time>
      </trkpt>
      <trkpt lat="42.46203" lon="2.22176">
        <ele>1842.98</ele>
        <time>2016-06-29T12:55:48Z</time>
      </trkpt>
      <trkpt lat="42.46202" lon="2.22176">
        <ele>1842.98</ele>
        <time>2016-06-29T12:55:57Z</time>
      </trkpt>
      <trkpt lat="42.46198" lon="2.22185">
        <ele>1842.98</ele>
        <time>2016-06-29T12:56:09Z</time>
      </trkpt>
      <trkpt lat="42.46196" lon="2.22181">
        <ele>1844.43</ele>
        <time>2016-06-29T12:56:15Z</time>
      </trkpt>
      <trkpt lat="42.46196" lon="2.22173">
        <ele>1844.43</ele>
        <time>2016-06-29T12:56:27Z</time>
      </trkpt>
      <trkpt lat="42.46194" lon="2.22171">
        <ele>1844.91</ele>
        <time>2016-06-29T12:56:46Z</time>
      </trkpt>
      <trkpt lat="42.46193" lon="2.22169">
        <ele>1844.91</ele>
        <time>2016-06-29T12:56:57Z</time>
      </trkpt>
      <trkpt lat="42.46193" lon="2.22169">
        <ele>1844.91</ele>
        <time>2016-06-29T12:57:01Z</time>
      </trkpt>
      <trkpt lat="42.46189" lon="2.22165">
        <ele>1844.91</ele>
        <time>2016-06-29T12:57:10Z</time>
      </trkpt>
      <trkpt lat="42.46185" lon="2.2216">
        <ele>1845.39</ele>
        <time>2016-06-29T12:57:22Z</time>
      </trkpt>
      <trkpt lat="42.46185" lon="2.22159">
        <ele>1845.39</ele>
        <time>2016-06-29T12:57:43Z</time>
      </trkpt>
      <trkpt lat="42.46183" lon="2.2216">
        <ele>1845.87</ele>
        <time>2016-06-29T12:58:00Z</time>
      </trkpt>
      <trkpt lat="42.46182" lon="2.22157">
        <ele>1846.35</ele>
        <time>2016-06-29T12:58:12Z</time>
      </trkpt>
      <trkpt lat="42.46179" lon="2.22158">
        <ele>1846.83</ele>
        <time>2016-06-29T12:58:28Z</time>
      </trkpt>
      <trkpt lat="42.46173" lon="2.22156">
        <ele>1847.79</ele>
        <time>2016-06-29T12:58:41Z</time>
      </trkpt>
      <trkpt lat="42.46169" lon="2.2215">
        <ele>1848.27</ele>
        <time>2016-06-29T12:58:50Z</time>
      </trkpt>
      <trkpt lat="42.46167" lon="2.22148">
        <ele>1849.23</ele>
        <time>2016-06-29T12:59:03Z</time>
      </trkpt>
      <trkpt lat="42.46164" lon="2.22139">
        <ele>1849.71</ele>
        <time>2016-06-29T12:59:15Z</time>
      </trkpt>
      <trkpt lat="42.46166" lon="2.22135">
        <ele>1850.19</ele>
        <time>2016-06-29T12:59:26Z</time>
      </trkpt>
      <trkpt lat="42.46166" lon="2.22134">
        <ele>1850.19</ele>
        <time>2016-06-29T12:59:37Z</time>
      </trkpt>
      <trkpt lat="42.46168" lon="2.22134">
        <ele>1850.19</ele>
        <time>2016-06-29T12:59:48Z</time>
      </trkpt>
      <trkpt lat="42.46168" lon="2.22134">
        <ele>1850.68</ele>
        <time>2016-06-29T13:00:00Z</time>
      </trkpt>
      <trkpt lat="42.46171" lon="2.22137">
        <ele>1849.23</ele>
        <time>2016-06-29T13:00:13Z</time>
      </trkpt>
      <trkpt lat="42.46173" lon="2.22136">
        <ele>1849.71</ele>
        <time>2016-06-29T13:00:24Z</time>
      </trkpt>
      <trkpt lat="42.46175" lon="2.22136">
        <ele>1849.71</ele>
        <time>2016-06-29T13:00:39Z</time>
      </trkpt>
      <trkpt lat="42.46175" lon="2.22135">
        <ele>1849.71</ele>
        <time>2016-06-29T13:00:52Z</time>
      </trkpt>
      <trkpt lat="42.46173" lon="2.22129">
        <ele>1849.71</ele>
        <time>2016-06-29T13:01:05Z</time>
      </trkpt>
      <trkpt lat="42.46172" lon="2.2213">
        <ele>1850.19</ele>
        <time>2016-06-29T13:01:24Z</time>
      </trkpt>
      <trkpt lat="42.46174" lon="2.22124">
        <ele>1850.19</ele>
        <time>2016-06-29T13:01:34Z</time>
      </trkpt>
      <trkpt lat="42.46178" lon="2.2212">
        <ele>1851.64</ele>
        <time>2016-06-29T13:01:48Z</time>
      </trkpt>
      <trkpt lat="42.4618" lon="2.22115">
        <ele>1852.6</ele>
        <time>2016-06-29T13:01:58Z</time>
      </trkpt>
      <trkpt lat="42.46183" lon="2.22108">
        <ele>1854.04</ele>
        <time>2016-06-29T13:02:08Z</time>
      </trkpt>
      <trkpt lat="42.46184" lon="2.22105">
        <ele>1855</ele>
        <time>2016-06-29T13:02:17Z</time>
      </trkpt>
      <trkpt lat="42.46185" lon="2.22102">
        <ele>1855.96</ele>
        <time>2016-06-29T13:02:39Z</time>
      </trkpt>
      <trkpt lat="42.46189" lon="2.22107">
        <ele>1856.44</ele>
        <time>2016-06-29T13:02:50Z</time>
      </trkpt>
      <trkpt lat="42.46192" lon="2.22108">
        <ele>1857.4</ele>
        <time>2016-06-29T13:02:59Z</time>
      </trkpt>
      <trkpt lat="42.46196" lon="2.22108">
        <ele>1857.89</ele>
        <time>2016-06-29T13:03:05Z</time>
      </trkpt>
      <trkpt lat="42.46205" lon="2.22116">
        <ele>1857.89</ele>
        <time>2016-06-29T13:03:18Z</time>
      </trkpt>
      <trkpt lat="42.46214" lon="2.22118">
        <ele>1857.89</ele>
        <time>2016-06-29T13:03:31Z</time>
      </trkpt>
      <trkpt lat="42.46217" lon="2.22116">
        <ele>1857.89</ele>
        <time>2016-06-29T13:03:48Z</time>
      </trkpt>
      <trkpt lat="42.46217" lon="2.22117">
        <ele>1856.92</ele>
        <time>2016-06-29T13:03:59Z</time>
      </trkpt>
      <trkpt lat="42.46216" lon="2.22116">
        <ele>1856.92</ele>
        <time>2016-06-29T13:04:20Z</time>
      </trkpt>
      <trkpt lat="42.46216" lon="2.22116">
        <ele>1856.92</ele>
        <time>2016-06-29T13:04:28Z</time>
      </trkpt>
    </trkseg>
  </trk>
  <trk>
    <name><![CDATA[Tracé actuel: 30 JUIN 2016 06:47]]></name>
    <trkseg>
      <trkpt lat="42.46392" lon="2.22435">
        <ele>1795.88</ele>
        <time>2016-06-30T04:47:47Z</time>
      </trkpt>
      <trkpt lat="42.46392" lon="2.22434">
        <ele>1795.88</ele>
        <time>2016-06-30T04:47:48Z</time>
      </trkpt>
      <trkpt lat="42.46394" lon="2.22426">
        <ele>1795.88</ele>
        <time>2016-06-30T04:48:19Z</time>
      </trkpt>
      <trkpt lat="42.46398" lon="2.22422">
        <ele>1795.88</ele>
        <time>2016-06-30T04:48:26Z</time>
      </trkpt>
      <trkpt lat="42.46404" lon="2.22406">
        <ele>1795.88</ele>
        <time>2016-06-30T04:48:34Z</time>
      </trkpt>
      <trkpt lat="42.46409" lon="2.2238">
        <ele>1795.88</ele>
        <time>2016-06-30T04:48:45Z</time>
      </trkpt>
      <trkpt lat="42.46423" lon="2.2235">
        <ele>1795.88</ele>
        <time>2016-06-30T04:48:51Z</time>
      </trkpt>
      <trkpt lat="42.46418" lon="2.22348">
        <ele>1796.84</ele>
        <time>2016-06-30T04:48:56Z</time>
      </trkpt>
      <trkpt lat="42.46414" lon="2.22346">
        <ele>1799.24</ele>
        <time>2016-06-30T04:49:01Z</time>
      </trkpt>
      <trkpt lat="42.46411" lon="2.22342">
        <ele>1804.05</ele>
        <time>2016-06-30T04:49:05Z</time>
      </trkpt>
      <trkpt lat="42.46409" lon="2.2234">
        <ele>1807.42</ele>
        <time>2016-06-30T04:49:08Z</time>
      </trkpt>
      <trkpt lat="42.46407" lon="2.22338">
        <ele>1809.34</ele>
        <time>2016-06-30T04:49:10Z</time>
      </trkpt>
      <trkpt lat="42.46404" lon="2.22335">
        <ele>1811.74</ele>
        <time>2016-06-30T04:49:13Z</time>
      </trkpt>
      <trkpt lat="42.46402" lon="2.22333">
        <ele>1815.59</ele>
        <time>2016-06-30T04:49:17Z</time>
      </trkpt>
      <trkpt lat="42.46396" lon="2.22328">
        <ele>1819.43</ele>
        <time>2016-06-30T04:49:24Z</time>
      </trkpt>
      <trkpt lat="42.46393" lon="2.22327">
        <ele>1820.87</ele>
        <time>2016-06-30T04:49:27Z</time>
      </trkpt>
      <trkpt lat="42.46386" lon="2.22331">
        <ele>1823.76</ele>
        <time>2016-06-30T04:49:34Z</time>
      </trkpt>
      <trkpt lat="42.46382" lon="2.22333">
        <ele>1825.68</ele>
        <time>2016-06-30T04:49:39Z</time>
      </trkpt>
      <trkpt lat="42.46377" lon="2.2234">
        <ele>1827.12</ele>
        <time>2016-06-30T04:49:46Z</time>
      </trkpt>
      <trkpt lat="42.46373" lon="2.22342">
        <ele>1828.08</ele>
        <time>2016-06-30T04:49:50Z</time>
      </trkpt>
      <trkpt lat="42.46364" lon="2.2234">
        <ele>1829.05</ele>
        <time>2016-06-30T04:49:58Z</time>
      </trkpt>
      <trkpt lat="42.4635" lon="2.22344">
        <ele>1830.97</ele>
        <time>2016-06-30T04:50:10Z</time>
      </trkpt>
      <trkpt lat="42.46349" lon="2.22344">
        <ele>1830.97</ele>
        <time>2016-06-30T04:50:11Z</time>
      </trkpt>
      <trkpt lat="42.46344" lon="2.22348">
        <ele>1830.97</ele>
        <time>2016-06-30T04:50:15Z</time>
      </trkpt>
      <trkpt lat="42.46333" lon="2.22359">
        <ele>1830.97</ele>
        <time>2016-06-30T04:50:27Z</time>
      </trkpt>
      <trkpt lat="42.4633" lon="2.22363">
        <ele>1830.97</ele>
        <time>2016-06-30T04:50:32Z</time>
      </trkpt>
      <trkpt lat="42.46329" lon="2.22365">
        <ele>1830.97</ele>
        <time>2016-06-30T04:50:34Z</time>
      </trkpt>
      <trkpt lat="42.46331" lon="2.2237">
        <ele>1830.97</ele>
        <time>2016-06-30T04:50:38Z</time>
      </trkpt>
      <trkpt lat="42.46331" lon="2.22377">
        <ele>1830.97</ele>
        <time>2016-06-30T04:50:42Z</time>
      </trkpt>
      <trkpt lat="42.46327" lon="2.22382">
        <ele>1830.97</ele>
        <time>2016-06-30T04:50:46Z</time>
      </trkpt>
      <trkpt lat="42.46325" lon="2.22382">
        <ele>1830.97</ele>
        <time>2016-06-30T04:50:48Z</time>
      </trkpt>
      <trkpt lat="42.46322" lon="2.22381">
        <ele>1830.97</ele>
        <time>2016-06-30T04:50:52Z</time>
      </trkpt>
      <trkpt lat="42.46312" lon="2.22386">
        <ele>1830.97</ele>
        <time>2016-06-30T04:51:05Z</time>
      </trkpt>
      <trkpt lat="42.46312" lon="2.22389">
        <ele>1831.93</ele>
        <time>2016-06-30T04:51:07Z</time>
      </trkpt>
      <trkpt lat="42.46309" lon="2.22401">
        <ele>1833.37</ele>
        <time>2016-06-30T04:51:16Z</time>
      </trkpt>
      <trkpt lat="42.46309" lon="2.22408">
        <ele>1837.22</ele>
        <time>2016-06-30T04:51:22Z</time>
      </trkpt>
      <trkpt lat="42.46309" lon="2.22418">
        <ele>1839.14</ele>
        <time>2016-06-30T04:51:34Z</time>
      </trkpt>
      <trkpt lat="42.46307" lon="2.22424">
        <ele>1839.14</ele>
        <time>2016-06-30T04:51:41Z</time>
      </trkpt>
      <trkpt lat="42.46305" lon="2.22428">
        <ele>1839.62</ele>
        <time>2016-06-30T04:51:44Z</time>
      </trkpt>
      <trkpt lat="42.463" lon="2.2244">
        <ele>1841.06</ele>
        <time>2016-06-30T04:51:55Z</time>
      </trkpt>
      <trkpt lat="42.46291" lon="2.22451">
        <ele>1842.98</ele>
        <time>2016-06-30T04:52:09Z</time>
      </trkpt>
      <trkpt lat="42.46291" lon="2.22452">
        <ele>1842.98</ele>
        <time>2016-06-30T04:52:10Z</time>
      </trkpt>
      <trkpt lat="42.46289" lon="2.22457">
        <ele>1843.47</ele>
        <time>2016-06-30T04:52:14Z</time>
      </trkpt>
      <trkpt lat="42.46285" lon="2.22465">
        <ele>1844.43</ele>
        <time>2016-06-30T04:52:22Z</time>
      </trkpt>
      <trkpt lat="42.46281" lon="2.22468">
        <ele>1845.87</ele>
        <time>2016-06-30T04:52:28Z</time>
      </trkpt>
      <trkpt lat="42.46278" lon="2.22482">
        <ele>1848.27</ele>
        <time>2016-06-30T04:52:41Z</time>
      </trkpt>
      <trkpt lat="42.46276" lon="2.2249">
        <ele>1849.71</ele>
        <time>2016-06-30T04:52:50Z</time>
      </trkpt>
      <trkpt lat="42.46275" lon="2.22496">
        <ele>1850.68</ele>
        <time>2016-06-30T04:52:56Z</time>
      </trkpt>
      <trkpt lat="42.46276" lon="2.225">
        <ele>1851.64</ele>
        <time>2016-06-30T04:53:00Z</time>
      </trkpt>
      <trkpt lat="42.46276" lon="2.22505">
        <ele>1852.12</ele>
        <time>2016-06-30T04:53:04Z</time>
      </trkpt>
      <trkpt lat="42.46278" lon="2.22514">
        <ele>1854.04</ele>
        <time>2016-06-30T04:53:15Z</time>
      </trkpt>
      <trkpt lat="42.46277" lon="2.22519">
        <ele>1855</ele>
        <time>2016-06-30T04:53:20Z</time>
      </trkpt>
      <trkpt lat="42.46277" lon="2.22524">
        <ele>1855.48</ele>
        <time>2016-06-30T04:53:25Z</time>
      </trkpt>
      <trkpt lat="42.46275" lon="2.22536">
        <ele>1857.89</ele>
        <time>2016-06-30T04:53:38Z</time>
      </trkpt>
      <trkpt lat="42.46276" lon="2.2254">
        <ele>1858.85</ele>
        <time>2016-06-30T04:53:52Z</time>
      </trkpt>
      <trkpt lat="42.46275" lon="2.22549">
        <ele>1859.33</ele>
        <time>2016-06-30T04:54:01Z</time>
      </trkpt>
      <trkpt lat="42.46273" lon="2.22557">
        <ele>1860.77</ele>
        <time>2016-06-30T04:54:11Z</time>
      </trkpt>
      <trkpt lat="42.46272" lon="2.22561">
        <ele>1861.73</ele>
        <time>2016-06-30T04:54:15Z</time>
      </trkpt>
      <trkpt lat="42.46269" lon="2.22568">
        <ele>1862.69</ele>
        <time>2016-06-30T04:54:25Z</time>
      </trkpt>
      <trkpt lat="42.46264" lon="2.22579">
        <ele>1865.09</ele>
        <time>2016-06-30T04:54:38Z</time>
      </trkpt>
      <trkpt lat="42.46265" lon="2.22581">
        <ele>1865.58</ele>
        <time>2016-06-30T04:54:40Z</time>
      </trkpt>
      <trkpt lat="42.46266" lon="2.22591">
        <ele>1867.5</ele>
        <time>2016-06-30T04:54:50Z</time>
      </trkpt>
      <trkpt lat="42.46264" lon="2.22598">
        <ele>1868.94</ele>
        <time>2016-06-30T04:55:01Z</time>
      </trkpt>
      <trkpt lat="42.46265" lon="2.22608">
        <ele>1870.86</ele>
        <time>2016-06-30T04:55:13Z</time>
      </trkpt>
      <trkpt lat="42.46263" lon="2.22616">
        <ele>1872.3</ele>
        <time>2016-06-30T04:55:25Z</time>
      </trkpt>
      <trkpt lat="42.46261" lon="2.2262">
        <ele>1872.79</ele>
        <time>2016-06-30T04:55:29Z</time>
      </trkpt>
      <trkpt lat="42.46261" lon="2.22629">
        <ele>1874.71</ele>
        <time>2016-06-30T04:55:37Z</time>
      </trkpt>
      <trkpt lat="42.46257" lon="2.22638">
        <ele>1876.63</ele>
        <time>2016-06-30T04:55:49Z</time>
      </trkpt>
      <trkpt lat="42.46254" lon="2.22645">
        <ele>1878.55</ele>
        <time>2016-06-30T04:55:59Z</time>
      </trkpt>
      <trkpt lat="42.46251" lon="2.22655">
        <ele>1880</ele>
        <time>2016-06-30T04:56:10Z</time>
      </trkpt>
      <trkpt lat="42.46249" lon="2.22666">
        <ele>1881.92</ele>
        <time>2016-06-30T04:56:22Z</time>
      </trkpt>
      <trkpt lat="42.46246" lon="2.22676">
        <ele>1883.84</ele>
        <time>2016-06-30T04:56:36Z</time>
      </trkpt>
      <trkpt lat="42.46246" lon="2.22684">
        <ele>1885.28</ele>
        <time>2016-06-30T04:56:43Z</time>
      </trkpt>
      <trkpt lat="42.46241" lon="2.22696">
        <ele>1885.76</ele>
        <time>2016-06-30T04:56:52Z</time>
      </trkpt>
      <trkpt lat="42.46242" lon="2.22699">
        <ele>1885.76</ele>
        <time>2016-06-30T04:56:55Z</time>
      </trkpt>
      <trkpt lat="42.46241" lon="2.22705">
        <ele>1886.24</ele>
        <time>2016-06-30T04:57:00Z</time>
      </trkpt>
      <trkpt lat="42.4624" lon="2.22708">
        <ele>1886.72</ele>
        <time>2016-06-30T04:57:02Z</time>
      </trkpt>
      <trkpt lat="42.46236" lon="2.22719">
        <ele>1888.17</ele>
        <time>2016-06-30T04:57:14Z</time>
      </trkpt>
      <trkpt lat="42.46235" lon="2.22729">
        <ele>1889.61</ele>
        <time>2016-06-30T04:57:25Z</time>
      </trkpt>
      <trkpt lat="42.46235" lon="2.2274">
        <ele>1891.53</ele>
        <time>2016-06-30T04:57:37Z</time>
      </trkpt>
      <trkpt lat="42.46235" lon="2.22744">
        <ele>1892.01</ele>
        <time>2016-06-30T04:57:40Z</time>
      </trkpt>
      <trkpt lat="42.46238" lon="2.2276">
        <ele>1894.42</ele>
        <time>2016-06-30T04:57:54Z</time>
      </trkpt>
      <trkpt lat="42.46242" lon="2.22771">
        <ele>1895.38</ele>
        <time>2016-06-30T04:58:06Z</time>
      </trkpt>
      <trkpt lat="42.46244" lon="2.22778">
        <ele>1895.86</ele>
        <time>2016-06-30T04:58:11Z</time>
      </trkpt>
      <trkpt lat="42.46244" lon="2.22781">
        <ele>1896.34</ele>
        <time>2016-06-30T04:58:14Z</time>
      </trkpt>
      <trkpt lat="42.46245" lon="2.22795">
        <ele>1896.82</ele>
        <time>2016-06-30T04:58:23Z</time>
      </trkpt>
      <trkpt lat="42.46246" lon="2.22797">
        <ele>1896.82</ele>
        <time>2016-06-30T04:58:25Z</time>
      </trkpt>
      <trkpt lat="42.46251" lon="2.22808">
        <ele>1897.78</ele>
        <time>2016-06-30T04:58:36Z</time>
      </trkpt>
      <trkpt lat="42.46239" lon="2.2282">
        <ele>1899.22</ele>
        <time>2016-06-30T04:58:51Z</time>
      </trkpt>
      <trkpt lat="42.46242" lon="2.22831">
        <ele>1901.14</ele>
        <time>2016-06-30T04:59:02Z</time>
      </trkpt>
      <trkpt lat="42.46242" lon="2.22833">
        <ele>1901.63</ele>
        <time>2016-06-30T04:59:04Z</time>
      </trkpt>
      <trkpt lat="42.46243" lon="2.22836">
        <ele>1904.03</ele>
        <time>2016-06-30T04:59:08Z</time>
      </trkpt>
      <trkpt lat="42.46244" lon="2.22841">
        <ele>1904.99</ele>
        <time>2016-06-30T04:59:12Z</time>
      </trkpt>
      <trkpt lat="42.46244" lon="2.22846">
        <ele>1904.99</ele>
        <time>2016-06-30T04:59:16Z</time>
      </trkpt>
      <trkpt lat="42.46244" lon="2.22851">
        <ele>1904.99</ele>
        <time>2016-06-30T04:59:20Z</time>
      </trkpt>
      <trkpt lat="42.46244" lon="2.22855">
        <ele>1904.99</ele>
        <time>2016-06-30T04:59:24Z</time>
      </trkpt>
      <trkpt lat="42.46247" lon="2.22863">
        <ele>1905.47</ele>
        <time>2016-06-30T04:59:30Z</time>
      </trkpt>
      <trkpt lat="42.46247" lon="2.22865">
        <ele>1905.47</ele>
        <time>2016-06-30T04:59:32Z</time>
      </trkpt>
      <trkpt lat="42.46249" lon="2.22871">
        <ele>1905.95</ele>
        <time>2016-06-30T04:59:36Z</time>
      </trkpt>
      <trkpt lat="42.46247" lon="2.22874">
        <ele>1905.95</ele>
        <time>2016-06-30T04:59:39Z</time>
      </trkpt>
      <trkpt lat="42.46246" lon="2.22876">
        <ele>1905.95</ele>
        <time>2016-06-30T04:59:41Z</time>
      </trkpt>
      <trkpt lat="42.4624" lon="2.22882">
        <ele>1907.39</ele>
        <time>2016-06-30T04:59:52Z</time>
      </trkpt>
      <trkpt lat="42.46234" lon="2.22886">
        <ele>1908.35</ele>
        <time>2016-06-30T05:00:00Z</time>
      </trkpt>
      <trkpt lat="42.46225" lon="2.22893">
        <ele>1909.8</ele>
        <time>2016-06-30T05:00:12Z</time>
      </trkpt>
      <trkpt lat="42.4622" lon="2.22896">
        <ele>1910.76</ele>
        <time>2016-06-30T05:00:22Z</time>
      </trkpt>
      <trkpt lat="42.46214" lon="2.22897">
        <ele>1911.72</ele>
        <time>2016-06-30T05:00:30Z</time>
      </trkpt>
      <trkpt lat="42.46204" lon="2.22907">
        <ele>1913.64</ele>
        <time>2016-06-30T05:00:43Z</time>
      </trkpt>
      <trkpt lat="42.462" lon="2.22911">
        <ele>1914.6</ele>
        <time>2016-06-30T05:00:51Z</time>
      </trkpt>
      <trkpt lat="42.46191" lon="2.22916">
        <ele>1915.56</ele>
        <time>2016-06-30T05:01:02Z</time>
      </trkpt>
      <trkpt lat="42.46186" lon="2.2292">
        <ele>1916.04</ele>
        <time>2016-06-30T05:01:09Z</time>
      </trkpt>
      <trkpt lat="42.4618" lon="2.22927">
        <ele>1917.49</ele>
        <time>2016-06-30T05:01:19Z</time>
      </trkpt>
      <trkpt lat="42.46179" lon="2.22927">
        <ele>1917.97</ele>
        <time>2016-06-30T05:01:20Z</time>
      </trkpt>
      <trkpt lat="42.46169" lon="2.22934">
        <ele>1918.93</ele>
        <time>2016-06-30T05:01:32Z</time>
      </trkpt>
      <trkpt lat="42.46166" lon="2.22936">
        <ele>1918.93</ele>
        <time>2016-06-30T05:01:35Z</time>
      </trkpt>
      <trkpt lat="42.46164" lon="2.22937">
        <ele>1919.41</ele>
        <time>2016-06-30T05:01:37Z</time>
      </trkpt>
      <trkpt lat="42.46154" lon="2.22946">
        <ele>1920.85</ele>
        <time>2016-06-30T05:01:49Z</time>
      </trkpt>
      <trkpt lat="42.46143" lon="2.22954">
        <ele>1921.81</ele>
        <time>2016-06-30T05:02:01Z</time>
      </trkpt>
      <trkpt lat="42.4614" lon="2.22958">
        <ele>1922.29</ele>
        <time>2016-06-30T05:02:14Z</time>
      </trkpt>
      <trkpt lat="42.46132" lon="2.22965">
        <ele>1923.25</ele>
        <time>2016-06-30T05:02:27Z</time>
      </trkpt>
      <trkpt lat="42.4613" lon="2.2297">
        <ele>1924.22</ele>
        <time>2016-06-30T05:02:40Z</time>
      </trkpt>
      <trkpt lat="42.46127" lon="2.2297">
        <ele>1924.22</ele>
        <time>2016-06-30T05:02:44Z</time>
      </trkpt>
      <trkpt lat="42.46115" lon="2.22975">
        <ele>1924.7</ele>
        <time>2016-06-30T05:02:56Z</time>
      </trkpt>
      <trkpt lat="42.46103" lon="2.22975">
        <ele>1925.18</ele>
        <time>2016-06-30T05:03:08Z</time>
      </trkpt>
      <trkpt lat="42.46092" lon="2.22976">
        <ele>1926.14</ele>
        <time>2016-06-30T05:03:18Z</time>
      </trkpt>
      <trkpt lat="42.46075" lon="2.22973">
        <ele>1927.1</ele>
        <time>2016-06-30T05:03:32Z</time>
      </trkpt>
      <trkpt lat="42.46073" lon="2.22973">
        <ele>1927.1</ele>
        <time>2016-06-30T05:03:34Z</time>
      </trkpt>
      <trkpt lat="42.46057" lon="2.22974">
        <ele>1928.06</ele>
        <time>2016-06-30T05:03:48Z</time>
      </trkpt>
      <trkpt lat="42.46045" lon="2.22977">
        <ele>1928.54</ele>
        <time>2016-06-30T05:03:59Z</time>
      </trkpt>
      <trkpt lat="42.46042" lon="2.22979">
        <ele>1928.54</ele>
        <time>2016-06-30T05:04:02Z</time>
      </trkpt>
      <trkpt lat="42.46029" lon="2.22983">
        <ele>1929.98</ele>
        <time>2016-06-30T05:04:14Z</time>
      </trkpt>
      <trkpt lat="42.46016" lon="2.22992">
        <ele>1930.95</ele>
        <time>2016-06-30T05:04:28Z</time>
      </trkpt>
      <trkpt lat="42.46015" lon="2.22993">
        <ele>1930.95</ele>
        <time>2016-06-30T05:04:29Z</time>
      </trkpt>
      <trkpt lat="42.46013" lon="2.22995">
        <ele>1930.95</ele>
        <time>2016-06-30T05:04:32Z</time>
      </trkpt>
      <trkpt lat="42.46002" lon="2.23007">
        <ele>1932.87</ele>
        <time>2016-06-30T05:04:46Z</time>
      </trkpt>
      <trkpt lat="42.46" lon="2.23008">
        <ele>1933.35</ele>
        <time>2016-06-30T05:04:49Z</time>
      </trkpt>
      <trkpt lat="42.45997" lon="2.2301">
        <ele>1933.35</ele>
        <time>2016-06-30T05:04:52Z</time>
      </trkpt>
      <trkpt lat="42.45992" lon="2.23014">
        <ele>1933.83</ele>
        <time>2016-06-30T05:04:58Z</time>
      </trkpt>
      <trkpt lat="42.45979" lon="2.23021">
        <ele>1935.27</ele>
        <time>2016-06-30T05:05:11Z</time>
      </trkpt>
      <trkpt lat="42.45969" lon="2.23029">
        <ele>1936.71</ele>
        <time>2016-06-30T05:05:23Z</time>
      </trkpt>
      <trkpt lat="42.45958" lon="2.23037">
        <ele>1938.16</ele>
        <time>2016-06-30T05:05:35Z</time>
      </trkpt>
      <trkpt lat="42.45957" lon="2.23037">
        <ele>1938.16</ele>
        <time>2016-06-30T05:05:37Z</time>
      </trkpt>
      <trkpt lat="42.45955" lon="2.23037">
        <ele>1938.64</ele>
        <time>2016-06-30T05:05:41Z</time>
      </trkpt>
      <trkpt lat="42.45943" lon="2.23044">
        <ele>1940.08</ele>
        <time>2016-06-30T05:05:54Z</time>
      </trkpt>
      <trkpt lat="42.45937" lon="2.23046">
        <ele>1940.56</ele>
        <time>2016-06-30T05:06:00Z</time>
      </trkpt>
      <trkpt lat="42.4593" lon="2.23061">
        <ele>1942.48</ele>
        <time>2016-06-30T05:06:13Z</time>
      </trkpt>
      <trkpt lat="42.45921" lon="2.23072">
        <ele>1943.44</ele>
        <time>2016-06-30T05:06:25Z</time>
      </trkpt>
      <trkpt lat="42.45914" lon="2.23082">
        <ele>1944.4</ele>
        <time>2016-06-30T05:06:35Z</time>
      </trkpt>
      <trkpt lat="42.45911" lon="2.23087">
        <ele>1944.4</ele>
        <time>2016-06-30T05:06:39Z</time>
      </trkpt>
      <trkpt lat="42.45911" lon="2.23091">
        <ele>1944.88</ele>
        <time>2016-06-30T05:06:42Z</time>
      </trkpt>
      <trkpt lat="42.4591" lon="2.23093">
        <ele>1944.88</ele>
        <time>2016-06-30T05:06:44Z</time>
      </trkpt>
      <trkpt lat="42.45909" lon="2.23095">
        <ele>1945.85</ele>
        <time>2016-06-30T05:06:46Z</time>
      </trkpt>
      <trkpt lat="42.459" lon="2.23106">
        <ele>1947.29</ele>
        <time>2016-06-30T05:06:58Z</time>
      </trkpt>
      <trkpt lat="42.4589" lon="2.23113">
        <ele>1947.77</ele>
        <time>2016-06-30T05:07:08Z</time>
      </trkpt>
      <trkpt lat="42.4589" lon="2.23113">
        <ele>1947.77</ele>
        <time>2016-06-30T05:07:09Z</time>
      </trkpt>
      <trkpt lat="42.45885" lon="2.23114">
        <ele>1948.25</ele>
        <time>2016-06-30T05:07:14Z</time>
      </trkpt>
      <trkpt lat="42.45875" lon="2.23115">
        <ele>1949.69</ele>
        <time>2016-06-30T05:07:26Z</time>
      </trkpt>
      <trkpt lat="42.45868" lon="2.23115">
        <ele>1951.61</ele>
        <time>2016-06-30T05:07:36Z</time>
      </trkpt>
      <trkpt lat="42.45866" lon="2.23115">
        <ele>1951.61</ele>
        <time>2016-06-30T05:07:38Z</time>
      </trkpt>
      <trkpt lat="42.45862" lon="2.23117">
        <ele>1952.57</ele>
        <time>2016-06-30T05:07:43Z</time>
      </trkpt>
      <trkpt lat="42.45859" lon="2.23118">
        <ele>1953.06</ele>
        <time>2016-06-30T05:07:46Z</time>
      </trkpt>
      <trkpt lat="42.45853" lon="2.23125">
        <ele>1954.5</ele>
        <time>2016-06-30T05:07:55Z</time>
      </trkpt>
      <trkpt lat="42.45845" lon="2.23138">
        <ele>1955.94</ele>
        <time>2016-06-30T05:08:08Z</time>
      </trkpt>
      <trkpt lat="42.45839" lon="2.23149">
        <ele>1956.9</ele>
        <time>2016-06-30T05:08:20Z</time>
      </trkpt>
      <trkpt lat="42.45831" lon="2.23162">
        <ele>1958.82</ele>
        <time>2016-06-30T05:08:34Z</time>
      </trkpt>
      <trkpt lat="42.45828" lon="2.23166">
        <ele>1960.27</ele>
        <time>2016-06-30T05:08:47Z</time>
      </trkpt>
      <trkpt lat="42.45828" lon="2.23167">
        <ele>1960.75</ele>
        <time>2016-06-30T05:09:14Z</time>
      </trkpt>
      <trkpt lat="42.45827" lon="2.23168">
        <ele>1960.75</ele>
        <time>2016-06-30T05:09:42Z</time>
      </trkpt>
      <trkpt lat="42.45828" lon="2.23167">
        <ele>1960.75</ele>
        <time>2016-06-30T05:10:06Z</time>
      </trkpt>
      <trkpt lat="42.45826" lon="2.23166">
        <ele>1961.23</ele>
        <time>2016-06-30T05:10:26Z</time>
      </trkpt>
      <trkpt lat="42.45823" lon="2.23166">
        <ele>1961.23</ele>
        <time>2016-06-30T05:10:30Z</time>
      </trkpt>
      <trkpt lat="42.4582" lon="2.23163">
        <ele>1961.23</ele>
        <time>2016-06-30T05:10:33Z</time>
      </trkpt>
      <trkpt lat="42.45807" lon="2.23162">
        <ele>1962.19</ele>
        <time>2016-06-30T05:10:46Z</time>
      </trkpt>
      <trkpt lat="42.45797" lon="2.2316">
        <ele>1963.15</ele>
        <time>2016-06-30T05:10:55Z</time>
      </trkpt>
      <trkpt lat="42.45784" lon="2.23161">
        <ele>1964.59</ele>
        <time>2016-06-30T05:11:10Z</time>
      </trkpt>
      <trkpt lat="42.45783" lon="2.23161">
        <ele>1965.07</ele>
        <time>2016-06-30T05:11:11Z</time>
      </trkpt>
      <trkpt lat="42.45779" lon="2.23163">
        <ele>1965.07</ele>
        <time>2016-06-30T05:11:15Z</time>
      </trkpt>
      <trkpt lat="42.45777" lon="2.23165">
        <ele>1965.55</ele>
        <time>2016-06-30T05:11:18Z</time>
      </trkpt>
      <trkpt lat="42.45765" lon="2.23175">
        <ele>1966.51</ele>
        <time>2016-06-30T05:11:32Z</time>
      </trkpt>
      <trkpt lat="42.45761" lon="2.2319">
        <ele>1966.51</ele>
        <time>2016-06-30T05:11:45Z</time>
      </trkpt>
      <trkpt lat="42.45759" lon="2.23194">
        <ele>1966.51</ele>
        <time>2016-06-30T05:11:48Z</time>
      </trkpt>
      <trkpt lat="42.45753" lon="2.23205">
        <ele>1966.99</ele>
        <time>2016-06-30T05:12:02Z</time>
      </trkpt>
      <trkpt lat="42.45746" lon="2.23206">
        <ele>1968.92</ele>
        <time>2016-06-30T05:12:11Z</time>
      </trkpt>
      <trkpt lat="42.45744" lon="2.23206">
        <ele>1968.92</ele>
        <time>2016-06-30T05:12:13Z</time>
      </trkpt>
      <trkpt lat="42.45737" lon="2.2321">
        <ele>1969.4</ele>
        <time>2016-06-30T05:12:25Z</time>
      </trkpt>
      <trkpt lat="42.45729" lon="2.23211">
        <ele>1970.36</ele>
        <time>2016-06-30T05:12:35Z</time>
      </trkpt>
      <trkpt lat="42.4572" lon="2.23209">
        <ele>1972.28</ele>
        <time>2016-06-30T05:12:46Z</time>
      </trkpt>
      <trkpt lat="42.45714" lon="2.2321">
        <ele>1974.69</ele>
        <time>2016-06-30T05:12:56Z</time>
      </trkpt>
      <trkpt lat="42.45707" lon="2.23217">
        <ele>1975.65</ele>
        <time>2016-06-30T05:13:07Z</time>
      </trkpt>
      <trkpt lat="42.45701" lon="2.23216">
        <ele>1975.65</ele>
        <time>2016-06-30T05:13:12Z</time>
      </trkpt>
      <trkpt lat="42.45696" lon="2.23219">
        <ele>1976.13</ele>
        <time>2016-06-30T05:13:17Z</time>
      </trkpt>
      <trkpt lat="42.45684" lon="2.23226">
        <ele>1977.09</ele>
        <time>2016-06-30T05:13:32Z</time>
      </trkpt>
      <trkpt lat="42.45679" lon="2.2323">
        <ele>1977.57</ele>
        <time>2016-06-30T05:13:41Z</time>
      </trkpt>
      <trkpt lat="42.45677" lon="2.23232">
        <ele>1978.53</ele>
        <time>2016-06-30T05:13:44Z</time>
      </trkpt>
      <trkpt lat="42.45672" lon="2.23236">
        <ele>1978.53</ele>
        <time>2016-06-30T05:13:55Z</time>
      </trkpt>
      <trkpt lat="42.45671" lon="2.23236">
        <ele>1978.53</ele>
        <time>2016-06-30T05:14:05Z</time>
      </trkpt>
      <trkpt lat="42.45672" lon="2.23234">
        <ele>1978.53</ele>
        <time>2016-06-30T05:14:09Z</time>
      </trkpt>
      <trkpt lat="42.45676" lon="2.23234">
        <ele>1978.53</ele>
        <time>2016-06-30T05:14:19Z</time>
      </trkpt>
      <trkpt lat="42.45677" lon="2.2324">
        <ele>1978.53</ele>
        <time>2016-06-30T05:14:31Z</time>
      </trkpt>
      <trkpt lat="42.45672" lon="2.23244">
        <ele>1979.01</ele>
        <time>2016-06-30T05:14:41Z</time>
      </trkpt>
      <trkpt lat="42.45668" lon="2.23246">
        <ele>1979.49</ele>
        <time>2016-06-30T05:14:48Z</time>
      </trkpt>
      <trkpt lat="42.45661" lon="2.23251">
        <ele>1979.97</ele>
        <time>2016-06-30T05:14:57Z</time>
      </trkpt>
      <trkpt lat="42.45655" lon="2.23258">
        <ele>1981.9</ele>
        <time>2016-06-30T05:15:09Z</time>
      </trkpt>
      <trkpt lat="42.45655" lon="2.23259">
        <ele>1982.38</ele>
        <time>2016-06-30T05:15:10Z</time>
      </trkpt>
      <trkpt lat="42.45649" lon="2.23269">
        <ele>1983.34</ele>
        <time>2016-06-30T05:15:22Z</time>
      </trkpt>
      <trkpt lat="42.45646" lon="2.23278">
        <ele>1984.78</ele>
        <time>2016-06-30T05:15:33Z</time>
      </trkpt>
      <trkpt lat="42.45646" lon="2.23287">
        <ele>1986.22</ele>
        <time>2016-06-30T05:15:45Z</time>
      </trkpt>
      <trkpt lat="42.45647" lon="2.23293">
        <ele>1987.18</ele>
        <time>2016-06-30T05:15:55Z</time>
      </trkpt>
      <trkpt lat="42.45645" lon="2.23295">
        <ele>1987.18</ele>
        <time>2016-06-30T05:15:58Z</time>
      </trkpt>
      <trkpt lat="42.45642" lon="2.23296">
        <ele>1988.62</ele>
        <time>2016-06-30T05:16:10Z</time>
      </trkpt>
      <trkpt lat="42.45642" lon="2.23297">
        <ele>1988.62</ele>
        <time>2016-06-30T05:16:33Z</time>
      </trkpt>
      <trkpt lat="42.45642" lon="2.23297">
        <ele>1989.1</ele>
        <time>2016-06-30T05:16:55Z</time>
      </trkpt>
      <trkpt lat="42.4564" lon="2.23299">
        <ele>1989.1</ele>
        <time>2016-06-30T05:17:19Z</time>
      </trkpt>
      <trkpt lat="42.45638" lon="2.23301">
        <ele>1989.1</ele>
        <time>2016-06-30T05:17:21Z</time>
      </trkpt>
      <trkpt lat="42.45635" lon="2.23302">
        <ele>1989.1</ele>
        <time>2016-06-30T05:17:25Z</time>
      </trkpt>
      <trkpt lat="42.45629" lon="2.2331">
        <ele>1990.55</ele>
        <time>2016-06-30T05:17:36Z</time>
      </trkpt>
      <trkpt lat="42.45628" lon="2.23311">
        <ele>1990.55</ele>
        <time>2016-06-30T05:17:37Z</time>
      </trkpt>
      <trkpt lat="42.45624" lon="2.23318">
        <ele>1991.99</ele>
        <time>2016-06-30T05:17:48Z</time>
      </trkpt>
      <trkpt lat="42.45617" lon="2.23328">
        <ele>1994.39</ele>
        <time>2016-06-30T05:18:00Z</time>
      </trkpt>
      <trkpt lat="42.45615" lon="2.23336">
        <ele>1995.83</ele>
        <time>2016-06-30T05:18:10Z</time>
      </trkpt>
      <trkpt lat="42.45609" lon="2.2335">
        <ele>1997.28</ele>
        <time>2016-06-30T05:18:23Z</time>
      </trkpt>
      <trkpt lat="42.45605" lon="2.23358">
        <ele>1997.76</ele>
        <time>2016-06-30T05:18:32Z</time>
      </trkpt>
      <trkpt lat="42.45605" lon="2.23367">
        <ele>1999.68</ele>
        <time>2016-06-30T05:18:44Z</time>
      </trkpt>
      <trkpt lat="42.45602" lon="2.23376">
        <ele>2001.12</ele>
        <time>2016-06-30T05:18:54Z</time>
      </trkpt>
      <trkpt lat="42.45601" lon="2.23377">
        <ele>2001.12</ele>
        <time>2016-06-30T05:18:56Z</time>
      </trkpt>
      <trkpt lat="42.45589" lon="2.2338">
        <ele>2003.04</ele>
        <time>2016-06-30T05:19:09Z</time>
      </trkpt>
      <trkpt lat="42.45578" lon="2.23379">
        <ele>2004.97</ele>
        <time>2016-06-30T05:19:22Z</time>
      </trkpt>
      <trkpt lat="42.45576" lon="2.23379">
        <ele>2004.97</ele>
        <time>2016-06-30T05:19:24Z</time>
      </trkpt>
      <trkpt lat="42.45568" lon="2.23375">
        <ele>2007.37</ele>
        <time>2016-06-30T05:19:36Z</time>
      </trkpt>
      <trkpt lat="42.45565" lon="2.23373">
        <ele>2007.85</ele>
        <time>2016-06-30T05:19:41Z</time>
      </trkpt>
      <trkpt lat="42.45555" lon="2.23372">
        <ele>2010.25</ele>
        <time>2016-06-30T05:19:54Z</time>
      </trkpt>
      <trkpt lat="42.45555" lon="2.23371">
        <ele>2011.22</ele>
        <time>2016-06-30T05:20:04Z</time>
      </trkpt>
      <trkpt lat="42.45553" lon="2.23371">
        <ele>2012.18</ele>
        <time>2016-06-30T05:20:16Z</time>
      </trkpt>
      <trkpt lat="42.45545" lon="2.23375">
        <ele>2013.62</ele>
        <time>2016-06-30T05:20:26Z</time>
      </trkpt>
      <trkpt lat="42.45535" lon="2.2338">
        <ele>2015.06</ele>
        <time>2016-06-30T05:20:39Z</time>
      </trkpt>
      <trkpt lat="42.4553" lon="2.2338">
        <ele>2016.5</ele>
        <time>2016-06-30T05:20:51Z</time>
      </trkpt>
      <trkpt lat="42.45523" lon="2.23381">
        <ele>2019.87</ele>
        <time>2016-06-30T05:21:04Z</time>
      </trkpt>
      <trkpt lat="42.45518" lon="2.23383">
        <ele>2023.23</ele>
        <time>2016-06-30T05:21:12Z</time>
      </trkpt>
      <trkpt lat="42.45512" lon="2.23391">
        <ele>2024.19</ele>
        <time>2016-06-30T05:21:23Z</time>
      </trkpt>
      <trkpt lat="42.45507" lon="2.23397">
        <ele>2024.67</ele>
        <time>2016-06-30T05:21:36Z</time>
      </trkpt>
      <trkpt lat="42.45509" lon="2.23397">
        <ele>2025.64</ele>
        <time>2016-06-30T05:21:53Z</time>
      </trkpt>
      <trkpt lat="42.45502" lon="2.23405">
        <ele>2026.6</ele>
        <time>2016-06-30T05:22:04Z</time>
      </trkpt>
      <trkpt lat="42.45496" lon="2.23415">
        <ele>2028.04</ele>
        <time>2016-06-30T05:22:14Z</time>
      </trkpt>
      <trkpt lat="42.45491" lon="2.23422">
        <ele>2029.96</ele>
        <time>2016-06-30T05:22:26Z</time>
      </trkpt>
      <trkpt lat="42.45484" lon="2.23429">
        <ele>2032.36</ele>
        <time>2016-06-30T05:22:39Z</time>
      </trkpt>
      <trkpt lat="42.45482" lon="2.23435">
        <ele>2033.81</ele>
        <time>2016-06-30T05:22:51Z</time>
      </trkpt>
      <trkpt lat="42.45486" lon="2.23438">
        <ele>2035.73</ele>
        <time>2016-06-30T05:23:02Z</time>
      </trkpt>
      <trkpt lat="42.45484" lon="2.23441">
        <ele>2037.17</ele>
        <time>2016-06-30T05:23:13Z</time>
      </trkpt>
      <trkpt lat="42.45479" lon="2.23446">
        <ele>2039.09</ele>
        <time>2016-06-30T05:23:24Z</time>
      </trkpt>
      <trkpt lat="42.45479" lon="2.23447">
        <ele>2040.05</ele>
        <time>2016-06-30T05:23:45Z</time>
      </trkpt>
      <trkpt lat="42.45478" lon="2.23444">
        <ele>2040.54</ele>
        <time>2016-06-30T05:24:09Z</time>
      </trkpt>
      <trkpt lat="42.45478" lon="2.23443">
        <ele>2040.54</ele>
        <time>2016-06-30T05:24:21Z</time>
      </trkpt>
      <trkpt lat="42.45477" lon="2.23444">
        <ele>2041.02</ele>
        <time>2016-06-30T05:24:33Z</time>
      </trkpt>
      <trkpt lat="42.45473" lon="2.23453">
        <ele>2041.98</ele>
        <time>2016-06-30T05:24:44Z</time>
      </trkpt>
      <trkpt lat="42.4547" lon="2.23459">
        <ele>2042.94</ele>
        <time>2016-06-30T05:24:53Z</time>
      </trkpt>
      <trkpt lat="42.45465" lon="2.23467">
        <ele>2044.86</ele>
        <time>2016-06-30T05:25:02Z</time>
      </trkpt>
      <trkpt lat="42.45458" lon="2.23476">
        <ele>2046.3</ele>
        <time>2016-06-30T05:25:13Z</time>
      </trkpt>
      <trkpt lat="42.45455" lon="2.23482">
        <ele>2046.78</ele>
        <time>2016-06-30T05:25:19Z</time>
      </trkpt>
      <trkpt lat="42.4545" lon="2.23494">
        <ele>2048.71</ele>
        <time>2016-06-30T05:25:32Z</time>
      </trkpt>
      <trkpt lat="42.4545" lon="2.23495">
        <ele>2048.71</ele>
        <time>2016-06-30T05:25:33Z</time>
      </trkpt>
      <trkpt lat="42.45445" lon="2.235">
        <ele>2049.67</ele>
        <time>2016-06-30T05:25:42Z</time>
      </trkpt>
      <trkpt lat="42.45437" lon="2.23511">
        <ele>2051.11</ele>
        <time>2016-06-30T05:25:55Z</time>
      </trkpt>
      <trkpt lat="42.45432" lon="2.23518">
        <ele>2052.55</ele>
        <time>2016-06-30T05:26:06Z</time>
      </trkpt>
      <trkpt lat="42.45429" lon="2.2352">
        <ele>2053.03</ele>
        <time>2016-06-30T05:26:10Z</time>
      </trkpt>
      <trkpt lat="42.45421" lon="2.23521">
        <ele>2055.44</ele>
        <time>2016-06-30T05:26:22Z</time>
      </trkpt>
      <trkpt lat="42.4542" lon="2.23529">
        <ele>2056.88</ele>
        <time>2016-06-30T05:26:34Z</time>
      </trkpt>
      <trkpt lat="42.45417" lon="2.23535">
        <ele>2058.32</ele>
        <time>2016-06-30T05:26:41Z</time>
      </trkpt>
      <trkpt lat="42.45413" lon="2.23542">
        <ele>2059.28</ele>
        <time>2016-06-30T05:26:50Z</time>
      </trkpt>
      <trkpt lat="42.45412" lon="2.23544">
        <ele>2059.76</ele>
        <time>2016-06-30T05:26:52Z</time>
      </trkpt>
      <trkpt lat="42.45405" lon="2.23547">
        <ele>2060.72</ele>
        <time>2016-06-30T05:27:01Z</time>
      </trkpt>
      <trkpt lat="42.45402" lon="2.23557">
        <ele>2061.68</ele>
        <time>2016-06-30T05:27:12Z</time>
      </trkpt>
      <trkpt lat="42.454" lon="2.23557">
        <ele>2062.17</ele>
        <time>2016-06-30T05:27:14Z</time>
      </trkpt>
      <trkpt lat="42.45397" lon="2.2356">
        <ele>2062.65</ele>
        <time>2016-06-30T05:27:19Z</time>
      </trkpt>
      <trkpt lat="42.45388" lon="2.23568">
        <ele>2064.09</ele>
        <time>2016-06-30T05:27:33Z</time>
      </trkpt>
      <trkpt lat="42.45386" lon="2.23566">
        <ele>2065.05</ele>
        <time>2016-06-30T05:27:37Z</time>
      </trkpt>
      <trkpt lat="42.45379" lon="2.23573">
        <ele>2066.01</ele>
        <time>2016-06-30T05:27:48Z</time>
      </trkpt>
      <trkpt lat="42.45373" lon="2.23578">
        <ele>2067.93</ele>
        <time>2016-06-30T05:27:59Z</time>
      </trkpt>
      <trkpt lat="42.45367" lon="2.23584">
        <ele>2069.38</ele>
        <time>2016-06-30T05:28:10Z</time>
      </trkpt>
      <trkpt lat="42.45366" lon="2.23585">
        <ele>2069.38</ele>
        <time>2016-06-30T05:28:12Z</time>
      </trkpt>
      <trkpt lat="42.45359" lon="2.23588">
        <ele>2069.86</ele>
        <time>2016-06-30T05:28:21Z</time>
      </trkpt>
      <trkpt lat="42.45354" lon="2.23595">
        <ele>2070.34</ele>
        <time>2016-06-30T05:28:28Z</time>
      </trkpt>
      <trkpt lat="42.45353" lon="2.236">
        <ele>2071.3</ele>
        <time>2016-06-30T05:28:33Z</time>
      </trkpt>
      <trkpt lat="42.45347" lon="2.23608">
        <ele>2072.74</ele>
        <time>2016-06-30T05:28:45Z</time>
      </trkpt>
      <trkpt lat="42.45343" lon="2.23615">
        <ele>2075.14</ele>
        <time>2016-06-30T05:28:55Z</time>
      </trkpt>
      <trkpt lat="42.45339" lon="2.23621">
        <ele>2077.07</ele>
        <time>2016-06-30T05:29:06Z</time>
      </trkpt>
      <trkpt lat="42.45329" lon="2.23631">
        <ele>2078.99</ele>
        <time>2016-06-30T05:29:21Z</time>
      </trkpt>
      <trkpt lat="42.45324" lon="2.23635">
        <ele>2079.95</ele>
        <time>2016-06-30T05:29:29Z</time>
      </trkpt>
      <trkpt lat="42.45314" lon="2.23642">
        <ele>2080.91</ele>
        <time>2016-06-30T05:29:40Z</time>
      </trkpt>
      <trkpt lat="42.4531" lon="2.23651">
        <ele>2082.35</ele>
        <time>2016-06-30T05:29:51Z</time>
      </trkpt>
      <trkpt lat="42.45304" lon="2.23655">
        <ele>2082.83</ele>
        <time>2016-06-30T05:30:00Z</time>
      </trkpt>
      <trkpt lat="42.45301" lon="2.2366">
        <ele>2084.28</ele>
        <time>2016-06-30T05:30:05Z</time>
      </trkpt>
      <trkpt lat="42.45299" lon="2.2367">
        <ele>2085.24</ele>
        <time>2016-06-30T05:30:14Z</time>
      </trkpt>
      <trkpt lat="42.45296" lon="2.23674">
        <ele>2085.72</ele>
        <time>2016-06-30T05:30:20Z</time>
      </trkpt>
      <trkpt lat="42.45292" lon="2.23687">
        <ele>2087.64</ele>
        <time>2016-06-30T05:30:33Z</time>
      </trkpt>
      <trkpt lat="42.45292" lon="2.237">
        <ele>2089.08</ele>
        <time>2016-06-30T05:30:46Z</time>
      </trkpt>
      <trkpt lat="42.45292" lon="2.237">
        <ele>2090.04</ele>
        <time>2016-06-30T05:30:47Z</time>
      </trkpt>
      <trkpt lat="42.45287" lon="2.23711">
        <ele>2091.49</ele>
        <time>2016-06-30T05:31:00Z</time>
      </trkpt>
      <trkpt lat="42.4528" lon="2.23721">
        <ele>2093.89</ele>
        <time>2016-06-30T05:31:13Z</time>
      </trkpt>
      <trkpt lat="42.4528" lon="2.23722">
        <ele>2093.89</ele>
        <time>2016-06-30T05:31:14Z</time>
      </trkpt>
      <trkpt lat="42.45275" lon="2.23724">
        <ele>2094.85</ele>
        <time>2016-06-30T05:31:18Z</time>
      </trkpt>
      <trkpt lat="42.45272" lon="2.23724">
        <ele>2095.33</ele>
        <time>2016-06-30T05:31:21Z</time>
      </trkpt>
      <trkpt lat="42.45264" lon="2.23726">
        <ele>2096.29</ele>
        <time>2016-06-30T05:31:30Z</time>
      </trkpt>
      <trkpt lat="42.45256" lon="2.23733">
        <ele>2097.25</ele>
        <time>2016-06-30T05:31:42Z</time>
      </trkpt>
      <trkpt lat="42.45254" lon="2.23735">
        <ele>2097.73</ele>
        <time>2016-06-30T05:31:45Z</time>
      </trkpt>
      <trkpt lat="42.45252" lon="2.23735">
        <ele>2097.73</ele>
        <time>2016-06-30T05:31:47Z</time>
      </trkpt>
      <trkpt lat="42.4525" lon="2.23737">
        <ele>2098.7</ele>
        <time>2016-06-30T05:31:49Z</time>
      </trkpt>
      <trkpt lat="42.45247" lon="2.23736">
        <ele>2098.7</ele>
        <time>2016-06-30T05:31:51Z</time>
      </trkpt>
      <trkpt lat="42.45245" lon="2.23737">
        <ele>2099.18</ele>
        <time>2016-06-30T05:31:53Z</time>
      </trkpt>
      <trkpt lat="42.45236" lon="2.23737">
        <ele>2100.62</ele>
        <time>2016-06-30T05:32:05Z</time>
      </trkpt>
      <trkpt lat="42.45231" lon="2.23738">
        <ele>2101.58</ele>
        <time>2016-06-30T05:32:13Z</time>
      </trkpt>
      <trkpt lat="42.45229" lon="2.23739">
        <ele>2102.06</ele>
        <time>2016-06-30T05:32:15Z</time>
      </trkpt>
      <trkpt lat="42.45223" lon="2.23744">
        <ele>2103.5</ele>
        <time>2016-06-30T05:32:27Z</time>
      </trkpt>
      <trkpt lat="42.45216" lon="2.23745">
        <ele>2105.42</ele>
        <time>2016-06-30T05:32:38Z</time>
      </trkpt>
      <trkpt lat="42.45212" lon="2.2375">
        <ele>2107.83</ele>
        <time>2016-06-30T05:32:46Z</time>
      </trkpt>
      <trkpt lat="42.45205" lon="2.2375">
        <ele>2111.19</ele>
        <time>2016-06-30T05:32:58Z</time>
      </trkpt>
      <trkpt lat="42.45202" lon="2.23754">
        <ele>2111.19</ele>
        <time>2016-06-30T05:33:08Z</time>
      </trkpt>
      <trkpt lat="42.45198" lon="2.23758">
        <ele>2111.67</ele>
        <time>2016-06-30T05:33:21Z</time>
      </trkpt>
      <trkpt lat="42.45197" lon="2.23759">
        <ele>2112.15</ele>
        <time>2016-06-30T05:33:44Z</time>
      </trkpt>
      <trkpt lat="42.45196" lon="2.2376">
        <ele>2112.15</ele>
        <time>2016-06-30T05:33:46Z</time>
      </trkpt>
      <trkpt lat="42.45194" lon="2.23761">
        <ele>2112.63</ele>
        <time>2016-06-30T05:33:49Z</time>
      </trkpt>
      <trkpt lat="42.45189" lon="2.2377">
        <ele>2114.08</ele>
        <time>2016-06-30T05:33:59Z</time>
      </trkpt>
      <trkpt lat="42.45187" lon="2.23771">
        <ele>2114.08</ele>
        <time>2016-06-30T05:34:01Z</time>
      </trkpt>
      <trkpt lat="42.45175" lon="2.23779">
        <ele>2115.52</ele>
        <time>2016-06-30T05:34:14Z</time>
      </trkpt>
      <trkpt lat="42.45171" lon="2.23787">
        <ele>2116.96</ele>
        <time>2016-06-30T05:34:25Z</time>
      </trkpt>
      <trkpt lat="42.45161" lon="2.23794">
        <ele>2117.92</ele>
        <time>2016-06-30T05:34:36Z</time>
      </trkpt>
      <trkpt lat="42.45154" lon="2.23799">
        <ele>2119.36</ele>
        <time>2016-06-30T05:34:47Z</time>
      </trkpt>
      <trkpt lat="42.45149" lon="2.23806">
        <ele>2120.81</ele>
        <time>2016-06-30T05:34:59Z</time>
      </trkpt>
      <trkpt lat="42.45147" lon="2.23807">
        <ele>2121.29</ele>
        <time>2016-06-30T05:35:03Z</time>
      </trkpt>
      <trkpt lat="42.45138" lon="2.23804">
        <ele>2121.77</ele>
        <time>2016-06-30T05:35:15Z</time>
      </trkpt>
      <trkpt lat="42.45133" lon="2.23807">
        <ele>2123.69</ele>
        <time>2016-06-30T05:35:28Z</time>
      </trkpt>
      <trkpt lat="42.4513" lon="2.23815">
        <ele>2125.13</ele>
        <time>2016-06-30T05:35:39Z</time>
      </trkpt>
      <trkpt lat="42.45122" lon="2.23821">
        <ele>2126.57</ele>
        <time>2016-06-30T05:35:51Z</time>
      </trkpt>
      <trkpt lat="42.45118" lon="2.23826">
        <ele>2127.53</ele>
        <time>2016-06-30T05:36:00Z</time>
      </trkpt>
      <trkpt lat="42.45109" lon="2.23827">
        <ele>2129.46</ele>
        <time>2016-06-30T05:36:11Z</time>
      </trkpt>
      <trkpt lat="42.45103" lon="2.2383">
        <ele>2131.86</ele>
        <time>2016-06-30T05:36:24Z</time>
      </trkpt>
      <trkpt lat="42.45103" lon="2.23834">
        <ele>2134.74</ele>
        <time>2016-06-30T05:36:32Z</time>
      </trkpt>
      <trkpt lat="42.45103" lon="2.23835">
        <ele>2135.71</ele>
        <time>2016-06-30T05:36:33Z</time>
      </trkpt>
      <trkpt lat="42.45101" lon="2.23837">
        <ele>2137.63</ele>
        <time>2016-06-30T05:36:47Z</time>
      </trkpt>
      <trkpt lat="42.45097" lon="2.2384">
        <ele>2138.11</ele>
        <time>2016-06-30T05:36:59Z</time>
      </trkpt>
      <trkpt lat="42.4509" lon="2.23841">
        <ele>2139.07</ele>
        <time>2016-06-30T05:37:12Z</time>
      </trkpt>
      <trkpt lat="42.45089" lon="2.23842">
        <ele>2140.03</ele>
        <time>2016-06-30T05:37:38Z</time>
      </trkpt>
      <trkpt lat="42.45085" lon="2.23844">
        <ele>2140.51</ele>
        <time>2016-06-30T05:37:52Z</time>
      </trkpt>
      <trkpt lat="42.4508" lon="2.23847">
        <ele>2141.95</ele>
        <time>2016-06-30T05:38:02Z</time>
      </trkpt>
      <trkpt lat="42.45084" lon="2.23849">
        <ele>2142.92</ele>
        <time>2016-06-30T05:38:11Z</time>
      </trkpt>
      <trkpt lat="42.45081" lon="2.23855">
        <ele>2145.32</ele>
        <time>2016-06-30T05:38:22Z</time>
      </trkpt>
      <trkpt lat="42.45075" lon="2.23857">
        <ele>2147.24</ele>
        <time>2016-06-30T05:38:33Z</time>
      </trkpt>
      <trkpt lat="42.45069" lon="2.2386">
        <ele>2149.65</ele>
        <time>2016-06-30T05:38:45Z</time>
      </trkpt>
      <trkpt lat="42.45067" lon="2.23862">
        <ele>2151.57</ele>
        <time>2016-06-30T05:39:00Z</time>
      </trkpt>
      <trkpt lat="42.45068" lon="2.23865">
        <ele>2153.49</ele>
        <time>2016-06-30T05:39:11Z</time>
      </trkpt>
      <trkpt lat="42.45062" lon="2.23867">
        <ele>2155.41</ele>
        <time>2016-06-30T05:39:23Z</time>
      </trkpt>
      <trkpt lat="42.45062" lon="2.23872">
        <ele>2157.34</ele>
        <time>2016-06-30T05:39:33Z</time>
      </trkpt>
      <trkpt lat="42.45064" lon="2.23875">
        <ele>2158.3</ele>
        <time>2016-06-30T05:39:49Z</time>
      </trkpt>
      <trkpt lat="42.45068" lon="2.23881">
        <ele>2159.74</ele>
        <time>2016-06-30T05:39:59Z</time>
      </trkpt>
      <trkpt lat="42.45071" lon="2.23886">
        <ele>2161.66</ele>
        <time>2016-06-30T05:40:11Z</time>
      </trkpt>
      <trkpt lat="42.45065" lon="2.23891">
        <ele>2163.58</ele>
        <time>2016-06-30T05:40:24Z</time>
      </trkpt>
      <trkpt lat="42.45063" lon="2.23891">
        <ele>2164.06</ele>
        <time>2016-06-30T05:40:27Z</time>
      </trkpt>
      <trkpt lat="42.45057" lon="2.23896">
        <ele>2165.99</ele>
        <time>2016-06-30T05:40:38Z</time>
      </trkpt>
      <trkpt lat="42.45051" lon="2.23905">
        <ele>2166.95</ele>
        <time>2016-06-30T05:40:49Z</time>
      </trkpt>
      <trkpt lat="42.45045" lon="2.23917">
        <ele>2168.39</ele>
        <time>2016-06-30T05:41:02Z</time>
      </trkpt>
      <trkpt lat="42.45045" lon="2.23918">
        <ele>2169.35</ele>
        <time>2016-06-30T05:41:03Z</time>
      </trkpt>
      <trkpt lat="42.45035" lon="2.2393">
        <ele>2170.31</ele>
        <time>2016-06-30T05:41:18Z</time>
      </trkpt>
      <trkpt lat="42.45026" lon="2.23938">
        <ele>2171.76</ele>
        <time>2016-06-30T05:41:30Z</time>
      </trkpt>
      <trkpt lat="42.45016" lon="2.23943">
        <ele>2173.2</ele>
        <time>2016-06-30T05:41:42Z</time>
      </trkpt>
      <trkpt lat="42.45012" lon="2.23948">
        <ele>2174.64</ele>
        <time>2016-06-30T05:41:51Z</time>
      </trkpt>
      <trkpt lat="42.45011" lon="2.23954">
        <ele>2175.6</ele>
        <time>2016-06-30T05:41:58Z</time>
      </trkpt>
      <trkpt lat="42.45005" lon="2.23963">
        <ele>2177.04</ele>
        <time>2016-06-30T05:42:10Z</time>
      </trkpt>
      <trkpt lat="42.44995" lon="2.2397">
        <ele>2178</ele>
        <time>2016-06-30T05:42:23Z</time>
      </trkpt>
      <trkpt lat="42.44989" lon="2.23977">
        <ele>2179.93</ele>
        <time>2016-06-30T05:42:34Z</time>
      </trkpt>
      <trkpt lat="42.4498" lon="2.23981">
        <ele>2180.89</ele>
        <time>2016-06-30T05:42:46Z</time>
      </trkpt>
      <trkpt lat="42.44978" lon="2.23983">
        <ele>2182.81</ele>
        <time>2016-06-30T05:42:58Z</time>
      </trkpt>
      <trkpt lat="42.44978" lon="2.23983">
        <ele>2184.25</ele>
        <time>2016-06-30T05:43:26Z</time>
      </trkpt>
      <trkpt lat="42.44973" lon="2.23984">
        <ele>2184.73</ele>
        <time>2016-06-30T05:43:35Z</time>
      </trkpt>
      <trkpt lat="42.44971" lon="2.23986">
        <ele>2185.21</ele>
        <time>2016-06-30T05:43:38Z</time>
      </trkpt>
      <trkpt lat="42.44968" lon="2.2399">
        <ele>2186.66</ele>
        <time>2016-06-30T05:43:47Z</time>
      </trkpt>
      <trkpt lat="42.44963" lon="2.23994">
        <ele>2190.02</ele>
        <time>2016-06-30T05:43:57Z</time>
      </trkpt>
      <trkpt lat="42.4496" lon="2.23995">
        <ele>2191.94</ele>
        <time>2016-06-30T05:44:01Z</time>
      </trkpt>
      <trkpt lat="42.44954" lon="2.23994">
        <ele>2192.42</ele>
        <time>2016-06-30T05:44:07Z</time>
      </trkpt>
      <trkpt lat="42.44947" lon="2.23999">
        <ele>2192.42</ele>
        <time>2016-06-30T05:44:18Z</time>
      </trkpt>
      <trkpt lat="42.4494" lon="2.24001">
        <ele>2193.39</ele>
        <time>2016-06-30T05:44:30Z</time>
      </trkpt>
      <trkpt lat="42.44935" lon="2.24001">
        <ele>2194.83</ele>
        <time>2016-06-30T05:44:42Z</time>
      </trkpt>
      <trkpt lat="42.44933" lon="2.24001">
        <ele>2196.27</ele>
        <time>2016-06-30T05:44:52Z</time>
      </trkpt>
      <trkpt lat="42.4493" lon="2.24007">
        <ele>2197.71</ele>
        <time>2016-06-30T05:45:09Z</time>
      </trkpt>
      <trkpt lat="42.44928" lon="2.24008">
        <ele>2198.67</ele>
        <time>2016-06-30T05:45:22Z</time>
      </trkpt>
      <trkpt lat="42.44925" lon="2.24017">
        <ele>2199.63</ele>
        <time>2016-06-30T05:45:34Z</time>
      </trkpt>
      <trkpt lat="42.44923" lon="2.24027">
        <ele>2201.08</ele>
        <time>2016-06-30T05:45:45Z</time>
      </trkpt>
      <trkpt lat="42.44922" lon="2.24037">
        <ele>2202.04</ele>
        <time>2016-06-30T05:45:55Z</time>
      </trkpt>
      <trkpt lat="42.44921" lon="2.24042">
        <ele>2203</ele>
        <time>2016-06-30T05:46:00Z</time>
      </trkpt>
      <trkpt lat="42.4492" lon="2.24054">
        <ele>2203.96</ele>
        <time>2016-06-30T05:46:11Z</time>
      </trkpt>
      <trkpt lat="42.44915" lon="2.24062">
        <ele>2204.92</ele>
        <time>2016-06-30T05:46:22Z</time>
      </trkpt>
      <trkpt lat="42.44915" lon="2.24063">
        <ele>2205.88</ele>
        <time>2016-06-30T05:46:27Z</time>
      </trkpt>
      <trkpt lat="42.44913" lon="2.24067">
        <ele>2206.84</ele>
        <time>2016-06-30T05:46:33Z</time>
      </trkpt>
      <trkpt lat="42.44912" lon="2.24073">
        <ele>2208.29</ele>
        <time>2016-06-30T05:46:41Z</time>
      </trkpt>
      <trkpt lat="42.4491" lon="2.24088">
        <ele>2210.21</ele>
        <time>2016-06-30T05:46:56Z</time>
      </trkpt>
      <trkpt lat="42.44909" lon="2.24095">
        <ele>2212.13</ele>
        <time>2016-06-30T05:47:06Z</time>
      </trkpt>
      <trkpt lat="42.44905" lon="2.24104">
        <ele>2214.05</ele>
        <time>2016-06-30T05:47:17Z</time>
      </trkpt>
      <trkpt lat="42.44901" lon="2.24112">
        <ele>2215.5</ele>
        <time>2016-06-30T05:47:27Z</time>
      </trkpt>
      <trkpt lat="42.44895" lon="2.24119">
        <ele>2217.42</ele>
        <time>2016-06-30T05:47:39Z</time>
      </trkpt>
      <trkpt lat="42.44891" lon="2.24127">
        <ele>2219.34</ele>
        <time>2016-06-30T05:47:52Z</time>
      </trkpt>
      <trkpt lat="42.44885" lon="2.24134">
        <ele>2221.74</ele>
        <time>2016-06-30T05:48:05Z</time>
      </trkpt>
      <trkpt lat="42.44881" lon="2.24138">
        <ele>2224.15</ele>
        <time>2016-06-30T05:48:17Z</time>
      </trkpt>
      <trkpt lat="42.44881" lon="2.24137">
        <ele>2225.59</ele>
        <time>2016-06-30T05:48:40Z</time>
      </trkpt>
      <trkpt lat="42.44877" lon="2.24143">
        <ele>2226.07</ele>
        <time>2016-06-30T05:48:57Z</time>
      </trkpt>
      <trkpt lat="42.44876" lon="2.24145">
        <ele>2226.55</ele>
        <time>2016-06-30T05:48:59Z</time>
      </trkpt>
      <trkpt lat="42.44875" lon="2.24149">
        <ele>2227.03</ele>
        <time>2016-06-30T05:49:03Z</time>
      </trkpt>
      <trkpt lat="42.44868" lon="2.24155">
        <ele>2228.47</ele>
        <time>2016-06-30T05:49:14Z</time>
      </trkpt>
      <trkpt lat="42.44859" lon="2.24162">
        <ele>2229.43</ele>
        <time>2016-06-30T05:49:27Z</time>
      </trkpt>
      <trkpt lat="42.44857" lon="2.24165">
        <ele>2230.4</ele>
        <time>2016-06-30T05:49:31Z</time>
      </trkpt>
      <trkpt lat="42.44856" lon="2.24171">
        <ele>2231.36</ele>
        <time>2016-06-30T05:49:39Z</time>
      </trkpt>
      <trkpt lat="42.44851" lon="2.24179">
        <ele>2233.28</ele>
        <time>2016-06-30T05:49:51Z</time>
      </trkpt>
      <trkpt lat="42.44843" lon="2.24182">
        <ele>2234.72</ele>
        <time>2016-06-30T05:50:04Z</time>
      </trkpt>
      <trkpt lat="42.44838" lon="2.2418">
        <ele>2235.68</ele>
        <time>2016-06-30T05:50:15Z</time>
      </trkpt>
      <trkpt lat="42.44838" lon="2.24182">
        <ele>2237.13</ele>
        <time>2016-06-30T05:50:23Z</time>
      </trkpt>
      <trkpt lat="42.44835" lon="2.24183">
        <ele>2238.09</ele>
        <time>2016-06-30T05:50:41Z</time>
      </trkpt>
      <trkpt lat="42.44831" lon="2.24185">
        <ele>2240.01</ele>
        <time>2016-06-30T05:50:52Z</time>
      </trkpt>
      <trkpt lat="42.44828" lon="2.24187">
        <ele>2241.45</ele>
        <time>2016-06-30T05:51:04Z</time>
      </trkpt>
      <trkpt lat="42.44825" lon="2.24185">
        <ele>2242.89</ele>
        <time>2016-06-30T05:51:24Z</time>
      </trkpt>
      <trkpt lat="42.44821" lon="2.24185">
        <ele>2243.37</ele>
        <time>2016-06-30T05:51:35Z</time>
      </trkpt>
      <trkpt lat="42.44815" lon="2.24191">
        <ele>2245.3</ele>
        <time>2016-06-30T05:51:46Z</time>
      </trkpt>
      <trkpt lat="42.44811" lon="2.24194">
        <ele>2246.74</ele>
        <time>2016-06-30T05:51:57Z</time>
      </trkpt>
      <trkpt lat="42.44807" lon="2.24194">
        <ele>2247.22</ele>
        <time>2016-06-30T05:52:03Z</time>
      </trkpt>
      <trkpt lat="42.44803" lon="2.24195">
        <ele>2248.18</ele>
        <time>2016-06-30T05:52:09Z</time>
      </trkpt>
      <trkpt lat="42.44798" lon="2.24193">
        <ele>2248.18</ele>
        <time>2016-06-30T05:52:15Z</time>
      </trkpt>
      <trkpt lat="42.44791" lon="2.24195">
        <ele>2248.66</ele>
        <time>2016-06-30T05:52:26Z</time>
      </trkpt>
      <trkpt lat="42.44786" lon="2.24195">
        <ele>2248.66</ele>
        <time>2016-06-30T05:52:33Z</time>
      </trkpt>
      <trkpt lat="42.44779" lon="2.24194">
        <ele>2248.66</ele>
        <time>2016-06-30T05:52:45Z</time>
      </trkpt>
      <trkpt lat="42.44779" lon="2.24193">
        <ele>2248.66</ele>
        <time>2016-06-30T05:53:02Z</time>
      </trkpt>
      <trkpt lat="42.44774" lon="2.24193">
        <ele>2248.66</ele>
        <time>2016-06-30T05:53:10Z</time>
      </trkpt>
      <trkpt lat="42.44767" lon="2.24193">
        <ele>2249.62</ele>
        <time>2016-06-30T05:53:20Z</time>
      </trkpt>
      <trkpt lat="42.44766" lon="2.24192">
        <ele>2249.62</ele>
        <time>2016-06-30T05:53:23Z</time>
      </trkpt>
      <trkpt lat="42.4476" lon="2.24185">
        <ele>2249.62</ele>
        <time>2016-06-30T05:53:33Z</time>
      </trkpt>
      <trkpt lat="42.44759" lon="2.24185">
        <ele>2249.62</ele>
        <time>2016-06-30T05:53:35Z</time>
      </trkpt>
      <trkpt lat="42.44757" lon="2.24184">
        <ele>2250.58</ele>
        <time>2016-06-30T05:53:47Z</time>
      </trkpt>
      <trkpt lat="42.44756" lon="2.24186">
        <ele>2251.06</ele>
        <time>2016-06-30T05:53:57Z</time>
      </trkpt>
      <trkpt lat="42.44753" lon="2.24186">
        <ele>2251.06</ele>
        <time>2016-06-30T05:54:02Z</time>
      </trkpt>
      <trkpt lat="42.44751" lon="2.24185">
        <ele>2251.06</ele>
        <time>2016-06-30T05:54:04Z</time>
      </trkpt>
      <trkpt lat="42.44741" lon="2.24179">
        <ele>2252.03</ele>
        <time>2016-06-30T05:54:17Z</time>
      </trkpt>
      <trkpt lat="42.4473" lon="2.2418">
        <ele>2252.51</ele>
        <time>2016-06-30T05:54:30Z</time>
      </trkpt>
      <trkpt lat="42.4473" lon="2.24179">
        <ele>2253.47</ele>
        <time>2016-06-30T05:54:55Z</time>
      </trkpt>
      <trkpt lat="42.44725" lon="2.24184">
        <ele>2254.43</ele>
        <time>2016-06-30T05:55:09Z</time>
      </trkpt>
      <trkpt lat="42.44722" lon="2.24186">
        <ele>2254.91</ele>
        <time>2016-06-30T05:55:18Z</time>
      </trkpt>
      <trkpt lat="42.44722" lon="2.24187">
        <ele>2255.39</ele>
        <time>2016-06-30T05:55:19Z</time>
      </trkpt>
      <trkpt lat="42.44717" lon="2.24188">
        <ele>2255.87</ele>
        <time>2016-06-30T05:55:29Z</time>
      </trkpt>
      <trkpt lat="42.44716" lon="2.24188">
        <ele>2255.87</ele>
        <time>2016-06-30T05:55:32Z</time>
      </trkpt>
      <trkpt lat="42.44714" lon="2.24187">
        <ele>2256.83</ele>
        <time>2016-06-30T05:55:37Z</time>
      </trkpt>
      <trkpt lat="42.44711" lon="2.24183">
        <ele>2257.79</ele>
        <time>2016-06-30T05:55:48Z</time>
      </trkpt>
      <trkpt lat="42.44709" lon="2.24182">
        <ele>2257.79</ele>
        <time>2016-06-30T05:56:02Z</time>
      </trkpt>
      <trkpt lat="42.44707" lon="2.24182">
        <ele>2257.79</ele>
        <time>2016-06-30T05:56:13Z</time>
      </trkpt>
      <trkpt lat="42.44702" lon="2.24178">
        <ele>2258.27</ele>
        <time>2016-06-30T05:56:23Z</time>
      </trkpt>
      <trkpt lat="42.447" lon="2.24178">
        <ele>2259.24</ele>
        <time>2016-06-30T05:56:34Z</time>
      </trkpt>
      <trkpt lat="42.44696" lon="2.24176">
        <ele>2259.72</ele>
        <time>2016-06-30T05:56:47Z</time>
      </trkpt>
      <trkpt lat="42.44693" lon="2.24178">
        <ele>2260.2</ele>
        <time>2016-06-30T05:57:04Z</time>
      </trkpt>
      <trkpt lat="42.44691" lon="2.24178">
        <ele>2261.16</ele>
        <time>2016-06-30T05:57:14Z</time>
      </trkpt>
      <trkpt lat="42.44686" lon="2.2418">
        <ele>2261.64</ele>
        <time>2016-06-30T05:57:26Z</time>
      </trkpt>
      <trkpt lat="42.44685" lon="2.24182">
        <ele>2262.12</ele>
        <time>2016-06-30T05:57:36Z</time>
      </trkpt>
      <trkpt lat="42.44683" lon="2.24185">
        <ele>2263.08</ele>
        <time>2016-06-30T05:57:47Z</time>
      </trkpt>
      <trkpt lat="42.44682" lon="2.24186">
        <ele>2263.08</ele>
        <time>2016-06-30T05:57:50Z</time>
      </trkpt>
      <trkpt lat="42.44675" lon="2.24187">
        <ele>2264.04</ele>
        <time>2016-06-30T05:57:59Z</time>
      </trkpt>
      <trkpt lat="42.44672" lon="2.24189">
        <ele>2264.52</ele>
        <time>2016-06-30T05:58:07Z</time>
      </trkpt>
      <trkpt lat="42.44671" lon="2.24192">
        <ele>2264.52</ele>
        <time>2016-06-30T05:58:18Z</time>
      </trkpt>
      <trkpt lat="42.4467" lon="2.24193">
        <ele>2264.52</ele>
        <time>2016-06-30T05:58:20Z</time>
      </trkpt>
      <trkpt lat="42.44669" lon="2.24194">
        <ele>2264.52</ele>
        <time>2016-06-30T05:58:22Z</time>
      </trkpt>
      <trkpt lat="42.44664" lon="2.24198">
        <ele>2265.48</ele>
        <time>2016-06-30T05:58:34Z</time>
      </trkpt>
      <trkpt lat="42.44662" lon="2.24198">
        <ele>2266.93</ele>
        <time>2016-06-30T05:58:47Z</time>
      </trkpt>
      <trkpt lat="42.44659" lon="2.24201">
        <ele>2267.41</ele>
        <time>2016-06-30T05:58:59Z</time>
      </trkpt>
      <trkpt lat="42.44654" lon="2.24203">
        <ele>2268.37</ele>
        <time>2016-06-30T05:59:10Z</time>
      </trkpt>
      <trkpt lat="42.44653" lon="2.24203">
        <ele>2268.37</ele>
        <time>2016-06-30T05:59:11Z</time>
      </trkpt>
      <trkpt lat="42.44649" lon="2.24205">
        <ele>2269.33</ele>
        <time>2016-06-30T05:59:21Z</time>
      </trkpt>
      <trkpt lat="42.44649" lon="2.24205">
        <ele>2269.81</ele>
        <time>2016-06-30T05:59:26Z</time>
      </trkpt>
      <trkpt lat="42.44646" lon="2.24208">
        <ele>2270.77</ele>
        <time>2016-06-30T05:59:36Z</time>
      </trkpt>
      <trkpt lat="42.44646" lon="2.24208">
        <ele>2270.77</ele>
        <time>2016-06-30T05:59:37Z</time>
      </trkpt>
      <trkpt lat="42.44643" lon="2.24214">
        <ele>2272.21</ele>
        <time>2016-06-30T05:59:48Z</time>
      </trkpt>
      <trkpt lat="42.4464" lon="2.24215">
        <ele>2273.17</ele>
        <time>2016-06-30T06:00:01Z</time>
      </trkpt>
      <trkpt lat="42.44638" lon="2.24217">
        <ele>2273.66</ele>
        <time>2016-06-30T06:00:15Z</time>
      </trkpt>
      <trkpt lat="42.44635" lon="2.2422">
        <ele>2275.1</ele>
        <time>2016-06-30T06:00:25Z</time>
      </trkpt>
      <trkpt lat="42.44633" lon="2.24221">
        <ele>2275.58</ele>
        <time>2016-06-30T06:00:30Z</time>
      </trkpt>
      <trkpt lat="42.44629" lon="2.24221">
        <ele>2276.54</ele>
        <time>2016-06-30T06:00:41Z</time>
      </trkpt>
      <trkpt lat="42.44629" lon="2.24222">
        <ele>2277.02</ele>
        <time>2016-06-30T06:00:50Z</time>
      </trkpt>
      <trkpt lat="42.44628" lon="2.24222">
        <ele>2277.02</ele>
        <time>2016-06-30T06:00:52Z</time>
      </trkpt>
      <trkpt lat="42.44627" lon="2.24225">
        <ele>2277.02</ele>
        <time>2016-06-30T06:00:57Z</time>
      </trkpt>
      <trkpt lat="42.44626" lon="2.24229">
        <ele>2278.94</ele>
        <time>2016-06-30T06:01:08Z</time>
      </trkpt>
      <trkpt lat="42.44624" lon="2.24234">
        <ele>2280.38</ele>
        <time>2016-06-30T06:01:18Z</time>
      </trkpt>
      <trkpt lat="42.44623" lon="2.24236">
        <ele>2281.83</ele>
        <time>2016-06-30T06:01:30Z</time>
      </trkpt>
      <trkpt lat="42.44622" lon="2.24235">
        <ele>2282.31</ele>
        <time>2016-06-30T06:01:52Z</time>
      </trkpt>
      <trkpt lat="42.44623" lon="2.24235">
        <ele>2282.79</ele>
        <time>2016-06-30T06:02:16Z</time>
      </trkpt>
      <trkpt lat="42.44623" lon="2.24236">
        <ele>2283.27</ele>
        <time>2016-06-30T06:02:46Z</time>
      </trkpt>
      <trkpt lat="42.44622" lon="2.2424">
        <ele>2283.27</ele>
        <time>2016-06-30T06:02:56Z</time>
      </trkpt>
      <trkpt lat="42.44619" lon="2.24246">
        <ele>2284.71</ele>
        <time>2016-06-30T06:03:07Z</time>
      </trkpt>
      <trkpt lat="42.44617" lon="2.24247">
        <ele>2285.19</ele>
        <time>2016-06-30T06:03:14Z</time>
      </trkpt>
      <trkpt lat="42.44616" lon="2.24248">
        <ele>2285.19</ele>
        <time>2016-06-30T06:03:19Z</time>
      </trkpt>
      <trkpt lat="42.44614" lon="2.2425">
        <ele>2285.67</ele>
        <time>2016-06-30T06:03:22Z</time>
      </trkpt>
      <trkpt lat="42.44608" lon="2.2425">
        <ele>2287.11</ele>
        <time>2016-06-30T06:03:31Z</time>
      </trkpt>
      <trkpt lat="42.44605" lon="2.2425">
        <ele>2287.59</ele>
        <time>2016-06-30T06:03:37Z</time>
      </trkpt>
      <trkpt lat="42.44603" lon="2.24249">
        <ele>2288.08</ele>
        <time>2016-06-30T06:03:47Z</time>
      </trkpt>
      <trkpt lat="42.44601" lon="2.2425">
        <ele>2288.56</ele>
        <time>2016-06-30T06:03:58Z</time>
      </trkpt>
      <trkpt lat="42.446" lon="2.24249">
        <ele>2288.56</ele>
        <time>2016-06-30T06:03:59Z</time>
      </trkpt>
      <trkpt lat="42.44599" lon="2.2425">
        <ele>2288.56</ele>
        <time>2016-06-30T06:04:01Z</time>
      </trkpt>
      <trkpt lat="42.44596" lon="2.24253">
        <ele>2289.52</ele>
        <time>2016-06-30T06:04:12Z</time>
      </trkpt>
      <trkpt lat="42.44595" lon="2.24255">
        <ele>2290.48</ele>
        <time>2016-06-30T06:04:25Z</time>
      </trkpt>
      <trkpt lat="42.44595" lon="2.24255">
        <ele>2290.48</ele>
        <time>2016-06-30T06:04:29Z</time>
      </trkpt>
      <trkpt lat="42.44593" lon="2.24257">
        <ele>2290.96</ele>
        <time>2016-06-30T06:04:42Z</time>
      </trkpt>
      <trkpt lat="42.44591" lon="2.24258">
        <ele>2291.92</ele>
        <time>2016-06-30T06:04:53Z</time>
      </trkpt>
      <trkpt lat="42.44589" lon="2.24258">
        <ele>2291.92</ele>
        <time>2016-06-30T06:05:03Z</time>
      </trkpt>
      <trkpt lat="42.44586" lon="2.24257">
        <ele>2292.88</ele>
        <time>2016-06-30T06:05:17Z</time>
      </trkpt>
      <trkpt lat="42.44585" lon="2.24258">
        <ele>2292.88</ele>
        <time>2016-06-30T06:05:21Z</time>
      </trkpt>
      <trkpt lat="42.44581" lon="2.24259">
        <ele>2293.36</ele>
        <time>2016-06-30T06:05:31Z</time>
      </trkpt>
      <trkpt lat="42.4458" lon="2.24259">
        <ele>2293.36</ele>
        <time>2016-06-30T06:05:32Z</time>
      </trkpt>
      <trkpt lat="42.44576" lon="2.24264">
        <ele>2293.84</ele>
        <time>2016-06-30T06:05:45Z</time>
      </trkpt>
      <trkpt lat="42.44576" lon="2.24268">
        <ele>2294.32</ele>
        <time>2016-06-30T06:05:52Z</time>
      </trkpt>
      <trkpt lat="42.44573" lon="2.24275">
        <ele>2295.77</ele>
        <time>2016-06-30T06:06:01Z</time>
      </trkpt>
      <trkpt lat="42.44573" lon="2.24275">
        <ele>2295.77</ele>
        <time>2016-06-30T06:06:02Z</time>
      </trkpt>
      <trkpt lat="42.4457" lon="2.24277">
        <ele>2296.25</ele>
        <time>2016-06-30T06:06:06Z</time>
      </trkpt>
      <trkpt lat="42.44568" lon="2.24283">
        <ele>2297.69</ele>
        <time>2016-06-30T06:06:16Z</time>
      </trkpt>
      <trkpt lat="42.44569" lon="2.24287">
        <ele>2299.13</ele>
        <time>2016-06-30T06:06:27Z</time>
      </trkpt>
      <trkpt lat="42.44568" lon="2.24288">
        <ele>2299.13</ele>
        <time>2016-06-30T06:06:28Z</time>
      </trkpt>
      <trkpt lat="42.44566" lon="2.24289">
        <ele>2299.61</ele>
        <time>2016-06-30T06:06:36Z</time>
      </trkpt>
      <trkpt lat="42.44562" lon="2.2429">
        <ele>2300.09</ele>
        <time>2016-06-30T06:06:45Z</time>
      </trkpt>
      <trkpt lat="42.44558" lon="2.24293">
        <ele>2300.09</ele>
        <time>2016-06-30T06:06:56Z</time>
      </trkpt>
      <trkpt lat="42.44557" lon="2.24293">
        <ele>2300.57</ele>
        <time>2016-06-30T06:07:14Z</time>
      </trkpt>
      <trkpt lat="42.44557" lon="2.24293">
        <ele>2301.05</ele>
        <time>2016-06-30T06:07:26Z</time>
      </trkpt>
      <trkpt lat="42.44555" lon="2.24293">
        <ele>2301.53</ele>
        <time>2016-06-30T06:07:34Z</time>
      </trkpt>
      <trkpt lat="42.44555" lon="2.24298">
        <ele>2301.53</ele>
        <time>2016-06-30T06:07:43Z</time>
      </trkpt>
      <trkpt lat="42.44554" lon="2.24302">
        <ele>2302.01</ele>
        <time>2016-06-30T06:07:47Z</time>
      </trkpt>
      <trkpt lat="42.44555" lon="2.24306">
        <ele>2302.01</ele>
        <time>2016-06-30T06:07:51Z</time>
      </trkpt>
      <trkpt lat="42.44554" lon="2.24311">
        <ele>2302.49</ele>
        <time>2016-06-30T06:07:55Z</time>
      </trkpt>
      <trkpt lat="42.44549" lon="2.24316">
        <ele>2302.98</ele>
        <time>2016-06-30T06:08:05Z</time>
      </trkpt>
      <trkpt lat="42.44546" lon="2.24318">
        <ele>2304.42</ele>
        <time>2016-06-30T06:08:17Z</time>
      </trkpt>
      <trkpt lat="42.44543" lon="2.2432">
        <ele>2304.42</ele>
        <time>2016-06-30T06:08:33Z</time>
      </trkpt>
      <trkpt lat="42.44541" lon="2.24321">
        <ele>2304.42</ele>
        <time>2016-06-30T06:08:37Z</time>
      </trkpt>
      <trkpt lat="42.44539" lon="2.24324">
        <ele>2304.42</ele>
        <time>2016-06-30T06:08:48Z</time>
      </trkpt>
      <trkpt lat="42.4454" lon="2.24328">
        <ele>2304.9</ele>
        <time>2016-06-30T06:09:03Z</time>
      </trkpt>
      <trkpt lat="42.44539" lon="2.2433">
        <ele>2305.86</ele>
        <time>2016-06-30T06:09:12Z</time>
      </trkpt>
      <trkpt lat="42.44538" lon="2.24331">
        <ele>2305.86</ele>
        <time>2016-06-30T06:09:14Z</time>
      </trkpt>
      <trkpt lat="42.44536" lon="2.2433">
        <ele>2305.86</ele>
        <time>2016-06-30T06:09:22Z</time>
      </trkpt>
      <trkpt lat="42.4453" lon="2.24326">
        <ele>2305.86</ele>
        <time>2016-06-30T06:09:32Z</time>
      </trkpt>
      <trkpt lat="42.4453" lon="2.24326">
        <ele>2305.86</ele>
        <time>2016-06-30T06:09:34Z</time>
      </trkpt>
      <trkpt lat="42.44525" lon="2.24323">
        <ele>2304.9</ele>
        <time>2016-06-30T06:09:44Z</time>
      </trkpt>
      <trkpt lat="42.44523" lon="2.24318">
        <ele>2304.42</ele>
        <time>2016-06-30T06:09:54Z</time>
      </trkpt>
      <trkpt lat="42.44521" lon="2.24314">
        <ele>2303.94</ele>
        <time>2016-06-30T06:10:04Z</time>
      </trkpt>
      <trkpt lat="42.44518" lon="2.24306">
        <ele>2303.94</ele>
        <time>2016-06-30T06:10:15Z</time>
      </trkpt>
      <trkpt lat="42.44516" lon="2.24305">
        <ele>2303.46</ele>
        <time>2016-06-30T06:10:25Z</time>
      </trkpt>
      <trkpt lat="42.44515" lon="2.24305">
        <ele>2303.46</ele>
        <time>2016-06-30T06:10:27Z</time>
      </trkpt>
      <trkpt lat="42.4451" lon="2.24303">
        <ele>2303.46</ele>
        <time>2016-06-30T06:10:40Z</time>
      </trkpt>
      <trkpt lat="42.44504" lon="2.24304">
        <ele>2303.46</ele>
        <time>2016-06-30T06:10:49Z</time>
      </trkpt>
      <trkpt lat="42.44504" lon="2.24305">
        <ele>2303.94</ele>
        <time>2016-06-30T06:10:50Z</time>
      </trkpt>
      <trkpt lat="42.44502" lon="2.24307">
        <ele>2303.46</ele>
        <time>2016-06-30T06:11:04Z</time>
      </trkpt>
      <trkpt lat="42.44497" lon="2.24308">
        <ele>2303.46</ele>
        <time>2016-06-30T06:11:16Z</time>
      </trkpt>
      <trkpt lat="42.44495" lon="2.24308">
        <ele>2302.98</ele>
        <time>2016-06-30T06:11:21Z</time>
      </trkpt>
      <trkpt lat="42.44493" lon="2.24308">
        <ele>2302.01</ele>
        <time>2016-06-30T06:11:33Z</time>
      </trkpt>
      <trkpt lat="42.44492" lon="2.24308">
        <ele>2302.01</ele>
        <time>2016-06-30T06:11:39Z</time>
      </trkpt>
      <trkpt lat="42.44486" lon="2.24308">
        <ele>2299.61</ele>
        <time>2016-06-30T06:11:49Z</time>
      </trkpt>
      <trkpt lat="42.44486" lon="2.24308">
        <ele>2299.61</ele>
        <time>2016-06-30T06:11:50Z</time>
      </trkpt>
      <trkpt lat="42.4448" lon="2.24311">
        <ele>2298.17</ele>
        <time>2016-06-30T06:12:01Z</time>
      </trkpt>
      <trkpt lat="42.44478" lon="2.24309">
        <ele>2297.21</ele>
        <time>2016-06-30T06:12:06Z</time>
      </trkpt>
      <trkpt lat="42.44478" lon="2.24306">
        <ele>2296.25</ele>
        <time>2016-06-30T06:12:10Z</time>
      </trkpt>
      <trkpt lat="42.44474" lon="2.24305">
        <ele>2292.4</ele>
        <time>2016-06-30T06:12:16Z</time>
      </trkpt>
      <trkpt lat="42.44472" lon="2.24305">
        <ele>2289.52</ele>
        <time>2016-06-30T06:12:20Z</time>
      </trkpt>
      <trkpt lat="42.44471" lon="2.24304">
        <ele>2288.08</ele>
        <time>2016-06-30T06:12:24Z</time>
      </trkpt>
      <trkpt lat="42.44467" lon="2.24307">
        <ele>2288.56</ele>
        <time>2016-06-30T06:12:30Z</time>
      </trkpt>
      <trkpt lat="42.44465" lon="2.24307">
        <ele>2288.56</ele>
        <time>2016-06-30T06:12:33Z</time>
      </trkpt>
      <trkpt lat="42.44463" lon="2.24306">
        <ele>2288.56</ele>
        <time>2016-06-30T06:12:35Z</time>
      </trkpt>
      <trkpt lat="42.4446" lon="2.24306">
        <ele>2288.56</ele>
        <time>2016-06-30T06:12:38Z</time>
      </trkpt>
      <trkpt lat="42.44458" lon="2.24305">
        <ele>2288.56</ele>
        <time>2016-06-30T06:12:40Z</time>
      </trkpt>
      <trkpt lat="42.4445" lon="2.24307">
        <ele>2289.52</ele>
        <time>2016-06-30T06:12:47Z</time>
      </trkpt>
      <trkpt lat="42.44444" lon="2.24306">
        <ele>2290</ele>
        <time>2016-06-30T06:12:53Z</time>
      </trkpt>
      <trkpt lat="42.44438" lon="2.24307">
        <ele>2290</ele>
        <time>2016-06-30T06:12:59Z</time>
      </trkpt>
      <trkpt lat="42.44434" lon="2.24304">
        <ele>2290.48</ele>
        <time>2016-06-30T06:13:03Z</time>
      </trkpt>
      <trkpt lat="42.4443" lon="2.24303">
        <ele>2290.48</ele>
        <time>2016-06-30T06:13:07Z</time>
      </trkpt>
      <trkpt lat="42.44424" lon="2.24303">
        <ele>2291.92</ele>
        <time>2016-06-30T06:13:14Z</time>
      </trkpt>
      <trkpt lat="42.44414" lon="2.24298">
        <ele>2292.88</ele>
        <time>2016-06-30T06:13:26Z</time>
      </trkpt>
      <trkpt lat="42.44407" lon="2.24296">
        <ele>2293.36</ele>
        <time>2016-06-30T06:13:33Z</time>
      </trkpt>
      <trkpt lat="42.44397" lon="2.24303">
        <ele>2295.28</ele>
        <time>2016-06-30T06:13:46Z</time>
      </trkpt>
      <trkpt lat="42.44387" lon="2.24311">
        <ele>2296.25</ele>
        <time>2016-06-30T06:13:59Z</time>
      </trkpt>
      <trkpt lat="42.44381" lon="2.24321">
        <ele>2297.69</ele>
        <time>2016-06-30T06:14:12Z</time>
      </trkpt>
      <trkpt lat="42.44378" lon="2.24322">
        <ele>2298.17</ele>
        <time>2016-06-30T06:14:16Z</time>
      </trkpt>
      <trkpt lat="42.44371" lon="2.24324">
        <ele>2298.65</ele>
        <time>2016-06-30T06:14:26Z</time>
      </trkpt>
      <trkpt lat="42.44369" lon="2.24324">
        <ele>2298.65</ele>
        <time>2016-06-30T06:14:28Z</time>
      </trkpt>
      <trkpt lat="42.44364" lon="2.24328">
        <ele>2299.61</ele>
        <time>2016-06-30T06:14:37Z</time>
      </trkpt>
      <trkpt lat="42.4436" lon="2.24335">
        <ele>2300.09</ele>
        <time>2016-06-30T06:14:43Z</time>
      </trkpt>
      <trkpt lat="42.4435" lon="2.24343">
        <ele>2301.53</ele>
        <time>2016-06-30T06:14:54Z</time>
      </trkpt>
      <trkpt lat="42.44347" lon="2.24342">
        <ele>2302.01</ele>
        <time>2016-06-30T06:14:58Z</time>
      </trkpt>
      <trkpt lat="42.4434" lon="2.24341">
        <ele>2302.98</ele>
        <time>2016-06-30T06:15:05Z</time>
      </trkpt>
      <trkpt lat="42.44335" lon="2.24337">
        <ele>2303.46</ele>
        <time>2016-06-30T06:15:11Z</time>
      </trkpt>
      <trkpt lat="42.44326" lon="2.2433">
        <ele>2304.9</ele>
        <time>2016-06-30T06:15:22Z</time>
      </trkpt>
      <trkpt lat="42.44324" lon="2.24329">
        <ele>2305.38</ele>
        <time>2016-06-30T06:15:24Z</time>
      </trkpt>
      <trkpt lat="42.44317" lon="2.24333">
        <ele>2306.34</ele>
        <time>2016-06-30T06:15:35Z</time>
      </trkpt>
      <trkpt lat="42.44311" lon="2.24346">
        <ele>2306.82</ele>
        <time>2016-06-30T06:15:49Z</time>
      </trkpt>
      <trkpt lat="42.44311" lon="2.24349">
        <ele>2307.3</ele>
        <time>2016-06-30T06:15:52Z</time>
      </trkpt>
      <trkpt lat="42.4431" lon="2.24351">
        <ele>2307.78</ele>
        <time>2016-06-30T06:15:54Z</time>
      </trkpt>
      <trkpt lat="42.44304" lon="2.24353">
        <ele>2308.26</ele>
        <time>2016-06-30T06:16:00Z</time>
      </trkpt>
      <trkpt lat="42.44302" lon="2.24352">
        <ele>2308.26</ele>
        <time>2016-06-30T06:16:02Z</time>
      </trkpt>
      <trkpt lat="42.44299" lon="2.24348">
        <ele>2309.22</ele>
        <time>2016-06-30T06:16:06Z</time>
      </trkpt>
      <trkpt lat="42.44295" lon="2.24342">
        <ele>2309.7</ele>
        <time>2016-06-30T06:16:13Z</time>
      </trkpt>
      <trkpt lat="42.44285" lon="2.24334">
        <ele>2310.67</ele>
        <time>2016-06-30T06:16:26Z</time>
      </trkpt>
      <trkpt lat="42.44283" lon="2.24334">
        <ele>2310.67</ele>
        <time>2016-06-30T06:16:28Z</time>
      </trkpt>
      <trkpt lat="42.44273" lon="2.24343">
        <ele>2311.63</ele>
        <time>2016-06-30T06:16:42Z</time>
      </trkpt>
      <trkpt lat="42.44268" lon="2.24348">
        <ele>2313.07</ele>
        <time>2016-06-30T06:16:48Z</time>
      </trkpt>
      <trkpt lat="42.44263" lon="2.24348">
        <ele>2313.07</ele>
        <time>2016-06-30T06:16:53Z</time>
      </trkpt>
      <trkpt lat="42.44256" lon="2.24341">
        <ele>2314.03</ele>
        <time>2016-06-30T06:17:05Z</time>
      </trkpt>
      <trkpt lat="42.44254" lon="2.2434">
        <ele>2314.51</ele>
        <time>2016-06-30T06:17:09Z</time>
      </trkpt>
      <trkpt lat="42.44245" lon="2.24339">
        <ele>2314.99</ele>
        <time>2016-06-30T06:17:20Z</time>
      </trkpt>
      <trkpt lat="42.44244" lon="2.24341">
        <ele>2314.99</ele>
        <time>2016-06-30T06:17:22Z</time>
      </trkpt>
      <trkpt lat="42.4424" lon="2.24347">
        <ele>2315.95</ele>
        <time>2016-06-30T06:17:28Z</time>
      </trkpt>
      <trkpt lat="42.44238" lon="2.24354">
        <ele>2316.43</ele>
        <time>2016-06-30T06:17:35Z</time>
      </trkpt>
      <trkpt lat="42.44238" lon="2.24356">
        <ele>2316.91</ele>
        <time>2016-06-30T06:17:37Z</time>
      </trkpt>
      <trkpt lat="42.44234" lon="2.24372">
        <ele>2317.88</ele>
        <time>2016-06-30T06:17:50Z</time>
      </trkpt>
      <trkpt lat="42.44228" lon="2.24375">
        <ele>2319.32</ele>
        <time>2016-06-30T06:18:00Z</time>
      </trkpt>
      <trkpt lat="42.44228" lon="2.24375">
        <ele>2319.8</ele>
        <time>2016-06-30T06:18:18Z</time>
      </trkpt>
      <trkpt lat="42.44229" lon="2.24375">
        <ele>2320.28</ele>
        <time>2016-06-30T06:18:38Z</time>
      </trkpt>
      <trkpt lat="42.44228" lon="2.24376">
        <ele>2320.28</ele>
        <time>2016-06-30T06:18:54Z</time>
      </trkpt>
      <trkpt lat="42.44226" lon="2.24375">
        <ele>2320.28</ele>
        <time>2016-06-30T06:18:56Z</time>
      </trkpt>
      <trkpt lat="42.44224" lon="2.24375">
        <ele>2320.28</ele>
        <time>2016-06-30T06:18:58Z</time>
      </trkpt>
      <trkpt lat="42.44215" lon="2.24373">
        <ele>2321.24</ele>
        <time>2016-06-30T06:19:06Z</time>
      </trkpt>
      <trkpt lat="42.4421" lon="2.24373">
        <ele>2321.72</ele>
        <time>2016-06-30T06:19:11Z</time>
      </trkpt>
      <trkpt lat="42.44202" lon="2.2437">
        <ele>2321.72</ele>
        <time>2016-06-30T06:19:20Z</time>
      </trkpt>
      <trkpt lat="42.4419" lon="2.24373">
        <ele>2323.16</ele>
        <time>2016-06-30T06:19:31Z</time>
      </trkpt>
      <trkpt lat="42.44182" lon="2.24378">
        <ele>2324.61</ele>
        <time>2016-06-30T06:19:40Z</time>
      </trkpt>
      <trkpt lat="42.44178" lon="2.24379">
        <ele>2325.09</ele>
        <time>2016-06-30T06:19:45Z</time>
      </trkpt>
      <trkpt lat="42.44175" lon="2.24381">
        <ele>2325.57</ele>
        <time>2016-06-30T06:19:50Z</time>
      </trkpt>
      <trkpt lat="42.44166" lon="2.24387">
        <ele>2327.49</ele>
        <time>2016-06-30T06:20:03Z</time>
      </trkpt>
      <trkpt lat="42.44158" lon="2.24394">
        <ele>2328.45</ele>
        <time>2016-06-30T06:20:14Z</time>
      </trkpt>
      <trkpt lat="42.4415" lon="2.24392">
        <ele>2329.89</ele>
        <time>2016-06-30T06:20:26Z</time>
      </trkpt>
      <trkpt lat="42.44148" lon="2.24391">
        <ele>2330.37</ele>
        <time>2016-06-30T06:20:28Z</time>
      </trkpt>
      <trkpt lat="42.44147" lon="2.24387">
        <ele>2330.85</ele>
        <time>2016-06-30T06:20:31Z</time>
      </trkpt>
      <trkpt lat="42.44146" lon="2.24386">
        <ele>2330.85</ele>
        <time>2016-06-30T06:20:33Z</time>
      </trkpt>
      <trkpt lat="42.44141" lon="2.24381">
        <ele>2332.78</ele>
        <time>2016-06-30T06:20:44Z</time>
      </trkpt>
      <trkpt lat="42.44139" lon="2.2438">
        <ele>2333.74</ele>
        <time>2016-06-30T06:20:47Z</time>
      </trkpt>
      <trkpt lat="42.44136" lon="2.24381">
        <ele>2336.14</ele>
        <time>2016-06-30T06:20:51Z</time>
      </trkpt>
      <trkpt lat="42.44129" lon="2.24379">
        <ele>2337.1</ele>
        <time>2016-06-30T06:21:02Z</time>
      </trkpt>
      <trkpt lat="42.44126" lon="2.24382">
        <ele>2337.1</ele>
        <time>2016-06-30T06:21:06Z</time>
      </trkpt>
      <trkpt lat="42.44119" lon="2.24382">
        <ele>2337.58</ele>
        <time>2016-06-30T06:21:13Z</time>
      </trkpt>
      <trkpt lat="42.4411" lon="2.24384">
        <ele>2339.02</ele>
        <time>2016-06-30T06:21:23Z</time>
      </trkpt>
      <trkpt lat="42.44101" lon="2.24391">
        <ele>2339.51</ele>
        <time>2016-06-30T06:21:35Z</time>
      </trkpt>
      <trkpt lat="42.441" lon="2.24393">
        <ele>2339.99</ele>
        <time>2016-06-30T06:21:38Z</time>
      </trkpt>
      <trkpt lat="42.44093" lon="2.24399">
        <ele>2340.95</ele>
        <time>2016-06-30T06:21:49Z</time>
      </trkpt>
      <trkpt lat="42.44081" lon="2.24399">
        <ele>2341.91</ele>
        <time>2016-06-30T06:22:02Z</time>
      </trkpt>
      <trkpt lat="42.44076" lon="2.24399">
        <ele>2342.39</ele>
        <time>2016-06-30T06:22:07Z</time>
      </trkpt>
      <trkpt lat="42.44072" lon="2.24399">
        <ele>2342.39</ele>
        <time>2016-06-30T06:22:11Z</time>
      </trkpt>
      <trkpt lat="42.4406" lon="2.24399">
        <ele>2342.87</ele>
        <time>2016-06-30T06:22:24Z</time>
      </trkpt>
      <trkpt lat="42.44049" lon="2.24398">
        <ele>2344.31</ele>
        <time>2016-06-30T06:22:35Z</time>
      </trkpt>
      <trkpt lat="42.44046" lon="2.24396">
        <ele>2344.31</ele>
        <time>2016-06-30T06:22:38Z</time>
      </trkpt>
      <trkpt lat="42.44039" lon="2.24388">
        <ele>2344.79</ele>
        <time>2016-06-30T06:22:46Z</time>
      </trkpt>
      <trkpt lat="42.44034" lon="2.24386">
        <ele>2344.79</ele>
        <time>2016-06-30T06:22:51Z</time>
      </trkpt>
      <trkpt lat="42.44031" lon="2.24385">
        <ele>2344.79</ele>
        <time>2016-06-30T06:22:54Z</time>
      </trkpt>
      <trkpt lat="42.44025" lon="2.24382">
        <ele>2344.79</ele>
        <time>2016-06-30T06:23:00Z</time>
      </trkpt>
      <trkpt lat="42.44012" lon="2.2438">
        <ele>2345.27</ele>
        <time>2016-06-30T06:23:13Z</time>
      </trkpt>
      <trkpt lat="42.44011" lon="2.2438">
        <ele>2345.27</ele>
        <time>2016-06-30T06:23:14Z</time>
      </trkpt>
      <trkpt lat="42.44005" lon="2.24381">
        <ele>2346.23</ele>
        <time>2016-06-30T06:23:19Z</time>
      </trkpt>
      <trkpt lat="42.43998" lon="2.24384">
        <ele>2346.72</ele>
        <time>2016-06-30T06:23:27Z</time>
      </trkpt>
      <trkpt lat="42.43993" lon="2.24402">
        <ele>2347.2</ele>
        <time>2016-06-30T06:23:41Z</time>
      </trkpt>
      <trkpt lat="42.43992" lon="2.24402">
        <ele>2347.2</ele>
        <time>2016-06-30T06:23:43Z</time>
      </trkpt>
      <trkpt lat="42.43982" lon="2.24412">
        <ele>2347.2</ele>
        <time>2016-06-30T06:23:55Z</time>
      </trkpt>
      <trkpt lat="42.43973" lon="2.24415">
        <ele>2348.64</ele>
        <time>2016-06-30T06:24:07Z</time>
      </trkpt>
      <trkpt lat="42.43967" lon="2.24419">
        <ele>2349.6</ele>
        <time>2016-06-30T06:24:16Z</time>
      </trkpt>
      <trkpt lat="42.43963" lon="2.24426">
        <ele>2350.08</ele>
        <time>2016-06-30T06:24:25Z</time>
      </trkpt>
      <trkpt lat="42.43957" lon="2.2443">
        <ele>2350.56</ele>
        <time>2016-06-30T06:24:32Z</time>
      </trkpt>
      <trkpt lat="42.4395" lon="2.24432">
        <ele>2352</ele>
        <time>2016-06-30T06:24:42Z</time>
      </trkpt>
      <trkpt lat="42.43946" lon="2.24434">
        <ele>2352</ele>
        <time>2016-06-30T06:24:46Z</time>
      </trkpt>
      <trkpt lat="42.43936" lon="2.24435">
        <ele>2353.93</ele>
        <time>2016-06-30T06:24:59Z</time>
      </trkpt>
      <trkpt lat="42.43931" lon="2.24432">
        <ele>2354.41</ele>
        <time>2016-06-30T06:25:06Z</time>
      </trkpt>
      <trkpt lat="42.43927" lon="2.24433">
        <ele>2354.89</ele>
        <time>2016-06-30T06:25:13Z</time>
      </trkpt>
      <trkpt lat="42.43922" lon="2.24434">
        <ele>2355.37</ele>
        <time>2016-06-30T06:25:18Z</time>
      </trkpt>
      <trkpt lat="42.43913" lon="2.24437">
        <ele>2356.33</ele>
        <time>2016-06-30T06:25:30Z</time>
      </trkpt>
      <trkpt lat="42.43907" lon="2.24437">
        <ele>2357.77</ele>
        <time>2016-06-30T06:25:39Z</time>
      </trkpt>
      <trkpt lat="42.43899" lon="2.24433">
        <ele>2360.17</ele>
        <time>2016-06-30T06:25:51Z</time>
      </trkpt>
      <trkpt lat="42.4389" lon="2.24435">
        <ele>2361.14</ele>
        <time>2016-06-30T06:26:02Z</time>
      </trkpt>
      <trkpt lat="42.43884" lon="2.24436">
        <ele>2361.62</ele>
        <time>2016-06-30T06:26:08Z</time>
      </trkpt>
      <trkpt lat="42.43874" lon="2.24442">
        <ele>2363.54</ele>
        <time>2016-06-30T06:26:20Z</time>
      </trkpt>
      <trkpt lat="42.43872" lon="2.24444">
        <ele>2363.54</ele>
        <time>2016-06-30T06:26:22Z</time>
      </trkpt>
      <trkpt lat="42.43867" lon="2.24447">
        <ele>2363.54</ele>
        <time>2016-06-30T06:26:28Z</time>
      </trkpt>
      <trkpt lat="42.43865" lon="2.24449">
        <ele>2364.02</ele>
        <time>2016-06-30T06:26:30Z</time>
      </trkpt>
      <trkpt lat="42.43858" lon="2.24451">
        <ele>2364.5</ele>
        <time>2016-06-30T06:26:38Z</time>
      </trkpt>
      <trkpt lat="42.43846" lon="2.2445">
        <ele>2365.94</ele>
        <time>2016-06-30T06:26:51Z</time>
      </trkpt>
      <trkpt lat="42.43844" lon="2.24451">
        <ele>2365.46</ele>
        <time>2016-06-30T06:26:53Z</time>
      </trkpt>
      <trkpt lat="42.43832" lon="2.24456">
        <ele>2366.42</ele>
        <time>2016-06-30T06:27:06Z</time>
      </trkpt>
      <trkpt lat="42.4383" lon="2.24457">
        <ele>2366.42</ele>
        <time>2016-06-30T06:27:08Z</time>
      </trkpt>
      <trkpt lat="42.43818" lon="2.24463">
        <ele>2366.42</ele>
        <time>2016-06-30T06:27:20Z</time>
      </trkpt>
      <trkpt lat="42.43806" lon="2.24467">
        <ele>2366.42</ele>
        <time>2016-06-30T06:27:32Z</time>
      </trkpt>
      <trkpt lat="42.43799" lon="2.24473">
        <ele>2366.42</ele>
        <time>2016-06-30T06:27:41Z</time>
      </trkpt>
      <trkpt lat="42.43792" lon="2.24482">
        <ele>2366.9</ele>
        <time>2016-06-30T06:27:51Z</time>
      </trkpt>
      <trkpt lat="42.43785" lon="2.24485">
        <ele>2367.86</ele>
        <time>2016-06-30T06:27:57Z</time>
      </trkpt>
      <trkpt lat="42.43772" lon="2.24489">
        <ele>2368.35</ele>
        <time>2016-06-30T06:28:09Z</time>
      </trkpt>
      <trkpt lat="42.4376" lon="2.24494">
        <ele>2369.31</ele>
        <time>2016-06-30T06:28:21Z</time>
      </trkpt>
      <trkpt lat="42.43753" lon="2.24497">
        <ele>2369.79</ele>
        <time>2016-06-30T06:28:28Z</time>
      </trkpt>
      <trkpt lat="42.43751" lon="2.24497">
        <ele>2371.23</ele>
        <time>2016-06-30T06:28:43Z</time>
      </trkpt>
      <trkpt lat="42.43752" lon="2.24497">
        <ele>2371.23</ele>
        <time>2016-06-30T06:29:06Z</time>
      </trkpt>
      <trkpt lat="42.43748" lon="2.24497">
        <ele>2371.23</ele>
        <time>2016-06-30T06:29:23Z</time>
      </trkpt>
      <trkpt lat="42.43739" lon="2.24499">
        <ele>2371.71</ele>
        <time>2016-06-30T06:29:33Z</time>
      </trkpt>
      <trkpt lat="42.43737" lon="2.24498">
        <ele>2371.71</ele>
        <time>2016-06-30T06:29:35Z</time>
      </trkpt>
      <trkpt lat="42.43731" lon="2.24499">
        <ele>2372.67</ele>
        <time>2016-06-30T06:29:41Z</time>
      </trkpt>
      <trkpt lat="42.4372" lon="2.24496">
        <ele>2373.63</ele>
        <time>2016-06-30T06:29:52Z</time>
      </trkpt>
      <trkpt lat="42.43713" lon="2.24496">
        <ele>2375.07</ele>
        <time>2016-06-30T06:29:59Z</time>
      </trkpt>
      <trkpt lat="42.43701" lon="2.24493">
        <ele>2377</ele>
        <time>2016-06-30T06:30:11Z</time>
      </trkpt>
      <trkpt lat="42.43696" lon="2.24491">
        <ele>2377.48</ele>
        <time>2016-06-30T06:30:15Z</time>
      </trkpt>
      <trkpt lat="42.43686" lon="2.2449">
        <ele>2378.44</ele>
        <time>2016-06-30T06:30:25Z</time>
      </trkpt>
      <trkpt lat="42.43681" lon="2.2449">
        <ele>2378.92</ele>
        <time>2016-06-30T06:30:29Z</time>
      </trkpt>
      <trkpt lat="42.4367" lon="2.24488">
        <ele>2379.88</ele>
        <time>2016-06-30T06:30:41Z</time>
      </trkpt>
      <trkpt lat="42.43659" lon="2.24486">
        <ele>2381.8</ele>
        <time>2016-06-30T06:30:53Z</time>
      </trkpt>
      <trkpt lat="42.43656" lon="2.24483">
        <ele>2382.76</ele>
        <time>2016-06-30T06:30:59Z</time>
      </trkpt>
      <trkpt lat="42.43654" lon="2.24483">
        <ele>2382.76</ele>
        <time>2016-06-30T06:31:01Z</time>
      </trkpt>
      <trkpt lat="42.4365" lon="2.24482">
        <ele>2383.73</ele>
        <time>2016-06-30T06:31:06Z</time>
      </trkpt>
      <trkpt lat="42.43641" lon="2.24479">
        <ele>2384.69</ele>
        <time>2016-06-30T06:31:17Z</time>
      </trkpt>
      <trkpt lat="42.43632" lon="2.24477">
        <ele>2386.61</ele>
        <time>2016-06-30T06:31:28Z</time>
      </trkpt>
      <trkpt lat="42.4363" lon="2.24477">
        <ele>2386.61</ele>
        <time>2016-06-30T06:31:31Z</time>
      </trkpt>
      <trkpt lat="42.43621" lon="2.24479">
        <ele>2388.05</ele>
        <time>2016-06-30T06:31:42Z</time>
      </trkpt>
      <trkpt lat="42.43616" lon="2.24478">
        <ele>2388.53</ele>
        <time>2016-06-30T06:31:47Z</time>
      </trkpt>
      <trkpt lat="42.43606" lon="2.24481">
        <ele>2389.97</ele>
        <time>2016-06-30T06:31:59Z</time>
      </trkpt>
      <trkpt lat="42.43596" lon="2.24481">
        <ele>2391.9</ele>
        <time>2016-06-30T06:32:11Z</time>
      </trkpt>
      <trkpt lat="42.4359" lon="2.24481">
        <ele>2392.86</ele>
        <time>2016-06-30T06:32:18Z</time>
      </trkpt>
      <trkpt lat="42.43585" lon="2.24477">
        <ele>2394.3</ele>
        <time>2016-06-30T06:32:31Z</time>
      </trkpt>
      <trkpt lat="42.43583" lon="2.24477">
        <ele>2395.74</ele>
        <time>2016-06-30T06:32:54Z</time>
      </trkpt>
      <trkpt lat="42.4358" lon="2.24473">
        <ele>2396.22</ele>
        <time>2016-06-30T06:33:17Z</time>
      </trkpt>
      <trkpt lat="42.43572" lon="2.2447">
        <ele>2397.67</ele>
        <time>2016-06-30T06:33:29Z</time>
      </trkpt>
      <trkpt lat="42.4357" lon="2.24471">
        <ele>2397.67</ele>
        <time>2016-06-30T06:33:31Z</time>
      </trkpt>
      <trkpt lat="42.4356" lon="2.24475">
        <ele>2400.07</ele>
        <time>2016-06-30T06:33:44Z</time>
      </trkpt>
      <trkpt lat="42.43559" lon="2.24476">
        <ele>2400.07</ele>
        <time>2016-06-30T06:33:46Z</time>
      </trkpt>
      <trkpt lat="42.43552" lon="2.24479">
        <ele>2401.51</ele>
        <time>2016-06-30T06:33:58Z</time>
      </trkpt>
      <trkpt lat="42.43551" lon="2.24479">
        <ele>2402.95</ele>
        <time>2016-06-30T06:34:17Z</time>
      </trkpt>
      <trkpt lat="42.43551" lon="2.24479">
        <ele>2403.43</ele>
        <time>2016-06-30T06:34:33Z</time>
      </trkpt>
      <trkpt lat="42.43551" lon="2.24479">
        <ele>2403.91</ele>
        <time>2016-06-30T06:35:00Z</time>
      </trkpt>
      <trkpt lat="42.43551" lon="2.24479">
        <ele>2403.91</ele>
        <time>2016-06-30T06:35:22Z</time>
      </trkpt>
      <trkpt lat="42.43544" lon="2.24482">
        <ele>2403.91</ele>
        <time>2016-06-30T06:35:31Z</time>
      </trkpt>
      <trkpt lat="42.43543" lon="2.24484">
        <ele>2403.91</ele>
        <time>2016-06-30T06:35:33Z</time>
      </trkpt>
      <trkpt lat="42.43541" lon="2.24485">
        <ele>2404.39</ele>
        <time>2016-06-30T06:35:35Z</time>
      </trkpt>
      <trkpt lat="42.43533" lon="2.24489">
        <ele>2404.39</ele>
        <time>2016-06-30T06:35:45Z</time>
      </trkpt>
      <trkpt lat="42.43524" lon="2.2449">
        <ele>2405.84</ele>
        <time>2016-06-30T06:35:56Z</time>
      </trkpt>
      <trkpt lat="42.43517" lon="2.24494">
        <ele>2407.28</ele>
        <time>2016-06-30T06:36:08Z</time>
      </trkpt>
      <trkpt lat="42.43516" lon="2.24494">
        <ele>2407.28</ele>
        <time>2016-06-30T06:36:10Z</time>
      </trkpt>
      <trkpt lat="42.43508" lon="2.24496">
        <ele>2409.68</ele>
        <time>2016-06-30T06:36:22Z</time>
      </trkpt>
      <trkpt lat="42.43501" lon="2.24497">
        <ele>2411.6</ele>
        <time>2016-06-30T06:36:34Z</time>
      </trkpt>
      <trkpt lat="42.43497" lon="2.24498">
        <ele>2413.05</ele>
        <time>2016-06-30T06:36:46Z</time>
      </trkpt>
      <trkpt lat="42.43494" lon="2.245">
        <ele>2414.01</ele>
        <time>2016-06-30T06:37:00Z</time>
      </trkpt>
      <trkpt lat="42.43492" lon="2.24507">
        <ele>2415.45</ele>
        <time>2016-06-30T06:37:10Z</time>
      </trkpt>
      <trkpt lat="42.43487" lon="2.24512">
        <ele>2417.37</ele>
        <time>2016-06-30T06:37:21Z</time>
      </trkpt>
      <trkpt lat="42.43486" lon="2.24512">
        <ele>2419.78</ele>
        <time>2016-06-30T06:37:37Z</time>
      </trkpt>
      <trkpt lat="42.43487" lon="2.24512">
        <ele>2419.78</ele>
        <time>2016-06-30T06:37:51Z</time>
      </trkpt>
      <trkpt lat="42.43487" lon="2.24513">
        <ele>2419.78</ele>
        <time>2016-06-30T06:38:16Z</time>
      </trkpt>
      <trkpt lat="42.43486" lon="2.24514">
        <ele>2419.78</ele>
        <time>2016-06-30T06:38:34Z</time>
      </trkpt>
      <trkpt lat="42.43477" lon="2.24511">
        <ele>2421.22</ele>
        <time>2016-06-30T06:38:45Z</time>
      </trkpt>
      <trkpt lat="42.4347" lon="2.24513">
        <ele>2422.66</ele>
        <time>2016-06-30T06:38:56Z</time>
      </trkpt>
      <trkpt lat="42.43461" lon="2.24519">
        <ele>2425.06</ele>
        <time>2016-06-30T06:39:10Z</time>
      </trkpt>
      <trkpt lat="42.43452" lon="2.24525">
        <ele>2426.99</ele>
        <time>2016-06-30T06:39:21Z</time>
      </trkpt>
      <trkpt lat="42.43444" lon="2.2453">
        <ele>2428.43</ele>
        <time>2016-06-30T06:39:33Z</time>
      </trkpt>
      <trkpt lat="42.43441" lon="2.24533">
        <ele>2430.35</ele>
        <time>2016-06-30T06:39:42Z</time>
      </trkpt>
      <trkpt lat="42.4344" lon="2.24534">
        <ele>2430.35</ele>
        <time>2016-06-30T06:39:43Z</time>
      </trkpt>
      <trkpt lat="42.43435" lon="2.24538">
        <ele>2432.27</ele>
        <time>2016-06-30T06:39:55Z</time>
      </trkpt>
      <trkpt lat="42.43435" lon="2.24539">
        <ele>2433.71</ele>
        <time>2016-06-30T06:40:12Z</time>
      </trkpt>
      <trkpt lat="42.43432" lon="2.2454">
        <ele>2434.68</ele>
        <time>2016-06-30T06:40:27Z</time>
      </trkpt>
      <trkpt lat="42.43422" lon="2.24541">
        <ele>2435.64</ele>
        <time>2016-06-30T06:40:41Z</time>
      </trkpt>
      <trkpt lat="42.43413" lon="2.24544">
        <ele>2437.56</ele>
        <time>2016-06-30T06:40:52Z</time>
      </trkpt>
      <trkpt lat="42.43406" lon="2.24547">
        <ele>2439.48</ele>
        <time>2016-06-30T06:41:04Z</time>
      </trkpt>
      <trkpt lat="42.43399" lon="2.24551">
        <ele>2441.41</ele>
        <time>2016-06-30T06:41:16Z</time>
      </trkpt>
      <trkpt lat="42.43394" lon="2.24555">
        <ele>2443.33</ele>
        <time>2016-06-30T06:41:28Z</time>
      </trkpt>
      <trkpt lat="42.43387" lon="2.24558">
        <ele>2444.77</ele>
        <time>2016-06-30T06:41:40Z</time>
      </trkpt>
      <trkpt lat="42.4338" lon="2.2456">
        <ele>2447.17</ele>
        <time>2016-06-30T06:41:53Z</time>
      </trkpt>
      <trkpt lat="42.43371" lon="2.24557">
        <ele>2450.06</ele>
        <time>2016-06-30T06:42:07Z</time>
      </trkpt>
      <trkpt lat="42.43364" lon="2.24558">
        <ele>2451.98</ele>
        <time>2016-06-30T06:42:19Z</time>
      </trkpt>
      <trkpt lat="42.43359" lon="2.24557">
        <ele>2454.38</ele>
        <time>2016-06-30T06:42:30Z</time>
      </trkpt>
      <trkpt lat="42.4335" lon="2.24558">
        <ele>2455.82</ele>
        <time>2016-06-30T06:42:43Z</time>
      </trkpt>
      <trkpt lat="42.43345" lon="2.24559">
        <ele>2457.75</ele>
        <time>2016-06-30T06:42:53Z</time>
      </trkpt>
      <trkpt lat="42.43338" lon="2.24562">
        <ele>2459.19</ele>
        <time>2016-06-30T06:43:04Z</time>
      </trkpt>
      <trkpt lat="42.43331" lon="2.24558">
        <ele>2460.63</ele>
        <time>2016-06-30T06:43:15Z</time>
      </trkpt>
      <trkpt lat="42.43327" lon="2.24556">
        <ele>2462.07</ele>
        <time>2016-06-30T06:43:27Z</time>
      </trkpt>
      <trkpt lat="42.43324" lon="2.24556">
        <ele>2462.55</ele>
        <time>2016-06-30T06:43:49Z</time>
      </trkpt>
      <trkpt lat="42.43323" lon="2.24555">
        <ele>2463.04</ele>
        <time>2016-06-30T06:43:51Z</time>
      </trkpt>
      <trkpt lat="42.4332" lon="2.24544">
        <ele>2464.48</ele>
        <time>2016-06-30T06:44:03Z</time>
      </trkpt>
      <trkpt lat="42.43319" lon="2.24543">
        <ele>2464.48</ele>
        <time>2016-06-30T06:44:07Z</time>
      </trkpt>
      <trkpt lat="42.43314" lon="2.24538">
        <ele>2464.48</ele>
        <time>2016-06-30T06:44:14Z</time>
      </trkpt>
      <trkpt lat="42.43312" lon="2.24535">
        <ele>2464.96</ele>
        <time>2016-06-30T06:44:18Z</time>
      </trkpt>
      <trkpt lat="42.43309" lon="2.24531">
        <ele>2464.96</ele>
        <time>2016-06-30T06:44:22Z</time>
      </trkpt>
      <trkpt lat="42.43308" lon="2.2453">
        <ele>2465.44</ele>
        <time>2016-06-30T06:44:24Z</time>
      </trkpt>
      <trkpt lat="42.43305" lon="2.24529">
        <ele>2465.92</ele>
        <time>2016-06-30T06:44:29Z</time>
      </trkpt>
      <trkpt lat="42.43304" lon="2.24528">
        <ele>2465.92</ele>
        <time>2016-06-30T06:44:31Z</time>
      </trkpt>
      <trkpt lat="42.43298" lon="2.24524">
        <ele>2466.4</ele>
        <time>2016-06-30T06:44:38Z</time>
      </trkpt>
      <trkpt lat="42.4329" lon="2.24517">
        <ele>2468.32</ele>
        <time>2016-06-30T06:44:51Z</time>
      </trkpt>
      <trkpt lat="42.43285" lon="2.24517">
        <ele>2469.28</ele>
        <time>2016-06-30T06:45:02Z</time>
      </trkpt>
      <trkpt lat="42.43285" lon="2.24516">
        <ele>2469.28</ele>
        <time>2016-06-30T06:45:03Z</time>
      </trkpt>
      <trkpt lat="42.43284" lon="2.24514">
        <ele>2470.24</ele>
        <time>2016-06-30T06:45:19Z</time>
      </trkpt>
      <trkpt lat="42.43284" lon="2.24513">
        <ele>2470.73</ele>
        <time>2016-06-30T06:45:44Z</time>
      </trkpt>
      <trkpt lat="42.43284" lon="2.24514">
        <ele>2470.73</ele>
        <time>2016-06-30T06:46:08Z</time>
      </trkpt>
      <trkpt lat="42.43283" lon="2.24506">
        <ele>2471.21</ele>
        <time>2016-06-30T06:46:22Z</time>
      </trkpt>
      <trkpt lat="42.43279" lon="2.24501">
        <ele>2471.69</ele>
        <time>2016-06-30T06:46:28Z</time>
      </trkpt>
      <trkpt lat="42.43274" lon="2.24495">
        <ele>2472.65</ele>
        <time>2016-06-30T06:46:37Z</time>
      </trkpt>
      <trkpt lat="42.4327" lon="2.24493">
        <ele>2473.61</ele>
        <time>2016-06-30T06:46:44Z</time>
      </trkpt>
      <trkpt lat="42.43258" lon="2.24487">
        <ele>2475.53</ele>
        <time>2016-06-30T06:46:58Z</time>
      </trkpt>
      <trkpt lat="42.43254" lon="2.24483">
        <ele>2476.49</ele>
        <time>2016-06-30T06:47:06Z</time>
      </trkpt>
      <trkpt lat="42.43251" lon="2.24481">
        <ele>2477.94</ele>
        <time>2016-06-30T06:47:11Z</time>
      </trkpt>
      <trkpt lat="42.43247" lon="2.2448">
        <ele>2478.42</ele>
        <time>2016-06-30T06:47:15Z</time>
      </trkpt>
      <trkpt lat="42.43242" lon="2.24479">
        <ele>2479.38</ele>
        <time>2016-06-30T06:47:22Z</time>
      </trkpt>
      <trkpt lat="42.43235" lon="2.24479">
        <ele>2480.34</ele>
        <time>2016-06-30T06:47:31Z</time>
      </trkpt>
      <trkpt lat="42.43226" lon="2.24476">
        <ele>2482.26</ele>
        <time>2016-06-30T06:47:45Z</time>
      </trkpt>
      <trkpt lat="42.43218" lon="2.24476">
        <ele>2484.66</ele>
        <time>2016-06-30T06:47:57Z</time>
      </trkpt>
      <trkpt lat="42.43216" lon="2.24474">
        <ele>2486.11</ele>
        <time>2016-06-30T06:48:12Z</time>
      </trkpt>
      <trkpt lat="42.43211" lon="2.24469">
        <ele>2487.07</ele>
        <time>2016-06-30T06:48:23Z</time>
      </trkpt>
      <trkpt lat="42.43207" lon="2.24469">
        <ele>2487.55</ele>
        <time>2016-06-30T06:48:27Z</time>
      </trkpt>
      <trkpt lat="42.432" lon="2.24466">
        <ele>2488.99</ele>
        <time>2016-06-30T06:48:37Z</time>
      </trkpt>
      <trkpt lat="42.43196" lon="2.24465">
        <ele>2490.43</ele>
        <time>2016-06-30T06:48:47Z</time>
      </trkpt>
      <trkpt lat="42.43194" lon="2.24464">
        <ele>2491.87</ele>
        <time>2016-06-30T06:48:55Z</time>
      </trkpt>
      <trkpt lat="42.43189" lon="2.24458">
        <ele>2493.8</ele>
        <time>2016-06-30T06:49:06Z</time>
      </trkpt>
      <trkpt lat="42.43188" lon="2.24458">
        <ele>2493.8</ele>
        <time>2016-06-30T06:49:07Z</time>
      </trkpt>
      <trkpt lat="42.43183" lon="2.24456">
        <ele>2495.72</ele>
        <time>2016-06-30T06:49:17Z</time>
      </trkpt>
      <trkpt lat="42.43179" lon="2.24451">
        <ele>2497.64</ele>
        <time>2016-06-30T06:49:27Z</time>
      </trkpt>
      <trkpt lat="42.43173" lon="2.24444">
        <ele>2499.57</ele>
        <time>2016-06-30T06:49:40Z</time>
      </trkpt>
      <trkpt lat="42.43168" lon="2.2444">
        <ele>2501.01</ele>
        <time>2016-06-30T06:49:50Z</time>
      </trkpt>
      <trkpt lat="42.43165" lon="2.24434">
        <ele>2502.45</ele>
        <time>2016-06-30T06:49:58Z</time>
      </trkpt>
      <trkpt lat="42.4316" lon="2.24429">
        <ele>2504.85</ele>
        <time>2016-06-30T06:50:11Z</time>
      </trkpt>
      <trkpt lat="42.43155" lon="2.24425">
        <ele>2506.29</ele>
        <time>2016-06-30T06:50:22Z</time>
      </trkpt>
      <trkpt lat="42.43155" lon="2.24424">
        <ele>2507.74</ele>
        <time>2016-06-30T06:50:40Z</time>
      </trkpt>
      <trkpt lat="42.43152" lon="2.2442">
        <ele>2508.22</ele>
        <time>2016-06-30T06:50:59Z</time>
      </trkpt>
      <trkpt lat="42.43146" lon="2.24415">
        <ele>2509.18</ele>
        <time>2016-06-30T06:51:07Z</time>
      </trkpt>
      <trkpt lat="42.43139" lon="2.2441">
        <ele>2510.62</ele>
        <time>2016-06-30T06:51:18Z</time>
      </trkpt>
      <trkpt lat="42.43136" lon="2.24406">
        <ele>2511.1</ele>
        <time>2016-06-30T06:51:23Z</time>
      </trkpt>
      <trkpt lat="42.43132" lon="2.244">
        <ele>2512.54</ele>
        <time>2016-06-30T06:51:34Z</time>
      </trkpt>
      <trkpt lat="42.43127" lon="2.24394">
        <ele>2514.47</ele>
        <time>2016-06-30T06:51:46Z</time>
      </trkpt>
      <trkpt lat="42.43124" lon="2.24386">
        <ele>2516.39</ele>
        <time>2016-06-30T06:51:57Z</time>
      </trkpt>
      <trkpt lat="42.43119" lon="2.2438">
        <ele>2520.23</ele>
        <time>2016-06-30T06:52:08Z</time>
      </trkpt>
      <trkpt lat="42.4312" lon="2.2437">
        <ele>2521.19</ele>
        <time>2016-06-30T06:52:19Z</time>
      </trkpt>
      <trkpt lat="42.4312" lon="2.24365">
        <ele>2521.68</ele>
        <time>2016-06-30T06:52:25Z</time>
      </trkpt>
      <trkpt lat="42.43118" lon="2.24361">
        <ele>2522.64</ele>
        <time>2016-06-30T06:52:38Z</time>
      </trkpt>
      <trkpt lat="42.43119" lon="2.2436">
        <ele>2524.08</ele>
        <time>2016-06-30T06:52:57Z</time>
      </trkpt>
      <trkpt lat="42.43118" lon="2.24351">
        <ele>2525.04</ele>
        <time>2016-06-30T06:53:09Z</time>
      </trkpt>
      <trkpt lat="42.43115" lon="2.24342">
        <ele>2526.96</ele>
        <time>2016-06-30T06:53:20Z</time>
      </trkpt>
      <trkpt lat="42.43115" lon="2.24337">
        <ele>2529.37</ele>
        <time>2016-06-30T06:53:33Z</time>
      </trkpt>
      <trkpt lat="42.43113" lon="2.24324">
        <ele>2531.29</ele>
        <time>2016-06-30T06:53:46Z</time>
      </trkpt>
      <trkpt lat="42.43114" lon="2.24321">
        <ele>2533.21</ele>
        <time>2016-06-30T06:54:01Z</time>
      </trkpt>
      <trkpt lat="42.43117" lon="2.24315">
        <ele>2536.58</ele>
        <time>2016-06-30T06:54:11Z</time>
      </trkpt>
      <trkpt lat="42.43121" lon="2.24313">
        <ele>2539.46</ele>
        <time>2016-06-30T06:54:22Z</time>
      </trkpt>
      <trkpt lat="42.43124" lon="2.24308">
        <ele>2540.42</ele>
        <time>2016-06-30T06:54:34Z</time>
      </trkpt>
      <trkpt lat="42.43125" lon="2.243">
        <ele>2542.34</ele>
        <time>2016-06-30T06:54:46Z</time>
      </trkpt>
      <trkpt lat="42.43128" lon="2.24295">
        <ele>2543.31</ele>
        <time>2016-06-30T06:54:57Z</time>
      </trkpt>
      <trkpt lat="42.43128" lon="2.24285">
        <ele>2545.71</ele>
        <time>2016-06-30T06:55:08Z</time>
      </trkpt>
      <trkpt lat="42.43127" lon="2.24272">
        <ele>2547.15</ele>
        <time>2016-06-30T06:55:20Z</time>
      </trkpt>
      <trkpt lat="42.43128" lon="2.24263">
        <ele>2549.07</ele>
        <time>2016-06-30T06:55:32Z</time>
      </trkpt>
      <trkpt lat="42.43127" lon="2.24254">
        <ele>2551</ele>
        <time>2016-06-30T06:55:45Z</time>
      </trkpt>
      <trkpt lat="42.43129" lon="2.24247">
        <ele>2552.44</ele>
        <time>2016-06-30T06:55:55Z</time>
      </trkpt>
      <trkpt lat="42.43128" lon="2.24243">
        <ele>2554.36</ele>
        <time>2016-06-30T06:56:03Z</time>
      </trkpt>
      <trkpt lat="42.43124" lon="2.24236">
        <ele>2555.8</ele>
        <time>2016-06-30T06:56:13Z</time>
      </trkpt>
      <trkpt lat="42.43122" lon="2.24228">
        <ele>2557.73</ele>
        <time>2016-06-30T06:56:24Z</time>
      </trkpt>
      <trkpt lat="42.43122" lon="2.24224">
        <ele>2558.69</ele>
        <time>2016-06-30T06:56:29Z</time>
      </trkpt>
      <trkpt lat="42.4312" lon="2.24214">
        <ele>2560.61</ele>
        <time>2016-06-30T06:56:41Z</time>
      </trkpt>
      <trkpt lat="42.4312" lon="2.24213">
        <ele>2560.61</ele>
        <time>2016-06-30T06:56:42Z</time>
      </trkpt>
      <trkpt lat="42.43119" lon="2.24206">
        <ele>2563.01</ele>
        <time>2016-06-30T06:56:55Z</time>
      </trkpt>
      <trkpt lat="42.43119" lon="2.24206">
        <ele>2563.49</ele>
        <time>2016-06-30T06:57:18Z</time>
      </trkpt>
      <trkpt lat="42.43112" lon="2.24208">
        <ele>2563.97</ele>
        <time>2016-06-30T06:57:31Z</time>
      </trkpt>
      <trkpt lat="42.43108" lon="2.2421">
        <ele>2564.45</ele>
        <time>2016-06-30T06:57:36Z</time>
      </trkpt>
      <trkpt lat="42.43103" lon="2.24209">
        <ele>2565.9</ele>
        <time>2016-06-30T06:57:42Z</time>
      </trkpt>
      <trkpt lat="42.43101" lon="2.24209">
        <ele>2565.9</ele>
        <time>2016-06-30T06:57:44Z</time>
      </trkpt>
      <trkpt lat="42.43092" lon="2.24208">
        <ele>2567.82</ele>
        <time>2016-06-30T06:57:54Z</time>
      </trkpt>
      <trkpt lat="42.43083" lon="2.24217">
        <ele>2568.78</ele>
        <time>2016-06-30T06:58:07Z</time>
      </trkpt>
      <trkpt lat="42.43074" lon="2.24222">
        <ele>2569.74</ele>
        <time>2016-06-30T06:58:18Z</time>
      </trkpt>
      <trkpt lat="42.4307" lon="2.24224">
        <ele>2570.7</ele>
        <time>2016-06-30T06:58:23Z</time>
      </trkpt>
      <trkpt lat="42.43065" lon="2.24232">
        <ele>2571.66</ele>
        <time>2016-06-30T06:58:33Z</time>
      </trkpt>
      <trkpt lat="42.43055" lon="2.2425">
        <ele>2572.14</ele>
        <time>2016-06-30T06:58:47Z</time>
      </trkpt>
      <trkpt lat="42.43053" lon="2.24256">
        <ele>2572.14</ele>
        <time>2016-06-30T06:58:52Z</time>
      </trkpt>
      <trkpt lat="42.43049" lon="2.24266">
        <ele>2573.11</ele>
        <time>2016-06-30T06:59:00Z</time>
      </trkpt>
      <trkpt lat="42.43046" lon="2.24275">
        <ele>2573.59</ele>
        <time>2016-06-30T06:59:06Z</time>
      </trkpt>
      <trkpt lat="42.43042" lon="2.24281">
        <ele>2574.07</ele>
        <time>2016-06-30T06:59:11Z</time>
      </trkpt>
      <trkpt lat="42.43035" lon="2.243">
        <ele>2575.03</ele>
        <time>2016-06-30T06:59:25Z</time>
      </trkpt>
      <trkpt lat="42.43033" lon="2.2432">
        <ele>2575.51</ele>
        <time>2016-06-30T06:59:38Z</time>
      </trkpt>
      <trkpt lat="42.43032" lon="2.24336">
        <ele>2575.51</ele>
        <time>2016-06-30T06:59:48Z</time>
      </trkpt>
      <trkpt lat="42.43029" lon="2.2435">
        <ele>2575.51</ele>
        <time>2016-06-30T06:59:58Z</time>
      </trkpt>
      <trkpt lat="42.43029" lon="2.24354">
        <ele>2575.51</ele>
        <time>2016-06-30T07:00:01Z</time>
      </trkpt>
      <trkpt lat="42.43028" lon="2.2437">
        <ele>2575.51</ele>
        <time>2016-06-30T07:00:13Z</time>
      </trkpt>
      <trkpt lat="42.43026" lon="2.24386">
        <ele>2575.51</ele>
        <time>2016-06-30T07:00:24Z</time>
      </trkpt>
      <trkpt lat="42.43026" lon="2.24392">
        <ele>2575.51</ele>
        <time>2016-06-30T07:00:28Z</time>
      </trkpt>
      <trkpt lat="42.43025" lon="2.24401">
        <ele>2576.95</ele>
        <time>2016-06-30T07:00:36Z</time>
      </trkpt>
      <trkpt lat="42.43026" lon="2.2441">
        <ele>2577.43</ele>
        <time>2016-06-30T07:00:42Z</time>
      </trkpt>
      <trkpt lat="42.43024" lon="2.24427">
        <ele>2578.39</ele>
        <time>2016-06-30T07:00:55Z</time>
      </trkpt>
      <trkpt lat="42.43024" lon="2.24438">
        <ele>2580.32</ele>
        <time>2016-06-30T07:01:03Z</time>
      </trkpt>
      <trkpt lat="42.43022" lon="2.2444">
        <ele>2580.32</ele>
        <time>2016-06-30T07:01:05Z</time>
      </trkpt>
      <trkpt lat="42.43025" lon="2.24456">
        <ele>2582.24</ele>
        <time>2016-06-30T07:01:17Z</time>
      </trkpt>
      <trkpt lat="42.43025" lon="2.24458">
        <ele>2582.72</ele>
        <time>2016-06-30T07:01:18Z</time>
      </trkpt>
      <trkpt lat="42.43025" lon="2.24464">
        <ele>2582.72</ele>
        <time>2016-06-30T07:01:22Z</time>
      </trkpt>
      <trkpt lat="42.43023" lon="2.24476">
        <ele>2583.2</ele>
        <time>2016-06-30T07:01:32Z</time>
      </trkpt>
      <trkpt lat="42.43024" lon="2.24479">
        <ele>2583.2</ele>
        <time>2016-06-30T07:01:34Z</time>
      </trkpt>
      <trkpt lat="42.43021" lon="2.24488">
        <ele>2584.16</ele>
        <time>2016-06-30T07:01:42Z</time>
      </trkpt>
      <trkpt lat="42.43022" lon="2.24489">
        <ele>2584.16</ele>
        <time>2016-06-30T07:01:44Z</time>
      </trkpt>
      <trkpt lat="42.43021" lon="2.24492">
        <ele>2585.12</ele>
        <time>2016-06-30T07:01:46Z</time>
      </trkpt>
      <trkpt lat="42.43021" lon="2.24495">
        <ele>2585.12</ele>
        <time>2016-06-30T07:01:49Z</time>
      </trkpt>
      <trkpt lat="42.43019" lon="2.24512">
        <ele>2586.56</ele>
        <time>2016-06-30T07:02:02Z</time>
      </trkpt>
      <trkpt lat="42.4302" lon="2.24526">
        <ele>2588.01</ele>
        <time>2016-06-30T07:02:14Z</time>
      </trkpt>
      <trkpt lat="42.43021" lon="2.2454">
        <ele>2588.97</ele>
        <time>2016-06-30T07:02:25Z</time>
      </trkpt>
      <trkpt lat="42.43021" lon="2.24543">
        <ele>2588.97</ele>
        <time>2016-06-30T07:02:27Z</time>
      </trkpt>
      <trkpt lat="42.4302" lon="2.24557">
        <ele>2589.93</ele>
        <time>2016-06-30T07:02:39Z</time>
      </trkpt>
      <trkpt lat="42.4302" lon="2.2456">
        <ele>2591.37</ele>
        <time>2016-06-30T07:02:54Z</time>
      </trkpt>
      <trkpt lat="42.4302" lon="2.24561">
        <ele>2591.85</ele>
        <time>2016-06-30T07:03:14Z</time>
      </trkpt>
      <trkpt lat="42.43021" lon="2.24562">
        <ele>2591.85</ele>
        <time>2016-06-30T07:03:36Z</time>
      </trkpt>
      <trkpt lat="42.4302" lon="2.24563">
        <ele>2592.33</ele>
        <time>2016-06-30T07:04:02Z</time>
      </trkpt>
      <trkpt lat="42.4302" lon="2.24563">
        <ele>2592.33</ele>
        <time>2016-06-30T07:04:06Z</time>
      </trkpt>
      <trkpt lat="42.43008" lon="2.24568">
        <ele>2593.29</ele>
        <time>2016-06-30T07:04:20Z</time>
      </trkpt>
      <trkpt lat="42.43002" lon="2.2457">
        <ele>2594.74</ele>
        <time>2016-06-30T07:04:27Z</time>
      </trkpt>
      <trkpt lat="42.43001" lon="2.24572">
        <ele>2595.22</ele>
        <time>2016-06-30T07:04:29Z</time>
      </trkpt>
      <trkpt lat="42.42999" lon="2.24572">
        <ele>2595.7</ele>
        <time>2016-06-30T07:04:31Z</time>
      </trkpt>
      <trkpt lat="42.42988" lon="2.24576">
        <ele>2598.1</ele>
        <time>2016-06-30T07:04:44Z</time>
      </trkpt>
      <trkpt lat="42.42982" lon="2.24579">
        <ele>2601.46</ele>
        <time>2016-06-30T07:04:53Z</time>
      </trkpt>
      <trkpt lat="42.42982" lon="2.2458">
        <ele>2601.95</ele>
        <time>2016-06-30T07:04:54Z</time>
      </trkpt>
      <trkpt lat="42.42979" lon="2.24581">
        <ele>2603.87</ele>
        <time>2016-06-30T07:04:58Z</time>
      </trkpt>
      <trkpt lat="42.42975" lon="2.24584">
        <ele>2603.87</ele>
        <time>2016-06-30T07:05:03Z</time>
      </trkpt>
      <trkpt lat="42.42964" lon="2.24588">
        <ele>2603.87</ele>
        <time>2016-06-30T07:05:15Z</time>
      </trkpt>
      <trkpt lat="42.42957" lon="2.2459">
        <ele>2604.35</ele>
        <time>2016-06-30T07:05:22Z</time>
      </trkpt>
      <trkpt lat="42.42947" lon="2.2459">
        <ele>2606.27</ele>
        <time>2016-06-30T07:05:34Z</time>
      </trkpt>
      <trkpt lat="42.42943" lon="2.24589">
        <ele>2607.23</ele>
        <time>2016-06-30T07:05:39Z</time>
      </trkpt>
      <trkpt lat="42.42938" lon="2.2459">
        <ele>2607.71</ele>
        <time>2016-06-30T07:05:45Z</time>
      </trkpt>
      <trkpt lat="42.42937" lon="2.24588">
        <ele>2607.71</ele>
        <time>2016-06-30T07:05:47Z</time>
      </trkpt>
      <trkpt lat="42.42932" lon="2.24586">
        <ele>2608.67</ele>
        <time>2016-06-30T07:05:53Z</time>
      </trkpt>
      <trkpt lat="42.4293" lon="2.24584">
        <ele>2608.67</ele>
        <time>2016-06-30T07:05:55Z</time>
      </trkpt>
      <trkpt lat="42.42929" lon="2.24584">
        <ele>2608.67</ele>
        <time>2016-06-30T07:05:57Z</time>
      </trkpt>
      <trkpt lat="42.42927" lon="2.24582">
        <ele>2609.64</ele>
        <time>2016-06-30T07:05:59Z</time>
      </trkpt>
      <trkpt lat="42.42925" lon="2.24581">
        <ele>2609.64</ele>
        <time>2016-06-30T07:06:01Z</time>
      </trkpt>
      <trkpt lat="42.42924" lon="2.2458">
        <ele>2610.12</ele>
        <time>2016-06-30T07:06:03Z</time>
      </trkpt>
      <trkpt lat="42.42918" lon="2.2458">
        <ele>2610.6</ele>
        <time>2016-06-30T07:06:09Z</time>
      </trkpt>
      <trkpt lat="42.42914" lon="2.24578">
        <ele>2611.08</ele>
        <time>2016-06-30T07:06:14Z</time>
      </trkpt>
      <trkpt lat="42.42913" lon="2.24576">
        <ele>2611.56</ele>
        <time>2016-06-30T07:06:16Z</time>
      </trkpt>
      <trkpt lat="42.42911" lon="2.24575">
        <ele>2611.56</ele>
        <time>2016-06-30T07:06:18Z</time>
      </trkpt>
      <trkpt lat="42.42909" lon="2.24573">
        <ele>2612.52</ele>
        <time>2016-06-30T07:06:21Z</time>
      </trkpt>
      <trkpt lat="42.42901" lon="2.24568">
        <ele>2613.48</ele>
        <time>2016-06-30T07:06:30Z</time>
      </trkpt>
      <trkpt lat="42.42898" lon="2.24567">
        <ele>2613.48</ele>
        <time>2016-06-30T07:06:33Z</time>
      </trkpt>
      <trkpt lat="42.42896" lon="2.24566">
        <ele>2613.96</ele>
        <time>2016-06-30T07:06:35Z</time>
      </trkpt>
      <trkpt lat="42.42885" lon="2.24559">
        <ele>2613.96</ele>
        <time>2016-06-30T07:06:50Z</time>
      </trkpt>
      <trkpt lat="42.42885" lon="2.24558">
        <ele>2614.44</ele>
        <time>2016-06-30T07:07:04Z</time>
      </trkpt>
      <trkpt lat="42.42886" lon="2.24555">
        <ele>2614.44</ele>
        <time>2016-06-30T07:07:09Z</time>
      </trkpt>
      <trkpt lat="42.42886" lon="2.24544">
        <ele>2614.92</ele>
        <time>2016-06-30T07:07:19Z</time>
      </trkpt>
      <trkpt lat="42.42887" lon="2.24536">
        <ele>2615.88</ele>
        <time>2016-06-30T07:07:25Z</time>
      </trkpt>
      <trkpt lat="42.42887" lon="2.24534">
        <ele>2615.88</ele>
        <time>2016-06-30T07:07:27Z</time>
      </trkpt>
      <trkpt lat="42.42887" lon="2.24516">
        <ele>2616.37</ele>
        <time>2016-06-30T07:07:40Z</time>
      </trkpt>
      <trkpt lat="42.42887" lon="2.24511">
        <ele>2616.85</ele>
        <time>2016-06-30T07:07:44Z</time>
      </trkpt>
      <trkpt lat="42.42886" lon="2.24509">
        <ele>2616.85</ele>
        <time>2016-06-30T07:07:46Z</time>
      </trkpt>
      <trkpt lat="42.42884" lon="2.24491">
        <ele>2617.81</ele>
        <time>2016-06-30T07:08:00Z</time>
      </trkpt>
      <trkpt lat="42.42884" lon="2.24477">
        <ele>2619.25</ele>
        <time>2016-06-30T07:08:12Z</time>
      </trkpt>
      <trkpt lat="42.42884" lon="2.24471">
        <ele>2620.21</ele>
        <time>2016-06-30T07:08:17Z</time>
      </trkpt>
      <trkpt lat="42.42885" lon="2.24459">
        <ele>2621.17</ele>
        <time>2016-06-30T07:08:29Z</time>
      </trkpt>
      <trkpt lat="42.42885" lon="2.24449">
        <ele>2622.61</ele>
        <time>2016-06-30T07:08:38Z</time>
      </trkpt>
      <trkpt lat="42.42883" lon="2.2444">
        <ele>2624.06</ele>
        <time>2016-06-30T07:08:47Z</time>
      </trkpt>
      <trkpt lat="42.42882" lon="2.24429">
        <ele>2625.98</ele>
        <time>2016-06-30T07:08:59Z</time>
      </trkpt>
      <trkpt lat="42.42882" lon="2.24428">
        <ele>2627.42</ele>
        <time>2016-06-30T07:09:18Z</time>
      </trkpt>
      <trkpt lat="42.42882" lon="2.24427">
        <ele>2627.42</ele>
        <time>2016-06-30T07:09:25Z</time>
      </trkpt>
      <trkpt lat="42.42888" lon="2.24416">
        <ele>2628.38</ele>
        <time>2016-06-30T07:09:36Z</time>
      </trkpt>
      <trkpt lat="42.4289" lon="2.24405">
        <ele>2628.86</ele>
        <time>2016-06-30T07:09:47Z</time>
      </trkpt>
      <trkpt lat="42.42891" lon="2.24401">
        <ele>2628.86</ele>
        <time>2016-06-30T07:09:50Z</time>
      </trkpt>
      <trkpt lat="42.42888" lon="2.24385">
        <ele>2629.82</ele>
        <time>2016-06-30T07:10:03Z</time>
      </trkpt>
      <trkpt lat="42.42885" lon="2.24376">
        <ele>2630.3</ele>
        <time>2016-06-30T07:10:11Z</time>
      </trkpt>
      <trkpt lat="42.42883" lon="2.24368">
        <ele>2631.27</ele>
        <time>2016-06-30T07:10:17Z</time>
      </trkpt>
      <trkpt lat="42.42882" lon="2.24358">
        <ele>2631.75</ele>
        <time>2016-06-30T07:10:25Z</time>
      </trkpt>
      <trkpt lat="42.42883" lon="2.2435">
        <ele>2632.23</ele>
        <time>2016-06-30T07:10:31Z</time>
      </trkpt>
      <trkpt lat="42.4288" lon="2.24337">
        <ele>2633.67</ele>
        <time>2016-06-30T07:10:42Z</time>
      </trkpt>
      <trkpt lat="42.4288" lon="2.24334">
        <ele>2634.15</ele>
        <time>2016-06-30T07:10:44Z</time>
      </trkpt>
      <trkpt lat="42.42877" lon="2.24323">
        <ele>2634.63</ele>
        <time>2016-06-30T07:10:54Z</time>
      </trkpt>
      <trkpt lat="42.42877" lon="2.24319">
        <ele>2635.11</ele>
        <time>2016-06-30T07:11:01Z</time>
      </trkpt>
      <trkpt lat="42.42878" lon="2.24317">
        <ele>2635.59</ele>
        <time>2016-06-30T07:11:18Z</time>
      </trkpt>
      <trkpt lat="42.42877" lon="2.24315">
        <ele>2636.55</ele>
        <time>2016-06-30T07:11:48Z</time>
      </trkpt>
      <trkpt lat="42.42877" lon="2.24314">
        <ele>2636.55</ele>
        <time>2016-06-30T07:11:49Z</time>
      </trkpt>
      <trkpt lat="42.42875" lon="2.24301">
        <ele>2637.99</ele>
        <time>2016-06-30T07:12:02Z</time>
      </trkpt>
      <trkpt lat="42.42876" lon="2.24288">
        <ele>2639.92</ele>
        <time>2016-06-30T07:12:15Z</time>
      </trkpt>
      <trkpt lat="42.42876" lon="2.24286">
        <ele>2640.4</ele>
        <time>2016-06-30T07:12:17Z</time>
      </trkpt>
      <trkpt lat="42.42875" lon="2.24277">
        <ele>2640.88</ele>
        <time>2016-06-30T07:12:26Z</time>
      </trkpt>
      <trkpt lat="42.42877" lon="2.24265">
        <ele>2644.24</ele>
        <time>2016-06-30T07:12:39Z</time>
      </trkpt>
      <trkpt lat="42.42878" lon="2.24257">
        <ele>2646.17</ele>
        <time>2016-06-30T07:12:54Z</time>
      </trkpt>
      <trkpt lat="42.42878" lon="2.24255">
        <ele>2647.13</ele>
        <time>2016-06-30T07:13:13Z</time>
      </trkpt>
      <trkpt lat="42.42876" lon="2.24244">
        <ele>2648.57</ele>
        <time>2016-06-30T07:13:25Z</time>
      </trkpt>
      <trkpt lat="42.42875" lon="2.24235">
        <ele>2650.49</ele>
        <time>2016-06-30T07:13:37Z</time>
      </trkpt>
      <trkpt lat="42.42875" lon="2.24233">
        <ele>2650.97</ele>
        <time>2016-06-30T07:13:39Z</time>
      </trkpt>
      <trkpt lat="42.42876" lon="2.24231">
        <ele>2650.97</ele>
        <time>2016-06-30T07:13:41Z</time>
      </trkpt>
      <trkpt lat="42.42879" lon="2.2422">
        <ele>2653.38</ele>
        <time>2016-06-30T07:13:54Z</time>
      </trkpt>
      <trkpt lat="42.42882" lon="2.24213">
        <ele>2655.3</ele>
        <time>2016-06-30T07:14:08Z</time>
      </trkpt>
      <trkpt lat="42.42881" lon="2.24203">
        <ele>2656.26</ele>
        <time>2016-06-30T07:14:18Z</time>
      </trkpt>
      <trkpt lat="42.4288" lon="2.24192">
        <ele>2657.7</ele>
        <time>2016-06-30T07:14:27Z</time>
      </trkpt>
      <trkpt lat="42.4288" lon="2.24178">
        <ele>2659.14</ele>
        <time>2016-06-30T07:14:40Z</time>
      </trkpt>
      <trkpt lat="42.42878" lon="2.24169">
        <ele>2660.59</ele>
        <time>2016-06-30T07:14:50Z</time>
      </trkpt>
      <trkpt lat="42.4288" lon="2.24155">
        <ele>2662.03</ele>
        <time>2016-06-30T07:15:03Z</time>
      </trkpt>
      <trkpt lat="42.42883" lon="2.24144">
        <ele>2663.95</ele>
        <time>2016-06-30T07:15:14Z</time>
      </trkpt>
      <trkpt lat="42.42884" lon="2.24136">
        <ele>2664.91</ele>
        <time>2016-06-30T07:15:24Z</time>
      </trkpt>
      <trkpt lat="42.42885" lon="2.24127">
        <ele>2665.39</ele>
        <time>2016-06-30T07:15:34Z</time>
      </trkpt>
      <trkpt lat="42.42885" lon="2.24126">
        <ele>2665.39</ele>
        <time>2016-06-30T07:15:35Z</time>
      </trkpt>
      <trkpt lat="42.42886" lon="2.24122">
        <ele>2665.39</ele>
        <time>2016-06-30T07:15:38Z</time>
      </trkpt>
      <trkpt lat="42.42887" lon="2.24111">
        <ele>2665.87</ele>
        <time>2016-06-30T07:15:50Z</time>
      </trkpt>
      <trkpt lat="42.42886" lon="2.24105">
        <ele>2665.87</ele>
        <time>2016-06-30T07:15:55Z</time>
      </trkpt>
      <trkpt lat="42.4288" lon="2.24096">
        <ele>2665.87</ele>
        <time>2016-06-30T07:16:07Z</time>
      </trkpt>
      <trkpt lat="42.42873" lon="2.2409">
        <ele>2667.31</ele>
        <time>2016-06-30T07:16:18Z</time>
      </trkpt>
      <trkpt lat="42.42871" lon="2.24089">
        <ele>2667.8</ele>
        <time>2016-06-30T07:16:20Z</time>
      </trkpt>
      <trkpt lat="42.42868" lon="2.24082">
        <ele>2667.8</ele>
        <time>2016-06-30T07:16:26Z</time>
      </trkpt>
      <trkpt lat="42.42863" lon="2.24066">
        <ele>2669.24</ele>
        <time>2016-06-30T07:16:41Z</time>
      </trkpt>
      <trkpt lat="42.42862" lon="2.24066">
        <ele>2669.24</ele>
        <time>2016-06-30T07:16:42Z</time>
      </trkpt>
      <trkpt lat="42.42859" lon="2.24059">
        <ele>2671.16</ele>
        <time>2016-06-30T07:16:51Z</time>
      </trkpt>
      <trkpt lat="42.42855" lon="2.24048">
        <ele>2671.64</ele>
        <time>2016-06-30T07:17:02Z</time>
      </trkpt>
      <trkpt lat="42.42855" lon="2.24047">
        <ele>2671.64</ele>
        <time>2016-06-30T07:17:03Z</time>
      </trkpt>
      <trkpt lat="42.42855" lon="2.24041">
        <ele>2671.64</ele>
        <time>2016-06-30T07:17:08Z</time>
      </trkpt>
      <trkpt lat="42.42854" lon="2.24034">
        <ele>2672.12</ele>
        <time>2016-06-30T07:17:12Z</time>
      </trkpt>
      <trkpt lat="42.42854" lon="2.24025">
        <ele>2672.12</ele>
        <time>2016-06-30T07:17:19Z</time>
      </trkpt>
      <trkpt lat="42.42851" lon="2.24017">
        <ele>2672.6</ele>
        <time>2016-06-30T07:17:31Z</time>
      </trkpt>
      <trkpt lat="42.4285" lon="2.24017">
        <ele>2673.56</ele>
        <time>2016-06-30T07:18:00Z</time>
      </trkpt>
      <trkpt lat="42.42849" lon="2.24009">
        <ele>2674.04</ele>
        <time>2016-06-30T07:18:13Z</time>
      </trkpt>
      <trkpt lat="42.42849" lon="2.24001">
        <ele>2676.45</ele>
        <time>2016-06-30T07:18:26Z</time>
      </trkpt>
      <trkpt lat="42.42846" lon="2.23991">
        <ele>2677.89</ele>
        <time>2016-06-30T07:18:37Z</time>
      </trkpt>
      <trkpt lat="42.42844" lon="2.23982">
        <ele>2678.85</ele>
        <time>2016-06-30T07:18:49Z</time>
      </trkpt>
      <trkpt lat="42.42844" lon="2.2398">
        <ele>2679.81</ele>
        <time>2016-06-30T07:19:05Z</time>
      </trkpt>
      <trkpt lat="42.42843" lon="2.23979">
        <ele>2679.81</ele>
        <time>2016-06-30T07:19:27Z</time>
      </trkpt>
      <trkpt lat="42.42844" lon="2.23981">
        <ele>2679.81</ele>
        <time>2016-06-30T07:20:00Z</time>
      </trkpt>
      <trkpt lat="42.42841" lon="2.23974">
        <ele>2679.81</ele>
        <time>2016-06-30T07:20:23Z</time>
      </trkpt>
      <trkpt lat="42.42837" lon="2.23964">
        <ele>2681.25</ele>
        <time>2016-06-30T07:20:34Z</time>
      </trkpt>
      <trkpt lat="42.42837" lon="2.23963">
        <ele>2681.25</ele>
        <time>2016-06-30T07:20:35Z</time>
      </trkpt>
      <trkpt lat="42.42838" lon="2.23958">
        <ele>2682.22</ele>
        <time>2016-06-30T07:20:47Z</time>
      </trkpt>
      <trkpt lat="42.42839" lon="2.23958">
        <ele>2683.18</ele>
        <time>2016-06-30T07:21:18Z</time>
      </trkpt>
      <trkpt lat="42.42839" lon="2.2396">
        <ele>2683.66</ele>
        <time>2016-06-30T07:21:46Z</time>
      </trkpt>
      <trkpt lat="42.42837" lon="2.23957">
        <ele>2683.66</ele>
        <time>2016-06-30T07:22:08Z</time>
      </trkpt>
      <trkpt lat="42.42834" lon="2.23943">
        <ele>2683.66</ele>
        <time>2016-06-30T07:22:20Z</time>
      </trkpt>
      <trkpt lat="42.42831" lon="2.23936">
        <ele>2685.1</ele>
        <time>2016-06-30T07:22:28Z</time>
      </trkpt>
      <trkpt lat="42.42825" lon="2.23925">
        <ele>2686.54</ele>
        <time>2016-06-30T07:22:42Z</time>
      </trkpt>
      <trkpt lat="42.42821" lon="2.23914">
        <ele>2688.46</ele>
        <time>2016-06-30T07:22:54Z</time>
      </trkpt>
      <trkpt lat="42.42816" lon="2.23908">
        <ele>2689.43</ele>
        <time>2016-06-30T07:23:05Z</time>
      </trkpt>
      <trkpt lat="42.42815" lon="2.23901">
        <ele>2691.83</ele>
        <time>2016-06-30T07:23:16Z</time>
      </trkpt>
      <trkpt lat="42.42812" lon="2.23894">
        <ele>2693.27</ele>
        <time>2016-06-30T07:23:28Z</time>
      </trkpt>
      <trkpt lat="42.42811" lon="2.23891">
        <ele>2696.64</ele>
        <time>2016-06-30T07:23:38Z</time>
      </trkpt>
      <trkpt lat="42.42811" lon="2.23892">
        <ele>2696.15</ele>
        <time>2016-06-30T07:24:15Z</time>
      </trkpt>
      <trkpt lat="42.42808" lon="2.23886">
        <ele>2695.67</ele>
        <time>2016-06-30T07:24:26Z</time>
      </trkpt>
      <trkpt lat="42.42806" lon="2.23878">
        <ele>2697.12</ele>
        <time>2016-06-30T07:24:38Z</time>
      </trkpt>
      <trkpt lat="42.42803" lon="2.2387">
        <ele>2699.04</ele>
        <time>2016-06-30T07:24:50Z</time>
      </trkpt>
      <trkpt lat="42.42803" lon="2.23866">
        <ele>2702.4</ele>
        <time>2016-06-30T07:24:57Z</time>
      </trkpt>
      <trkpt lat="42.42803" lon="2.23864">
        <ele>2705.29</ele>
        <time>2016-06-30T07:25:01Z</time>
      </trkpt>
      <trkpt lat="42.42799" lon="2.23859">
        <ele>2706.25</ele>
        <time>2016-06-30T07:25:11Z</time>
      </trkpt>
      <trkpt lat="42.42796" lon="2.23855">
        <ele>2706.25</ele>
        <time>2016-06-30T07:25:22Z</time>
      </trkpt>
      <trkpt lat="42.42795" lon="2.2385">
        <ele>2707.69</ele>
        <time>2016-06-30T07:25:34Z</time>
      </trkpt>
      <trkpt lat="42.42794" lon="2.23845">
        <ele>2710.09</ele>
        <time>2016-06-30T07:25:46Z</time>
      </trkpt>
      <trkpt lat="42.42794" lon="2.23844">
        <ele>2711.06</ele>
        <time>2016-06-30T07:26:08Z</time>
      </trkpt>
      <trkpt lat="42.42793" lon="2.23839">
        <ele>2712.02</ele>
        <time>2016-06-30T07:26:19Z</time>
      </trkpt>
      <trkpt lat="42.42788" lon="2.23834">
        <ele>2713.46</ele>
        <time>2016-06-30T07:26:30Z</time>
      </trkpt>
      <trkpt lat="42.42787" lon="2.23828">
        <ele>2714.9</ele>
        <time>2016-06-30T07:26:41Z</time>
      </trkpt>
      <trkpt lat="42.42786" lon="2.23827">
        <ele>2714.9</ele>
        <time>2016-06-30T07:26:43Z</time>
      </trkpt>
      <trkpt lat="42.42782" lon="2.23824">
        <ele>2716.82</ele>
        <time>2016-06-30T07:26:53Z</time>
      </trkpt>
      <trkpt lat="42.42781" lon="2.23818">
        <ele>2718.75</ele>
        <time>2016-06-30T07:27:07Z</time>
      </trkpt>
      <trkpt lat="42.4278" lon="2.23813">
        <ele>2721.15</ele>
        <time>2016-06-30T07:27:23Z</time>
      </trkpt>
      <trkpt lat="42.42777" lon="2.23809">
        <ele>2722.59</ele>
        <time>2016-06-30T07:27:35Z</time>
      </trkpt>
      <trkpt lat="42.42778" lon="2.23805">
        <ele>2724.51</ele>
        <time>2016-06-30T07:27:46Z</time>
      </trkpt>
      <trkpt lat="42.42778" lon="2.23801">
        <ele>2725.48</ele>
        <time>2016-06-30T07:27:57Z</time>
      </trkpt>
      <trkpt lat="42.42774" lon="2.23798">
        <ele>2727.4</ele>
        <time>2016-06-30T07:28:07Z</time>
      </trkpt>
      <trkpt lat="42.42771" lon="2.23797">
        <ele>2728.84</ele>
        <time>2016-06-30T07:28:21Z</time>
      </trkpt>
      <trkpt lat="42.42772" lon="2.23792">
        <ele>2730.28</ele>
        <time>2016-06-30T07:28:33Z</time>
      </trkpt>
      <trkpt lat="42.42767" lon="2.23788">
        <ele>2731.72</ele>
        <time>2016-06-30T07:28:45Z</time>
      </trkpt>
      <trkpt lat="42.42769" lon="2.23784">
        <ele>2735.09</ele>
        <time>2016-06-30T07:28:56Z</time>
      </trkpt>
      <trkpt lat="42.42765" lon="2.23781">
        <ele>2737.97</ele>
        <time>2016-06-30T07:29:07Z</time>
      </trkpt>
      <trkpt lat="42.42761" lon="2.23779">
        <ele>2738.45</ele>
        <time>2016-06-30T07:29:18Z</time>
      </trkpt>
      <trkpt lat="42.42757" lon="2.23777">
        <ele>2740.38</ele>
        <time>2016-06-30T07:29:30Z</time>
      </trkpt>
      <trkpt lat="42.42755" lon="2.23776">
        <ele>2741.82</ele>
        <time>2016-06-30T07:29:41Z</time>
      </trkpt>
      <trkpt lat="42.42755" lon="2.23775">
        <ele>2742.78</ele>
        <time>2016-06-30T07:30:08Z</time>
      </trkpt>
      <trkpt lat="42.42755" lon="2.23774">
        <ele>2742.78</ele>
        <time>2016-06-30T07:30:23Z</time>
      </trkpt>
      <trkpt lat="42.42758" lon="2.23771">
        <ele>2743.74</ele>
        <time>2016-06-30T07:30:35Z</time>
      </trkpt>
      <trkpt lat="42.42757" lon="2.23765">
        <ele>2745.66</ele>
        <time>2016-06-30T07:30:46Z</time>
      </trkpt>
      <trkpt lat="42.42757" lon="2.23761">
        <ele>2748.07</ele>
        <time>2016-06-30T07:30:56Z</time>
      </trkpt>
      <trkpt lat="42.42759" lon="2.23757">
        <ele>2749.03</ele>
        <time>2016-06-30T07:31:06Z</time>
      </trkpt>
      <trkpt lat="42.42757" lon="2.23754">
        <ele>2749.99</ele>
        <time>2016-06-30T07:31:17Z</time>
      </trkpt>
      <trkpt lat="42.42759" lon="2.23748">
        <ele>2751.91</ele>
        <time>2016-06-30T07:31:30Z</time>
      </trkpt>
      <trkpt lat="42.42758" lon="2.23742">
        <ele>2753.35</ele>
        <time>2016-06-30T07:31:40Z</time>
      </trkpt>
      <trkpt lat="42.42757" lon="2.2374">
        <ele>2754.31</ele>
        <time>2016-06-30T07:31:54Z</time>
      </trkpt>
      <trkpt lat="42.42757" lon="2.23737">
        <ele>2755.28</ele>
        <time>2016-06-30T07:32:15Z</time>
      </trkpt>
      <trkpt lat="42.42754" lon="2.23735">
        <ele>2756.72</ele>
        <time>2016-06-30T07:32:28Z</time>
      </trkpt>
      <trkpt lat="42.4275" lon="2.23733">
        <ele>2758.64</ele>
        <time>2016-06-30T07:32:38Z</time>
      </trkpt>
      <trkpt lat="42.42751" lon="2.2373">
        <ele>2762</ele>
        <time>2016-06-30T07:32:46Z</time>
      </trkpt>
      <trkpt lat="42.4275" lon="2.23726">
        <ele>2764.41</ele>
        <time>2016-06-30T07:32:58Z</time>
      </trkpt>
      <trkpt lat="42.42749" lon="2.23722">
        <ele>2764.89</ele>
        <time>2016-06-30T07:33:10Z</time>
      </trkpt>
      <trkpt lat="42.42747" lon="2.23719">
        <ele>2765.85</ele>
        <time>2016-06-30T07:33:29Z</time>
      </trkpt>
      <trkpt lat="42.42744" lon="2.23717">
        <ele>2767.77</ele>
        <time>2016-06-30T07:33:41Z</time>
      </trkpt>
      <trkpt lat="42.42742" lon="2.23717">
        <ele>2768.73</ele>
        <time>2016-06-30T07:33:52Z</time>
      </trkpt>
      <trkpt lat="42.4274" lon="2.23716">
        <ele>2770.66</ele>
        <time>2016-06-30T07:34:03Z</time>
      </trkpt>
      <trkpt lat="42.42735" lon="2.23719">
        <ele>2772.1</ele>
        <time>2016-06-30T07:34:13Z</time>
      </trkpt>
      <trkpt lat="42.42734" lon="2.23721">
        <ele>2773.54</ele>
        <time>2016-06-30T07:34:29Z</time>
      </trkpt>
      <trkpt lat="42.42734" lon="2.23716">
        <ele>2775.46</ele>
        <time>2016-06-30T07:34:39Z</time>
      </trkpt>
      <trkpt lat="42.42733" lon="2.23712">
        <ele>2776.42</ele>
        <time>2016-06-30T07:34:48Z</time>
      </trkpt>
      <trkpt lat="42.42728" lon="2.23708">
        <ele>2778.35</ele>
        <time>2016-06-30T07:35:00Z</time>
      </trkpt>
      <trkpt lat="42.42727" lon="2.23705">
        <ele>2781.71</ele>
        <time>2016-06-30T07:35:08Z</time>
      </trkpt>
      <trkpt lat="42.42726" lon="2.23701">
        <ele>2783.15</ele>
        <time>2016-06-30T07:35:18Z</time>
      </trkpt>
      <trkpt lat="42.42729" lon="2.23697">
        <ele>2783.15</ele>
        <time>2016-06-30T07:35:30Z</time>
      </trkpt>
      <trkpt lat="42.42729" lon="2.23693">
        <ele>2786.52</ele>
        <time>2016-06-30T07:35:40Z</time>
      </trkpt>
      <trkpt lat="42.42729" lon="2.23693">
        <ele>2789.88</ele>
        <time>2016-06-30T07:35:47Z</time>
      </trkpt>
      <trkpt lat="42.42728" lon="2.23691">
        <ele>2789.88</ele>
        <time>2016-06-30T07:36:00Z</time>
      </trkpt>
      <trkpt lat="42.42723" lon="2.23687">
        <ele>2789.88</ele>
        <time>2016-06-30T07:36:11Z</time>
      </trkpt>
      <trkpt lat="42.4272" lon="2.23681">
        <ele>2793.25</ele>
        <time>2016-06-30T07:36:17Z</time>
      </trkpt>
      <trkpt lat="42.42719" lon="2.23674">
        <ele>2794.69</ele>
        <time>2016-06-30T07:36:29Z</time>
      </trkpt>
      <trkpt lat="42.42715" lon="2.23669">
        <ele>2795.17</ele>
        <time>2016-06-30T07:36:40Z</time>
      </trkpt>
      <trkpt lat="42.42709" lon="2.23658">
        <ele>2797.09</ele>
        <time>2016-06-30T07:36:54Z</time>
      </trkpt>
      <trkpt lat="42.42703" lon="2.23653">
        <ele>2798.05</ele>
        <time>2016-06-30T07:37:06Z</time>
      </trkpt>
      <trkpt lat="42.42701" lon="2.23651">
        <ele>2798.54</ele>
        <time>2016-06-30T07:37:09Z</time>
      </trkpt>
      <trkpt lat="42.42695" lon="2.23649">
        <ele>2799.98</ele>
        <time>2016-06-30T07:37:20Z</time>
      </trkpt>
      <trkpt lat="42.42691" lon="2.23643">
        <ele>2801.9</ele>
        <time>2016-06-30T07:37:31Z</time>
      </trkpt>
      <trkpt lat="42.42686" lon="2.2364">
        <ele>2803.34</ele>
        <time>2016-06-30T07:37:43Z</time>
      </trkpt>
      <trkpt lat="42.42685" lon="2.23635">
        <ele>2804.78</ele>
        <time>2016-06-30T07:37:54Z</time>
      </trkpt>
      <trkpt lat="42.42683" lon="2.2363">
        <ele>2806.23</ele>
        <time>2016-06-30T07:38:12Z</time>
      </trkpt>
      <trkpt lat="42.42678" lon="2.23628">
        <ele>2808.15</ele>
        <time>2016-06-30T07:38:23Z</time>
      </trkpt>
      <trkpt lat="42.42674" lon="2.23624">
        <ele>2810.55</ele>
        <time>2016-06-30T07:38:35Z</time>
      </trkpt>
      <trkpt lat="42.42671" lon="2.23623">
        <ele>2813.92</ele>
        <time>2016-06-30T07:38:40Z</time>
      </trkpt>
      <trkpt lat="42.42669" lon="2.23615">
        <ele>2814.88</ele>
        <time>2016-06-30T07:38:52Z</time>
      </trkpt>
      <trkpt lat="42.42664" lon="2.2361">
        <ele>2815.36</ele>
        <time>2016-06-30T07:39:05Z</time>
      </trkpt>
      <trkpt lat="42.42658" lon="2.23606">
        <ele>2816.8</ele>
        <time>2016-06-30T07:39:18Z</time>
      </trkpt>
      <trkpt lat="42.42659" lon="2.23598">
        <ele>2819.2</ele>
        <time>2016-06-30T07:39:31Z</time>
      </trkpt>
      <trkpt lat="42.42659" lon="2.23598">
        <ele>2820.65</ele>
        <time>2016-06-30T07:39:55Z</time>
      </trkpt>
      <trkpt lat="42.42657" lon="2.23591">
        <ele>2822.09</ele>
        <time>2016-06-30T07:40:05Z</time>
      </trkpt>
      <trkpt lat="42.42654" lon="2.23581">
        <ele>2823.05</ele>
        <time>2016-06-30T07:40:16Z</time>
      </trkpt>
      <trkpt lat="42.42653" lon="2.2358">
        <ele>2823.05</ele>
        <time>2016-06-30T07:40:17Z</time>
      </trkpt>
      <trkpt lat="42.42652" lon="2.23578">
        <ele>2823.53</ele>
        <time>2016-06-30T07:40:19Z</time>
      </trkpt>
      <trkpt lat="42.42648" lon="2.23572">
        <ele>2823.53</ele>
        <time>2016-06-30T07:40:24Z</time>
      </trkpt>
      <trkpt lat="42.42646" lon="2.2357">
        <ele>2823.53</ele>
        <time>2016-06-30T07:40:26Z</time>
      </trkpt>
      <trkpt lat="42.42643" lon="2.23563">
        <ele>2824.01</ele>
        <time>2016-06-30T07:40:32Z</time>
      </trkpt>
      <trkpt lat="42.42642" lon="2.23562">
        <ele>2824.01</ele>
        <time>2016-06-30T07:40:34Z</time>
      </trkpt>
      <trkpt lat="42.42635" lon="2.2355">
        <ele>2824.49</ele>
        <time>2016-06-30T07:40:46Z</time>
      </trkpt>
      <trkpt lat="42.4263" lon="2.23539">
        <ele>2826.41</ele>
        <time>2016-06-30T07:40:59Z</time>
      </trkpt>
      <trkpt lat="42.42631" lon="2.2353">
        <ele>2827.85</ele>
        <time>2016-06-30T07:41:12Z</time>
      </trkpt>
      <trkpt lat="42.42628" lon="2.23525">
        <ele>2829.78</ele>
        <time>2016-06-30T07:41:23Z</time>
      </trkpt>
      <trkpt lat="42.42627" lon="2.23518">
        <ele>2832.18</ele>
        <time>2016-06-30T07:41:34Z</time>
      </trkpt>
      <trkpt lat="42.42625" lon="2.23507">
        <ele>2834.1</ele>
        <time>2016-06-30T07:41:48Z</time>
      </trkpt>
      <trkpt lat="42.42624" lon="2.23498">
        <ele>2835.55</ele>
        <time>2016-06-30T07:41:59Z</time>
      </trkpt>
      <trkpt lat="42.42621" lon="2.23491">
        <ele>2838.91</ele>
        <time>2016-06-30T07:42:08Z</time>
      </trkpt>
      <trkpt lat="42.4262" lon="2.23489">
        <ele>2841.79</ele>
        <time>2016-06-30T07:42:11Z</time>
      </trkpt>
      <trkpt lat="42.42614" lon="2.23484">
        <ele>2842.76</ele>
        <time>2016-06-30T07:42:24Z</time>
      </trkpt>
      <trkpt lat="42.4261" lon="2.23479">
        <ele>2842.76</ele>
        <time>2016-06-30T07:42:34Z</time>
      </trkpt>
      <trkpt lat="42.4261" lon="2.23473">
        <ele>2842.76</ele>
        <time>2016-06-30T07:42:46Z</time>
      </trkpt>
      <trkpt lat="42.42611" lon="2.23466">
        <ele>2845.64</ele>
        <time>2016-06-30T07:42:59Z</time>
      </trkpt>
      <trkpt lat="42.42613" lon="2.2346">
        <ele>2846.12</ele>
        <time>2016-06-30T07:43:10Z</time>
      </trkpt>
      <trkpt lat="42.42615" lon="2.23454">
        <ele>2847.08</ele>
        <time>2016-06-30T07:43:21Z</time>
      </trkpt>
      <trkpt lat="42.42615" lon="2.23454">
        <ele>2848.52</ele>
        <time>2016-06-30T07:43:41Z</time>
      </trkpt>
      <trkpt lat="42.42613" lon="2.2345">
        <ele>2849</ele>
        <time>2016-06-30T07:43:59Z</time>
      </trkpt>
      <trkpt lat="42.42608" lon="2.23442">
        <ele>2849.97</ele>
        <time>2016-06-30T07:44:10Z</time>
      </trkpt>
      <trkpt lat="42.42605" lon="2.23433">
        <ele>2852.37</ele>
        <time>2016-06-30T07:44:22Z</time>
      </trkpt>
      <trkpt lat="42.42604" lon="2.23432">
        <ele>2852.37</ele>
        <time>2016-06-30T07:44:24Z</time>
      </trkpt>
      <trkpt lat="42.42602" lon="2.23424">
        <ele>2853.33</ele>
        <time>2016-06-30T07:44:35Z</time>
      </trkpt>
      <trkpt lat="42.42602" lon="2.23422">
        <ele>2855.25</ele>
        <time>2016-06-30T07:44:49Z</time>
      </trkpt>
      <trkpt lat="42.42603" lon="2.23416">
        <ele>2856.21</ele>
        <time>2016-06-30T07:45:00Z</time>
      </trkpt>
      <trkpt lat="42.42607" lon="2.23415">
        <ele>2857.18</ele>
        <time>2016-06-30T07:45:08Z</time>
      </trkpt>
      <trkpt lat="42.42609" lon="2.23414">
        <ele>2858.62</ele>
        <time>2016-06-30T07:45:22Z</time>
      </trkpt>
      <trkpt lat="42.4261" lon="2.23411">
        <ele>2860.54</ele>
        <time>2016-06-30T07:45:35Z</time>
      </trkpt>
      <trkpt lat="42.42609" lon="2.23408">
        <ele>2861.02</ele>
        <time>2016-06-30T07:45:50Z</time>
      </trkpt>
      <trkpt lat="42.42609" lon="2.23407">
        <ele>2861.98</ele>
        <time>2016-06-30T07:46:05Z</time>
      </trkpt>
      <trkpt lat="42.4261" lon="2.23407">
        <ele>2861.98</ele>
        <time>2016-06-30T07:46:18Z</time>
      </trkpt>
      <trkpt lat="42.42609" lon="2.23406">
        <ele>2862.94</ele>
        <time>2016-06-30T07:46:34Z</time>
      </trkpt>
      <trkpt lat="42.42609" lon="2.23402">
        <ele>2863.42</ele>
        <time>2016-06-30T07:46:46Z</time>
      </trkpt>
      <trkpt lat="42.42609" lon="2.23401">
        <ele>2863.42</ele>
        <time>2016-06-30T07:47:05Z</time>
      </trkpt>
      <trkpt lat="42.42611" lon="2.23399">
        <ele>2863.9</ele>
        <time>2016-06-30T07:47:22Z</time>
      </trkpt>
      <trkpt lat="42.42612" lon="2.23396">
        <ele>2863.9</ele>
        <time>2016-06-30T07:47:45Z</time>
      </trkpt>
      <trkpt lat="42.42611" lon="2.23395">
        <ele>2863.9</ele>
        <time>2016-06-30T07:47:49Z</time>
      </trkpt>
      <trkpt lat="42.42608" lon="2.23383">
        <ele>2864.39</ele>
        <time>2016-06-30T07:48:02Z</time>
      </trkpt>
      <trkpt lat="42.42608" lon="2.23381">
        <ele>2864.87</ele>
        <time>2016-06-30T07:48:04Z</time>
      </trkpt>
      <trkpt lat="42.42611" lon="2.23373">
        <ele>2865.83</ele>
        <time>2016-06-30T07:48:14Z</time>
      </trkpt>
      <trkpt lat="42.42612" lon="2.23365">
        <ele>2867.75</ele>
        <time>2016-06-30T07:48:25Z</time>
      </trkpt>
      <trkpt lat="42.42614" lon="2.23352">
        <ele>2869.19</ele>
        <time>2016-06-30T07:48:38Z</time>
      </trkpt>
      <trkpt lat="42.42613" lon="2.23336">
        <ele>2870.63</ele>
        <time>2016-06-30T07:48:50Z</time>
      </trkpt>
      <trkpt lat="42.42614" lon="2.23323">
        <ele>2870.63</ele>
        <time>2016-06-30T07:49:02Z</time>
      </trkpt>
      <trkpt lat="42.42615" lon="2.2331">
        <ele>2871.6</ele>
        <time>2016-06-30T07:49:14Z</time>
      </trkpt>
      <trkpt lat="42.42619" lon="2.23299">
        <ele>2872.56</ele>
        <time>2016-06-30T07:49:26Z</time>
      </trkpt>
      <trkpt lat="42.42623" lon="2.23292">
        <ele>2873.04</ele>
        <time>2016-06-30T07:49:37Z</time>
      </trkpt>
      <trkpt lat="42.42623" lon="2.23288">
        <ele>2874</ele>
        <time>2016-06-30T07:49:48Z</time>
      </trkpt>
      <trkpt lat="42.42624" lon="2.23288">
        <ele>2874</ele>
        <time>2016-06-30T07:50:04Z</time>
      </trkpt>
      <trkpt lat="42.42623" lon="2.23288">
        <ele>2874</ele>
        <time>2016-06-30T07:50:16Z</time>
      </trkpt>
      <trkpt lat="42.42623" lon="2.23289">
        <ele>2874</ele>
        <time>2016-06-30T07:50:52Z</time>
      </trkpt>
      <trkpt lat="42.42624" lon="2.23289">
        <ele>2874.48</ele>
        <time>2016-06-30T07:51:06Z</time>
      </trkpt>
      <trkpt lat="42.42624" lon="2.23288">
        <ele>2873.52</ele>
        <time>2016-06-30T07:51:46Z</time>
      </trkpt>
      <trkpt lat="42.42624" lon="2.23287">
        <ele>2873.04</ele>
        <time>2016-06-30T07:52:25Z</time>
      </trkpt>
      <trkpt lat="42.42624" lon="2.23287">
        <ele>2873.04</ele>
        <time>2016-06-30T07:53:03Z</time>
      </trkpt>
      <trkpt lat="42.42623" lon="2.23287">
        <ele>2874.48</ele>
        <time>2016-06-30T07:53:39Z</time>
      </trkpt>
      <trkpt lat="42.42623" lon="2.23287">
        <ele>2874.96</ele>
        <time>2016-06-30T07:54:13Z</time>
      </trkpt>
      <trkpt lat="42.42623" lon="2.23287">
        <ele>2873.52</ele>
        <time>2016-06-30T07:54:44Z</time>
      </trkpt>
      <trkpt lat="42.42623" lon="2.23288">
        <ele>2874</ele>
        <time>2016-06-30T07:55:13Z</time>
      </trkpt>
      <trkpt lat="42.42623" lon="2.23289">
        <ele>2874</ele>
        <time>2016-06-30T07:55:52Z</time>
      </trkpt>
      <trkpt lat="42.42622" lon="2.23289">
        <ele>2874.48</ele>
        <time>2016-06-30T07:56:35Z</time>
      </trkpt>
      <trkpt lat="42.42622" lon="2.23289">
        <ele>2874.48</ele>
        <time>2016-06-30T07:57:16Z</time>
      </trkpt>
      <trkpt lat="42.42622" lon="2.23289">
        <ele>2874.48</ele>
        <time>2016-06-30T07:57:59Z</time>
      </trkpt>
      <trkpt lat="42.42622" lon="2.23289">
        <ele>2874.96</ele>
        <time>2016-06-30T07:58:26Z</time>
      </trkpt>
      <trkpt lat="42.42622" lon="2.23289">
        <ele>2874.96</ele>
        <time>2016-06-30T07:58:54Z</time>
      </trkpt>
      <trkpt lat="42.42623" lon="2.2329">
        <ele>2874.96</ele>
        <time>2016-06-30T07:59:24Z</time>
      </trkpt>
      <trkpt lat="42.42623" lon="2.2329">
        <ele>2874.96</ele>
        <time>2016-06-30T07:59:53Z</time>
      </trkpt>
      <trkpt lat="42.42623" lon="2.2329">
        <ele>2874.96</ele>
        <time>2016-06-30T08:00:27Z</time>
      </trkpt>
      <trkpt lat="42.42623" lon="2.2329">
        <ele>2875.44</ele>
        <time>2016-06-30T08:00:29Z</time>
      </trkpt>
      <trkpt lat="42.42622" lon="2.2329">
        <ele>2875.44</ele>
        <time>2016-06-30T08:00:37Z</time>
      </trkpt>
      <trkpt lat="42.42623" lon="2.2329">
        <ele>2875.44</ele>
        <time>2016-06-30T08:00:54Z</time>
      </trkpt>
      <trkpt lat="42.42623" lon="2.2329">
        <ele>2876.4</ele>
        <time>2016-06-30T08:01:16Z</time>
      </trkpt>
      <trkpt lat="42.42624" lon="2.2329">
        <ele>2876.4</ele>
        <time>2016-06-30T08:01:32Z</time>
      </trkpt>
      <trkpt lat="42.42623" lon="2.23291">
        <ele>2876.4</ele>
        <time>2016-06-30T08:02:10Z</time>
      </trkpt>
      <trkpt lat="42.42623" lon="2.23291">
        <ele>2876.4</ele>
        <time>2016-06-30T08:02:43Z</time>
      </trkpt>
      <trkpt lat="42.42623" lon="2.23291">
        <ele>2876.4</ele>
        <time>2016-06-30T08:03:17Z</time>
      </trkpt>
      <trkpt lat="42.42623" lon="2.23291">
        <ele>2876.88</ele>
        <time>2016-06-30T08:03:54Z</time>
      </trkpt>
      <trkpt lat="42.42623" lon="2.23291">
        <ele>2876.88</ele>
        <time>2016-06-30T08:04:30Z</time>
      </trkpt>
      <trkpt lat="42.42623" lon="2.23291">
        <ele>2876.88</ele>
        <time>2016-06-30T08:05:00Z</time>
      </trkpt>
      <trkpt lat="42.42623" lon="2.23291">
        <ele>2875.44</ele>
        <time>2016-06-30T08:05:32Z</time>
      </trkpt>
      <trkpt lat="42.42623" lon="2.23292">
        <ele>2875.92</ele>
        <time>2016-06-30T08:06:11Z</time>
      </trkpt>
      <trkpt lat="42.42623" lon="2.23292">
        <ele>2875.92</ele>
        <time>2016-06-30T08:06:53Z</time>
      </trkpt>
      <trkpt lat="42.42622" lon="2.23291">
        <ele>2875.92</ele>
        <time>2016-06-30T08:07:20Z</time>
      </trkpt>
      <trkpt lat="42.42622" lon="2.2329">
        <ele>2875.92</ele>
        <time>2016-06-30T08:07:36Z</time>
      </trkpt>
      <trkpt lat="42.42623" lon="2.2329">
        <ele>2875.92</ele>
        <time>2016-06-30T08:07:58Z</time>
      </trkpt>
      <trkpt lat="42.42623" lon="2.2329">
        <ele>2875.92</ele>
        <time>2016-06-30T08:08:13Z</time>
      </trkpt>
      <trkpt lat="42.42623" lon="2.2329">
        <ele>2875.92</ele>
        <time>2016-06-30T08:08:28Z</time>
      </trkpt>
      <trkpt lat="42.42622" lon="2.23288">
        <ele>2875.92</ele>
        <time>2016-06-30T08:08:47Z</time>
      </trkpt>
      <trkpt lat="42.42622" lon="2.23288">
        <ele>2876.4</ele>
        <time>2016-06-30T08:09:04Z</time>
      </trkpt>
      <trkpt lat="42.42623" lon="2.23288">
        <ele>2876.4</ele>
        <time>2016-06-30T08:09:23Z</time>
      </trkpt>
      <trkpt lat="42.42623" lon="2.23289">
        <ele>2877.84</ele>
        <time>2016-06-30T08:09:43Z</time>
      </trkpt>
      <trkpt lat="42.42623" lon="2.23288">
        <ele>2877.84</ele>
        <time>2016-06-30T08:10:11Z</time>
      </trkpt>
      <trkpt lat="42.42623" lon="2.23289">
        <ele>2877.84</ele>
        <time>2016-06-30T08:10:32Z</time>
      </trkpt>
      <trkpt lat="42.42623" lon="2.23288">
        <ele>2877.84</ele>
        <time>2016-06-30T08:10:46Z</time>
      </trkpt>
      <trkpt lat="42.42623" lon="2.23289">
        <ele>2877.36</ele>
        <time>2016-06-30T08:11:02Z</time>
      </trkpt>
      <trkpt lat="42.42623" lon="2.23289">
        <ele>2877.36</ele>
        <time>2016-06-30T08:11:14Z</time>
      </trkpt>
      <trkpt lat="42.42623" lon="2.23289">
        <ele>2877.36</ele>
        <time>2016-06-30T08:11:33Z</time>
      </trkpt>
      <trkpt lat="42.42623" lon="2.23289">
        <ele>2876.88</ele>
        <time>2016-06-30T08:12:01Z</time>
      </trkpt>
      <trkpt lat="42.42623" lon="2.23289">
        <ele>2876.88</ele>
        <time>2016-06-30T08:12:25Z</time>
      </trkpt>
      <trkpt lat="42.42623" lon="2.23288">
        <ele>2876.88</ele>
        <time>2016-06-30T08:12:37Z</time>
      </trkpt>
      <trkpt lat="42.42624" lon="2.23288">
        <ele>2876.88</ele>
        <time>2016-06-30T08:12:38Z</time>
      </trkpt>
      <trkpt lat="42.42623" lon="2.23284">
        <ele>2876.88</ele>
        <time>2016-06-30T08:12:42Z</time>
      </trkpt>
      <trkpt lat="42.42623" lon="2.23281">
        <ele>2876.88</ele>
        <time>2016-06-30T08:12:45Z</time>
      </trkpt>
      <trkpt lat="42.42625" lon="2.23276">
        <ele>2876.88</ele>
        <time>2016-06-30T08:12:49Z</time>
      </trkpt>
      <trkpt lat="42.42624" lon="2.23275">
        <ele>2876.88</ele>
        <time>2016-06-30T08:12:51Z</time>
      </trkpt>
      <trkpt lat="42.42623" lon="2.23268">
        <ele>2876.4</ele>
        <time>2016-06-30T08:12:56Z</time>
      </trkpt>
      <trkpt lat="42.42629" lon="2.23253">
        <ele>2874.48</ele>
        <time>2016-06-30T08:13:08Z</time>
      </trkpt>
      <trkpt lat="42.42634" lon="2.23239">
        <ele>2874</ele>
        <time>2016-06-30T08:13:19Z</time>
      </trkpt>
      <trkpt lat="42.42635" lon="2.23229">
        <ele>2874</ele>
        <time>2016-06-30T08:13:28Z</time>
      </trkpt>
      <trkpt lat="42.42635" lon="2.23223">
        <ele>2874</ele>
        <time>2016-06-30T08:13:34Z</time>
      </trkpt>
      <trkpt lat="42.42636" lon="2.23218">
        <ele>2874</ele>
        <time>2016-06-30T08:13:38Z</time>
      </trkpt>
      <trkpt lat="42.42636" lon="2.23215">
        <ele>2874</ele>
        <time>2016-06-30T08:13:40Z</time>
      </trkpt>
      <trkpt lat="42.42641" lon="2.23204">
        <ele>2874</ele>
        <time>2016-06-30T08:13:49Z</time>
      </trkpt>
      <trkpt lat="42.42641" lon="2.23201">
        <ele>2874</ele>
        <time>2016-06-30T08:13:51Z</time>
      </trkpt>
      <trkpt lat="42.42642" lon="2.23183">
        <ele>2874</ele>
        <time>2016-06-30T08:14:04Z</time>
      </trkpt>
      <trkpt lat="42.42642" lon="2.23175">
        <ele>2873.52</ele>
        <time>2016-06-30T08:14:11Z</time>
      </trkpt>
      <trkpt lat="42.42651" lon="2.23169">
        <ele>2873.52</ele>
        <time>2016-06-30T08:14:22Z</time>
      </trkpt>
      <trkpt lat="42.42654" lon="2.23167">
        <ele>2873.52</ele>
        <time>2016-06-30T08:14:26Z</time>
      </trkpt>
      <trkpt lat="42.42655" lon="2.23163">
        <ele>2874.48</ele>
        <time>2016-06-30T08:14:30Z</time>
      </trkpt>
      <trkpt lat="42.42655" lon="2.2316">
        <ele>2874.96</ele>
        <time>2016-06-30T08:14:32Z</time>
      </trkpt>
      <trkpt lat="42.42658" lon="2.23154">
        <ele>2875.92</ele>
        <time>2016-06-30T08:14:42Z</time>
      </trkpt>
      <trkpt lat="42.42659" lon="2.23151">
        <ele>2875.92</ele>
        <time>2016-06-30T08:14:46Z</time>
      </trkpt>
      <trkpt lat="42.42662" lon="2.23149">
        <ele>2875.92</ele>
        <time>2016-06-30T08:14:49Z</time>
      </trkpt>
      <trkpt lat="42.42665" lon="2.23142">
        <ele>2875.92</ele>
        <time>2016-06-30T08:14:56Z</time>
      </trkpt>
      <trkpt lat="42.42669" lon="2.23129">
        <ele>2875.92</ele>
        <time>2016-06-30T08:15:09Z</time>
      </trkpt>
      <trkpt lat="42.42671" lon="2.23123">
        <ele>2875.92</ele>
        <time>2016-06-30T08:15:14Z</time>
      </trkpt>
      <trkpt lat="42.42672" lon="2.23121">
        <ele>2875.92</ele>
        <time>2016-06-30T08:15:17Z</time>
      </trkpt>
      <trkpt lat="42.42673" lon="2.23116">
        <ele>2875.92</ele>
        <time>2016-06-30T08:15:21Z</time>
      </trkpt>
      <trkpt lat="42.42674" lon="2.23114">
        <ele>2875.92</ele>
        <time>2016-06-30T08:15:23Z</time>
      </trkpt>
      <trkpt lat="42.42678" lon="2.23108">
        <ele>2875.92</ele>
        <time>2016-06-30T08:15:32Z</time>
      </trkpt>
      <trkpt lat="42.42678" lon="2.23106">
        <ele>2875.92</ele>
        <time>2016-06-30T08:15:35Z</time>
      </trkpt>
      <trkpt lat="42.42681" lon="2.23094">
        <ele>2875.92</ele>
        <time>2016-06-30T08:15:45Z</time>
      </trkpt>
      <trkpt lat="42.42684" lon="2.2309">
        <ele>2875.92</ele>
        <time>2016-06-30T08:15:56Z</time>
      </trkpt>
      <trkpt lat="42.42686" lon="2.23089">
        <ele>2877.36</ele>
        <time>2016-06-30T08:16:18Z</time>
      </trkpt>
      <trkpt lat="42.42689" lon="2.23086">
        <ele>2877.36</ele>
        <time>2016-06-30T08:16:31Z</time>
      </trkpt>
      <trkpt lat="42.42694" lon="2.23081">
        <ele>2877.36</ele>
        <time>2016-06-30T08:16:43Z</time>
      </trkpt>
      <trkpt lat="42.42697" lon="2.23081">
        <ele>2877.36</ele>
        <time>2016-06-30T08:16:54Z</time>
      </trkpt>
      <trkpt lat="42.42698" lon="2.23081">
        <ele>2875.92</ele>
        <time>2016-06-30T08:17:21Z</time>
      </trkpt>
      <trkpt lat="42.42698" lon="2.2308">
        <ele>2876.4</ele>
        <time>2016-06-30T08:17:42Z</time>
      </trkpt>
      <trkpt lat="42.42693" lon="2.23077">
        <ele>2876.4</ele>
        <time>2016-06-30T08:17:55Z</time>
      </trkpt>
      <trkpt lat="42.42687" lon="2.23073">
        <ele>2876.4</ele>
        <time>2016-06-30T08:18:06Z</time>
      </trkpt>
      <trkpt lat="42.42687" lon="2.23072">
        <ele>2876.4</ele>
        <time>2016-06-30T08:18:07Z</time>
      </trkpt>
      <trkpt lat="42.42683" lon="2.23069">
        <ele>2874.48</ele>
        <time>2016-06-30T08:18:19Z</time>
      </trkpt>
      <trkpt lat="42.42682" lon="2.23066">
        <ele>2874</ele>
        <time>2016-06-30T08:18:24Z</time>
      </trkpt>
      <trkpt lat="42.42679" lon="2.23063">
        <ele>2871.11</ele>
        <time>2016-06-30T08:18:36Z</time>
      </trkpt>
      <trkpt lat="42.42676" lon="2.2306">
        <ele>2869.67</ele>
        <time>2016-06-30T08:18:48Z</time>
      </trkpt>
      <trkpt lat="42.42674" lon="2.23057">
        <ele>2868.23</ele>
        <time>2016-06-30T08:18:58Z</time>
      </trkpt>
      <trkpt lat="42.42671" lon="2.23051">
        <ele>2864.87</ele>
        <time>2016-06-30T08:19:11Z</time>
      </trkpt>
      <trkpt lat="42.4267" lon="2.23049">
        <ele>2861.98</ele>
        <time>2016-06-30T08:19:15Z</time>
      </trkpt>
      <trkpt lat="42.4267" lon="2.23045">
        <ele>2858.62</ele>
        <time>2016-06-30T08:19:20Z</time>
      </trkpt>
      <trkpt lat="42.42672" lon="2.23041">
        <ele>2858.62</ele>
        <time>2016-06-30T08:19:31Z</time>
      </trkpt>
      <trkpt lat="42.42674" lon="2.23034">
        <ele>2858.62</ele>
        <time>2016-06-30T08:19:43Z</time>
      </trkpt>
      <trkpt lat="42.42674" lon="2.23032">
        <ele>2858.14</ele>
        <time>2016-06-30T08:19:47Z</time>
      </trkpt>
      <trkpt lat="42.42674" lon="2.23031">
        <ele>2857.66</ele>
        <time>2016-06-30T08:19:52Z</time>
      </trkpt>
      <trkpt lat="42.42672" lon="2.2303">
        <ele>2856.69</ele>
        <time>2016-06-30T08:19:56Z</time>
      </trkpt>
      <trkpt lat="42.42673" lon="2.23023">
        <ele>2852.37</ele>
        <time>2016-06-30T08:20:06Z</time>
      </trkpt>
      <trkpt lat="42.4267" lon="2.23021">
        <ele>2849</ele>
        <time>2016-06-30T08:20:11Z</time>
      </trkpt>
      <trkpt lat="42.42669" lon="2.23014">
        <ele>2849</ele>
        <time>2016-06-30T08:20:21Z</time>
      </trkpt>
      <trkpt lat="42.42666" lon="2.2301">
        <ele>2848.04</ele>
        <time>2016-06-30T08:20:30Z</time>
      </trkpt>
      <trkpt lat="42.42665" lon="2.23001">
        <ele>2846.12</ele>
        <time>2016-06-30T08:20:41Z</time>
      </trkpt>
      <trkpt lat="42.42662" lon="2.22997">
        <ele>2842.76</ele>
        <time>2016-06-30T08:20:49Z</time>
      </trkpt>
      <trkpt lat="42.42661" lon="2.22995">
        <ele>2839.39</ele>
        <time>2016-06-30T08:20:54Z</time>
      </trkpt>
      <trkpt lat="42.4266" lon="2.22987">
        <ele>2837.95</ele>
        <time>2016-06-30T08:21:06Z</time>
      </trkpt>
      <trkpt lat="42.4266" lon="2.22987">
        <ele>2837.95</ele>
        <time>2016-06-30T08:21:08Z</time>
      </trkpt>
      <trkpt lat="42.42655" lon="2.22977">
        <ele>2836.03</ele>
        <time>2016-06-30T08:21:21Z</time>
      </trkpt>
      <trkpt lat="42.42652" lon="2.22972">
        <ele>2835.06</ele>
        <time>2016-06-30T08:21:27Z</time>
      </trkpt>
      <trkpt lat="42.4265" lon="2.22963">
        <ele>2832.66</ele>
        <time>2016-06-30T08:21:38Z</time>
      </trkpt>
      <trkpt lat="42.42649" lon="2.22961">
        <ele>2829.78</ele>
        <time>2016-06-30T08:21:41Z</time>
      </trkpt>
      <trkpt lat="42.42648" lon="2.2296">
        <ele>2828.82</ele>
        <time>2016-06-30T08:21:42Z</time>
      </trkpt>
      <trkpt lat="42.42649" lon="2.2295">
        <ele>2825.93</ele>
        <time>2016-06-30T08:21:52Z</time>
      </trkpt>
      <trkpt lat="42.42645" lon="2.2294">
        <ele>2825.93</ele>
        <time>2016-06-30T08:22:04Z</time>
      </trkpt>
      <trkpt lat="42.42646" lon="2.22937">
        <ele>2825.45</ele>
        <time>2016-06-30T08:22:07Z</time>
      </trkpt>
      <trkpt lat="42.42642" lon="2.22929">
        <ele>2823.53</ele>
        <time>2016-06-30T08:22:16Z</time>
      </trkpt>
      <trkpt lat="42.42639" lon="2.22921">
        <ele>2821.13</ele>
        <time>2016-06-30T08:22:25Z</time>
      </trkpt>
      <trkpt lat="42.42638" lon="2.22914">
        <ele>2816.8</ele>
        <time>2016-06-30T08:22:31Z</time>
      </trkpt>
      <trkpt lat="42.42638" lon="2.22908">
        <ele>2815.36</ele>
        <time>2016-06-30T08:22:36Z</time>
      </trkpt>
      <trkpt lat="42.42636" lon="2.22892">
        <ele>2814.88</ele>
        <time>2016-06-30T08:22:50Z</time>
      </trkpt>
      <trkpt lat="42.42634" lon="2.22882">
        <ele>2812.96</ele>
        <time>2016-06-30T08:23:01Z</time>
      </trkpt>
      <trkpt lat="42.42633" lon="2.22881">
        <ele>2810.55</ele>
        <time>2016-06-30T08:23:22Z</time>
      </trkpt>
      <trkpt lat="42.42633" lon="2.2288">
        <ele>2809.59</ele>
        <time>2016-06-30T08:23:39Z</time>
      </trkpt>
      <trkpt lat="42.42633" lon="2.2288">
        <ele>2809.59</ele>
        <time>2016-06-30T08:23:56Z</time>
      </trkpt>
      <trkpt lat="42.42634" lon="2.22879">
        <ele>2809.11</ele>
        <time>2016-06-30T08:24:06Z</time>
      </trkpt>
      <trkpt lat="42.42633" lon="2.22873">
        <ele>2807.67</ele>
        <time>2016-06-30T08:24:18Z</time>
      </trkpt>
      <trkpt lat="42.42633" lon="2.2287">
        <ele>2806.71</ele>
        <time>2016-06-30T08:24:22Z</time>
      </trkpt>
      <trkpt lat="42.42635" lon="2.22867">
        <ele>2805.26</ele>
        <time>2016-06-30T08:24:34Z</time>
      </trkpt>
      <trkpt lat="42.42633" lon="2.22862">
        <ele>2802.86</ele>
        <time>2016-06-30T08:24:44Z</time>
      </trkpt>
      <trkpt lat="42.42632" lon="2.22862">
        <ele>2799.5</ele>
        <time>2016-06-30T08:24:48Z</time>
      </trkpt>
      <trkpt lat="42.42632" lon="2.22861">
        <ele>2798.05</ele>
        <time>2016-06-30T08:24:50Z</time>
      </trkpt>
      <trkpt lat="42.42632" lon="2.22856">
        <ele>2797.57</ele>
        <time>2016-06-30T08:25:01Z</time>
      </trkpt>
      <trkpt lat="42.42632" lon="2.22848">
        <ele>2797.57</ele>
        <time>2016-06-30T08:25:11Z</time>
      </trkpt>
      <trkpt lat="42.42631" lon="2.2284">
        <ele>2796.13</ele>
        <time>2016-06-30T08:25:22Z</time>
      </trkpt>
      <trkpt lat="42.42631" lon="2.22836">
        <ele>2795.65</ele>
        <time>2016-06-30T08:25:27Z</time>
      </trkpt>
      <trkpt lat="42.42631" lon="2.22832">
        <ele>2793.25</ele>
        <time>2016-06-30T08:25:37Z</time>
      </trkpt>
      <trkpt lat="42.42631" lon="2.22832">
        <ele>2792.77</ele>
        <time>2016-06-30T08:25:45Z</time>
      </trkpt>
      <trkpt lat="42.42632" lon="2.22832">
        <ele>2791.81</ele>
        <time>2016-06-30T08:25:59Z</time>
      </trkpt>
      <trkpt lat="42.42632" lon="2.22832">
        <ele>2791.33</ele>
        <time>2016-06-30T08:26:22Z</time>
      </trkpt>
      <trkpt lat="42.42632" lon="2.22831">
        <ele>2791.33</ele>
        <time>2016-06-30T08:26:42Z</time>
      </trkpt>
      <trkpt lat="42.42631" lon="2.2283">
        <ele>2791.33</ele>
        <time>2016-06-30T08:26:55Z</time>
      </trkpt>
      <trkpt lat="42.42631" lon="2.22831">
        <ele>2791.33</ele>
        <time>2016-06-30T08:27:16Z</time>
      </trkpt>
      <trkpt lat="42.42631" lon="2.22831">
        <ele>2791.33</ele>
        <time>2016-06-30T08:27:29Z</time>
      </trkpt>
      <trkpt lat="42.4263" lon="2.2283">
        <ele>2791.33</ele>
        <time>2016-06-30T08:27:41Z</time>
      </trkpt>
      <trkpt lat="42.42632" lon="2.22828">
        <ele>2789.4</ele>
        <time>2016-06-30T08:27:50Z</time>
      </trkpt>
      <trkpt lat="42.4263" lon="2.22822">
        <ele>2787.96</ele>
        <time>2016-06-30T08:28:00Z</time>
      </trkpt>
      <trkpt lat="42.4263" lon="2.22817">
        <ele>2786.52</ele>
        <time>2016-06-30T08:28:09Z</time>
      </trkpt>
      <trkpt lat="42.4263" lon="2.22809">
        <ele>2784.12</ele>
        <time>2016-06-30T08:28:21Z</time>
      </trkpt>
      <trkpt lat="42.4263" lon="2.22807">
        <ele>2783.15</ele>
        <time>2016-06-30T08:28:26Z</time>
      </trkpt>
      <trkpt lat="42.4263" lon="2.22803">
        <ele>2779.79</ele>
        <time>2016-06-30T08:28:38Z</time>
      </trkpt>
      <trkpt lat="42.4263" lon="2.22802">
        <ele>2778.35</ele>
        <time>2016-06-30T08:28:40Z</time>
      </trkpt>
      <trkpt lat="42.4263" lon="2.22797">
        <ele>2774.98</ele>
        <time>2016-06-30T08:28:45Z</time>
      </trkpt>
      <trkpt lat="42.42628" lon="2.2279">
        <ele>2774.5</ele>
        <time>2016-06-30T08:28:56Z</time>
      </trkpt>
      <trkpt lat="42.42627" lon="2.22782">
        <ele>2773.06</ele>
        <time>2016-06-30T08:29:07Z</time>
      </trkpt>
      <trkpt lat="42.42625" lon="2.22769">
        <ele>2770.18</ele>
        <time>2016-06-30T08:29:21Z</time>
      </trkpt>
      <trkpt lat="42.42624" lon="2.22769">
        <ele>2769.21</ele>
        <time>2016-06-30T08:29:25Z</time>
      </trkpt>
      <trkpt lat="42.42624" lon="2.22755">
        <ele>2767.77</ele>
        <time>2016-06-30T08:29:38Z</time>
      </trkpt>
      <trkpt lat="42.42624" lon="2.22748">
        <ele>2767.29</ele>
        <time>2016-06-30T08:29:45Z</time>
      </trkpt>
      <trkpt lat="42.42625" lon="2.22734">
        <ele>2764.89</ele>
        <time>2016-06-30T08:29:56Z</time>
      </trkpt>
      <trkpt lat="42.42624" lon="2.22726">
        <ele>2763.93</ele>
        <time>2016-06-30T08:30:08Z</time>
      </trkpt>
      <trkpt lat="42.42625" lon="2.22724">
        <ele>2762.49</ele>
        <time>2016-06-30T08:30:18Z</time>
      </trkpt>
      <trkpt lat="42.42624" lon="2.2272">
        <ele>2761.04</ele>
        <time>2016-06-30T08:30:28Z</time>
      </trkpt>
      <trkpt lat="42.42624" lon="2.22715">
        <ele>2760.08</ele>
        <time>2016-06-30T08:30:38Z</time>
      </trkpt>
      <trkpt lat="42.42624" lon="2.22714">
        <ele>2759.6</ele>
        <time>2016-06-30T08:30:40Z</time>
      </trkpt>
      <trkpt lat="42.42621" lon="2.22704">
        <ele>2757.2</ele>
        <time>2016-06-30T08:30:51Z</time>
      </trkpt>
      <trkpt lat="42.4262" lon="2.22701">
        <ele>2756.72</ele>
        <time>2016-06-30T08:30:55Z</time>
      </trkpt>
      <trkpt lat="42.42622" lon="2.22697">
        <ele>2755.28</ele>
        <time>2016-06-30T08:31:00Z</time>
      </trkpt>
      <trkpt lat="42.42623" lon="2.22682">
        <ele>2751.91</ele>
        <time>2016-06-30T08:31:12Z</time>
      </trkpt>
      <trkpt lat="42.42623" lon="2.22676">
        <ele>2748.55</ele>
        <time>2016-06-30T08:31:17Z</time>
      </trkpt>
      <trkpt lat="42.42621" lon="2.2266">
        <ele>2747.59</ele>
        <time>2016-06-30T08:31:29Z</time>
      </trkpt>
      <trkpt lat="42.42621" lon="2.22655">
        <ele>2747.59</ele>
        <time>2016-06-30T08:31:34Z</time>
      </trkpt>
      <trkpt lat="42.42621" lon="2.2265">
        <ele>2747.59</ele>
        <time>2016-06-30T08:31:40Z</time>
      </trkpt>
      <trkpt lat="42.42624" lon="2.22641">
        <ele>2747.59</ele>
        <time>2016-06-30T08:31:51Z</time>
      </trkpt>
      <trkpt lat="42.42625" lon="2.22637">
        <ele>2747.1</ele>
        <time>2016-06-30T08:32:03Z</time>
      </trkpt>
      <trkpt lat="42.42623" lon="2.22633">
        <ele>2745.66</ele>
        <time>2016-06-30T08:32:16Z</time>
      </trkpt>
      <trkpt lat="42.42622" lon="2.22629">
        <ele>2743.74</ele>
        <time>2016-06-30T08:32:26Z</time>
      </trkpt>
      <trkpt lat="42.4262" lon="2.22627">
        <ele>2742.78</ele>
        <time>2016-06-30T08:32:35Z</time>
      </trkpt>
      <trkpt lat="42.42619" lon="2.22625">
        <ele>2741.34</ele>
        <time>2016-06-30T08:32:40Z</time>
      </trkpt>
      <trkpt lat="42.4262" lon="2.22621">
        <ele>2740.86</ele>
        <time>2016-06-30T08:32:44Z</time>
      </trkpt>
      <trkpt lat="42.42621" lon="2.22607">
        <ele>2739.89</ele>
        <time>2016-06-30T08:32:56Z</time>
      </trkpt>
      <trkpt lat="42.42621" lon="2.22604">
        <ele>2739.89</ele>
        <time>2016-06-30T08:32:58Z</time>
      </trkpt>
      <trkpt lat="42.42619" lon="2.22593">
        <ele>2737.97</ele>
        <time>2016-06-30T08:33:11Z</time>
      </trkpt>
      <trkpt lat="42.42619" lon="2.22589">
        <ele>2737.01</ele>
        <time>2016-06-30T08:33:15Z</time>
      </trkpt>
      <trkpt lat="42.42616" lon="2.22587">
        <ele>2733.65</ele>
        <time>2016-06-30T08:33:19Z</time>
      </trkpt>
      <trkpt lat="42.42615" lon="2.22587">
        <ele>2732.2</ele>
        <time>2016-06-30T08:33:21Z</time>
      </trkpt>
      <trkpt lat="42.42612" lon="2.2258">
        <ele>2730.76</ele>
        <time>2016-06-30T08:33:30Z</time>
      </trkpt>
      <trkpt lat="42.42613" lon="2.22566">
        <ele>2730.76</ele>
        <time>2016-06-30T08:33:42Z</time>
      </trkpt>
      <trkpt lat="42.42614" lon="2.22564">
        <ele>2730.76</ele>
        <time>2016-06-30T08:33:46Z</time>
      </trkpt>
      <trkpt lat="42.42616" lon="2.22553">
        <ele>2729.32</ele>
        <time>2016-06-30T08:33:59Z</time>
      </trkpt>
      <trkpt lat="42.42613" lon="2.22549">
        <ele>2727.4</ele>
        <time>2016-06-30T08:34:08Z</time>
      </trkpt>
      <trkpt lat="42.42611" lon="2.2255">
        <ele>2724.51</ele>
        <time>2016-06-30T08:34:11Z</time>
      </trkpt>
      <trkpt lat="42.42609" lon="2.22546">
        <ele>2722.11</ele>
        <time>2016-06-30T08:34:20Z</time>
      </trkpt>
      <trkpt lat="42.4261" lon="2.22539">
        <ele>2722.11</ele>
        <time>2016-06-30T08:34:30Z</time>
      </trkpt>
      <trkpt lat="42.42608" lon="2.22538">
        <ele>2721.63</ele>
        <time>2016-06-30T08:34:47Z</time>
      </trkpt>
      <trkpt lat="42.42603" lon="2.22533">
        <ele>2720.67</ele>
        <time>2016-06-30T08:34:59Z</time>
      </trkpt>
      <trkpt lat="42.42603" lon="2.22519">
        <ele>2718.75</ele>
        <time>2016-06-30T08:35:09Z</time>
      </trkpt>
      <trkpt lat="42.42601" lon="2.22509">
        <ele>2718.27</ele>
        <time>2016-06-30T08:35:18Z</time>
      </trkpt>
      <trkpt lat="42.426" lon="2.22502">
        <ele>2717.78</ele>
        <time>2016-06-30T08:35:26Z</time>
      </trkpt>
      <trkpt lat="42.426" lon="2.22499">
        <ele>2717.78</ele>
        <time>2016-06-30T08:35:28Z</time>
      </trkpt>
      <trkpt lat="42.426" lon="2.22498">
        <ele>2717.3</ele>
        <time>2016-06-30T08:35:32Z</time>
      </trkpt>
      <trkpt lat="42.42597" lon="2.22497">
        <ele>2716.82</ele>
        <time>2016-06-30T08:35:36Z</time>
      </trkpt>
      <trkpt lat="42.42596" lon="2.22492">
        <ele>2715.86</ele>
        <time>2016-06-30T08:35:41Z</time>
      </trkpt>
      <trkpt lat="42.42593" lon="2.22478">
        <ele>2713.94</ele>
        <time>2016-06-30T08:35:54Z</time>
      </trkpt>
      <trkpt lat="42.42593" lon="2.22474">
        <ele>2712.98</ele>
        <time>2016-06-30T08:35:59Z</time>
      </trkpt>
      <trkpt lat="42.42593" lon="2.22469">
        <ele>2711.54</ele>
        <time>2016-06-30T08:36:04Z</time>
      </trkpt>
      <trkpt lat="42.42592" lon="2.22463">
        <ele>2711.06</ele>
        <time>2016-06-30T08:36:09Z</time>
      </trkpt>
      <trkpt lat="42.42591" lon="2.22457">
        <ele>2710.09</ele>
        <time>2016-06-30T08:36:14Z</time>
      </trkpt>
      <trkpt lat="42.42592" lon="2.22454">
        <ele>2709.13</ele>
        <time>2016-06-30T08:36:16Z</time>
      </trkpt>
      <trkpt lat="42.42595" lon="2.22433">
        <ele>2708.17</ele>
        <time>2016-06-30T08:36:31Z</time>
      </trkpt>
      <trkpt lat="42.42596" lon="2.2243">
        <ele>2707.21</ele>
        <time>2016-06-30T08:36:44Z</time>
      </trkpt>
      <trkpt lat="42.42596" lon="2.22429">
        <ele>2706.73</ele>
        <time>2016-06-30T08:37:02Z</time>
      </trkpt>
      <trkpt lat="42.42596" lon="2.22429">
        <ele>2706.73</ele>
        <time>2016-06-30T08:37:19Z</time>
      </trkpt>
      <trkpt lat="42.42593" lon="2.22424">
        <ele>2706.25</ele>
        <time>2016-06-30T08:37:30Z</time>
      </trkpt>
      <trkpt lat="42.42592" lon="2.22421">
        <ele>2651.93</ele>
        <time>2016-06-30T08:38:36Z</time>
      </trkpt>
      <trkpt lat="42.42592" lon="2.22421">
        <ele>2651.93</ele>
        <time>2016-06-30T08:38:37Z</time>
      </trkpt>
      <trkpt lat="42.42593" lon="2.22424">
        <ele>2651.93</ele>
        <time>2016-06-30T08:38:53Z</time>
      </trkpt>
      <trkpt lat="42.42592" lon="2.22422">
        <ele>2652.9</ele>
        <time>2016-06-30T08:39:16Z</time>
      </trkpt>
      <trkpt lat="42.4259" lon="2.22417">
        <ele>2653.38</ele>
        <time>2016-06-30T08:39:37Z</time>
      </trkpt>
      <trkpt lat="42.42587" lon="2.22411">
        <ele>2653.86</ele>
        <time>2016-06-30T08:39:46Z</time>
      </trkpt>
      <trkpt lat="42.42582" lon="2.22402">
        <ele>2655.3</ele>
        <time>2016-06-30T08:39:57Z</time>
      </trkpt>
      <trkpt lat="42.42582" lon="2.22402">
        <ele>2655.3</ele>
        <time>2016-06-30T08:39:58Z</time>
      </trkpt>
      <trkpt lat="42.4258" lon="2.22395">
        <ele>2657.22</ele>
        <time>2016-06-30T08:40:12Z</time>
      </trkpt>
      <trkpt lat="42.42575" lon="2.22394">
        <ele>2658.66</ele>
        <time>2016-06-30T08:40:25Z</time>
      </trkpt>
      <trkpt lat="42.42575" lon="2.22392">
        <ele>2661.07</ele>
        <time>2016-06-30T08:40:35Z</time>
      </trkpt>
      <trkpt lat="42.42575" lon="2.22388">
        <ele>2662.51</ele>
        <time>2016-06-30T08:40:48Z</time>
      </trkpt>
      <trkpt lat="42.42572" lon="2.22384">
        <ele>2664.91</ele>
        <time>2016-06-30T08:41:00Z</time>
      </trkpt>
      <trkpt lat="42.4257" lon="2.2238">
        <ele>2666.83</ele>
        <time>2016-06-30T08:41:10Z</time>
      </trkpt>
      <trkpt lat="42.42569" lon="2.22375">
        <ele>2669.24</ele>
        <time>2016-06-30T08:41:20Z</time>
      </trkpt>
      <trkpt lat="42.42566" lon="2.22374">
        <ele>2672.12</ele>
        <time>2016-06-30T08:41:28Z</time>
      </trkpt>
      <trkpt lat="42.42566" lon="2.22374">
        <ele>2675.01</ele>
        <time>2016-06-30T08:41:33Z</time>
      </trkpt>
      <trkpt lat="42.42566" lon="2.22373">
        <ele>2675.49</ele>
        <time>2016-06-30T08:41:48Z</time>
      </trkpt>
      <trkpt lat="42.42565" lon="2.22371">
        <ele>2675.97</ele>
        <time>2016-06-30T08:42:00Z</time>
      </trkpt>
      <trkpt lat="42.42564" lon="2.2237">
        <ele>2676.45</ele>
        <time>2016-06-30T08:42:10Z</time>
      </trkpt>
      <trkpt lat="42.42562" lon="2.22365">
        <ele>2678.85</ele>
        <time>2016-06-30T08:42:21Z</time>
      </trkpt>
      <trkpt lat="42.4256" lon="2.22361">
        <ele>2679.33</ele>
        <time>2016-06-30T08:42:25Z</time>
      </trkpt>
      <trkpt lat="42.4255" lon="2.22353">
        <ele>2680.77</ele>
        <time>2016-06-30T08:42:38Z</time>
      </trkpt>
      <trkpt lat="42.42543" lon="2.22345">
        <ele>2682.22</ele>
        <time>2016-06-30T08:42:50Z</time>
      </trkpt>
      <trkpt lat="42.42538" lon="2.22342">
        <ele>2684.14</ele>
        <time>2016-06-30T08:43:01Z</time>
      </trkpt>
      <trkpt lat="42.42533" lon="2.22336">
        <ele>2685.58</ele>
        <time>2016-06-30T08:43:12Z</time>
      </trkpt>
      <trkpt lat="42.42532" lon="2.22335">
        <ele>2687.02</ele>
        <time>2016-06-30T08:43:27Z</time>
      </trkpt>
      <trkpt lat="42.4253" lon="2.22333">
        <ele>2687.98</ele>
        <time>2016-06-30T08:43:47Z</time>
      </trkpt>
      <trkpt lat="42.4253" lon="2.22332">
        <ele>2687.98</ele>
        <time>2016-06-30T08:43:48Z</time>
      </trkpt>
      <trkpt lat="42.42525" lon="2.22323">
        <ele>2688.46</ele>
        <time>2016-06-30T08:43:59Z</time>
      </trkpt>
      <trkpt lat="42.42524" lon="2.22322">
        <ele>2688.46</ele>
        <time>2016-06-30T08:44:00Z</time>
      </trkpt>
      <trkpt lat="42.42514" lon="2.22312">
        <ele>2687.5</ele>
        <time>2016-06-30T08:44:14Z</time>
      </trkpt>
      <trkpt lat="42.42507" lon="2.22302">
        <ele>2687.98</ele>
        <time>2016-06-30T08:44:26Z</time>
      </trkpt>
      <trkpt lat="42.42502" lon="2.22296">
        <ele>2687.98</ele>
        <time>2016-06-30T08:44:34Z</time>
      </trkpt>
      <trkpt lat="42.42501" lon="2.22294">
        <ele>2688.46</ele>
        <time>2016-06-30T08:44:37Z</time>
      </trkpt>
      <trkpt lat="42.42497" lon="2.22285">
        <ele>2688.46</ele>
        <time>2016-06-30T08:44:49Z</time>
      </trkpt>
      <trkpt lat="42.42496" lon="2.22283">
        <ele>2688.46</ele>
        <time>2016-06-30T08:44:51Z</time>
      </trkpt>
      <trkpt lat="42.42496" lon="2.22275">
        <ele>2689.91</ele>
        <time>2016-06-30T08:45:03Z</time>
      </trkpt>
      <trkpt lat="42.42496" lon="2.22269">
        <ele>2693.75</ele>
        <time>2016-06-30T08:45:13Z</time>
      </trkpt>
      <trkpt lat="42.42494" lon="2.22264">
        <ele>2693.27</ele>
        <time>2016-06-30T08:45:22Z</time>
      </trkpt>
      <trkpt lat="42.42493" lon="2.2226">
        <ele>2692.31</ele>
        <time>2016-06-30T08:45:32Z</time>
      </trkpt>
      <trkpt lat="42.42493" lon="2.22259">
        <ele>2691.35</ele>
        <time>2016-06-30T08:45:43Z</time>
      </trkpt>
      <trkpt lat="42.42492" lon="2.22257">
        <ele>2690.39</ele>
        <time>2016-06-30T08:45:54Z</time>
      </trkpt>
      <trkpt lat="42.4249" lon="2.22256">
        <ele>2690.87</ele>
        <time>2016-06-30T08:45:56Z</time>
      </trkpt>
      <trkpt lat="42.42488" lon="2.22254">
        <ele>2690.39</ele>
        <time>2016-06-30T08:45:59Z</time>
      </trkpt>
      <trkpt lat="42.42486" lon="2.22249">
        <ele>2688.46</ele>
        <time>2016-06-30T08:46:09Z</time>
      </trkpt>
      <trkpt lat="42.42486" lon="2.22249">
        <ele>2688.94</ele>
        <time>2016-06-30T08:46:11Z</time>
      </trkpt>
      <trkpt lat="42.42483" lon="2.22247">
        <ele>2686.06</ele>
        <time>2016-06-30T08:46:15Z</time>
      </trkpt>
      <trkpt lat="42.42481" lon="2.22246">
        <ele>2684.62</ele>
        <time>2016-06-30T08:46:17Z</time>
      </trkpt>
      <trkpt lat="42.42478" lon="2.22243">
        <ele>2682.22</ele>
        <time>2016-06-30T08:46:21Z</time>
      </trkpt>
      <trkpt lat="42.42472" lon="2.22236">
        <ele>2682.7</ele>
        <time>2016-06-30T08:46:32Z</time>
      </trkpt>
      <trkpt lat="42.42468" lon="2.22228">
        <ele>2684.14</ele>
        <time>2016-06-30T08:46:41Z</time>
      </trkpt>
      <trkpt lat="42.42466" lon="2.22224">
        <ele>2686.06</ele>
        <time>2016-06-30T08:46:54Z</time>
      </trkpt>
      <trkpt lat="42.42466" lon="2.22223">
        <ele>2687.02</ele>
        <time>2016-06-30T08:46:59Z</time>
      </trkpt>
      <trkpt lat="42.42466" lon="2.22221">
        <ele>2690.39</ele>
        <time>2016-06-30T08:47:10Z</time>
      </trkpt>
      <trkpt lat="42.42464" lon="2.22219">
        <ele>2691.35</ele>
        <time>2016-06-30T08:47:18Z</time>
      </trkpt>
      <trkpt lat="42.42463" lon="2.22216">
        <ele>2690.39</ele>
        <time>2016-06-30T08:47:31Z</time>
      </trkpt>
      <trkpt lat="42.42462" lon="2.22216">
        <ele>2689.91</ele>
        <time>2016-06-30T08:47:34Z</time>
      </trkpt>
      <trkpt lat="42.42462" lon="2.22214">
        <ele>2690.39</ele>
        <time>2016-06-30T08:47:40Z</time>
      </trkpt>
      <trkpt lat="42.42459" lon="2.22211">
        <ele>2690.39</ele>
        <time>2016-06-30T08:47:47Z</time>
      </trkpt>
      <trkpt lat="42.42457" lon="2.22205">
        <ele>2690.87</ele>
        <time>2016-06-30T08:47:57Z</time>
      </trkpt>
      <trkpt lat="42.42456" lon="2.22204">
        <ele>2690.87</ele>
        <time>2016-06-30T08:47:59Z</time>
      </trkpt>
      <trkpt lat="42.42452" lon="2.2219">
        <ele>2690.87</ele>
        <time>2016-06-30T08:48:11Z</time>
      </trkpt>
      <trkpt lat="42.42451" lon="2.22184">
        <ele>2692.31</ele>
        <time>2016-06-30T08:48:22Z</time>
      </trkpt>
      <trkpt lat="42.42449" lon="2.22179">
        <ele>2693.27</ele>
        <time>2016-06-30T08:48:35Z</time>
      </trkpt>
      <trkpt lat="42.42447" lon="2.22173">
        <ele>2693.75</ele>
        <time>2016-06-30T08:48:50Z</time>
      </trkpt>
      <trkpt lat="42.42444" lon="2.22168">
        <ele>2694.23</ele>
        <time>2016-06-30T08:49:06Z</time>
      </trkpt>
      <trkpt lat="42.42441" lon="2.2216">
        <ele>2695.19</ele>
        <time>2016-06-30T08:49:18Z</time>
      </trkpt>
      <trkpt lat="42.42437" lon="2.22155">
        <ele>2697.6</ele>
        <time>2016-06-30T08:49:30Z</time>
      </trkpt>
      <trkpt lat="42.42433" lon="2.22149">
        <ele>2699.52</ele>
        <time>2016-06-30T08:49:41Z</time>
      </trkpt>
      <trkpt lat="42.42432" lon="2.22144">
        <ele>2701.44</ele>
        <time>2016-06-30T08:49:52Z</time>
      </trkpt>
      <trkpt lat="42.42432" lon="2.22144">
        <ele>2702.4</ele>
        <time>2016-06-30T08:49:53Z</time>
      </trkpt>
      <trkpt lat="42.42429" lon="2.22137">
        <ele>2705.29</ele>
        <time>2016-06-30T08:50:02Z</time>
      </trkpt>
      <trkpt lat="42.42426" lon="2.22132">
        <ele>2707.69</ele>
        <time>2016-06-30T08:50:13Z</time>
      </trkpt>
      <trkpt lat="42.42426" lon="2.22132">
        <ele>2708.17</ele>
        <time>2016-06-30T08:50:29Z</time>
      </trkpt>
      <trkpt lat="42.42421" lon="2.22129">
        <ele>2707.69</ele>
        <time>2016-06-30T08:50:43Z</time>
      </trkpt>
      <trkpt lat="42.4242" lon="2.22127">
        <ele>2709.13</ele>
        <time>2016-06-30T08:50:49Z</time>
      </trkpt>
      <trkpt lat="42.42414" lon="2.22124">
        <ele>2710.57</ele>
        <time>2016-06-30T08:51:00Z</time>
      </trkpt>
      <trkpt lat="42.42412" lon="2.22118">
        <ele>2711.06</ele>
        <time>2016-06-30T08:51:08Z</time>
      </trkpt>
      <trkpt lat="42.42406" lon="2.22114">
        <ele>2712.5</ele>
        <time>2016-06-30T08:51:21Z</time>
      </trkpt>
      <trkpt lat="42.42404" lon="2.22109">
        <ele>2713.94</ele>
        <time>2016-06-30T08:51:31Z</time>
      </trkpt>
      <trkpt lat="42.42402" lon="2.22106">
        <ele>2715.86</ele>
        <time>2016-06-30T08:51:46Z</time>
      </trkpt>
      <trkpt lat="42.424" lon="2.22102">
        <ele>2717.3</ele>
        <time>2016-06-30T08:51:59Z</time>
      </trkpt>
      <trkpt lat="42.42397" lon="2.22101">
        <ele>2718.27</ele>
        <time>2016-06-30T08:52:09Z</time>
      </trkpt>
      <trkpt lat="42.42395" lon="2.22097">
        <ele>2720.19</ele>
        <time>2016-06-30T08:52:20Z</time>
      </trkpt>
      <trkpt lat="42.42395" lon="2.22091">
        <ele>2722.11</ele>
        <time>2016-06-30T08:52:32Z</time>
      </trkpt>
      <trkpt lat="42.42392" lon="2.22087">
        <ele>2724.99</ele>
        <time>2016-06-30T08:52:44Z</time>
      </trkpt>
      <trkpt lat="42.4239" lon="2.22085">
        <ele>2726.92</ele>
        <time>2016-06-30T08:52:57Z</time>
      </trkpt>
      <trkpt lat="42.42389" lon="2.22084">
        <ele>2727.88</ele>
        <time>2016-06-30T08:53:18Z</time>
      </trkpt>
      <trkpt lat="42.42387" lon="2.22082">
        <ele>2729.32</ele>
        <time>2016-06-30T08:53:35Z</time>
      </trkpt>
      <trkpt lat="42.42385" lon="2.22077">
        <ele>2731.72</ele>
        <time>2016-06-30T08:53:48Z</time>
      </trkpt>
      <trkpt lat="42.42387" lon="2.22075">
        <ele>2733.17</ele>
        <time>2016-06-30T08:53:59Z</time>
      </trkpt>
      <trkpt lat="42.42386" lon="2.22072">
        <ele>2735.09</ele>
        <time>2016-06-30T08:54:12Z</time>
      </trkpt>
      <trkpt lat="42.42382" lon="2.22069">
        <ele>2736.05</ele>
        <time>2016-06-30T08:54:22Z</time>
      </trkpt>
      <trkpt lat="42.42382" lon="2.22065">
        <ele>2738.45</ele>
        <time>2016-06-30T08:54:33Z</time>
      </trkpt>
      <trkpt lat="42.42381" lon="2.22064">
        <ele>2739.41</ele>
        <time>2016-06-30T08:54:45Z</time>
      </trkpt>
      <trkpt lat="42.42381" lon="2.22064">
        <ele>2739.89</ele>
        <time>2016-06-30T08:54:51Z</time>
      </trkpt>
      <trkpt lat="42.42375" lon="2.22062">
        <ele>2740.86</ele>
        <time>2016-06-30T08:55:02Z</time>
      </trkpt>
      <trkpt lat="42.42374" lon="2.22061">
        <ele>2742.3</ele>
        <time>2016-06-30T08:55:13Z</time>
      </trkpt>
      <trkpt lat="42.42371" lon="2.22059">
        <ele>2744.22</ele>
        <time>2016-06-30T08:55:25Z</time>
      </trkpt>
      <trkpt lat="42.42371" lon="2.22059">
        <ele>2746.14</ele>
        <time>2016-06-30T08:55:36Z</time>
      </trkpt>
      <trkpt lat="42.42369" lon="2.22058">
        <ele>2747.1</ele>
        <time>2016-06-30T08:55:46Z</time>
      </trkpt>
      <trkpt lat="42.42367" lon="2.22054">
        <ele>2748.55</ele>
        <time>2016-06-30T08:55:59Z</time>
      </trkpt>
      <trkpt lat="42.42364" lon="2.22051">
        <ele>2750.47</ele>
        <time>2016-06-30T08:56:08Z</time>
      </trkpt>
      <trkpt lat="42.4236" lon="2.22048">
        <ele>2751.43</ele>
        <time>2016-06-30T08:56:18Z</time>
      </trkpt>
      <trkpt lat="42.42357" lon="2.22044">
        <ele>2753.35</ele>
        <time>2016-06-30T08:56:29Z</time>
      </trkpt>
      <trkpt lat="42.42356" lon="2.22043">
        <ele>2755.28</ele>
        <time>2016-06-30T08:56:51Z</time>
      </trkpt>
      <trkpt lat="42.42353" lon="2.2204">
        <ele>2756.24</ele>
        <time>2016-06-30T08:57:03Z</time>
      </trkpt>
      <trkpt lat="42.42348" lon="2.22038">
        <ele>2758.64</ele>
        <time>2016-06-30T08:57:14Z</time>
      </trkpt>
      <trkpt lat="42.42346" lon="2.22033">
        <ele>2762</ele>
        <time>2016-06-30T08:57:26Z</time>
      </trkpt>
      <trkpt lat="42.42348" lon="2.2203">
        <ele>2765.85</ele>
        <time>2016-06-30T08:57:33Z</time>
      </trkpt>
      <trkpt lat="42.42348" lon="2.22027">
        <ele>2766.33</ele>
        <time>2016-06-30T08:57:45Z</time>
      </trkpt>
      <trkpt lat="42.42346" lon="2.22027">
        <ele>2767.29</ele>
        <time>2016-06-30T08:58:04Z</time>
      </trkpt>
      <trkpt lat="42.42343" lon="2.22026">
        <ele>2768.25</ele>
        <time>2016-06-30T08:58:15Z</time>
      </trkpt>
      <trkpt lat="42.42342" lon="2.22024">
        <ele>2770.18</ele>
        <time>2016-06-30T08:58:29Z</time>
      </trkpt>
      <trkpt lat="42.4234" lon="2.2202">
        <ele>2771.14</ele>
        <time>2016-06-30T08:58:40Z</time>
      </trkpt>
      <trkpt lat="42.4234" lon="2.22016">
        <ele>2773.06</ele>
        <time>2016-06-30T08:58:51Z</time>
      </trkpt>
      <trkpt lat="42.42337" lon="2.22013">
        <ele>2774.5</ele>
        <time>2016-06-30T08:59:01Z</time>
      </trkpt>
      <trkpt lat="42.42338" lon="2.22013">
        <ele>2775.94</ele>
        <time>2016-06-30T08:59:26Z</time>
      </trkpt>
      <trkpt lat="42.42337" lon="2.22012">
        <ele>2776.91</ele>
        <time>2016-06-30T08:59:42Z</time>
      </trkpt>
      <trkpt lat="42.42335" lon="2.2201">
        <ele>2778.35</ele>
        <time>2016-06-30T08:59:53Z</time>
      </trkpt>
      <trkpt lat="42.42329" lon="2.22007">
        <ele>2779.79</ele>
        <time>2016-06-30T09:00:06Z</time>
      </trkpt>
      <trkpt lat="42.42331" lon="2.22004">
        <ele>2781.71</ele>
        <time>2016-06-30T09:00:16Z</time>
      </trkpt>
      <trkpt lat="42.42331" lon="2.22003">
        <ele>2782.67</ele>
        <time>2016-06-30T09:00:25Z</time>
      </trkpt>
      <trkpt lat="42.4233" lon="2.22001">
        <ele>2784.12</ele>
        <time>2016-06-30T09:00:36Z</time>
      </trkpt>
      <trkpt lat="42.42329" lon="2.22">
        <ele>2786.52</ele>
        <time>2016-06-30T09:00:51Z</time>
      </trkpt>
      <trkpt lat="42.42324" lon="2.21996">
        <ele>2788.44</ele>
        <time>2016-06-30T09:01:04Z</time>
      </trkpt>
      <trkpt lat="42.42322" lon="2.21992">
        <ele>2790.36</ele>
        <time>2016-06-30T09:01:15Z</time>
      </trkpt>
      <trkpt lat="42.4232" lon="2.2199">
        <ele>2792.29</ele>
        <time>2016-06-30T09:01:25Z</time>
      </trkpt>
      <trkpt lat="42.42318" lon="2.21988">
        <ele>2794.21</ele>
        <time>2016-06-30T09:01:39Z</time>
      </trkpt>
      <trkpt lat="42.42317" lon="2.21987">
        <ele>2795.17</ele>
        <time>2016-06-30T09:01:43Z</time>
      </trkpt>
      <trkpt lat="42.42314" lon="2.21983">
        <ele>2796.61</ele>
        <time>2016-06-30T09:01:51Z</time>
      </trkpt>
      <trkpt lat="42.42312" lon="2.21979">
        <ele>2798.54</ele>
        <time>2016-06-30T09:01:59Z</time>
      </trkpt>
      <trkpt lat="42.42311" lon="2.21975">
        <ele>2800.46</ele>
        <time>2016-06-30T09:02:10Z</time>
      </trkpt>
      <trkpt lat="42.42311" lon="2.21971">
        <ele>2801.9</ele>
        <time>2016-06-30T09:02:17Z</time>
      </trkpt>
      <trkpt lat="42.4231" lon="2.21965">
        <ele>2802.38</ele>
        <time>2016-06-30T09:02:23Z</time>
      </trkpt>
      <trkpt lat="42.4231" lon="2.21962">
        <ele>2803.34</ele>
        <time>2016-06-30T09:02:25Z</time>
      </trkpt>
      <trkpt lat="42.42306" lon="2.2195">
        <ele>2803.82</ele>
        <time>2016-06-30T09:02:37Z</time>
      </trkpt>
      <trkpt lat="42.42302" lon="2.21943">
        <ele>2805.26</ele>
        <time>2016-06-30T09:02:49Z</time>
      </trkpt>
      <trkpt lat="42.42302" lon="2.21942">
        <ele>2808.15</ele>
        <time>2016-06-30T09:02:55Z</time>
      </trkpt>
      <trkpt lat="42.42298" lon="2.2193">
        <ele>2810.07</ele>
        <time>2016-06-30T09:03:08Z</time>
      </trkpt>
      <trkpt lat="42.42297" lon="2.21927">
        <ele>2808.63</ele>
        <time>2016-06-30T09:03:12Z</time>
      </trkpt>
      <trkpt lat="42.42293" lon="2.21924">
        <ele>2806.71</ele>
        <time>2016-06-30T09:03:23Z</time>
      </trkpt>
      <trkpt lat="42.42292" lon="2.21921">
        <ele>2804.78</ele>
        <time>2016-06-30T09:03:35Z</time>
      </trkpt>
      <trkpt lat="42.42291" lon="2.2192">
        <ele>2804.78</ele>
        <time>2016-06-30T09:03:47Z</time>
      </trkpt>
      <trkpt lat="42.42292" lon="2.21919">
        <ele>2804.78</ele>
        <time>2016-06-30T09:04:08Z</time>
      </trkpt>
      <trkpt lat="42.42292" lon="2.21917">
        <ele>2803.82</ele>
        <time>2016-06-30T09:04:21Z</time>
      </trkpt>
      <trkpt lat="42.42292" lon="2.21914">
        <ele>2803.82</ele>
        <time>2016-06-30T09:04:34Z</time>
      </trkpt>
      <trkpt lat="42.42293" lon="2.21911">
        <ele>2803.34</ele>
        <time>2016-06-30T09:04:47Z</time>
      </trkpt>
      <trkpt lat="42.42294" lon="2.21909">
        <ele>2802.38</ele>
        <time>2016-06-30T09:04:57Z</time>
      </trkpt>
      <trkpt lat="42.42297" lon="2.21903">
        <ele>2802.38</ele>
        <time>2016-06-30T09:05:06Z</time>
      </trkpt>
      <trkpt lat="42.42298" lon="2.21896">
        <ele>2801.42</ele>
        <time>2016-06-30T09:05:15Z</time>
      </trkpt>
      <trkpt lat="42.42298" lon="2.21893">
        <ele>2798.54</ele>
        <time>2016-06-30T09:05:22Z</time>
      </trkpt>
      <trkpt lat="42.42297" lon="2.21892">
        <ele>2797.09</ele>
        <time>2016-06-30T09:05:24Z</time>
      </trkpt>
      <trkpt lat="42.42295" lon="2.21897">
        <ele>2794.69</ele>
        <time>2016-06-30T09:05:30Z</time>
      </trkpt>
      <trkpt lat="42.42292" lon="2.21893">
        <ele>2794.69</ele>
        <time>2016-06-30T09:05:41Z</time>
      </trkpt>
      <trkpt lat="42.4229" lon="2.21888">
        <ele>2790.84</ele>
        <time>2016-06-30T09:05:52Z</time>
      </trkpt>
      <trkpt lat="42.42288" lon="2.21887">
        <ele>2788.92</ele>
        <time>2016-06-30T09:06:02Z</time>
      </trkpt>
      <trkpt lat="42.42287" lon="2.21885">
        <ele>2788.92</ele>
        <time>2016-06-30T09:06:05Z</time>
      </trkpt>
      <trkpt lat="42.42285" lon="2.21882">
        <ele>2788.92</ele>
        <time>2016-06-30T09:06:16Z</time>
      </trkpt>
      <trkpt lat="42.42284" lon="2.21877">
        <ele>2787</ele>
        <time>2016-06-30T09:06:27Z</time>
      </trkpt>
      <trkpt lat="42.42284" lon="2.21876">
        <ele>2786.04</ele>
        <time>2016-06-30T09:06:28Z</time>
      </trkpt>
      <trkpt lat="42.42285" lon="2.21869">
        <ele>2782.67</ele>
        <time>2016-06-30T09:06:33Z</time>
      </trkpt>
      <trkpt lat="42.42284" lon="2.21864">
        <ele>2779.31</ele>
        <time>2016-06-30T09:06:37Z</time>
      </trkpt>
      <trkpt lat="42.42282" lon="2.21859">
        <ele>2777.39</ele>
        <time>2016-06-30T09:06:41Z</time>
      </trkpt>
      <trkpt lat="42.42282" lon="2.21851">
        <ele>2779.31</ele>
        <time>2016-06-30T09:06:54Z</time>
      </trkpt>
      <trkpt lat="42.42278" lon="2.21844">
        <ele>2775.46</ele>
        <time>2016-06-30T09:07:01Z</time>
      </trkpt>
      <trkpt lat="42.42277" lon="2.21838">
        <ele>2771.62</ele>
        <time>2016-06-30T09:07:07Z</time>
      </trkpt>
      <trkpt lat="42.42277" lon="2.21835">
        <ele>2771.62</ele>
        <time>2016-06-30T09:07:20Z</time>
      </trkpt>
      <trkpt lat="42.42277" lon="2.21833">
        <ele>2773.06</ele>
        <time>2016-06-30T09:07:32Z</time>
      </trkpt>
      <trkpt lat="42.42276" lon="2.21829">
        <ele>2771.14</ele>
        <time>2016-06-30T09:07:38Z</time>
      </trkpt>
      <trkpt lat="42.42272" lon="2.21819">
        <ele>2769.7</ele>
        <time>2016-06-30T09:07:49Z</time>
      </trkpt>
      <trkpt lat="42.42272" lon="2.21812">
        <ele>2766.81</ele>
        <time>2016-06-30T09:08:03Z</time>
      </trkpt>
      <trkpt lat="42.42272" lon="2.21806">
        <ele>2765.85</ele>
        <time>2016-06-30T09:08:13Z</time>
      </trkpt>
      <trkpt lat="42.4227" lon="2.21802">
        <ele>2762.49</ele>
        <time>2016-06-30T09:08:20Z</time>
      </trkpt>
      <trkpt lat="42.4227" lon="2.21796">
        <ele>2759.12</ele>
        <time>2016-06-30T09:08:25Z</time>
      </trkpt>
      <trkpt lat="42.42268" lon="2.21785">
        <ele>2757.68</ele>
        <time>2016-06-30T09:08:37Z</time>
      </trkpt>
      <trkpt lat="42.42267" lon="2.21781">
        <ele>2757.2</ele>
        <time>2016-06-30T09:08:41Z</time>
      </trkpt>
      <trkpt lat="42.42264" lon="2.21776">
        <ele>2752.87</ele>
        <time>2016-06-30T09:08:49Z</time>
      </trkpt>
      <trkpt lat="42.42264" lon="2.21773">
        <ele>2749.51</ele>
        <time>2016-06-30T09:08:53Z</time>
      </trkpt>
      <trkpt lat="42.42263" lon="2.21764">
        <ele>2748.07</ele>
        <time>2016-06-30T09:09:04Z</time>
      </trkpt>
      <trkpt lat="42.42263" lon="2.21754">
        <ele>2747.1</ele>
        <time>2016-06-30T09:09:16Z</time>
      </trkpt>
      <trkpt lat="42.42261" lon="2.21751">
        <ele>2746.62</ele>
        <time>2016-06-30T09:09:19Z</time>
      </trkpt>
      <trkpt lat="42.42265" lon="2.21744">
        <ele>2746.14</ele>
        <time>2016-06-30T09:09:25Z</time>
      </trkpt>
      <trkpt lat="42.42265" lon="2.21741">
        <ele>2745.66</ele>
        <time>2016-06-30T09:09:27Z</time>
      </trkpt>
      <trkpt lat="42.42266" lon="2.21739">
        <ele>2745.66</ele>
        <time>2016-06-30T09:09:29Z</time>
      </trkpt>
      <trkpt lat="42.42267" lon="2.21729">
        <ele>2745.66</ele>
        <time>2016-06-30T09:09:39Z</time>
      </trkpt>
      <trkpt lat="42.42268" lon="2.21721">
        <ele>2745.66</ele>
        <time>2016-06-30T09:09:49Z</time>
      </trkpt>
      <trkpt lat="42.4227" lon="2.21711">
        <ele>2748.07</ele>
        <time>2016-06-30T09:10:01Z</time>
      </trkpt>
      <trkpt lat="42.4227" lon="2.2171">
        <ele>2749.03</ele>
        <time>2016-06-30T09:10:11Z</time>
      </trkpt>
      <trkpt lat="42.42271" lon="2.21708">
        <ele>2750.47</ele>
        <time>2016-06-30T09:10:31Z</time>
      </trkpt>
      <trkpt lat="42.42272" lon="2.21695">
        <ele>2751.91</ele>
        <time>2016-06-30T09:10:45Z</time>
      </trkpt>
      <trkpt lat="42.42275" lon="2.21692">
        <ele>2753.83</ele>
        <time>2016-06-30T09:10:56Z</time>
      </trkpt>
      <trkpt lat="42.42277" lon="2.2169">
        <ele>2757.2</ele>
        <time>2016-06-30T09:11:05Z</time>
      </trkpt>
      <trkpt lat="42.42278" lon="2.21689">
        <ele>2760.56</ele>
        <time>2016-06-30T09:11:10Z</time>
      </trkpt>
      <trkpt lat="42.42278" lon="2.21687">
        <ele>2761.04</ele>
        <time>2016-06-30T09:11:23Z</time>
      </trkpt>
      <trkpt lat="42.42279" lon="2.21681">
        <ele>2761.52</ele>
        <time>2016-06-30T09:11:42Z</time>
      </trkpt>
      <trkpt lat="42.42281" lon="2.21676">
        <ele>2762</ele>
        <time>2016-06-30T09:11:56Z</time>
      </trkpt>
      <trkpt lat="42.42282" lon="2.21668">
        <ele>2763.93</ele>
        <time>2016-06-30T09:12:07Z</time>
      </trkpt>
      <trkpt lat="42.42284" lon="2.21661">
        <ele>2764.89</ele>
        <time>2016-06-30T09:12:18Z</time>
      </trkpt>
      <trkpt lat="42.42284" lon="2.2166">
        <ele>2765.85</ele>
        <time>2016-06-30T09:12:23Z</time>
      </trkpt>
      <trkpt lat="42.42286" lon="2.21655">
        <ele>2767.77</ele>
        <time>2016-06-30T09:12:34Z</time>
      </trkpt>
      <trkpt lat="42.42286" lon="2.21653">
        <ele>2768.25</ele>
        <time>2016-06-30T09:12:43Z</time>
      </trkpt>
      <trkpt lat="42.42288" lon="2.21645">
        <ele>2769.21</ele>
        <time>2016-06-30T09:12:55Z</time>
      </trkpt>
      <trkpt lat="42.4229" lon="2.21639">
        <ele>2771.14</ele>
        <time>2016-06-30T09:13:06Z</time>
      </trkpt>
      <trkpt lat="42.4229" lon="2.21636">
        <ele>2772.1</ele>
        <time>2016-06-30T09:13:18Z</time>
      </trkpt>
      <trkpt lat="42.4229" lon="2.21635">
        <ele>2772.58</ele>
        <time>2016-06-30T09:13:30Z</time>
      </trkpt>
      <trkpt lat="42.42292" lon="2.21632">
        <ele>2773.54</ele>
        <time>2016-06-30T09:13:41Z</time>
      </trkpt>
      <trkpt lat="42.42294" lon="2.21629">
        <ele>2775.46</ele>
        <time>2016-06-30T09:13:53Z</time>
      </trkpt>
      <trkpt lat="42.42294" lon="2.21627">
        <ele>2776.91</ele>
        <time>2016-06-30T09:14:06Z</time>
      </trkpt>
      <trkpt lat="42.42297" lon="2.21623">
        <ele>2779.31</ele>
        <time>2016-06-30T09:14:17Z</time>
      </trkpt>
      <trkpt lat="42.42298" lon="2.2162">
        <ele>2781.23</ele>
        <time>2016-06-30T09:14:34Z</time>
      </trkpt>
      <trkpt lat="42.42298" lon="2.21619">
        <ele>2782.19</ele>
        <time>2016-06-30T09:14:48Z</time>
      </trkpt>
      <trkpt lat="42.42299" lon="2.21618">
        <ele>2782.67</ele>
        <time>2016-06-30T09:15:12Z</time>
      </trkpt>
      <trkpt lat="42.42298" lon="2.21617">
        <ele>2783.15</ele>
        <time>2016-06-30T09:15:34Z</time>
      </trkpt>
      <trkpt lat="42.42299" lon="2.21616">
        <ele>2783.63</ele>
        <time>2016-06-30T09:15:47Z</time>
      </trkpt>
      <trkpt lat="42.423" lon="2.21611">
        <ele>2785.08</ele>
        <time>2016-06-30T09:15:59Z</time>
      </trkpt>
      <trkpt lat="42.423" lon="2.21609">
        <ele>2786.52</ele>
        <time>2016-06-30T09:16:13Z</time>
      </trkpt>
      <trkpt lat="42.42301" lon="2.21608">
        <ele>2787.96</ele>
        <time>2016-06-30T09:16:26Z</time>
      </trkpt>
      <trkpt lat="42.42301" lon="2.21607">
        <ele>2788.92</ele>
        <time>2016-06-30T09:16:42Z</time>
      </trkpt>
      <trkpt lat="42.42301" lon="2.21604">
        <ele>2789.88</ele>
        <time>2016-06-30T09:16:58Z</time>
      </trkpt>
      <trkpt lat="42.42302" lon="2.216">
        <ele>2789.88</ele>
        <time>2016-06-30T09:17:07Z</time>
      </trkpt>
      <trkpt lat="42.42304" lon="2.21589">
        <ele>2789.88</ele>
        <time>2016-06-30T09:17:18Z</time>
      </trkpt>
      <trkpt lat="42.42306" lon="2.21579">
        <ele>2790.84</ele>
        <time>2016-06-30T09:17:30Z</time>
      </trkpt>
      <trkpt lat="42.42306" lon="2.21574">
        <ele>2792.29</ele>
        <time>2016-06-30T09:17:43Z</time>
      </trkpt>
      <trkpt lat="42.42309" lon="2.21565">
        <ele>2794.21</ele>
        <time>2016-06-30T09:17:56Z</time>
      </trkpt>
      <trkpt lat="42.42312" lon="2.21556">
        <ele>2796.61</ele>
        <time>2016-06-30T09:18:08Z</time>
      </trkpt>
      <trkpt lat="42.42313" lon="2.21547">
        <ele>2798.05</ele>
        <time>2016-06-30T09:18:21Z</time>
      </trkpt>
      <trkpt lat="42.42313" lon="2.21547">
        <ele>2799.98</ele>
        <time>2016-06-30T09:18:43Z</time>
      </trkpt>
      <trkpt lat="42.42313" lon="2.21546">
        <ele>2799.98</ele>
        <time>2016-06-30T09:19:01Z</time>
      </trkpt>
      <trkpt lat="42.42315" lon="2.21538">
        <ele>2801.42</ele>
        <time>2016-06-30T09:19:12Z</time>
      </trkpt>
      <trkpt lat="42.42317" lon="2.21527">
        <ele>2803.34</ele>
        <time>2016-06-30T09:19:23Z</time>
      </trkpt>
      <trkpt lat="42.4232" lon="2.21519">
        <ele>2804.78</ele>
        <time>2016-06-30T09:19:34Z</time>
      </trkpt>
      <trkpt lat="42.4232" lon="2.21519">
        <ele>2804.78</ele>
        <time>2016-06-30T09:19:35Z</time>
      </trkpt>
      <trkpt lat="42.42323" lon="2.21511">
        <ele>2807.67</ele>
        <time>2016-06-30T09:19:47Z</time>
      </trkpt>
      <trkpt lat="42.42326" lon="2.21507">
        <ele>2809.59</ele>
        <time>2016-06-30T09:19:59Z</time>
      </trkpt>
      <trkpt lat="42.42326" lon="2.21505">
        <ele>2811.03</ele>
        <time>2016-06-30T09:20:12Z</time>
      </trkpt>
      <trkpt lat="42.42327" lon="2.21503">
        <ele>2811.51</ele>
        <time>2016-06-30T09:20:22Z</time>
      </trkpt>
      <trkpt lat="42.4233" lon="2.21496">
        <ele>2813.92</ele>
        <time>2016-06-30T09:20:34Z</time>
      </trkpt>
      <trkpt lat="42.42333" lon="2.2149">
        <ele>2815.36</ele>
        <time>2016-06-30T09:20:44Z</time>
      </trkpt>
      <trkpt lat="42.42334" lon="2.2149">
        <ele>2817.28</ele>
        <time>2016-06-30T09:21:02Z</time>
      </trkpt>
      <trkpt lat="42.42335" lon="2.21489">
        <ele>2817.76</ele>
        <time>2016-06-30T09:21:25Z</time>
      </trkpt>
      <trkpt lat="42.42337" lon="2.21484">
        <ele>2819.68</ele>
        <time>2016-06-30T09:21:36Z</time>
      </trkpt>
      <trkpt lat="42.42338" lon="2.21481">
        <ele>2820.16</ele>
        <time>2016-06-30T09:21:39Z</time>
      </trkpt>
      <trkpt lat="42.42344" lon="2.21469">
        <ele>2823.53</ele>
        <time>2016-06-30T09:21:52Z</time>
      </trkpt>
      <trkpt lat="42.42346" lon="2.21463">
        <ele>2824.97</ele>
        <time>2016-06-30T09:22:03Z</time>
      </trkpt>
      <trkpt lat="42.42351" lon="2.21456">
        <ele>2827.37</ele>
        <time>2016-06-30T09:22:14Z</time>
      </trkpt>
      <trkpt lat="42.4235" lon="2.21449">
        <ele>2829.3</ele>
        <time>2016-06-30T09:22:26Z</time>
      </trkpt>
      <trkpt lat="42.42352" lon="2.2145">
        <ele>2829.78</ele>
        <time>2016-06-30T09:22:42Z</time>
      </trkpt>
      <trkpt lat="42.42353" lon="2.21448">
        <ele>2830.26</ele>
        <time>2016-06-30T09:23:09Z</time>
      </trkpt>
      <trkpt lat="42.42356" lon="2.21438">
        <ele>2831.22</ele>
        <time>2016-06-30T09:23:19Z</time>
      </trkpt>
      <trkpt lat="42.42358" lon="2.2143">
        <ele>2831.7</ele>
        <time>2016-06-30T09:23:29Z</time>
      </trkpt>
      <trkpt lat="42.42363" lon="2.21427">
        <ele>2833.14</ele>
        <time>2016-06-30T09:23:39Z</time>
      </trkpt>
      <trkpt lat="42.42365" lon="2.21422">
        <ele>2834.58</ele>
        <time>2016-06-30T09:23:50Z</time>
      </trkpt>
      <trkpt lat="42.42367" lon="2.2142">
        <ele>2836.51</ele>
        <time>2016-06-30T09:24:03Z</time>
      </trkpt>
      <trkpt lat="42.4237" lon="2.21415">
        <ele>2836.99</ele>
        <time>2016-06-30T09:24:20Z</time>
      </trkpt>
      <trkpt lat="42.4237" lon="2.21413">
        <ele>2837.95</ele>
        <time>2016-06-30T09:24:23Z</time>
      </trkpt>
      <trkpt lat="42.42374" lon="2.21405">
        <ele>2839.39</ele>
        <time>2016-06-30T09:24:35Z</time>
      </trkpt>
      <trkpt lat="42.42377" lon="2.21401">
        <ele>2843.24</ele>
        <time>2016-06-30T09:24:42Z</time>
      </trkpt>
      <trkpt lat="42.42379" lon="2.21395">
        <ele>2844.2</ele>
        <time>2016-06-30T09:24:53Z</time>
      </trkpt>
      <trkpt lat="42.42381" lon="2.2139">
        <ele>2844.68</ele>
        <time>2016-06-30T09:25:05Z</time>
      </trkpt>
      <trkpt lat="42.42383" lon="2.21384">
        <ele>2846.6</ele>
        <time>2016-06-30T09:25:19Z</time>
      </trkpt>
      <trkpt lat="42.42385" lon="2.2138">
        <ele>2847.56</ele>
        <time>2016-06-30T09:25:30Z</time>
      </trkpt>
      <trkpt lat="42.42388" lon="2.21375">
        <ele>2849</ele>
        <time>2016-06-30T09:25:40Z</time>
      </trkpt>
      <trkpt lat="42.42391" lon="2.21372">
        <ele>2851.41</ele>
        <time>2016-06-30T09:25:52Z</time>
      </trkpt>
      <trkpt lat="42.42392" lon="2.21373">
        <ele>2852.37</ele>
        <time>2016-06-30T09:26:08Z</time>
      </trkpt>
      <trkpt lat="42.42395" lon="2.2138">
        <ele>2853.81</ele>
        <time>2016-06-30T09:26:20Z</time>
      </trkpt>
      <trkpt lat="42.42394" lon="2.21381">
        <ele>2854.29</ele>
        <time>2016-06-30T09:26:34Z</time>
      </trkpt>
      <trkpt lat="42.42396" lon="2.21377">
        <ele>2854.29</ele>
        <time>2016-06-30T09:26:49Z</time>
      </trkpt>
      <trkpt lat="42.42396" lon="2.21375">
        <ele>2854.77</ele>
        <time>2016-06-30T09:27:00Z</time>
      </trkpt>
      <trkpt lat="42.42396" lon="2.21375">
        <ele>2854.77</ele>
        <time>2016-06-30T09:27:30Z</time>
      </trkpt>
      <trkpt lat="42.42396" lon="2.21377">
        <ele>2854.77</ele>
        <time>2016-06-30T09:27:43Z</time>
      </trkpt>
      <trkpt lat="42.42395" lon="2.21378">
        <ele>2855.25</ele>
        <time>2016-06-30T09:28:08Z</time>
      </trkpt>
      <trkpt lat="42.42395" lon="2.2138">
        <ele>2855.73</ele>
        <time>2016-06-30T09:28:25Z</time>
      </trkpt>
      <trkpt lat="42.42394" lon="2.21379">
        <ele>2855.73</ele>
        <time>2016-06-30T09:28:35Z</time>
      </trkpt>
      <trkpt lat="42.42394" lon="2.21381">
        <ele>2856.21</ele>
        <time>2016-06-30T09:28:49Z</time>
      </trkpt>
      <trkpt lat="42.42391" lon="2.21389">
        <ele>2856.21</ele>
        <time>2016-06-30T09:29:01Z</time>
      </trkpt>
      <trkpt lat="42.42391" lon="2.2139">
        <ele>2855.25</ele>
        <time>2016-06-30T09:29:04Z</time>
      </trkpt>
      <trkpt lat="42.42387" lon="2.21395">
        <ele>2853.81</ele>
        <time>2016-06-30T09:29:15Z</time>
      </trkpt>
      <trkpt lat="42.42385" lon="2.21401">
        <ele>2852.85</ele>
        <time>2016-06-30T09:29:24Z</time>
      </trkpt>
      <trkpt lat="42.4238" lon="2.21404">
        <ele>2850.45</ele>
        <time>2016-06-30T09:29:35Z</time>
      </trkpt>
      <trkpt lat="42.42379" lon="2.21411">
        <ele>2848.52</ele>
        <time>2016-06-30T09:29:46Z</time>
      </trkpt>
      <trkpt lat="42.42376" lon="2.21411">
        <ele>2845.16</ele>
        <time>2016-06-30T09:29:50Z</time>
      </trkpt>
      <trkpt lat="42.4237" lon="2.21418">
        <ele>2842.28</ele>
        <time>2016-06-30T09:30:02Z</time>
      </trkpt>
      <trkpt lat="42.42369" lon="2.2142">
        <ele>2842.28</ele>
        <time>2016-06-30T09:30:08Z</time>
      </trkpt>
      <trkpt lat="42.42365" lon="2.21426">
        <ele>2841.31</ele>
        <time>2016-06-30T09:30:19Z</time>
      </trkpt>
      <trkpt lat="42.42364" lon="2.21427">
        <ele>2840.83</ele>
        <time>2016-06-30T09:30:21Z</time>
      </trkpt>
      <trkpt lat="42.42361" lon="2.21434">
        <ele>2839.39</ele>
        <time>2016-06-30T09:30:26Z</time>
      </trkpt>
      <trkpt lat="42.42359" lon="2.2144">
        <ele>2838.91</ele>
        <time>2016-06-30T09:30:34Z</time>
      </trkpt>
      <trkpt lat="42.42351" lon="2.21448">
        <ele>2834.58</ele>
        <time>2016-06-30T09:30:42Z</time>
      </trkpt>
      <trkpt lat="42.42348" lon="2.21451">
        <ele>2834.1</ele>
        <time>2016-06-30T09:30:45Z</time>
      </trkpt>
      <trkpt lat="42.42332" lon="2.21458">
        <ele>2833.62</ele>
        <time>2016-06-30T09:30:59Z</time>
      </trkpt>
      <trkpt lat="42.42323" lon="2.21462">
        <ele>2832.18</ele>
        <time>2016-06-30T09:31:07Z</time>
      </trkpt>
      <trkpt lat="42.4231" lon="2.2146">
        <ele>2832.18</ele>
        <time>2016-06-30T09:31:20Z</time>
      </trkpt>
      <trkpt lat="42.42309" lon="2.2146">
        <ele>2831.22</ele>
        <time>2016-06-30T09:31:21Z</time>
      </trkpt>
      <trkpt lat="42.42305" lon="2.21455">
        <ele>2827.85</ele>
        <time>2016-06-30T09:31:27Z</time>
      </trkpt>
      <trkpt lat="42.42304" lon="2.21454">
        <ele>2826.89</ele>
        <time>2016-06-30T09:31:28Z</time>
      </trkpt>
      <trkpt lat="42.42297" lon="2.21449">
        <ele>2824.49</ele>
        <time>2016-06-30T09:31:35Z</time>
      </trkpt>
      <trkpt lat="42.42288" lon="2.21442">
        <ele>2824.49</ele>
        <time>2016-06-30T09:31:44Z</time>
      </trkpt>
      <trkpt lat="42.4228" lon="2.21438">
        <ele>2824.49</ele>
        <time>2016-06-30T09:31:50Z</time>
      </trkpt>
      <trkpt lat="42.42273" lon="2.21435">
        <ele>2824.49</ele>
        <time>2016-06-30T09:31:56Z</time>
      </trkpt>
      <trkpt lat="42.4226" lon="2.21428">
        <ele>2824.01</ele>
        <time>2016-06-30T09:32:08Z</time>
      </trkpt>
      <trkpt lat="42.42253" lon="2.21422">
        <ele>2823.05</ele>
        <time>2016-06-30T09:32:16Z</time>
      </trkpt>
      <trkpt lat="42.42249" lon="2.21416">
        <ele>2822.09</ele>
        <time>2016-06-30T09:32:21Z</time>
      </trkpt>
      <trkpt lat="42.42245" lon="2.21412">
        <ele>2818.24</ele>
        <time>2016-06-30T09:32:29Z</time>
      </trkpt>
      <trkpt lat="42.42239" lon="2.21406">
        <ele>2814.4</ele>
        <time>2016-06-30T09:32:35Z</time>
      </trkpt>
      <trkpt lat="42.4223" lon="2.21397">
        <ele>2812.96</ele>
        <time>2016-06-30T09:32:48Z</time>
      </trkpt>
      <trkpt lat="42.42227" lon="2.21393">
        <ele>2812.47</ele>
        <time>2016-06-30T09:32:52Z</time>
      </trkpt>
      <trkpt lat="42.42214" lon="2.21383">
        <ele>2811.03</ele>
        <time>2016-06-30T09:33:10Z</time>
      </trkpt>
      <trkpt lat="42.42213" lon="2.21381">
        <ele>2810.07</ele>
        <time>2016-06-30T09:33:12Z</time>
      </trkpt>
      <trkpt lat="42.42211" lon="2.21378">
        <ele>2810.55</ele>
        <time>2016-06-30T09:33:15Z</time>
      </trkpt>
      <trkpt lat="42.42202" lon="2.2137">
        <ele>2807.19</ele>
        <time>2016-06-30T09:33:24Z</time>
      </trkpt>
      <trkpt lat="42.42197" lon="2.21363">
        <ele>2802.86</ele>
        <time>2016-06-30T09:33:32Z</time>
      </trkpt>
      <trkpt lat="42.42195" lon="2.2136">
        <ele>2803.34</ele>
        <time>2016-06-30T09:33:37Z</time>
      </trkpt>
      <trkpt lat="42.42189" lon="2.21349">
        <ele>2801.9</ele>
        <time>2016-06-30T09:33:49Z</time>
      </trkpt>
      <trkpt lat="42.42184" lon="2.21341">
        <ele>2798.54</ele>
        <time>2016-06-30T09:33:56Z</time>
      </trkpt>
      <trkpt lat="42.42182" lon="2.21337">
        <ele>2795.17</ele>
        <time>2016-06-30T09:33:59Z</time>
      </trkpt>
      <trkpt lat="42.42177" lon="2.21335">
        <ele>2793.25</ele>
        <time>2016-06-30T09:34:03Z</time>
      </trkpt>
      <trkpt lat="42.4217" lon="2.21326">
        <ele>2795.17</ele>
        <time>2016-06-30T09:34:18Z</time>
      </trkpt>
      <trkpt lat="42.42168" lon="2.21323">
        <ele>2793.73</ele>
        <time>2016-06-30T09:34:22Z</time>
      </trkpt>
      <trkpt lat="42.42166" lon="2.2132">
        <ele>2791.81</ele>
        <time>2016-06-30T09:34:25Z</time>
      </trkpt>
      <trkpt lat="42.42164" lon="2.21316">
        <ele>2788.92</ele>
        <time>2016-06-30T09:34:28Z</time>
      </trkpt>
      <trkpt lat="42.42156" lon="2.21305">
        <ele>2787</ele>
        <time>2016-06-30T09:34:41Z</time>
      </trkpt>
      <trkpt lat="42.42154" lon="2.21302">
        <ele>2788.44</ele>
        <time>2016-06-30T09:34:55Z</time>
      </trkpt>
      <trkpt lat="42.42147" lon="2.21299">
        <ele>2788.92</ele>
        <time>2016-06-30T09:35:07Z</time>
      </trkpt>
      <trkpt lat="42.42144" lon="2.21297">
        <ele>2789.4</ele>
        <time>2016-06-30T09:35:20Z</time>
      </trkpt>
      <trkpt lat="42.4214" lon="2.21293">
        <ele>2789.88</ele>
        <time>2016-06-30T09:35:32Z</time>
      </trkpt>
      <trkpt lat="42.42137" lon="2.21291">
        <ele>2790.84</ele>
        <time>2016-06-30T09:35:44Z</time>
      </trkpt>
      <trkpt lat="42.42137" lon="2.2129">
        <ele>2790.84</ele>
        <time>2016-06-30T09:35:59Z</time>
      </trkpt>
      <trkpt lat="42.42136" lon="2.21288">
        <ele>2789.4</ele>
        <time>2016-06-30T09:36:09Z</time>
      </trkpt>
      <trkpt lat="42.42136" lon="2.21285">
        <ele>2788.92</ele>
        <time>2016-06-30T09:36:25Z</time>
      </trkpt>
      <trkpt lat="42.42135" lon="2.21284">
        <ele>2788.44</ele>
        <time>2016-06-30T09:36:35Z</time>
      </trkpt>
      <trkpt lat="42.42133" lon="2.21279">
        <ele>2788.44</ele>
        <time>2016-06-30T09:36:46Z</time>
      </trkpt>
      <trkpt lat="42.42132" lon="2.21276">
        <ele>2787.48</ele>
        <time>2016-06-30T09:36:59Z</time>
      </trkpt>
      <trkpt lat="42.42131" lon="2.21274">
        <ele>2787</ele>
        <time>2016-06-30T09:37:10Z</time>
      </trkpt>
      <trkpt lat="42.42131" lon="2.21273">
        <ele>2786.52</ele>
        <time>2016-06-30T09:37:23Z</time>
      </trkpt>
      <trkpt lat="42.4213" lon="2.21271">
        <ele>2786.52</ele>
        <time>2016-06-30T09:37:35Z</time>
      </trkpt>
      <trkpt lat="42.42128" lon="2.21269">
        <ele>2785.08</ele>
        <time>2016-06-30T09:37:46Z</time>
      </trkpt>
      <trkpt lat="42.42124" lon="2.21263">
        <ele>2784.12</ele>
        <time>2016-06-30T09:37:58Z</time>
      </trkpt>
      <trkpt lat="42.42115" lon="2.21255">
        <ele>2783.15</ele>
        <time>2016-06-30T09:38:11Z</time>
      </trkpt>
      <trkpt lat="42.42109" lon="2.21252">
        <ele>2783.15</ele>
        <time>2016-06-30T09:38:24Z</time>
      </trkpt>
      <trkpt lat="42.42107" lon="2.21245">
        <ele>2784.6</ele>
        <time>2016-06-30T09:38:36Z</time>
      </trkpt>
      <trkpt lat="42.42105" lon="2.21235">
        <ele>2784.6</ele>
        <time>2016-06-30T09:38:48Z</time>
      </trkpt>
      <trkpt lat="42.42099" lon="2.21234">
        <ele>2785.08</ele>
        <time>2016-06-30T09:39:00Z</time>
      </trkpt>
      <trkpt lat="42.42095" lon="2.21233">
        <ele>2785.56</ele>
        <time>2016-06-30T09:39:10Z</time>
      </trkpt>
      <trkpt lat="42.42093" lon="2.21231">
        <ele>2786.04</ele>
        <time>2016-06-30T09:39:16Z</time>
      </trkpt>
      <trkpt lat="42.42089" lon="2.21228">
        <ele>2786.04</ele>
        <time>2016-06-30T09:39:24Z</time>
      </trkpt>
      <trkpt lat="42.42087" lon="2.21221">
        <ele>2786.52</ele>
        <time>2016-06-30T09:39:36Z</time>
      </trkpt>
      <trkpt lat="42.42087" lon="2.21218">
        <ele>2786.52</ele>
        <time>2016-06-30T09:40:00Z</time>
      </trkpt>
      <trkpt lat="42.42086" lon="2.21216">
        <ele>2785.56</ele>
        <time>2016-06-30T09:40:11Z</time>
      </trkpt>
      <trkpt lat="42.42085" lon="2.21215">
        <ele>2785.08</ele>
        <time>2016-06-30T09:40:14Z</time>
      </trkpt>
      <trkpt lat="42.42083" lon="2.21207">
        <ele>2783.63</ele>
        <time>2016-06-30T09:40:25Z</time>
      </trkpt>
      <trkpt lat="42.42082" lon="2.21191">
        <ele>2781.71</ele>
        <time>2016-06-30T09:40:37Z</time>
      </trkpt>
      <trkpt lat="42.42081" lon="2.21184">
        <ele>2779.79</ele>
        <time>2016-06-30T09:40:43Z</time>
      </trkpt>
      <trkpt lat="42.42081" lon="2.21175">
        <ele>2775.46</ele>
        <time>2016-06-30T09:40:49Z</time>
      </trkpt>
      <trkpt lat="42.42081" lon="2.21174">
        <ele>2774.98</ele>
        <time>2016-06-30T09:40:50Z</time>
      </trkpt>
      <trkpt lat="42.42068" lon="2.21162">
        <ele>2772.58</ele>
        <time>2016-06-30T09:41:03Z</time>
      </trkpt>
      <trkpt lat="42.42066" lon="2.2116">
        <ele>2772.58</ele>
        <time>2016-06-30T09:41:07Z</time>
      </trkpt>
      <trkpt lat="42.42062" lon="2.21159">
        <ele>2771.62</ele>
        <time>2016-06-30T09:41:13Z</time>
      </trkpt>
      <trkpt lat="42.42061" lon="2.21147">
        <ele>2768.25</ele>
        <time>2016-06-30T09:41:21Z</time>
      </trkpt>
      <trkpt lat="42.42061" lon="2.21145">
        <ele>2767.29</ele>
        <time>2016-06-30T09:41:23Z</time>
      </trkpt>
      <trkpt lat="42.42058" lon="2.21136">
        <ele>2765.85</ele>
        <time>2016-06-30T09:41:33Z</time>
      </trkpt>
      <trkpt lat="42.42051" lon="2.21139">
        <ele>2765.37</ele>
        <time>2016-06-30T09:41:40Z</time>
      </trkpt>
      <trkpt lat="42.42048" lon="2.21139">
        <ele>2764.89</ele>
        <time>2016-06-30T09:41:43Z</time>
      </trkpt>
      <trkpt lat="42.42044" lon="2.21129">
        <ele>2762.49</ele>
        <time>2016-06-30T09:41:52Z</time>
      </trkpt>
      <trkpt lat="42.42041" lon="2.21124">
        <ele>2758.64</ele>
        <time>2016-06-30T09:41:57Z</time>
      </trkpt>
      <trkpt lat="42.42035" lon="2.21116">
        <ele>2757.2</ele>
        <time>2016-06-30T09:42:05Z</time>
      </trkpt>
      <trkpt lat="42.42031" lon="2.21114">
        <ele>2756.24</ele>
        <time>2016-06-30T09:42:10Z</time>
      </trkpt>
      <trkpt lat="42.42027" lon="2.21092">
        <ele>2753.83</ele>
        <time>2016-06-30T09:42:25Z</time>
      </trkpt>
      <trkpt lat="42.42026" lon="2.21084">
        <ele>2752.39</ele>
        <time>2016-06-30T09:42:31Z</time>
      </trkpt>
      <trkpt lat="42.42023" lon="2.21078">
        <ele>2751.91</ele>
        <time>2016-06-30T09:42:37Z</time>
      </trkpt>
      <trkpt lat="42.42019" lon="2.21071">
        <ele>2749.99</ele>
        <time>2016-06-30T09:42:46Z</time>
      </trkpt>
      <trkpt lat="42.42013" lon="2.21067">
        <ele>2746.62</ele>
        <time>2016-06-30T09:42:53Z</time>
      </trkpt>
      <trkpt lat="42.42012" lon="2.21064">
        <ele>2743.74</ele>
        <time>2016-06-30T09:42:56Z</time>
      </trkpt>
      <trkpt lat="42.42013" lon="2.21064">
        <ele>2740.38</ele>
        <time>2016-06-30T09:43:02Z</time>
      </trkpt>
      <trkpt lat="42.42012" lon="2.21059">
        <ele>2741.82</ele>
        <time>2016-06-30T09:43:17Z</time>
      </trkpt>
      <trkpt lat="42.42012" lon="2.21057">
        <ele>2741.82</ele>
        <time>2016-06-30T09:43:19Z</time>
      </trkpt>
      <trkpt lat="42.42011" lon="2.21055">
        <ele>2741.82</ele>
        <time>2016-06-30T09:43:21Z</time>
      </trkpt>
      <trkpt lat="42.42008" lon="2.21055">
        <ele>2741.82</ele>
        <time>2016-06-30T09:43:24Z</time>
      </trkpt>
      <trkpt lat="42.42004" lon="2.21046">
        <ele>2739.41</ele>
        <time>2016-06-30T09:43:35Z</time>
      </trkpt>
      <trkpt lat="42.42004" lon="2.21037">
        <ele>2735.09</ele>
        <time>2016-06-30T09:43:41Z</time>
      </trkpt>
      <trkpt lat="42.41999" lon="2.21027">
        <ele>2733.65</ele>
        <time>2016-06-30T09:43:52Z</time>
      </trkpt>
      <trkpt lat="42.41999" lon="2.21027">
        <ele>2733.65</ele>
        <time>2016-06-30T09:43:53Z</time>
      </trkpt>
      <trkpt lat="42.41996" lon="2.21021">
        <ele>2733.17</ele>
        <time>2016-06-30T09:43:58Z</time>
      </trkpt>
      <trkpt lat="42.41994" lon="2.21015">
        <ele>2732.68</ele>
        <time>2016-06-30T09:44:02Z</time>
      </trkpt>
      <trkpt lat="42.41988" lon="2.21003">
        <ele>2731.24</ele>
        <time>2016-06-30T09:44:13Z</time>
      </trkpt>
      <trkpt lat="42.41986" lon="2.20985">
        <ele>2730.28</ele>
        <time>2016-06-30T09:44:26Z</time>
      </trkpt>
      <trkpt lat="42.41984" lon="2.20977">
        <ele>2729.8</ele>
        <time>2016-06-30T09:44:32Z</time>
      </trkpt>
      <trkpt lat="42.41981" lon="2.20971">
        <ele>2729.32</ele>
        <time>2016-06-30T09:44:37Z</time>
      </trkpt>
      <trkpt lat="42.41979" lon="2.20965">
        <ele>2729.32</ele>
        <time>2016-06-30T09:44:41Z</time>
      </trkpt>
      <trkpt lat="42.41978" lon="2.20947">
        <ele>2729.32</ele>
        <time>2016-06-30T09:44:57Z</time>
      </trkpt>
      <trkpt lat="42.41976" lon="2.20935">
        <ele>2731.72</ele>
        <time>2016-06-30T09:45:08Z</time>
      </trkpt>
      <trkpt lat="42.41975" lon="2.20927">
        <ele>2733.17</ele>
        <time>2016-06-30T09:45:21Z</time>
      </trkpt>
      <trkpt lat="42.41974" lon="2.20926">
        <ele>2733.65</ele>
        <time>2016-06-30T09:45:38Z</time>
      </trkpt>
      <trkpt lat="42.41974" lon="2.20918">
        <ele>2735.09</ele>
        <time>2016-06-30T09:45:50Z</time>
      </trkpt>
      <trkpt lat="42.41975" lon="2.20911">
        <ele>2737.01</ele>
        <time>2016-06-30T09:46:03Z</time>
      </trkpt>
      <trkpt lat="42.41977" lon="2.20901">
        <ele>2738.93</ele>
        <time>2016-06-30T09:46:14Z</time>
      </trkpt>
      <trkpt lat="42.41976" lon="2.20897">
        <ele>2740.38</ele>
        <time>2016-06-30T09:46:27Z</time>
      </trkpt>
      <trkpt lat="42.41976" lon="2.20897">
        <ele>2741.34</ele>
        <time>2016-06-30T09:46:45Z</time>
      </trkpt>
      <trkpt lat="42.41976" lon="2.20894">
        <ele>2742.3</ele>
        <time>2016-06-30T09:46:58Z</time>
      </trkpt>
      <trkpt lat="42.41976" lon="2.20888">
        <ele>2744.22</ele>
        <time>2016-06-30T09:47:09Z</time>
      </trkpt>
      <trkpt lat="42.41976" lon="2.20882">
        <ele>2745.66</ele>
        <time>2016-06-30T09:47:21Z</time>
      </trkpt>
      <trkpt lat="42.41977" lon="2.2088">
        <ele>2746.62</ele>
        <time>2016-06-30T09:47:39Z</time>
      </trkpt>
      <trkpt lat="42.4198" lon="2.20876">
        <ele>2748.55</ele>
        <time>2016-06-30T09:47:50Z</time>
      </trkpt>
      <trkpt lat="42.41978" lon="2.20869">
        <ele>2749.99</ele>
        <time>2016-06-30T09:48:01Z</time>
      </trkpt>
      <trkpt lat="42.41977" lon="2.20868">
        <ele>2750.95</ele>
        <time>2016-06-30T09:48:17Z</time>
      </trkpt>
      <trkpt lat="42.41977" lon="2.20867">
        <ele>2751.91</ele>
        <time>2016-06-30T09:48:46Z</time>
      </trkpt>
      <trkpt lat="42.41975" lon="2.20865">
        <ele>2751.91</ele>
        <time>2016-06-30T09:49:01Z</time>
      </trkpt>
      <trkpt lat="42.41974" lon="2.20864">
        <ele>2752.39</ele>
        <time>2016-06-30T09:49:03Z</time>
      </trkpt>
      <trkpt lat="42.41978" lon="2.20859">
        <ele>2753.83</ele>
        <time>2016-06-30T09:49:14Z</time>
      </trkpt>
      <trkpt lat="42.41978" lon="2.20858">
        <ele>2753.83</ele>
        <time>2016-06-30T09:49:15Z</time>
      </trkpt>
      <trkpt lat="42.41977" lon="2.20851">
        <ele>2755.76</ele>
        <time>2016-06-30T09:49:26Z</time>
      </trkpt>
      <trkpt lat="42.41973" lon="2.20849">
        <ele>2758.16</ele>
        <time>2016-06-30T09:49:38Z</time>
      </trkpt>
      <trkpt lat="42.41973" lon="2.20848">
        <ele>2759.6</ele>
        <time>2016-06-30T09:49:51Z</time>
      </trkpt>
      <trkpt lat="42.41974" lon="2.20844">
        <ele>2761.04</ele>
        <time>2016-06-30T09:50:05Z</time>
      </trkpt>
      <trkpt lat="42.41975" lon="2.2084">
        <ele>2762</ele>
        <time>2016-06-30T09:50:16Z</time>
      </trkpt>
      <trkpt lat="42.41976" lon="2.2084">
        <ele>2762.49</ele>
        <time>2016-06-30T09:50:18Z</time>
      </trkpt>
      <trkpt lat="42.41973" lon="2.20834">
        <ele>2763.93</ele>
        <time>2016-06-30T09:50:28Z</time>
      </trkpt>
      <trkpt lat="42.41971" lon="2.20819">
        <ele>2765.37</ele>
        <time>2016-06-30T09:50:42Z</time>
      </trkpt>
      <trkpt lat="42.41968" lon="2.2081">
        <ele>2766.33</ele>
        <time>2016-06-30T09:50:54Z</time>
      </trkpt>
      <trkpt lat="42.41967" lon="2.20809">
        <ele>2766.33</ele>
        <time>2016-06-30T09:50:55Z</time>
      </trkpt>
      <trkpt lat="42.41964" lon="2.20799">
        <ele>2767.29</ele>
        <time>2016-06-30T09:51:07Z</time>
      </trkpt>
      <trkpt lat="42.41962" lon="2.20794">
        <ele>2768.73</ele>
        <time>2016-06-30T09:51:15Z</time>
      </trkpt>
      <trkpt lat="42.41959" lon="2.20786">
        <ele>2769.7</ele>
        <time>2016-06-30T09:51:24Z</time>
      </trkpt>
      <trkpt lat="42.41955" lon="2.20778">
        <ele>2771.14</ele>
        <time>2016-06-30T09:51:34Z</time>
      </trkpt>
      <trkpt lat="42.41954" lon="2.20776">
        <ele>2772.1</ele>
        <time>2016-06-30T09:51:49Z</time>
      </trkpt>
      <trkpt lat="42.41953" lon="2.20773">
        <ele>2772.58</ele>
        <time>2016-06-30T09:52:09Z</time>
      </trkpt>
      <trkpt lat="42.41953" lon="2.20772">
        <ele>2773.54</ele>
        <time>2016-06-30T09:52:30Z</time>
      </trkpt>
      <trkpt lat="42.41952" lon="2.2077">
        <ele>2774.02</ele>
        <time>2016-06-30T09:52:52Z</time>
      </trkpt>
      <trkpt lat="42.41951" lon="2.20764">
        <ele>2775.46</ele>
        <time>2016-06-30T09:53:16Z</time>
      </trkpt>
      <trkpt lat="42.41951" lon="2.20757">
        <ele>2777.39</ele>
        <time>2016-06-30T09:53:26Z</time>
      </trkpt>
      <trkpt lat="42.41948" lon="2.20743">
        <ele>2778.35</ele>
        <time>2016-06-30T09:53:38Z</time>
      </trkpt>
      <trkpt lat="42.41944" lon="2.20734">
        <ele>2779.31</ele>
        <time>2016-06-30T09:53:49Z</time>
      </trkpt>
      <trkpt lat="42.4194" lon="2.20723">
        <ele>2780.27</ele>
        <time>2016-06-30T09:54:01Z</time>
      </trkpt>
      <trkpt lat="42.41938" lon="2.20717">
        <ele>2781.71</ele>
        <time>2016-06-30T09:54:10Z</time>
      </trkpt>
      <trkpt lat="42.41938" lon="2.20709">
        <ele>2782.67</ele>
        <time>2016-06-30T09:54:21Z</time>
      </trkpt>
      <trkpt lat="42.41937" lon="2.20709">
        <ele>2783.15</ele>
        <time>2016-06-30T09:54:45Z</time>
      </trkpt>
      <trkpt lat="42.41936" lon="2.2071">
        <ele>2783.15</ele>
        <time>2016-06-30T09:55:15Z</time>
      </trkpt>
      <trkpt lat="42.41934" lon="2.20711">
        <ele>2783.15</ele>
        <time>2016-06-30T09:55:18Z</time>
      </trkpt>
      <trkpt lat="42.4193" lon="2.20714">
        <ele>2783.15</ele>
        <time>2016-06-30T09:55:22Z</time>
      </trkpt>
      <trkpt lat="42.41928" lon="2.20713">
        <ele>2783.15</ele>
        <time>2016-06-30T09:55:24Z</time>
      </trkpt>
      <trkpt lat="42.41926" lon="2.2071">
        <ele>2783.15</ele>
        <time>2016-06-30T09:55:29Z</time>
      </trkpt>
      <trkpt lat="42.41917" lon="2.2071">
        <ele>2784.12</ele>
        <time>2016-06-30T09:55:41Z</time>
      </trkpt>
      <trkpt lat="42.41915" lon="2.20708">
        <ele>2784.6</ele>
        <time>2016-06-30T09:55:44Z</time>
      </trkpt>
      <trkpt lat="42.41902" lon="2.20698">
        <ele>2786.04</ele>
        <time>2016-06-30T09:55:58Z</time>
      </trkpt>
      <trkpt lat="42.41901" lon="2.20696">
        <ele>2786.04</ele>
        <time>2016-06-30T09:56:01Z</time>
      </trkpt>
      <trkpt lat="42.41892" lon="2.20692">
        <ele>2788.44</ele>
        <time>2016-06-30T09:56:14Z</time>
      </trkpt>
      <trkpt lat="42.41889" lon="2.20687">
        <ele>2791.81</ele>
        <time>2016-06-30T09:56:22Z</time>
      </trkpt>
      <trkpt lat="42.41884" lon="2.20687">
        <ele>2794.69</ele>
        <time>2016-06-30T09:56:31Z</time>
      </trkpt>
      <trkpt lat="42.41881" lon="2.20688">
        <ele>2794.69</ele>
        <time>2016-06-30T09:56:46Z</time>
      </trkpt>
      <trkpt lat="42.41879" lon="2.20687">
        <ele>2794.69</ele>
        <time>2016-06-30T09:56:48Z</time>
      </trkpt>
      <trkpt lat="42.41867" lon="2.20681">
        <ele>2794.69</ele>
        <time>2016-06-30T09:57:00Z</time>
      </trkpt>
      <trkpt lat="42.41858" lon="2.20679">
        <ele>2794.69</ele>
        <time>2016-06-30T09:57:12Z</time>
      </trkpt>
      <trkpt lat="42.41857" lon="2.20678">
        <ele>2794.69</ele>
        <time>2016-06-30T09:57:14Z</time>
      </trkpt>
      <trkpt lat="42.41855" lon="2.20678">
        <ele>2795.17</ele>
        <time>2016-06-30T09:57:16Z</time>
      </trkpt>
      <trkpt lat="42.4185" lon="2.20675">
        <ele>2795.65</ele>
        <time>2016-06-30T09:57:22Z</time>
      </trkpt>
      <trkpt lat="42.41848" lon="2.20674">
        <ele>2795.65</ele>
        <time>2016-06-30T09:57:24Z</time>
      </trkpt>
      <trkpt lat="42.41844" lon="2.20667">
        <ele>2797.09</ele>
        <time>2016-06-30T09:57:32Z</time>
      </trkpt>
      <trkpt lat="42.41838" lon="2.20666">
        <ele>2798.54</ele>
        <time>2016-06-30T09:57:42Z</time>
      </trkpt>
      <trkpt lat="42.4183" lon="2.20668">
        <ele>2799.98</ele>
        <time>2016-06-30T09:57:56Z</time>
      </trkpt>
      <trkpt lat="42.41822" lon="2.20669">
        <ele>2801.9</ele>
        <time>2016-06-30T09:58:08Z</time>
      </trkpt>
      <trkpt lat="42.41816" lon="2.20667">
        <ele>2802.38</ele>
        <time>2016-06-30T09:58:16Z</time>
      </trkpt>
      <trkpt lat="42.41813" lon="2.20666">
        <ele>2802.86</ele>
        <time>2016-06-30T09:58:32Z</time>
      </trkpt>
      <trkpt lat="42.41805" lon="2.20664">
        <ele>2803.34</ele>
        <time>2016-06-30T09:58:47Z</time>
      </trkpt>
      <trkpt lat="42.41804" lon="2.20663">
        <ele>2803.34</ele>
        <time>2016-06-30T09:58:48Z</time>
      </trkpt>
      <trkpt lat="42.41793" lon="2.20663">
        <ele>2804.78</ele>
        <time>2016-06-30T09:59:00Z</time>
      </trkpt>
      <trkpt lat="42.41789" lon="2.20662">
        <ele>2805.26</ele>
        <time>2016-06-30T09:59:06Z</time>
      </trkpt>
      <trkpt lat="42.41782" lon="2.20662">
        <ele>2806.71</ele>
        <time>2016-06-30T09:59:16Z</time>
      </trkpt>
      <trkpt lat="42.4178" lon="2.20663">
        <ele>2807.19</ele>
        <time>2016-06-30T09:59:18Z</time>
      </trkpt>
      <trkpt lat="42.41776" lon="2.20662">
        <ele>2808.63</ele>
        <time>2016-06-30T09:59:29Z</time>
      </trkpt>
      <trkpt lat="42.41775" lon="2.20662">
        <ele>2809.59</ele>
        <time>2016-06-30T09:59:47Z</time>
      </trkpt>
      <trkpt lat="42.41776" lon="2.20662">
        <ele>2809.59</ele>
        <time>2016-06-30T10:00:15Z</time>
      </trkpt>
      <trkpt lat="42.41772" lon="2.20663">
        <ele>2809.59</ele>
        <time>2016-06-30T10:00:23Z</time>
      </trkpt>
      <trkpt lat="42.41765" lon="2.20664">
        <ele>2810.07</ele>
        <time>2016-06-30T10:00:31Z</time>
      </trkpt>
      <trkpt lat="42.4176" lon="2.20667">
        <ele>2811.03</ele>
        <time>2016-06-30T10:00:37Z</time>
      </trkpt>
      <trkpt lat="42.41753" lon="2.20666">
        <ele>2812.47</ele>
        <time>2016-06-30T10:00:46Z</time>
      </trkpt>
      <trkpt lat="42.41752" lon="2.20662">
        <ele>2812.47</ele>
        <time>2016-06-30T10:00:49Z</time>
      </trkpt>
      <trkpt lat="42.4175" lon="2.20659">
        <ele>2812.96</ele>
        <time>2016-06-30T10:00:53Z</time>
      </trkpt>
      <trkpt lat="42.41746" lon="2.20659">
        <ele>2813.44</ele>
        <time>2016-06-30T10:00:57Z</time>
      </trkpt>
      <trkpt lat="42.4174" lon="2.20655">
        <ele>2814.88</ele>
        <time>2016-06-30T10:01:04Z</time>
      </trkpt>
      <trkpt lat="42.41739" lon="2.20652">
        <ele>2814.88</ele>
        <time>2016-06-30T10:01:06Z</time>
      </trkpt>
      <trkpt lat="42.41737" lon="2.20649">
        <ele>2814.88</ele>
        <time>2016-06-30T10:01:09Z</time>
      </trkpt>
      <trkpt lat="42.41736" lon="2.20627">
        <ele>2814.88</ele>
        <time>2016-06-30T10:01:24Z</time>
      </trkpt>
      <trkpt lat="42.41736" lon="2.20622">
        <ele>2813.44</ele>
        <time>2016-06-30T10:01:27Z</time>
      </trkpt>
      <trkpt lat="42.41736" lon="2.20615">
        <ele>2813.44</ele>
        <time>2016-06-30T10:01:31Z</time>
      </trkpt>
      <trkpt lat="42.41737" lon="2.206">
        <ele>2811.99</ele>
        <time>2016-06-30T10:01:40Z</time>
      </trkpt>
      <trkpt lat="42.41737" lon="2.20594">
        <ele>2811.51</ele>
        <time>2016-06-30T10:01:44Z</time>
      </trkpt>
      <trkpt lat="42.41734" lon="2.20586">
        <ele>2810.55</ele>
        <time>2016-06-30T10:01:50Z</time>
      </trkpt>
      <trkpt lat="42.41734" lon="2.20566">
        <ele>2809.59</ele>
        <time>2016-06-30T10:02:02Z</time>
      </trkpt>
      <trkpt lat="42.41733" lon="2.20555">
        <ele>2808.15</ele>
        <time>2016-06-30T10:02:09Z</time>
      </trkpt>
      <trkpt lat="42.41731" lon="2.20534">
        <ele>2807.67</ele>
        <time>2016-06-30T10:02:23Z</time>
      </trkpt>
      <trkpt lat="42.41729" lon="2.2052">
        <ele>2807.19</ele>
        <time>2016-06-30T10:02:32Z</time>
      </trkpt>
      <trkpt lat="42.41728" lon="2.20509">
        <ele>2806.71</ele>
        <time>2016-06-30T10:02:39Z</time>
      </trkpt>
      <trkpt lat="42.41728" lon="2.20499">
        <ele>2806.23</ele>
        <time>2016-06-30T10:02:46Z</time>
      </trkpt>
      <trkpt lat="42.41725" lon="2.20479">
        <ele>2805.26</ele>
        <time>2016-06-30T10:02:58Z</time>
      </trkpt>
      <trkpt lat="42.41724" lon="2.20475">
        <ele>2804.78</ele>
        <time>2016-06-30T10:03:01Z</time>
      </trkpt>
      <trkpt lat="42.41722" lon="2.2046">
        <ele>2803.34</ele>
        <time>2016-06-30T10:03:12Z</time>
      </trkpt>
      <trkpt lat="42.41719" lon="2.20453">
        <ele>2802.38</ele>
        <time>2016-06-30T10:03:18Z</time>
      </trkpt>
      <trkpt lat="42.41717" lon="2.20442">
        <ele>2798.54</ele>
        <time>2016-06-30T10:03:26Z</time>
      </trkpt>
      <trkpt lat="42.41715" lon="2.20434">
        <ele>2795.65</ele>
        <time>2016-06-30T10:03:30Z</time>
      </trkpt>
      <trkpt lat="42.41709" lon="2.20415">
        <ele>2793.73</ele>
        <time>2016-06-30T10:03:42Z</time>
      </trkpt>
      <trkpt lat="42.41705" lon="2.20397">
        <ele>2793.73</ele>
        <time>2016-06-30T10:03:54Z</time>
      </trkpt>
      <trkpt lat="42.41698" lon="2.20379">
        <ele>2791.33</ele>
        <time>2016-06-30T10:04:08Z</time>
      </trkpt>
      <trkpt lat="42.4169" lon="2.20365">
        <ele>2789.88</ele>
        <time>2016-06-30T10:04:19Z</time>
      </trkpt>
      <trkpt lat="42.41684" lon="2.20347">
        <ele>2789.88</ele>
        <time>2016-06-30T10:04:33Z</time>
      </trkpt>
      <trkpt lat="42.41678" lon="2.20325">
        <ele>2789.88</ele>
        <time>2016-06-30T10:04:48Z</time>
      </trkpt>
      <trkpt lat="42.41677" lon="2.20322">
        <ele>2789.88</ele>
        <time>2016-06-30T10:04:50Z</time>
      </trkpt>
      <trkpt lat="42.41671" lon="2.203">
        <ele>2790.84</ele>
        <time>2016-06-30T10:05:05Z</time>
      </trkpt>
      <trkpt lat="42.4167" lon="2.20298">
        <ele>2790.84</ele>
        <time>2016-06-30T10:05:07Z</time>
      </trkpt>
      <trkpt lat="42.41666" lon="2.20292">
        <ele>2791.33</ele>
        <time>2016-06-30T10:05:12Z</time>
      </trkpt>
      <trkpt lat="42.4166" lon="2.20278">
        <ele>2792.29</ele>
        <time>2016-06-30T10:05:22Z</time>
      </trkpt>
      <trkpt lat="42.41654" lon="2.20262">
        <ele>2792.77</ele>
        <time>2016-06-30T10:05:34Z</time>
      </trkpt>
      <trkpt lat="42.41652" lon="2.20255">
        <ele>2793.73</ele>
        <time>2016-06-30T10:05:39Z</time>
      </trkpt>
      <trkpt lat="42.41648" lon="2.20238">
        <ele>2794.69</ele>
        <time>2016-06-30T10:05:53Z</time>
      </trkpt>
      <trkpt lat="42.41647" lon="2.20225">
        <ele>2796.61</ele>
        <time>2016-06-30T10:06:05Z</time>
      </trkpt>
      <trkpt lat="42.41647" lon="2.20222">
        <ele>2798.05</ele>
        <time>2016-06-30T10:06:18Z</time>
      </trkpt>
      <trkpt lat="42.41646" lon="2.20217">
        <ele>2798.54</ele>
        <time>2016-06-30T10:06:42Z</time>
      </trkpt>
      <trkpt lat="42.41643" lon="2.20204">
        <ele>2799.98</ele>
        <time>2016-06-30T10:06:55Z</time>
      </trkpt>
      <trkpt lat="42.41642" lon="2.20203">
        <ele>2799.98</ele>
        <time>2016-06-30T10:06:56Z</time>
      </trkpt>
      <trkpt lat="42.41636" lon="2.20192">
        <ele>2801.9</ele>
        <time>2016-06-30T10:07:10Z</time>
      </trkpt>
      <trkpt lat="42.41635" lon="2.2019">
        <ele>2802.38</ele>
        <time>2016-06-30T10:07:12Z</time>
      </trkpt>
      <trkpt lat="42.41633" lon="2.20182">
        <ele>2804.3</ele>
        <time>2016-06-30T10:07:24Z</time>
      </trkpt>
      <trkpt lat="42.41632" lon="2.20181">
        <ele>2805.75</ele>
        <time>2016-06-30T10:07:43Z</time>
      </trkpt>
      <trkpt lat="42.41632" lon="2.20181">
        <ele>2806.23</ele>
        <time>2016-06-30T10:08:04Z</time>
      </trkpt>
      <trkpt lat="42.41631" lon="2.20178">
        <ele>2806.23</ele>
        <time>2016-06-30T10:08:11Z</time>
      </trkpt>
      <trkpt lat="42.4163" lon="2.20176">
        <ele>2806.23</ele>
        <time>2016-06-30T10:08:13Z</time>
      </trkpt>
      <trkpt lat="42.41629" lon="2.20174">
        <ele>2806.23</ele>
        <time>2016-06-30T10:08:15Z</time>
      </trkpt>
      <trkpt lat="42.41623" lon="2.2016">
        <ele>2806.71</ele>
        <time>2016-06-30T10:08:29Z</time>
      </trkpt>
      <trkpt lat="42.41622" lon="2.20148">
        <ele>2806.71</ele>
        <time>2016-06-30T10:08:40Z</time>
      </trkpt>
      <trkpt lat="42.41623" lon="2.20144">
        <ele>2806.71</ele>
        <time>2016-06-30T10:08:45Z</time>
      </trkpt>
      <trkpt lat="42.41622" lon="2.20134">
        <ele>2806.71</ele>
        <time>2016-06-30T10:08:53Z</time>
      </trkpt>
      <trkpt lat="42.41626" lon="2.2012">
        <ele>2806.71</ele>
        <time>2016-06-30T10:09:03Z</time>
      </trkpt>
      <trkpt lat="42.41628" lon="2.20106">
        <ele>2805.75</ele>
        <time>2016-06-30T10:09:13Z</time>
      </trkpt>
      <trkpt lat="42.41631" lon="2.20103">
        <ele>2805.75</ele>
        <time>2016-06-30T10:09:18Z</time>
      </trkpt>
      <trkpt lat="42.41635" lon="2.20087">
        <ele>2805.75</ele>
        <time>2016-06-30T10:09:29Z</time>
      </trkpt>
      <trkpt lat="42.41636" lon="2.20085">
        <ele>2805.75</ele>
        <time>2016-06-30T10:09:31Z</time>
      </trkpt>
      <trkpt lat="42.41642" lon="2.20072">
        <ele>2805.75</ele>
        <time>2016-06-30T10:09:42Z</time>
      </trkpt>
      <trkpt lat="42.41646" lon="2.20055">
        <ele>2805.75</ele>
        <time>2016-06-30T10:09:54Z</time>
      </trkpt>
      <trkpt lat="42.41646" lon="2.20052">
        <ele>2805.75</ele>
        <time>2016-06-30T10:10:01Z</time>
      </trkpt>
      <trkpt lat="42.41648" lon="2.2003">
        <ele>2804.78</ele>
        <time>2016-06-30T10:10:14Z</time>
      </trkpt>
      <trkpt lat="42.41648" lon="2.20029">
        <ele>2804.78</ele>
        <time>2016-06-30T10:10:15Z</time>
      </trkpt>
      <trkpt lat="42.41651" lon="2.2002">
        <ele>2804.78</ele>
        <time>2016-06-30T10:10:23Z</time>
      </trkpt>
      <trkpt lat="42.41651" lon="2.20009">
        <ele>2804.78</ele>
        <time>2016-06-30T10:10:32Z</time>
      </trkpt>
      <trkpt lat="42.41648" lon="2.19988">
        <ele>2806.23</ele>
        <time>2016-06-30T10:10:46Z</time>
      </trkpt>
      <trkpt lat="42.41649" lon="2.19971">
        <ele>2807.19</ele>
        <time>2016-06-30T10:11:02Z</time>
      </trkpt>
      <trkpt lat="42.4165" lon="2.19968">
        <ele>2807.19</ele>
        <time>2016-06-30T10:11:05Z</time>
      </trkpt>
      <trkpt lat="42.41651" lon="2.19964">
        <ele>2807.19</ele>
        <time>2016-06-30T10:11:08Z</time>
      </trkpt>
      <trkpt lat="42.41654" lon="2.19955">
        <ele>2805.75</ele>
        <time>2016-06-30T10:11:15Z</time>
      </trkpt>
      <trkpt lat="42.41657" lon="2.1995">
        <ele>2804.78</ele>
        <time>2016-06-30T10:11:21Z</time>
      </trkpt>
      <trkpt lat="42.41657" lon="2.19944">
        <ele>2799.98</ele>
        <time>2016-06-30T10:11:26Z</time>
      </trkpt>
      <trkpt lat="42.41659" lon="2.19942">
        <ele>2798.54</ele>
        <time>2016-06-30T10:11:28Z</time>
      </trkpt>
      <trkpt lat="42.41661" lon="2.19941">
        <ele>2797.57</ele>
        <time>2016-06-30T10:11:30Z</time>
      </trkpt>
      <trkpt lat="42.41662" lon="2.19937">
        <ele>2796.61</ele>
        <time>2016-06-30T10:11:36Z</time>
      </trkpt>
      <trkpt lat="42.41663" lon="2.19934">
        <ele>2796.61</ele>
        <time>2016-06-30T10:11:38Z</time>
      </trkpt>
      <trkpt lat="42.41665" lon="2.19932">
        <ele>2796.61</ele>
        <time>2016-06-30T10:11:41Z</time>
      </trkpt>
      <trkpt lat="42.41669" lon="2.19926">
        <ele>2796.61</ele>
        <time>2016-06-30T10:11:46Z</time>
      </trkpt>
      <trkpt lat="42.41669" lon="2.19924">
        <ele>2796.61</ele>
        <time>2016-06-30T10:11:48Z</time>
      </trkpt>
      <trkpt lat="42.41678" lon="2.19916">
        <ele>2794.69</ele>
        <time>2016-06-30T10:11:59Z</time>
      </trkpt>
      <trkpt lat="42.41682" lon="2.19909">
        <ele>2791.33</ele>
        <time>2016-06-30T10:12:04Z</time>
      </trkpt>
      <trkpt lat="42.41684" lon="2.19905">
        <ele>2787.48</ele>
        <time>2016-06-30T10:12:08Z</time>
      </trkpt>
      <trkpt lat="42.41687" lon="2.19902">
        <ele>2785.56</ele>
        <time>2016-06-30T10:12:11Z</time>
      </trkpt>
      <trkpt lat="42.41689" lon="2.19896">
        <ele>2784.6</ele>
        <time>2016-06-30T10:12:16Z</time>
      </trkpt>
      <trkpt lat="42.41693" lon="2.19885">
        <ele>2784.6</ele>
        <time>2016-06-30T10:12:23Z</time>
      </trkpt>
      <trkpt lat="42.41698" lon="2.1987">
        <ele>2781.71</ele>
        <time>2016-06-30T10:12:32Z</time>
      </trkpt>
      <trkpt lat="42.41702" lon="2.19862">
        <ele>2776.91</ele>
        <time>2016-06-30T10:12:37Z</time>
      </trkpt>
      <trkpt lat="42.41704" lon="2.19858">
        <ele>2774.98</ele>
        <time>2016-06-30T10:12:40Z</time>
      </trkpt>
      <trkpt lat="42.41705" lon="2.19857">
        <ele>2775.46</ele>
        <time>2016-06-30T10:12:41Z</time>
      </trkpt>
      <trkpt lat="42.41713" lon="2.19842">
        <ele>2774.5</ele>
        <time>2016-06-30T10:12:53Z</time>
      </trkpt>
      <trkpt lat="42.41721" lon="2.19833">
        <ele>2773.54</ele>
        <time>2016-06-30T10:13:01Z</time>
      </trkpt>
      <trkpt lat="42.41726" lon="2.1983">
        <ele>2770.66</ele>
        <time>2016-06-30T10:13:06Z</time>
      </trkpt>
      <trkpt lat="42.41728" lon="2.19827">
        <ele>2768.73</ele>
        <time>2016-06-30T10:13:08Z</time>
      </trkpt>
      <trkpt lat="42.4173" lon="2.19826">
        <ele>2766.81</ele>
        <time>2016-06-30T10:13:10Z</time>
      </trkpt>
      <trkpt lat="42.41733" lon="2.1982">
        <ele>2764.89</ele>
        <time>2016-06-30T10:13:14Z</time>
      </trkpt>
      <trkpt lat="42.41734" lon="2.19817">
        <ele>2763.45</ele>
        <time>2016-06-30T10:13:16Z</time>
      </trkpt>
      <trkpt lat="42.41734" lon="2.19809">
        <ele>2762.49</ele>
        <time>2016-06-30T10:13:20Z</time>
      </trkpt>
      <trkpt lat="42.41736" lon="2.19804">
        <ele>2762.49</ele>
        <time>2016-06-30T10:13:24Z</time>
      </trkpt>
      <trkpt lat="42.41738" lon="2.19802">
        <ele>2762.49</ele>
        <time>2016-06-30T10:13:26Z</time>
      </trkpt>
      <trkpt lat="42.41741" lon="2.19799">
        <ele>2762.49</ele>
        <time>2016-06-30T10:13:29Z</time>
      </trkpt>
      <trkpt lat="42.41747" lon="2.19783">
        <ele>2759.12</ele>
        <time>2016-06-30T10:13:40Z</time>
      </trkpt>
      <trkpt lat="42.41751" lon="2.19778">
        <ele>2756.24</ele>
        <time>2016-06-30T10:13:44Z</time>
      </trkpt>
      <trkpt lat="42.41751" lon="2.19775">
        <ele>2754.8</ele>
        <time>2016-06-30T10:13:46Z</time>
      </trkpt>
      <trkpt lat="42.41752" lon="2.19771">
        <ele>2754.8</ele>
        <time>2016-06-30T10:13:48Z</time>
      </trkpt>
      <trkpt lat="42.41754" lon="2.19761">
        <ele>2753.35</ele>
        <time>2016-06-30T10:13:54Z</time>
      </trkpt>
      <trkpt lat="42.41754" lon="2.19758">
        <ele>2753.35</ele>
        <time>2016-06-30T10:13:56Z</time>
      </trkpt>
      <trkpt lat="42.41756" lon="2.19751">
        <ele>2753.35</ele>
        <time>2016-06-30T10:14:00Z</time>
      </trkpt>
      <trkpt lat="42.41759" lon="2.19744">
        <ele>2753.35</ele>
        <time>2016-06-30T10:14:05Z</time>
      </trkpt>
      <trkpt lat="42.4176" lon="2.19733">
        <ele>2752.39</ele>
        <time>2016-06-30T10:14:11Z</time>
      </trkpt>
      <trkpt lat="42.41761" lon="2.19729">
        <ele>2751.43</ele>
        <time>2016-06-30T10:14:14Z</time>
      </trkpt>
      <trkpt lat="42.41763" lon="2.19712">
        <ele>2749.99</ele>
        <time>2016-06-30T10:14:25Z</time>
      </trkpt>
      <trkpt lat="42.41762" lon="2.1971">
        <ele>2748.55</ele>
        <time>2016-06-30T10:14:38Z</time>
      </trkpt>
      <trkpt lat="42.41762" lon="2.19711">
        <ele>2747.59</ele>
        <time>2016-06-30T10:15:00Z</time>
      </trkpt>
      <trkpt lat="42.41761" lon="2.19711">
        <ele>2747.59</ele>
        <time>2016-06-30T10:15:12Z</time>
      </trkpt>
      <trkpt lat="42.41766" lon="2.19703">
        <ele>2747.59</ele>
        <time>2016-06-30T10:15:17Z</time>
      </trkpt>
      <trkpt lat="42.41767" lon="2.19695">
        <ele>2747.59</ele>
        <time>2016-06-30T10:15:22Z</time>
      </trkpt>
      <trkpt lat="42.41774" lon="2.1968">
        <ele>2746.62</ele>
        <time>2016-06-30T10:15:32Z</time>
      </trkpt>
      <trkpt lat="42.41775" lon="2.19679">
        <ele>2746.62</ele>
        <time>2016-06-30T10:15:33Z</time>
      </trkpt>
      <trkpt lat="42.41782" lon="2.19662">
        <ele>2744.7</ele>
        <time>2016-06-30T10:15:43Z</time>
      </trkpt>
      <trkpt lat="42.41783" lon="2.1966">
        <ele>2744.7</ele>
        <time>2016-06-30T10:15:45Z</time>
      </trkpt>
      <trkpt lat="42.41784" lon="2.19652">
        <ele>2743.74</ele>
        <time>2016-06-30T10:15:50Z</time>
      </trkpt>
      <trkpt lat="42.41787" lon="2.19639">
        <ele>2741.82</ele>
        <time>2016-06-30T10:15:59Z</time>
      </trkpt>
      <trkpt lat="42.41796" lon="2.19619">
        <ele>2738.45</ele>
        <time>2016-06-30T10:16:10Z</time>
      </trkpt>
      <trkpt lat="42.41797" lon="2.19609">
        <ele>2735.09</ele>
        <time>2016-06-30T10:16:14Z</time>
      </trkpt>
      <trkpt lat="42.41801" lon="2.19597">
        <ele>2731.24</ele>
        <time>2016-06-30T10:16:20Z</time>
      </trkpt>
      <trkpt lat="42.4181" lon="2.1958">
        <ele>2731.24</ele>
        <time>2016-06-30T10:16:29Z</time>
      </trkpt>
      <trkpt lat="42.41811" lon="2.19572">
        <ele>2730.28</ele>
        <time>2016-06-30T10:16:34Z</time>
      </trkpt>
      <trkpt lat="42.41816" lon="2.19557">
        <ele>2729.32</ele>
        <time>2016-06-30T10:16:43Z</time>
      </trkpt>
      <trkpt lat="42.4182" lon="2.19539">
        <ele>2727.88</ele>
        <time>2016-06-30T10:16:53Z</time>
      </trkpt>
      <trkpt lat="42.4183" lon="2.19538">
        <ele>2726.92</ele>
        <time>2016-06-30T10:17:00Z</time>
      </trkpt>
      <trkpt lat="42.41835" lon="2.19546">
        <ele>2723.07</ele>
        <time>2016-06-30T10:17:06Z</time>
      </trkpt>
      <trkpt lat="42.41837" lon="2.19555">
        <ele>2719.71</ele>
        <time>2016-06-30T10:17:11Z</time>
      </trkpt>
      <trkpt lat="42.41838" lon="2.19557">
        <ele>2720.19</ele>
        <time>2016-06-30T10:17:12Z</time>
      </trkpt>
      <trkpt lat="42.4184" lon="2.19569">
        <ele>2718.75</ele>
        <time>2016-06-30T10:17:19Z</time>
      </trkpt>
      <trkpt lat="42.41845" lon="2.19591">
        <ele>2717.78</ele>
        <time>2016-06-30T10:17:32Z</time>
      </trkpt>
      <trkpt lat="42.41846" lon="2.19593">
        <ele>2717.78</ele>
        <time>2016-06-30T10:17:33Z</time>
      </trkpt>
      <trkpt lat="42.41849" lon="2.19603">
        <ele>2714.42</ele>
        <time>2016-06-30T10:17:38Z</time>
      </trkpt>
      <trkpt lat="42.41852" lon="2.19616">
        <ele>2710.09</ele>
        <time>2016-06-30T10:17:45Z</time>
      </trkpt>
      <trkpt lat="42.41853" lon="2.19617">
        <ele>2710.09</ele>
        <time>2016-06-30T10:17:46Z</time>
      </trkpt>
      <trkpt lat="42.41856" lon="2.19633">
        <ele>2710.09</ele>
        <time>2016-06-30T10:17:55Z</time>
      </trkpt>
      <trkpt lat="42.41858" lon="2.1964">
        <ele>2710.09</ele>
        <time>2016-06-30T10:17:59Z</time>
      </trkpt>
      <trkpt lat="42.41863" lon="2.19659">
        <ele>2708.65</ele>
        <time>2016-06-30T10:18:10Z</time>
      </trkpt>
      <trkpt lat="42.41866" lon="2.19672">
        <ele>2706.73</ele>
        <time>2016-06-30T10:18:17Z</time>
      </trkpt>
      <trkpt lat="42.41869" lon="2.19689">
        <ele>2705.29</ele>
        <time>2016-06-30T10:18:29Z</time>
      </trkpt>
      <trkpt lat="42.41873" lon="2.19709">
        <ele>2702.4</ele>
        <time>2016-06-30T10:18:41Z</time>
      </trkpt>
      <trkpt lat="42.41873" lon="2.19714">
        <ele>2701.44</ele>
        <time>2016-06-30T10:18:44Z</time>
      </trkpt>
      <trkpt lat="42.41873" lon="2.1972">
        <ele>2700.96</ele>
        <time>2016-06-30T10:18:47Z</time>
      </trkpt>
      <trkpt lat="42.41875" lon="2.19729">
        <ele>2700</ele>
        <time>2016-06-30T10:18:53Z</time>
      </trkpt>
      <trkpt lat="42.41879" lon="2.19741">
        <ele>2698.08</ele>
        <time>2016-06-30T10:19:01Z</time>
      </trkpt>
      <trkpt lat="42.41881" lon="2.19751">
        <ele>2697.12</ele>
        <time>2016-06-30T10:19:07Z</time>
      </trkpt>
      <trkpt lat="42.41881" lon="2.1976">
        <ele>2696.64</ele>
        <time>2016-06-30T10:19:12Z</time>
      </trkpt>
      <trkpt lat="42.41881" lon="2.19774">
        <ele>2692.79</ele>
        <time>2016-06-30T10:19:20Z</time>
      </trkpt>
      <trkpt lat="42.4188" lon="2.19795">
        <ele>2690.87</ele>
        <time>2016-06-30T10:19:33Z</time>
      </trkpt>
      <trkpt lat="42.41878" lon="2.19813">
        <ele>2690.87</ele>
        <time>2016-06-30T10:19:44Z</time>
      </trkpt>
      <trkpt lat="42.41878" lon="2.19825">
        <ele>2690.87</ele>
        <time>2016-06-30T10:19:51Z</time>
      </trkpt>
      <trkpt lat="42.41876" lon="2.19835">
        <ele>2690.39</ele>
        <time>2016-06-30T10:19:57Z</time>
      </trkpt>
      <trkpt lat="42.41873" lon="2.1986">
        <ele>2689.43</ele>
        <time>2016-06-30T10:20:11Z</time>
      </trkpt>
      <trkpt lat="42.41874" lon="2.19886">
        <ele>2688.46</ele>
        <time>2016-06-30T10:20:24Z</time>
      </trkpt>
      <trkpt lat="42.41876" lon="2.19902">
        <ele>2687.98</ele>
        <time>2016-06-30T10:20:34Z</time>
      </trkpt>
      <trkpt lat="42.41879" lon="2.19909">
        <ele>2687.5</ele>
        <time>2016-06-30T10:20:39Z</time>
      </trkpt>
      <trkpt lat="42.41879" lon="2.19919">
        <ele>2687.5</ele>
        <time>2016-06-30T10:20:45Z</time>
      </trkpt>
      <trkpt lat="42.41882" lon="2.19929">
        <ele>2687.02</ele>
        <time>2016-06-30T10:20:53Z</time>
      </trkpt>
      <trkpt lat="42.41887" lon="2.19928">
        <ele>2687.02</ele>
        <time>2016-06-30T10:20:58Z</time>
      </trkpt>
      <trkpt lat="42.41893" lon="2.19923">
        <ele>2686.54</ele>
        <time>2016-06-30T10:21:04Z</time>
      </trkpt>
      <trkpt lat="42.41897" lon="2.19923">
        <ele>2686.54</ele>
        <time>2016-06-30T10:21:08Z</time>
      </trkpt>
      <trkpt lat="42.41903" lon="2.19925">
        <ele>2685.58</ele>
        <time>2016-06-30T10:21:13Z</time>
      </trkpt>
      <trkpt lat="42.41918" lon="2.19922">
        <ele>2682.7</ele>
        <time>2016-06-30T10:21:26Z</time>
      </trkpt>
      <trkpt lat="42.41923" lon="2.19922">
        <ele>2682.22</ele>
        <time>2016-06-30T10:21:30Z</time>
      </trkpt>
      <trkpt lat="42.41931" lon="2.1992">
        <ele>2680.77</ele>
        <time>2016-06-30T10:21:37Z</time>
      </trkpt>
      <trkpt lat="42.41952" lon="2.19926">
        <ele>2678.85</ele>
        <time>2016-06-30T10:21:52Z</time>
      </trkpt>
      <trkpt lat="42.41965" lon="2.19924">
        <ele>2674.52</ele>
        <time>2016-06-30T10:22:01Z</time>
      </trkpt>
      <trkpt lat="42.41976" lon="2.19922">
        <ele>2672.12</ele>
        <time>2016-06-30T10:22:08Z</time>
      </trkpt>
      <trkpt lat="42.41978" lon="2.19923">
        <ele>2672.12</ele>
        <time>2016-06-30T10:22:10Z</time>
      </trkpt>
      <trkpt lat="42.41982" lon="2.19926">
        <ele>2672.12</ele>
        <time>2016-06-30T10:22:14Z</time>
      </trkpt>
      <trkpt lat="42.41989" lon="2.19931">
        <ele>2672.12</ele>
        <time>2016-06-30T10:22:19Z</time>
      </trkpt>
      <trkpt lat="42.41991" lon="2.19933">
        <ele>2671.64</ele>
        <time>2016-06-30T10:22:21Z</time>
      </trkpt>
      <trkpt lat="42.41997" lon="2.19939">
        <ele>2670.2</ele>
        <time>2016-06-30T10:22:26Z</time>
      </trkpt>
      <trkpt lat="42.42001" lon="2.19948">
        <ele>2666.35</ele>
        <time>2016-06-30T10:22:32Z</time>
      </trkpt>
      <trkpt lat="42.42001" lon="2.1995">
        <ele>2665.39</ele>
        <time>2016-06-30T10:22:33Z</time>
      </trkpt>
      <trkpt lat="42.42001" lon="2.19957">
        <ele>2663.95</ele>
        <time>2016-06-30T10:22:37Z</time>
      </trkpt>
      <trkpt lat="42.42001" lon="2.19974">
        <ele>2662.03</ele>
        <time>2016-06-30T10:22:49Z</time>
      </trkpt>
      <trkpt lat="42.42002" lon="2.19978">
        <ele>2661.55</ele>
        <time>2016-06-30T10:22:52Z</time>
      </trkpt>
      <trkpt lat="42.42006" lon="2.19986">
        <ele>2657.22</ele>
        <time>2016-06-30T10:22:59Z</time>
      </trkpt>
      <trkpt lat="42.42009" lon="2.19991">
        <ele>2653.38</ele>
        <time>2016-06-30T10:23:04Z</time>
      </trkpt>
      <trkpt lat="42.42016" lon="2.20004">
        <ele>2652.9</ele>
        <time>2016-06-30T10:23:16Z</time>
      </trkpt>
      <trkpt lat="42.42015" lon="2.20008">
        <ele>2649.53</ele>
        <time>2016-06-30T10:23:25Z</time>
      </trkpt>
      <trkpt lat="42.42015" lon="2.20009">
        <ele>2648.57</ele>
        <time>2016-06-30T10:23:26Z</time>
      </trkpt>
      <trkpt lat="42.42011" lon="2.2001">
        <ele>2645.69</ele>
        <time>2016-06-30T10:23:30Z</time>
      </trkpt>
      <trkpt lat="42.42008" lon="2.20011">
        <ele>2644.72</ele>
        <time>2016-06-30T10:23:33Z</time>
      </trkpt>
      <trkpt lat="42.42003" lon="2.20017">
        <ele>2643.28</ele>
        <time>2016-06-30T10:23:42Z</time>
      </trkpt>
      <trkpt lat="42.42" lon="2.20018">
        <ele>2643.28</ele>
        <time>2016-06-30T10:23:46Z</time>
      </trkpt>
      <trkpt lat="42.41999" lon="2.20021">
        <ele>2643.28</ele>
        <time>2016-06-30T10:23:49Z</time>
      </trkpt>
      <trkpt lat="42.41993" lon="2.20025">
        <ele>2640.88</ele>
        <time>2016-06-30T10:23:56Z</time>
      </trkpt>
      <trkpt lat="42.41987" lon="2.20025">
        <ele>2637.03</ele>
        <time>2016-06-30T10:24:01Z</time>
      </trkpt>
      <trkpt lat="42.41975" lon="2.20018">
        <ele>2635.11</ele>
        <time>2016-06-30T10:24:11Z</time>
      </trkpt>
      <trkpt lat="42.41971" lon="2.20021">
        <ele>2635.11</ele>
        <time>2016-06-30T10:24:15Z</time>
      </trkpt>
      <trkpt lat="42.41971" lon="2.20023">
        <ele>2634.15</ele>
        <time>2016-06-30T10:24:17Z</time>
      </trkpt>
      <trkpt lat="42.4197" lon="2.20027">
        <ele>2632.23</ele>
        <time>2016-06-30T10:24:21Z</time>
      </trkpt>
      <trkpt lat="42.41972" lon="2.20032">
        <ele>2628.38</ele>
        <time>2016-06-30T10:24:25Z</time>
      </trkpt>
      <trkpt lat="42.41974" lon="2.20034">
        <ele>2625.98</ele>
        <time>2016-06-30T10:24:28Z</time>
      </trkpt>
      <trkpt lat="42.41973" lon="2.20037">
        <ele>2625.02</ele>
        <time>2016-06-30T10:24:31Z</time>
      </trkpt>
      <trkpt lat="42.41968" lon="2.20042">
        <ele>2625.02</ele>
        <time>2016-06-30T10:24:37Z</time>
      </trkpt>
      <trkpt lat="42.4197" lon="2.20046">
        <ele>2624.06</ele>
        <time>2016-06-30T10:24:44Z</time>
      </trkpt>
      <trkpt lat="42.4197" lon="2.20051">
        <ele>2623.58</ele>
        <time>2016-06-30T10:24:48Z</time>
      </trkpt>
      <trkpt lat="42.4197" lon="2.20053">
        <ele>2622.61</ele>
        <time>2016-06-30T10:24:51Z</time>
      </trkpt>
      <trkpt lat="42.41973" lon="2.20057">
        <ele>2618.77</ele>
        <time>2016-06-30T10:24:56Z</time>
      </trkpt>
      <trkpt lat="42.41975" lon="2.20061">
        <ele>2615.88</ele>
        <time>2016-06-30T10:25:00Z</time>
      </trkpt>
      <trkpt lat="42.41981" lon="2.20071">
        <ele>2613.48</ele>
        <time>2016-06-30T10:25:10Z</time>
      </trkpt>
      <trkpt lat="42.41991" lon="2.20078">
        <ele>2611.08</ele>
        <time>2016-06-30T10:25:20Z</time>
      </trkpt>
      <trkpt lat="42.41995" lon="2.2008">
        <ele>2609.16</ele>
        <time>2016-06-30T10:25:23Z</time>
      </trkpt>
      <trkpt lat="42.42002" lon="2.20082">
        <ele>2607.71</ele>
        <time>2016-06-30T10:25:28Z</time>
      </trkpt>
      <trkpt lat="42.42009" lon="2.20084">
        <ele>2605.79</ele>
        <time>2016-06-30T10:25:34Z</time>
      </trkpt>
      <trkpt lat="42.42014" lon="2.20085">
        <ele>2605.79</ele>
        <time>2016-06-30T10:25:37Z</time>
      </trkpt>
      <trkpt lat="42.42015" lon="2.20086">
        <ele>2605.31</ele>
        <time>2016-06-30T10:25:39Z</time>
      </trkpt>
      <trkpt lat="42.42021" lon="2.20091">
        <ele>2605.31</ele>
        <time>2016-06-30T10:25:44Z</time>
      </trkpt>
      <trkpt lat="42.42025" lon="2.20098">
        <ele>2603.39</ele>
        <time>2016-06-30T10:25:51Z</time>
      </trkpt>
      <trkpt lat="42.42025" lon="2.20101">
        <ele>2603.39</ele>
        <time>2016-06-30T10:25:53Z</time>
      </trkpt>
      <trkpt lat="42.4203" lon="2.20104">
        <ele>2599.06</ele>
        <time>2016-06-30T10:25:58Z</time>
      </trkpt>
      <trkpt lat="42.4203" lon="2.20105">
        <ele>2598.58</ele>
        <time>2016-06-30T10:25:59Z</time>
      </trkpt>
      <trkpt lat="42.4203" lon="2.20108">
        <ele>2596.18</ele>
        <time>2016-06-30T10:26:02Z</time>
      </trkpt>
      <trkpt lat="42.42033" lon="2.20113">
        <ele>2594.74</ele>
        <time>2016-06-30T10:26:08Z</time>
      </trkpt>
      <trkpt lat="42.42032" lon="2.20115">
        <ele>2594.74</ele>
        <time>2016-06-30T10:26:10Z</time>
      </trkpt>
      <trkpt lat="42.42035" lon="2.20125">
        <ele>2594.25</ele>
        <time>2016-06-30T10:26:18Z</time>
      </trkpt>
      <trkpt lat="42.42039" lon="2.20132">
        <ele>2592.81</ele>
        <time>2016-06-30T10:26:23Z</time>
      </trkpt>
      <trkpt lat="42.4204" lon="2.20135">
        <ele>2591.85</ele>
        <time>2016-06-30T10:26:25Z</time>
      </trkpt>
      <trkpt lat="42.42045" lon="2.20136">
        <ele>2588.97</ele>
        <time>2016-06-30T10:26:29Z</time>
      </trkpt>
      <trkpt lat="42.4205" lon="2.20137">
        <ele>2587.53</ele>
        <time>2016-06-30T10:26:34Z</time>
      </trkpt>
      <trkpt lat="42.42061" lon="2.20141">
        <ele>2587.04</ele>
        <time>2016-06-30T10:26:45Z</time>
      </trkpt>
      <trkpt lat="42.42063" lon="2.20142">
        <ele>2588.01</ele>
        <time>2016-06-30T10:26:48Z</time>
      </trkpt>
      <trkpt lat="42.42067" lon="2.20141">
        <ele>2588.01</ele>
        <time>2016-06-30T10:26:55Z</time>
      </trkpt>
      <trkpt lat="42.42068" lon="2.2014">
        <ele>2588.97</ele>
        <time>2016-06-30T10:26:58Z</time>
      </trkpt>
      <trkpt lat="42.42069" lon="2.20139">
        <ele>2589.45</ele>
        <time>2016-06-30T10:27:03Z</time>
      </trkpt>
      <trkpt lat="42.42074" lon="2.20134">
        <ele>2589.93</ele>
        <time>2016-06-30T10:27:13Z</time>
      </trkpt>
      <trkpt lat="42.4208" lon="2.20133">
        <ele>2590.89</ele>
        <time>2016-06-30T10:27:23Z</time>
      </trkpt>
      <trkpt lat="42.42087" lon="2.20131">
        <ele>2591.37</ele>
        <time>2016-06-30T10:27:33Z</time>
      </trkpt>
      <trkpt lat="42.42094" lon="2.20137">
        <ele>2592.33</ele>
        <time>2016-06-30T10:27:44Z</time>
      </trkpt>
      <trkpt lat="42.42094" lon="2.20145">
        <ele>2592.33</ele>
        <time>2016-06-30T10:27:49Z</time>
      </trkpt>
      <trkpt lat="42.42093" lon="2.2015">
        <ele>2592.33</ele>
        <time>2016-06-30T10:27:53Z</time>
      </trkpt>
      <trkpt lat="42.42092" lon="2.2016">
        <ele>2592.81</ele>
        <time>2016-06-30T10:28:00Z</time>
      </trkpt>
      <trkpt lat="42.42091" lon="2.20167">
        <ele>2593.29</ele>
        <time>2016-06-30T10:28:05Z</time>
      </trkpt>
      <trkpt lat="42.42091" lon="2.20169">
        <ele>2593.29</ele>
        <time>2016-06-30T10:28:07Z</time>
      </trkpt>
      <trkpt lat="42.42091" lon="2.20177">
        <ele>2593.77</ele>
        <time>2016-06-30T10:28:14Z</time>
      </trkpt>
      <trkpt lat="42.42091" lon="2.2018">
        <ele>2594.25</ele>
        <time>2016-06-30T10:28:16Z</time>
      </trkpt>
      <trkpt lat="42.42089" lon="2.20187">
        <ele>2594.74</ele>
        <time>2016-06-30T10:28:24Z</time>
      </trkpt>
      <trkpt lat="42.42091" lon="2.20192">
        <ele>2596.18</ele>
        <time>2016-06-30T10:28:30Z</time>
      </trkpt>
      <trkpt lat="42.42091" lon="2.20204">
        <ele>2597.14</ele>
        <time>2016-06-30T10:28:42Z</time>
      </trkpt>
      <trkpt lat="42.42092" lon="2.20216">
        <ele>2599.06</ele>
        <time>2016-06-30T10:28:52Z</time>
      </trkpt>
      <trkpt lat="42.42094" lon="2.20221">
        <ele>2600.02</ele>
        <time>2016-06-30T10:29:03Z</time>
      </trkpt>
      <trkpt lat="42.42095" lon="2.20225">
        <ele>2601.46</ele>
        <time>2016-06-30T10:29:26Z</time>
      </trkpt>
      <trkpt lat="42.42097" lon="2.20233">
        <ele>2601.95</ele>
        <time>2016-06-30T10:29:33Z</time>
      </trkpt>
      <trkpt lat="42.42101" lon="2.20239">
        <ele>2603.39</ele>
        <time>2016-06-30T10:29:41Z</time>
      </trkpt>
      <trkpt lat="42.42105" lon="2.20241">
        <ele>2606.75</ele>
        <time>2016-06-30T10:29:47Z</time>
      </trkpt>
      <trkpt lat="42.42105" lon="2.20243">
        <ele>2607.71</ele>
        <time>2016-06-30T10:29:59Z</time>
      </trkpt>
      <trkpt lat="42.42105" lon="2.20241">
        <ele>2606.75</ele>
        <time>2016-06-30T10:30:20Z</time>
      </trkpt>
      <trkpt lat="42.42105" lon="2.20241">
        <ele>2606.27</ele>
        <time>2016-06-30T10:30:42Z</time>
      </trkpt>
      <trkpt lat="42.42113" lon="2.20244">
        <ele>2606.27</ele>
        <time>2016-06-30T10:30:48Z</time>
      </trkpt>
      <trkpt lat="42.42129" lon="2.20242">
        <ele>2605.31</ele>
        <time>2016-06-30T10:31:00Z</time>
      </trkpt>
      <trkpt lat="42.42139" lon="2.20247">
        <ele>2603.87</ele>
        <time>2016-06-30T10:31:12Z</time>
      </trkpt>
      <trkpt lat="42.4214" lon="2.20247">
        <ele>2602.91</ele>
        <time>2016-06-30T10:31:17Z</time>
      </trkpt>
      <trkpt lat="42.42144" lon="2.20241">
        <ele>2601.46</ele>
        <time>2016-06-30T10:31:28Z</time>
      </trkpt>
      <trkpt lat="42.42147" lon="2.20241">
        <ele>2599.54</ele>
        <time>2016-06-30T10:31:36Z</time>
      </trkpt>
      <trkpt lat="42.4215" lon="2.2024">
        <ele>2597.14</ele>
        <time>2016-06-30T10:31:39Z</time>
      </trkpt>
      <trkpt lat="42.42154" lon="2.20238">
        <ele>2593.29</ele>
        <time>2016-06-30T10:31:45Z</time>
      </trkpt>
      <trkpt lat="42.42157" lon="2.20236">
        <ele>2592.81</ele>
        <time>2016-06-30T10:31:50Z</time>
      </trkpt>
      <trkpt lat="42.4216" lon="2.20228">
        <ele>2592.81</ele>
        <time>2016-06-30T10:31:57Z</time>
      </trkpt>
      <trkpt lat="42.4216" lon="2.20224">
        <ele>2592.33</ele>
        <time>2016-06-30T10:32:00Z</time>
      </trkpt>
      <trkpt lat="42.42162" lon="2.20221">
        <ele>2591.85</ele>
        <time>2016-06-30T10:32:04Z</time>
      </trkpt>
      <trkpt lat="42.42165" lon="2.20222">
        <ele>2590.41</ele>
        <time>2016-06-30T10:32:09Z</time>
      </trkpt>
      <trkpt lat="42.42168" lon="2.20215">
        <ele>2587.53</ele>
        <time>2016-06-30T10:32:15Z</time>
      </trkpt>
      <trkpt lat="42.42172" lon="2.2021">
        <ele>2583.2</ele>
        <time>2016-06-30T10:32:20Z</time>
      </trkpt>
      <trkpt lat="42.42173" lon="2.20207">
        <ele>2581.28</ele>
        <time>2016-06-30T10:32:22Z</time>
      </trkpt>
      <trkpt lat="42.42181" lon="2.2021">
        <ele>2579.84</ele>
        <time>2016-06-30T10:32:33Z</time>
      </trkpt>
      <trkpt lat="42.42184" lon="2.20214">
        <ele>2579.35</ele>
        <time>2016-06-30T10:32:43Z</time>
      </trkpt>
      <trkpt lat="42.42186" lon="2.20215">
        <ele>2579.35</ele>
        <time>2016-06-30T10:32:46Z</time>
      </trkpt>
      <trkpt lat="42.42189" lon="2.20215">
        <ele>2577.91</ele>
        <time>2016-06-30T10:32:53Z</time>
      </trkpt>
      <trkpt lat="42.4219" lon="2.20212">
        <ele>2576.95</ele>
        <time>2016-06-30T10:32:56Z</time>
      </trkpt>
      <trkpt lat="42.42193" lon="2.20215">
        <ele>2573.59</ele>
        <time>2016-06-30T10:33:02Z</time>
      </trkpt>
      <trkpt lat="42.42196" lon="2.20217">
        <ele>2570.7</ele>
        <time>2016-06-30T10:33:06Z</time>
      </trkpt>
      <trkpt lat="42.42196" lon="2.20217">
        <ele>2570.22</ele>
        <time>2016-06-30T10:33:07Z</time>
      </trkpt>
      <trkpt lat="42.42196" lon="2.20221">
        <ele>2569.74</ele>
        <time>2016-06-30T10:33:11Z</time>
      </trkpt>
      <trkpt lat="42.42197" lon="2.20225">
        <ele>2569.74</ele>
        <time>2016-06-30T10:33:21Z</time>
      </trkpt>
      <trkpt lat="42.42198" lon="2.20224">
        <ele>2569.74</ele>
        <time>2016-06-30T10:33:24Z</time>
      </trkpt>
      <trkpt lat="42.42201" lon="2.20217">
        <ele>2568.3</ele>
        <time>2016-06-30T10:33:30Z</time>
      </trkpt>
      <trkpt lat="42.42206" lon="2.20214">
        <ele>2566.38</ele>
        <time>2016-06-30T10:33:42Z</time>
      </trkpt>
      <trkpt lat="42.42208" lon="2.20217">
        <ele>2564.93</ele>
        <time>2016-06-30T10:33:55Z</time>
      </trkpt>
      <trkpt lat="42.42208" lon="2.20218">
        <ele>2564.93</ele>
        <time>2016-06-30T10:33:56Z</time>
      </trkpt>
      <trkpt lat="42.42208" lon="2.20223">
        <ele>2564.45</ele>
        <time>2016-06-30T10:33:59Z</time>
      </trkpt>
      <trkpt lat="42.42209" lon="2.20225">
        <ele>2563.97</ele>
        <time>2016-06-30T10:34:01Z</time>
      </trkpt>
      <trkpt lat="42.42211" lon="2.20234">
        <ele>2562.05</ele>
        <time>2016-06-30T10:34:10Z</time>
      </trkpt>
      <trkpt lat="42.42209" lon="2.20238">
        <ele>2562.05</ele>
        <time>2016-06-30T10:34:13Z</time>
      </trkpt>
      <trkpt lat="42.42206" lon="2.2024">
        <ele>2562.05</ele>
        <time>2016-06-30T10:34:16Z</time>
      </trkpt>
      <trkpt lat="42.42206" lon="2.20244">
        <ele>2562.05</ele>
        <time>2016-06-30T10:34:19Z</time>
      </trkpt>
      <trkpt lat="42.42204" lon="2.20246">
        <ele>2561.09</ele>
        <time>2016-06-30T10:34:25Z</time>
      </trkpt>
      <trkpt lat="42.42206" lon="2.20249">
        <ele>2560.13</ele>
        <time>2016-06-30T10:34:30Z</time>
      </trkpt>
      <trkpt lat="42.42205" lon="2.20256">
        <ele>2555.8</ele>
        <time>2016-06-30T10:34:37Z</time>
      </trkpt>
      <trkpt lat="42.42205" lon="2.20257">
        <ele>2555.32</ele>
        <time>2016-06-30T10:34:38Z</time>
      </trkpt>
      <trkpt lat="42.42208" lon="2.20255">
        <ele>2553.4</ele>
        <time>2016-06-30T10:34:49Z</time>
      </trkpt>
      <trkpt lat="42.42209" lon="2.20255">
        <ele>2553.4</ele>
        <time>2016-06-30T10:34:52Z</time>
      </trkpt>
      <trkpt lat="42.42213" lon="2.20249">
        <ele>2553.4</ele>
        <time>2016-06-30T10:35:02Z</time>
      </trkpt>
      <trkpt lat="42.42213" lon="2.20251">
        <ele>2553.4</ele>
        <time>2016-06-30T10:35:04Z</time>
      </trkpt>
      <trkpt lat="42.42215" lon="2.2025">
        <ele>2552.44</ele>
        <time>2016-06-30T10:35:06Z</time>
      </trkpt>
      <trkpt lat="42.42218" lon="2.20258">
        <ele>2551</ele>
        <time>2016-06-30T10:35:15Z</time>
      </trkpt>
      <trkpt lat="42.4222" lon="2.20258">
        <ele>2550.03</ele>
        <time>2016-06-30T10:35:18Z</time>
      </trkpt>
      <trkpt lat="42.42226" lon="2.20252">
        <ele>2546.67</ele>
        <time>2016-06-30T10:35:26Z</time>
      </trkpt>
      <trkpt lat="42.42229" lon="2.20252">
        <ele>2543.79</ele>
        <time>2016-06-30T10:35:31Z</time>
      </trkpt>
      <trkpt lat="42.4223" lon="2.20251">
        <ele>2542.82</ele>
        <time>2016-06-30T10:35:33Z</time>
      </trkpt>
      <trkpt lat="42.42232" lon="2.20252">
        <ele>2543.31</ele>
        <time>2016-06-30T10:35:36Z</time>
      </trkpt>
      <trkpt lat="42.42237" lon="2.20252">
        <ele>2542.34</ele>
        <time>2016-06-30T10:35:47Z</time>
      </trkpt>
      <trkpt lat="42.42239" lon="2.20254">
        <ele>2541.86</ele>
        <time>2016-06-30T10:35:53Z</time>
      </trkpt>
      <trkpt lat="42.42242" lon="2.20256">
        <ele>2540.9</ele>
        <time>2016-06-30T10:35:59Z</time>
      </trkpt>
      <trkpt lat="42.42246" lon="2.20258">
        <ele>2539.46</ele>
        <time>2016-06-30T10:36:06Z</time>
      </trkpt>
      <trkpt lat="42.42249" lon="2.20262">
        <ele>2538.5</ele>
        <time>2016-06-30T10:36:10Z</time>
      </trkpt>
      <trkpt lat="42.42254" lon="2.2026">
        <ele>2535.13</ele>
        <time>2016-06-30T10:36:20Z</time>
      </trkpt>
      <trkpt lat="42.42257" lon="2.20266">
        <ele>2532.25</ele>
        <time>2016-06-30T10:36:31Z</time>
      </trkpt>
      <trkpt lat="42.42258" lon="2.20266">
        <ele>2532.25</ele>
        <time>2016-06-30T10:36:32Z</time>
      </trkpt>
      <trkpt lat="42.4226" lon="2.20268">
        <ele>2532.25</ele>
        <time>2016-06-30T10:36:36Z</time>
      </trkpt>
      <trkpt lat="42.42263" lon="2.20266">
        <ele>2531.29</ele>
        <time>2016-06-30T10:36:40Z</time>
      </trkpt>
      <trkpt lat="42.42271" lon="2.20269">
        <ele>2530.33</ele>
        <time>2016-06-30T10:36:48Z</time>
      </trkpt>
      <trkpt lat="42.42278" lon="2.20275">
        <ele>2528.89</ele>
        <time>2016-06-30T10:36:57Z</time>
      </trkpt>
      <trkpt lat="42.42281" lon="2.20275">
        <ele>2528.89</ele>
        <time>2016-06-30T10:37:00Z</time>
      </trkpt>
      <trkpt lat="42.42285" lon="2.2028">
        <ele>2528.4</ele>
        <time>2016-06-30T10:37:04Z</time>
      </trkpt>
      <trkpt lat="42.42288" lon="2.20286">
        <ele>2527.44</ele>
        <time>2016-06-30T10:37:13Z</time>
      </trkpt>
      <trkpt lat="42.42291" lon="2.20288">
        <ele>2526.96</ele>
        <time>2016-06-30T10:37:16Z</time>
      </trkpt>
      <trkpt lat="42.42292" lon="2.20294">
        <ele>2526.48</ele>
        <time>2016-06-30T10:37:24Z</time>
      </trkpt>
      <trkpt lat="42.42305" lon="2.20291">
        <ele>2526</ele>
        <time>2016-06-30T10:37:36Z</time>
      </trkpt>
      <trkpt lat="42.42313" lon="2.20289">
        <ele>2526</ele>
        <time>2016-06-30T10:37:44Z</time>
      </trkpt>
      <trkpt lat="42.42315" lon="2.20297">
        <ele>2524.08</ele>
        <time>2016-06-30T10:37:58Z</time>
      </trkpt>
      <trkpt lat="42.42316" lon="2.20294">
        <ele>2523.12</ele>
        <time>2016-06-30T10:38:22Z</time>
      </trkpt>
      <trkpt lat="42.42316" lon="2.20292">
        <ele>2523.12</ele>
        <time>2016-06-30T10:38:28Z</time>
      </trkpt>
      <trkpt lat="42.42316" lon="2.20287">
        <ele>2523.12</ele>
        <time>2016-06-30T10:38:32Z</time>
      </trkpt>
      <trkpt lat="42.42328" lon="2.20296">
        <ele>2523.12</ele>
        <time>2016-06-30T10:38:44Z</time>
      </trkpt>
      <trkpt lat="42.42331" lon="2.203">
        <ele>2522.64</ele>
        <time>2016-06-30T10:38:48Z</time>
      </trkpt>
      <trkpt lat="42.4234" lon="2.20301">
        <ele>2520.71</ele>
        <time>2016-06-30T10:38:57Z</time>
      </trkpt>
      <trkpt lat="42.42344" lon="2.20305">
        <ele>2520.23</ele>
        <time>2016-06-30T10:39:02Z</time>
      </trkpt>
      <trkpt lat="42.42347" lon="2.20307">
        <ele>2520.23</ele>
        <time>2016-06-30T10:39:05Z</time>
      </trkpt>
      <trkpt lat="42.42348" lon="2.20315">
        <ele>2518.31</ele>
        <time>2016-06-30T10:39:19Z</time>
      </trkpt>
      <trkpt lat="42.42349" lon="2.20315">
        <ele>2517.35</ele>
        <time>2016-06-30T10:39:35Z</time>
      </trkpt>
      <trkpt lat="42.42347" lon="2.20314">
        <ele>2516.87</ele>
        <time>2016-06-30T10:39:50Z</time>
      </trkpt>
      <trkpt lat="42.42348" lon="2.20314">
        <ele>2516.87</ele>
        <time>2016-06-30T10:39:59Z</time>
      </trkpt>
      <trkpt lat="42.42351" lon="2.20309">
        <ele>2516.87</ele>
        <time>2016-06-30T10:40:03Z</time>
      </trkpt>
      <trkpt lat="42.42353" lon="2.20307">
        <ele>2516.87</ele>
        <time>2016-06-30T10:40:05Z</time>
      </trkpt>
      <trkpt lat="42.42359" lon="2.203">
        <ele>2516.39</ele>
        <time>2016-06-30T10:40:13Z</time>
      </trkpt>
      <trkpt lat="42.42361" lon="2.20297">
        <ele>2515.43</ele>
        <time>2016-06-30T10:40:16Z</time>
      </trkpt>
      <trkpt lat="42.42376" lon="2.20296">
        <ele>2513.98</ele>
        <time>2016-06-30T10:40:27Z</time>
      </trkpt>
      <trkpt lat="42.42377" lon="2.20296">
        <ele>2513.98</ele>
        <time>2016-06-30T10:40:28Z</time>
      </trkpt>
      <trkpt lat="42.42378" lon="2.20295">
        <ele>2513.5</ele>
        <time>2016-06-30T10:40:30Z</time>
      </trkpt>
      <trkpt lat="42.42383" lon="2.20277">
        <ele>2512.06</ele>
        <time>2016-06-30T10:40:41Z</time>
      </trkpt>
      <trkpt lat="42.42384" lon="2.20269">
        <ele>2511.58</ele>
        <time>2016-06-30T10:40:46Z</time>
      </trkpt>
      <trkpt lat="42.42386" lon="2.20261">
        <ele>2510.62</ele>
        <time>2016-06-30T10:40:53Z</time>
      </trkpt>
      <trkpt lat="42.42387" lon="2.20251">
        <ele>2508.7</ele>
        <time>2016-06-30T10:41:00Z</time>
      </trkpt>
      <trkpt lat="42.42388" lon="2.20245">
        <ele>2507.74</ele>
        <time>2016-06-30T10:41:05Z</time>
      </trkpt>
      <trkpt lat="42.42387" lon="2.20239">
        <ele>2506.77</ele>
        <time>2016-06-30T10:41:09Z</time>
      </trkpt>
      <trkpt lat="42.42391" lon="2.20229">
        <ele>2503.41</ele>
        <time>2016-06-30T10:41:15Z</time>
      </trkpt>
      <trkpt lat="42.42398" lon="2.20227">
        <ele>2501.49</ele>
        <time>2016-06-30T10:41:21Z</time>
      </trkpt>
      <trkpt lat="42.424" lon="2.20222">
        <ele>2501.49</ele>
        <time>2016-06-30T10:41:25Z</time>
      </trkpt>
      <trkpt lat="42.42401" lon="2.20218">
        <ele>2501.49</ele>
        <time>2016-06-30T10:41:28Z</time>
      </trkpt>
      <trkpt lat="42.42401" lon="2.20216">
        <ele>2501.49</ele>
        <time>2016-06-30T10:41:30Z</time>
      </trkpt>
      <trkpt lat="42.42409" lon="2.20208">
        <ele>2501.49</ele>
        <time>2016-06-30T10:41:40Z</time>
      </trkpt>
      <trkpt lat="42.42411" lon="2.20205">
        <ele>2501.49</ele>
        <time>2016-06-30T10:41:44Z</time>
      </trkpt>
      <trkpt lat="42.42413" lon="2.202">
        <ele>2501.49</ele>
        <time>2016-06-30T10:41:48Z</time>
      </trkpt>
      <trkpt lat="42.42415" lon="2.20195">
        <ele>2500.53</ele>
        <time>2016-06-30T10:41:53Z</time>
      </trkpt>
      <trkpt lat="42.42417" lon="2.20194">
        <ele>2500.53</ele>
        <time>2016-06-30T10:41:55Z</time>
      </trkpt>
      <trkpt lat="42.42419" lon="2.20185">
        <ele>2498.12</ele>
        <time>2016-06-30T10:42:05Z</time>
      </trkpt>
      <trkpt lat="42.42414" lon="2.20182">
        <ele>2496.2</ele>
        <time>2016-06-30T10:42:11Z</time>
      </trkpt>
      <trkpt lat="42.42413" lon="2.20176">
        <ele>2492.36</ele>
        <time>2016-06-30T10:42:16Z</time>
      </trkpt>
      <trkpt lat="42.42415" lon="2.20173">
        <ele>2491.39</ele>
        <time>2016-06-30T10:42:20Z</time>
      </trkpt>
      <trkpt lat="42.42417" lon="2.20162">
        <ele>2491.39</ele>
        <time>2016-06-30T10:42:30Z</time>
      </trkpt>
      <trkpt lat="42.42419" lon="2.20155">
        <ele>2491.39</ele>
        <time>2016-06-30T10:42:37Z</time>
      </trkpt>
      <trkpt lat="42.42421" lon="2.20149">
        <ele>2489.47</ele>
        <time>2016-06-30T10:42:47Z</time>
      </trkpt>
      <trkpt lat="42.42423" lon="2.20145">
        <ele>2488.99</ele>
        <time>2016-06-30T10:42:51Z</time>
      </trkpt>
      <trkpt lat="42.42422" lon="2.20142">
        <ele>2487.55</ele>
        <time>2016-06-30T10:42:55Z</time>
      </trkpt>
      <trkpt lat="42.42422" lon="2.20141">
        <ele>2487.55</ele>
        <time>2016-06-30T10:42:57Z</time>
      </trkpt>
      <trkpt lat="42.4242" lon="2.2014">
        <ele>2483.22</ele>
        <time>2016-06-30T10:43:05Z</time>
      </trkpt>
      <trkpt lat="42.42418" lon="2.20135">
        <ele>2481.3</ele>
        <time>2016-06-30T10:43:12Z</time>
      </trkpt>
      <trkpt lat="42.42419" lon="2.20129">
        <ele>2481.3</ele>
        <time>2016-06-30T10:43:18Z</time>
      </trkpt>
      <trkpt lat="42.42421" lon="2.20124">
        <ele>2479.86</ele>
        <time>2016-06-30T10:43:23Z</time>
      </trkpt>
      <trkpt lat="42.42421" lon="2.20122">
        <ele>2479.86</ele>
        <time>2016-06-30T10:43:25Z</time>
      </trkpt>
      <trkpt lat="42.42425" lon="2.20106">
        <ele>2477.94</ele>
        <time>2016-06-30T10:43:36Z</time>
      </trkpt>
      <trkpt lat="42.42425" lon="2.20106">
        <ele>2477.94</ele>
        <time>2016-06-30T10:43:37Z</time>
      </trkpt>
      <trkpt lat="42.42423" lon="2.201">
        <ele>2474.57</ele>
        <time>2016-06-30T10:43:43Z</time>
      </trkpt>
      <trkpt lat="42.42424" lon="2.20097">
        <ele>2473.61</ele>
        <time>2016-06-30T10:43:45Z</time>
      </trkpt>
      <trkpt lat="42.42425" lon="2.20092">
        <ele>2472.65</ele>
        <time>2016-06-30T10:43:49Z</time>
      </trkpt>
      <trkpt lat="42.42422" lon="2.20086">
        <ele>2472.65</ele>
        <time>2016-06-30T10:43:54Z</time>
      </trkpt>
      <trkpt lat="42.42426" lon="2.20077">
        <ele>2472.17</ele>
        <time>2016-06-30T10:44:05Z</time>
      </trkpt>
      <trkpt lat="42.42426" lon="2.20075">
        <ele>2472.17</ele>
        <time>2016-06-30T10:44:11Z</time>
      </trkpt>
      <trkpt lat="42.42429" lon="2.20067">
        <ele>2470.73</ele>
        <time>2016-06-30T10:44:21Z</time>
      </trkpt>
      <trkpt lat="42.42428" lon="2.20057">
        <ele>2468.32</ele>
        <time>2016-06-30T10:44:34Z</time>
      </trkpt>
      <trkpt lat="42.42428" lon="2.2005">
        <ele>2464.48</ele>
        <time>2016-06-30T10:44:42Z</time>
      </trkpt>
      <trkpt lat="42.42427" lon="2.20051">
        <ele>2462.55</ele>
        <time>2016-06-30T10:44:53Z</time>
      </trkpt>
      <trkpt lat="42.42427" lon="2.20051">
        <ele>2463.52</ele>
        <time>2016-06-30T10:45:13Z</time>
      </trkpt>
      <trkpt lat="42.42427" lon="2.20051">
        <ele>2463.52</ele>
        <time>2016-06-30T10:45:19Z</time>
      </trkpt>
      <trkpt lat="42.42426" lon="2.2005">
        <ele>2463.52</ele>
        <time>2016-06-30T10:45:21Z</time>
      </trkpt>
      <trkpt lat="42.42424" lon="2.20044">
        <ele>2462.07</ele>
        <time>2016-06-30T10:45:32Z</time>
      </trkpt>
      <trkpt lat="42.42422" lon="2.20038">
        <ele>2460.63</ele>
        <time>2016-06-30T10:45:39Z</time>
      </trkpt>
      <trkpt lat="42.42421" lon="2.20034">
        <ele>2459.19</ele>
        <time>2016-06-30T10:45:46Z</time>
      </trkpt>
      <trkpt lat="42.42421" lon="2.20027">
        <ele>2455.82</ele>
        <time>2016-06-30T10:45:52Z</time>
      </trkpt>
      <trkpt lat="42.42422" lon="2.20021">
        <ele>2452.46</ele>
        <time>2016-06-30T10:45:58Z</time>
      </trkpt>
      <trkpt lat="42.42423" lon="2.20017">
        <ele>2452.46</ele>
        <time>2016-06-30T10:46:02Z</time>
      </trkpt>
      <trkpt lat="42.42423" lon="2.20008">
        <ele>2452.46</ele>
        <time>2016-06-30T10:46:14Z</time>
      </trkpt>
      <trkpt lat="42.42426" lon="2.19997">
        <ele>2451.02</ele>
        <time>2016-06-30T10:46:26Z</time>
      </trkpt>
      <trkpt lat="42.42425" lon="2.19996">
        <ele>2447.65</ele>
        <time>2016-06-30T10:46:32Z</time>
      </trkpt>
      <trkpt lat="42.42427" lon="2.19986">
        <ele>2445.73</ele>
        <time>2016-06-30T10:46:43Z</time>
      </trkpt>
      <trkpt lat="42.42427" lon="2.19986">
        <ele>2445.73</ele>
        <time>2016-06-30T10:46:44Z</time>
      </trkpt>
      <trkpt lat="42.42425" lon="2.19979">
        <ele>2444.77</ele>
        <time>2016-06-30T10:46:54Z</time>
      </trkpt>
      <trkpt lat="42.42424" lon="2.19978">
        <ele>2444.29</ele>
        <time>2016-06-30T10:46:58Z</time>
      </trkpt>
      <trkpt lat="42.42424" lon="2.19969">
        <ele>2441.41</ele>
        <time>2016-06-30T10:47:10Z</time>
      </trkpt>
      <trkpt lat="42.42422" lon="2.19966">
        <ele>2439.96</ele>
        <time>2016-06-30T10:47:23Z</time>
      </trkpt>
      <trkpt lat="42.42419" lon="2.19959">
        <ele>2438.52</ele>
        <time>2016-06-30T10:47:33Z</time>
      </trkpt>
      <trkpt lat="42.42419" lon="2.19957">
        <ele>2438.04</ele>
        <time>2016-06-30T10:47:37Z</time>
      </trkpt>
      <trkpt lat="42.42418" lon="2.19949">
        <ele>2437.08</ele>
        <time>2016-06-30T10:47:43Z</time>
      </trkpt>
      <trkpt lat="42.42418" lon="2.19942">
        <ele>2435.64</ele>
        <time>2016-06-30T10:47:49Z</time>
      </trkpt>
      <trkpt lat="42.42419" lon="2.19939">
        <ele>2435.16</ele>
        <time>2016-06-30T10:47:51Z</time>
      </trkpt>
      <trkpt lat="42.42422" lon="2.19931">
        <ele>2434.68</ele>
        <time>2016-06-30T10:47:57Z</time>
      </trkpt>
      <trkpt lat="42.42426" lon="2.19926">
        <ele>2434.2</ele>
        <time>2016-06-30T10:48:01Z</time>
      </trkpt>
      <trkpt lat="42.42431" lon="2.19917">
        <ele>2432.75</ele>
        <time>2016-06-30T10:48:09Z</time>
      </trkpt>
      <trkpt lat="42.42432" lon="2.19914">
        <ele>2432.75</ele>
        <time>2016-06-30T10:48:11Z</time>
      </trkpt>
      <trkpt lat="42.42433" lon="2.19911">
        <ele>2432.75</ele>
        <time>2016-06-30T10:48:13Z</time>
      </trkpt>
      <trkpt lat="42.42439" lon="2.19904">
        <ele>2431.79</ele>
        <time>2016-06-30T10:48:20Z</time>
      </trkpt>
      <trkpt lat="42.42448" lon="2.1989">
        <ele>2430.83</ele>
        <time>2016-06-30T10:48:33Z</time>
      </trkpt>
      <trkpt lat="42.42455" lon="2.19885">
        <ele>2430.35</ele>
        <time>2016-06-30T10:48:43Z</time>
      </trkpt>
      <trkpt lat="42.42462" lon="2.19876">
        <ele>2429.87</ele>
        <time>2016-06-30T10:48:52Z</time>
      </trkpt>
      <trkpt lat="42.42462" lon="2.19873">
        <ele>2429.87</ele>
        <time>2016-06-30T10:48:56Z</time>
      </trkpt>
      <trkpt lat="42.42464" lon="2.19867">
        <ele>2429.39</ele>
        <time>2016-06-30T10:49:00Z</time>
      </trkpt>
      <trkpt lat="42.42466" lon="2.1986">
        <ele>2428.91</ele>
        <time>2016-06-30T10:49:04Z</time>
      </trkpt>
      <trkpt lat="42.4247" lon="2.19857">
        <ele>2427.95</ele>
        <time>2016-06-30T10:49:08Z</time>
      </trkpt>
      <trkpt lat="42.42472" lon="2.19847">
        <ele>2426.5</ele>
        <time>2016-06-30T10:49:16Z</time>
      </trkpt>
      <trkpt lat="42.42474" lon="2.19844">
        <ele>2426.02</ele>
        <time>2016-06-30T10:49:19Z</time>
      </trkpt>
      <trkpt lat="42.42477" lon="2.19843">
        <ele>2426.02</ele>
        <time>2016-06-30T10:49:22Z</time>
      </trkpt>
      <trkpt lat="42.42479" lon="2.19843">
        <ele>2425.06</ele>
        <time>2016-06-30T10:49:24Z</time>
      </trkpt>
      <trkpt lat="42.42488" lon="2.1984">
        <ele>2424.1</ele>
        <time>2016-06-30T10:49:34Z</time>
      </trkpt>
      <trkpt lat="42.4249" lon="2.19835">
        <ele>2423.14</ele>
        <time>2016-06-30T10:49:39Z</time>
      </trkpt>
      <trkpt lat="42.42492" lon="2.19832">
        <ele>2422.66</ele>
        <time>2016-06-30T10:49:43Z</time>
      </trkpt>
      <trkpt lat="42.42496" lon="2.19825">
        <ele>2421.22</ele>
        <time>2016-06-30T10:49:49Z</time>
      </trkpt>
      <trkpt lat="42.42499" lon="2.19823">
        <ele>2420.74</ele>
        <time>2016-06-30T10:49:52Z</time>
      </trkpt>
      <trkpt lat="42.42506" lon="2.19818">
        <ele>2418.81</ele>
        <time>2016-06-30T10:50:00Z</time>
      </trkpt>
      <trkpt lat="42.42512" lon="2.19816">
        <ele>2417.85</ele>
        <time>2016-06-30T10:50:06Z</time>
      </trkpt>
      <trkpt lat="42.42522" lon="2.19809">
        <ele>2416.41</ele>
        <time>2016-06-30T10:50:15Z</time>
      </trkpt>
      <trkpt lat="42.42527" lon="2.19807">
        <ele>2415.93</ele>
        <time>2016-06-30T10:50:19Z</time>
      </trkpt>
      <trkpt lat="42.4253" lon="2.19801">
        <ele>2415.45</ele>
        <time>2016-06-30T10:50:23Z</time>
      </trkpt>
      <trkpt lat="42.42534" lon="2.19792">
        <ele>2414.97</ele>
        <time>2016-06-30T10:50:30Z</time>
      </trkpt>
      <trkpt lat="42.42536" lon="2.19788">
        <ele>2414.49</ele>
        <time>2016-06-30T10:50:33Z</time>
      </trkpt>
      <trkpt lat="42.42539" lon="2.19781">
        <ele>2414.01</ele>
        <time>2016-06-30T10:50:38Z</time>
      </trkpt>
      <trkpt lat="42.42541" lon="2.19776">
        <ele>2413.05</ele>
        <time>2016-06-30T10:50:43Z</time>
      </trkpt>
      <trkpt lat="42.4254" lon="2.1977">
        <ele>2412.09</ele>
        <time>2016-06-30T10:50:52Z</time>
      </trkpt>
      <trkpt lat="42.42539" lon="2.19768">
        <ele>2411.6</ele>
        <time>2016-06-30T10:50:55Z</time>
      </trkpt>
      <trkpt lat="42.4254" lon="2.19752">
        <ele>2410.64</ele>
        <time>2016-06-30T10:51:07Z</time>
      </trkpt>
      <trkpt lat="42.42542" lon="2.19746">
        <ele>2409.2</ele>
        <time>2016-06-30T10:51:13Z</time>
      </trkpt>
      <trkpt lat="42.42544" lon="2.19744">
        <ele>2408.72</ele>
        <time>2016-06-30T10:51:16Z</time>
      </trkpt>
      <trkpt lat="42.42545" lon="2.19737">
        <ele>2407.76</ele>
        <time>2016-06-30T10:51:23Z</time>
      </trkpt>
      <trkpt lat="42.42551" lon="2.19724">
        <ele>2406.8</ele>
        <time>2016-06-30T10:51:33Z</time>
      </trkpt>
      <trkpt lat="42.42555" lon="2.19713">
        <ele>2405.36</ele>
        <time>2016-06-30T10:51:42Z</time>
      </trkpt>
      <trkpt lat="42.4256" lon="2.1971">
        <ele>2404.88</ele>
        <time>2016-06-30T10:51:46Z</time>
      </trkpt>
      <trkpt lat="42.42561" lon="2.19708">
        <ele>2404.39</ele>
        <time>2016-06-30T10:51:48Z</time>
      </trkpt>
      <trkpt lat="42.42563" lon="2.19707">
        <ele>2404.39</ele>
        <time>2016-06-30T10:51:50Z</time>
      </trkpt>
      <trkpt lat="42.42568" lon="2.197">
        <ele>2403.43</ele>
        <time>2016-06-30T10:51:56Z</time>
      </trkpt>
      <trkpt lat="42.42573" lon="2.19694">
        <ele>2402.47</ele>
        <time>2016-06-30T10:52:02Z</time>
      </trkpt>
      <trkpt lat="42.42576" lon="2.19689">
        <ele>2401.99</ele>
        <time>2016-06-30T10:52:09Z</time>
      </trkpt>
      <trkpt lat="42.42571" lon="2.19686">
        <ele>2401.03</ele>
        <time>2016-06-30T10:52:17Z</time>
      </trkpt>
      <trkpt lat="42.42569" lon="2.19673">
        <ele>2400.07</ele>
        <time>2016-06-30T10:52:27Z</time>
      </trkpt>
      <trkpt lat="42.42571" lon="2.19667">
        <ele>2399.11</ele>
        <time>2016-06-30T10:52:31Z</time>
      </trkpt>
      <trkpt lat="42.42574" lon="2.19664">
        <ele>2399.11</ele>
        <time>2016-06-30T10:52:35Z</time>
      </trkpt>
      <trkpt lat="42.42576" lon="2.19655">
        <ele>2397.67</ele>
        <time>2016-06-30T10:52:46Z</time>
      </trkpt>
      <trkpt lat="42.42579" lon="2.19648">
        <ele>2395.74</ele>
        <time>2016-06-30T10:52:56Z</time>
      </trkpt>
      <trkpt lat="42.42578" lon="2.19641">
        <ele>2394.78</ele>
        <time>2016-06-30T10:53:05Z</time>
      </trkpt>
      <trkpt lat="42.42581" lon="2.19633">
        <ele>2394.3</ele>
        <time>2016-06-30T10:53:11Z</time>
      </trkpt>
      <trkpt lat="42.42583" lon="2.19631">
        <ele>2393.82</ele>
        <time>2016-06-30T10:53:14Z</time>
      </trkpt>
      <trkpt lat="42.42586" lon="2.19624">
        <ele>2392.38</ele>
        <time>2016-06-30T10:53:20Z</time>
      </trkpt>
      <trkpt lat="42.4259" lon="2.19621">
        <ele>2391.42</ele>
        <time>2016-06-30T10:53:25Z</time>
      </trkpt>
      <trkpt lat="42.42592" lon="2.19614">
        <ele>2390.94</ele>
        <time>2016-06-30T10:53:30Z</time>
      </trkpt>
      <trkpt lat="42.42595" lon="2.19611">
        <ele>2389.97</ele>
        <time>2016-06-30T10:53:34Z</time>
      </trkpt>
      <trkpt lat="42.42602" lon="2.19608">
        <ele>2389.01</ele>
        <time>2016-06-30T10:53:42Z</time>
      </trkpt>
      <trkpt lat="42.42613" lon="2.19603">
        <ele>2387.09</ele>
        <time>2016-06-30T10:53:54Z</time>
      </trkpt>
      <trkpt lat="42.42617" lon="2.19601">
        <ele>2386.61</ele>
        <time>2016-06-30T10:54:00Z</time>
      </trkpt>
      <trkpt lat="42.42629" lon="2.19599">
        <ele>2385.17</ele>
        <time>2016-06-30T10:54:13Z</time>
      </trkpt>
      <trkpt lat="42.42633" lon="2.19597">
        <ele>2384.69</ele>
        <time>2016-06-30T10:54:17Z</time>
      </trkpt>
      <trkpt lat="42.42634" lon="2.19595">
        <ele>2384.69</ele>
        <time>2016-06-30T10:54:19Z</time>
      </trkpt>
      <trkpt lat="42.42638" lon="2.19591">
        <ele>2383.73</ele>
        <time>2016-06-30T10:54:25Z</time>
      </trkpt>
      <trkpt lat="42.42651" lon="2.19585">
        <ele>2381.32</ele>
        <time>2016-06-30T10:54:38Z</time>
      </trkpt>
      <trkpt lat="42.42652" lon="2.19585">
        <ele>2381.8</ele>
        <time>2016-06-30T10:54:39Z</time>
      </trkpt>
      <trkpt lat="42.42664" lon="2.19585">
        <ele>2380.84</ele>
        <time>2016-06-30T10:54:50Z</time>
      </trkpt>
      <trkpt lat="42.42677" lon="2.19588">
        <ele>2380.36</ele>
        <time>2016-06-30T10:55:01Z</time>
      </trkpt>
      <trkpt lat="42.42682" lon="2.19591">
        <ele>2380.36</ele>
        <time>2016-06-30T10:55:06Z</time>
      </trkpt>
      <trkpt lat="42.42693" lon="2.19589">
        <ele>2379.4</ele>
        <time>2016-06-30T10:55:18Z</time>
      </trkpt>
      <trkpt lat="42.42693" lon="2.1959">
        <ele>2379.4</ele>
        <time>2016-06-30T10:55:28Z</time>
      </trkpt>
      <trkpt lat="42.42705" lon="2.19588">
        <ele>2378.44</ele>
        <time>2016-06-30T10:55:39Z</time>
      </trkpt>
      <trkpt lat="42.4271" lon="2.19588">
        <ele>2377.96</ele>
        <time>2016-06-30T10:55:43Z</time>
      </trkpt>
      <trkpt lat="42.42711" lon="2.19589">
        <ele>2377.48</ele>
        <time>2016-06-30T10:55:45Z</time>
      </trkpt>
      <trkpt lat="42.42713" lon="2.19587">
        <ele>2377</ele>
        <time>2016-06-30T10:55:48Z</time>
      </trkpt>
      <trkpt lat="42.42716" lon="2.19584">
        <ele>2376.52</ele>
        <time>2016-06-30T10:55:51Z</time>
      </trkpt>
      <trkpt lat="42.42723" lon="2.1958">
        <ele>2376.04</ele>
        <time>2016-06-30T10:55:58Z</time>
      </trkpt>
      <trkpt lat="42.4273" lon="2.19571">
        <ele>2374.11</ele>
        <time>2016-06-30T10:56:07Z</time>
      </trkpt>
      <trkpt lat="42.42736" lon="2.19568">
        <ele>2373.63</ele>
        <time>2016-06-30T10:56:12Z</time>
      </trkpt>
      <trkpt lat="42.4274" lon="2.19569">
        <ele>2372.19</ele>
        <time>2016-06-30T10:56:16Z</time>
      </trkpt>
      <trkpt lat="42.42743" lon="2.19566">
        <ele>2371.71</ele>
        <time>2016-06-30T10:56:20Z</time>
      </trkpt>
      <trkpt lat="42.42745" lon="2.19562">
        <ele>2371.23</ele>
        <time>2016-06-30T10:56:24Z</time>
      </trkpt>
      <trkpt lat="42.42746" lon="2.1956">
        <ele>2370.75</ele>
        <time>2016-06-30T10:56:25Z</time>
      </trkpt>
      <trkpt lat="42.42748" lon="2.19556">
        <ele>2370.27</ele>
        <time>2016-06-30T10:56:29Z</time>
      </trkpt>
      <trkpt lat="42.4275" lon="2.19554">
        <ele>2370.27</ele>
        <time>2016-06-30T10:56:31Z</time>
      </trkpt>
      <trkpt lat="42.42753" lon="2.19554">
        <ele>2369.79</ele>
        <time>2016-06-30T10:56:34Z</time>
      </trkpt>
      <trkpt lat="42.42755" lon="2.19551">
        <ele>2366.9</ele>
        <time>2016-06-30T10:56:38Z</time>
      </trkpt>
      <trkpt lat="42.42759" lon="2.19547">
        <ele>2362.1</ele>
        <time>2016-06-30T10:56:43Z</time>
      </trkpt>
      <trkpt lat="42.42759" lon="2.19546">
        <ele>2361.62</ele>
        <time>2016-06-30T10:56:44Z</time>
      </trkpt>
      <trkpt lat="42.4276" lon="2.19544">
        <ele>2360.65</ele>
        <time>2016-06-30T10:56:46Z</time>
      </trkpt>
      <trkpt lat="42.42763" lon="2.19542">
        <ele>2360.17</ele>
        <time>2016-06-30T10:56:56Z</time>
      </trkpt>
      <trkpt lat="42.42764" lon="2.19542">
        <ele>2360.17</ele>
        <time>2016-06-30T10:57:08Z</time>
      </trkpt>
      <trkpt lat="42.42764" lon="2.19542">
        <ele>2360.17</ele>
        <time>2016-06-30T10:57:20Z</time>
      </trkpt>
      <trkpt lat="42.42764" lon="2.19542">
        <ele>2359.69</ele>
        <time>2016-06-30T10:57:35Z</time>
      </trkpt>
      <trkpt lat="42.42763" lon="2.19543">
        <ele>2359.69</ele>
        <time>2016-06-30T10:57:50Z</time>
      </trkpt>
      <trkpt lat="42.42765" lon="2.1954">
        <ele>2359.69</ele>
        <time>2016-06-30T10:57:56Z</time>
      </trkpt>
      <trkpt lat="42.42769" lon="2.19532">
        <ele>2359.69</ele>
        <time>2016-06-30T10:58:02Z</time>
      </trkpt>
      <trkpt lat="42.4277" lon="2.19529">
        <ele>2359.21</ele>
        <time>2016-06-30T10:58:05Z</time>
      </trkpt>
      <trkpt lat="42.4277" lon="2.19527">
        <ele>2358.73</ele>
        <time>2016-06-30T10:58:07Z</time>
      </trkpt>
      <trkpt lat="42.4277" lon="2.19521">
        <ele>2358.25</ele>
        <time>2016-06-30T10:58:11Z</time>
      </trkpt>
      <trkpt lat="42.42773" lon="2.19519">
        <ele>2358.25</ele>
        <time>2016-06-30T10:58:15Z</time>
      </trkpt>
      <trkpt lat="42.42775" lon="2.19519">
        <ele>2357.29</ele>
        <time>2016-06-30T10:58:17Z</time>
      </trkpt>
      <trkpt lat="42.42778" lon="2.19512">
        <ele>2356.81</ele>
        <time>2016-06-30T10:58:27Z</time>
      </trkpt>
      <trkpt lat="42.42781" lon="2.1951">
        <ele>2356.33</ele>
        <time>2016-06-30T10:58:31Z</time>
      </trkpt>
      <trkpt lat="42.42784" lon="2.1951">
        <ele>2355.37</ele>
        <time>2016-06-30T10:58:39Z</time>
      </trkpt>
      <trkpt lat="42.42787" lon="2.19505">
        <ele>2354.41</ele>
        <time>2016-06-30T10:58:43Z</time>
      </trkpt>
      <trkpt lat="42.42798" lon="2.19511">
        <ele>2352.96</ele>
        <time>2016-06-30T10:58:54Z</time>
      </trkpt>
      <trkpt lat="42.42804" lon="2.19514">
        <ele>2351.52</ele>
        <time>2016-06-30T10:59:00Z</time>
      </trkpt>
      <trkpt lat="42.42807" lon="2.19515">
        <ele>2351.04</ele>
        <time>2016-06-30T10:59:03Z</time>
      </trkpt>
      <trkpt lat="42.42814" lon="2.19517">
        <ele>2348.16</ele>
        <time>2016-06-30T10:59:09Z</time>
      </trkpt>
      <trkpt lat="42.4283" lon="2.19521">
        <ele>2345.75</ele>
        <time>2016-06-30T10:59:20Z</time>
      </trkpt>
      <trkpt lat="42.42835" lon="2.19527">
        <ele>2345.75</ele>
        <time>2016-06-30T10:59:29Z</time>
      </trkpt>
      <trkpt lat="42.42837" lon="2.19534">
        <ele>2345.75</ele>
        <time>2016-06-30T10:59:34Z</time>
      </trkpt>
      <trkpt lat="42.42841" lon="2.19535">
        <ele>2345.75</ele>
        <time>2016-06-30T10:59:37Z</time>
      </trkpt>
      <trkpt lat="42.42849" lon="2.19537">
        <ele>2345.75</ele>
        <time>2016-06-30T10:59:43Z</time>
      </trkpt>
      <trkpt lat="42.42853" lon="2.19536">
        <ele>2345.27</ele>
        <time>2016-06-30T10:59:46Z</time>
      </trkpt>
      <trkpt lat="42.42859" lon="2.19539">
        <ele>2345.27</ele>
        <time>2016-06-30T10:59:52Z</time>
      </trkpt>
      <trkpt lat="42.42861" lon="2.19542">
        <ele>2345.27</ele>
        <time>2016-06-30T10:59:55Z</time>
      </trkpt>
      <trkpt lat="42.42867" lon="2.19546">
        <ele>2345.27</ele>
        <time>2016-06-30T11:00:03Z</time>
      </trkpt>
      <trkpt lat="42.42873" lon="2.19557">
        <ele>2343.83</ele>
        <time>2016-06-30T11:00:14Z</time>
      </trkpt>
      <trkpt lat="42.42873" lon="2.19564">
        <ele>2343.35</ele>
        <time>2016-06-30T11:00:19Z</time>
      </trkpt>
      <trkpt lat="42.42875" lon="2.1957">
        <ele>2342.87</ele>
        <time>2016-06-30T11:00:24Z</time>
      </trkpt>
      <trkpt lat="42.42877" lon="2.19574">
        <ele>2342.87</ele>
        <time>2016-06-30T11:00:28Z</time>
      </trkpt>
      <trkpt lat="42.4288" lon="2.1958">
        <ele>2342.87</ele>
        <time>2016-06-30T11:00:34Z</time>
      </trkpt>
      <trkpt lat="42.42883" lon="2.1958">
        <ele>2342.39</ele>
        <time>2016-06-30T11:00:37Z</time>
      </trkpt>
      <trkpt lat="42.42885" lon="2.19582">
        <ele>2342.39</ele>
        <time>2016-06-30T11:00:41Z</time>
      </trkpt>
      <trkpt lat="42.42891" lon="2.19586">
        <ele>2340.95</ele>
        <time>2016-06-30T11:00:49Z</time>
      </trkpt>
      <trkpt lat="42.42895" lon="2.19584">
        <ele>2340.47</ele>
        <time>2016-06-30T11:00:53Z</time>
      </trkpt>
      <trkpt lat="42.42903" lon="2.19588">
        <ele>2339.99</ele>
        <time>2016-06-30T11:00:59Z</time>
      </trkpt>
      <trkpt lat="42.42912" lon="2.19599">
        <ele>2338.54</ele>
        <time>2016-06-30T11:01:13Z</time>
      </trkpt>
      <trkpt lat="42.42914" lon="2.196">
        <ele>2339.02</ele>
        <time>2016-06-30T11:01:15Z</time>
      </trkpt>
      <trkpt lat="42.42917" lon="2.19602">
        <ele>2338.06</ele>
        <time>2016-06-30T11:01:19Z</time>
      </trkpt>
      <trkpt lat="42.4292" lon="2.19608">
        <ele>2337.1</ele>
        <time>2016-06-30T11:01:28Z</time>
      </trkpt>
      <trkpt lat="42.42924" lon="2.19606">
        <ele>2336.14</ele>
        <time>2016-06-30T11:01:33Z</time>
      </trkpt>
      <trkpt lat="42.42927" lon="2.19608">
        <ele>2332.3</ele>
        <time>2016-06-30T11:01:37Z</time>
      </trkpt>
      <trkpt lat="42.42928" lon="2.19611">
        <ele>2332.3</ele>
        <time>2016-06-30T11:01:39Z</time>
      </trkpt>
      <trkpt lat="42.42934" lon="2.19621">
        <ele>2330.85</ele>
        <time>2016-06-30T11:01:50Z</time>
      </trkpt>
      <trkpt lat="42.42935" lon="2.19621">
        <ele>2330.85</ele>
        <time>2016-06-30T11:01:52Z</time>
      </trkpt>
      <trkpt lat="42.4295" lon="2.19627">
        <ele>2328.93</ele>
        <time>2016-06-30T11:02:06Z</time>
      </trkpt>
      <trkpt lat="42.42963" lon="2.1963">
        <ele>2325.57</ele>
        <time>2016-06-30T11:02:18Z</time>
      </trkpt>
      <trkpt lat="42.42969" lon="2.19635">
        <ele>2322.68</ele>
        <time>2016-06-30T11:02:25Z</time>
      </trkpt>
      <trkpt lat="42.42971" lon="2.19636">
        <ele>2320.28</ele>
        <time>2016-06-30T11:02:28Z</time>
      </trkpt>
      <trkpt lat="42.42979" lon="2.19635">
        <ele>2318.84</ele>
        <time>2016-06-30T11:02:37Z</time>
      </trkpt>
      <trkpt lat="42.42987" lon="2.19639">
        <ele>2318.84</ele>
        <time>2016-06-30T11:02:47Z</time>
      </trkpt>
      <trkpt lat="42.42994" lon="2.19643">
        <ele>2317.4</ele>
        <time>2016-06-30T11:02:55Z</time>
      </trkpt>
      <trkpt lat="42.43002" lon="2.19651">
        <ele>2315.47</ele>
        <time>2016-06-30T11:03:07Z</time>
      </trkpt>
      <trkpt lat="42.43003" lon="2.19651">
        <ele>2314.99</ele>
        <time>2016-06-30T11:03:10Z</time>
      </trkpt>
      <trkpt lat="42.43003" lon="2.19649">
        <ele>2314.03</ele>
        <time>2016-06-30T11:03:16Z</time>
      </trkpt>
      <trkpt lat="42.43005" lon="2.19649">
        <ele>2313.55</ele>
        <time>2016-06-30T11:03:19Z</time>
      </trkpt>
      <trkpt lat="42.43015" lon="2.19645">
        <ele>2312.59</ele>
        <time>2016-06-30T11:03:28Z</time>
      </trkpt>
      <trkpt lat="42.43024" lon="2.1964">
        <ele>2311.63</ele>
        <time>2016-06-30T11:03:35Z</time>
      </trkpt>
      <trkpt lat="42.43043" lon="2.19641">
        <ele>2310.19</ele>
        <time>2016-06-30T11:03:50Z</time>
      </trkpt>
      <trkpt lat="42.43045" lon="2.19641">
        <ele>2310.19</ele>
        <time>2016-06-30T11:03:52Z</time>
      </trkpt>
      <trkpt lat="42.43048" lon="2.19645">
        <ele>2309.7</ele>
        <time>2016-06-30T11:03:56Z</time>
      </trkpt>
      <trkpt lat="42.43053" lon="2.1965">
        <ele>2309.22</ele>
        <time>2016-06-30T11:04:01Z</time>
      </trkpt>
      <trkpt lat="42.43067" lon="2.19653">
        <ele>2307.78</ele>
        <time>2016-06-30T11:04:12Z</time>
      </trkpt>
      <trkpt lat="42.43075" lon="2.19652">
        <ele>2307.78</ele>
        <time>2016-06-30T11:04:23Z</time>
      </trkpt>
      <trkpt lat="42.43084" lon="2.19656">
        <ele>2307.78</ele>
        <time>2016-06-30T11:04:30Z</time>
      </trkpt>
      <trkpt lat="42.43087" lon="2.19656">
        <ele>2307.78</ele>
        <time>2016-06-30T11:04:32Z</time>
      </trkpt>
      <trkpt lat="42.43096" lon="2.19658">
        <ele>2309.22</ele>
        <time>2016-06-30T11:04:40Z</time>
      </trkpt>
      <trkpt lat="42.43102" lon="2.19663">
        <ele>2309.22</ele>
        <time>2016-06-30T11:04:47Z</time>
      </trkpt>
      <trkpt lat="42.43109" lon="2.19665">
        <ele>2310.19</ele>
        <time>2016-06-30T11:04:58Z</time>
      </trkpt>
      <trkpt lat="42.43111" lon="2.19663">
        <ele>2310.19</ele>
        <time>2016-06-30T11:05:01Z</time>
      </trkpt>
      <trkpt lat="42.43109" lon="2.19676">
        <ele>2259.72</ele>
        <time>2016-06-30T12:01:47Z</time>
      </trkpt>
      <trkpt lat="42.43108" lon="2.19674">
        <ele>2259.72</ele>
        <time>2016-06-30T12:01:48Z</time>
      </trkpt>
      <trkpt lat="42.43111" lon="2.19677">
        <ele>2263.08</ele>
        <time>2016-06-30T12:01:53Z</time>
      </trkpt>
      <trkpt lat="42.43114" lon="2.19677">
        <ele>2265.96</ele>
        <time>2016-06-30T12:01:56Z</time>
      </trkpt>
      <trkpt lat="42.4312" lon="2.19679">
        <ele>2269.81</ele>
        <time>2016-06-30T12:02:00Z</time>
      </trkpt>
      <trkpt lat="42.43123" lon="2.19682">
        <ele>2272.69</ele>
        <time>2016-06-30T12:02:04Z</time>
      </trkpt>
      <trkpt lat="42.43129" lon="2.19683">
        <ele>2276.06</ele>
        <time>2016-06-30T12:02:09Z</time>
      </trkpt>
      <trkpt lat="42.43131" lon="2.19684">
        <ele>2277.02</ele>
        <time>2016-06-30T12:02:11Z</time>
      </trkpt>
      <trkpt lat="42.43134" lon="2.19684">
        <ele>2278.94</ele>
        <time>2016-06-30T12:02:15Z</time>
      </trkpt>
      <trkpt lat="42.43136" lon="2.19684">
        <ele>2280.38</ele>
        <time>2016-06-30T12:02:18Z</time>
      </trkpt>
      <trkpt lat="42.4314" lon="2.19683">
        <ele>2281.83</ele>
        <time>2016-06-30T12:02:22Z</time>
      </trkpt>
      <trkpt lat="42.43144" lon="2.19684">
        <ele>2283.27</ele>
        <time>2016-06-30T12:02:26Z</time>
      </trkpt>
      <trkpt lat="42.43148" lon="2.19685">
        <ele>2284.23</ele>
        <time>2016-06-30T12:02:29Z</time>
      </trkpt>
      <trkpt lat="42.43161" lon="2.19683">
        <ele>2288.08</ele>
        <time>2016-06-30T12:02:42Z</time>
      </trkpt>
      <trkpt lat="42.43163" lon="2.19683">
        <ele>2288.56</ele>
        <time>2016-06-30T12:02:46Z</time>
      </trkpt>
      <trkpt lat="42.43171" lon="2.1969">
        <ele>2289.04</ele>
        <time>2016-06-30T12:02:59Z</time>
      </trkpt>
      <trkpt lat="42.43177" lon="2.19689">
        <ele>2288.08</ele>
        <time>2016-06-30T12:03:10Z</time>
      </trkpt>
      <trkpt lat="42.43181" lon="2.19688">
        <ele>2286.63</ele>
        <time>2016-06-30T12:03:14Z</time>
      </trkpt>
      <trkpt lat="42.43187" lon="2.19683">
        <ele>2286.15</ele>
        <time>2016-06-30T12:03:27Z</time>
      </trkpt>
      <trkpt lat="42.43189" lon="2.19683">
        <ele>2286.15</ele>
        <time>2016-06-30T12:03:28Z</time>
      </trkpt>
      <trkpt lat="42.43195" lon="2.19681">
        <ele>2284.23</ele>
        <time>2016-06-30T12:03:39Z</time>
      </trkpt>
      <trkpt lat="42.43202" lon="2.19683">
        <ele>2283.27</ele>
        <time>2016-06-30T12:03:49Z</time>
      </trkpt>
      <trkpt lat="42.43209" lon="2.19682">
        <ele>2282.31</ele>
        <time>2016-06-30T12:03:59Z</time>
      </trkpt>
      <trkpt lat="42.4322" lon="2.19684">
        <ele>2280.38</ele>
        <time>2016-06-30T12:04:12Z</time>
      </trkpt>
      <trkpt lat="42.43228" lon="2.19686">
        <ele>2278.94</ele>
        <time>2016-06-30T12:04:23Z</time>
      </trkpt>
      <trkpt lat="42.43231" lon="2.19688">
        <ele>2277.98</ele>
        <time>2016-06-30T12:04:28Z</time>
      </trkpt>
      <trkpt lat="42.43239" lon="2.19689">
        <ele>2275.58</ele>
        <time>2016-06-30T12:04:38Z</time>
      </trkpt>
      <trkpt lat="42.4324" lon="2.19691">
        <ele>2275.58</ele>
        <time>2016-06-30T12:04:40Z</time>
      </trkpt>
      <trkpt lat="42.43244" lon="2.19693">
        <ele>2274.62</ele>
        <time>2016-06-30T12:04:43Z</time>
      </trkpt>
      <trkpt lat="42.43247" lon="2.19698">
        <ele>2274.14</ele>
        <time>2016-06-30T12:04:48Z</time>
      </trkpt>
      <trkpt lat="42.43254" lon="2.19707">
        <ele>2272.69</ele>
        <time>2016-06-30T12:04:56Z</time>
      </trkpt>
      <trkpt lat="42.43269" lon="2.19716">
        <ele>2270.77</ele>
        <time>2016-06-30T12:05:10Z</time>
      </trkpt>
      <trkpt lat="42.43273" lon="2.19719">
        <ele>2269.81</ele>
        <time>2016-06-30T12:05:15Z</time>
      </trkpt>
      <trkpt lat="42.43284" lon="2.19715">
        <ele>2269.33</ele>
        <time>2016-06-30T12:05:27Z</time>
      </trkpt>
      <trkpt lat="42.43299" lon="2.19721">
        <ele>2268.37</ele>
        <time>2016-06-30T12:05:42Z</time>
      </trkpt>
      <trkpt lat="42.43307" lon="2.1973">
        <ele>2267.89</ele>
        <time>2016-06-30T12:05:51Z</time>
      </trkpt>
      <trkpt lat="42.43309" lon="2.19731">
        <ele>2267.89</ele>
        <time>2016-06-30T12:05:53Z</time>
      </trkpt>
      <trkpt lat="42.43317" lon="2.19746">
        <ele>2266.45</ele>
        <time>2016-06-30T12:06:04Z</time>
      </trkpt>
      <trkpt lat="42.43319" lon="2.19747">
        <ele>2266.45</ele>
        <time>2016-06-30T12:06:06Z</time>
      </trkpt>
      <trkpt lat="42.43326" lon="2.1975">
        <ele>2265.96</ele>
        <time>2016-06-30T12:06:16Z</time>
      </trkpt>
      <trkpt lat="42.43329" lon="2.19751">
        <ele>2265.96</ele>
        <time>2016-06-30T12:06:20Z</time>
      </trkpt>
      <trkpt lat="42.43335" lon="2.19755">
        <ele>2265.96</ele>
        <time>2016-06-30T12:06:25Z</time>
      </trkpt>
      <trkpt lat="42.43337" lon="2.19759">
        <ele>2265.96</ele>
        <time>2016-06-30T12:06:28Z</time>
      </trkpt>
      <trkpt lat="42.43339" lon="2.1976">
        <ele>2265.96</ele>
        <time>2016-06-30T12:06:30Z</time>
      </trkpt>
      <trkpt lat="42.43346" lon="2.19765">
        <ele>2265</ele>
        <time>2016-06-30T12:06:37Z</time>
      </trkpt>
      <trkpt lat="42.43351" lon="2.19773">
        <ele>2265</ele>
        <time>2016-06-30T12:06:43Z</time>
      </trkpt>
      <trkpt lat="42.43358" lon="2.19781">
        <ele>2264.52</ele>
        <time>2016-06-30T12:06:54Z</time>
      </trkpt>
      <trkpt lat="42.43359" lon="2.19783">
        <ele>2264.52</ele>
        <time>2016-06-30T12:06:56Z</time>
      </trkpt>
      <trkpt lat="42.43363" lon="2.1979">
        <ele>2265</ele>
        <time>2016-06-30T12:07:03Z</time>
      </trkpt>
      <trkpt lat="42.43365" lon="2.19794">
        <ele>2265</ele>
        <time>2016-06-30T12:07:06Z</time>
      </trkpt>
      <trkpt lat="42.43365" lon="2.198">
        <ele>2265</ele>
        <time>2016-06-30T12:07:11Z</time>
      </trkpt>
      <trkpt lat="42.43367" lon="2.19807">
        <ele>2264.52</ele>
        <time>2016-06-30T12:07:16Z</time>
      </trkpt>
      <trkpt lat="42.43371" lon="2.19807">
        <ele>2264.52</ele>
        <time>2016-06-30T12:07:19Z</time>
      </trkpt>
      <trkpt lat="42.43375" lon="2.1981">
        <ele>2264.52</ele>
        <time>2016-06-30T12:07:23Z</time>
      </trkpt>
      <trkpt lat="42.43379" lon="2.19807">
        <ele>2264.52</ele>
        <time>2016-06-30T12:07:29Z</time>
      </trkpt>
      <trkpt lat="42.43383" lon="2.1981">
        <ele>2265.48</ele>
        <time>2016-06-30T12:07:41Z</time>
      </trkpt>
      <trkpt lat="42.43382" lon="2.19809">
        <ele>2266.45</ele>
        <time>2016-06-30T12:07:48Z</time>
      </trkpt>
      <trkpt lat="42.43382" lon="2.19809">
        <ele>2266.45</ele>
        <time>2016-06-30T12:07:57Z</time>
      </trkpt>
      <trkpt lat="42.43382" lon="2.19809">
        <ele>2266.45</ele>
        <time>2016-06-30T12:08:15Z</time>
      </trkpt>
      <trkpt lat="42.43381" lon="2.19809">
        <ele>2265.48</ele>
        <time>2016-06-30T12:08:30Z</time>
      </trkpt>
      <trkpt lat="42.43382" lon="2.19808">
        <ele>2265.48</ele>
        <time>2016-06-30T12:08:40Z</time>
      </trkpt>
      <trkpt lat="42.43383" lon="2.19808">
        <ele>2265.48</ele>
        <time>2016-06-30T12:08:57Z</time>
      </trkpt>
      <trkpt lat="42.43385" lon="2.19805">
        <ele>2265.48</ele>
        <time>2016-06-30T12:09:02Z</time>
      </trkpt>
      <trkpt lat="42.43385" lon="2.19803">
        <ele>2265.48</ele>
        <time>2016-06-30T12:09:03Z</time>
      </trkpt>
      <trkpt lat="42.43387" lon="2.198">
        <ele>2265.48</ele>
        <time>2016-06-30T12:09:14Z</time>
      </trkpt>
      <trkpt lat="42.43388" lon="2.19796">
        <ele>2266.45</ele>
        <time>2016-06-30T12:09:18Z</time>
      </trkpt>
      <trkpt lat="42.43388" lon="2.19799">
        <ele>2266.93</ele>
        <time>2016-06-30T12:09:33Z</time>
      </trkpt>
      <trkpt lat="42.43387" lon="2.198">
        <ele>2265.96</ele>
        <time>2016-06-30T12:09:55Z</time>
      </trkpt>
      <trkpt lat="42.43386" lon="2.19802">
        <ele>2265.96</ele>
        <time>2016-06-30T12:10:21Z</time>
      </trkpt>
      <trkpt lat="42.43387" lon="2.19802">
        <ele>2265.96</ele>
        <time>2016-06-30T12:10:50Z</time>
      </trkpt>
      <trkpt lat="42.43387" lon="2.198">
        <ele>2265.96</ele>
        <time>2016-06-30T12:11:16Z</time>
      </trkpt>
      <trkpt lat="42.43389" lon="2.19799">
        <ele>2265.96</ele>
        <time>2016-06-30T12:11:43Z</time>
      </trkpt>
      <trkpt lat="42.43389" lon="2.198">
        <ele>2265.96</ele>
        <time>2016-06-30T12:12:11Z</time>
      </trkpt>
      <trkpt lat="42.43389" lon="2.198">
        <ele>2265.96</ele>
        <time>2016-06-30T12:12:41Z</time>
      </trkpt>
      <trkpt lat="42.43389" lon="2.198">
        <ele>2265.96</ele>
        <time>2016-06-30T12:13:08Z</time>
      </trkpt>
      <trkpt lat="42.43389" lon="2.198">
        <ele>2265.96</ele>
        <time>2016-06-30T12:13:35Z</time>
      </trkpt>
      <trkpt lat="42.43385" lon="2.19799">
        <ele>2265.96</ele>
        <time>2016-06-30T12:14:04Z</time>
      </trkpt>
      <trkpt lat="42.43388" lon="2.198">
        <ele>2265.96</ele>
        <time>2016-06-30T12:14:30Z</time>
      </trkpt>
      <trkpt lat="42.43388" lon="2.198">
        <ele>2267.41</ele>
        <time>2016-06-30T12:14:35Z</time>
      </trkpt>
      <trkpt lat="42.43388" lon="2.19799">
        <ele>2267.41</ele>
        <time>2016-06-30T12:15:02Z</time>
      </trkpt>
      <trkpt lat="42.4339" lon="2.19798">
        <ele>2267.41</ele>
        <time>2016-06-30T12:15:30Z</time>
      </trkpt>
      <trkpt lat="42.43388" lon="2.19799">
        <ele>2267.89</ele>
        <time>2016-06-30T12:16:01Z</time>
      </trkpt>
      <trkpt lat="42.43386" lon="2.19798">
        <ele>2267.89</ele>
        <time>2016-06-30T12:16:18Z</time>
      </trkpt>
      <trkpt lat="42.43384" lon="2.198">
        <ele>2267.89</ele>
        <time>2016-06-30T12:16:21Z</time>
      </trkpt>
      <trkpt lat="42.43384" lon="2.19802">
        <ele>2267.89</ele>
        <time>2016-06-30T12:16:23Z</time>
      </trkpt>
      <trkpt lat="42.43382" lon="2.19804">
        <ele>2267.89</ele>
        <time>2016-06-30T12:16:25Z</time>
      </trkpt>
      <trkpt lat="42.43382" lon="2.1981">
        <ele>2267.89</ele>
        <time>2016-06-30T12:16:29Z</time>
      </trkpt>
      <trkpt lat="42.43383" lon="2.19813">
        <ele>2267.89</ele>
        <time>2016-06-30T12:16:33Z</time>
      </trkpt>
      <trkpt lat="42.43383" lon="2.19815">
        <ele>2267.89</ele>
        <time>2016-06-30T12:16:34Z</time>
      </trkpt>
      <trkpt lat="42.43385" lon="2.19816">
        <ele>2267.89</ele>
        <time>2016-06-30T12:16:36Z</time>
      </trkpt>
      <trkpt lat="42.43387" lon="2.19821">
        <ele>2267.89</ele>
        <time>2016-06-30T12:16:44Z</time>
      </trkpt>
      <trkpt lat="42.43385" lon="2.19818">
        <ele>2267.89</ele>
        <time>2016-06-30T12:16:46Z</time>
      </trkpt>
      <trkpt lat="42.43385" lon="2.19817">
        <ele>2267.89</ele>
        <time>2016-06-30T12:16:47Z</time>
      </trkpt>
      <trkpt lat="42.43386" lon="2.19816">
        <ele>2267.89</ele>
        <time>2016-06-30T12:16:48Z</time>
      </trkpt>
      <trkpt lat="42.43389" lon="2.19817">
        <ele>2267.89</ele>
        <time>2016-06-30T12:16:53Z</time>
      </trkpt>
      <trkpt lat="42.43389" lon="2.19815">
        <ele>2267.89</ele>
        <time>2016-06-30T12:16:56Z</time>
      </trkpt>
      <trkpt lat="42.43389" lon="2.19814">
        <ele>2267.89</ele>
        <time>2016-06-30T12:16:57Z</time>
      </trkpt>
      <trkpt lat="42.43388" lon="2.19809">
        <ele>2267.89</ele>
        <time>2016-06-30T12:17:01Z</time>
      </trkpt>
      <trkpt lat="42.43387" lon="2.19807">
        <ele>2267.89</ele>
        <time>2016-06-30T12:17:04Z</time>
      </trkpt>
      <trkpt lat="42.43388" lon="2.19803">
        <ele>2267.89</ele>
        <time>2016-06-30T12:17:07Z</time>
      </trkpt>
      <trkpt lat="42.43389" lon="2.19801">
        <ele>2267.89</ele>
        <time>2016-06-30T12:17:18Z</time>
      </trkpt>
      <trkpt lat="42.43389" lon="2.198">
        <ele>2267.89</ele>
        <time>2016-06-30T12:17:52Z</time>
      </trkpt>
      <trkpt lat="42.43389" lon="2.198">
        <ele>2267.89</ele>
        <time>2016-06-30T12:18:18Z</time>
      </trkpt>
      <trkpt lat="42.43389" lon="2.198">
        <ele>2267.89</ele>
        <time>2016-06-30T12:18:46Z</time>
      </trkpt>
      <trkpt lat="42.43389" lon="2.19799">
        <ele>2267.89</ele>
        <time>2016-06-30T12:19:09Z</time>
      </trkpt>
      <trkpt lat="42.43388" lon="2.19798">
        <ele>2267.89</ele>
        <time>2016-06-30T12:19:32Z</time>
      </trkpt>
      <trkpt lat="42.43389" lon="2.19798">
        <ele>2267.89</ele>
        <time>2016-06-30T12:19:54Z</time>
      </trkpt>
      <trkpt lat="42.43389" lon="2.19799">
        <ele>2267.89</ele>
        <time>2016-06-30T12:20:20Z</time>
      </trkpt>
      <trkpt lat="42.43388" lon="2.198">
        <ele>2267.89</ele>
        <time>2016-06-30T12:20:43Z</time>
      </trkpt>
      <trkpt lat="42.43388" lon="2.19807">
        <ele>2267.89</ele>
        <time>2016-06-30T12:20:48Z</time>
      </trkpt>
      <trkpt lat="42.43388" lon="2.19808">
        <ele>2267.89</ele>
        <time>2016-06-30T12:20:49Z</time>
      </trkpt>
      <trkpt lat="42.43387" lon="2.1981">
        <ele>2267.89</ele>
        <time>2016-06-30T12:20:50Z</time>
      </trkpt>
      <trkpt lat="42.4339" lon="2.19816">
        <ele>2267.89</ele>
        <time>2016-06-30T12:20:57Z</time>
      </trkpt>
      <trkpt lat="42.434" lon="2.19826">
        <ele>2267.89</ele>
        <time>2016-06-30T12:21:08Z</time>
      </trkpt>
      <trkpt lat="42.434" lon="2.19829">
        <ele>2267.89</ele>
        <time>2016-06-30T12:21:10Z</time>
      </trkpt>
      <trkpt lat="42.43402" lon="2.19832">
        <ele>2267.89</ele>
        <time>2016-06-30T12:21:12Z</time>
      </trkpt>
      <trkpt lat="42.43402" lon="2.19836">
        <ele>2267.89</ele>
        <time>2016-06-30T12:21:15Z</time>
      </trkpt>
      <trkpt lat="42.43404" lon="2.19843">
        <ele>2267.89</ele>
        <time>2016-06-30T12:21:21Z</time>
      </trkpt>
      <trkpt lat="42.43406" lon="2.19846">
        <ele>2266.93</ele>
        <time>2016-06-30T12:21:24Z</time>
      </trkpt>
      <trkpt lat="42.43406" lon="2.19847">
        <ele>2266.93</ele>
        <time>2016-06-30T12:21:25Z</time>
      </trkpt>
      <trkpt lat="42.43411" lon="2.19857">
        <ele>2266.93</ele>
        <time>2016-06-30T12:21:33Z</time>
      </trkpt>
      <trkpt lat="42.43411" lon="2.19859">
        <ele>2266.93</ele>
        <time>2016-06-30T12:21:34Z</time>
      </trkpt>
      <trkpt lat="42.43412" lon="2.1986">
        <ele>2266.93</ele>
        <time>2016-06-30T12:21:35Z</time>
      </trkpt>
      <trkpt lat="42.43412" lon="2.19866">
        <ele>2266.93</ele>
        <time>2016-06-30T12:21:39Z</time>
      </trkpt>
      <trkpt lat="42.43414" lon="2.19869">
        <ele>2266.93</ele>
        <time>2016-06-30T12:21:41Z</time>
      </trkpt>
      <trkpt lat="42.43414" lon="2.19872">
        <ele>2266.93</ele>
        <time>2016-06-30T12:21:43Z</time>
      </trkpt>
      <trkpt lat="42.43413" lon="2.19879">
        <ele>2266.93</ele>
        <time>2016-06-30T12:21:47Z</time>
      </trkpt>
      <trkpt lat="42.43414" lon="2.1988">
        <ele>2266.93</ele>
        <time>2016-06-30T12:21:49Z</time>
      </trkpt>
      <trkpt lat="42.43412" lon="2.19884">
        <ele>2266.93</ele>
        <time>2016-06-30T12:21:51Z</time>
      </trkpt>
      <trkpt lat="42.43413" lon="2.19889">
        <ele>2266.93</ele>
        <time>2016-06-30T12:21:55Z</time>
      </trkpt>
      <trkpt lat="42.43416" lon="2.19894">
        <ele>2266.93</ele>
        <time>2016-06-30T12:21:59Z</time>
      </trkpt>
      <trkpt lat="42.43416" lon="2.19896">
        <ele>2266.93</ele>
        <time>2016-06-30T12:22:00Z</time>
      </trkpt>
      <trkpt lat="42.43418" lon="2.199">
        <ele>2266.93</ele>
        <time>2016-06-30T12:22:04Z</time>
      </trkpt>
      <trkpt lat="42.43417" lon="2.19906">
        <ele>2266.93</ele>
        <time>2016-06-30T12:22:07Z</time>
      </trkpt>
      <trkpt lat="42.43419" lon="2.19907">
        <ele>2266.93</ele>
        <time>2016-06-30T12:22:09Z</time>
      </trkpt>
      <trkpt lat="42.4342" lon="2.19908">
        <ele>2266.93</ele>
        <time>2016-06-30T12:22:10Z</time>
      </trkpt>
      <trkpt lat="42.43427" lon="2.19922">
        <ele>2266.93</ele>
        <time>2016-06-30T12:22:20Z</time>
      </trkpt>
      <trkpt lat="42.4343" lon="2.1993">
        <ele>2266.93</ele>
        <time>2016-06-30T12:22:26Z</time>
      </trkpt>
      <trkpt lat="42.43433" lon="2.19938">
        <ele>2265.48</ele>
        <time>2016-06-30T12:22:35Z</time>
      </trkpt>
      <trkpt lat="42.43431" lon="2.19941">
        <ele>2265.48</ele>
        <time>2016-06-30T12:22:37Z</time>
      </trkpt>
      <trkpt lat="42.43431" lon="2.19943">
        <ele>2265.48</ele>
        <time>2016-06-30T12:22:38Z</time>
      </trkpt>
      <trkpt lat="42.43443" lon="2.19946">
        <ele>2265.48</ele>
        <time>2016-06-30T12:22:49Z</time>
      </trkpt>
      <trkpt lat="42.43453" lon="2.19949">
        <ele>2265.48</ele>
        <time>2016-06-30T12:22:57Z</time>
      </trkpt>
      <trkpt lat="42.43462" lon="2.19954">
        <ele>2265</ele>
        <time>2016-06-30T12:23:06Z</time>
      </trkpt>
      <trkpt lat="42.43464" lon="2.19954">
        <ele>2265</ele>
        <time>2016-06-30T12:23:08Z</time>
      </trkpt>
      <trkpt lat="42.43471" lon="2.19956">
        <ele>2265</ele>
        <time>2016-06-30T12:23:13Z</time>
      </trkpt>
      <trkpt lat="42.43473" lon="2.19961">
        <ele>2264.52</ele>
        <time>2016-06-30T12:23:19Z</time>
      </trkpt>
      <trkpt lat="42.43473" lon="2.19966">
        <ele>2264.52</ele>
        <time>2016-06-30T12:23:22Z</time>
      </trkpt>
      <trkpt lat="42.43472" lon="2.19977">
        <ele>2264.52</ele>
        <time>2016-06-30T12:23:30Z</time>
      </trkpt>
      <trkpt lat="42.4347" lon="2.19981">
        <ele>2264.52</ele>
        <time>2016-06-30T12:23:33Z</time>
      </trkpt>
      <trkpt lat="42.4347" lon="2.19995">
        <ele>2264.52</ele>
        <time>2016-06-30T12:23:43Z</time>
      </trkpt>
      <trkpt lat="42.43468" lon="2.19997">
        <ele>2264.52</ele>
        <time>2016-06-30T12:23:54Z</time>
      </trkpt>
      <trkpt lat="42.43468" lon="2.19996">
        <ele>2264.52</ele>
        <time>2016-06-30T12:24:11Z</time>
      </trkpt>
      <trkpt lat="42.43469" lon="2.19996">
        <ele>2264.52</ele>
        <time>2016-06-30T12:24:38Z</time>
      </trkpt>
      <trkpt lat="42.43469" lon="2.19995">
        <ele>2265</ele>
        <time>2016-06-30T12:25:05Z</time>
      </trkpt>
      <trkpt lat="42.4347" lon="2.19994">
        <ele>2265</ele>
        <time>2016-06-30T12:25:32Z</time>
      </trkpt>
      <trkpt lat="42.43471" lon="2.19994">
        <ele>2264.52</ele>
        <time>2016-06-30T12:25:55Z</time>
      </trkpt>
      <trkpt lat="42.4347" lon="2.19994">
        <ele>2264.52</ele>
        <time>2016-06-30T12:26:18Z</time>
      </trkpt>
      <trkpt lat="42.4347" lon="2.19995">
        <ele>2264.52</ele>
        <time>2016-06-30T12:26:40Z</time>
      </trkpt>
      <trkpt lat="42.43469" lon="2.19995">
        <ele>2264.52</ele>
        <time>2016-06-30T12:27:03Z</time>
      </trkpt>
      <trkpt lat="42.4347" lon="2.19995">
        <ele>2265</ele>
        <time>2016-06-30T12:27:24Z</time>
      </trkpt>
      <trkpt lat="42.4347" lon="2.19994">
        <ele>2264.52</ele>
        <time>2016-06-30T12:27:45Z</time>
      </trkpt>
      <trkpt lat="42.43469" lon="2.19994">
        <ele>2264.52</ele>
        <time>2016-06-30T12:28:07Z</time>
      </trkpt>
      <trkpt lat="42.43469" lon="2.19995">
        <ele>2264.52</ele>
        <time>2016-06-30T12:28:22Z</time>
      </trkpt>
      <trkpt lat="42.43468" lon="2.19994">
        <ele>2264.52</ele>
        <time>2016-06-30T12:28:46Z</time>
      </trkpt>
      <trkpt lat="42.43467" lon="2.19994">
        <ele>2264.52</ele>
        <time>2016-06-30T12:29:11Z</time>
      </trkpt>
      <trkpt lat="42.43468" lon="2.19995">
        <ele>2264.52</ele>
        <time>2016-06-30T12:29:39Z</time>
      </trkpt>
      <trkpt lat="42.43469" lon="2.19994">
        <ele>2264.52</ele>
        <time>2016-06-30T12:30:05Z</time>
      </trkpt>
      <trkpt lat="42.43469" lon="2.19995">
        <ele>2264.04</ele>
        <time>2016-06-30T12:30:35Z</time>
      </trkpt>
      <trkpt lat="42.43468" lon="2.19995">
        <ele>2264.04</ele>
        <time>2016-06-30T12:31:05Z</time>
      </trkpt>
      <trkpt lat="42.43468" lon="2.19995">
        <ele>2264.04</ele>
        <time>2016-06-30T12:31:31Z</time>
      </trkpt>
      <trkpt lat="42.43468" lon="2.19995">
        <ele>2264.52</ele>
        <time>2016-06-30T12:31:58Z</time>
      </trkpt>
      <trkpt lat="42.43468" lon="2.19995">
        <ele>2264.52</ele>
        <time>2016-06-30T12:32:26Z</time>
      </trkpt>
      <trkpt lat="42.43468" lon="2.19995">
        <ele>2264.52</ele>
        <time>2016-06-30T12:32:54Z</time>
      </trkpt>
      <trkpt lat="42.43468" lon="2.19995">
        <ele>2264.52</ele>
        <time>2016-06-30T12:33:19Z</time>
      </trkpt>
      <trkpt lat="42.43468" lon="2.19995">
        <ele>2264.52</ele>
        <time>2016-06-30T12:33:48Z</time>
      </trkpt>
      <trkpt lat="42.43468" lon="2.19995">
        <ele>2265</ele>
        <time>2016-06-30T12:34:13Z</time>
      </trkpt>
      <trkpt lat="42.43469" lon="2.19994">
        <ele>2265</ele>
        <time>2016-06-30T12:34:37Z</time>
      </trkpt>
      <trkpt lat="42.43468" lon="2.19995">
        <ele>2264.52</ele>
        <time>2016-06-30T12:35:07Z</time>
      </trkpt>
      <trkpt lat="42.43468" lon="2.19994">
        <ele>2264.52</ele>
        <time>2016-06-30T12:35:35Z</time>
      </trkpt>
      <trkpt lat="42.43468" lon="2.19995">
        <ele>2265</ele>
        <time>2016-06-30T12:36:01Z</time>
      </trkpt>
      <trkpt lat="42.43468" lon="2.19995">
        <ele>2265</ele>
        <time>2016-06-30T12:36:29Z</time>
      </trkpt>
      <trkpt lat="42.43468" lon="2.19995">
        <ele>2265</ele>
        <time>2016-06-30T12:36:52Z</time>
      </trkpt>
      <trkpt lat="42.43469" lon="2.19995">
        <ele>2265</ele>
        <time>2016-06-30T12:37:22Z</time>
      </trkpt>
      <trkpt lat="42.43468" lon="2.19995">
        <ele>2266.45</ele>
        <time>2016-06-30T12:37:47Z</time>
      </trkpt>
      <trkpt lat="42.43468" lon="2.19995">
        <ele>2266.45</ele>
        <time>2016-06-30T12:38:15Z</time>
      </trkpt>
      <trkpt lat="42.43468" lon="2.19995">
        <ele>2266.45</ele>
        <time>2016-06-30T12:38:47Z</time>
      </trkpt>
      <trkpt lat="42.43468" lon="2.19995">
        <ele>2266.45</ele>
        <time>2016-06-30T12:39:14Z</time>
      </trkpt>
      <trkpt lat="42.43468" lon="2.19995">
        <ele>2266.45</ele>
        <time>2016-06-30T12:39:38Z</time>
      </trkpt>
      <trkpt lat="42.43469" lon="2.19996">
        <ele>2266.93</ele>
        <time>2016-06-30T12:40:07Z</time>
      </trkpt>
      <trkpt lat="42.43468" lon="2.19996">
        <ele>2266.93</ele>
        <time>2016-06-30T12:40:37Z</time>
      </trkpt>
      <trkpt lat="42.43468" lon="2.19995">
        <ele>2267.41</ele>
        <time>2016-06-30T12:41:02Z</time>
      </trkpt>
      <trkpt lat="42.43468" lon="2.19995">
        <ele>2267.41</ele>
        <time>2016-06-30T12:41:33Z</time>
      </trkpt>
      <trkpt lat="42.43468" lon="2.19995">
        <ele>2267.41</ele>
        <time>2016-06-30T12:42:09Z</time>
      </trkpt>
      <trkpt lat="42.43469" lon="2.19996">
        <ele>2267.41</ele>
        <time>2016-06-30T12:42:44Z</time>
      </trkpt>
      <trkpt lat="42.43469" lon="2.19996">
        <ele>2268.37</ele>
        <time>2016-06-30T12:43:19Z</time>
      </trkpt>
      <trkpt lat="42.43469" lon="2.19996">
        <ele>2268.85</ele>
        <time>2016-06-30T12:43:46Z</time>
      </trkpt>
      <trkpt lat="42.4347" lon="2.19993">
        <ele>2269.33</ele>
        <time>2016-06-30T12:44:05Z</time>
      </trkpt>
      <trkpt lat="42.43471" lon="2.19989">
        <ele>2269.33</ele>
        <time>2016-06-30T12:44:09Z</time>
      </trkpt>
      <trkpt lat="42.43471" lon="2.19982">
        <ele>2269.33</ele>
        <time>2016-06-30T12:44:16Z</time>
      </trkpt>
      <trkpt lat="42.43472" lon="2.19971">
        <ele>2269.33</ele>
        <time>2016-06-30T12:44:27Z</time>
      </trkpt>
      <trkpt lat="42.43473" lon="2.19968">
        <ele>2269.33</ele>
        <time>2016-06-30T12:44:33Z</time>
      </trkpt>
      <trkpt lat="42.43473" lon="2.1996">
        <ele>2269.33</ele>
        <time>2016-06-30T12:44:41Z</time>
      </trkpt>
      <trkpt lat="42.43476" lon="2.1996">
        <ele>2269.33</ele>
        <time>2016-06-30T12:44:44Z</time>
      </trkpt>
      <trkpt lat="42.43478" lon="2.1996">
        <ele>2268.37</ele>
        <time>2016-06-30T12:44:46Z</time>
      </trkpt>
      <trkpt lat="42.4348" lon="2.19961">
        <ele>2268.37</ele>
        <time>2016-06-30T12:44:50Z</time>
      </trkpt>
      <trkpt lat="42.43483" lon="2.19961">
        <ele>2267.41</ele>
        <time>2016-06-30T12:44:55Z</time>
      </trkpt>
      <trkpt lat="42.4349" lon="2.19964">
        <ele>2266.93</ele>
        <time>2016-06-30T12:45:02Z</time>
      </trkpt>
      <trkpt lat="42.43492" lon="2.19964">
        <ele>2266.45</ele>
        <time>2016-06-30T12:45:04Z</time>
      </trkpt>
      <trkpt lat="42.43503" lon="2.19966">
        <ele>2265.96</ele>
        <time>2016-06-30T12:45:14Z</time>
      </trkpt>
      <trkpt lat="42.43504" lon="2.19967">
        <ele>2265.48</ele>
        <time>2016-06-30T12:45:16Z</time>
      </trkpt>
      <trkpt lat="42.43516" lon="2.19972">
        <ele>2265</ele>
        <time>2016-06-30T12:45:27Z</time>
      </trkpt>
      <trkpt lat="42.43518" lon="2.19974">
        <ele>2265</ele>
        <time>2016-06-30T12:45:29Z</time>
      </trkpt>
      <trkpt lat="42.4352" lon="2.19976">
        <ele>2265</ele>
        <time>2016-06-30T12:45:31Z</time>
      </trkpt>
      <trkpt lat="42.43534" lon="2.19985">
        <ele>2264.52</ele>
        <time>2016-06-30T12:45:45Z</time>
      </trkpt>
      <trkpt lat="42.43546" lon="2.19991">
        <ele>2264.52</ele>
        <time>2016-06-30T12:45:57Z</time>
      </trkpt>
      <trkpt lat="42.43556" lon="2.1999">
        <ele>2264.52</ele>
        <time>2016-06-30T12:46:07Z</time>
      </trkpt>
      <trkpt lat="42.43566" lon="2.19995">
        <ele>2266.45</ele>
        <time>2016-06-30T12:46:21Z</time>
      </trkpt>
      <trkpt lat="42.43569" lon="2.19992">
        <ele>2266.93</ele>
        <time>2016-06-30T12:46:28Z</time>
      </trkpt>
      <trkpt lat="42.43572" lon="2.19988">
        <ele>2266.93</ele>
        <time>2016-06-30T12:46:32Z</time>
      </trkpt>
      <trkpt lat="42.4358" lon="2.19988">
        <ele>2266.93</ele>
        <time>2016-06-30T12:46:41Z</time>
      </trkpt>
      <trkpt lat="42.43584" lon="2.19986">
        <ele>2266.93</ele>
        <time>2016-06-30T12:46:46Z</time>
      </trkpt>
      <trkpt lat="42.4359" lon="2.19985">
        <ele>2265.96</ele>
        <time>2016-06-30T12:46:56Z</time>
      </trkpt>
      <trkpt lat="42.43596" lon="2.19988">
        <ele>2263.56</ele>
        <time>2016-06-30T12:47:08Z</time>
      </trkpt>
      <trkpt lat="42.43595" lon="2.19988">
        <ele>2263.56</ele>
        <time>2016-06-30T12:47:09Z</time>
      </trkpt>
      <trkpt lat="42.43599" lon="2.19997">
        <ele>2262.12</ele>
        <time>2016-06-30T12:47:20Z</time>
      </trkpt>
      <trkpt lat="42.43601" lon="2.20002">
        <ele>2261.16</ele>
        <time>2016-06-30T12:47:27Z</time>
      </trkpt>
      <trkpt lat="42.43606" lon="2.20006">
        <ele>2260.2</ele>
        <time>2016-06-30T12:47:39Z</time>
      </trkpt>
      <trkpt lat="42.43609" lon="2.20006">
        <ele>2259.72</ele>
        <time>2016-06-30T12:47:43Z</time>
      </trkpt>
      <trkpt lat="42.43619" lon="2.20007">
        <ele>2259.24</ele>
        <time>2016-06-30T12:47:54Z</time>
      </trkpt>
      <trkpt lat="42.43619" lon="2.20007">
        <ele>2259.24</ele>
        <time>2016-06-30T12:47:55Z</time>
      </trkpt>
      <trkpt lat="42.43625" lon="2.20008">
        <ele>2258.75</ele>
        <time>2016-06-30T12:48:00Z</time>
      </trkpt>
      <trkpt lat="42.43636" lon="2.20006">
        <ele>2258.75</ele>
        <time>2016-06-30T12:48:11Z</time>
      </trkpt>
      <trkpt lat="42.43645" lon="2.20007">
        <ele>2258.27</ele>
        <time>2016-06-30T12:48:19Z</time>
      </trkpt>
      <trkpt lat="42.43659" lon="2.19999">
        <ele>2258.27</ele>
        <time>2016-06-30T12:48:31Z</time>
      </trkpt>
      <trkpt lat="42.43661" lon="2.19997">
        <ele>2258.27</ele>
        <time>2016-06-30T12:48:34Z</time>
      </trkpt>
      <trkpt lat="42.43666" lon="2.2">
        <ele>2257.79</ele>
        <time>2016-06-30T12:48:41Z</time>
      </trkpt>
      <trkpt lat="42.4367" lon="2.2">
        <ele>2257.79</ele>
        <time>2016-06-30T12:48:45Z</time>
      </trkpt>
      <trkpt lat="42.43677" lon="2.20002">
        <ele>2257.79</ele>
        <time>2016-06-30T12:48:52Z</time>
      </trkpt>
      <trkpt lat="42.43679" lon="2.20005">
        <ele>2257.79</ele>
        <time>2016-06-30T12:48:55Z</time>
      </trkpt>
      <trkpt lat="42.43683" lon="2.20005">
        <ele>2258.27</ele>
        <time>2016-06-30T12:48:59Z</time>
      </trkpt>
      <trkpt lat="42.43689" lon="2.19999">
        <ele>2258.27</ele>
        <time>2016-06-30T12:49:06Z</time>
      </trkpt>
      <trkpt lat="42.43694" lon="2.19992">
        <ele>2258.27</ele>
        <time>2016-06-30T12:49:12Z</time>
      </trkpt>
      <trkpt lat="42.43693" lon="2.19989">
        <ele>2258.27</ele>
        <time>2016-06-30T12:49:13Z</time>
      </trkpt>
      <trkpt lat="42.43695" lon="2.1999">
        <ele>2258.27</ele>
        <time>2016-06-30T12:49:14Z</time>
      </trkpt>
      <trkpt lat="42.43697" lon="2.19986">
        <ele>2258.27</ele>
        <time>2016-06-30T12:49:17Z</time>
      </trkpt>
      <trkpt lat="42.43699" lon="2.19984">
        <ele>2258.27</ele>
        <time>2016-06-30T12:49:19Z</time>
      </trkpt>
      <trkpt lat="42.437" lon="2.19983">
        <ele>2258.27</ele>
        <time>2016-06-30T12:49:21Z</time>
      </trkpt>
      <trkpt lat="42.43702" lon="2.19982">
        <ele>2258.27</ele>
        <time>2016-06-30T12:49:23Z</time>
      </trkpt>
      <trkpt lat="42.43707" lon="2.19972">
        <ele>2258.27</ele>
        <time>2016-06-30T12:49:32Z</time>
      </trkpt>
      <trkpt lat="42.43709" lon="2.19971">
        <ele>2258.27</ele>
        <time>2016-06-30T12:49:34Z</time>
      </trkpt>
      <trkpt lat="42.43712" lon="2.19962">
        <ele>2258.27</ele>
        <time>2016-06-30T12:49:41Z</time>
      </trkpt>
      <trkpt lat="42.43716" lon="2.19958">
        <ele>2258.27</ele>
        <time>2016-06-30T12:49:46Z</time>
      </trkpt>
      <trkpt lat="42.43726" lon="2.19953">
        <ele>2257.79</ele>
        <time>2016-06-30T12:49:57Z</time>
      </trkpt>
      <trkpt lat="42.43728" lon="2.19952">
        <ele>2257.79</ele>
        <time>2016-06-30T12:49:59Z</time>
      </trkpt>
      <trkpt lat="42.43733" lon="2.19952">
        <ele>2257.79</ele>
        <time>2016-06-30T12:50:03Z</time>
      </trkpt>
      <trkpt lat="42.43736" lon="2.1995">
        <ele>2257.79</ele>
        <time>2016-06-30T12:50:06Z</time>
      </trkpt>
      <trkpt lat="42.4374" lon="2.1995">
        <ele>2257.79</ele>
        <time>2016-06-30T12:50:10Z</time>
      </trkpt>
      <trkpt lat="42.43745" lon="2.19947">
        <ele>2257.79</ele>
        <time>2016-06-30T12:50:15Z</time>
      </trkpt>
      <trkpt lat="42.43761" lon="2.1994">
        <ele>2257.31</ele>
        <time>2016-06-30T12:50:30Z</time>
      </trkpt>
      <trkpt lat="42.43763" lon="2.1994">
        <ele>2257.31</ele>
        <time>2016-06-30T12:50:32Z</time>
      </trkpt>
      <trkpt lat="42.43765" lon="2.1994">
        <ele>2257.31</ele>
        <time>2016-06-30T12:50:34Z</time>
      </trkpt>
      <trkpt lat="42.43767" lon="2.19938">
        <ele>2258.27</ele>
        <time>2016-06-30T12:50:37Z</time>
      </trkpt>
      <trkpt lat="42.43773" lon="2.19937">
        <ele>2259.24</ele>
        <time>2016-06-30T12:50:43Z</time>
      </trkpt>
      <trkpt lat="42.43777" lon="2.19937">
        <ele>2259.24</ele>
        <time>2016-06-30T12:50:46Z</time>
      </trkpt>
      <trkpt lat="42.43787" lon="2.19946">
        <ele>2259.72</ele>
        <time>2016-06-30T12:50:57Z</time>
      </trkpt>
      <trkpt lat="42.43792" lon="2.19949">
        <ele>2259.72</ele>
        <time>2016-06-30T12:51:01Z</time>
      </trkpt>
      <trkpt lat="42.43803" lon="2.19958">
        <ele>2259.72</ele>
        <time>2016-06-30T12:51:12Z</time>
      </trkpt>
      <trkpt lat="42.4381" lon="2.19959">
        <ele>2258.75</ele>
        <time>2016-06-30T12:51:17Z</time>
      </trkpt>
      <trkpt lat="42.43814" lon="2.19958">
        <ele>2258.75</ele>
        <time>2016-06-30T12:51:20Z</time>
      </trkpt>
      <trkpt lat="42.43817" lon="2.1996">
        <ele>2257.79</ele>
        <time>2016-06-30T12:51:23Z</time>
      </trkpt>
      <trkpt lat="42.43823" lon="2.19965">
        <ele>2257.31</ele>
        <time>2016-06-30T12:51:29Z</time>
      </trkpt>
      <trkpt lat="42.43826" lon="2.19966">
        <ele>2257.31</ele>
        <time>2016-06-30T12:51:31Z</time>
      </trkpt>
      <trkpt lat="42.43828" lon="2.19966">
        <ele>2256.83</ele>
        <time>2016-06-30T12:51:33Z</time>
      </trkpt>
      <trkpt lat="42.43834" lon="2.19969">
        <ele>2256.35</ele>
        <time>2016-06-30T12:51:39Z</time>
      </trkpt>
      <trkpt lat="42.43837" lon="2.19969">
        <ele>2255.87</ele>
        <time>2016-06-30T12:51:42Z</time>
      </trkpt>
      <trkpt lat="42.43842" lon="2.19973">
        <ele>2254.91</ele>
        <time>2016-06-30T12:51:47Z</time>
      </trkpt>
      <trkpt lat="42.43845" lon="2.19978">
        <ele>2253.95</ele>
        <time>2016-06-30T12:51:51Z</time>
      </trkpt>
      <trkpt lat="42.43858" lon="2.19987">
        <ele>2252.03</ele>
        <time>2016-06-30T12:52:04Z</time>
      </trkpt>
      <trkpt lat="42.43864" lon="2.19995">
        <ele>2251.54</ele>
        <time>2016-06-30T12:52:14Z</time>
      </trkpt>
      <trkpt lat="42.43866" lon="2.19997">
        <ele>2251.54</ele>
        <time>2016-06-30T12:52:18Z</time>
      </trkpt>
      <trkpt lat="42.4387" lon="2.20004">
        <ele>2251.06</ele>
        <time>2016-06-30T12:52:26Z</time>
      </trkpt>
      <trkpt lat="42.43874" lon="2.20005">
        <ele>2251.06</ele>
        <time>2016-06-30T12:52:30Z</time>
      </trkpt>
      <trkpt lat="42.43875" lon="2.20008">
        <ele>2251.06</ele>
        <time>2016-06-30T12:52:33Z</time>
      </trkpt>
      <trkpt lat="42.4388" lon="2.20014">
        <ele>2250.58</ele>
        <time>2016-06-30T12:52:42Z</time>
      </trkpt>
      <trkpt lat="42.43888" lon="2.20021">
        <ele>2250.58</ele>
        <time>2016-06-30T12:52:53Z</time>
      </trkpt>
      <trkpt lat="42.43891" lon="2.20021">
        <ele>2250.58</ele>
        <time>2016-06-30T12:52:56Z</time>
      </trkpt>
      <trkpt lat="42.43897" lon="2.20019">
        <ele>2250.58</ele>
        <time>2016-06-30T12:53:02Z</time>
      </trkpt>
      <trkpt lat="42.43906" lon="2.20021">
        <ele>2250.58</ele>
        <time>2016-06-30T12:53:13Z</time>
      </trkpt>
      <trkpt lat="42.43913" lon="2.20024">
        <ele>2250.58</ele>
        <time>2016-06-30T12:53:24Z</time>
      </trkpt>
      <trkpt lat="42.43916" lon="2.20025">
        <ele>2250.58</ele>
        <time>2016-06-30T12:53:29Z</time>
      </trkpt>
      <trkpt lat="42.43921" lon="2.20019">
        <ele>2251.54</ele>
        <time>2016-06-30T12:53:35Z</time>
      </trkpt>
      <trkpt lat="42.43922" lon="2.20017">
        <ele>2251.54</ele>
        <time>2016-06-30T12:53:37Z</time>
      </trkpt>
      <trkpt lat="42.43924" lon="2.20015">
        <ele>2251.54</ele>
        <time>2016-06-30T12:53:40Z</time>
      </trkpt>
      <trkpt lat="42.43926" lon="2.20012">
        <ele>2251.54</ele>
        <time>2016-06-30T12:53:43Z</time>
      </trkpt>
      <trkpt lat="42.43933" lon="2.20001">
        <ele>2251.54</ele>
        <time>2016-06-30T12:53:53Z</time>
      </trkpt>
      <trkpt lat="42.43936" lon="2.19997">
        <ele>2251.54</ele>
        <time>2016-06-30T12:53:59Z</time>
      </trkpt>
      <trkpt lat="42.43938" lon="2.19993">
        <ele>2252.03</ele>
        <time>2016-06-30T12:54:03Z</time>
      </trkpt>
      <trkpt lat="42.43941" lon="2.19987">
        <ele>2250.58</ele>
        <time>2016-06-30T12:54:08Z</time>
      </trkpt>
      <trkpt lat="42.43942" lon="2.19986">
        <ele>2250.58</ele>
        <time>2016-06-30T12:54:09Z</time>
      </trkpt>
      <trkpt lat="42.43944" lon="2.19985">
        <ele>2250.58</ele>
        <time>2016-06-30T12:54:11Z</time>
      </trkpt>
      <trkpt lat="42.43945" lon="2.19983">
        <ele>2250.58</ele>
        <time>2016-06-30T12:54:13Z</time>
      </trkpt>
      <trkpt lat="42.43956" lon="2.19983">
        <ele>2250.58</ele>
        <time>2016-06-30T12:54:24Z</time>
      </trkpt>
      <trkpt lat="42.43962" lon="2.19984">
        <ele>2250.58</ele>
        <time>2016-06-30T12:54:29Z</time>
      </trkpt>
      <trkpt lat="42.43966" lon="2.19985">
        <ele>2250.58</ele>
        <time>2016-06-30T12:54:32Z</time>
      </trkpt>
      <trkpt lat="42.43976" lon="2.19986">
        <ele>2249.62</ele>
        <time>2016-06-30T12:54:43Z</time>
      </trkpt>
      <trkpt lat="42.43978" lon="2.19984">
        <ele>2248.66</ele>
        <time>2016-06-30T12:54:45Z</time>
      </trkpt>
      <trkpt lat="42.43981" lon="2.19981">
        <ele>2248.18</ele>
        <time>2016-06-30T12:54:49Z</time>
      </trkpt>
      <trkpt lat="42.43989" lon="2.19983">
        <ele>2247.7</ele>
        <time>2016-06-30T12:54:57Z</time>
      </trkpt>
      <trkpt lat="42.43995" lon="2.19981">
        <ele>2247.7</ele>
        <time>2016-06-30T12:55:05Z</time>
      </trkpt>
      <trkpt lat="42.43996" lon="2.19978">
        <ele>2248.18</ele>
        <time>2016-06-30T12:55:07Z</time>
      </trkpt>
      <trkpt lat="42.43997" lon="2.19975">
        <ele>2248.18</ele>
        <time>2016-06-30T12:55:09Z</time>
      </trkpt>
      <trkpt lat="42.43999" lon="2.19972">
        <ele>2247.22</ele>
        <time>2016-06-30T12:55:12Z</time>
      </trkpt>
      <trkpt lat="42.44" lon="2.19972">
        <ele>2247.22</ele>
        <time>2016-06-30T12:55:13Z</time>
      </trkpt>
      <trkpt lat="42.44005" lon="2.19973">
        <ele>2245.78</ele>
        <time>2016-06-30T12:55:20Z</time>
      </trkpt>
      <trkpt lat="42.44015" lon="2.19979">
        <ele>2243.37</ele>
        <time>2016-06-30T12:55:34Z</time>
      </trkpt>
      <trkpt lat="42.44017" lon="2.19977">
        <ele>2242.89</ele>
        <time>2016-06-30T12:55:37Z</time>
      </trkpt>
      <trkpt lat="42.4402" lon="2.19976">
        <ele>2242.41</ele>
        <time>2016-06-30T12:55:40Z</time>
      </trkpt>
      <trkpt lat="42.44027" lon="2.1997">
        <ele>2240.01</ele>
        <time>2016-06-30T12:55:49Z</time>
      </trkpt>
      <trkpt lat="42.44037" lon="2.19969">
        <ele>2236.16</ele>
        <time>2016-06-30T12:55:58Z</time>
      </trkpt>
      <trkpt lat="42.44048" lon="2.19965">
        <ele>2236.16</ele>
        <time>2016-06-30T12:56:09Z</time>
      </trkpt>
      <trkpt lat="42.44051" lon="2.19966">
        <ele>2236.16</ele>
        <time>2016-06-30T12:56:12Z</time>
      </trkpt>
      <trkpt lat="42.44054" lon="2.19967">
        <ele>2236.16</ele>
        <time>2016-06-30T12:56:19Z</time>
      </trkpt>
      <trkpt lat="42.44055" lon="2.19966">
        <ele>2236.16</ele>
        <time>2016-06-30T12:56:21Z</time>
      </trkpt>
      <trkpt lat="42.44059" lon="2.19967">
        <ele>2236.64</ele>
        <time>2016-06-30T12:56:25Z</time>
      </trkpt>
      <trkpt lat="42.4406" lon="2.19968">
        <ele>2236.64</ele>
        <time>2016-06-30T12:56:27Z</time>
      </trkpt>
      <trkpt lat="42.44073" lon="2.19963">
        <ele>2234.24</ele>
        <time>2016-06-30T12:56:40Z</time>
      </trkpt>
      <trkpt lat="42.44075" lon="2.19964">
        <ele>2234.24</ele>
        <time>2016-06-30T12:56:44Z</time>
      </trkpt>
      <trkpt lat="42.44082" lon="2.19967">
        <ele>2232.8</ele>
        <time>2016-06-30T12:56:53Z</time>
      </trkpt>
      <trkpt lat="42.44085" lon="2.19967">
        <ele>2232.8</ele>
        <time>2016-06-30T12:56:55Z</time>
      </trkpt>
      <trkpt lat="42.44095" lon="2.19962">
        <ele>2230.88</ele>
        <time>2016-06-30T12:57:05Z</time>
      </trkpt>
      <trkpt lat="42.44098" lon="2.19962">
        <ele>2230.88</ele>
        <time>2016-06-30T12:57:08Z</time>
      </trkpt>
      <trkpt lat="42.44108" lon="2.19958">
        <ele>2230.4</ele>
        <time>2016-06-30T12:57:18Z</time>
      </trkpt>
      <trkpt lat="42.44116" lon="2.19951">
        <ele>2229.43</ele>
        <time>2016-06-30T12:57:28Z</time>
      </trkpt>
      <trkpt lat="42.44118" lon="2.19951">
        <ele>2229.43</ele>
        <time>2016-06-30T12:57:31Z</time>
      </trkpt>
      <trkpt lat="42.44124" lon="2.19948">
        <ele>2228.95</ele>
        <time>2016-06-30T12:57:38Z</time>
      </trkpt>
      <trkpt lat="42.44129" lon="2.19944">
        <ele>2228.47</ele>
        <time>2016-06-30T12:57:44Z</time>
      </trkpt>
      <trkpt lat="42.44134" lon="2.19931">
        <ele>2227.51</ele>
        <time>2016-06-30T12:57:58Z</time>
      </trkpt>
      <trkpt lat="42.44134" lon="2.19929">
        <ele>2227.51</ele>
        <time>2016-06-30T12:58:00Z</time>
      </trkpt>
      <trkpt lat="42.44137" lon="2.19926">
        <ele>2227.03</ele>
        <time>2016-06-30T12:58:05Z</time>
      </trkpt>
      <trkpt lat="42.44147" lon="2.19922">
        <ele>2227.03</ele>
        <time>2016-06-30T12:58:17Z</time>
      </trkpt>
      <trkpt lat="42.44152" lon="2.19919">
        <ele>2227.03</ele>
        <time>2016-06-30T12:58:21Z</time>
      </trkpt>
      <trkpt lat="42.44154" lon="2.1992">
        <ele>2227.51</ele>
        <time>2016-06-30T12:58:24Z</time>
      </trkpt>
      <trkpt lat="42.44158" lon="2.19918">
        <ele>2227.51</ele>
        <time>2016-06-30T12:58:28Z</time>
      </trkpt>
      <trkpt lat="42.44159" lon="2.19916">
        <ele>2227.51</ele>
        <time>2016-06-30T12:58:30Z</time>
      </trkpt>
      <trkpt lat="42.44163" lon="2.1991">
        <ele>2228.47</ele>
        <time>2016-06-30T12:58:36Z</time>
      </trkpt>
      <trkpt lat="42.44176" lon="2.19901">
        <ele>2228.95</ele>
        <time>2016-06-30T12:58:50Z</time>
      </trkpt>
      <trkpt lat="42.44177" lon="2.19899">
        <ele>2228.95</ele>
        <time>2016-06-30T12:58:52Z</time>
      </trkpt>
      <trkpt lat="42.44184" lon="2.19896">
        <ele>2228.95</ele>
        <time>2016-06-30T12:59:03Z</time>
      </trkpt>
      <trkpt lat="42.44188" lon="2.19894">
        <ele>2228.95</ele>
        <time>2016-06-30T12:59:09Z</time>
      </trkpt>
      <trkpt lat="42.44191" lon="2.19891">
        <ele>2227.51</ele>
        <time>2016-06-30T12:59:15Z</time>
      </trkpt>
      <trkpt lat="42.44191" lon="2.19893">
        <ele>2227.51</ele>
        <time>2016-06-30T12:59:17Z</time>
      </trkpt>
      <trkpt lat="42.44196" lon="2.19889">
        <ele>2225.59</ele>
        <time>2016-06-30T12:59:24Z</time>
      </trkpt>
      <trkpt lat="42.44199" lon="2.19887">
        <ele>2224.15</ele>
        <time>2016-06-30T12:59:31Z</time>
      </trkpt>
      <trkpt lat="42.44201" lon="2.19892">
        <ele>2221.26</ele>
        <time>2016-06-30T12:59:36Z</time>
      </trkpt>
      <trkpt lat="42.44209" lon="2.19891">
        <ele>2219.82</ele>
        <time>2016-06-30T12:59:45Z</time>
      </trkpt>
      <trkpt lat="42.44219" lon="2.19892">
        <ele>2219.82</ele>
        <time>2016-06-30T12:59:58Z</time>
      </trkpt>
      <trkpt lat="42.44226" lon="2.19894">
        <ele>2218.86</ele>
        <time>2016-06-30T13:00:07Z</time>
      </trkpt>
      <trkpt lat="42.44228" lon="2.19905">
        <ele>2217.42</ele>
        <time>2016-06-30T13:00:18Z</time>
      </trkpt>
      <trkpt lat="42.44238" lon="2.1991">
        <ele>2216.46</ele>
        <time>2016-06-30T13:00:30Z</time>
      </trkpt>
      <trkpt lat="42.44243" lon="2.19908">
        <ele>2215.5</ele>
        <time>2016-06-30T13:00:41Z</time>
      </trkpt>
      <trkpt lat="42.44247" lon="2.19909">
        <ele>2214.53</ele>
        <time>2016-06-30T13:00:48Z</time>
      </trkpt>
      <trkpt lat="42.4425" lon="2.19906">
        <ele>2213.57</ele>
        <time>2016-06-30T13:00:55Z</time>
      </trkpt>
      <trkpt lat="42.44255" lon="2.19908">
        <ele>2209.73</ele>
        <time>2016-06-30T13:01:01Z</time>
      </trkpt>
      <trkpt lat="42.44268" lon="2.19907">
        <ele>2207.32</ele>
        <time>2016-06-30T13:01:14Z</time>
      </trkpt>
      <trkpt lat="42.44269" lon="2.19907">
        <ele>2207.32</ele>
        <time>2016-06-30T13:01:15Z</time>
      </trkpt>
      <trkpt lat="42.44281" lon="2.19902">
        <ele>2207.32</ele>
        <time>2016-06-30T13:01:26Z</time>
      </trkpt>
      <trkpt lat="42.44289" lon="2.19898">
        <ele>2206.36</ele>
        <time>2016-06-30T13:01:39Z</time>
      </trkpt>
      <trkpt lat="42.44298" lon="2.19893">
        <ele>2206.84</ele>
        <time>2016-06-30T13:01:50Z</time>
      </trkpt>
      <trkpt lat="42.44302" lon="2.19892">
        <ele>2206.84</ele>
        <time>2016-06-30T13:01:53Z</time>
      </trkpt>
      <trkpt lat="42.44306" lon="2.19889">
        <ele>2206.84</ele>
        <time>2016-06-30T13:01:57Z</time>
      </trkpt>
      <trkpt lat="42.44314" lon="2.19887">
        <ele>2206.36</ele>
        <time>2016-06-30T13:02:05Z</time>
      </trkpt>
      <trkpt lat="42.4433" lon="2.19884">
        <ele>2205.88</ele>
        <time>2016-06-30T13:02:18Z</time>
      </trkpt>
      <trkpt lat="42.44345" lon="2.1989">
        <ele>2205.88</ele>
        <time>2016-06-30T13:02:32Z</time>
      </trkpt>
      <trkpt lat="42.44354" lon="2.19895">
        <ele>2205.4</ele>
        <time>2016-06-30T13:02:41Z</time>
      </trkpt>
      <trkpt lat="42.44362" lon="2.19902">
        <ele>2205.4</ele>
        <time>2016-06-30T13:02:49Z</time>
      </trkpt>
      <trkpt lat="42.44366" lon="2.19904">
        <ele>2205.4</ele>
        <time>2016-06-30T13:02:53Z</time>
      </trkpt>
      <trkpt lat="42.44375" lon="2.1991">
        <ele>2205.88</ele>
        <time>2016-06-30T13:03:05Z</time>
      </trkpt>
      <trkpt lat="42.44381" lon="2.19914">
        <ele>2205.88</ele>
        <time>2016-06-30T13:03:12Z</time>
      </trkpt>
      <trkpt lat="42.44382" lon="2.19918">
        <ele>2205.88</ele>
        <time>2016-06-30T13:03:15Z</time>
      </trkpt>
      <trkpt lat="42.44393" lon="2.19924">
        <ele>2205.88</ele>
        <time>2016-06-30T13:03:27Z</time>
      </trkpt>
      <trkpt lat="42.44398" lon="2.19924">
        <ele>2205.4</ele>
        <time>2016-06-30T13:03:32Z</time>
      </trkpt>
      <trkpt lat="42.444" lon="2.19927">
        <ele>2204.92</ele>
        <time>2016-06-30T13:03:41Z</time>
      </trkpt>
      <trkpt lat="42.444" lon="2.19927">
        <ele>2204.92</ele>
        <time>2016-06-30T13:03:44Z</time>
      </trkpt>
      <trkpt lat="42.44401" lon="2.19926">
        <ele>2203.96</ele>
        <time>2016-06-30T13:04:00Z</time>
      </trkpt>
      <trkpt lat="42.44401" lon="2.19926">
        <ele>2203.48</ele>
        <time>2016-06-30T13:04:30Z</time>
      </trkpt>
      <trkpt lat="42.444" lon="2.19926">
        <ele>2203.48</ele>
        <time>2016-06-30T13:04:52Z</time>
      </trkpt>
      <trkpt lat="42.444" lon="2.19928">
        <ele>2204.92</ele>
        <time>2016-06-30T13:05:01Z</time>
      </trkpt>
      <trkpt lat="42.44406" lon="2.19927">
        <ele>2204.92</ele>
        <time>2016-06-30T13:05:13Z</time>
      </trkpt>
      <trkpt lat="42.44409" lon="2.19932">
        <ele>2204.92</ele>
        <time>2016-06-30T13:05:19Z</time>
      </trkpt>
      <trkpt lat="42.44413" lon="2.19932">
        <ele>2203.96</ele>
        <time>2016-06-30T13:05:23Z</time>
      </trkpt>
      <trkpt lat="42.44414" lon="2.1993">
        <ele>2203.48</ele>
        <time>2016-06-30T13:05:25Z</time>
      </trkpt>
      <trkpt lat="42.44425" lon="2.19935">
        <ele>2202.52</ele>
        <time>2016-06-30T13:05:35Z</time>
      </trkpt>
      <trkpt lat="42.44427" lon="2.19936">
        <ele>2201.56</ele>
        <time>2016-06-30T13:05:38Z</time>
      </trkpt>
      <trkpt lat="42.4443" lon="2.19936">
        <ele>2201.08</ele>
        <time>2016-06-30T13:05:41Z</time>
      </trkpt>
      <trkpt lat="42.44437" lon="2.19938">
        <ele>2200.11</ele>
        <time>2016-06-30T13:05:49Z</time>
      </trkpt>
      <trkpt lat="42.44439" lon="2.19942">
        <ele>2199.15</ele>
        <time>2016-06-30T13:05:53Z</time>
      </trkpt>
      <trkpt lat="42.44446" lon="2.19946">
        <ele>2197.71</ele>
        <time>2016-06-30T13:06:00Z</time>
      </trkpt>
      <trkpt lat="42.44449" lon="2.19942">
        <ele>2194.35</ele>
        <time>2016-06-30T13:06:06Z</time>
      </trkpt>
      <trkpt lat="42.44451" lon="2.19942">
        <ele>2192.9</ele>
        <time>2016-06-30T13:06:08Z</time>
      </trkpt>
      <trkpt lat="42.44454" lon="2.19943">
        <ele>2190.98</ele>
        <time>2016-06-30T13:06:12Z</time>
      </trkpt>
      <trkpt lat="42.44461" lon="2.19944">
        <ele>2190.5</ele>
        <time>2016-06-30T13:06:20Z</time>
      </trkpt>
      <trkpt lat="42.44463" lon="2.19942">
        <ele>2190.5</ele>
        <time>2016-06-30T13:06:22Z</time>
      </trkpt>
      <trkpt lat="42.44469" lon="2.19941">
        <ele>2190.02</ele>
        <time>2016-06-30T13:06:27Z</time>
      </trkpt>
      <trkpt lat="42.44476" lon="2.19943">
        <ele>2189.54</ele>
        <time>2016-06-30T13:06:33Z</time>
      </trkpt>
      <trkpt lat="42.44482" lon="2.19944">
        <ele>2189.06</ele>
        <time>2016-06-30T13:06:37Z</time>
      </trkpt>
      <trkpt lat="42.44484" lon="2.19945">
        <ele>2188.58</ele>
        <time>2016-06-30T13:06:39Z</time>
      </trkpt>
      <trkpt lat="42.44499" lon="2.19937">
        <ele>2187.62</ele>
        <time>2016-06-30T13:06:51Z</time>
      </trkpt>
      <trkpt lat="42.44509" lon="2.19944">
        <ele>2187.14</ele>
        <time>2016-06-30T13:07:01Z</time>
      </trkpt>
      <trkpt lat="42.44522" lon="2.19947">
        <ele>2186.18</ele>
        <time>2016-06-30T13:07:12Z</time>
      </trkpt>
      <trkpt lat="42.44528" lon="2.1995">
        <ele>2185.69</ele>
        <time>2016-06-30T13:07:17Z</time>
      </trkpt>
      <trkpt lat="42.4454" lon="2.19954">
        <ele>2185.21</ele>
        <time>2016-06-30T13:07:26Z</time>
      </trkpt>
      <trkpt lat="42.44556" lon="2.19949">
        <ele>2184.25</ele>
        <time>2016-06-30T13:07:40Z</time>
      </trkpt>
      <trkpt lat="42.44561" lon="2.19949">
        <ele>2184.25</ele>
        <time>2016-06-30T13:07:44Z</time>
      </trkpt>
      <trkpt lat="42.4457" lon="2.19944">
        <ele>2184.25</ele>
        <time>2016-06-30T13:07:52Z</time>
      </trkpt>
      <trkpt lat="42.44572" lon="2.19941">
        <ele>2184.73</ele>
        <time>2016-06-30T13:07:55Z</time>
      </trkpt>
      <trkpt lat="42.44577" lon="2.19941">
        <ele>2183.77</ele>
        <time>2016-06-30T13:07:59Z</time>
      </trkpt>
      <trkpt lat="42.44588" lon="2.19935">
        <ele>2183.29</ele>
        <time>2016-06-30T13:08:10Z</time>
      </trkpt>
      <trkpt lat="42.44593" lon="2.19938">
        <ele>2183.29</ele>
        <time>2016-06-30T13:08:16Z</time>
      </trkpt>
      <trkpt lat="42.44594" lon="2.19942">
        <ele>2183.77</ele>
        <time>2016-06-30T13:08:19Z</time>
      </trkpt>
      <trkpt lat="42.446" lon="2.19951">
        <ele>2183.77</ele>
        <time>2016-06-30T13:08:31Z</time>
      </trkpt>
      <trkpt lat="42.44602" lon="2.19952">
        <ele>2183.77</ele>
        <time>2016-06-30T13:08:32Z</time>
      </trkpt>
      <trkpt lat="42.44618" lon="2.19949">
        <ele>2183.77</ele>
        <time>2016-06-30T13:08:46Z</time>
      </trkpt>
      <trkpt lat="42.44619" lon="2.19951">
        <ele>2183.77</ele>
        <time>2016-06-30T13:08:48Z</time>
      </trkpt>
      <trkpt lat="42.44622" lon="2.19953">
        <ele>2182.81</ele>
        <time>2016-06-30T13:08:52Z</time>
      </trkpt>
      <trkpt lat="42.44628" lon="2.19959">
        <ele>2182.33</ele>
        <time>2016-06-30T13:09:04Z</time>
      </trkpt>
      <trkpt lat="42.44638" lon="2.19962">
        <ele>2181.85</ele>
        <time>2016-06-30T13:09:14Z</time>
      </trkpt>
      <trkpt lat="42.44647" lon="2.19967">
        <ele>2181.85</ele>
        <time>2016-06-30T13:09:24Z</time>
      </trkpt>
      <trkpt lat="42.44649" lon="2.19967">
        <ele>2181.85</ele>
        <time>2016-06-30T13:09:27Z</time>
      </trkpt>
      <trkpt lat="42.44652" lon="2.19966">
        <ele>2181.85</ele>
        <time>2016-06-30T13:09:30Z</time>
      </trkpt>
      <trkpt lat="42.44654" lon="2.19969">
        <ele>2181.85</ele>
        <time>2016-06-30T13:09:35Z</time>
      </trkpt>
      <trkpt lat="42.44656" lon="2.19972">
        <ele>2181.85</ele>
        <time>2016-06-30T13:09:37Z</time>
      </trkpt>
      <trkpt lat="42.44665" lon="2.19988">
        <ele>2181.37</ele>
        <time>2016-06-30T13:09:52Z</time>
      </trkpt>
      <trkpt lat="42.4467" lon="2.19995">
        <ele>2182.81</ele>
        <time>2016-06-30T13:09:58Z</time>
      </trkpt>
      <trkpt lat="42.44672" lon="2.19998">
        <ele>2182.33</ele>
        <time>2016-06-30T13:10:01Z</time>
      </trkpt>
      <trkpt lat="42.44677" lon="2.20002">
        <ele>2182.81</ele>
        <time>2016-06-30T13:10:06Z</time>
      </trkpt>
      <trkpt lat="42.44681" lon="2.20008">
        <ele>2182.81</ele>
        <time>2016-06-30T13:10:11Z</time>
      </trkpt>
      <trkpt lat="42.44689" lon="2.20018">
        <ele>2182.33</ele>
        <time>2016-06-30T13:10:21Z</time>
      </trkpt>
      <trkpt lat="42.44701" lon="2.20035">
        <ele>2182.81</ele>
        <time>2016-06-30T13:10:36Z</time>
      </trkpt>
      <trkpt lat="42.44706" lon="2.20042">
        <ele>2182.81</ele>
        <time>2016-06-30T13:10:42Z</time>
      </trkpt>
      <trkpt lat="42.44708" lon="2.20044">
        <ele>2182.81</ele>
        <time>2016-06-30T13:10:44Z</time>
      </trkpt>
      <trkpt lat="42.44711" lon="2.20045">
        <ele>2182.81</ele>
        <time>2016-06-30T13:10:46Z</time>
      </trkpt>
      <trkpt lat="42.44725" lon="2.20058">
        <ele>2182.81</ele>
        <time>2016-06-30T13:11:01Z</time>
      </trkpt>
      <trkpt lat="42.44728" lon="2.2006">
        <ele>2182.81</ele>
        <time>2016-06-30T13:11:05Z</time>
      </trkpt>
      <trkpt lat="42.44734" lon="2.20067">
        <ele>2181.37</ele>
        <time>2016-06-30T13:11:11Z</time>
      </trkpt>
      <trkpt lat="42.44738" lon="2.20073">
        <ele>2181.37</ele>
        <time>2016-06-30T13:11:16Z</time>
      </trkpt>
      <trkpt lat="42.4474" lon="2.20075">
        <ele>2181.37</ele>
        <time>2016-06-30T13:11:19Z</time>
      </trkpt>
      <trkpt lat="42.44746" lon="2.20087">
        <ele>2180.41</ele>
        <time>2016-06-30T13:11:29Z</time>
      </trkpt>
      <trkpt lat="42.44755" lon="2.20098">
        <ele>2180.41</ele>
        <time>2016-06-30T13:11:41Z</time>
      </trkpt>
      <trkpt lat="42.44764" lon="2.20106">
        <ele>2180.41</ele>
        <time>2016-06-30T13:11:51Z</time>
      </trkpt>
      <trkpt lat="42.44769" lon="2.20114">
        <ele>2179.93</ele>
        <time>2016-06-30T13:11:59Z</time>
      </trkpt>
      <trkpt lat="42.44773" lon="2.20115">
        <ele>2179.93</ele>
        <time>2016-06-30T13:12:03Z</time>
      </trkpt>
      <trkpt lat="42.4478" lon="2.20119">
        <ele>2179.93</ele>
        <time>2016-06-30T13:12:14Z</time>
      </trkpt>
      <trkpt lat="42.44781" lon="2.2012">
        <ele>2179.93</ele>
        <time>2016-06-30T13:12:15Z</time>
      </trkpt>
      <trkpt lat="42.44791" lon="2.20124">
        <ele>2182.33</ele>
        <time>2016-06-30T13:12:28Z</time>
      </trkpt>
      <trkpt lat="42.44795" lon="2.20123">
        <ele>2183.29</ele>
        <time>2016-06-30T13:12:39Z</time>
      </trkpt>
      <trkpt lat="42.448" lon="2.20122">
        <ele>2184.25</ele>
        <time>2016-06-30T13:12:51Z</time>
      </trkpt>
      <trkpt lat="42.44804" lon="2.20121">
        <ele>2185.21</ele>
        <time>2016-06-30T13:13:03Z</time>
      </trkpt>
      <trkpt lat="42.44814" lon="2.20121">
        <ele>2186.18</ele>
        <time>2016-06-30T13:13:14Z</time>
      </trkpt>
      <trkpt lat="42.44819" lon="2.2012">
        <ele>2186.66</ele>
        <time>2016-06-30T13:13:20Z</time>
      </trkpt>
      <trkpt lat="42.44827" lon="2.2012">
        <ele>2187.14</ele>
        <time>2016-06-30T13:13:32Z</time>
      </trkpt>
      <trkpt lat="42.44836" lon="2.20123">
        <ele>2187.62</ele>
        <time>2016-06-30T13:13:43Z</time>
      </trkpt>
      <trkpt lat="42.4484" lon="2.20123">
        <ele>2187.14</ele>
        <time>2016-06-30T13:13:47Z</time>
      </trkpt>
      <trkpt lat="42.4485" lon="2.2012">
        <ele>2187.14</ele>
        <time>2016-06-30T13:14:00Z</time>
      </trkpt>
      <trkpt lat="42.4486" lon="2.20122">
        <ele>2187.14</ele>
        <time>2016-06-30T13:14:11Z</time>
      </trkpt>
      <trkpt lat="42.44865" lon="2.20128">
        <ele>2187.14</ele>
        <time>2016-06-30T13:14:19Z</time>
      </trkpt>
      <trkpt lat="42.44868" lon="2.2013">
        <ele>2187.14</ele>
        <time>2016-06-30T13:14:22Z</time>
      </trkpt>
      <trkpt lat="42.4487" lon="2.20132">
        <ele>2187.14</ele>
        <time>2016-06-30T13:14:25Z</time>
      </trkpt>
      <trkpt lat="42.44872" lon="2.20134">
        <ele>2187.14</ele>
        <time>2016-06-30T13:14:27Z</time>
      </trkpt>
      <trkpt lat="42.44883" lon="2.20149">
        <ele>2187.14</ele>
        <time>2016-06-30T13:14:40Z</time>
      </trkpt>
      <trkpt lat="42.44894" lon="2.20166">
        <ele>2187.62</ele>
        <time>2016-06-30T13:14:54Z</time>
      </trkpt>
      <trkpt lat="42.44899" lon="2.20176">
        <ele>2187.62</ele>
        <time>2016-06-30T13:15:04Z</time>
      </trkpt>
      <trkpt lat="42.44899" lon="2.20188">
        <ele>2185.69</ele>
        <time>2016-06-30T13:15:17Z</time>
      </trkpt>
      <trkpt lat="42.44905" lon="2.20189">
        <ele>2183.77</ele>
        <time>2016-06-30T13:15:25Z</time>
      </trkpt>
      <trkpt lat="42.4491" lon="2.20199">
        <ele>2182.81</ele>
        <time>2016-06-30T13:15:34Z</time>
      </trkpt>
      <trkpt lat="42.44914" lon="2.20205">
        <ele>2180.89</ele>
        <time>2016-06-30T13:15:41Z</time>
      </trkpt>
      <trkpt lat="42.44918" lon="2.20209">
        <ele>2178.97</ele>
        <time>2016-06-30T13:15:45Z</time>
      </trkpt>
      <trkpt lat="42.44925" lon="2.20213">
        <ele>2175.12</ele>
        <time>2016-06-30T13:15:52Z</time>
      </trkpt>
      <trkpt lat="42.44929" lon="2.20215">
        <ele>2175.12</ele>
        <time>2016-06-30T13:15:55Z</time>
      </trkpt>
      <trkpt lat="42.44935" lon="2.20222">
        <ele>2175.12</ele>
        <time>2016-06-30T13:16:02Z</time>
      </trkpt>
      <trkpt lat="42.44953" lon="2.20238">
        <ele>2176.08</ele>
        <time>2016-06-30T13:16:19Z</time>
      </trkpt>
      <trkpt lat="42.44965" lon="2.20243">
        <ele>2176.08</ele>
        <time>2016-06-30T13:16:30Z</time>
      </trkpt>
      <trkpt lat="42.44969" lon="2.20242">
        <ele>2175.6</ele>
        <time>2016-06-30T13:16:34Z</time>
      </trkpt>
      <trkpt lat="42.44979" lon="2.20244">
        <ele>2175.6</ele>
        <time>2016-06-30T13:16:42Z</time>
      </trkpt>
      <trkpt lat="42.44992" lon="2.20252">
        <ele>2174.16</ele>
        <time>2016-06-30T13:16:54Z</time>
      </trkpt>
      <trkpt lat="42.44997" lon="2.20256">
        <ele>2174.16</ele>
        <time>2016-06-30T13:16:59Z</time>
      </trkpt>
      <trkpt lat="42.45001" lon="2.20259">
        <ele>2173.2</ele>
        <time>2016-06-30T13:17:03Z</time>
      </trkpt>
      <trkpt lat="42.45009" lon="2.20266">
        <ele>2170.79</ele>
        <time>2016-06-30T13:17:15Z</time>
      </trkpt>
      <trkpt lat="42.45011" lon="2.20267">
        <ele>2170.79</ele>
        <time>2016-06-30T13:17:17Z</time>
      </trkpt>
      <trkpt lat="42.45013" lon="2.20269">
        <ele>2170.31</ele>
        <time>2016-06-30T13:17:19Z</time>
      </trkpt>
      <trkpt lat="42.45017" lon="2.20274">
        <ele>2168.87</ele>
        <time>2016-06-30T13:17:24Z</time>
      </trkpt>
      <trkpt lat="42.45023" lon="2.20278">
        <ele>2165.03</ele>
        <time>2016-06-30T13:17:30Z</time>
      </trkpt>
      <trkpt lat="42.45025" lon="2.20278">
        <ele>2163.58</ele>
        <time>2016-06-30T13:17:34Z</time>
      </trkpt>
      <trkpt lat="42.45034" lon="2.20288">
        <ele>2163.58</ele>
        <time>2016-06-30T13:17:47Z</time>
      </trkpt>
      <trkpt lat="42.45035" lon="2.20287">
        <ele>2165.03</ele>
        <time>2016-06-30T13:18:08Z</time>
      </trkpt>
      <trkpt lat="42.45034" lon="2.2029">
        <ele>2164.55</ele>
        <time>2016-06-30T13:18:24Z</time>
      </trkpt>
      <trkpt lat="42.45033" lon="2.2029">
        <ele>2164.55</ele>
        <time>2016-06-30T13:18:44Z</time>
      </trkpt>
      <trkpt lat="42.45034" lon="2.20291">
        <ele>2164.55</ele>
        <time>2016-06-30T13:18:54Z</time>
      </trkpt>
      <trkpt lat="42.45035" lon="2.20289">
        <ele>2164.06</ele>
        <time>2016-06-30T13:19:02Z</time>
      </trkpt>
      <trkpt lat="42.45035" lon="2.2029">
        <ele>2163.1</ele>
        <time>2016-06-30T13:19:35Z</time>
      </trkpt>
      <trkpt lat="42.45035" lon="2.2029">
        <ele>2162.62</ele>
        <time>2016-06-30T13:20:12Z</time>
      </trkpt>
      <trkpt lat="42.45034" lon="2.2029">
        <ele>2162.14</ele>
        <time>2016-06-30T13:20:50Z</time>
      </trkpt>
      <trkpt lat="42.45033" lon="2.20291">
        <ele>2162.14</ele>
        <time>2016-06-30T13:21:26Z</time>
      </trkpt>
      <trkpt lat="42.45034" lon="2.2029">
        <ele>2161.66</ele>
        <time>2016-06-30T13:21:40Z</time>
      </trkpt>
      <trkpt lat="42.45033" lon="2.2029">
        <ele>2161.66</ele>
        <time>2016-06-30T13:21:50Z</time>
      </trkpt>
      <trkpt lat="42.45033" lon="2.20291">
        <ele>2161.66</ele>
        <time>2016-06-30T13:22:05Z</time>
      </trkpt>
      <trkpt lat="42.45044" lon="2.20295">
        <ele>2161.18</ele>
        <time>2016-06-30T13:22:17Z</time>
      </trkpt>
      <trkpt lat="42.45049" lon="2.20298">
        <ele>2160.22</ele>
        <time>2016-06-30T13:22:23Z</time>
      </trkpt>
      <trkpt lat="42.45052" lon="2.20302">
        <ele>2159.74</ele>
        <time>2016-06-30T13:22:27Z</time>
      </trkpt>
      <trkpt lat="42.45061" lon="2.20311">
        <ele>2156.86</ele>
        <time>2016-06-30T13:22:40Z</time>
      </trkpt>
      <trkpt lat="42.45064" lon="2.20312">
        <ele>2156.37</ele>
        <time>2016-06-30T13:22:43Z</time>
      </trkpt>
      <trkpt lat="42.45076" lon="2.20322">
        <ele>2153.97</ele>
        <time>2016-06-30T13:22:55Z</time>
      </trkpt>
      <trkpt lat="42.45081" lon="2.20326">
        <ele>2152.53</ele>
        <time>2016-06-30T13:22:59Z</time>
      </trkpt>
      <trkpt lat="42.45092" lon="2.20336">
        <ele>2150.13</ele>
        <time>2016-06-30T13:23:09Z</time>
      </trkpt>
      <trkpt lat="42.45099" lon="2.20342">
        <ele>2146.76</ele>
        <time>2016-06-30T13:23:15Z</time>
      </trkpt>
      <trkpt lat="42.45104" lon="2.20346">
        <ele>2146.28</ele>
        <time>2016-06-30T13:23:20Z</time>
      </trkpt>
      <trkpt lat="42.45114" lon="2.20354">
        <ele>2145.8</ele>
        <time>2016-06-30T13:23:28Z</time>
      </trkpt>
      <trkpt lat="42.45125" lon="2.20364">
        <ele>2144.84</ele>
        <time>2016-06-30T13:23:39Z</time>
      </trkpt>
      <trkpt lat="42.45132" lon="2.20374">
        <ele>2143.4</ele>
        <time>2016-06-30T13:23:47Z</time>
      </trkpt>
      <trkpt lat="42.45146" lon="2.20393">
        <ele>2140.51</ele>
        <time>2016-06-30T13:24:02Z</time>
      </trkpt>
      <trkpt lat="42.45152" lon="2.20397">
        <ele>2139.07</ele>
        <time>2016-06-30T13:24:08Z</time>
      </trkpt>
      <trkpt lat="42.45165" lon="2.20407">
        <ele>2137.15</ele>
        <time>2016-06-30T13:24:19Z</time>
      </trkpt>
      <trkpt lat="42.4518" lon="2.20419">
        <ele>2135.23</ele>
        <time>2016-06-30T13:24:32Z</time>
      </trkpt>
      <trkpt lat="42.45197" lon="2.20429">
        <ele>2132.82</ele>
        <time>2016-06-30T13:24:46Z</time>
      </trkpt>
      <trkpt lat="42.45217" lon="2.20435">
        <ele>2130.9</ele>
        <time>2016-06-30T13:25:03Z</time>
      </trkpt>
      <trkpt lat="42.45226" lon="2.20437">
        <ele>2129.94</ele>
        <time>2016-06-30T13:25:10Z</time>
      </trkpt>
      <trkpt lat="42.45231" lon="2.2044">
        <ele>2129.46</ele>
        <time>2016-06-30T13:25:14Z</time>
      </trkpt>
      <trkpt lat="42.45237" lon="2.20442">
        <ele>2128.98</ele>
        <time>2016-06-30T13:25:19Z</time>
      </trkpt>
      <trkpt lat="42.45242" lon="2.20445">
        <ele>2128.02</ele>
        <time>2016-06-30T13:25:23Z</time>
      </trkpt>
      <trkpt lat="42.45252" lon="2.2045">
        <ele>2127.05</ele>
        <time>2016-06-30T13:25:32Z</time>
      </trkpt>
      <trkpt lat="42.45257" lon="2.20453">
        <ele>2127.05</ele>
        <time>2016-06-30T13:25:36Z</time>
      </trkpt>
      <trkpt lat="42.45269" lon="2.20467">
        <ele>2126.09</ele>
        <time>2016-06-30T13:25:52Z</time>
      </trkpt>
      <trkpt lat="42.45276" lon="2.20473">
        <ele>2125.61</ele>
        <time>2016-06-30T13:26:04Z</time>
      </trkpt>
      <trkpt lat="42.45279" lon="2.20477">
        <ele>2125.61</ele>
        <time>2016-06-30T13:26:08Z</time>
      </trkpt>
      <trkpt lat="42.45282" lon="2.2049">
        <ele>2125.61</ele>
        <time>2016-06-30T13:26:18Z</time>
      </trkpt>
      <trkpt lat="42.45284" lon="2.20493">
        <ele>2125.61</ele>
        <time>2016-06-30T13:26:21Z</time>
      </trkpt>
      <trkpt lat="42.45286" lon="2.20505">
        <ele>2125.13</ele>
        <time>2016-06-30T13:26:32Z</time>
      </trkpt>
      <trkpt lat="42.45287" lon="2.20513">
        <ele>2126.09</ele>
        <time>2016-06-30T13:26:42Z</time>
      </trkpt>
      <trkpt lat="42.45288" lon="2.20524">
        <ele>2127.05</ele>
        <time>2016-06-30T13:26:53Z</time>
      </trkpt>
      <trkpt lat="42.45289" lon="2.20529">
        <ele>2127.05</ele>
        <time>2016-06-30T13:27:06Z</time>
      </trkpt>
      <trkpt lat="42.45289" lon="2.20529">
        <ele>2127.05</ele>
        <time>2016-06-30T13:27:07Z</time>
      </trkpt>
      <trkpt lat="42.45293" lon="2.20539">
        <ele>2127.05</ele>
        <time>2016-06-30T13:27:16Z</time>
      </trkpt>
      <trkpt lat="42.45294" lon="2.20548">
        <ele>2125.61</ele>
        <time>2016-06-30T13:27:23Z</time>
      </trkpt>
      <trkpt lat="42.45292" lon="2.20561">
        <ele>2125.61</ele>
        <time>2016-06-30T13:27:32Z</time>
      </trkpt>
      <trkpt lat="42.45294" lon="2.20571">
        <ele>2125.61</ele>
        <time>2016-06-30T13:27:39Z</time>
      </trkpt>
      <trkpt lat="42.45295" lon="2.20578">
        <ele>2125.61</ele>
        <time>2016-06-30T13:27:43Z</time>
      </trkpt>
      <trkpt lat="42.45299" lon="2.20591">
        <ele>2125.13</ele>
        <time>2016-06-30T13:27:53Z</time>
      </trkpt>
      <trkpt lat="42.453" lon="2.20601">
        <ele>2124.17</ele>
        <time>2016-06-30T13:28:01Z</time>
      </trkpt>
      <trkpt lat="42.45302" lon="2.20605">
        <ele>2124.17</ele>
        <time>2016-06-30T13:28:04Z</time>
      </trkpt>
      <trkpt lat="42.45302" lon="2.20622">
        <ele>2122.25</ele>
        <time>2016-06-30T13:28:14Z</time>
      </trkpt>
      <trkpt lat="42.45302" lon="2.20625">
        <ele>2122.25</ele>
        <time>2016-06-30T13:28:16Z</time>
      </trkpt>
      <trkpt lat="42.45309" lon="2.20634">
        <ele>2121.29</ele>
        <time>2016-06-30T13:28:28Z</time>
      </trkpt>
      <trkpt lat="42.45311" lon="2.20634">
        <ele>2120.81</ele>
        <time>2016-06-30T13:28:31Z</time>
      </trkpt>
      <trkpt lat="42.45316" lon="2.2063">
        <ele>2120.32</ele>
        <time>2016-06-30T13:28:38Z</time>
      </trkpt>
      <trkpt lat="42.45326" lon="2.20631">
        <ele>2118.88</ele>
        <time>2016-06-30T13:28:51Z</time>
      </trkpt>
      <trkpt lat="42.45327" lon="2.20629">
        <ele>2117.92</ele>
        <time>2016-06-30T13:29:16Z</time>
      </trkpt>
      <trkpt lat="42.45327" lon="2.20628">
        <ele>2117.44</ele>
        <time>2016-06-30T13:29:37Z</time>
      </trkpt>
      <trkpt lat="42.45332" lon="2.20623">
        <ele>2117.44</ele>
        <time>2016-06-30T13:29:49Z</time>
      </trkpt>
      <trkpt lat="42.45332" lon="2.20627">
        <ele>2116</ele>
        <time>2016-06-30T13:29:57Z</time>
      </trkpt>
      <trkpt lat="42.45334" lon="2.20631">
        <ele>2115.52</ele>
        <time>2016-06-30T13:30:01Z</time>
      </trkpt>
      <trkpt lat="42.45335" lon="2.20631">
        <ele>2115.04</ele>
        <time>2016-06-30T13:30:06Z</time>
      </trkpt>
      <trkpt lat="42.4534" lon="2.20624">
        <ele>2113.6</ele>
        <time>2016-06-30T13:30:17Z</time>
      </trkpt>
      <trkpt lat="42.45343" lon="2.20625">
        <ele>2112.15</ele>
        <time>2016-06-30T13:30:21Z</time>
      </trkpt>
      <trkpt lat="42.4535" lon="2.20626">
        <ele>2111.67</ele>
        <time>2016-06-30T13:30:27Z</time>
      </trkpt>
      <trkpt lat="42.45357" lon="2.20619">
        <ele>2110.71</ele>
        <time>2016-06-30T13:30:40Z</time>
      </trkpt>
      <trkpt lat="42.45363" lon="2.20621">
        <ele>2109.27</ele>
        <time>2016-06-30T13:30:50Z</time>
      </trkpt>
      <trkpt lat="42.45369" lon="2.20622">
        <ele>2108.31</ele>
        <time>2016-06-30T13:31:01Z</time>
      </trkpt>
      <trkpt lat="42.45371" lon="2.20622">
        <ele>2107.83</ele>
        <time>2016-06-30T13:31:03Z</time>
      </trkpt>
      <trkpt lat="42.45373" lon="2.20624">
        <ele>2107.35</ele>
        <time>2016-06-30T13:31:06Z</time>
      </trkpt>
      <trkpt lat="42.45376" lon="2.20625">
        <ele>2106.39</ele>
        <time>2016-06-30T13:31:12Z</time>
      </trkpt>
      <trkpt lat="42.45378" lon="2.20626">
        <ele>2105.91</ele>
        <time>2016-06-30T13:31:15Z</time>
      </trkpt>
      <trkpt lat="42.45383" lon="2.20625">
        <ele>2104.94</ele>
        <time>2016-06-30T13:31:21Z</time>
      </trkpt>
      <trkpt lat="42.45393" lon="2.20622">
        <ele>2103.98</ele>
        <time>2016-06-30T13:31:33Z</time>
      </trkpt>
      <trkpt lat="42.45396" lon="2.20618">
        <ele>2103.98</ele>
        <time>2016-06-30T13:31:43Z</time>
      </trkpt>
      <trkpt lat="42.45402" lon="2.20617">
        <ele>2103.98</ele>
        <time>2016-06-30T13:31:54Z</time>
      </trkpt>
      <trkpt lat="42.45408" lon="2.20615">
        <ele>2103.5</ele>
        <time>2016-06-30T13:31:59Z</time>
      </trkpt>
      <trkpt lat="42.45416" lon="2.20614">
        <ele>2103.02</ele>
        <time>2016-06-30T13:32:06Z</time>
      </trkpt>
      <trkpt lat="42.45428" lon="2.20629">
        <ele>2101.58</ele>
        <time>2016-06-30T13:32:20Z</time>
      </trkpt>
      <trkpt lat="42.45429" lon="2.2063">
        <ele>2101.58</ele>
        <time>2016-06-30T13:32:21Z</time>
      </trkpt>
      <trkpt lat="42.45432" lon="2.20643">
        <ele>2101.58</ele>
        <time>2016-06-30T13:32:36Z</time>
      </trkpt>
      <trkpt lat="42.45435" lon="2.20651">
        <ele>2102.54</ele>
        <time>2016-06-30T13:32:44Z</time>
      </trkpt>
      <trkpt lat="42.45436" lon="2.20661">
        <ele>2103.02</ele>
        <time>2016-06-30T13:32:52Z</time>
      </trkpt>
      <trkpt lat="42.4544" lon="2.20681">
        <ele>2103.5</ele>
        <time>2016-06-30T13:33:04Z</time>
      </trkpt>
      <trkpt lat="42.45442" lon="2.20688">
        <ele>2103.98</ele>
        <time>2016-06-30T13:33:09Z</time>
      </trkpt>
      <trkpt lat="42.45443" lon="2.2069">
        <ele>2103.98</ele>
        <time>2016-06-30T13:33:11Z</time>
      </trkpt>
      <trkpt lat="42.45446" lon="2.20695">
        <ele>2103.98</ele>
        <time>2016-06-30T13:33:15Z</time>
      </trkpt>
      <trkpt lat="42.45456" lon="2.20714">
        <ele>2104.46</ele>
        <time>2016-06-30T13:33:29Z</time>
      </trkpt>
      <trkpt lat="42.45456" lon="2.20716">
        <ele>2104.46</ele>
        <time>2016-06-30T13:33:30Z</time>
      </trkpt>
      <trkpt lat="42.45458" lon="2.20718">
        <ele>2104.46</ele>
        <time>2016-06-30T13:33:32Z</time>
      </trkpt>
      <trkpt lat="42.45464" lon="2.20739">
        <ele>2103.98</ele>
        <time>2016-06-30T13:33:47Z</time>
      </trkpt>
      <trkpt lat="42.45467" lon="2.20747">
        <ele>2102.54</ele>
        <time>2016-06-30T13:33:59Z</time>
      </trkpt>
      <trkpt lat="42.4547" lon="2.20754">
        <ele>2102.54</ele>
        <time>2016-06-30T13:34:13Z</time>
      </trkpt>
      <trkpt lat="42.45473" lon="2.20762">
        <ele>2102.06</ele>
        <time>2016-06-30T13:34:19Z</time>
      </trkpt>
      <trkpt lat="42.45479" lon="2.20766">
        <ele>2101.58</ele>
        <time>2016-06-30T13:34:25Z</time>
      </trkpt>
      <trkpt lat="42.45482" lon="2.20771">
        <ele>2101.58</ele>
        <time>2016-06-30T13:34:29Z</time>
      </trkpt>
      <trkpt lat="42.45489" lon="2.20781">
        <ele>2099.66</ele>
        <time>2016-06-30T13:34:39Z</time>
      </trkpt>
      <trkpt lat="42.45493" lon="2.20788">
        <ele>2098.7</ele>
        <time>2016-06-30T13:34:46Z</time>
      </trkpt>
      <trkpt lat="42.45497" lon="2.20794">
        <ele>2098.21</ele>
        <time>2016-06-30T13:34:51Z</time>
      </trkpt>
      <trkpt lat="42.45499" lon="2.20799">
        <ele>2097.73</ele>
        <time>2016-06-30T13:34:54Z</time>
      </trkpt>
      <trkpt lat="42.45503" lon="2.20804">
        <ele>2096.77</ele>
        <time>2016-06-30T13:34:59Z</time>
      </trkpt>
      <trkpt lat="42.45508" lon="2.20809">
        <ele>2096.29</ele>
        <time>2016-06-30T13:35:06Z</time>
      </trkpt>
      <trkpt lat="42.45513" lon="2.20806">
        <ele>2095.81</ele>
        <time>2016-06-30T13:35:13Z</time>
      </trkpt>
      <trkpt lat="42.45523" lon="2.20814">
        <ele>2095.81</ele>
        <time>2016-06-30T13:35:23Z</time>
      </trkpt>
      <trkpt lat="42.45525" lon="2.20815">
        <ele>2095.81</ele>
        <time>2016-06-30T13:35:25Z</time>
      </trkpt>
      <trkpt lat="42.45542" lon="2.20824">
        <ele>2095.81</ele>
        <time>2016-06-30T13:35:41Z</time>
      </trkpt>
      <trkpt lat="42.45543" lon="2.20826">
        <ele>2095.81</ele>
        <time>2016-06-30T13:35:43Z</time>
      </trkpt>
      <trkpt lat="42.45548" lon="2.20825">
        <ele>2095.33</ele>
        <time>2016-06-30T13:35:49Z</time>
      </trkpt>
      <trkpt lat="42.45554" lon="2.20827">
        <ele>2093.41</ele>
        <time>2016-06-30T13:35:58Z</time>
      </trkpt>
      <trkpt lat="42.45559" lon="2.20825">
        <ele>2090.04</ele>
        <time>2016-06-30T13:36:06Z</time>
      </trkpt>
      <trkpt lat="42.45563" lon="2.20826">
        <ele>2086.68</ele>
        <time>2016-06-30T13:36:11Z</time>
      </trkpt>
      <trkpt lat="42.45567" lon="2.20828">
        <ele>2085.24</ele>
        <time>2016-06-30T13:36:16Z</time>
      </trkpt>
      <trkpt lat="42.45569" lon="2.20831">
        <ele>2085.24</ele>
        <time>2016-06-30T13:36:20Z</time>
      </trkpt>
      <trkpt lat="42.45569" lon="2.20835">
        <ele>2084.76</ele>
        <time>2016-06-30T13:36:25Z</time>
      </trkpt>
      <trkpt lat="42.45569" lon="2.20843">
        <ele>2083.79</ele>
        <time>2016-06-30T13:36:30Z</time>
      </trkpt>
      <trkpt lat="42.45572" lon="2.2085">
        <ele>2082.83</ele>
        <time>2016-06-30T13:36:35Z</time>
      </trkpt>
      <trkpt lat="42.45575" lon="2.20863">
        <ele>2081.39</ele>
        <time>2016-06-30T13:36:43Z</time>
      </trkpt>
      <trkpt lat="42.45582" lon="2.2088">
        <ele>2079.47</ele>
        <time>2016-06-30T13:36:55Z</time>
      </trkpt>
      <trkpt lat="42.45583" lon="2.20887">
        <ele>2078.51</ele>
        <time>2016-06-30T13:36:59Z</time>
      </trkpt>
      <trkpt lat="42.45586" lon="2.20899">
        <ele>2078.03</ele>
        <time>2016-06-30T13:37:07Z</time>
      </trkpt>
      <trkpt lat="42.45587" lon="2.20913">
        <ele>2077.55</ele>
        <time>2016-06-30T13:37:18Z</time>
      </trkpt>
      <trkpt lat="42.45588" lon="2.2092">
        <ele>2077.55</ele>
        <time>2016-06-30T13:37:25Z</time>
      </trkpt>
      <trkpt lat="42.45586" lon="2.20932">
        <ele>2077.55</ele>
        <time>2016-06-30T13:37:36Z</time>
      </trkpt>
      <trkpt lat="42.45584" lon="2.20948">
        <ele>2077.55</ele>
        <time>2016-06-30T13:37:48Z</time>
      </trkpt>
      <trkpt lat="42.45585" lon="2.20958">
        <ele>2077.07</ele>
        <time>2016-06-30T13:37:57Z</time>
      </trkpt>
      <trkpt lat="42.45586" lon="2.20964">
        <ele>2077.07</ele>
        <time>2016-06-30T13:38:02Z</time>
      </trkpt>
      <trkpt lat="42.45588" lon="2.20979">
        <ele>2077.07</ele>
        <time>2016-06-30T13:38:16Z</time>
      </trkpt>
      <trkpt lat="42.45587" lon="2.20983">
        <ele>2076.59</ele>
        <time>2016-06-30T13:38:21Z</time>
      </trkpt>
      <trkpt lat="42.4558" lon="2.20988">
        <ele>2074.18</ele>
        <time>2016-06-30T13:38:35Z</time>
      </trkpt>
      <trkpt lat="42.45577" lon="2.20987">
        <ele>2073.22</ele>
        <time>2016-06-30T13:38:44Z</time>
      </trkpt>
      <trkpt lat="42.45576" lon="2.20994">
        <ele>2071.78</ele>
        <time>2016-06-30T13:38:50Z</time>
      </trkpt>
      <trkpt lat="42.45578" lon="2.20998">
        <ele>2070.34</ele>
        <time>2016-06-30T13:39:01Z</time>
      </trkpt>
      <trkpt lat="42.45584" lon="2.21001">
        <ele>2068.89</ele>
        <time>2016-06-30T13:39:13Z</time>
      </trkpt>
      <trkpt lat="42.45594" lon="2.21006">
        <ele>2066.97</ele>
        <time>2016-06-30T13:39:25Z</time>
      </trkpt>
      <trkpt lat="42.45596" lon="2.21009">
        <ele>2066.97</ele>
        <time>2016-06-30T13:39:27Z</time>
      </trkpt>
      <trkpt lat="42.45597" lon="2.21012">
        <ele>2066.49</ele>
        <time>2016-06-30T13:39:29Z</time>
      </trkpt>
      <trkpt lat="42.45609" lon="2.21023">
        <ele>2065.53</ele>
        <time>2016-06-30T13:39:43Z</time>
      </trkpt>
      <trkpt lat="42.45616" lon="2.21026">
        <ele>2065.05</ele>
        <time>2016-06-30T13:39:55Z</time>
      </trkpt>
      <trkpt lat="42.45622" lon="2.21032">
        <ele>2066.01</ele>
        <time>2016-06-30T13:40:06Z</time>
      </trkpt>
      <trkpt lat="42.45629" lon="2.21036">
        <ele>2066.01</ele>
        <time>2016-06-30T13:40:18Z</time>
      </trkpt>
      <trkpt lat="42.45635" lon="2.21042">
        <ele>2064.57</ele>
        <time>2016-06-30T13:40:27Z</time>
      </trkpt>
      <trkpt lat="42.45641" lon="2.2105">
        <ele>2063.61</ele>
        <time>2016-06-30T13:40:39Z</time>
      </trkpt>
      <trkpt lat="42.45644" lon="2.21055">
        <ele>2063.61</ele>
        <time>2016-06-30T13:40:45Z</time>
      </trkpt>
      <trkpt lat="42.45645" lon="2.2106">
        <ele>2063.61</ele>
        <time>2016-06-30T13:40:48Z</time>
      </trkpt>
      <trkpt lat="42.45646" lon="2.21064">
        <ele>2063.61</ele>
        <time>2016-06-30T13:40:51Z</time>
      </trkpt>
      <trkpt lat="42.45649" lon="2.21067">
        <ele>2063.61</ele>
        <time>2016-06-30T13:40:56Z</time>
      </trkpt>
      <trkpt lat="42.45652" lon="2.21082">
        <ele>2063.61</ele>
        <time>2016-06-30T13:41:07Z</time>
      </trkpt>
      <trkpt lat="42.4565" lon="2.21101">
        <ele>2063.61</ele>
        <time>2016-06-30T13:41:21Z</time>
      </trkpt>
      <trkpt lat="42.45654" lon="2.21118">
        <ele>2063.13</ele>
        <time>2016-06-30T13:41:33Z</time>
      </trkpt>
      <trkpt lat="42.45657" lon="2.21128">
        <ele>2061.2</ele>
        <time>2016-06-30T13:41:45Z</time>
      </trkpt>
      <trkpt lat="42.45667" lon="2.21141">
        <ele>2060.72</ele>
        <time>2016-06-30T13:41:57Z</time>
      </trkpt>
      <trkpt lat="42.45668" lon="2.21144">
        <ele>2060.72</ele>
        <time>2016-06-30T13:41:59Z</time>
      </trkpt>
      <trkpt lat="42.45676" lon="2.21151">
        <ele>2060.72</ele>
        <time>2016-06-30T13:42:05Z</time>
      </trkpt>
      <trkpt lat="42.45678" lon="2.21157">
        <ele>2060.72</ele>
        <time>2016-06-30T13:42:10Z</time>
      </trkpt>
      <trkpt lat="42.45679" lon="2.21172">
        <ele>2060.24</ele>
        <time>2016-06-30T13:42:21Z</time>
      </trkpt>
      <trkpt lat="42.45679" lon="2.21173">
        <ele>2060.24</ele>
        <time>2016-06-30T13:42:22Z</time>
      </trkpt>
      <trkpt lat="42.45681" lon="2.21178">
        <ele>2058.32</ele>
        <time>2016-06-30T13:42:32Z</time>
      </trkpt>
      <trkpt lat="42.45682" lon="2.21178">
        <ele>2058.32</ele>
        <time>2016-06-30T13:42:33Z</time>
      </trkpt>
      <trkpt lat="42.45684" lon="2.2118">
        <ele>2057.84</ele>
        <time>2016-06-30T13:42:36Z</time>
      </trkpt>
      <trkpt lat="42.45691" lon="2.2118">
        <ele>2056.88</ele>
        <time>2016-06-30T13:42:44Z</time>
      </trkpt>
      <trkpt lat="42.45697" lon="2.21182">
        <ele>2055.44</ele>
        <time>2016-06-30T13:42:50Z</time>
      </trkpt>
      <trkpt lat="42.45702" lon="2.21187">
        <ele>2054.47</ele>
        <time>2016-06-30T13:42:59Z</time>
      </trkpt>
      <trkpt lat="42.4571" lon="2.2119">
        <ele>2052.07</ele>
        <time>2016-06-30T13:43:11Z</time>
      </trkpt>
      <trkpt lat="42.45714" lon="2.21189">
        <ele>2051.59</ele>
        <time>2016-06-30T13:43:16Z</time>
      </trkpt>
      <trkpt lat="42.45724" lon="2.21186">
        <ele>2049.19</ele>
        <time>2016-06-30T13:43:29Z</time>
      </trkpt>
      <trkpt lat="42.45725" lon="2.21186">
        <ele>2049.19</ele>
        <time>2016-06-30T13:43:30Z</time>
      </trkpt>
      <trkpt lat="42.45727" lon="2.21187">
        <ele>2048.71</ele>
        <time>2016-06-30T13:43:33Z</time>
      </trkpt>
      <trkpt lat="42.45729" lon="2.21186">
        <ele>2048.71</ele>
        <time>2016-06-30T13:43:35Z</time>
      </trkpt>
      <trkpt lat="42.45731" lon="2.21186">
        <ele>2048.23</ele>
        <time>2016-06-30T13:43:37Z</time>
      </trkpt>
      <trkpt lat="42.45732" lon="2.21188">
        <ele>2048.23</ele>
        <time>2016-06-30T13:43:40Z</time>
      </trkpt>
      <trkpt lat="42.45735" lon="2.21187">
        <ele>2046.78</ele>
        <time>2016-06-30T13:43:44Z</time>
      </trkpt>
      <trkpt lat="42.45741" lon="2.21189">
        <ele>2043.42</ele>
        <time>2016-06-30T13:43:53Z</time>
      </trkpt>
      <trkpt lat="42.45743" lon="2.2119">
        <ele>2042.46</ele>
        <time>2016-06-30T13:43:57Z</time>
      </trkpt>
      <trkpt lat="42.45746" lon="2.21203">
        <ele>2041.02</ele>
        <time>2016-06-30T13:44:09Z</time>
      </trkpt>
      <trkpt lat="42.45745" lon="2.21206">
        <ele>2041.02</ele>
        <time>2016-06-30T13:44:12Z</time>
      </trkpt>
      <trkpt lat="42.45744" lon="2.21211">
        <ele>2040.54</ele>
        <time>2016-06-30T13:44:23Z</time>
      </trkpt>
      <trkpt lat="42.45746" lon="2.21211">
        <ele>2039.57</ele>
        <time>2016-06-30T13:44:26Z</time>
      </trkpt>
      <trkpt lat="42.4575" lon="2.21219">
        <ele>2038.13</ele>
        <time>2016-06-30T13:44:38Z</time>
      </trkpt>
      <trkpt lat="42.4575" lon="2.21227">
        <ele>2037.17</ele>
        <time>2016-06-30T13:44:51Z</time>
      </trkpt>
      <trkpt lat="42.45751" lon="2.21231">
        <ele>2036.21</ele>
        <time>2016-06-30T13:44:56Z</time>
      </trkpt>
      <trkpt lat="42.45755" lon="2.21236">
        <ele>2034.29</ele>
        <time>2016-06-30T13:45:08Z</time>
      </trkpt>
      <trkpt lat="42.45755" lon="2.21239">
        <ele>2032.84</ele>
        <time>2016-06-30T13:45:15Z</time>
      </trkpt>
      <trkpt lat="42.45756" lon="2.21244">
        <ele>2030.44</ele>
        <time>2016-06-30T13:45:26Z</time>
      </trkpt>
      <trkpt lat="42.45757" lon="2.21246">
        <ele>2027.08</ele>
        <time>2016-06-30T13:45:31Z</time>
      </trkpt>
      <trkpt lat="42.45759" lon="2.21252">
        <ele>2025.15</ele>
        <time>2016-06-30T13:45:42Z</time>
      </trkpt>
      <trkpt lat="42.4576" lon="2.21256">
        <ele>2024.67</ele>
        <time>2016-06-30T13:45:53Z</time>
      </trkpt>
      <trkpt lat="42.45756" lon="2.21264">
        <ele>2022.75</ele>
        <time>2016-06-30T13:46:02Z</time>
      </trkpt>
      <trkpt lat="42.45757" lon="2.21265">
        <ele>2022.27</ele>
        <time>2016-06-30T13:46:06Z</time>
      </trkpt>
      <trkpt lat="42.45756" lon="2.21274">
        <ele>2019.39</ele>
        <time>2016-06-30T13:46:18Z</time>
      </trkpt>
      <trkpt lat="42.45757" lon="2.21276">
        <ele>2018.43</ele>
        <time>2016-06-30T13:46:20Z</time>
      </trkpt>
      <trkpt lat="42.45761" lon="2.21279">
        <ele>2015.06</ele>
        <time>2016-06-30T13:46:24Z</time>
      </trkpt>
      <trkpt lat="42.45769" lon="2.21293">
        <ele>2013.14</ele>
        <time>2016-06-30T13:46:39Z</time>
      </trkpt>
      <trkpt lat="42.45771" lon="2.21296">
        <ele>2013.14</ele>
        <time>2016-06-30T13:46:43Z</time>
      </trkpt>
      <trkpt lat="42.45773" lon="2.21303">
        <ele>2011.7</ele>
        <time>2016-06-30T13:46:51Z</time>
      </trkpt>
      <trkpt lat="42.45772" lon="2.21309">
        <ele>2011.22</ele>
        <time>2016-06-30T13:46:57Z</time>
      </trkpt>
      <trkpt lat="42.45771" lon="2.21313">
        <ele>2009.77</ele>
        <time>2016-06-30T13:47:02Z</time>
      </trkpt>
      <trkpt lat="42.4577" lon="2.21317">
        <ele>2009.29</ele>
        <time>2016-06-30T13:47:06Z</time>
      </trkpt>
      <trkpt lat="42.45772" lon="2.21322">
        <ele>2008.33</ele>
        <time>2016-06-30T13:47:12Z</time>
      </trkpt>
      <trkpt lat="42.45773" lon="2.21325">
        <ele>2007.85</ele>
        <time>2016-06-30T13:47:15Z</time>
      </trkpt>
      <trkpt lat="42.45774" lon="2.2133">
        <ele>2005.45</ele>
        <time>2016-06-30T13:47:20Z</time>
      </trkpt>
      <trkpt lat="42.45776" lon="2.21338">
        <ele>2001.6</ele>
        <time>2016-06-30T13:47:27Z</time>
      </trkpt>
      <trkpt lat="42.45776" lon="2.2134">
        <ele>2001.6</ele>
        <time>2016-06-30T13:47:40Z</time>
      </trkpt>
      <trkpt lat="42.45777" lon="2.2134">
        <ele>2001.6</ele>
        <time>2016-06-30T13:48:03Z</time>
      </trkpt>
      <trkpt lat="42.45776" lon="2.2134">
        <ele>2002.56</ele>
        <time>2016-06-30T13:48:20Z</time>
      </trkpt>
      <trkpt lat="42.45777" lon="2.21343">
        <ele>2002.56</ele>
        <time>2016-06-30T13:48:42Z</time>
      </trkpt>
      <trkpt lat="42.45778" lon="2.21344">
        <ele>2002.56</ele>
        <time>2016-06-30T13:48:46Z</time>
      </trkpt>
      <trkpt lat="42.45785" lon="2.21354">
        <ele>2001.12</ele>
        <time>2016-06-30T13:48:58Z</time>
      </trkpt>
      <trkpt lat="42.4579" lon="2.21362">
        <ele>2000.16</ele>
        <time>2016-06-30T13:49:08Z</time>
      </trkpt>
      <trkpt lat="42.45792" lon="2.21363">
        <ele>1999.2</ele>
        <time>2016-06-30T13:49:13Z</time>
      </trkpt>
      <trkpt lat="42.45795" lon="2.21373">
        <ele>1996.8</ele>
        <time>2016-06-30T13:49:26Z</time>
      </trkpt>
      <trkpt lat="42.45795" lon="2.21377">
        <ele>1996.8</ele>
        <time>2016-06-30T13:49:29Z</time>
      </trkpt>
      <trkpt lat="42.45799" lon="2.21387">
        <ele>1995.35</ele>
        <time>2016-06-30T13:49:39Z</time>
      </trkpt>
      <trkpt lat="42.45804" lon="2.21397">
        <ele>1992.47</ele>
        <time>2016-06-30T13:49:52Z</time>
      </trkpt>
      <trkpt lat="42.45808" lon="2.21406">
        <ele>1990.07</ele>
        <time>2016-06-30T13:50:01Z</time>
      </trkpt>
      <trkpt lat="42.45811" lon="2.21415">
        <ele>1988.62</ele>
        <time>2016-06-30T13:50:10Z</time>
      </trkpt>
      <trkpt lat="42.45814" lon="2.21423">
        <ele>1986.7</ele>
        <time>2016-06-30T13:50:20Z</time>
      </trkpt>
      <trkpt lat="42.45816" lon="2.21432">
        <ele>1985.26</ele>
        <time>2016-06-30T13:50:30Z</time>
      </trkpt>
      <trkpt lat="42.45817" lon="2.21441">
        <ele>1982.86</ele>
        <time>2016-06-30T13:50:41Z</time>
      </trkpt>
      <trkpt lat="42.45821" lon="2.21447">
        <ele>1980.45</ele>
        <time>2016-06-30T13:50:53Z</time>
      </trkpt>
      <trkpt lat="42.45819" lon="2.21453">
        <ele>1978.53</ele>
        <time>2016-06-30T13:51:01Z</time>
      </trkpt>
      <trkpt lat="42.45817" lon="2.21461">
        <ele>1977.57</ele>
        <time>2016-06-30T13:51:07Z</time>
      </trkpt>
      <trkpt lat="42.4582" lon="2.21472">
        <ele>1975.17</ele>
        <time>2016-06-30T13:51:17Z</time>
      </trkpt>
      <trkpt lat="42.45819" lon="2.21473">
        <ele>1971.8</ele>
        <time>2016-06-30T13:51:24Z</time>
      </trkpt>
      <trkpt lat="42.45816" lon="2.21481">
        <ele>1971.32</ele>
        <time>2016-06-30T13:51:38Z</time>
      </trkpt>
      <trkpt lat="42.45817" lon="2.21484">
        <ele>1971.32</ele>
        <time>2016-06-30T13:51:40Z</time>
      </trkpt>
      <trkpt lat="42.45815" lon="2.21495">
        <ele>1969.4</ele>
        <time>2016-06-30T13:51:51Z</time>
      </trkpt>
      <trkpt lat="42.45816" lon="2.21505">
        <ele>1968.44</ele>
        <time>2016-06-30T13:52:00Z</time>
      </trkpt>
      <trkpt lat="42.45818" lon="2.21519">
        <ele>1966.03</ele>
        <time>2016-06-30T13:52:13Z</time>
      </trkpt>
      <trkpt lat="42.45821" lon="2.21527">
        <ele>1963.63</ele>
        <time>2016-06-30T13:52:24Z</time>
      </trkpt>
      <trkpt lat="42.45821" lon="2.21534">
        <ele>1962.19</ele>
        <time>2016-06-30T13:52:32Z</time>
      </trkpt>
      <trkpt lat="42.45825" lon="2.21547">
        <ele>1960.27</ele>
        <time>2016-06-30T13:52:42Z</time>
      </trkpt>
      <trkpt lat="42.45826" lon="2.2155">
        <ele>1959.78</ele>
        <time>2016-06-30T13:52:45Z</time>
      </trkpt>
      <trkpt lat="42.45829" lon="2.21558">
        <ele>1957.86</ele>
        <time>2016-06-30T13:52:55Z</time>
      </trkpt>
      <trkpt lat="42.4583" lon="2.21568">
        <ele>1954.98</ele>
        <time>2016-06-30T13:53:08Z</time>
      </trkpt>
      <trkpt lat="42.45831" lon="2.21572">
        <ele>1954.5</ele>
        <time>2016-06-30T13:53:13Z</time>
      </trkpt>
      <trkpt lat="42.45842" lon="2.21583">
        <ele>1952.09</ele>
        <time>2016-06-30T13:53:26Z</time>
      </trkpt>
      <trkpt lat="42.45846" lon="2.2159">
        <ele>1950.65</ele>
        <time>2016-06-30T13:53:37Z</time>
      </trkpt>
      <trkpt lat="42.45846" lon="2.21595">
        <ele>1950.65</ele>
        <time>2016-06-30T13:53:41Z</time>
      </trkpt>
      <trkpt lat="42.45847" lon="2.21599">
        <ele>1949.69</ele>
        <time>2016-06-30T13:53:44Z</time>
      </trkpt>
      <trkpt lat="42.45852" lon="2.21605">
        <ele>1948.25</ele>
        <time>2016-06-30T13:53:56Z</time>
      </trkpt>
      <trkpt lat="42.4585" lon="2.21617">
        <ele>1945.85</ele>
        <time>2016-06-30T13:54:07Z</time>
      </trkpt>
      <trkpt lat="42.45855" lon="2.2163">
        <ele>1943.92</ele>
        <time>2016-06-30T13:54:21Z</time>
      </trkpt>
      <trkpt lat="42.45857" lon="2.21631">
        <ele>1943.92</ele>
        <time>2016-06-30T13:54:23Z</time>
      </trkpt>
      <trkpt lat="42.45857" lon="2.21634">
        <ele>1943.92</ele>
        <time>2016-06-30T13:54:25Z</time>
      </trkpt>
      <trkpt lat="42.4586" lon="2.2164">
        <ele>1943.44</ele>
        <time>2016-06-30T13:54:29Z</time>
      </trkpt>
      <trkpt lat="42.45862" lon="2.21646">
        <ele>1943.44</ele>
        <time>2016-06-30T13:54:34Z</time>
      </trkpt>
      <trkpt lat="42.45863" lon="2.21647">
        <ele>1943.44</ele>
        <time>2016-06-30T13:54:36Z</time>
      </trkpt>
      <trkpt lat="42.45865" lon="2.21648">
        <ele>1942.96</ele>
        <time>2016-06-30T13:54:38Z</time>
      </trkpt>
      <trkpt lat="42.4587" lon="2.21656">
        <ele>1942.48</ele>
        <time>2016-06-30T13:54:49Z</time>
      </trkpt>
      <trkpt lat="42.45877" lon="2.21663">
        <ele>1940.56</ele>
        <time>2016-06-30T13:55:02Z</time>
      </trkpt>
      <trkpt lat="42.45883" lon="2.21674">
        <ele>1939.6</ele>
        <time>2016-06-30T13:55:13Z</time>
      </trkpt>
      <trkpt lat="42.45886" lon="2.21678">
        <ele>1938.16</ele>
        <time>2016-06-30T13:55:17Z</time>
      </trkpt>
      <trkpt lat="42.45896" lon="2.21685">
        <ele>1936.71</ele>
        <time>2016-06-30T13:55:28Z</time>
      </trkpt>
      <trkpt lat="42.45899" lon="2.2169">
        <ele>1936.23</ele>
        <time>2016-06-30T13:55:34Z</time>
      </trkpt>
      <trkpt lat="42.459" lon="2.21698">
        <ele>1934.31</ele>
        <time>2016-06-30T13:55:41Z</time>
      </trkpt>
      <trkpt lat="42.45903" lon="2.21697">
        <ele>1933.83</ele>
        <time>2016-06-30T13:55:44Z</time>
      </trkpt>
      <trkpt lat="42.4591" lon="2.21706">
        <ele>1932.39</ele>
        <time>2016-06-30T13:55:56Z</time>
      </trkpt>
      <trkpt lat="42.45919" lon="2.21711">
        <ele>1930.95</ele>
        <time>2016-06-30T13:56:08Z</time>
      </trkpt>
      <trkpt lat="42.45929" lon="2.21715">
        <ele>1929.98</ele>
        <time>2016-06-30T13:56:18Z</time>
      </trkpt>
      <trkpt lat="42.45932" lon="2.21718">
        <ele>1929.5</ele>
        <time>2016-06-30T13:56:25Z</time>
      </trkpt>
      <trkpt lat="42.45937" lon="2.21721">
        <ele>1927.58</ele>
        <time>2016-06-30T13:56:35Z</time>
      </trkpt>
      <trkpt lat="42.45939" lon="2.21721">
        <ele>1927.1</ele>
        <time>2016-06-30T13:56:41Z</time>
      </trkpt>
      <trkpt lat="42.45945" lon="2.21726">
        <ele>1926.14</ele>
        <time>2016-06-30T13:56:52Z</time>
      </trkpt>
      <trkpt lat="42.45951" lon="2.21723">
        <ele>1925.18</ele>
        <time>2016-06-30T13:57:02Z</time>
      </trkpt>
      <trkpt lat="42.45955" lon="2.21724">
        <ele>1925.18</ele>
        <time>2016-06-30T13:57:06Z</time>
      </trkpt>
      <trkpt lat="42.45968" lon="2.21729">
        <ele>1925.18</ele>
        <time>2016-06-30T13:57:19Z</time>
      </trkpt>
      <trkpt lat="42.45972" lon="2.21733">
        <ele>1924.22</ele>
        <time>2016-06-30T13:57:27Z</time>
      </trkpt>
      <trkpt lat="42.45973" lon="2.21735">
        <ele>1924.7</ele>
        <time>2016-06-30T13:57:29Z</time>
      </trkpt>
      <trkpt lat="42.45985" lon="2.21738">
        <ele>1922.77</ele>
        <time>2016-06-30T13:57:43Z</time>
      </trkpt>
      <trkpt lat="42.4599" lon="2.21736">
        <ele>1922.77</ele>
        <time>2016-06-30T13:57:48Z</time>
      </trkpt>
      <trkpt lat="42.45995" lon="2.21736">
        <ele>1922.77</ele>
        <time>2016-06-30T13:57:54Z</time>
      </trkpt>
      <trkpt lat="42.46" lon="2.21738">
        <ele>1922.77</ele>
        <time>2016-06-30T13:57:58Z</time>
      </trkpt>
      <trkpt lat="42.46012" lon="2.21744">
        <ele>1921.81</ele>
        <time>2016-06-30T13:58:10Z</time>
      </trkpt>
      <trkpt lat="42.46022" lon="2.21753">
        <ele>1920.37</ele>
        <time>2016-06-30T13:58:23Z</time>
      </trkpt>
      <trkpt lat="42.46024" lon="2.21755">
        <ele>1919.89</ele>
        <time>2016-06-30T13:58:26Z</time>
      </trkpt>
      <trkpt lat="42.46034" lon="2.21764">
        <ele>1918.45</ele>
        <time>2016-06-30T13:58:35Z</time>
      </trkpt>
      <trkpt lat="42.46038" lon="2.21766">
        <ele>1917.49</ele>
        <time>2016-06-30T13:58:39Z</time>
      </trkpt>
      <trkpt lat="42.46044" lon="2.21776">
        <ele>1915.08</ele>
        <time>2016-06-30T13:58:51Z</time>
      </trkpt>
      <trkpt lat="42.46048" lon="2.21779">
        <ele>1913.16</ele>
        <time>2016-06-30T13:59:01Z</time>
      </trkpt>
      <trkpt lat="42.46048" lon="2.21781">
        <ele>1912.68</ele>
        <time>2016-06-30T13:59:03Z</time>
      </trkpt>
      <trkpt lat="42.46051" lon="2.21785">
        <ele>1909.32</ele>
        <time>2016-06-30T13:59:08Z</time>
      </trkpt>
      <trkpt lat="42.46054" lon="2.21789">
        <ele>1906.43</ele>
        <time>2016-06-30T13:59:18Z</time>
      </trkpt>
      <trkpt lat="42.46054" lon="2.21795">
        <ele>1906.43</ele>
        <time>2016-06-30T13:59:24Z</time>
      </trkpt>
      <trkpt lat="42.46052" lon="2.21798">
        <ele>1905.47</ele>
        <time>2016-06-30T13:59:34Z</time>
      </trkpt>
      <trkpt lat="42.46052" lon="2.21799">
        <ele>1904.51</ele>
        <time>2016-06-30T13:59:48Z</time>
      </trkpt>
      <trkpt lat="42.46056" lon="2.2181">
        <ele>1903.55</ele>
        <time>2016-06-30T13:59:58Z</time>
      </trkpt>
      <trkpt lat="42.46059" lon="2.21816">
        <ele>1902.11</ele>
        <time>2016-06-30T14:00:04Z</time>
      </trkpt>
      <trkpt lat="42.46062" lon="2.21822">
        <ele>1902.11</ele>
        <time>2016-06-30T14:00:07Z</time>
      </trkpt>
      <trkpt lat="42.46063" lon="2.21831">
        <ele>1897.3</ele>
        <time>2016-06-30T14:00:12Z</time>
      </trkpt>
      <trkpt lat="42.46062" lon="2.21834">
        <ele>1896.34</ele>
        <time>2016-06-30T14:00:13Z</time>
      </trkpt>
      <trkpt lat="42.46059" lon="2.21842">
        <ele>1893.45</ele>
        <time>2016-06-30T14:00:18Z</time>
      </trkpt>
      <trkpt lat="42.46059" lon="2.21846">
        <ele>1893.45</ele>
        <time>2016-06-30T14:00:21Z</time>
      </trkpt>
      <trkpt lat="42.46061" lon="2.2186">
        <ele>1893.45</ele>
        <time>2016-06-30T14:00:33Z</time>
      </trkpt>
      <trkpt lat="42.46062" lon="2.21863">
        <ele>1893.45</ele>
        <time>2016-06-30T14:00:35Z</time>
      </trkpt>
      <trkpt lat="42.46069" lon="2.21872">
        <ele>1892.49</ele>
        <time>2016-06-30T14:00:43Z</time>
      </trkpt>
      <trkpt lat="42.46072" lon="2.21877">
        <ele>1892.01</ele>
        <time>2016-06-30T14:00:47Z</time>
      </trkpt>
      <trkpt lat="42.46079" lon="2.21885">
        <ele>1890.57</ele>
        <time>2016-06-30T14:00:56Z</time>
      </trkpt>
      <trkpt lat="42.46086" lon="2.21888">
        <ele>1890.09</ele>
        <time>2016-06-30T14:01:05Z</time>
      </trkpt>
      <trkpt lat="42.46089" lon="2.21888">
        <ele>1889.61</ele>
        <time>2016-06-30T14:01:08Z</time>
      </trkpt>
      <trkpt lat="42.46096" lon="2.21884">
        <ele>1889.13</ele>
        <time>2016-06-30T14:01:19Z</time>
      </trkpt>
      <trkpt lat="42.46107" lon="2.21883">
        <ele>1888.65</ele>
        <time>2016-06-30T14:01:31Z</time>
      </trkpt>
      <trkpt lat="42.4611" lon="2.21884">
        <ele>1888.65</ele>
        <time>2016-06-30T14:01:48Z</time>
      </trkpt>
      <trkpt lat="42.46113" lon="2.21888">
        <ele>1888.65</ele>
        <time>2016-06-30T14:01:53Z</time>
      </trkpt>
      <trkpt lat="42.46115" lon="2.21892">
        <ele>1888.65</ele>
        <time>2016-06-30T14:01:59Z</time>
      </trkpt>
      <trkpt lat="42.46123" lon="2.21894">
        <ele>1888.17</ele>
        <time>2016-06-30T14:02:11Z</time>
      </trkpt>
      <trkpt lat="42.46126" lon="2.21896">
        <ele>1888.17</ele>
        <time>2016-06-30T14:02:16Z</time>
      </trkpt>
      <trkpt lat="42.4613" lon="2.21909">
        <ele>1887.21</ele>
        <time>2016-06-30T14:02:27Z</time>
      </trkpt>
      <trkpt lat="42.46132" lon="2.21914">
        <ele>1886.72</ele>
        <time>2016-06-30T14:02:30Z</time>
      </trkpt>
      <trkpt lat="42.46134" lon="2.21929">
        <ele>1883.36</ele>
        <time>2016-06-30T14:02:38Z</time>
      </trkpt>
      <trkpt lat="42.46135" lon="2.2194">
        <ele>1880</ele>
        <time>2016-06-30T14:02:45Z</time>
      </trkpt>
      <trkpt lat="42.46135" lon="2.21948">
        <ele>1880.48</ele>
        <time>2016-06-30T14:02:49Z</time>
      </trkpt>
      <trkpt lat="42.46138" lon="2.2196">
        <ele>1880.48</ele>
        <time>2016-06-30T14:02:57Z</time>
      </trkpt>
      <trkpt lat="42.46138" lon="2.21974">
        <ele>1879.51</ele>
        <time>2016-06-30T14:03:07Z</time>
      </trkpt>
      <trkpt lat="42.46138" lon="2.21977">
        <ele>1879.51</ele>
        <time>2016-06-30T14:03:10Z</time>
      </trkpt>
      <trkpt lat="42.46139" lon="2.21986">
        <ele>1878.55</ele>
        <time>2016-06-30T14:03:17Z</time>
      </trkpt>
      <trkpt lat="42.46143" lon="2.21999">
        <ele>1877.11</ele>
        <time>2016-06-30T14:03:26Z</time>
      </trkpt>
      <trkpt lat="42.46146" lon="2.22003">
        <ele>1876.63</ele>
        <time>2016-06-30T14:03:30Z</time>
      </trkpt>
      <trkpt lat="42.46153" lon="2.22021">
        <ele>1875.67</ele>
        <time>2016-06-30T14:03:42Z</time>
      </trkpt>
      <trkpt lat="42.46157" lon="2.2203">
        <ele>1874.71</ele>
        <time>2016-06-30T14:03:48Z</time>
      </trkpt>
      <trkpt lat="42.46159" lon="2.22037">
        <ele>1874.71</ele>
        <time>2016-06-30T14:03:53Z</time>
      </trkpt>
      <trkpt lat="42.46164" lon="2.22043">
        <ele>1874.71</ele>
        <time>2016-06-30T14:03:58Z</time>
      </trkpt>
      <trkpt lat="42.4617" lon="2.22055">
        <ele>1874.23</ele>
        <time>2016-06-30T14:04:06Z</time>
      </trkpt>
      <trkpt lat="42.46175" lon="2.22064">
        <ele>1874.23</ele>
        <time>2016-06-30T14:04:13Z</time>
      </trkpt>
      <trkpt lat="42.46179" lon="2.2208">
        <ele>1872.79</ele>
        <time>2016-06-30T14:04:25Z</time>
      </trkpt>
      <trkpt lat="42.46181" lon="2.22086">
        <ele>1871.82</ele>
        <time>2016-06-30T14:04:32Z</time>
      </trkpt>
      <trkpt lat="42.46191" lon="2.22103">
        <ele>1869.9</ele>
        <time>2016-06-30T14:04:46Z</time>
      </trkpt>
      <trkpt lat="42.46195" lon="2.22108">
        <ele>1869.9</ele>
        <time>2016-06-30T14:04:52Z</time>
      </trkpt>
      <trkpt lat="42.46201" lon="2.22111">
        <ele>1868.46</ele>
        <time>2016-06-30T14:04:59Z</time>
      </trkpt>
      <trkpt lat="42.46214" lon="2.22118">
        <ele>1867.5</ele>
        <time>2016-06-30T14:05:13Z</time>
      </trkpt>
      <trkpt lat="42.46224" lon="2.22126">
        <ele>1866.54</ele>
        <time>2016-06-30T14:05:22Z</time>
      </trkpt>
      <trkpt lat="42.46228" lon="2.22127">
        <ele>1866.06</ele>
        <time>2016-06-30T14:05:26Z</time>
      </trkpt>
      <trkpt lat="42.46245" lon="2.22132">
        <ele>1864.13</ele>
        <time>2016-06-30T14:05:40Z</time>
      </trkpt>
      <trkpt lat="42.46249" lon="2.22133">
        <ele>1863.65</ele>
        <time>2016-06-30T14:05:43Z</time>
      </trkpt>
      <trkpt lat="42.46251" lon="2.22136">
        <ele>1863.17</ele>
        <time>2016-06-30T14:05:46Z</time>
      </trkpt>
      <trkpt lat="42.46262" lon="2.22143">
        <ele>1862.69</ele>
        <time>2016-06-30T14:05:56Z</time>
      </trkpt>
      <trkpt lat="42.46265" lon="2.22144">
        <ele>1862.69</ele>
        <time>2016-06-30T14:05:59Z</time>
      </trkpt>
      <trkpt lat="42.46269" lon="2.22147">
        <ele>1862.21</ele>
        <time>2016-06-30T14:06:03Z</time>
      </trkpt>
      <trkpt lat="42.4629" lon="2.22152">
        <ele>1860.77</ele>
        <time>2016-06-30T14:06:19Z</time>
      </trkpt>
      <trkpt lat="42.46295" lon="2.22156">
        <ele>1860.77</ele>
        <time>2016-06-30T14:06:23Z</time>
      </trkpt>
      <trkpt lat="42.463" lon="2.22155">
        <ele>1860.29</ele>
        <time>2016-06-30T14:06:29Z</time>
      </trkpt>
      <trkpt lat="42.46308" lon="2.22156">
        <ele>1860.29</ele>
        <time>2016-06-30T14:06:36Z</time>
      </trkpt>
      <trkpt lat="42.46323" lon="2.22163">
        <ele>1859.33</ele>
        <time>2016-06-30T14:06:49Z</time>
      </trkpt>
      <trkpt lat="42.46328" lon="2.22174">
        <ele>1857.89</ele>
        <time>2016-06-30T14:06:58Z</time>
      </trkpt>
      <trkpt lat="42.46336" lon="2.22181">
        <ele>1856.92</ele>
        <time>2016-06-30T14:07:06Z</time>
      </trkpt>
      <trkpt lat="42.46349" lon="2.22193">
        <ele>1854.52</ele>
        <time>2016-06-30T14:07:18Z</time>
      </trkpt>
      <trkpt lat="42.46358" lon="2.22207">
        <ele>1852.12</ele>
        <time>2016-06-30T14:07:29Z</time>
      </trkpt>
      <trkpt lat="42.46363" lon="2.22208">
        <ele>1851.64</ele>
        <time>2016-06-30T14:07:33Z</time>
      </trkpt>
      <trkpt lat="42.46375" lon="2.22221">
        <ele>1850.68</ele>
        <time>2016-06-30T14:07:45Z</time>
      </trkpt>
      <trkpt lat="42.46377" lon="2.22225">
        <ele>1850.19</ele>
        <time>2016-06-30T14:07:47Z</time>
      </trkpt>
      <trkpt lat="42.46382" lon="2.22233">
        <ele>1849.23</ele>
        <time>2016-06-30T14:07:52Z</time>
      </trkpt>
      <trkpt lat="42.46388" lon="2.22246">
        <ele>1848.27</ele>
        <time>2016-06-30T14:08:00Z</time>
      </trkpt>
      <trkpt lat="42.4639" lon="2.22253">
        <ele>1847.79</ele>
        <time>2016-06-30T14:08:04Z</time>
      </trkpt>
      <trkpt lat="42.46393" lon="2.22276">
        <ele>1845.87</ele>
        <time>2016-06-30T14:08:15Z</time>
      </trkpt>
      <trkpt lat="42.46398" lon="2.223">
        <ele>1844.43</ele>
        <time>2016-06-30T14:08:28Z</time>
      </trkpt>
      <trkpt lat="42.46401" lon="2.22307">
        <ele>1843.95</ele>
        <time>2016-06-30T14:08:33Z</time>
      </trkpt>
      <trkpt lat="42.46405" lon="2.22316">
        <ele>1842.98</ele>
        <time>2016-06-30T14:08:39Z</time>
      </trkpt>
      <trkpt lat="42.46409" lon="2.22321">
        <ele>1842.02</ele>
        <time>2016-06-30T14:08:43Z</time>
      </trkpt>
      <trkpt lat="42.46417" lon="2.22334">
        <ele>1841.06</ele>
        <time>2016-06-30T14:08:52Z</time>
      </trkpt>
      <trkpt lat="42.46419" lon="2.22336">
        <ele>1841.06</ele>
        <time>2016-06-30T14:08:53Z</time>
      </trkpt>
      <trkpt lat="42.46424" lon="2.22345">
        <ele>1840.58</ele>
        <time>2016-06-30T14:08:58Z</time>
      </trkpt>
      <trkpt lat="42.46425" lon="2.22346">
        <ele>1839.62</ele>
        <time>2016-06-30T14:08:59Z</time>
      </trkpt>
      <trkpt lat="42.46425" lon="2.22348">
        <ele>1839.62</ele>
        <time>2016-06-30T14:09:00Z</time>
      </trkpt>
      <trkpt lat="42.46425" lon="2.22349">
        <ele>1839.62</ele>
        <time>2016-06-30T14:09:01Z</time>
      </trkpt>
      <trkpt lat="42.46426" lon="2.22351">
        <ele>1839.62</ele>
        <time>2016-06-30T14:09:02Z</time>
      </trkpt>
      <trkpt lat="42.46426" lon="2.22352">
        <ele>1839.14</ele>
        <time>2016-06-30T14:09:03Z</time>
      </trkpt>
      <trkpt lat="42.46428" lon="2.22354">
        <ele>1839.14</ele>
        <time>2016-06-30T14:09:04Z</time>
      </trkpt>
      <trkpt lat="42.46429" lon="2.22356">
        <ele>1839.14</ele>
        <time>2016-06-30T14:09:05Z</time>
      </trkpt>
      <trkpt lat="42.4643" lon="2.22358">
        <ele>1839.14</ele>
        <time>2016-06-30T14:09:06Z</time>
      </trkpt>
      <trkpt lat="42.46431" lon="2.2236">
        <ele>1839.14</ele>
        <time>2016-06-30T14:09:07Z</time>
      </trkpt>
      <trkpt lat="42.46432" lon="2.22362">
        <ele>1839.14</ele>
        <time>2016-06-30T14:09:08Z</time>
      </trkpt>
      <trkpt lat="42.46433" lon="2.22364">
        <ele>1838.66</ele>
        <time>2016-06-30T14:09:09Z</time>
      </trkpt>
      <trkpt lat="42.46433" lon="2.22366">
        <ele>1838.66</ele>
        <time>2016-06-30T14:09:10Z</time>
      </trkpt>
      <trkpt lat="42.46434" lon="2.22367">
        <ele>1838.66</ele>
        <time>2016-06-30T14:09:11Z</time>
      </trkpt>
      <trkpt lat="42.46435" lon="2.22374">
        <ele>1838.66</ele>
        <time>2016-06-30T14:09:15Z</time>
      </trkpt>
      <trkpt lat="42.46435" lon="2.22376">
        <ele>1838.66</ele>
        <time>2016-06-30T14:09:16Z</time>
      </trkpt>
      <trkpt lat="42.46436" lon="2.2238">
        <ele>1838.18</ele>
        <time>2016-06-30T14:09:18Z</time>
      </trkpt>
      <trkpt lat="42.46435" lon="2.22381">
        <ele>1838.18</ele>
        <time>2016-06-30T14:09:19Z</time>
      </trkpt>
      <trkpt lat="42.46434" lon="2.22384">
        <ele>1838.18</ele>
        <time>2016-06-30T14:09:21Z</time>
      </trkpt>
      <trkpt lat="42.46435" lon="2.22384">
        <ele>1838.18</ele>
        <time>2016-06-30T14:09:22Z</time>
      </trkpt>
      <trkpt lat="42.46436" lon="2.22384">
        <ele>1837.7</ele>
        <time>2016-06-30T14:09:36Z</time>
      </trkpt>
      <trkpt lat="42.46436" lon="2.22383">
        <ele>1837.7</ele>
        <time>2016-06-30T14:09:51Z</time>
      </trkpt>
      <trkpt lat="42.46436" lon="2.22383">
        <ele>1837.22</ele>
        <time>2016-06-30T14:10:12Z</time>
      </trkpt>
      <trkpt lat="42.46436" lon="2.22382">
        <ele>1836.74</ele>
        <time>2016-06-30T14:10:34Z</time>
      </trkpt>
      <trkpt lat="42.46436" lon="2.22381">
        <ele>1836.26</ele>
        <time>2016-06-30T14:10:52Z</time>
      </trkpt>
      <trkpt lat="42.46436" lon="2.22382">
        <ele>1836.26</ele>
        <time>2016-06-30T14:11:17Z</time>
      </trkpt>
      <trkpt lat="42.46437" lon="2.2238">
        <ele>1835.29</ele>
        <time>2016-06-30T14:11:42Z</time>
      </trkpt>
      <trkpt lat="42.46439" lon="2.2238">
        <ele>1835.29</ele>
        <time>2016-06-30T14:11:58Z</time>
      </trkpt>
      <trkpt lat="42.46438" lon="2.2238">
        <ele>1835.29</ele>
        <time>2016-06-30T14:12:20Z</time>
      </trkpt>
      <trkpt lat="42.4644" lon="2.22379">
        <ele>1835.29</ele>
        <time>2016-06-30T14:12:39Z</time>
      </trkpt>
    </trkseg>
  </trk>
  <trk>
    <name><![CDATA[Tracé actuel: 01 JUIL 2016 06:49]]></name>
    <trkseg>
      <trkpt lat="42.46407" lon="2.22408">
        <ele>1809.82</ele>
        <time>2016-07-01T04:49:56Z</time>
      </trkpt>
      <trkpt lat="42.46407" lon="2.22407">
        <ele>1809.82</ele>
        <time>2016-07-01T04:49:57Z</time>
      </trkpt>
      <trkpt lat="42.46417" lon="2.22415">
        <ele>1809.82</ele>
        <time>2016-07-01T04:50:07Z</time>
      </trkpt>
      <trkpt lat="42.46422" lon="2.22421">
        <ele>1809.82</ele>
        <time>2016-07-01T04:50:26Z</time>
      </trkpt>
      <trkpt lat="42.46429" lon="2.22405">
        <ele>1812.7</ele>
        <time>2016-07-01T04:50:49Z</time>
      </trkpt>
      <trkpt lat="42.46428" lon="2.22405">
        <ele>1813.66</ele>
        <time>2016-07-01T04:50:51Z</time>
      </trkpt>
      <trkpt lat="42.46427" lon="2.22402">
        <ele>1816.55</ele>
        <time>2016-07-01T04:50:58Z</time>
      </trkpt>
      <trkpt lat="42.46428" lon="2.22403">
        <ele>1817.99</ele>
        <time>2016-07-01T04:51:01Z</time>
      </trkpt>
      <trkpt lat="42.46441" lon="2.224">
        <ele>1821.84</ele>
        <time>2016-07-01T04:51:08Z</time>
      </trkpt>
      <trkpt lat="42.46443" lon="2.2241">
        <ele>1824.72</ele>
        <time>2016-07-01T04:51:16Z</time>
      </trkpt>
      <trkpt lat="42.46444" lon="2.22411">
        <ele>1825.2</ele>
        <time>2016-07-01T04:51:18Z</time>
      </trkpt>
      <trkpt lat="42.46448" lon="2.22411">
        <ele>1825.68</ele>
        <time>2016-07-01T04:51:24Z</time>
      </trkpt>
      <trkpt lat="42.46453" lon="2.22414">
        <ele>1827.12</ele>
        <time>2016-07-01T04:51:30Z</time>
      </trkpt>
      <trkpt lat="42.46455" lon="2.22412">
        <ele>1827.6</ele>
        <time>2016-07-01T04:51:32Z</time>
      </trkpt>
      <trkpt lat="42.4647" lon="2.22413">
        <ele>1829.05</ele>
        <time>2016-07-01T04:51:45Z</time>
      </trkpt>
      <trkpt lat="42.46473" lon="2.22413">
        <ele>1829.05</ele>
        <time>2016-07-01T04:51:47Z</time>
      </trkpt>
      <trkpt lat="42.46483" lon="2.22413">
        <ele>1829.05</ele>
        <time>2016-07-01T04:51:55Z</time>
      </trkpt>
      <trkpt lat="42.46485" lon="2.22413">
        <ele>1829.05</ele>
        <time>2016-07-01T04:51:56Z</time>
      </trkpt>
      <trkpt lat="42.46489" lon="2.22413">
        <ele>1827.6</ele>
        <time>2016-07-01T04:52:00Z</time>
      </trkpt>
      <trkpt lat="42.46493" lon="2.22416">
        <ele>1827.6</ele>
        <time>2016-07-01T04:52:05Z</time>
      </trkpt>
      <trkpt lat="42.46493" lon="2.22418">
        <ele>1827.6</ele>
        <time>2016-07-01T04:52:06Z</time>
      </trkpt>
      <trkpt lat="42.46494" lon="2.22421">
        <ele>1827.6</ele>
        <time>2016-07-01T04:52:08Z</time>
      </trkpt>
      <trkpt lat="42.46495" lon="2.22422">
        <ele>1827.6</ele>
        <time>2016-07-01T04:52:09Z</time>
      </trkpt>
      <trkpt lat="42.46496" lon="2.22424">
        <ele>1827.6</ele>
        <time>2016-07-01T04:52:10Z</time>
      </trkpt>
      <trkpt lat="42.46496" lon="2.22425">
        <ele>1827.6</ele>
        <time>2016-07-01T04:52:11Z</time>
      </trkpt>
      <trkpt lat="42.46497" lon="2.22427">
        <ele>1827.6</ele>
        <time>2016-07-01T04:52:12Z</time>
      </trkpt>
      <trkpt lat="42.46497" lon="2.22428">
        <ele>1827.6</ele>
        <time>2016-07-01T04:52:13Z</time>
      </trkpt>
      <trkpt lat="42.46497" lon="2.2243">
        <ele>1827.6</ele>
        <time>2016-07-01T04:52:14Z</time>
      </trkpt>
      <trkpt lat="42.46497" lon="2.22432">
        <ele>1827.6</ele>
        <time>2016-07-01T04:52:15Z</time>
      </trkpt>
      <trkpt lat="42.46498" lon="2.22433">
        <ele>1827.6</ele>
        <time>2016-07-01T04:52:16Z</time>
      </trkpt>
      <trkpt lat="42.46498" lon="2.22434">
        <ele>1827.6</ele>
        <time>2016-07-01T04:52:17Z</time>
      </trkpt>
      <trkpt lat="42.46499" lon="2.22436">
        <ele>1827.6</ele>
        <time>2016-07-01T04:52:18Z</time>
      </trkpt>
      <trkpt lat="42.465" lon="2.22436">
        <ele>1827.6</ele>
        <time>2016-07-01T04:52:20Z</time>
      </trkpt>
      <trkpt lat="42.46501" lon="2.22436">
        <ele>1827.6</ele>
        <time>2016-07-01T04:52:21Z</time>
      </trkpt>
      <trkpt lat="42.46502" lon="2.22438">
        <ele>1827.6</ele>
        <time>2016-07-01T04:52:22Z</time>
      </trkpt>
      <trkpt lat="42.46505" lon="2.2244">
        <ele>1827.6</ele>
        <time>2016-07-01T04:52:25Z</time>
      </trkpt>
      <trkpt lat="42.4651" lon="2.22444">
        <ele>1827.6</ele>
        <time>2016-07-01T04:52:31Z</time>
      </trkpt>
      <trkpt lat="42.46516" lon="2.22451">
        <ele>1828.56</ele>
        <time>2016-07-01T04:52:38Z</time>
      </trkpt>
      <trkpt lat="42.46523" lon="2.22456">
        <ele>1829.05</ele>
        <time>2016-07-01T04:52:44Z</time>
      </trkpt>
      <trkpt lat="42.46527" lon="2.22456">
        <ele>1829.05</ele>
        <time>2016-07-01T04:52:49Z</time>
      </trkpt>
      <trkpt lat="42.4653" lon="2.22457">
        <ele>1829.53</ele>
        <time>2016-07-01T04:52:52Z</time>
      </trkpt>
      <trkpt lat="42.46532" lon="2.22457">
        <ele>1830.01</ele>
        <time>2016-07-01T04:52:54Z</time>
      </trkpt>
      <trkpt lat="42.46533" lon="2.22458">
        <ele>1830.01</ele>
        <time>2016-07-01T04:52:55Z</time>
      </trkpt>
      <trkpt lat="42.46534" lon="2.22458">
        <ele>1830.01</ele>
        <time>2016-07-01T04:52:56Z</time>
      </trkpt>
      <trkpt lat="42.46536" lon="2.22459">
        <ele>1830.01</ele>
        <time>2016-07-01T04:52:57Z</time>
      </trkpt>
      <trkpt lat="42.46537" lon="2.22459">
        <ele>1830.01</ele>
        <time>2016-07-01T04:52:58Z</time>
      </trkpt>
      <trkpt lat="42.46538" lon="2.22459">
        <ele>1830.49</ele>
        <time>2016-07-01T04:52:59Z</time>
      </trkpt>
      <trkpt lat="42.4655" lon="2.22461">
        <ele>1831.45</ele>
        <time>2016-07-01T04:53:12Z</time>
      </trkpt>
      <trkpt lat="42.46552" lon="2.22461">
        <ele>1831.93</ele>
        <time>2016-07-01T04:53:14Z</time>
      </trkpt>
      <trkpt lat="42.46561" lon="2.22472">
        <ele>1833.37</ele>
        <time>2016-07-01T04:53:25Z</time>
      </trkpt>
      <trkpt lat="42.46567" lon="2.22476">
        <ele>1834.33</ele>
        <time>2016-07-01T04:53:32Z</time>
      </trkpt>
      <trkpt lat="42.46571" lon="2.22478">
        <ele>1834.81</ele>
        <time>2016-07-01T04:53:36Z</time>
      </trkpt>
      <trkpt lat="42.46574" lon="2.22483">
        <ele>1834.81</ele>
        <time>2016-07-01T04:53:40Z</time>
      </trkpt>
      <trkpt lat="42.46578" lon="2.22484">
        <ele>1835.77</ele>
        <time>2016-07-01T04:53:48Z</time>
      </trkpt>
      <trkpt lat="42.46579" lon="2.22478">
        <ele>1836.74</ele>
        <time>2016-07-01T04:53:53Z</time>
      </trkpt>
      <trkpt lat="42.46582" lon="2.22473">
        <ele>1837.22</ele>
        <time>2016-07-01T04:53:58Z</time>
      </trkpt>
      <trkpt lat="42.46591" lon="2.22474">
        <ele>1838.18</ele>
        <time>2016-07-01T04:54:07Z</time>
      </trkpt>
      <trkpt lat="42.46604" lon="2.22487">
        <ele>1840.1</ele>
        <time>2016-07-01T04:54:20Z</time>
      </trkpt>
      <trkpt lat="42.46613" lon="2.22491">
        <ele>1842.5</ele>
        <time>2016-07-01T04:54:30Z</time>
      </trkpt>
      <trkpt lat="42.46619" lon="2.22493">
        <ele>1845.39</ele>
        <time>2016-07-01T04:54:36Z</time>
      </trkpt>
      <trkpt lat="42.4662" lon="2.22495">
        <ele>1845.87</ele>
        <time>2016-07-01T04:54:38Z</time>
      </trkpt>
      <trkpt lat="42.46631" lon="2.22503">
        <ele>1846.83</ele>
        <time>2016-07-01T04:54:49Z</time>
      </trkpt>
      <trkpt lat="42.46634" lon="2.22505">
        <ele>1846.83</ele>
        <time>2016-07-01T04:54:52Z</time>
      </trkpt>
      <trkpt lat="42.46635" lon="2.22507">
        <ele>1846.83</ele>
        <time>2016-07-01T04:54:54Z</time>
      </trkpt>
      <trkpt lat="42.46639" lon="2.22508">
        <ele>1847.31</ele>
        <time>2016-07-01T04:54:58Z</time>
      </trkpt>
      <trkpt lat="42.46642" lon="2.22509">
        <ele>1847.31</ele>
        <time>2016-07-01T04:55:01Z</time>
      </trkpt>
      <trkpt lat="42.46646" lon="2.22514">
        <ele>1848.27</ele>
        <time>2016-07-01T04:55:07Z</time>
      </trkpt>
      <trkpt lat="42.46651" lon="2.22518">
        <ele>1848.75</ele>
        <time>2016-07-01T04:55:13Z</time>
      </trkpt>
      <trkpt lat="42.46654" lon="2.22523">
        <ele>1849.71</ele>
        <time>2016-07-01T04:55:18Z</time>
      </trkpt>
      <trkpt lat="42.46658" lon="2.22532">
        <ele>1850.19</ele>
        <time>2016-07-01T04:55:25Z</time>
      </trkpt>
      <trkpt lat="42.46667" lon="2.22541">
        <ele>1852.12</ele>
        <time>2016-07-01T04:55:36Z</time>
      </trkpt>
      <trkpt lat="42.46674" lon="2.22545">
        <ele>1854.04</ele>
        <time>2016-07-01T04:55:46Z</time>
      </trkpt>
      <trkpt lat="42.46677" lon="2.22545">
        <ele>1854.04</ele>
        <time>2016-07-01T04:55:48Z</time>
      </trkpt>
      <trkpt lat="42.46679" lon="2.22547">
        <ele>1854.52</ele>
        <time>2016-07-01T04:55:50Z</time>
      </trkpt>
      <trkpt lat="42.46681" lon="2.22548">
        <ele>1855</ele>
        <time>2016-07-01T04:55:53Z</time>
      </trkpt>
      <trkpt lat="42.46683" lon="2.22549">
        <ele>1855.48</ele>
        <time>2016-07-01T04:55:55Z</time>
      </trkpt>
      <trkpt lat="42.46686" lon="2.22549">
        <ele>1855.96</ele>
        <time>2016-07-01T04:55:58Z</time>
      </trkpt>
      <trkpt lat="42.46694" lon="2.22559">
        <ele>1857.4</ele>
        <time>2016-07-01T04:56:10Z</time>
      </trkpt>
      <trkpt lat="42.46695" lon="2.2256">
        <ele>1857.4</ele>
        <time>2016-07-01T04:56:12Z</time>
      </trkpt>
      <trkpt lat="42.46696" lon="2.22563">
        <ele>1858.37</ele>
        <time>2016-07-01T04:56:14Z</time>
      </trkpt>
      <trkpt lat="42.46698" lon="2.22564">
        <ele>1858.85</ele>
        <time>2016-07-01T04:56:16Z</time>
      </trkpt>
      <trkpt lat="42.46702" lon="2.22569">
        <ele>1859.33</ele>
        <time>2016-07-01T04:56:21Z</time>
      </trkpt>
      <trkpt lat="42.46705" lon="2.22573">
        <ele>1859.81</ele>
        <time>2016-07-01T04:56:26Z</time>
      </trkpt>
      <trkpt lat="42.46707" lon="2.22576">
        <ele>1860.29</ele>
        <time>2016-07-01T04:56:28Z</time>
      </trkpt>
      <trkpt lat="42.46709" lon="2.22581">
        <ele>1860.77</ele>
        <time>2016-07-01T04:56:33Z</time>
      </trkpt>
      <trkpt lat="42.46711" lon="2.22583">
        <ele>1861.25</ele>
        <time>2016-07-01T04:56:35Z</time>
      </trkpt>
      <trkpt lat="42.46715" lon="2.22588">
        <ele>1861.73</ele>
        <time>2016-07-01T04:56:40Z</time>
      </trkpt>
      <trkpt lat="42.46716" lon="2.22591">
        <ele>1861.73</ele>
        <time>2016-07-01T04:56:42Z</time>
      </trkpt>
      <trkpt lat="42.46718" lon="2.22592">
        <ele>1862.21</ele>
        <time>2016-07-01T04:56:44Z</time>
      </trkpt>
      <trkpt lat="42.46719" lon="2.22594">
        <ele>1862.21</ele>
        <time>2016-07-01T04:56:46Z</time>
      </trkpt>
      <trkpt lat="42.46725" lon="2.22601">
        <ele>1863.65</ele>
        <time>2016-07-01T04:56:54Z</time>
      </trkpt>
      <trkpt lat="42.46728" lon="2.22606">
        <ele>1864.61</ele>
        <time>2016-07-01T04:57:00Z</time>
      </trkpt>
      <trkpt lat="42.46734" lon="2.22615">
        <ele>1865.58</ele>
        <time>2016-07-01T04:57:13Z</time>
      </trkpt>
      <trkpt lat="42.46734" lon="2.22615">
        <ele>1866.54</ele>
        <time>2016-07-01T04:57:25Z</time>
      </trkpt>
      <trkpt lat="42.46735" lon="2.22615">
        <ele>1867.02</ele>
        <time>2016-07-01T04:57:52Z</time>
      </trkpt>
      <trkpt lat="42.46735" lon="2.22615">
        <ele>1867.02</ele>
        <time>2016-07-01T04:58:12Z</time>
      </trkpt>
      <trkpt lat="42.46735" lon="2.22615">
        <ele>1867.02</ele>
        <time>2016-07-01T04:58:32Z</time>
      </trkpt>
      <trkpt lat="42.46735" lon="2.22615">
        <ele>1867.02</ele>
        <time>2016-07-01T04:58:35Z</time>
      </trkpt>
      <trkpt lat="42.46738" lon="2.22615">
        <ele>1867.02</ele>
        <time>2016-07-01T04:58:38Z</time>
      </trkpt>
      <trkpt lat="42.46746" lon="2.22616">
        <ele>1867.02</ele>
        <time>2016-07-01T04:58:46Z</time>
      </trkpt>
      <trkpt lat="42.46751" lon="2.22618">
        <ele>1867.5</ele>
        <time>2016-07-01T04:58:50Z</time>
      </trkpt>
      <trkpt lat="42.46758" lon="2.22624">
        <ele>1868.46</ele>
        <time>2016-07-01T04:58:59Z</time>
      </trkpt>
      <trkpt lat="42.46766" lon="2.22631">
        <ele>1869.9</ele>
        <time>2016-07-01T04:59:07Z</time>
      </trkpt>
      <trkpt lat="42.46768" lon="2.22633">
        <ele>1870.38</ele>
        <time>2016-07-01T04:59:09Z</time>
      </trkpt>
      <trkpt lat="42.46769" lon="2.22635">
        <ele>1870.86</ele>
        <time>2016-07-01T04:59:11Z</time>
      </trkpt>
      <trkpt lat="42.46771" lon="2.22642">
        <ele>1871.34</ele>
        <time>2016-07-01T04:59:16Z</time>
      </trkpt>
      <trkpt lat="42.46775" lon="2.22657">
        <ele>1872.79</ele>
        <time>2016-07-01T04:59:26Z</time>
      </trkpt>
      <trkpt lat="42.46775" lon="2.22658">
        <ele>1873.75</ele>
        <time>2016-07-01T04:59:27Z</time>
      </trkpt>
      <trkpt lat="42.46776" lon="2.22661">
        <ele>1874.23</ele>
        <time>2016-07-01T04:59:30Z</time>
      </trkpt>
      <trkpt lat="42.46778" lon="2.2267">
        <ele>1874.71</ele>
        <time>2016-07-01T04:59:37Z</time>
      </trkpt>
      <trkpt lat="42.4678" lon="2.2268">
        <ele>1876.15</ele>
        <time>2016-07-01T04:59:46Z</time>
      </trkpt>
      <trkpt lat="42.46782" lon="2.22686">
        <ele>1876.63</ele>
        <time>2016-07-01T04:59:51Z</time>
      </trkpt>
      <trkpt lat="42.46786" lon="2.22688">
        <ele>1877.59</ele>
        <time>2016-07-01T04:59:55Z</time>
      </trkpt>
      <trkpt lat="42.46788" lon="2.22693">
        <ele>1878.07</ele>
        <time>2016-07-01T04:59:59Z</time>
      </trkpt>
      <trkpt lat="42.4679" lon="2.22693">
        <ele>1878.55</ele>
        <time>2016-07-01T05:00:01Z</time>
      </trkpt>
      <trkpt lat="42.46793" lon="2.22698">
        <ele>1879.03</ele>
        <time>2016-07-01T05:00:05Z</time>
      </trkpt>
      <trkpt lat="42.468" lon="2.22706">
        <ele>1880.48</ele>
        <time>2016-07-01T05:00:16Z</time>
      </trkpt>
      <trkpt lat="42.46801" lon="2.22707">
        <ele>1880.48</ele>
        <time>2016-07-01T05:00:18Z</time>
      </trkpt>
      <trkpt lat="42.46802" lon="2.22701">
        <ele>1881.44</ele>
        <time>2016-07-01T05:00:25Z</time>
      </trkpt>
      <trkpt lat="42.46801" lon="2.227">
        <ele>1881.92</ele>
        <time>2016-07-01T05:00:27Z</time>
      </trkpt>
      <trkpt lat="42.46795" lon="2.2269">
        <ele>1883.36</ele>
        <time>2016-07-01T05:00:37Z</time>
      </trkpt>
      <trkpt lat="42.46793" lon="2.22675">
        <ele>1884.8</ele>
        <time>2016-07-01T05:00:49Z</time>
      </trkpt>
      <trkpt lat="42.46793" lon="2.22661">
        <ele>1885.76</ele>
        <time>2016-07-01T05:01:01Z</time>
      </trkpt>
      <trkpt lat="42.46793" lon="2.2266">
        <ele>1886.24</ele>
        <time>2016-07-01T05:01:03Z</time>
      </trkpt>
      <trkpt lat="42.46793" lon="2.22659">
        <ele>1886.24</ele>
        <time>2016-07-01T05:01:11Z</time>
      </trkpt>
      <trkpt lat="42.46795" lon="2.22647">
        <ele>1886.72</ele>
        <time>2016-07-01T05:01:19Z</time>
      </trkpt>
      <trkpt lat="42.468" lon="2.22633">
        <ele>1888.17</ele>
        <time>2016-07-01T05:01:31Z</time>
      </trkpt>
      <trkpt lat="42.468" lon="2.22631">
        <ele>1888.65</ele>
        <time>2016-07-01T05:01:32Z</time>
      </trkpt>
      <trkpt lat="42.46803" lon="2.22622">
        <ele>1889.61</ele>
        <time>2016-07-01T05:01:40Z</time>
      </trkpt>
      <trkpt lat="42.46804" lon="2.22619">
        <ele>1890.09</ele>
        <time>2016-07-01T05:01:43Z</time>
      </trkpt>
      <trkpt lat="42.46805" lon="2.22615">
        <ele>1891.05</ele>
        <time>2016-07-01T05:01:46Z</time>
      </trkpt>
      <trkpt lat="42.46806" lon="2.22613">
        <ele>1890.57</ele>
        <time>2016-07-01T05:01:48Z</time>
      </trkpt>
      <trkpt lat="42.46809" lon="2.22601">
        <ele>1892.49</ele>
        <time>2016-07-01T05:01:57Z</time>
      </trkpt>
      <trkpt lat="42.46809" lon="2.22595">
        <ele>1892.97</ele>
        <time>2016-07-01T05:02:01Z</time>
      </trkpt>
      <trkpt lat="42.46811" lon="2.22592">
        <ele>1893.45</ele>
        <time>2016-07-01T05:02:05Z</time>
      </trkpt>
      <trkpt lat="42.46812" lon="2.22574">
        <ele>1895.86</ele>
        <time>2016-07-01T05:02:18Z</time>
      </trkpt>
      <trkpt lat="42.46813" lon="2.2257">
        <ele>1896.34</ele>
        <time>2016-07-01T05:02:21Z</time>
      </trkpt>
      <trkpt lat="42.46815" lon="2.22555">
        <ele>1898.26</ele>
        <time>2016-07-01T05:02:33Z</time>
      </trkpt>
      <trkpt lat="42.46814" lon="2.2255">
        <ele>1899.22</ele>
        <time>2016-07-01T05:02:38Z</time>
      </trkpt>
      <trkpt lat="42.46809" lon="2.22545">
        <ele>1899.7</ele>
        <time>2016-07-01T05:02:45Z</time>
      </trkpt>
      <trkpt lat="42.46805" lon="2.22544">
        <ele>1900.66</ele>
        <time>2016-07-01T05:02:49Z</time>
      </trkpt>
      <trkpt lat="42.46803" lon="2.22542">
        <ele>1901.14</ele>
        <time>2016-07-01T05:02:51Z</time>
      </trkpt>
      <trkpt lat="42.46796" lon="2.22539">
        <ele>1901.63</ele>
        <time>2016-07-01T05:02:59Z</time>
      </trkpt>
      <trkpt lat="42.46794" lon="2.22536">
        <ele>1902.11</ele>
        <time>2016-07-01T05:03:02Z</time>
      </trkpt>
      <trkpt lat="42.46789" lon="2.22536">
        <ele>1902.59</ele>
        <time>2016-07-01T05:03:07Z</time>
      </trkpt>
      <trkpt lat="42.46786" lon="2.22535">
        <ele>1903.07</ele>
        <time>2016-07-01T05:03:10Z</time>
      </trkpt>
      <trkpt lat="42.46783" lon="2.22534">
        <ele>1904.03</ele>
        <time>2016-07-01T05:03:12Z</time>
      </trkpt>
      <trkpt lat="42.4678" lon="2.22533">
        <ele>1904.03</ele>
        <time>2016-07-01T05:03:15Z</time>
      </trkpt>
      <trkpt lat="42.46768" lon="2.2252">
        <ele>1905.95</ele>
        <time>2016-07-01T05:03:30Z</time>
      </trkpt>
      <trkpt lat="42.46768" lon="2.22505">
        <ele>1907.39</ele>
        <time>2016-07-01T05:03:42Z</time>
      </trkpt>
      <trkpt lat="42.46769" lon="2.22497">
        <ele>1907.87</ele>
        <time>2016-07-01T05:03:48Z</time>
      </trkpt>
      <trkpt lat="42.46771" lon="2.22481">
        <ele>1909.32</ele>
        <time>2016-07-01T05:03:59Z</time>
      </trkpt>
      <trkpt lat="42.46771" lon="2.22464">
        <ele>1911.72</ele>
        <time>2016-07-01T05:04:11Z</time>
      </trkpt>
      <trkpt lat="42.46771" lon="2.22456">
        <ele>1912.68</ele>
        <time>2016-07-01T05:04:17Z</time>
      </trkpt>
      <trkpt lat="42.46765" lon="2.22443">
        <ele>1914.6</ele>
        <time>2016-07-01T05:04:28Z</time>
      </trkpt>
      <trkpt lat="42.46758" lon="2.22437">
        <ele>1915.56</ele>
        <time>2016-07-01T05:04:37Z</time>
      </trkpt>
      <trkpt lat="42.46755" lon="2.22435">
        <ele>1916.04</ele>
        <time>2016-07-01T05:04:40Z</time>
      </trkpt>
      <trkpt lat="42.46749" lon="2.22424">
        <ele>1917.97</ele>
        <time>2016-07-01T05:04:55Z</time>
      </trkpt>
      <trkpt lat="42.4675" lon="2.22424">
        <ele>1918.93</ele>
        <time>2016-07-01T05:05:16Z</time>
      </trkpt>
      <trkpt lat="42.4675" lon="2.22424">
        <ele>1918.93</ele>
        <time>2016-07-01T05:05:39Z</time>
      </trkpt>
      <trkpt lat="42.46744" lon="2.22415">
        <ele>1919.41</ele>
        <time>2016-07-01T05:05:48Z</time>
      </trkpt>
      <trkpt lat="42.46744" lon="2.2241">
        <ele>1919.41</ele>
        <time>2016-07-01T05:05:52Z</time>
      </trkpt>
      <trkpt lat="42.4674" lon="2.22399">
        <ele>1920.37</ele>
        <time>2016-07-01T05:06:01Z</time>
      </trkpt>
      <trkpt lat="42.46742" lon="2.22395">
        <ele>1920.85</ele>
        <time>2016-07-01T05:06:08Z</time>
      </trkpt>
      <trkpt lat="42.46744" lon="2.22398">
        <ele>1921.81</ele>
        <time>2016-07-01T05:06:11Z</time>
      </trkpt>
      <trkpt lat="42.46746" lon="2.22401">
        <ele>1922.29</ele>
        <time>2016-07-01T05:06:14Z</time>
      </trkpt>
      <trkpt lat="42.46748" lon="2.22407">
        <ele>1922.77</ele>
        <time>2016-07-01T05:06:18Z</time>
      </trkpt>
      <trkpt lat="42.4676" lon="2.22416">
        <ele>1923.74</ele>
        <time>2016-07-01T05:06:31Z</time>
      </trkpt>
      <trkpt lat="42.4676" lon="2.22417">
        <ele>1924.7</ele>
        <time>2016-07-01T05:06:32Z</time>
      </trkpt>
      <trkpt lat="42.46765" lon="2.22419">
        <ele>1925.18</ele>
        <time>2016-07-01T05:06:37Z</time>
      </trkpt>
      <trkpt lat="42.46777" lon="2.22421">
        <ele>1926.62</ele>
        <time>2016-07-01T05:06:49Z</time>
      </trkpt>
      <trkpt lat="42.4678" lon="2.22421">
        <ele>1927.1</ele>
        <time>2016-07-01T05:06:54Z</time>
      </trkpt>
      <trkpt lat="42.46791" lon="2.22427">
        <ele>1929.5</ele>
        <time>2016-07-01T05:07:07Z</time>
      </trkpt>
      <trkpt lat="42.46795" lon="2.22431">
        <ele>1930.46</ele>
        <time>2016-07-01T05:07:13Z</time>
      </trkpt>
      <trkpt lat="42.468" lon="2.22435">
        <ele>1931.91</ele>
        <time>2016-07-01T05:07:19Z</time>
      </trkpt>
      <trkpt lat="42.46805" lon="2.22448">
        <ele>1933.35</ele>
        <time>2016-07-01T05:07:31Z</time>
      </trkpt>
      <trkpt lat="42.46806" lon="2.22449">
        <ele>1933.83</ele>
        <time>2016-07-01T05:07:32Z</time>
      </trkpt>
      <trkpt lat="42.46805" lon="2.22453">
        <ele>1933.83</ele>
        <time>2016-07-01T05:07:35Z</time>
      </trkpt>
      <trkpt lat="42.46808" lon="2.22456">
        <ele>1934.79</ele>
        <time>2016-07-01T05:07:39Z</time>
      </trkpt>
      <trkpt lat="42.46815" lon="2.22464">
        <ele>1936.23</ele>
        <time>2016-07-01T05:07:48Z</time>
      </trkpt>
      <trkpt lat="42.4682" lon="2.22468">
        <ele>1937.19</ele>
        <time>2016-07-01T05:07:53Z</time>
      </trkpt>
      <trkpt lat="42.46825" lon="2.2247">
        <ele>1937.19</ele>
        <time>2016-07-01T05:07:58Z</time>
      </trkpt>
      <trkpt lat="42.46836" lon="2.22466">
        <ele>1939.6</ele>
        <time>2016-07-01T05:08:13Z</time>
      </trkpt>
      <trkpt lat="42.46848" lon="2.22458">
        <ele>1941.04</ele>
        <time>2016-07-01T05:08:26Z</time>
      </trkpt>
      <trkpt lat="42.46858" lon="2.22448">
        <ele>1942.48</ele>
        <time>2016-07-01T05:08:39Z</time>
      </trkpt>
      <trkpt lat="42.46869" lon="2.2244">
        <ele>1944.4</ele>
        <time>2016-07-01T05:08:50Z</time>
      </trkpt>
      <trkpt lat="42.46882" lon="2.22445">
        <ele>1946.33</ele>
        <time>2016-07-01T05:09:04Z</time>
      </trkpt>
      <trkpt lat="42.46884" lon="2.22452">
        <ele>1947.77</ele>
        <time>2016-07-01T05:09:10Z</time>
      </trkpt>
      <trkpt lat="42.46886" lon="2.22453">
        <ele>1948.25</ele>
        <time>2016-07-01T05:09:11Z</time>
      </trkpt>
      <trkpt lat="42.46887" lon="2.22454">
        <ele>1948.25</ele>
        <time>2016-07-01T05:09:12Z</time>
      </trkpt>
      <trkpt lat="42.46894" lon="2.22465">
        <ele>1949.69</ele>
        <time>2016-07-01T05:09:23Z</time>
      </trkpt>
      <trkpt lat="42.46898" lon="2.22473">
        <ele>1950.65</ele>
        <time>2016-07-01T05:09:31Z</time>
      </trkpt>
      <trkpt lat="42.46899" lon="2.22475">
        <ele>1950.65</ele>
        <time>2016-07-01T05:09:32Z</time>
      </trkpt>
      <trkpt lat="42.46899" lon="2.22477">
        <ele>1950.65</ele>
        <time>2016-07-01T05:09:33Z</time>
      </trkpt>
      <trkpt lat="42.46901" lon="2.2248">
        <ele>1951.13</ele>
        <time>2016-07-01T05:09:36Z</time>
      </trkpt>
      <trkpt lat="42.46906" lon="2.22492">
        <ele>1952.09</ele>
        <time>2016-07-01T05:09:46Z</time>
      </trkpt>
      <trkpt lat="42.46907" lon="2.22495">
        <ele>1953.06</ele>
        <time>2016-07-01T05:09:48Z</time>
      </trkpt>
      <trkpt lat="42.46906" lon="2.22497">
        <ele>1953.06</ele>
        <time>2016-07-01T05:09:49Z</time>
      </trkpt>
      <trkpt lat="42.46907" lon="2.22498">
        <ele>1953.06</ele>
        <time>2016-07-01T05:09:50Z</time>
      </trkpt>
      <trkpt lat="42.46907" lon="2.225">
        <ele>1953.06</ele>
        <time>2016-07-01T05:09:51Z</time>
      </trkpt>
      <trkpt lat="42.46909" lon="2.22502">
        <ele>1953.54</ele>
        <time>2016-07-01T05:09:54Z</time>
      </trkpt>
      <trkpt lat="42.46911" lon="2.22505">
        <ele>1953.54</ele>
        <time>2016-07-01T05:09:56Z</time>
      </trkpt>
      <trkpt lat="42.46912" lon="2.22506">
        <ele>1954.02</ele>
        <time>2016-07-01T05:09:57Z</time>
      </trkpt>
      <trkpt lat="42.46913" lon="2.22506">
        <ele>1954.02</ele>
        <time>2016-07-01T05:09:58Z</time>
      </trkpt>
      <trkpt lat="42.46918" lon="2.22505">
        <ele>1955.94</ele>
        <time>2016-07-01T05:10:08Z</time>
      </trkpt>
      <trkpt lat="42.46917" lon="2.22497">
        <ele>1956.9</ele>
        <time>2016-07-01T05:10:14Z</time>
      </trkpt>
      <trkpt lat="42.46917" lon="2.22496">
        <ele>1956.9</ele>
        <time>2016-07-01T05:10:15Z</time>
      </trkpt>
      <trkpt lat="42.46916" lon="2.22482">
        <ele>1958.82</ele>
        <time>2016-07-01T05:10:26Z</time>
      </trkpt>
      <trkpt lat="42.46915" lon="2.22478">
        <ele>1959.3</ele>
        <time>2016-07-01T05:10:29Z</time>
      </trkpt>
      <trkpt lat="42.46915" lon="2.22474">
        <ele>1959.78</ele>
        <time>2016-07-01T05:10:32Z</time>
      </trkpt>
      <trkpt lat="42.46915" lon="2.22467">
        <ele>1960.27</ele>
        <time>2016-07-01T05:10:37Z</time>
      </trkpt>
      <trkpt lat="42.46912" lon="2.22454">
        <ele>1961.71</ele>
        <time>2016-07-01T05:10:47Z</time>
      </trkpt>
      <trkpt lat="42.46911" lon="2.2244">
        <ele>1963.15</ele>
        <time>2016-07-01T05:10:59Z</time>
      </trkpt>
      <trkpt lat="42.46911" lon="2.22438">
        <ele>1963.63</ele>
        <time>2016-07-01T05:11:00Z</time>
      </trkpt>
      <trkpt lat="42.46912" lon="2.22435">
        <ele>1963.63</ele>
        <time>2016-07-01T05:11:02Z</time>
      </trkpt>
      <trkpt lat="42.4691" lon="2.22422">
        <ele>1964.59</ele>
        <time>2016-07-01T05:11:10Z</time>
      </trkpt>
      <trkpt lat="42.46909" lon="2.22421">
        <ele>1964.59</ele>
        <time>2016-07-01T05:11:11Z</time>
      </trkpt>
      <trkpt lat="42.46903" lon="2.22407">
        <ele>1966.99</ele>
        <time>2016-07-01T05:11:24Z</time>
      </trkpt>
      <trkpt lat="42.46901" lon="2.22402">
        <ele>1967.48</ele>
        <time>2016-07-01T05:11:28Z</time>
      </trkpt>
      <trkpt lat="42.46895" lon="2.22386">
        <ele>1969.4</ele>
        <time>2016-07-01T05:11:41Z</time>
      </trkpt>
      <trkpt lat="42.4689" lon="2.22375">
        <ele>1970.36</ele>
        <time>2016-07-01T05:11:50Z</time>
      </trkpt>
      <trkpt lat="42.46889" lon="2.22374">
        <ele>1970.84</ele>
        <time>2016-07-01T05:11:51Z</time>
      </trkpt>
      <trkpt lat="42.46888" lon="2.22372">
        <ele>1970.84</ele>
        <time>2016-07-01T05:11:53Z</time>
      </trkpt>
      <trkpt lat="42.46888" lon="2.22371">
        <ele>1970.84</ele>
        <time>2016-07-01T05:11:54Z</time>
      </trkpt>
      <trkpt lat="42.46887" lon="2.22369">
        <ele>1971.32</ele>
        <time>2016-07-01T05:11:56Z</time>
      </trkpt>
      <trkpt lat="42.46878" lon="2.2236">
        <ele>1973.24</ele>
        <time>2016-07-01T05:12:08Z</time>
      </trkpt>
      <trkpt lat="42.46871" lon="2.22348">
        <ele>1975.17</ele>
        <time>2016-07-01T05:12:21Z</time>
      </trkpt>
      <trkpt lat="42.46869" lon="2.22345">
        <ele>1975.65</ele>
        <time>2016-07-01T05:12:25Z</time>
      </trkpt>
      <trkpt lat="42.46869" lon="2.22343">
        <ele>1975.65</ele>
        <time>2016-07-01T05:12:26Z</time>
      </trkpt>
      <trkpt lat="42.46865" lon="2.22331">
        <ele>1977.09</ele>
        <time>2016-07-01T05:12:38Z</time>
      </trkpt>
      <trkpt lat="42.46858" lon="2.22317">
        <ele>1979.49</ele>
        <time>2016-07-01T05:12:50Z</time>
      </trkpt>
      <trkpt lat="42.46855" lon="2.22311">
        <ele>1979.97</ele>
        <time>2016-07-01T05:12:56Z</time>
      </trkpt>
      <trkpt lat="42.46849" lon="2.22296">
        <ele>1982.38</ele>
        <time>2016-07-01T05:13:09Z</time>
      </trkpt>
      <trkpt lat="42.46844" lon="2.22287">
        <ele>1983.34</ele>
        <time>2016-07-01T05:13:19Z</time>
      </trkpt>
      <trkpt lat="42.46843" lon="2.22286">
        <ele>1983.82</ele>
        <time>2016-07-01T05:13:20Z</time>
      </trkpt>
      <trkpt lat="42.46836" lon="2.22276">
        <ele>1985.74</ele>
        <time>2016-07-01T05:13:31Z</time>
      </trkpt>
      <trkpt lat="42.46834" lon="2.22274">
        <ele>1985.74</ele>
        <time>2016-07-01T05:13:34Z</time>
      </trkpt>
      <trkpt lat="42.46822" lon="2.22267">
        <ele>1987.66</ele>
        <time>2016-07-01T05:13:48Z</time>
      </trkpt>
      <trkpt lat="42.46811" lon="2.22259">
        <ele>1989.59</ele>
        <time>2016-07-01T05:14:01Z</time>
      </trkpt>
      <trkpt lat="42.46804" lon="2.22252">
        <ele>1991.03</ele>
        <time>2016-07-01T05:14:13Z</time>
      </trkpt>
      <trkpt lat="42.46807" lon="2.22249">
        <ele>1992.47</ele>
        <time>2016-07-01T05:14:19Z</time>
      </trkpt>
      <trkpt lat="42.46808" lon="2.22248">
        <ele>1992.47</ele>
        <time>2016-07-01T05:14:20Z</time>
      </trkpt>
      <trkpt lat="42.46809" lon="2.22249">
        <ele>1992.47</ele>
        <time>2016-07-01T05:14:21Z</time>
      </trkpt>
      <trkpt lat="42.46823" lon="2.22245">
        <ele>1993.91</ele>
        <time>2016-07-01T05:14:34Z</time>
      </trkpt>
      <trkpt lat="42.4683" lon="2.22241">
        <ele>1995.83</ele>
        <time>2016-07-01T05:14:43Z</time>
      </trkpt>
      <trkpt lat="42.4684" lon="2.22236">
        <ele>1997.28</ele>
        <time>2016-07-01T05:14:57Z</time>
      </trkpt>
      <trkpt lat="42.46847" lon="2.22235">
        <ele>1999.2</ele>
        <time>2016-07-01T05:15:09Z</time>
      </trkpt>
      <trkpt lat="42.4685" lon="2.22234">
        <ele>2000.64</ele>
        <time>2016-07-01T05:15:25Z</time>
      </trkpt>
      <trkpt lat="42.46864" lon="2.22231">
        <ele>2001.6</ele>
        <time>2016-07-01T05:15:36Z</time>
      </trkpt>
      <trkpt lat="42.46873" lon="2.22231">
        <ele>2003.52</ele>
        <time>2016-07-01T05:15:49Z</time>
      </trkpt>
      <trkpt lat="42.46875" lon="2.22231">
        <ele>2004.01</ele>
        <time>2016-07-01T05:15:53Z</time>
      </trkpt>
      <trkpt lat="42.46883" lon="2.22229">
        <ele>2005.45</ele>
        <time>2016-07-01T05:16:01Z</time>
      </trkpt>
      <trkpt lat="42.46903" lon="2.22225">
        <ele>2007.85</ele>
        <time>2016-07-01T05:16:16Z</time>
      </trkpt>
      <trkpt lat="42.46913" lon="2.22225">
        <ele>2009.29</ele>
        <time>2016-07-01T05:16:28Z</time>
      </trkpt>
      <trkpt lat="42.46916" lon="2.22225">
        <ele>2009.77</ele>
        <time>2016-07-01T05:16:32Z</time>
      </trkpt>
      <trkpt lat="42.46917" lon="2.22221">
        <ele>2010.73</ele>
        <time>2016-07-01T05:16:35Z</time>
      </trkpt>
      <trkpt lat="42.46918" lon="2.22218">
        <ele>2011.7</ele>
        <time>2016-07-01T05:16:40Z</time>
      </trkpt>
      <trkpt lat="42.46913" lon="2.22214">
        <ele>2015.06</ele>
        <time>2016-07-01T05:16:47Z</time>
      </trkpt>
      <trkpt lat="42.46906" lon="2.22208">
        <ele>2015.54</ele>
        <time>2016-07-01T05:16:59Z</time>
      </trkpt>
      <trkpt lat="42.46906" lon="2.22207">
        <ele>2015.54</ele>
        <time>2016-07-01T05:17:06Z</time>
      </trkpt>
      <trkpt lat="42.46908" lon="2.22199">
        <ele>2016.02</ele>
        <time>2016-07-01T05:17:16Z</time>
      </trkpt>
      <trkpt lat="42.4691" lon="2.22196">
        <ele>2016.98</ele>
        <time>2016-07-01T05:17:22Z</time>
      </trkpt>
      <trkpt lat="42.46915" lon="2.22192">
        <ele>2018.43</ele>
        <time>2016-07-01T05:17:33Z</time>
      </trkpt>
      <trkpt lat="42.46915" lon="2.2219">
        <ele>2018.43</ele>
        <time>2016-07-01T05:17:34Z</time>
      </trkpt>
      <trkpt lat="42.46915" lon="2.22182">
        <ele>2020.83</ele>
        <time>2016-07-01T05:17:45Z</time>
      </trkpt>
      <trkpt lat="42.46917" lon="2.22175">
        <ele>2024.19</ele>
        <time>2016-07-01T05:17:53Z</time>
      </trkpt>
      <trkpt lat="42.46918" lon="2.22175">
        <ele>2026.6</ele>
        <time>2016-07-01T05:18:04Z</time>
      </trkpt>
      <trkpt lat="42.46921" lon="2.22169">
        <ele>2027.08</ele>
        <time>2016-07-01T05:18:18Z</time>
      </trkpt>
      <trkpt lat="42.46924" lon="2.22163">
        <ele>2027.56</ele>
        <time>2016-07-01T05:18:28Z</time>
      </trkpt>
      <trkpt lat="42.46926" lon="2.22158">
        <ele>2029</ele>
        <time>2016-07-01T05:18:38Z</time>
      </trkpt>
      <trkpt lat="42.46929" lon="2.22152">
        <ele>2030.92</ele>
        <time>2016-07-01T05:18:50Z</time>
      </trkpt>
      <trkpt lat="42.46933" lon="2.22151">
        <ele>2032.84</ele>
        <time>2016-07-01T05:19:00Z</time>
      </trkpt>
      <trkpt lat="42.46934" lon="2.22144">
        <ele>2035.73</ele>
        <time>2016-07-01T05:19:11Z</time>
      </trkpt>
      <trkpt lat="42.46936" lon="2.22141">
        <ele>2039.09</ele>
        <time>2016-07-01T05:19:19Z</time>
      </trkpt>
      <trkpt lat="42.46936" lon="2.22141">
        <ele>2038.13</ele>
        <time>2016-07-01T05:19:41Z</time>
      </trkpt>
      <trkpt lat="42.46941" lon="2.22136">
        <ele>2038.13</ele>
        <time>2016-07-01T05:19:56Z</time>
      </trkpt>
      <trkpt lat="42.46945" lon="2.2213">
        <ele>2040.54</ele>
        <time>2016-07-01T05:20:08Z</time>
      </trkpt>
      <trkpt lat="42.46946" lon="2.22123">
        <ele>2042.94</ele>
        <time>2016-07-01T05:20:21Z</time>
      </trkpt>
      <trkpt lat="42.46946" lon="2.22122">
        <ele>2043.42</ele>
        <time>2016-07-01T05:20:22Z</time>
      </trkpt>
      <trkpt lat="42.46947" lon="2.22121">
        <ele>2043.42</ele>
        <time>2016-07-01T05:20:24Z</time>
      </trkpt>
      <trkpt lat="42.46947" lon="2.22118">
        <ele>2046.3</ele>
        <time>2016-07-01T05:20:31Z</time>
      </trkpt>
      <trkpt lat="42.4695" lon="2.22115">
        <ele>2049.67</ele>
        <time>2016-07-01T05:20:38Z</time>
      </trkpt>
      <trkpt lat="42.46953" lon="2.22109">
        <ele>2050.15</ele>
        <time>2016-07-01T05:20:50Z</time>
      </trkpt>
      <trkpt lat="42.46954" lon="2.22107">
        <ele>2050.63</ele>
        <time>2016-07-01T05:21:04Z</time>
      </trkpt>
      <trkpt lat="42.46956" lon="2.22101">
        <ele>2052.55</ele>
        <time>2016-07-01T05:21:17Z</time>
      </trkpt>
      <trkpt lat="42.4696" lon="2.22097">
        <ele>2053.99</ele>
        <time>2016-07-01T05:21:27Z</time>
      </trkpt>
      <trkpt lat="42.46963" lon="2.22092">
        <ele>2055.44</ele>
        <time>2016-07-01T05:21:35Z</time>
      </trkpt>
      <trkpt lat="42.46964" lon="2.22085">
        <ele>2057.36</ele>
        <time>2016-07-01T05:21:46Z</time>
      </trkpt>
      <trkpt lat="42.46962" lon="2.22083">
        <ele>2060.24</ele>
        <time>2016-07-01T05:21:53Z</time>
      </trkpt>
      <trkpt lat="42.46963" lon="2.22077">
        <ele>2063.13</ele>
        <time>2016-07-01T05:22:03Z</time>
      </trkpt>
      <trkpt lat="42.46967" lon="2.22069">
        <ele>2064.57</ele>
        <time>2016-07-01T05:22:16Z</time>
      </trkpt>
      <trkpt lat="42.46971" lon="2.22062">
        <ele>2065.53</ele>
        <time>2016-07-01T05:22:27Z</time>
      </trkpt>
      <trkpt lat="42.46973" lon="2.22056">
        <ele>2067.45</ele>
        <time>2016-07-01T05:22:38Z</time>
      </trkpt>
      <trkpt lat="42.46973" lon="2.22054">
        <ele>2068.89</ele>
        <time>2016-07-01T05:22:54Z</time>
      </trkpt>
      <trkpt lat="42.46973" lon="2.22049">
        <ele>2069.38</ele>
        <time>2016-07-01T05:22:59Z</time>
      </trkpt>
      <trkpt lat="42.46972" lon="2.22043">
        <ele>2070.82</ele>
        <time>2016-07-01T05:23:10Z</time>
      </trkpt>
      <trkpt lat="42.46976" lon="2.22037">
        <ele>2072.74</ele>
        <time>2016-07-01T05:23:20Z</time>
      </trkpt>
      <trkpt lat="42.46977" lon="2.22027">
        <ele>2074.66</ele>
        <time>2016-07-01T05:23:31Z</time>
      </trkpt>
      <trkpt lat="42.46978" lon="2.22021">
        <ele>2076.59</ele>
        <time>2016-07-01T05:23:43Z</time>
      </trkpt>
      <trkpt lat="42.4698" lon="2.22016">
        <ele>2078.51</ele>
        <time>2016-07-01T05:23:54Z</time>
      </trkpt>
      <trkpt lat="42.46979" lon="2.22011">
        <ele>2079.95</ele>
        <time>2016-07-01T05:24:11Z</time>
      </trkpt>
      <trkpt lat="42.46981" lon="2.22003">
        <ele>2081.87</ele>
        <time>2016-07-01T05:24:21Z</time>
      </trkpt>
      <trkpt lat="42.4698" lon="2.21996">
        <ele>2083.31</ele>
        <time>2016-07-01T05:24:29Z</time>
      </trkpt>
      <trkpt lat="42.46983" lon="2.21988">
        <ele>2084.76</ele>
        <time>2016-07-01T05:24:39Z</time>
      </trkpt>
      <trkpt lat="42.46983" lon="2.2198">
        <ele>2087.16</ele>
        <time>2016-07-01T05:24:52Z</time>
      </trkpt>
      <trkpt lat="42.4698" lon="2.21974">
        <ele>2089.08</ele>
        <time>2016-07-01T05:25:01Z</time>
      </trkpt>
      <trkpt lat="42.46979" lon="2.21967">
        <ele>2091.49</ele>
        <time>2016-07-01T05:25:14Z</time>
      </trkpt>
      <trkpt lat="42.46976" lon="2.21963">
        <ele>2093.41</ele>
        <time>2016-07-01T05:25:25Z</time>
      </trkpt>
      <trkpt lat="42.46972" lon="2.21959">
        <ele>2095.81</ele>
        <time>2016-07-01T05:25:38Z</time>
      </trkpt>
      <trkpt lat="42.46976" lon="2.21951">
        <ele>2097.25</ele>
        <time>2016-07-01T05:25:49Z</time>
      </trkpt>
      <trkpt lat="42.4697" lon="2.21947">
        <ele>2099.18</ele>
        <time>2016-07-01T05:26:01Z</time>
      </trkpt>
      <trkpt lat="42.46965" lon="2.21952">
        <ele>2100.14</ele>
        <time>2016-07-01T05:26:11Z</time>
      </trkpt>
      <trkpt lat="42.46961" lon="2.21956">
        <ele>2101.58</ele>
        <time>2016-07-01T05:26:18Z</time>
      </trkpt>
      <trkpt lat="42.4695" lon="2.21964">
        <ele>2103.02</ele>
        <time>2016-07-01T05:26:31Z</time>
      </trkpt>
      <trkpt lat="42.46949" lon="2.21964">
        <ele>2103.02</ele>
        <time>2016-07-01T05:26:32Z</time>
      </trkpt>
      <trkpt lat="42.46946" lon="2.21965">
        <ele>2103.5</ele>
        <time>2016-07-01T05:26:35Z</time>
      </trkpt>
      <trkpt lat="42.46935" lon="2.21959">
        <ele>2105.42</ele>
        <time>2016-07-01T05:26:48Z</time>
      </trkpt>
      <trkpt lat="42.46936" lon="2.21951">
        <ele>2106.39</ele>
        <time>2016-07-01T05:26:55Z</time>
      </trkpt>
      <trkpt lat="42.46944" lon="2.2194">
        <ele>2108.31</ele>
        <time>2016-07-01T05:27:08Z</time>
      </trkpt>
      <trkpt lat="42.46947" lon="2.21927">
        <ele>2110.23</ele>
        <time>2016-07-01T05:27:21Z</time>
      </trkpt>
      <trkpt lat="42.46949" lon="2.21916">
        <ele>2112.15</ele>
        <time>2016-07-01T05:27:32Z</time>
      </trkpt>
      <trkpt lat="42.46953" lon="2.21903">
        <ele>2114.08</ele>
        <time>2016-07-01T05:27:46Z</time>
      </trkpt>
      <trkpt lat="42.46953" lon="2.21893">
        <ele>2116</ele>
        <time>2016-07-01T05:27:57Z</time>
      </trkpt>
      <trkpt lat="42.46952" lon="2.21891">
        <ele>2116</ele>
        <time>2016-07-01T05:27:59Z</time>
      </trkpt>
      <trkpt lat="42.46952" lon="2.21883">
        <ele>2117.44</ele>
        <time>2016-07-01T05:28:07Z</time>
      </trkpt>
      <trkpt lat="42.46948" lon="2.21871">
        <ele>2118.88</ele>
        <time>2016-07-01T05:28:19Z</time>
      </trkpt>
      <trkpt lat="42.46943" lon="2.21854">
        <ele>2121.29</ele>
        <time>2016-07-01T05:28:33Z</time>
      </trkpt>
      <trkpt lat="42.46937" lon="2.21839">
        <ele>2122.73</ele>
        <time>2016-07-01T05:28:47Z</time>
      </trkpt>
      <trkpt lat="42.46935" lon="2.21837">
        <ele>2122.73</ele>
        <time>2016-07-01T05:28:49Z</time>
      </trkpt>
      <trkpt lat="42.46935" lon="2.21834">
        <ele>2123.21</ele>
        <time>2016-07-01T05:28:51Z</time>
      </trkpt>
      <trkpt lat="42.46927" lon="2.2182">
        <ele>2125.13</ele>
        <time>2016-07-01T05:29:05Z</time>
      </trkpt>
      <trkpt lat="42.46924" lon="2.21812">
        <ele>2125.61</ele>
        <time>2016-07-01T05:29:12Z</time>
      </trkpt>
      <trkpt lat="42.46918" lon="2.21799">
        <ele>2127.53</ele>
        <time>2016-07-01T05:29:24Z</time>
      </trkpt>
      <trkpt lat="42.46913" lon="2.21788">
        <ele>2128.98</ele>
        <time>2016-07-01T05:29:35Z</time>
      </trkpt>
      <trkpt lat="42.46911" lon="2.21785">
        <ele>2129.94</ele>
        <time>2016-07-01T05:29:38Z</time>
      </trkpt>
      <trkpt lat="42.46907" lon="2.21777">
        <ele>2130.9</ele>
        <time>2016-07-01T05:29:47Z</time>
      </trkpt>
      <trkpt lat="42.46899" lon="2.2176">
        <ele>2133.3</ele>
        <time>2016-07-01T05:30:03Z</time>
      </trkpt>
      <trkpt lat="42.46898" lon="2.21758">
        <ele>2133.78</ele>
        <time>2016-07-01T05:30:05Z</time>
      </trkpt>
      <trkpt lat="42.46897" lon="2.21756">
        <ele>2133.78</ele>
        <time>2016-07-01T05:30:07Z</time>
      </trkpt>
      <trkpt lat="42.4689" lon="2.21741">
        <ele>2135.23</ele>
        <time>2016-07-01T05:30:20Z</time>
      </trkpt>
      <trkpt lat="42.46885" lon="2.21733">
        <ele>2136.67</ele>
        <time>2016-07-01T05:30:28Z</time>
      </trkpt>
      <trkpt lat="42.4688" lon="2.21728">
        <ele>2137.15</ele>
        <time>2016-07-01T05:30:35Z</time>
      </trkpt>
      <trkpt lat="42.46878" lon="2.21724">
        <ele>2137.63</ele>
        <time>2016-07-01T05:30:39Z</time>
      </trkpt>
      <trkpt lat="42.46878" lon="2.21721">
        <ele>2138.11</ele>
        <time>2016-07-01T05:30:43Z</time>
      </trkpt>
      <trkpt lat="42.46882" lon="2.21718">
        <ele>2138.59</ele>
        <time>2016-07-01T05:30:47Z</time>
      </trkpt>
      <trkpt lat="42.46887" lon="2.2172">
        <ele>2140.03</ele>
        <time>2016-07-01T05:30:54Z</time>
      </trkpt>
      <trkpt lat="42.46892" lon="2.21724">
        <ele>2140.51</ele>
        <time>2016-07-01T05:30:59Z</time>
      </trkpt>
      <trkpt lat="42.46894" lon="2.21727">
        <ele>2140.51</ele>
        <time>2016-07-01T05:31:02Z</time>
      </trkpt>
      <trkpt lat="42.46895" lon="2.21729">
        <ele>2140.99</ele>
        <time>2016-07-01T05:31:04Z</time>
      </trkpt>
      <trkpt lat="42.46907" lon="2.21738">
        <ele>2141.95</ele>
        <time>2016-07-01T05:31:14Z</time>
      </trkpt>
      <trkpt lat="42.46913" lon="2.21747">
        <ele>2143.4</ele>
        <time>2016-07-01T05:31:25Z</time>
      </trkpt>
      <trkpt lat="42.46919" lon="2.21755">
        <ele>2144.36</ele>
        <time>2016-07-01T05:31:35Z</time>
      </trkpt>
      <trkpt lat="42.46928" lon="2.21762">
        <ele>2145.8</ele>
        <time>2016-07-01T05:31:44Z</time>
      </trkpt>
      <trkpt lat="42.46938" lon="2.21767">
        <ele>2147.24</ele>
        <time>2016-07-01T05:31:56Z</time>
      </trkpt>
      <trkpt lat="42.46951" lon="2.21765">
        <ele>2148.68</ele>
        <time>2016-07-01T05:32:10Z</time>
      </trkpt>
      <trkpt lat="42.46954" lon="2.21763">
        <ele>2149.65</ele>
        <time>2016-07-01T05:32:14Z</time>
      </trkpt>
      <trkpt lat="42.46963" lon="2.21757">
        <ele>2151.09</ele>
        <time>2016-07-01T05:32:26Z</time>
      </trkpt>
      <trkpt lat="42.46964" lon="2.21757">
        <ele>2151.57</ele>
        <time>2016-07-01T05:32:31Z</time>
      </trkpt>
      <trkpt lat="42.46975" lon="2.21748">
        <ele>2153.97</ele>
        <time>2016-07-01T05:32:45Z</time>
      </trkpt>
      <trkpt lat="42.4698" lon="2.21744">
        <ele>2154.45</ele>
        <time>2016-07-01T05:32:50Z</time>
      </trkpt>
      <trkpt lat="42.46987" lon="2.21739">
        <ele>2155.89</ele>
        <time>2016-07-01T05:32:59Z</time>
      </trkpt>
      <trkpt lat="42.46995" lon="2.21734">
        <ele>2156.86</ele>
        <time>2016-07-01T05:33:09Z</time>
      </trkpt>
      <trkpt lat="42.47" lon="2.21726">
        <ele>2158.3</ele>
        <time>2016-07-01T05:33:20Z</time>
      </trkpt>
      <trkpt lat="42.47005" lon="2.21717">
        <ele>2159.74</ele>
        <time>2016-07-01T05:33:31Z</time>
      </trkpt>
      <trkpt lat="42.47016" lon="2.21707">
        <ele>2162.14</ele>
        <time>2016-07-01T05:33:44Z</time>
      </trkpt>
      <trkpt lat="42.47024" lon="2.21701">
        <ele>2163.58</ele>
        <time>2016-07-01T05:33:56Z</time>
      </trkpt>
      <trkpt lat="42.4703" lon="2.21696">
        <ele>2164.55</ele>
        <time>2016-07-01T05:34:04Z</time>
      </trkpt>
      <trkpt lat="42.47037" lon="2.21688">
        <ele>2166.47</ele>
        <time>2016-07-01T05:34:14Z</time>
      </trkpt>
      <trkpt lat="42.47046" lon="2.21679">
        <ele>2167.91</ele>
        <time>2016-07-01T05:34:25Z</time>
      </trkpt>
      <trkpt lat="42.47054" lon="2.21673">
        <ele>2169.35</ele>
        <time>2016-07-01T05:34:36Z</time>
      </trkpt>
      <trkpt lat="42.47056" lon="2.21672">
        <ele>2169.35</ele>
        <time>2016-07-01T05:34:38Z</time>
      </trkpt>
      <trkpt lat="42.47065" lon="2.21667">
        <ele>2171.76</ele>
        <time>2016-07-01T05:34:51Z</time>
      </trkpt>
      <trkpt lat="42.47066" lon="2.21667">
        <ele>2171.76</ele>
        <time>2016-07-01T05:34:52Z</time>
      </trkpt>
      <trkpt lat="42.47074" lon="2.21671">
        <ele>2172.72</ele>
        <time>2016-07-01T05:35:02Z</time>
      </trkpt>
      <trkpt lat="42.47076" lon="2.21674">
        <ele>2172.72</ele>
        <time>2016-07-01T05:35:05Z</time>
      </trkpt>
      <trkpt lat="42.47081" lon="2.21673">
        <ele>2174.64</ele>
        <time>2016-07-01T05:35:16Z</time>
      </trkpt>
      <trkpt lat="42.4708" lon="2.21671">
        <ele>2174.64</ele>
        <time>2016-07-01T05:35:18Z</time>
      </trkpt>
      <trkpt lat="42.47074" lon="2.21661">
        <ele>2176.56</ele>
        <time>2016-07-01T05:35:29Z</time>
      </trkpt>
      <trkpt lat="42.47073" lon="2.21659">
        <ele>2176.56</ele>
        <time>2016-07-01T05:35:30Z</time>
      </trkpt>
      <trkpt lat="42.47072" lon="2.21658">
        <ele>2176.56</ele>
        <time>2016-07-01T05:35:31Z</time>
      </trkpt>
      <trkpt lat="42.47064" lon="2.21652">
        <ele>2178</ele>
        <time>2016-07-01T05:35:42Z</time>
      </trkpt>
      <trkpt lat="42.47055" lon="2.2165">
        <ele>2178.97</ele>
        <time>2016-07-01T05:35:53Z</time>
      </trkpt>
      <trkpt lat="42.47054" lon="2.2165">
        <ele>2179.93</ele>
        <time>2016-07-01T05:35:54Z</time>
      </trkpt>
      <trkpt lat="42.4705" lon="2.2165">
        <ele>2180.41</ele>
        <time>2016-07-01T05:35:59Z</time>
      </trkpt>
      <trkpt lat="42.47042" lon="2.2165">
        <ele>2182.33</ele>
        <time>2016-07-01T05:36:11Z</time>
      </trkpt>
      <trkpt lat="42.47038" lon="2.21651">
        <ele>2182.81</ele>
        <time>2016-07-01T05:36:16Z</time>
      </trkpt>
      <trkpt lat="42.47037" lon="2.21652">
        <ele>2183.29</ele>
        <time>2016-07-01T05:36:18Z</time>
      </trkpt>
      <trkpt lat="42.47031" lon="2.21651">
        <ele>2183.77</ele>
        <time>2016-07-01T05:36:24Z</time>
      </trkpt>
      <trkpt lat="42.47021" lon="2.21651">
        <ele>2185.69</ele>
        <time>2016-07-01T05:36:37Z</time>
      </trkpt>
      <trkpt lat="42.47019" lon="2.21652">
        <ele>2186.18</ele>
        <time>2016-07-01T05:36:39Z</time>
      </trkpt>
      <trkpt lat="42.47007" lon="2.21654">
        <ele>2188.1</ele>
        <time>2016-07-01T05:36:52Z</time>
      </trkpt>
      <trkpt lat="42.46995" lon="2.21654">
        <ele>2189.06</ele>
        <time>2016-07-01T05:37:04Z</time>
      </trkpt>
      <trkpt lat="42.46993" lon="2.21653">
        <ele>2189.54</ele>
        <time>2016-07-01T05:37:06Z</time>
      </trkpt>
      <trkpt lat="42.46981" lon="2.21652">
        <ele>2190.5</ele>
        <time>2016-07-01T05:37:18Z</time>
      </trkpt>
      <trkpt lat="42.46972" lon="2.21648">
        <ele>2192.9</ele>
        <time>2016-07-01T05:37:31Z</time>
      </trkpt>
      <trkpt lat="42.46963" lon="2.21642">
        <ele>2194.83</ele>
        <time>2016-07-01T05:37:43Z</time>
      </trkpt>
      <trkpt lat="42.4696" lon="2.21639">
        <ele>2195.31</ele>
        <time>2016-07-01T05:37:47Z</time>
      </trkpt>
      <trkpt lat="42.46955" lon="2.21633">
        <ele>2196.75</ele>
        <time>2016-07-01T05:37:57Z</time>
      </trkpt>
      <trkpt lat="42.46958" lon="2.21634">
        <ele>2197.71</ele>
        <time>2016-07-01T05:38:12Z</time>
      </trkpt>
      <trkpt lat="42.46961" lon="2.21631">
        <ele>2198.67</ele>
        <time>2016-07-01T05:38:24Z</time>
      </trkpt>
      <trkpt lat="42.46962" lon="2.21628">
        <ele>2199.63</ele>
        <time>2016-07-01T05:38:44Z</time>
      </trkpt>
      <trkpt lat="42.46963" lon="2.21629">
        <ele>2200.11</ele>
        <time>2016-07-01T05:39:09Z</time>
      </trkpt>
      <trkpt lat="42.46964" lon="2.21629">
        <ele>2200.11</ele>
        <time>2016-07-01T05:39:36Z</time>
      </trkpt>
      <trkpt lat="42.46964" lon="2.21628">
        <ele>2200.11</ele>
        <time>2016-07-01T05:40:01Z</time>
      </trkpt>
      <trkpt lat="42.46964" lon="2.21629">
        <ele>2200.11</ele>
        <time>2016-07-01T05:40:30Z</time>
      </trkpt>
      <trkpt lat="42.46964" lon="2.21629">
        <ele>2200.11</ele>
        <time>2016-07-01T05:40:46Z</time>
      </trkpt>
      <trkpt lat="42.46962" lon="2.2163">
        <ele>2201.08</ele>
        <time>2016-07-01T05:41:02Z</time>
      </trkpt>
      <trkpt lat="42.46957" lon="2.21629">
        <ele>2199.63</ele>
        <time>2016-07-01T05:41:12Z</time>
      </trkpt>
      <trkpt lat="42.46956" lon="2.21626">
        <ele>2199.63</ele>
        <time>2016-07-01T05:41:15Z</time>
      </trkpt>
      <trkpt lat="42.46955" lon="2.21622">
        <ele>2199.63</ele>
        <time>2016-07-01T05:41:18Z</time>
      </trkpt>
      <trkpt lat="42.46954" lon="2.21621">
        <ele>2199.63</ele>
        <time>2016-07-01T05:41:19Z</time>
      </trkpt>
      <trkpt lat="42.46953" lon="2.21618">
        <ele>2199.63</ele>
        <time>2016-07-01T05:41:21Z</time>
      </trkpt>
      <trkpt lat="42.46951" lon="2.21604">
        <ele>2200.59</ele>
        <time>2016-07-01T05:41:33Z</time>
      </trkpt>
      <trkpt lat="42.46951" lon="2.21603">
        <ele>2200.59</ele>
        <time>2016-07-01T05:41:34Z</time>
      </trkpt>
      <trkpt lat="42.46951" lon="2.21601">
        <ele>2200.59</ele>
        <time>2016-07-01T05:41:35Z</time>
      </trkpt>
      <trkpt lat="42.4695" lon="2.21599">
        <ele>2201.08</ele>
        <time>2016-07-01T05:41:37Z</time>
      </trkpt>
      <trkpt lat="42.46949" lon="2.21593">
        <ele>2201.56</ele>
        <time>2016-07-01T05:41:42Z</time>
      </trkpt>
      <trkpt lat="42.46949" lon="2.21583">
        <ele>2203</ele>
        <time>2016-07-01T05:41:53Z</time>
      </trkpt>
      <trkpt lat="42.46949" lon="2.21575">
        <ele>2203.48</ele>
        <time>2016-07-01T05:41:59Z</time>
      </trkpt>
      <trkpt lat="42.46949" lon="2.21574">
        <ele>2203.96</ele>
        <time>2016-07-01T05:42:01Z</time>
      </trkpt>
      <trkpt lat="42.46951" lon="2.21568">
        <ele>2204.92</ele>
        <time>2016-07-01T05:42:08Z</time>
      </trkpt>
      <trkpt lat="42.46957" lon="2.21568">
        <ele>2206.36</ele>
        <time>2016-07-01T05:42:15Z</time>
      </trkpt>
      <trkpt lat="42.46957" lon="2.21569">
        <ele>2206.36</ele>
        <time>2016-07-01T05:42:16Z</time>
      </trkpt>
      <trkpt lat="42.46958" lon="2.21573">
        <ele>2206.84</ele>
        <time>2016-07-01T05:42:20Z</time>
      </trkpt>
      <trkpt lat="42.46961" lon="2.21583">
        <ele>2207.81</ele>
        <time>2016-07-01T05:42:30Z</time>
      </trkpt>
      <trkpt lat="42.46963" lon="2.21585">
        <ele>2207.81</ele>
        <time>2016-07-01T05:42:32Z</time>
      </trkpt>
      <trkpt lat="42.46963" lon="2.21587">
        <ele>2208.77</ele>
        <time>2016-07-01T05:42:33Z</time>
      </trkpt>
      <trkpt lat="42.4697" lon="2.21591">
        <ele>2209.25</ele>
        <time>2016-07-01T05:42:40Z</time>
      </trkpt>
      <trkpt lat="42.46971" lon="2.21592">
        <ele>2209.25</ele>
        <time>2016-07-01T05:42:41Z</time>
      </trkpt>
      <trkpt lat="42.46972" lon="2.21592">
        <ele>2209.73</ele>
        <time>2016-07-01T05:42:42Z</time>
      </trkpt>
      <trkpt lat="42.46979" lon="2.21595">
        <ele>2210.69</ele>
        <time>2016-07-01T05:42:53Z</time>
      </trkpt>
      <trkpt lat="42.46989" lon="2.21597">
        <ele>2212.61</ele>
        <time>2016-07-01T05:43:05Z</time>
      </trkpt>
      <trkpt lat="42.47001" lon="2.21594">
        <ele>2214.05</ele>
        <time>2016-07-01T05:43:17Z</time>
      </trkpt>
      <trkpt lat="42.47009" lon="2.21591">
        <ele>2215.98</ele>
        <time>2016-07-01T05:43:28Z</time>
      </trkpt>
      <trkpt lat="42.4702" lon="2.21584">
        <ele>2217.42</ele>
        <time>2016-07-01T05:43:41Z</time>
      </trkpt>
      <trkpt lat="42.47032" lon="2.21577">
        <ele>2219.34</ele>
        <time>2016-07-01T05:43:55Z</time>
      </trkpt>
      <trkpt lat="42.47041" lon="2.21571">
        <ele>2220.78</ele>
        <time>2016-07-01T05:44:06Z</time>
      </trkpt>
      <trkpt lat="42.47048" lon="2.21569">
        <ele>2221.74</ele>
        <time>2016-07-01T05:44:13Z</time>
      </trkpt>
      <trkpt lat="42.47055" lon="2.21563">
        <ele>2223.67</ele>
        <time>2016-07-01T05:44:24Z</time>
      </trkpt>
      <trkpt lat="42.47063" lon="2.21557">
        <ele>2224.63</ele>
        <time>2016-07-01T05:44:36Z</time>
      </trkpt>
      <trkpt lat="42.47072" lon="2.21549">
        <ele>2226.55</ele>
        <time>2016-07-01T05:44:47Z</time>
      </trkpt>
      <trkpt lat="42.47082" lon="2.21542">
        <ele>2228.47</ele>
        <time>2016-07-01T05:44:58Z</time>
      </trkpt>
      <trkpt lat="42.47089" lon="2.21538">
        <ele>2229.43</ele>
        <time>2016-07-01T05:45:08Z</time>
      </trkpt>
      <trkpt lat="42.47093" lon="2.21535">
        <ele>2230.88</ele>
        <time>2016-07-01T05:45:15Z</time>
      </trkpt>
      <trkpt lat="42.47102" lon="2.2153">
        <ele>2231.84</ele>
        <time>2016-07-01T05:45:27Z</time>
      </trkpt>
      <trkpt lat="42.47103" lon="2.2153">
        <ele>2231.84</ele>
        <time>2016-07-01T05:45:28Z</time>
      </trkpt>
      <trkpt lat="42.4711" lon="2.21528">
        <ele>2233.76</ele>
        <time>2016-07-01T05:45:40Z</time>
      </trkpt>
      <trkpt lat="42.47118" lon="2.21525">
        <ele>2234.72</ele>
        <time>2016-07-01T05:45:50Z</time>
      </trkpt>
      <trkpt lat="42.47128" lon="2.21523">
        <ele>2235.68</ele>
        <time>2016-07-01T05:46:01Z</time>
      </trkpt>
      <trkpt lat="42.47132" lon="2.21523">
        <ele>2236.64</ele>
        <time>2016-07-01T05:46:06Z</time>
      </trkpt>
      <trkpt lat="42.47139" lon="2.21523">
        <ele>2237.61</ele>
        <time>2016-07-01T05:46:16Z</time>
      </trkpt>
      <trkpt lat="42.47147" lon="2.21523">
        <ele>2238.57</ele>
        <time>2016-07-01T05:46:24Z</time>
      </trkpt>
      <trkpt lat="42.47157" lon="2.21522">
        <ele>2240.49</ele>
        <time>2016-07-01T05:46:35Z</time>
      </trkpt>
      <trkpt lat="42.47167" lon="2.21524">
        <ele>2241.93</ele>
        <time>2016-07-01T05:46:46Z</time>
      </trkpt>
      <trkpt lat="42.47176" lon="2.21526">
        <ele>2243.85</ele>
        <time>2016-07-01T05:46:57Z</time>
      </trkpt>
      <trkpt lat="42.47185" lon="2.21528">
        <ele>2244.82</ele>
        <time>2016-07-01T05:47:07Z</time>
      </trkpt>
      <trkpt lat="42.47196" lon="2.21533">
        <ele>2246.74</ele>
        <time>2016-07-01T05:47:21Z</time>
      </trkpt>
      <trkpt lat="42.47202" lon="2.21536">
        <ele>2247.7</ele>
        <time>2016-07-01T05:47:28Z</time>
      </trkpt>
      <trkpt lat="42.47209" lon="2.21544">
        <ele>2249.62</ele>
        <time>2016-07-01T05:47:39Z</time>
      </trkpt>
      <trkpt lat="42.47218" lon="2.21552">
        <ele>2251.06</ele>
        <time>2016-07-01T05:47:53Z</time>
      </trkpt>
      <trkpt lat="42.47219" lon="2.21546">
        <ele>2252.99</ele>
        <time>2016-07-01T05:48:01Z</time>
      </trkpt>
      <trkpt lat="42.47214" lon="2.21534">
        <ele>2253.95</ele>
        <time>2016-07-01T05:48:13Z</time>
      </trkpt>
      <trkpt lat="42.47207" lon="2.2152">
        <ele>2255.87</ele>
        <time>2016-07-01T05:48:25Z</time>
      </trkpt>
      <trkpt lat="42.47201" lon="2.2151">
        <ele>2256.83</ele>
        <time>2016-07-01T05:48:36Z</time>
      </trkpt>
      <trkpt lat="42.47195" lon="2.215">
        <ele>2257.79</ele>
        <time>2016-07-01T05:48:46Z</time>
      </trkpt>
      <trkpt lat="42.47195" lon="2.21499">
        <ele>2258.75</ele>
        <time>2016-07-01T05:48:47Z</time>
      </trkpt>
      <trkpt lat="42.47193" lon="2.21498">
        <ele>2258.75</ele>
        <time>2016-07-01T05:48:49Z</time>
      </trkpt>
      <trkpt lat="42.47192" lon="2.21496">
        <ele>2258.75</ele>
        <time>2016-07-01T05:48:51Z</time>
      </trkpt>
      <trkpt lat="42.47191" lon="2.21495">
        <ele>2259.24</ele>
        <time>2016-07-01T05:48:52Z</time>
      </trkpt>
      <trkpt lat="42.47189" lon="2.21493">
        <ele>2259.24</ele>
        <time>2016-07-01T05:48:55Z</time>
      </trkpt>
      <trkpt lat="42.47188" lon="2.21492">
        <ele>2259.72</ele>
        <time>2016-07-01T05:48:56Z</time>
      </trkpt>
      <trkpt lat="42.47186" lon="2.21491">
        <ele>2259.72</ele>
        <time>2016-07-01T05:48:58Z</time>
      </trkpt>
      <trkpt lat="42.47184" lon="2.21489">
        <ele>2260.2</ele>
        <time>2016-07-01T05:49:00Z</time>
      </trkpt>
      <trkpt lat="42.47182" lon="2.21488">
        <ele>2260.2</ele>
        <time>2016-07-01T05:49:03Z</time>
      </trkpt>
      <trkpt lat="42.47181" lon="2.21487">
        <ele>2261.16</ele>
        <time>2016-07-01T05:49:04Z</time>
      </trkpt>
      <trkpt lat="42.4718" lon="2.21486">
        <ele>2260.68</ele>
        <time>2016-07-01T05:49:05Z</time>
      </trkpt>
      <trkpt lat="42.47179" lon="2.21485">
        <ele>2261.16</ele>
        <time>2016-07-01T05:49:06Z</time>
      </trkpt>
      <trkpt lat="42.47178" lon="2.21485">
        <ele>2261.16</ele>
        <time>2016-07-01T05:49:07Z</time>
      </trkpt>
      <trkpt lat="42.47176" lon="2.21483">
        <ele>2261.64</ele>
        <time>2016-07-01T05:49:09Z</time>
      </trkpt>
      <trkpt lat="42.47165" lon="2.21473">
        <ele>2263.08</ele>
        <time>2016-07-01T05:49:22Z</time>
      </trkpt>
      <trkpt lat="42.47164" lon="2.21472">
        <ele>2263.56</ele>
        <time>2016-07-01T05:49:24Z</time>
      </trkpt>
      <trkpt lat="42.47162" lon="2.2147">
        <ele>2263.56</ele>
        <time>2016-07-01T05:49:26Z</time>
      </trkpt>
      <trkpt lat="42.47153" lon="2.21462">
        <ele>2265.48</ele>
        <time>2016-07-01T05:49:37Z</time>
      </trkpt>
      <trkpt lat="42.4715" lon="2.21461">
        <ele>2265.96</ele>
        <time>2016-07-01T05:49:41Z</time>
      </trkpt>
      <trkpt lat="42.47148" lon="2.2146">
        <ele>2265.96</ele>
        <time>2016-07-01T05:49:43Z</time>
      </trkpt>
      <trkpt lat="42.4714" lon="2.21454">
        <ele>2267.89</ele>
        <time>2016-07-01T05:49:54Z</time>
      </trkpt>
      <trkpt lat="42.47137" lon="2.21452">
        <ele>2268.37</ele>
        <time>2016-07-01T05:49:57Z</time>
      </trkpt>
      <trkpt lat="42.47136" lon="2.21452">
        <ele>2268.85</ele>
        <time>2016-07-01T05:49:59Z</time>
      </trkpt>
      <trkpt lat="42.47129" lon="2.21449">
        <ele>2269.81</ele>
        <time>2016-07-01T05:50:06Z</time>
      </trkpt>
      <trkpt lat="42.4712" lon="2.21446">
        <ele>2271.25</ele>
        <time>2016-07-01T05:50:17Z</time>
      </trkpt>
      <trkpt lat="42.4711" lon="2.21445">
        <ele>2273.17</ele>
        <time>2016-07-01T05:50:29Z</time>
      </trkpt>
      <trkpt lat="42.471" lon="2.21445">
        <ele>2275.1</ele>
        <time>2016-07-01T05:50:40Z</time>
      </trkpt>
      <trkpt lat="42.47091" lon="2.21448">
        <ele>2276.54</ele>
        <time>2016-07-01T05:50:51Z</time>
      </trkpt>
      <trkpt lat="42.47081" lon="2.21448">
        <ele>2277.98</ele>
        <time>2016-07-01T05:51:02Z</time>
      </trkpt>
      <trkpt lat="42.47074" lon="2.21448">
        <ele>2278.94</ele>
        <time>2016-07-01T05:51:11Z</time>
      </trkpt>
      <trkpt lat="42.47068" lon="2.21447">
        <ele>2280.38</ele>
        <time>2016-07-01T05:51:18Z</time>
      </trkpt>
      <trkpt lat="42.4706" lon="2.21447">
        <ele>2281.35</ele>
        <time>2016-07-01T05:51:28Z</time>
      </trkpt>
      <trkpt lat="42.47053" lon="2.21445">
        <ele>2283.27</ele>
        <time>2016-07-01T05:51:38Z</time>
      </trkpt>
      <trkpt lat="42.4705" lon="2.21443">
        <ele>2284.23</ele>
        <time>2016-07-01T05:51:50Z</time>
      </trkpt>
      <trkpt lat="42.47049" lon="2.21443">
        <ele>2284.23</ele>
        <time>2016-07-01T05:52:07Z</time>
      </trkpt>
      <trkpt lat="42.4705" lon="2.21442">
        <ele>2284.23</ele>
        <time>2016-07-01T05:52:15Z</time>
      </trkpt>
      <trkpt lat="42.47051" lon="2.21441">
        <ele>2284.23</ele>
        <time>2016-07-01T05:52:16Z</time>
      </trkpt>
      <trkpt lat="42.47055" lon="2.21437">
        <ele>2284.23</ele>
        <time>2016-07-01T05:52:22Z</time>
      </trkpt>
      <trkpt lat="42.47065" lon="2.21435">
        <ele>2285.67</ele>
        <time>2016-07-01T05:52:33Z</time>
      </trkpt>
      <trkpt lat="42.47067" lon="2.21434">
        <ele>2286.15</ele>
        <time>2016-07-01T05:52:36Z</time>
      </trkpt>
      <trkpt lat="42.47068" lon="2.21433">
        <ele>2286.15</ele>
        <time>2016-07-01T05:52:37Z</time>
      </trkpt>
      <trkpt lat="42.47073" lon="2.21432">
        <ele>2286.63</ele>
        <time>2016-07-01T05:52:41Z</time>
      </trkpt>
      <trkpt lat="42.47085" lon="2.21424">
        <ele>2288.08</ele>
        <time>2016-07-01T05:52:53Z</time>
      </trkpt>
      <trkpt lat="42.47089" lon="2.21422">
        <ele>2288.08</ele>
        <time>2016-07-01T05:52:57Z</time>
      </trkpt>
      <trkpt lat="42.47097" lon="2.21418">
        <ele>2289.04</ele>
        <time>2016-07-01T05:53:07Z</time>
      </trkpt>
      <trkpt lat="42.47106" lon="2.2141">
        <ele>2290.96</ele>
        <time>2016-07-01T05:53:19Z</time>
      </trkpt>
      <trkpt lat="42.47115" lon="2.21403">
        <ele>2292.4</ele>
        <time>2016-07-01T05:53:30Z</time>
      </trkpt>
      <trkpt lat="42.47124" lon="2.21397">
        <ele>2294.32</ele>
        <time>2016-07-01T05:53:41Z</time>
      </trkpt>
      <trkpt lat="42.47127" lon="2.21396">
        <ele>2294.32</ele>
        <time>2016-07-01T05:53:43Z</time>
      </trkpt>
      <trkpt lat="42.47127" lon="2.21396">
        <ele>2294.32</ele>
        <time>2016-07-01T05:53:44Z</time>
      </trkpt>
      <trkpt lat="42.47129" lon="2.21395">
        <ele>2294.8</ele>
        <time>2016-07-01T05:53:46Z</time>
      </trkpt>
      <trkpt lat="42.47137" lon="2.21392">
        <ele>2295.77</ele>
        <time>2016-07-01T05:53:57Z</time>
      </trkpt>
      <trkpt lat="42.47145" lon="2.2139">
        <ele>2297.69</ele>
        <time>2016-07-01T05:54:08Z</time>
      </trkpt>
      <trkpt lat="42.47156" lon="2.21389">
        <ele>2299.61</ele>
        <time>2016-07-01T05:54:20Z</time>
      </trkpt>
      <trkpt lat="42.47166" lon="2.21389">
        <ele>2301.05</ele>
        <time>2016-07-01T05:54:32Z</time>
      </trkpt>
      <trkpt lat="42.47176" lon="2.2139">
        <ele>2302.49</ele>
        <time>2016-07-01T05:54:43Z</time>
      </trkpt>
      <trkpt lat="42.47177" lon="2.2139">
        <ele>2302.49</ele>
        <time>2016-07-01T05:54:45Z</time>
      </trkpt>
      <trkpt lat="42.47183" lon="2.21391">
        <ele>2304.42</ele>
        <time>2016-07-01T05:54:57Z</time>
      </trkpt>
      <trkpt lat="42.47191" lon="2.2139">
        <ele>2305.38</ele>
        <time>2016-07-01T05:55:09Z</time>
      </trkpt>
      <trkpt lat="42.47202" lon="2.21392">
        <ele>2306.82</ele>
        <time>2016-07-01T05:55:20Z</time>
      </trkpt>
      <trkpt lat="42.47208" lon="2.21393">
        <ele>2307.78</ele>
        <time>2016-07-01T05:55:27Z</time>
      </trkpt>
      <trkpt lat="42.47215" lon="2.21395">
        <ele>2308.74</ele>
        <time>2016-07-01T05:55:36Z</time>
      </trkpt>
      <trkpt lat="42.47217" lon="2.21394">
        <ele>2309.7</ele>
        <time>2016-07-01T05:55:39Z</time>
      </trkpt>
      <trkpt lat="42.47219" lon="2.21394">
        <ele>2309.7</ele>
        <time>2016-07-01T05:55:40Z</time>
      </trkpt>
      <trkpt lat="42.47225" lon="2.21394">
        <ele>2310.67</ele>
        <time>2016-07-01T05:55:47Z</time>
      </trkpt>
      <trkpt lat="42.47227" lon="2.21395">
        <ele>2310.67</ele>
        <time>2016-07-01T05:55:48Z</time>
      </trkpt>
      <trkpt lat="42.47233" lon="2.21395">
        <ele>2312.11</ele>
        <time>2016-07-01T05:55:57Z</time>
      </trkpt>
      <trkpt lat="42.47235" lon="2.21395">
        <ele>2312.11</ele>
        <time>2016-07-01T05:56:00Z</time>
      </trkpt>
      <trkpt lat="42.47236" lon="2.21396">
        <ele>2312.59</ele>
        <time>2016-07-01T05:56:01Z</time>
      </trkpt>
      <trkpt lat="42.47239" lon="2.21396">
        <ele>2312.59</ele>
        <time>2016-07-01T05:56:04Z</time>
      </trkpt>
      <trkpt lat="42.47243" lon="2.21397">
        <ele>2313.55</ele>
        <time>2016-07-01T05:56:08Z</time>
      </trkpt>
      <trkpt lat="42.47247" lon="2.21397">
        <ele>2314.03</ele>
        <time>2016-07-01T05:56:13Z</time>
      </trkpt>
      <trkpt lat="42.47248" lon="2.21397">
        <ele>2314.03</ele>
        <time>2016-07-01T05:56:14Z</time>
      </trkpt>
      <trkpt lat="42.47257" lon="2.214">
        <ele>2315.47</ele>
        <time>2016-07-01T05:56:25Z</time>
      </trkpt>
      <trkpt lat="42.47267" lon="2.21401">
        <ele>2317.4</ele>
        <time>2016-07-01T05:56:37Z</time>
      </trkpt>
      <trkpt lat="42.47268" lon="2.21401">
        <ele>2317.4</ele>
        <time>2016-07-01T05:56:38Z</time>
      </trkpt>
      <trkpt lat="42.47279" lon="2.21403">
        <ele>2319.32</ele>
        <time>2016-07-01T05:56:50Z</time>
      </trkpt>
      <trkpt lat="42.47281" lon="2.21404">
        <ele>2319.32</ele>
        <time>2016-07-01T05:56:53Z</time>
      </trkpt>
      <trkpt lat="42.47283" lon="2.21405">
        <ele>2319.8</ele>
        <time>2016-07-01T05:56:56Z</time>
      </trkpt>
      <trkpt lat="42.47293" lon="2.2141">
        <ele>2321.24</ele>
        <time>2016-07-01T05:57:09Z</time>
      </trkpt>
      <trkpt lat="42.47294" lon="2.2141">
        <ele>2321.24</ele>
        <time>2016-07-01T05:57:10Z</time>
      </trkpt>
      <trkpt lat="42.47299" lon="2.21415">
        <ele>2322.68</ele>
        <time>2016-07-01T05:57:17Z</time>
      </trkpt>
      <trkpt lat="42.47306" lon="2.21424">
        <ele>2323.64</ele>
        <time>2016-07-01T05:57:28Z</time>
      </trkpt>
      <trkpt lat="42.47314" lon="2.21433">
        <ele>2325.57</ele>
        <time>2016-07-01T05:57:41Z</time>
      </trkpt>
      <trkpt lat="42.4732" lon="2.21442">
        <ele>2327.01</ele>
        <time>2016-07-01T05:57:52Z</time>
      </trkpt>
      <trkpt lat="42.47325" lon="2.21449">
        <ele>2328.93</ele>
        <time>2016-07-01T05:58:01Z</time>
      </trkpt>
      <trkpt lat="42.4733" lon="2.21458">
        <ele>2329.89</ele>
        <time>2016-07-01T05:58:12Z</time>
      </trkpt>
      <trkpt lat="42.47334" lon="2.21464">
        <ele>2330.85</ele>
        <time>2016-07-01T05:58:19Z</time>
      </trkpt>
      <trkpt lat="42.47339" lon="2.21475">
        <ele>2332.78</ele>
        <time>2016-07-01T05:58:30Z</time>
      </trkpt>
      <trkpt lat="42.47342" lon="2.2148">
        <ele>2333.26</ele>
        <time>2016-07-01T05:58:35Z</time>
      </trkpt>
      <trkpt lat="42.47345" lon="2.21484">
        <ele>2333.74</ele>
        <time>2016-07-01T05:58:40Z</time>
      </trkpt>
      <trkpt lat="42.47346" lon="2.21485">
        <ele>2333.74</ele>
        <time>2016-07-01T05:58:42Z</time>
      </trkpt>
      <trkpt lat="42.47346" lon="2.21487">
        <ele>2334.7</ele>
        <time>2016-07-01T05:58:43Z</time>
      </trkpt>
      <trkpt lat="42.47348" lon="2.21496">
        <ele>2335.66</ele>
        <time>2016-07-01T05:58:52Z</time>
      </trkpt>
      <trkpt lat="42.47347" lon="2.21506">
        <ele>2336.62</ele>
        <time>2016-07-01T05:59:02Z</time>
      </trkpt>
      <trkpt lat="42.47346" lon="2.21505">
        <ele>2338.06</ele>
        <time>2016-07-01T05:59:27Z</time>
      </trkpt>
      <trkpt lat="42.47347" lon="2.21505">
        <ele>2338.06</ele>
        <time>2016-07-01T05:59:45Z</time>
      </trkpt>
      <trkpt lat="42.47347" lon="2.21505">
        <ele>2338.06</ele>
        <time>2016-07-01T06:00:12Z</time>
      </trkpt>
      <trkpt lat="42.47348" lon="2.21507">
        <ele>2339.02</ele>
        <time>2016-07-01T06:00:34Z</time>
      </trkpt>
      <trkpt lat="42.47349" lon="2.21507">
        <ele>2339.02</ele>
        <time>2016-07-01T06:00:35Z</time>
      </trkpt>
      <trkpt lat="42.47352" lon="2.21503">
        <ele>2339.02</ele>
        <time>2016-07-01T06:00:42Z</time>
      </trkpt>
      <trkpt lat="42.47352" lon="2.21502">
        <ele>2339.02</ele>
        <time>2016-07-01T06:00:43Z</time>
      </trkpt>
      <trkpt lat="42.47348" lon="2.21488">
        <ele>2340.47</ele>
        <time>2016-07-01T06:00:56Z</time>
      </trkpt>
      <trkpt lat="42.47348" lon="2.21488">
        <ele>2341.43</ele>
        <time>2016-07-01T06:01:21Z</time>
      </trkpt>
      <trkpt lat="42.4735" lon="2.21479">
        <ele>2341.91</ele>
        <time>2016-07-01T06:01:37Z</time>
      </trkpt>
      <trkpt lat="42.47346" lon="2.2146">
        <ele>2343.35</ele>
        <time>2016-07-01T06:01:50Z</time>
      </trkpt>
      <trkpt lat="42.47346" lon="2.21459">
        <ele>2343.83</ele>
        <time>2016-07-01T06:01:51Z</time>
      </trkpt>
      <trkpt lat="42.47346" lon="2.21457">
        <ele>2343.83</ele>
        <time>2016-07-01T06:01:52Z</time>
      </trkpt>
      <trkpt lat="42.47346" lon="2.21453">
        <ele>2344.31</ele>
        <time>2016-07-01T06:01:55Z</time>
      </trkpt>
      <trkpt lat="42.47345" lon="2.2145">
        <ele>2344.31</ele>
        <time>2016-07-01T06:01:57Z</time>
      </trkpt>
      <trkpt lat="42.47344" lon="2.21449">
        <ele>2344.31</ele>
        <time>2016-07-01T06:01:58Z</time>
      </trkpt>
      <trkpt lat="42.47343" lon="2.21439">
        <ele>2345.27</ele>
        <time>2016-07-01T06:02:06Z</time>
      </trkpt>
      <trkpt lat="42.47343" lon="2.21438">
        <ele>2346.23</ele>
        <time>2016-07-01T06:02:07Z</time>
      </trkpt>
      <trkpt lat="42.47342" lon="2.21423">
        <ele>2347.68</ele>
        <time>2016-07-01T06:02:19Z</time>
      </trkpt>
      <trkpt lat="42.47342" lon="2.21416">
        <ele>2349.12</ele>
        <time>2016-07-01T06:02:26Z</time>
      </trkpt>
      <trkpt lat="42.47339" lon="2.21404">
        <ele>2350.56</ele>
        <time>2016-07-01T06:02:36Z</time>
      </trkpt>
      <trkpt lat="42.47338" lon="2.21396">
        <ele>2351.52</ele>
        <time>2016-07-01T06:02:44Z</time>
      </trkpt>
      <trkpt lat="42.47336" lon="2.21383">
        <ele>2353.44</ele>
        <time>2016-07-01T06:02:56Z</time>
      </trkpt>
      <trkpt lat="42.47336" lon="2.21381">
        <ele>2353.93</ele>
        <time>2016-07-01T06:02:58Z</time>
      </trkpt>
      <trkpt lat="42.47333" lon="2.21369">
        <ele>2355.85</ele>
        <time>2016-07-01T06:03:09Z</time>
      </trkpt>
      <trkpt lat="42.47331" lon="2.21361">
        <ele>2356.33</ele>
        <time>2016-07-01T06:03:16Z</time>
      </trkpt>
      <trkpt lat="42.4733" lon="2.2136">
        <ele>2356.81</ele>
        <time>2016-07-01T06:03:17Z</time>
      </trkpt>
      <trkpt lat="42.47329" lon="2.21358">
        <ele>2356.81</ele>
        <time>2016-07-01T06:03:19Z</time>
      </trkpt>
      <trkpt lat="42.47328" lon="2.21355">
        <ele>2357.77</ele>
        <time>2016-07-01T06:03:21Z</time>
      </trkpt>
      <trkpt lat="42.47326" lon="2.21348">
        <ele>2358.73</ele>
        <time>2016-07-01T06:03:28Z</time>
      </trkpt>
      <trkpt lat="42.47326" lon="2.21346">
        <ele>2358.73</ele>
        <time>2016-07-01T06:03:30Z</time>
      </trkpt>
      <trkpt lat="42.47319" lon="2.21336">
        <ele>2360.65</ele>
        <time>2016-07-01T06:03:41Z</time>
      </trkpt>
      <trkpt lat="42.47318" lon="2.21334">
        <ele>2360.65</ele>
        <time>2016-07-01T06:03:43Z</time>
      </trkpt>
      <trkpt lat="42.47309" lon="2.21326">
        <ele>2362.1</ele>
        <time>2016-07-01T06:03:55Z</time>
      </trkpt>
      <trkpt lat="42.47308" lon="2.21325">
        <ele>2362.1</ele>
        <time>2016-07-01T06:03:56Z</time>
      </trkpt>
      <trkpt lat="42.47303" lon="2.21324">
        <ele>2362.58</ele>
        <time>2016-07-01T06:04:01Z</time>
      </trkpt>
      <trkpt lat="42.47293" lon="2.2132">
        <ele>2364.5</ele>
        <time>2016-07-01T06:04:12Z</time>
      </trkpt>
      <trkpt lat="42.47291" lon="2.21319">
        <ele>2364.5</ele>
        <time>2016-07-01T06:04:14Z</time>
      </trkpt>
      <trkpt lat="42.4729" lon="2.21318">
        <ele>2364.98</ele>
        <time>2016-07-01T06:04:15Z</time>
      </trkpt>
      <trkpt lat="42.47287" lon="2.21314">
        <ele>2365.46</ele>
        <time>2016-07-01T06:04:19Z</time>
      </trkpt>
      <trkpt lat="42.47285" lon="2.21313">
        <ele>2365.46</ele>
        <time>2016-07-01T06:04:21Z</time>
      </trkpt>
      <trkpt lat="42.47283" lon="2.21308">
        <ele>2365.94</ele>
        <time>2016-07-01T06:04:25Z</time>
      </trkpt>
      <trkpt lat="42.47283" lon="2.21306">
        <ele>2365.94</ele>
        <time>2016-07-01T06:04:26Z</time>
      </trkpt>
      <trkpt lat="42.47275" lon="2.21294">
        <ele>2366.9</ele>
        <time>2016-07-01T06:04:37Z</time>
      </trkpt>
      <trkpt lat="42.47275" lon="2.21292">
        <ele>2366.9</ele>
        <time>2016-07-01T06:04:39Z</time>
      </trkpt>
      <trkpt lat="42.47273" lon="2.2129">
        <ele>2366.9</ele>
        <time>2016-07-01T06:04:44Z</time>
      </trkpt>
      <trkpt lat="42.47271" lon="2.21291">
        <ele>2366.9</ele>
        <time>2016-07-01T06:04:46Z</time>
      </trkpt>
      <trkpt lat="42.47269" lon="2.21291">
        <ele>2366.9</ele>
        <time>2016-07-01T06:04:47Z</time>
      </trkpt>
      <trkpt lat="42.47268" lon="2.2129">
        <ele>2366.9</ele>
        <time>2016-07-01T06:04:48Z</time>
      </trkpt>
      <trkpt lat="42.47267" lon="2.21289">
        <ele>2366.9</ele>
        <time>2016-07-01T06:04:49Z</time>
      </trkpt>
      <trkpt lat="42.47266" lon="2.21289">
        <ele>2366.9</ele>
        <time>2016-07-01T06:04:50Z</time>
      </trkpt>
      <trkpt lat="42.4726" lon="2.21285">
        <ele>2366.9</ele>
        <time>2016-07-01T06:04:57Z</time>
      </trkpt>
      <trkpt lat="42.47259" lon="2.21284">
        <ele>2366.9</ele>
        <time>2016-07-01T06:04:58Z</time>
      </trkpt>
      <trkpt lat="42.47257" lon="2.21283">
        <ele>2365.94</ele>
        <time>2016-07-01T06:04:59Z</time>
      </trkpt>
      <trkpt lat="42.47256" lon="2.21283">
        <ele>2365.94</ele>
        <time>2016-07-01T06:05:00Z</time>
      </trkpt>
      <trkpt lat="42.47255" lon="2.21283">
        <ele>2365.46</ele>
        <time>2016-07-01T06:05:01Z</time>
      </trkpt>
      <trkpt lat="42.47254" lon="2.21282">
        <ele>2365.46</ele>
        <time>2016-07-01T06:05:02Z</time>
      </trkpt>
      <trkpt lat="42.47235" lon="2.21282">
        <ele>2364.02</ele>
        <time>2016-07-01T06:05:16Z</time>
      </trkpt>
      <trkpt lat="42.4722" lon="2.21275">
        <ele>2362.58</ele>
        <time>2016-07-01T06:05:28Z</time>
      </trkpt>
      <trkpt lat="42.4722" lon="2.21273">
        <ele>2362.58</ele>
        <time>2016-07-01T06:05:29Z</time>
      </trkpt>
      <trkpt lat="42.47217" lon="2.21269">
        <ele>2361.14</ele>
        <time>2016-07-01T06:05:43Z</time>
      </trkpt>
      <trkpt lat="42.47218" lon="2.2127">
        <ele>2361.14</ele>
        <time>2016-07-01T06:06:04Z</time>
      </trkpt>
      <trkpt lat="42.47218" lon="2.2127">
        <ele>2361.14</ele>
        <time>2016-07-01T06:06:31Z</time>
      </trkpt>
      <trkpt lat="42.47218" lon="2.21266">
        <ele>2360.65</ele>
        <time>2016-07-01T06:06:43Z</time>
      </trkpt>
      <trkpt lat="42.47222" lon="2.21248">
        <ele>2360.65</ele>
        <time>2016-07-01T06:06:54Z</time>
      </trkpt>
      <trkpt lat="42.47222" lon="2.21246">
        <ele>2360.65</ele>
        <time>2016-07-01T06:06:55Z</time>
      </trkpt>
      <trkpt lat="42.4723" lon="2.2123">
        <ele>2359.69</ele>
        <time>2016-07-01T06:07:05Z</time>
      </trkpt>
      <trkpt lat="42.47232" lon="2.21226">
        <ele>2359.21</ele>
        <time>2016-07-01T06:07:09Z</time>
      </trkpt>
      <trkpt lat="42.47233" lon="2.21223">
        <ele>2358.73</ele>
        <time>2016-07-01T06:07:11Z</time>
      </trkpt>
      <trkpt lat="42.47234" lon="2.21222">
        <ele>2358.73</ele>
        <time>2016-07-01T06:07:12Z</time>
      </trkpt>
      <trkpt lat="42.47235" lon="2.21221">
        <ele>2358.73</ele>
        <time>2016-07-01T06:07:13Z</time>
      </trkpt>
      <trkpt lat="42.47236" lon="2.2122">
        <ele>2358.73</ele>
        <time>2016-07-01T06:07:14Z</time>
      </trkpt>
      <trkpt lat="42.47237" lon="2.21219">
        <ele>2358.73</ele>
        <time>2016-07-01T06:07:15Z</time>
      </trkpt>
      <trkpt lat="42.47237" lon="2.21218">
        <ele>2358.73</ele>
        <time>2016-07-01T06:07:16Z</time>
      </trkpt>
      <trkpt lat="42.47238" lon="2.21216">
        <ele>2358.25</ele>
        <time>2016-07-01T06:07:17Z</time>
      </trkpt>
      <trkpt lat="42.47238" lon="2.21215">
        <ele>2358.25</ele>
        <time>2016-07-01T06:07:18Z</time>
      </trkpt>
      <trkpt lat="42.47239" lon="2.21213">
        <ele>2358.25</ele>
        <time>2016-07-01T06:07:19Z</time>
      </trkpt>
      <trkpt lat="42.4724" lon="2.21211">
        <ele>2358.25</ele>
        <time>2016-07-01T06:07:20Z</time>
      </trkpt>
      <trkpt lat="42.4724" lon="2.2121">
        <ele>2358.25</ele>
        <time>2016-07-01T06:07:21Z</time>
      </trkpt>
      <trkpt lat="42.47241" lon="2.21209">
        <ele>2358.25</ele>
        <time>2016-07-01T06:07:22Z</time>
      </trkpt>
      <trkpt lat="42.47242" lon="2.21207">
        <ele>2357.29</ele>
        <time>2016-07-01T06:07:23Z</time>
      </trkpt>
      <trkpt lat="42.47243" lon="2.21205">
        <ele>2357.29</ele>
        <time>2016-07-01T06:07:24Z</time>
      </trkpt>
      <trkpt lat="42.47244" lon="2.21204">
        <ele>2357.29</ele>
        <time>2016-07-01T06:07:25Z</time>
      </trkpt>
      <trkpt lat="42.47245" lon="2.21201">
        <ele>2356.81</ele>
        <time>2016-07-01T06:07:27Z</time>
      </trkpt>
      <trkpt lat="42.47246" lon="2.212">
        <ele>2356.81</ele>
        <time>2016-07-01T06:07:28Z</time>
      </trkpt>
      <trkpt lat="42.47247" lon="2.21199">
        <ele>2356.81</ele>
        <time>2016-07-01T06:07:29Z</time>
      </trkpt>
      <trkpt lat="42.47248" lon="2.21197">
        <ele>2356.33</ele>
        <time>2016-07-01T06:07:30Z</time>
      </trkpt>
      <trkpt lat="42.47248" lon="2.21196">
        <ele>2356.33</ele>
        <time>2016-07-01T06:07:31Z</time>
      </trkpt>
      <trkpt lat="42.47252" lon="2.21187">
        <ele>2355.37</ele>
        <time>2016-07-01T06:07:36Z</time>
      </trkpt>
      <trkpt lat="42.4726" lon="2.2117">
        <ele>2352.96</ele>
        <time>2016-07-01T06:07:46Z</time>
      </trkpt>
      <trkpt lat="42.4726" lon="2.21168">
        <ele>2352.96</ele>
        <time>2016-07-01T06:07:47Z</time>
      </trkpt>
      <trkpt lat="42.4726" lon="2.21167">
        <ele>2352.96</ele>
        <time>2016-07-01T06:07:48Z</time>
      </trkpt>
      <trkpt lat="42.47258" lon="2.21158">
        <ele>2350.08</ele>
        <time>2016-07-01T06:07:53Z</time>
      </trkpt>
      <trkpt lat="42.47256" lon="2.21151">
        <ele>2346.23</ele>
        <time>2016-07-01T06:07:57Z</time>
      </trkpt>
      <trkpt lat="42.47257" lon="2.21142">
        <ele>2343.83</ele>
        <time>2016-07-01T06:08:02Z</time>
      </trkpt>
      <trkpt lat="42.4726" lon="2.21116">
        <ele>2342.39</ele>
        <time>2016-07-01T06:08:17Z</time>
      </trkpt>
      <trkpt lat="42.47262" lon="2.21105">
        <ele>2339.02</ele>
        <time>2016-07-01T06:08:23Z</time>
      </trkpt>
      <trkpt lat="42.47261" lon="2.211">
        <ele>2335.18</ele>
        <time>2016-07-01T06:08:27Z</time>
      </trkpt>
      <trkpt lat="42.47258" lon="2.2109">
        <ele>2332.78</ele>
        <time>2016-07-01T06:08:33Z</time>
      </trkpt>
      <trkpt lat="42.47259" lon="2.21077">
        <ele>2332.78</ele>
        <time>2016-07-01T06:08:41Z</time>
      </trkpt>
      <trkpt lat="42.4726" lon="2.21074">
        <ele>2332.78</ele>
        <time>2016-07-01T06:08:43Z</time>
      </trkpt>
      <trkpt lat="42.47266" lon="2.21066">
        <ele>2331.81</ele>
        <time>2016-07-01T06:08:51Z</time>
      </trkpt>
      <trkpt lat="42.47267" lon="2.21062">
        <ele>2330.37</ele>
        <time>2016-07-01T06:08:54Z</time>
      </trkpt>
      <trkpt lat="42.4727" lon="2.21057">
        <ele>2327.01</ele>
        <time>2016-07-01T06:08:59Z</time>
      </trkpt>
      <trkpt lat="42.47274" lon="2.21053">
        <ele>2323.64</ele>
        <time>2016-07-01T06:09:03Z</time>
      </trkpt>
      <trkpt lat="42.47275" lon="2.2105">
        <ele>2322.68</ele>
        <time>2016-07-01T06:09:05Z</time>
      </trkpt>
      <trkpt lat="42.47277" lon="2.21041">
        <ele>2322.2</ele>
        <time>2016-07-01T06:09:11Z</time>
      </trkpt>
      <trkpt lat="42.47282" lon="2.21032">
        <ele>2321.72</ele>
        <time>2016-07-01T06:09:17Z</time>
      </trkpt>
      <trkpt lat="42.47282" lon="2.21027">
        <ele>2321.24</ele>
        <time>2016-07-01T06:09:21Z</time>
      </trkpt>
      <trkpt lat="42.47284" lon="2.21024">
        <ele>2320.28</ele>
        <time>2016-07-01T06:09:24Z</time>
      </trkpt>
      <trkpt lat="42.47283" lon="2.21008">
        <ele>2317.4</ele>
        <time>2016-07-01T06:09:34Z</time>
      </trkpt>
      <trkpt lat="42.47284" lon="2.21002">
        <ele>2314.03</ele>
        <time>2016-07-01T06:09:38Z</time>
      </trkpt>
      <trkpt lat="42.47284" lon="2.21">
        <ele>2313.07</ele>
        <time>2016-07-01T06:09:39Z</time>
      </trkpt>
      <trkpt lat="42.47288" lon="2.20994">
        <ele>2310.19</ele>
        <time>2016-07-01T06:09:44Z</time>
      </trkpt>
      <trkpt lat="42.47295" lon="2.20987">
        <ele>2309.7</ele>
        <time>2016-07-01T06:09:50Z</time>
      </trkpt>
      <trkpt lat="42.47298" lon="2.20985">
        <ele>2309.7</ele>
        <time>2016-07-01T06:09:53Z</time>
      </trkpt>
      <trkpt lat="42.47306" lon="2.20976">
        <ele>2307.78</ele>
        <time>2016-07-01T06:10:01Z</time>
      </trkpt>
      <trkpt lat="42.47311" lon="2.20968">
        <ele>2303.94</ele>
        <time>2016-07-01T06:10:07Z</time>
      </trkpt>
      <trkpt lat="42.47312" lon="2.20967">
        <ele>2303.46</ele>
        <time>2016-07-01T06:10:08Z</time>
      </trkpt>
      <trkpt lat="42.47317" lon="2.20955">
        <ele>2300.09</ele>
        <time>2016-07-01T06:10:18Z</time>
      </trkpt>
      <trkpt lat="42.47323" lon="2.20947">
        <ele>2300.09</ele>
        <time>2016-07-01T06:10:30Z</time>
      </trkpt>
      <trkpt lat="42.47323" lon="2.20944">
        <ele>2298.65</ele>
        <time>2016-07-01T06:10:42Z</time>
      </trkpt>
      <trkpt lat="42.47323" lon="2.20942">
        <ele>2298.17</ele>
        <time>2016-07-01T06:10:55Z</time>
      </trkpt>
      <trkpt lat="42.47324" lon="2.20932">
        <ele>2296.73</ele>
        <time>2016-07-01T06:11:05Z</time>
      </trkpt>
      <trkpt lat="42.47325" lon="2.20921">
        <ele>2292.4</ele>
        <time>2016-07-01T06:11:13Z</time>
      </trkpt>
      <trkpt lat="42.47326" lon="2.20919">
        <ele>2289.52</ele>
        <time>2016-07-01T06:11:17Z</time>
      </trkpt>
      <trkpt lat="42.47327" lon="2.20914">
        <ele>2288.56</ele>
        <time>2016-07-01T06:11:25Z</time>
      </trkpt>
      <trkpt lat="42.47329" lon="2.20908">
        <ele>2288.56</ele>
        <time>2016-07-01T06:11:29Z</time>
      </trkpt>
      <trkpt lat="42.47335" lon="2.20902">
        <ele>2288.08</ele>
        <time>2016-07-01T06:11:39Z</time>
      </trkpt>
      <trkpt lat="42.47335" lon="2.20901">
        <ele>2287.59</ele>
        <time>2016-07-01T06:12:04Z</time>
      </trkpt>
      <trkpt lat="42.47333" lon="2.20894">
        <ele>2286.63</ele>
        <time>2016-07-01T06:12:20Z</time>
      </trkpt>
      <trkpt lat="42.47332" lon="2.20893">
        <ele>2286.63</ele>
        <time>2016-07-01T06:12:22Z</time>
      </trkpt>
      <trkpt lat="42.47333" lon="2.20887">
        <ele>2285.67</ele>
        <time>2016-07-01T06:12:27Z</time>
      </trkpt>
      <trkpt lat="42.47335" lon="2.20885">
        <ele>2285.19</ele>
        <time>2016-07-01T06:12:29Z</time>
      </trkpt>
      <trkpt lat="42.47341" lon="2.20882">
        <ele>2284.23</ele>
        <time>2016-07-01T06:12:35Z</time>
      </trkpt>
      <trkpt lat="42.4735" lon="2.20878">
        <ele>2282.79</ele>
        <time>2016-07-01T06:12:44Z</time>
      </trkpt>
      <trkpt lat="42.47355" lon="2.20875">
        <ele>2282.31</ele>
        <time>2016-07-01T06:12:49Z</time>
      </trkpt>
      <trkpt lat="42.47369" lon="2.20872">
        <ele>2280.38</ele>
        <time>2016-07-01T06:13:01Z</time>
      </trkpt>
      <trkpt lat="42.47372" lon="2.2087">
        <ele>2280.38</ele>
        <time>2016-07-01T06:13:04Z</time>
      </trkpt>
      <trkpt lat="42.47373" lon="2.20869">
        <ele>2279.9</ele>
        <time>2016-07-01T06:13:05Z</time>
      </trkpt>
      <trkpt lat="42.47374" lon="2.20868">
        <ele>2279.9</ele>
        <time>2016-07-01T06:13:06Z</time>
      </trkpt>
      <trkpt lat="42.47374" lon="2.20866">
        <ele>2279.9</ele>
        <time>2016-07-01T06:13:08Z</time>
      </trkpt>
      <trkpt lat="42.47373" lon="2.20865">
        <ele>2279.42</ele>
        <time>2016-07-01T06:13:09Z</time>
      </trkpt>
      <trkpt lat="42.47372" lon="2.20864">
        <ele>2279.42</ele>
        <time>2016-07-01T06:13:10Z</time>
      </trkpt>
      <trkpt lat="42.47371" lon="2.20863">
        <ele>2278.94</ele>
        <time>2016-07-01T06:13:11Z</time>
      </trkpt>
      <trkpt lat="42.4737" lon="2.20862">
        <ele>2278.94</ele>
        <time>2016-07-01T06:13:12Z</time>
      </trkpt>
      <trkpt lat="42.47369" lon="2.20861">
        <ele>2278.94</ele>
        <time>2016-07-01T06:13:13Z</time>
      </trkpt>
      <trkpt lat="42.47369" lon="2.2086">
        <ele>2278.46</ele>
        <time>2016-07-01T06:13:14Z</time>
      </trkpt>
      <trkpt lat="42.47368" lon="2.20859">
        <ele>2277.98</ele>
        <time>2016-07-01T06:13:15Z</time>
      </trkpt>
      <trkpt lat="42.47363" lon="2.20853">
        <ele>2274.62</ele>
        <time>2016-07-01T06:13:20Z</time>
      </trkpt>
      <trkpt lat="42.47354" lon="2.20845">
        <ele>2271.73</ele>
        <time>2016-07-01T06:13:27Z</time>
      </trkpt>
      <trkpt lat="42.4734" lon="2.20833">
        <ele>2271.73</ele>
        <time>2016-07-01T06:13:40Z</time>
      </trkpt>
      <trkpt lat="42.47336" lon="2.2083">
        <ele>2271.73</ele>
        <time>2016-07-01T06:13:43Z</time>
      </trkpt>
      <trkpt lat="42.47335" lon="2.20827">
        <ele>2271.25</ele>
        <time>2016-07-01T06:13:45Z</time>
      </trkpt>
      <trkpt lat="42.47339" lon="2.20818">
        <ele>2269.81</ele>
        <time>2016-07-01T06:13:52Z</time>
      </trkpt>
      <trkpt lat="42.47338" lon="2.20817">
        <ele>2269.81</ele>
        <time>2016-07-01T06:13:54Z</time>
      </trkpt>
      <trkpt lat="42.47333" lon="2.20815">
        <ele>2265</ele>
        <time>2016-07-01T06:13:59Z</time>
      </trkpt>
      <trkpt lat="42.47332" lon="2.20815">
        <ele>2264.52</ele>
        <time>2016-07-01T06:14:00Z</time>
      </trkpt>
      <trkpt lat="42.47329" lon="2.20811">
        <ele>2262.12</ele>
        <time>2016-07-01T06:14:03Z</time>
      </trkpt>
      <trkpt lat="42.47329" lon="2.20805">
        <ele>2261.16</ele>
        <time>2016-07-01T06:14:07Z</time>
      </trkpt>
      <trkpt lat="42.47333" lon="2.20797">
        <ele>2260.68</ele>
        <time>2016-07-01T06:14:13Z</time>
      </trkpt>
      <trkpt lat="42.47332" lon="2.2079">
        <ele>2260.68</ele>
        <time>2016-07-01T06:14:18Z</time>
      </trkpt>
      <trkpt lat="42.47338" lon="2.2078">
        <ele>2258.75</ele>
        <time>2016-07-01T06:14:27Z</time>
      </trkpt>
      <trkpt lat="42.47341" lon="2.20776">
        <ele>2255.39</ele>
        <time>2016-07-01T06:14:31Z</time>
      </trkpt>
      <trkpt lat="42.47344" lon="2.20772">
        <ele>2252.51</ele>
        <time>2016-07-01T06:14:34Z</time>
      </trkpt>
      <trkpt lat="42.47349" lon="2.20762">
        <ele>2250.58</ele>
        <time>2016-07-01T06:14:42Z</time>
      </trkpt>
      <trkpt lat="42.47353" lon="2.20755">
        <ele>2250.1</ele>
        <time>2016-07-01T06:14:48Z</time>
      </trkpt>
      <trkpt lat="42.47357" lon="2.20751">
        <ele>2248.66</ele>
        <time>2016-07-01T06:14:58Z</time>
      </trkpt>
      <trkpt lat="42.47358" lon="2.2075">
        <ele>2248.66</ele>
        <time>2016-07-01T06:15:00Z</time>
      </trkpt>
      <trkpt lat="42.47363" lon="2.20739">
        <ele>2243.85</ele>
        <time>2016-07-01T06:15:08Z</time>
      </trkpt>
      <trkpt lat="42.47364" lon="2.20733">
        <ele>2240.49</ele>
        <time>2016-07-01T06:15:12Z</time>
      </trkpt>
      <trkpt lat="42.47365" lon="2.20732">
        <ele>2239.53</ele>
        <time>2016-07-01T06:15:13Z</time>
      </trkpt>
      <trkpt lat="42.47366" lon="2.2073">
        <ele>2239.53</ele>
        <time>2016-07-01T06:15:15Z</time>
      </trkpt>
      <trkpt lat="42.47369" lon="2.20728">
        <ele>2238.57</ele>
        <time>2016-07-01T06:15:18Z</time>
      </trkpt>
      <trkpt lat="42.47374" lon="2.20721">
        <ele>2238.57</ele>
        <time>2016-07-01T06:15:24Z</time>
      </trkpt>
      <trkpt lat="42.47375" lon="2.20717">
        <ele>2238.09</ele>
        <time>2016-07-01T06:15:27Z</time>
      </trkpt>
      <trkpt lat="42.47378" lon="2.20714">
        <ele>2238.09</ele>
        <time>2016-07-01T06:15:30Z</time>
      </trkpt>
      <trkpt lat="42.47382" lon="2.20702">
        <ele>2234.24</ele>
        <time>2016-07-01T06:15:40Z</time>
      </trkpt>
      <trkpt lat="42.47383" lon="2.20701">
        <ele>2233.28</ele>
        <time>2016-07-01T06:15:41Z</time>
      </trkpt>
      <trkpt lat="42.47384" lon="2.20699">
        <ele>2231.36</ele>
        <time>2016-07-01T06:15:43Z</time>
      </trkpt>
      <trkpt lat="42.47389" lon="2.20691">
        <ele>2227.03</ele>
        <time>2016-07-01T06:15:50Z</time>
      </trkpt>
      <trkpt lat="42.47394" lon="2.2068">
        <ele>2227.03</ele>
        <time>2016-07-01T06:15:59Z</time>
      </trkpt>
      <trkpt lat="42.47397" lon="2.20678">
        <ele>2226.55</ele>
        <time>2016-07-01T06:16:03Z</time>
      </trkpt>
      <trkpt lat="42.47402" lon="2.20667">
        <ele>2222.22</ele>
        <time>2016-07-01T06:16:13Z</time>
      </trkpt>
      <trkpt lat="42.47403" lon="2.20665">
        <ele>2220.3</ele>
        <time>2016-07-01T06:16:15Z</time>
      </trkpt>
      <trkpt lat="42.47404" lon="2.20656">
        <ele>2216.46</ele>
        <time>2016-07-01T06:16:22Z</time>
      </trkpt>
      <trkpt lat="42.47405" lon="2.20655">
        <ele>2216.46</ele>
        <time>2016-07-01T06:16:23Z</time>
      </trkpt>
      <trkpt lat="42.47406" lon="2.20653">
        <ele>2216.46</ele>
        <time>2016-07-01T06:16:25Z</time>
      </trkpt>
      <trkpt lat="42.47408" lon="2.20652">
        <ele>2216.46</ele>
        <time>2016-07-01T06:16:27Z</time>
      </trkpt>
      <trkpt lat="42.47414" lon="2.20639">
        <ele>2215.01</ele>
        <time>2016-07-01T06:16:39Z</time>
      </trkpt>
      <trkpt lat="42.47413" lon="2.20632">
        <ele>2213.57</ele>
        <time>2016-07-01T06:16:47Z</time>
      </trkpt>
      <trkpt lat="42.47414" lon="2.20629">
        <ele>2213.09</ele>
        <time>2016-07-01T06:16:49Z</time>
      </trkpt>
      <trkpt lat="42.47419" lon="2.20623">
        <ele>2209.25</ele>
        <time>2016-07-01T06:16:54Z</time>
      </trkpt>
      <trkpt lat="42.47421" lon="2.20621">
        <ele>2205.88</ele>
        <time>2016-07-01T06:16:58Z</time>
      </trkpt>
      <trkpt lat="42.47422" lon="2.20617">
        <ele>2205.4</ele>
        <time>2016-07-01T06:17:01Z</time>
      </trkpt>
      <trkpt lat="42.47422" lon="2.2061">
        <ele>2204.92</ele>
        <time>2016-07-01T06:17:05Z</time>
      </trkpt>
      <trkpt lat="42.47425" lon="2.20606">
        <ele>2204.92</ele>
        <time>2016-07-01T06:17:09Z</time>
      </trkpt>
      <trkpt lat="42.47428" lon="2.20605">
        <ele>2204.92</ele>
        <time>2016-07-01T06:17:12Z</time>
      </trkpt>
      <trkpt lat="42.47429" lon="2.20602">
        <ele>2204.92</ele>
        <time>2016-07-01T06:17:14Z</time>
      </trkpt>
      <trkpt lat="42.4743" lon="2.20599">
        <ele>2204.44</ele>
        <time>2016-07-01T06:17:17Z</time>
      </trkpt>
      <trkpt lat="42.47432" lon="2.20594">
        <ele>2203.48</ele>
        <time>2016-07-01T06:17:21Z</time>
      </trkpt>
      <trkpt lat="42.47436" lon="2.20586">
        <ele>2199.15</ele>
        <time>2016-07-01T06:17:27Z</time>
      </trkpt>
      <trkpt lat="42.47438" lon="2.20584">
        <ele>2196.75</ele>
        <time>2016-07-01T06:17:29Z</time>
      </trkpt>
      <trkpt lat="42.4744" lon="2.20576">
        <ele>2193.39</ele>
        <time>2016-07-01T06:17:38Z</time>
      </trkpt>
      <trkpt lat="42.47442" lon="2.20556">
        <ele>2191.94</ele>
        <time>2016-07-01T06:17:51Z</time>
      </trkpt>
      <trkpt lat="42.47444" lon="2.2055">
        <ele>2189.54</ele>
        <time>2016-07-01T06:17:57Z</time>
      </trkpt>
      <trkpt lat="42.47445" lon="2.20544">
        <ele>2185.21</ele>
        <time>2016-07-01T06:18:02Z</time>
      </trkpt>
      <trkpt lat="42.47445" lon="2.20534">
        <ele>2183.77</ele>
        <time>2016-07-01T06:18:10Z</time>
      </trkpt>
      <trkpt lat="42.47444" lon="2.20527">
        <ele>2183.29</ele>
        <time>2016-07-01T06:18:15Z</time>
      </trkpt>
      <trkpt lat="42.47444" lon="2.20521">
        <ele>2183.29</ele>
        <time>2016-07-01T06:18:19Z</time>
      </trkpt>
      <trkpt lat="42.47445" lon="2.20519">
        <ele>2182.33</ele>
        <time>2016-07-01T06:18:21Z</time>
      </trkpt>
      <trkpt lat="42.47445" lon="2.20517">
        <ele>2182.33</ele>
        <time>2016-07-01T06:18:23Z</time>
      </trkpt>
      <trkpt lat="42.47448" lon="2.20515">
        <ele>2181.85</ele>
        <time>2016-07-01T06:18:25Z</time>
      </trkpt>
      <trkpt lat="42.47451" lon="2.20505">
        <ele>2178.48</ele>
        <time>2016-07-01T06:18:32Z</time>
      </trkpt>
      <trkpt lat="42.47452" lon="2.20504">
        <ele>2177.52</ele>
        <time>2016-07-01T06:18:33Z</time>
      </trkpt>
      <trkpt lat="42.47453" lon="2.20501">
        <ele>2175.6</ele>
        <time>2016-07-01T06:18:36Z</time>
      </trkpt>
      <trkpt lat="42.47453" lon="2.20497">
        <ele>2175.12</ele>
        <time>2016-07-01T06:18:38Z</time>
      </trkpt>
      <trkpt lat="42.47456" lon="2.20494">
        <ele>2174.16</ele>
        <time>2016-07-01T06:18:42Z</time>
      </trkpt>
      <trkpt lat="42.47459" lon="2.20483">
        <ele>2173.68</ele>
        <time>2016-07-01T06:18:55Z</time>
      </trkpt>
      <trkpt lat="42.47465" lon="2.2048">
        <ele>2172.72</ele>
        <time>2016-07-01T06:19:06Z</time>
      </trkpt>
      <trkpt lat="42.47465" lon="2.2048">
        <ele>2172.72</ele>
        <time>2016-07-01T06:19:07Z</time>
      </trkpt>
      <trkpt lat="42.47468" lon="2.20471">
        <ele>2168.87</ele>
        <time>2016-07-01T06:19:15Z</time>
      </trkpt>
      <trkpt lat="42.4747" lon="2.20469">
        <ele>2167.43</ele>
        <time>2016-07-01T06:19:17Z</time>
      </trkpt>
      <trkpt lat="42.47476" lon="2.20466">
        <ele>2165.51</ele>
        <time>2016-07-01T06:19:24Z</time>
      </trkpt>
      <trkpt lat="42.47483" lon="2.20459">
        <ele>2165.03</ele>
        <time>2016-07-01T06:19:34Z</time>
      </trkpt>
      <trkpt lat="42.47484" lon="2.20449">
        <ele>2161.18</ele>
        <time>2016-07-01T06:19:41Z</time>
      </trkpt>
      <trkpt lat="42.47487" lon="2.20441">
        <ele>2157.82</ele>
        <time>2016-07-01T06:19:46Z</time>
      </trkpt>
      <trkpt lat="42.47488" lon="2.20437">
        <ele>2157.34</ele>
        <time>2016-07-01T06:19:49Z</time>
      </trkpt>
      <trkpt lat="42.47491" lon="2.20429">
        <ele>2157.34</ele>
        <time>2016-07-01T06:19:58Z</time>
      </trkpt>
      <trkpt lat="42.47496" lon="2.20422">
        <ele>2155.89</ele>
        <time>2016-07-01T06:20:09Z</time>
      </trkpt>
      <trkpt lat="42.47501" lon="2.2042">
        <ele>2152.53</ele>
        <time>2016-07-01T06:20:16Z</time>
      </trkpt>
      <trkpt lat="42.47503" lon="2.20415">
        <ele>2148.68</ele>
        <time>2016-07-01T06:20:21Z</time>
      </trkpt>
      <trkpt lat="42.47508" lon="2.20405">
        <ele>2146.76</ele>
        <time>2016-07-01T06:20:33Z</time>
      </trkpt>
      <trkpt lat="42.47508" lon="2.20403">
        <ele>2146.76</ele>
        <time>2016-07-01T06:20:35Z</time>
      </trkpt>
      <trkpt lat="42.47512" lon="2.20397">
        <ele>2146.28</ele>
        <time>2016-07-01T06:20:41Z</time>
      </trkpt>
      <trkpt lat="42.47514" lon="2.2039">
        <ele>2144.84</ele>
        <time>2016-07-01T06:20:47Z</time>
      </trkpt>
      <trkpt lat="42.47512" lon="2.20381">
        <ele>2143.88</ele>
        <time>2016-07-01T06:20:53Z</time>
      </trkpt>
      <trkpt lat="42.47514" lon="2.20377">
        <ele>2141.95</ele>
        <time>2016-07-01T06:21:03Z</time>
      </trkpt>
      <trkpt lat="42.47515" lon="2.20377">
        <ele>2141.95</ele>
        <time>2016-07-01T06:21:04Z</time>
      </trkpt>
      <trkpt lat="42.47518" lon="2.20373">
        <ele>2138.11</ele>
        <time>2016-07-01T06:21:10Z</time>
      </trkpt>
      <trkpt lat="42.47522" lon="2.20372">
        <ele>2135.71</ele>
        <time>2016-07-01T06:21:15Z</time>
      </trkpt>
      <trkpt lat="42.47523" lon="2.20369">
        <ele>2135.71</ele>
        <time>2016-07-01T06:21:19Z</time>
      </trkpt>
      <trkpt lat="42.47522" lon="2.20358">
        <ele>2134.74</ele>
        <time>2016-07-01T06:21:29Z</time>
      </trkpt>
      <trkpt lat="42.47521" lon="2.20355">
        <ele>2134.26</ele>
        <time>2016-07-01T06:21:31Z</time>
      </trkpt>
      <trkpt lat="42.47527" lon="2.20352">
        <ele>2133.3</ele>
        <time>2016-07-01T06:21:39Z</time>
      </trkpt>
      <trkpt lat="42.47528" lon="2.20352">
        <ele>2132.82</ele>
        <time>2016-07-01T06:21:41Z</time>
      </trkpt>
      <trkpt lat="42.4753" lon="2.20345">
        <ele>2130.9</ele>
        <time>2016-07-01T06:21:52Z</time>
      </trkpt>
      <trkpt lat="42.47534" lon="2.2034">
        <ele>2128.98</ele>
        <time>2016-07-01T06:21:59Z</time>
      </trkpt>
      <trkpt lat="42.47536" lon="2.20334">
        <ele>2125.13</ele>
        <time>2016-07-01T06:22:04Z</time>
      </trkpt>
      <trkpt lat="42.47534" lon="2.20329">
        <ele>2122.25</ele>
        <time>2016-07-01T06:22:08Z</time>
      </trkpt>
      <trkpt lat="42.47538" lon="2.20325">
        <ele>2121.77</ele>
        <time>2016-07-01T06:22:14Z</time>
      </trkpt>
      <trkpt lat="42.4754" lon="2.20318">
        <ele>2121.77</ele>
        <time>2016-07-01T06:22:19Z</time>
      </trkpt>
      <trkpt lat="42.47542" lon="2.20313">
        <ele>2121.29</ele>
        <time>2016-07-01T06:22:24Z</time>
      </trkpt>
      <trkpt lat="42.47541" lon="2.20303">
        <ele>2119.84</ele>
        <time>2016-07-01T06:22:34Z</time>
      </trkpt>
      <trkpt lat="42.47543" lon="2.203">
        <ele>2119.36</ele>
        <time>2016-07-01T06:22:38Z</time>
      </trkpt>
      <trkpt lat="42.47544" lon="2.20298">
        <ele>2118.4</ele>
        <time>2016-07-01T06:22:40Z</time>
      </trkpt>
      <trkpt lat="42.47547" lon="2.20295">
        <ele>2117.92</ele>
        <time>2016-07-01T06:22:43Z</time>
      </trkpt>
      <trkpt lat="42.47549" lon="2.2029">
        <ele>2117.44</ele>
        <time>2016-07-01T06:22:47Z</time>
      </trkpt>
      <trkpt lat="42.47549" lon="2.20285">
        <ele>2116</ele>
        <time>2016-07-01T06:22:52Z</time>
      </trkpt>
      <trkpt lat="42.4755" lon="2.20282">
        <ele>2116</ele>
        <time>2016-07-01T06:22:54Z</time>
      </trkpt>
      <trkpt lat="42.47553" lon="2.20275">
        <ele>2115.04</ele>
        <time>2016-07-01T06:23:00Z</time>
      </trkpt>
      <trkpt lat="42.47556" lon="2.20261">
        <ele>2113.6</ele>
        <time>2016-07-01T06:23:09Z</time>
      </trkpt>
      <trkpt lat="42.47557" lon="2.20258">
        <ele>2112.63</ele>
        <time>2016-07-01T06:23:11Z</time>
      </trkpt>
      <trkpt lat="42.47558" lon="2.20253">
        <ele>2112.15</ele>
        <time>2016-07-01T06:23:14Z</time>
      </trkpt>
      <trkpt lat="42.47562" lon="2.2024">
        <ele>2111.19</ele>
        <time>2016-07-01T06:23:23Z</time>
      </trkpt>
      <trkpt lat="42.47565" lon="2.20223">
        <ele>2109.27</ele>
        <time>2016-07-01T06:23:37Z</time>
      </trkpt>
      <trkpt lat="42.47568" lon="2.20214">
        <ele>2107.35</ele>
        <time>2016-07-01T06:23:47Z</time>
      </trkpt>
      <trkpt lat="42.47568" lon="2.20206">
        <ele>2104.46</ele>
        <time>2016-07-01T06:23:52Z</time>
      </trkpt>
      <trkpt lat="42.47569" lon="2.20194">
        <ele>2102.06</ele>
        <time>2016-07-01T06:24:03Z</time>
      </trkpt>
      <trkpt lat="42.4757" lon="2.20185">
        <ele>2102.06</ele>
        <time>2016-07-01T06:24:12Z</time>
      </trkpt>
      <trkpt lat="42.47572" lon="2.20176">
        <ele>2100.62</ele>
        <time>2016-07-01T06:24:21Z</time>
      </trkpt>
      <trkpt lat="42.47572" lon="2.20172">
        <ele>2100.14</ele>
        <time>2016-07-01T06:24:24Z</time>
      </trkpt>
      <trkpt lat="42.47576" lon="2.20163">
        <ele>2099.18</ele>
        <time>2016-07-01T06:24:31Z</time>
      </trkpt>
      <trkpt lat="42.47577" lon="2.20145">
        <ele>2095.81</ele>
        <time>2016-07-01T06:24:44Z</time>
      </trkpt>
      <trkpt lat="42.47577" lon="2.20143">
        <ele>2096.29</ele>
        <time>2016-07-01T06:24:46Z</time>
      </trkpt>
      <trkpt lat="42.47575" lon="2.20124">
        <ele>2093.89</ele>
        <time>2016-07-01T06:24:59Z</time>
      </trkpt>
      <trkpt lat="42.47575" lon="2.20123">
        <ele>2093.41</ele>
        <time>2016-07-01T06:25:01Z</time>
      </trkpt>
      <trkpt lat="42.47576" lon="2.20118">
        <ele>2092.45</ele>
        <time>2016-07-01T06:25:15Z</time>
      </trkpt>
      <trkpt lat="42.47576" lon="2.20116">
        <ele>2091.49</ele>
        <time>2016-07-01T06:25:16Z</time>
      </trkpt>
      <trkpt lat="42.47578" lon="2.201">
        <ele>2090.04</ele>
        <time>2016-07-01T06:25:29Z</time>
      </trkpt>
      <trkpt lat="42.47579" lon="2.20099">
        <ele>2090.04</ele>
        <time>2016-07-01T06:25:30Z</time>
      </trkpt>
      <trkpt lat="42.4758" lon="2.20092">
        <ele>2089.08</ele>
        <time>2016-07-01T06:25:42Z</time>
      </trkpt>
      <trkpt lat="42.47579" lon="2.20091">
        <ele>2088.6</ele>
        <time>2016-07-01T06:26:08Z</time>
      </trkpt>
      <trkpt lat="42.4758" lon="2.2009">
        <ele>2088.6</ele>
        <time>2016-07-01T06:26:38Z</time>
      </trkpt>
      <trkpt lat="42.47582" lon="2.20082">
        <ele>2087.64</ele>
        <time>2016-07-01T06:26:46Z</time>
      </trkpt>
      <trkpt lat="42.47581" lon="2.20078">
        <ele>2087.64</ele>
        <time>2016-07-01T06:26:49Z</time>
      </trkpt>
      <trkpt lat="42.47583" lon="2.20076">
        <ele>2087.64</ele>
        <time>2016-07-01T06:26:51Z</time>
      </trkpt>
      <trkpt lat="42.47584" lon="2.2007">
        <ele>2087.16</ele>
        <time>2016-07-01T06:26:56Z</time>
      </trkpt>
      <trkpt lat="42.47588" lon="2.20065">
        <ele>2086.68</ele>
        <time>2016-07-01T06:27:01Z</time>
      </trkpt>
      <trkpt lat="42.47588" lon="2.20062">
        <ele>2086.68</ele>
        <time>2016-07-01T06:27:03Z</time>
      </trkpt>
      <trkpt lat="42.47592" lon="2.20055">
        <ele>2086.2</ele>
        <time>2016-07-01T06:27:09Z</time>
      </trkpt>
      <trkpt lat="42.47595" lon="2.20047">
        <ele>2085.72</ele>
        <time>2016-07-01T06:27:15Z</time>
      </trkpt>
      <trkpt lat="42.47598" lon="2.20041">
        <ele>2085.24</ele>
        <time>2016-07-01T06:27:20Z</time>
      </trkpt>
      <trkpt lat="42.476" lon="2.20038">
        <ele>2084.28</ele>
        <time>2016-07-01T06:27:23Z</time>
      </trkpt>
      <trkpt lat="42.47605" lon="2.20032">
        <ele>2083.31</ele>
        <time>2016-07-01T06:27:29Z</time>
      </trkpt>
      <trkpt lat="42.47608" lon="2.20027">
        <ele>2082.83</ele>
        <time>2016-07-01T06:27:34Z</time>
      </trkpt>
      <trkpt lat="42.47611" lon="2.2002">
        <ele>2081.87</ele>
        <time>2016-07-01T06:27:39Z</time>
      </trkpt>
      <trkpt lat="42.47615" lon="2.20018">
        <ele>2081.39</ele>
        <time>2016-07-01T06:27:42Z</time>
      </trkpt>
      <trkpt lat="42.4762" lon="2.20012">
        <ele>2080.43</ele>
        <time>2016-07-01T06:27:48Z</time>
      </trkpt>
      <trkpt lat="42.47625" lon="2.20006">
        <ele>2079.95</ele>
        <time>2016-07-01T06:27:54Z</time>
      </trkpt>
      <trkpt lat="42.47632" lon="2.20001">
        <ele>2078.03</ele>
        <time>2016-07-01T06:28:01Z</time>
      </trkpt>
      <trkpt lat="42.47645" lon="2.19989">
        <ele>2076.1</ele>
        <time>2016-07-01T06:28:15Z</time>
      </trkpt>
      <trkpt lat="42.47645" lon="2.19988">
        <ele>2075.62</ele>
        <time>2016-07-01T06:28:17Z</time>
      </trkpt>
      <trkpt lat="42.47645" lon="2.19986">
        <ele>2075.62</ele>
        <time>2016-07-01T06:28:18Z</time>
      </trkpt>
      <trkpt lat="42.47658" lon="2.19975">
        <ele>2074.66</ele>
        <time>2016-07-01T06:28:29Z</time>
      </trkpt>
      <trkpt lat="42.47661" lon="2.1997">
        <ele>2074.18</ele>
        <time>2016-07-01T06:28:34Z</time>
      </trkpt>
      <trkpt lat="42.47664" lon="2.19968">
        <ele>2073.7</ele>
        <time>2016-07-01T06:28:37Z</time>
      </trkpt>
      <trkpt lat="42.4767" lon="2.19953">
        <ele>2071.78</ele>
        <time>2016-07-01T06:28:47Z</time>
      </trkpt>
      <trkpt lat="42.47677" lon="2.19945">
        <ele>2071.3</ele>
        <time>2016-07-01T06:28:54Z</time>
      </trkpt>
      <trkpt lat="42.47681" lon="2.19939">
        <ele>2070.82</ele>
        <time>2016-07-01T06:28:59Z</time>
      </trkpt>
      <trkpt lat="42.47683" lon="2.19935">
        <ele>2070.34</ele>
        <time>2016-07-01T06:29:02Z</time>
      </trkpt>
      <trkpt lat="42.4769" lon="2.19928">
        <ele>2069.86</ele>
        <time>2016-07-01T06:29:09Z</time>
      </trkpt>
      <trkpt lat="42.47699" lon="2.19919">
        <ele>2068.41</ele>
        <time>2016-07-01T06:29:19Z</time>
      </trkpt>
      <trkpt lat="42.47703" lon="2.19915">
        <ele>2067.93</ele>
        <time>2016-07-01T06:29:25Z</time>
      </trkpt>
      <trkpt lat="42.47709" lon="2.19909">
        <ele>2067.45</ele>
        <time>2016-07-01T06:29:30Z</time>
      </trkpt>
      <trkpt lat="42.47718" lon="2.19899">
        <ele>2066.97</ele>
        <time>2016-07-01T06:29:39Z</time>
      </trkpt>
      <trkpt lat="42.47729" lon="2.19887">
        <ele>2066.49</ele>
        <time>2016-07-01T06:29:49Z</time>
      </trkpt>
      <trkpt lat="42.47747" lon="2.19878">
        <ele>2065.05</ele>
        <time>2016-07-01T06:30:03Z</time>
      </trkpt>
      <trkpt lat="42.47752" lon="2.19875">
        <ele>2065.05</ele>
        <time>2016-07-01T06:30:07Z</time>
      </trkpt>
      <trkpt lat="42.47759" lon="2.19869">
        <ele>2064.57</ele>
        <time>2016-07-01T06:30:13Z</time>
      </trkpt>
      <trkpt lat="42.47772" lon="2.1986">
        <ele>2063.61</ele>
        <time>2016-07-01T06:30:23Z</time>
      </trkpt>
      <trkpt lat="42.47789" lon="2.19851">
        <ele>2063.13</ele>
        <time>2016-07-01T06:30:36Z</time>
      </trkpt>
      <trkpt lat="42.47806" lon="2.19839">
        <ele>2062.17</ele>
        <time>2016-07-01T06:30:49Z</time>
      </trkpt>
      <trkpt lat="42.47816" lon="2.19827">
        <ele>2061.68</ele>
        <time>2016-07-01T06:30:58Z</time>
      </trkpt>
      <trkpt lat="42.47819" lon="2.19816">
        <ele>2061.2</ele>
        <time>2016-07-01T06:31:05Z</time>
      </trkpt>
      <trkpt lat="42.47822" lon="2.19809">
        <ele>2059.76</ele>
        <time>2016-07-01T06:31:11Z</time>
      </trkpt>
      <trkpt lat="42.47827" lon="2.19788">
        <ele>2055.92</ele>
        <time>2016-07-01T06:31:24Z</time>
      </trkpt>
      <trkpt lat="42.47828" lon="2.19782">
        <ele>2053.03</ele>
        <time>2016-07-01T06:31:28Z</time>
      </trkpt>
      <trkpt lat="42.47831" lon="2.19773">
        <ele>2049.67</ele>
        <time>2016-07-01T06:31:34Z</time>
      </trkpt>
      <trkpt lat="42.47835" lon="2.19763">
        <ele>2049.19</ele>
        <time>2016-07-01T06:31:41Z</time>
      </trkpt>
      <trkpt lat="42.47838" lon="2.19753">
        <ele>2048.71</ele>
        <time>2016-07-01T06:31:48Z</time>
      </trkpt>
      <trkpt lat="42.4784" lon="2.19751">
        <ele>2047.75</ele>
        <time>2016-07-01T06:31:50Z</time>
      </trkpt>
      <trkpt lat="42.47841" lon="2.19749">
        <ele>2046.78</ele>
        <time>2016-07-01T06:31:52Z</time>
      </trkpt>
      <trkpt lat="42.47845" lon="2.19745">
        <ele>2042.46</ele>
        <time>2016-07-01T06:31:57Z</time>
      </trkpt>
      <trkpt lat="42.4785" lon="2.19741">
        <ele>2039.09</ele>
        <time>2016-07-01T06:32:03Z</time>
      </trkpt>
      <trkpt lat="42.47851" lon="2.19739">
        <ele>2038.61</ele>
        <time>2016-07-01T06:32:05Z</time>
      </trkpt>
      <trkpt lat="42.47857" lon="2.19737">
        <ele>2038.61</ele>
        <time>2016-07-01T06:32:11Z</time>
      </trkpt>
      <trkpt lat="42.47851" lon="2.19724">
        <ele>2037.17</ele>
        <time>2016-07-01T06:32:19Z</time>
      </trkpt>
      <trkpt lat="42.47851" lon="2.19719">
        <ele>2036.21</ele>
        <time>2016-07-01T06:32:22Z</time>
      </trkpt>
      <trkpt lat="42.47848" lon="2.19698">
        <ele>2034.77</ele>
        <time>2016-07-01T06:32:34Z</time>
      </trkpt>
      <trkpt lat="42.47846" lon="2.19672">
        <ele>2032.36</ele>
        <time>2016-07-01T06:32:48Z</time>
      </trkpt>
      <trkpt lat="42.47853" lon="2.19654">
        <ele>2030.44</ele>
        <time>2016-07-01T06:32:59Z</time>
      </trkpt>
      <trkpt lat="42.47852" lon="2.19646">
        <ele>2029.96</ele>
        <time>2016-07-01T06:33:03Z</time>
      </trkpt>
      <trkpt lat="42.47853" lon="2.1964">
        <ele>2028.52</ele>
        <time>2016-07-01T06:33:07Z</time>
      </trkpt>
      <trkpt lat="42.47852" lon="2.19635">
        <ele>2028.52</ele>
        <time>2016-07-01T06:33:09Z</time>
      </trkpt>
      <trkpt lat="42.47851" lon="2.19633">
        <ele>2028.04</ele>
        <time>2016-07-01T06:33:10Z</time>
      </trkpt>
      <trkpt lat="42.47852" lon="2.19631">
        <ele>2028.04</ele>
        <time>2016-07-01T06:33:11Z</time>
      </trkpt>
      <trkpt lat="42.47852" lon="2.19629">
        <ele>2028.04</ele>
        <time>2016-07-01T06:33:12Z</time>
      </trkpt>
      <trkpt lat="42.47852" lon="2.19627">
        <ele>2027.56</ele>
        <time>2016-07-01T06:33:13Z</time>
      </trkpt>
      <trkpt lat="42.47852" lon="2.19625">
        <ele>2027.56</ele>
        <time>2016-07-01T06:33:14Z</time>
      </trkpt>
      <trkpt lat="42.47852" lon="2.19623">
        <ele>2027.56</ele>
        <time>2016-07-01T06:33:15Z</time>
      </trkpt>
      <trkpt lat="42.47853" lon="2.19622">
        <ele>2027.08</ele>
        <time>2016-07-01T06:33:16Z</time>
      </trkpt>
      <trkpt lat="42.47854" lon="2.1962">
        <ele>2027.08</ele>
        <time>2016-07-01T06:33:17Z</time>
      </trkpt>
      <trkpt lat="42.47854" lon="2.19618">
        <ele>2027.08</ele>
        <time>2016-07-01T06:33:18Z</time>
      </trkpt>
      <trkpt lat="42.47854" lon="2.19615">
        <ele>2027.08</ele>
        <time>2016-07-01T06:33:19Z</time>
      </trkpt>
      <trkpt lat="42.47855" lon="2.19613">
        <ele>2026.12</ele>
        <time>2016-07-01T06:33:20Z</time>
      </trkpt>
      <trkpt lat="42.47856" lon="2.19612">
        <ele>2026.12</ele>
        <time>2016-07-01T06:33:21Z</time>
      </trkpt>
      <trkpt lat="42.47855" lon="2.1961">
        <ele>2026.12</ele>
        <time>2016-07-01T06:33:22Z</time>
      </trkpt>
      <trkpt lat="42.47856" lon="2.19608">
        <ele>2026.12</ele>
        <time>2016-07-01T06:33:23Z</time>
      </trkpt>
      <trkpt lat="42.47857" lon="2.19607">
        <ele>2025.64</ele>
        <time>2016-07-01T06:33:24Z</time>
      </trkpt>
      <trkpt lat="42.47857" lon="2.19605">
        <ele>2025.64</ele>
        <time>2016-07-01T06:33:25Z</time>
      </trkpt>
      <trkpt lat="42.47858" lon="2.19603">
        <ele>2025.64</ele>
        <time>2016-07-01T06:33:26Z</time>
      </trkpt>
      <trkpt lat="42.47858" lon="2.19601">
        <ele>2025.15</ele>
        <time>2016-07-01T06:33:27Z</time>
      </trkpt>
      <trkpt lat="42.47859" lon="2.196">
        <ele>2025.15</ele>
        <time>2016-07-01T06:33:28Z</time>
      </trkpt>
      <trkpt lat="42.4786" lon="2.19598">
        <ele>2025.15</ele>
        <time>2016-07-01T06:33:29Z</time>
      </trkpt>
      <trkpt lat="42.4786" lon="2.19596">
        <ele>2025.15</ele>
        <time>2016-07-01T06:33:30Z</time>
      </trkpt>
      <trkpt lat="42.4786" lon="2.19593">
        <ele>2024.67</ele>
        <time>2016-07-01T06:33:31Z</time>
      </trkpt>
      <trkpt lat="42.4786" lon="2.19591">
        <ele>2024.67</ele>
        <time>2016-07-01T06:33:32Z</time>
      </trkpt>
      <trkpt lat="42.4786" lon="2.19589">
        <ele>2024.67</ele>
        <time>2016-07-01T06:33:33Z</time>
      </trkpt>
      <trkpt lat="42.4786" lon="2.19588">
        <ele>2024.19</ele>
        <time>2016-07-01T06:33:34Z</time>
      </trkpt>
      <trkpt lat="42.47861" lon="2.19586">
        <ele>2024.19</ele>
        <time>2016-07-01T06:33:35Z</time>
      </trkpt>
      <trkpt lat="42.47862" lon="2.19584">
        <ele>2024.19</ele>
        <time>2016-07-01T06:33:36Z</time>
      </trkpt>
      <trkpt lat="42.47863" lon="2.19584">
        <ele>2024.19</ele>
        <time>2016-07-01T06:33:37Z</time>
      </trkpt>
      <trkpt lat="42.47864" lon="2.19582">
        <ele>2023.71</ele>
        <time>2016-07-01T06:33:38Z</time>
      </trkpt>
      <trkpt lat="42.47865" lon="2.19581">
        <ele>2023.71</ele>
        <time>2016-07-01T06:33:39Z</time>
      </trkpt>
      <trkpt lat="42.47866" lon="2.19579">
        <ele>2023.71</ele>
        <time>2016-07-01T06:33:40Z</time>
      </trkpt>
      <trkpt lat="42.47867" lon="2.19578">
        <ele>2023.23</ele>
        <time>2016-07-01T06:33:41Z</time>
      </trkpt>
      <trkpt lat="42.47869" lon="2.19577">
        <ele>2023.23</ele>
        <time>2016-07-01T06:33:42Z</time>
      </trkpt>
      <trkpt lat="42.47872" lon="2.19577">
        <ele>2023.23</ele>
        <time>2016-07-01T06:33:43Z</time>
      </trkpt>
      <trkpt lat="42.47874" lon="2.19576">
        <ele>2022.27</ele>
        <time>2016-07-01T06:33:44Z</time>
      </trkpt>
      <trkpt lat="42.47874" lon="2.19574">
        <ele>2022.27</ele>
        <time>2016-07-01T06:33:45Z</time>
      </trkpt>
      <trkpt lat="42.47873" lon="2.19572">
        <ele>2022.27</ele>
        <time>2016-07-01T06:33:46Z</time>
      </trkpt>
      <trkpt lat="42.47873" lon="2.19569">
        <ele>2021.79</ele>
        <time>2016-07-01T06:33:47Z</time>
      </trkpt>
      <trkpt lat="42.47873" lon="2.19568">
        <ele>2021.79</ele>
        <time>2016-07-01T06:33:48Z</time>
      </trkpt>
      <trkpt lat="42.47874" lon="2.19566">
        <ele>2021.79</ele>
        <time>2016-07-01T06:33:49Z</time>
      </trkpt>
      <trkpt lat="42.47882" lon="2.19554">
        <ele>2020.35</ele>
        <time>2016-07-01T06:33:57Z</time>
      </trkpt>
      <trkpt lat="42.47887" lon="2.19543">
        <ele>2019.39</ele>
        <time>2016-07-01T06:34:04Z</time>
      </trkpt>
      <trkpt lat="42.4789" lon="2.19539">
        <ele>2018.43</ele>
        <time>2016-07-01T06:34:07Z</time>
      </trkpt>
      <trkpt lat="42.47891" lon="2.19538">
        <ele>2017.94</ele>
        <time>2016-07-01T06:34:08Z</time>
      </trkpt>
      <trkpt lat="42.47898" lon="2.19522">
        <ele>2016.5</ele>
        <time>2016-07-01T06:34:17Z</time>
      </trkpt>
      <trkpt lat="42.47898" lon="2.1952">
        <ele>2016.5</ele>
        <time>2016-07-01T06:34:18Z</time>
      </trkpt>
      <trkpt lat="42.47899" lon="2.19519">
        <ele>2016.5</ele>
        <time>2016-07-01T06:34:19Z</time>
      </trkpt>
      <trkpt lat="42.479" lon="2.19517">
        <ele>2016.02</ele>
        <time>2016-07-01T06:34:20Z</time>
      </trkpt>
      <trkpt lat="42.479" lon="2.19515">
        <ele>2016.02</ele>
        <time>2016-07-01T06:34:21Z</time>
      </trkpt>
      <trkpt lat="42.479" lon="2.19514">
        <ele>2016.02</ele>
        <time>2016-07-01T06:34:22Z</time>
      </trkpt>
      <trkpt lat="42.47901" lon="2.19512">
        <ele>2015.06</ele>
        <time>2016-07-01T06:34:23Z</time>
      </trkpt>
      <trkpt lat="42.47911" lon="2.19496">
        <ele>2013.14</ele>
        <time>2016-07-01T06:34:34Z</time>
      </trkpt>
      <trkpt lat="42.47918" lon="2.1948">
        <ele>2011.22</ele>
        <time>2016-07-01T06:34:43Z</time>
      </trkpt>
      <trkpt lat="42.47919" lon="2.19479">
        <ele>2011.22</ele>
        <time>2016-07-01T06:34:44Z</time>
      </trkpt>
      <trkpt lat="42.47919" lon="2.19478">
        <ele>2011.22</ele>
        <time>2016-07-01T06:34:45Z</time>
      </trkpt>
      <trkpt lat="42.4792" lon="2.19476">
        <ele>2011.22</ele>
        <time>2016-07-01T06:34:46Z</time>
      </trkpt>
      <trkpt lat="42.47921" lon="2.19475">
        <ele>2010.73</ele>
        <time>2016-07-01T06:34:47Z</time>
      </trkpt>
      <trkpt lat="42.47922" lon="2.19474">
        <ele>2010.73</ele>
        <time>2016-07-01T06:34:48Z</time>
      </trkpt>
      <trkpt lat="42.4793" lon="2.1946">
        <ele>2008.81</ele>
        <time>2016-07-01T06:34:57Z</time>
      </trkpt>
      <trkpt lat="42.47931" lon="2.19459">
        <ele>2008.81</ele>
        <time>2016-07-01T06:34:58Z</time>
      </trkpt>
      <trkpt lat="42.47932" lon="2.19457">
        <ele>2008.81</ele>
        <time>2016-07-01T06:34:59Z</time>
      </trkpt>
      <trkpt lat="42.47933" lon="2.19455">
        <ele>2008.33</ele>
        <time>2016-07-01T06:35:00Z</time>
      </trkpt>
      <trkpt lat="42.47933" lon="2.19454">
        <ele>2008.33</ele>
        <time>2016-07-01T06:35:01Z</time>
      </trkpt>
      <trkpt lat="42.47934" lon="2.19453">
        <ele>2008.33</ele>
        <time>2016-07-01T06:35:02Z</time>
      </trkpt>
      <trkpt lat="42.47937" lon="2.19443">
        <ele>2007.37</ele>
        <time>2016-07-01T06:35:09Z</time>
      </trkpt>
      <trkpt lat="42.47937" lon="2.19441">
        <ele>2006.89</ele>
        <time>2016-07-01T06:35:10Z</time>
      </trkpt>
      <trkpt lat="42.47936" lon="2.1944">
        <ele>2006.89</ele>
        <time>2016-07-01T06:35:11Z</time>
      </trkpt>
      <trkpt lat="42.47923" lon="2.19424">
        <ele>2004.01</ele>
        <time>2016-07-01T06:35:23Z</time>
      </trkpt>
      <trkpt lat="42.47904" lon="2.19407">
        <ele>2002.08</ele>
        <time>2016-07-01T06:35:35Z</time>
      </trkpt>
      <trkpt lat="42.479" lon="2.19403">
        <ele>2002.08</ele>
        <time>2016-07-01T06:35:38Z</time>
      </trkpt>
      <trkpt lat="42.47897" lon="2.19401">
        <ele>2001.12</ele>
        <time>2016-07-01T06:35:40Z</time>
      </trkpt>
      <trkpt lat="42.47896" lon="2.19398">
        <ele>2001.12</ele>
        <time>2016-07-01T06:35:41Z</time>
      </trkpt>
      <trkpt lat="42.47895" lon="2.19396">
        <ele>2001.12</ele>
        <time>2016-07-01T06:35:42Z</time>
      </trkpt>
      <trkpt lat="42.47894" lon="2.19394">
        <ele>2000.64</ele>
        <time>2016-07-01T06:35:43Z</time>
      </trkpt>
      <trkpt lat="42.47892" lon="2.19393">
        <ele>2000.64</ele>
        <time>2016-07-01T06:35:44Z</time>
      </trkpt>
      <trkpt lat="42.4789" lon="2.19393">
        <ele>2000.64</ele>
        <time>2016-07-01T06:35:45Z</time>
      </trkpt>
      <trkpt lat="42.47888" lon="2.19393">
        <ele>2000.64</ele>
        <time>2016-07-01T06:35:46Z</time>
      </trkpt>
      <trkpt lat="42.47887" lon="2.19393">
        <ele>2000.16</ele>
        <time>2016-07-01T06:35:47Z</time>
      </trkpt>
      <trkpt lat="42.47883" lon="2.19389">
        <ele>1999.2</ele>
        <time>2016-07-01T06:35:51Z</time>
      </trkpt>
      <trkpt lat="42.47883" lon="2.19388">
        <ele>1999.2</ele>
        <time>2016-07-01T06:35:52Z</time>
      </trkpt>
      <trkpt lat="42.47882" lon="2.19386">
        <ele>1999.2</ele>
        <time>2016-07-01T06:35:53Z</time>
      </trkpt>
      <trkpt lat="42.47882" lon="2.19384">
        <ele>1999.2</ele>
        <time>2016-07-01T06:35:54Z</time>
      </trkpt>
      <trkpt lat="42.47884" lon="2.19381">
        <ele>1998.24</ele>
        <time>2016-07-01T06:36:05Z</time>
      </trkpt>
      <trkpt lat="42.47886" lon="2.19381">
        <ele>1997.76</ele>
        <time>2016-07-01T06:36:07Z</time>
      </trkpt>
      <trkpt lat="42.47895" lon="2.19383">
        <ele>1996.8</ele>
        <time>2016-07-01T06:36:16Z</time>
      </trkpt>
      <trkpt lat="42.47898" lon="2.19383">
        <ele>1996.32</ele>
        <time>2016-07-01T06:36:18Z</time>
      </trkpt>
      <trkpt lat="42.47899" lon="2.19383">
        <ele>1995.83</ele>
        <time>2016-07-01T06:36:19Z</time>
      </trkpt>
      <trkpt lat="42.47903" lon="2.19384">
        <ele>1995.83</ele>
        <time>2016-07-01T06:36:22Z</time>
      </trkpt>
      <trkpt lat="42.47905" lon="2.19384">
        <ele>1995.35</ele>
        <time>2016-07-01T06:36:23Z</time>
      </trkpt>
      <trkpt lat="42.4792" lon="2.19386">
        <ele>1993.43</ele>
        <time>2016-07-01T06:36:33Z</time>
      </trkpt>
      <trkpt lat="42.47923" lon="2.19385">
        <ele>1993.43</ele>
        <time>2016-07-01T06:36:34Z</time>
      </trkpt>
      <trkpt lat="42.47925" lon="2.19385">
        <ele>1993.43</ele>
        <time>2016-07-01T06:36:35Z</time>
      </trkpt>
      <trkpt lat="42.47928" lon="2.19384">
        <ele>1993.43</ele>
        <time>2016-07-01T06:36:36Z</time>
      </trkpt>
      <trkpt lat="42.4793" lon="2.19384">
        <ele>1992.95</ele>
        <time>2016-07-01T06:36:37Z</time>
      </trkpt>
      <trkpt lat="42.47931" lon="2.19384">
        <ele>1992.95</ele>
        <time>2016-07-01T06:36:38Z</time>
      </trkpt>
      <trkpt lat="42.47933" lon="2.19382">
        <ele>1992.95</ele>
        <time>2016-07-01T06:36:39Z</time>
      </trkpt>
      <trkpt lat="42.47934" lon="2.19381">
        <ele>1992.95</ele>
        <time>2016-07-01T06:36:40Z</time>
      </trkpt>
      <trkpt lat="42.47935" lon="2.1938">
        <ele>1992.47</ele>
        <time>2016-07-01T06:36:41Z</time>
      </trkpt>
      <trkpt lat="42.47945" lon="2.19374">
        <ele>1991.99</ele>
        <time>2016-07-01T06:36:50Z</time>
      </trkpt>
      <trkpt lat="42.47948" lon="2.19373">
        <ele>1991.99</ele>
        <time>2016-07-01T06:36:52Z</time>
      </trkpt>
      <trkpt lat="42.4795" lon="2.19371">
        <ele>1991.99</ele>
        <time>2016-07-01T06:36:54Z</time>
      </trkpt>
      <trkpt lat="42.47951" lon="2.19371">
        <ele>1991.99</ele>
        <time>2016-07-01T06:36:55Z</time>
      </trkpt>
      <trkpt lat="42.47953" lon="2.1937">
        <ele>1991.99</ele>
        <time>2016-07-01T06:36:56Z</time>
      </trkpt>
      <trkpt lat="42.47954" lon="2.19369">
        <ele>1991.99</ele>
        <time>2016-07-01T06:36:57Z</time>
      </trkpt>
      <trkpt lat="42.47955" lon="2.19367">
        <ele>1991.99</ele>
        <time>2016-07-01T06:36:58Z</time>
      </trkpt>
      <trkpt lat="42.47956" lon="2.19365">
        <ele>1991.99</ele>
        <time>2016-07-01T06:36:59Z</time>
      </trkpt>
      <trkpt lat="42.47958" lon="2.19363">
        <ele>1991.51</ele>
        <time>2016-07-01T06:37:01Z</time>
      </trkpt>
      <trkpt lat="42.47958" lon="2.19362">
        <ele>1991.51</ele>
        <time>2016-07-01T06:37:02Z</time>
      </trkpt>
      <trkpt lat="42.47959" lon="2.1936">
        <ele>1991.51</ele>
        <time>2016-07-01T06:37:03Z</time>
      </trkpt>
      <trkpt lat="42.47969" lon="2.19353">
        <ele>1991.51</ele>
        <time>2016-07-01T06:37:11Z</time>
      </trkpt>
      <trkpt lat="42.4797" lon="2.19353">
        <ele>1991.51</ele>
        <time>2016-07-01T06:37:12Z</time>
      </trkpt>
      <trkpt lat="42.47971" lon="2.19352">
        <ele>1991.51</ele>
        <time>2016-07-01T06:37:13Z</time>
      </trkpt>
      <trkpt lat="42.47972" lon="2.19351">
        <ele>1991.51</ele>
        <time>2016-07-01T06:37:14Z</time>
      </trkpt>
      <trkpt lat="42.47974" lon="2.19349">
        <ele>1991.51</ele>
        <time>2016-07-01T06:37:15Z</time>
      </trkpt>
      <trkpt lat="42.47983" lon="2.19342">
        <ele>1992.95</ele>
        <time>2016-07-01T06:37:24Z</time>
      </trkpt>
      <trkpt lat="42.47995" lon="2.19332">
        <ele>1993.43</ele>
        <time>2016-07-01T06:37:37Z</time>
      </trkpt>
      <trkpt lat="42.47998" lon="2.19331">
        <ele>1994.87</ele>
        <time>2016-07-01T06:37:44Z</time>
      </trkpt>
      <trkpt lat="42.48001" lon="2.1933">
        <ele>1995.35</ele>
        <time>2016-07-01T06:37:49Z</time>
      </trkpt>
      <trkpt lat="42.4801" lon="2.19323">
        <ele>1996.8</ele>
        <time>2016-07-01T06:37:59Z</time>
      </trkpt>
      <trkpt lat="42.48018" lon="2.19326">
        <ele>1998.72</ele>
        <time>2016-07-01T06:38:09Z</time>
      </trkpt>
      <trkpt lat="42.48019" lon="2.19329">
        <ele>1999.2</ele>
        <time>2016-07-01T06:38:13Z</time>
      </trkpt>
      <trkpt lat="42.48022" lon="2.19325">
        <ele>1999.68</ele>
        <time>2016-07-01T06:38:18Z</time>
      </trkpt>
      <trkpt lat="42.48024" lon="2.19317">
        <ele>2000.16</ele>
        <time>2016-07-01T06:38:23Z</time>
      </trkpt>
      <trkpt lat="42.48032" lon="2.19305">
        <ele>2000.16</ele>
        <time>2016-07-01T06:38:33Z</time>
      </trkpt>
      <trkpt lat="42.48039" lon="2.193">
        <ele>2000.16</ele>
        <time>2016-07-01T06:38:40Z</time>
      </trkpt>
      <trkpt lat="42.4805" lon="2.19283">
        <ele>2000.16</ele>
        <time>2016-07-01T06:38:52Z</time>
      </trkpt>
      <trkpt lat="42.48064" lon="2.19278">
        <ele>1997.76</ele>
        <time>2016-07-01T06:39:03Z</time>
      </trkpt>
      <trkpt lat="42.48069" lon="2.19277">
        <ele>1997.28</ele>
        <time>2016-07-01T06:39:06Z</time>
      </trkpt>
      <trkpt lat="42.4808" lon="2.19271">
        <ele>1995.35</ele>
        <time>2016-07-01T06:39:18Z</time>
      </trkpt>
      <trkpt lat="42.48096" lon="2.19259">
        <ele>1993.91</ele>
        <time>2016-07-01T06:39:30Z</time>
      </trkpt>
      <trkpt lat="42.48107" lon="2.19252">
        <ele>1992.47</ele>
        <time>2016-07-01T06:39:40Z</time>
      </trkpt>
      <trkpt lat="42.48109" lon="2.19249">
        <ele>1991.99</ele>
        <time>2016-07-01T06:39:43Z</time>
      </trkpt>
      <trkpt lat="42.48123" lon="2.19248">
        <ele>1991.03</ele>
        <time>2016-07-01T06:39:55Z</time>
      </trkpt>
      <trkpt lat="42.48134" lon="2.19244">
        <ele>1990.07</ele>
        <time>2016-07-01T06:40:06Z</time>
      </trkpt>
      <trkpt lat="42.48134" lon="2.19245">
        <ele>1990.07</ele>
        <time>2016-07-01T06:40:07Z</time>
      </trkpt>
      <trkpt lat="42.48151" lon="2.1925">
        <ele>1989.59</ele>
        <time>2016-07-01T06:40:19Z</time>
      </trkpt>
      <trkpt lat="42.4817" lon="2.19248">
        <ele>1987.66</ele>
        <time>2016-07-01T06:40:32Z</time>
      </trkpt>
      <trkpt lat="42.48181" lon="2.19244">
        <ele>1986.7</ele>
        <time>2016-07-01T06:40:39Z</time>
      </trkpt>
      <trkpt lat="42.48186" lon="2.19238">
        <ele>1986.7</ele>
        <time>2016-07-01T06:40:43Z</time>
      </trkpt>
      <trkpt lat="42.48191" lon="2.19233">
        <ele>1985.74</ele>
        <time>2016-07-01T06:40:47Z</time>
      </trkpt>
      <trkpt lat="42.48193" lon="2.19227">
        <ele>1985.26</ele>
        <time>2016-07-01T06:40:51Z</time>
      </trkpt>
      <trkpt lat="42.482" lon="2.19213">
        <ele>1983.82</ele>
        <time>2016-07-01T06:40:59Z</time>
      </trkpt>
      <trkpt lat="42.48213" lon="2.19197">
        <ele>1981.41</ele>
        <time>2016-07-01T06:41:11Z</time>
      </trkpt>
      <trkpt lat="42.48215" lon="2.19195">
        <ele>1981.41</ele>
        <time>2016-07-01T06:41:13Z</time>
      </trkpt>
      <trkpt lat="42.48218" lon="2.19187">
        <ele>1979.97</ele>
        <time>2016-07-01T06:41:17Z</time>
      </trkpt>
      <trkpt lat="42.48219" lon="2.19185">
        <ele>1979.97</ele>
        <time>2016-07-01T06:41:18Z</time>
      </trkpt>
      <trkpt lat="42.4822" lon="2.19184">
        <ele>1979.97</ele>
        <time>2016-07-01T06:41:19Z</time>
      </trkpt>
      <trkpt lat="42.48221" lon="2.19182">
        <ele>1979.49</ele>
        <time>2016-07-01T06:41:20Z</time>
      </trkpt>
      <trkpt lat="42.48223" lon="2.19181">
        <ele>1979.49</ele>
        <time>2016-07-01T06:41:21Z</time>
      </trkpt>
      <trkpt lat="42.48226" lon="2.19177">
        <ele>1979.01</ele>
        <time>2016-07-01T06:41:24Z</time>
      </trkpt>
      <trkpt lat="42.48226" lon="2.19175">
        <ele>1979.01</ele>
        <time>2016-07-01T06:41:25Z</time>
      </trkpt>
      <trkpt lat="42.48227" lon="2.19171">
        <ele>1978.53</ele>
        <time>2016-07-01T06:41:27Z</time>
      </trkpt>
      <trkpt lat="42.48228" lon="2.1917">
        <ele>1978.53</ele>
        <time>2016-07-01T06:41:28Z</time>
      </trkpt>
      <trkpt lat="42.48228" lon="2.19169">
        <ele>1978.53</ele>
        <time>2016-07-01T06:41:29Z</time>
      </trkpt>
      <trkpt lat="42.48229" lon="2.19168">
        <ele>1978.53</ele>
        <time>2016-07-01T06:41:30Z</time>
      </trkpt>
      <trkpt lat="42.4823" lon="2.19167">
        <ele>1978.05</ele>
        <time>2016-07-01T06:41:31Z</time>
      </trkpt>
      <trkpt lat="42.48236" lon="2.19163">
        <ele>1977.57</ele>
        <time>2016-07-01T06:41:36Z</time>
      </trkpt>
      <trkpt lat="42.48238" lon="2.19162">
        <ele>1977.57</ele>
        <time>2016-07-01T06:41:37Z</time>
      </trkpt>
      <trkpt lat="42.48254" lon="2.19154">
        <ele>1976.13</ele>
        <time>2016-07-01T06:41:49Z</time>
      </trkpt>
      <trkpt lat="42.48267" lon="2.19153">
        <ele>1976.13</ele>
        <time>2016-07-01T06:41:58Z</time>
      </trkpt>
      <trkpt lat="42.48268" lon="2.19153">
        <ele>1976.13</ele>
        <time>2016-07-01T06:41:59Z</time>
      </trkpt>
      <trkpt lat="42.4828" lon="2.19156">
        <ele>1976.13</ele>
        <time>2016-07-01T06:42:09Z</time>
      </trkpt>
      <trkpt lat="42.48289" lon="2.19155">
        <ele>1977.57</ele>
        <time>2016-07-01T06:42:17Z</time>
      </trkpt>
      <trkpt lat="42.483" lon="2.19153">
        <ele>1979.49</ele>
        <time>2016-07-01T06:42:28Z</time>
      </trkpt>
      <trkpt lat="42.48309" lon="2.19152">
        <ele>1979.97</ele>
        <time>2016-07-01T06:42:37Z</time>
      </trkpt>
      <trkpt lat="42.48321" lon="2.19149">
        <ele>1979.49</ele>
        <time>2016-07-01T06:42:45Z</time>
      </trkpt>
      <trkpt lat="42.48328" lon="2.19147">
        <ele>1979.49</ele>
        <time>2016-07-01T06:42:50Z</time>
      </trkpt>
      <trkpt lat="42.48339" lon="2.19141">
        <ele>1977.09</ele>
        <time>2016-07-01T06:43:00Z</time>
      </trkpt>
      <trkpt lat="42.4834" lon="2.1914">
        <ele>1975.65</ele>
        <time>2016-07-01T06:43:01Z</time>
      </trkpt>
      <trkpt lat="42.48341" lon="2.19138">
        <ele>1975.17</ele>
        <time>2016-07-01T06:43:02Z</time>
      </trkpt>
      <trkpt lat="42.48342" lon="2.19136">
        <ele>1973.24</ele>
        <time>2016-07-01T06:43:04Z</time>
      </trkpt>
      <trkpt lat="42.48344" lon="2.19135">
        <ele>1971.32</ele>
        <time>2016-07-01T06:43:06Z</time>
      </trkpt>
      <trkpt lat="42.48347" lon="2.19132">
        <ele>1969.4</ele>
        <time>2016-07-01T06:43:09Z</time>
      </trkpt>
      <trkpt lat="42.48348" lon="2.1913">
        <ele>1969.4</ele>
        <time>2016-07-01T06:43:10Z</time>
      </trkpt>
      <trkpt lat="42.48348" lon="2.19129">
        <ele>1968.92</ele>
        <time>2016-07-01T06:43:11Z</time>
      </trkpt>
      <trkpt lat="42.48348" lon="2.19127">
        <ele>1968.92</ele>
        <time>2016-07-01T06:43:12Z</time>
      </trkpt>
      <trkpt lat="42.48348" lon="2.19126">
        <ele>1968.92</ele>
        <time>2016-07-01T06:43:13Z</time>
      </trkpt>
      <trkpt lat="42.48349" lon="2.19125">
        <ele>1968.92</ele>
        <time>2016-07-01T06:43:14Z</time>
      </trkpt>
      <trkpt lat="42.4835" lon="2.19124">
        <ele>1968.92</ele>
        <time>2016-07-01T06:43:15Z</time>
      </trkpt>
      <trkpt lat="42.48351" lon="2.19123">
        <ele>1968.92</ele>
        <time>2016-07-01T06:43:16Z</time>
      </trkpt>
      <trkpt lat="42.48351" lon="2.19121">
        <ele>1968.92</ele>
        <time>2016-07-01T06:43:17Z</time>
      </trkpt>
      <trkpt lat="42.48354" lon="2.19118">
        <ele>1968.44</ele>
        <time>2016-07-01T06:43:20Z</time>
      </trkpt>
      <trkpt lat="42.48355" lon="2.19117">
        <ele>1968.44</ele>
        <time>2016-07-01T06:43:21Z</time>
      </trkpt>
      <trkpt lat="42.48355" lon="2.19115">
        <ele>1968.44</ele>
        <time>2016-07-01T06:43:22Z</time>
      </trkpt>
      <trkpt lat="42.48354" lon="2.19114">
        <ele>1968.44</ele>
        <time>2016-07-01T06:43:23Z</time>
      </trkpt>
      <trkpt lat="42.48358" lon="2.19108">
        <ele>1966.99</ele>
        <time>2016-07-01T06:43:29Z</time>
      </trkpt>
      <trkpt lat="42.48358" lon="2.19107">
        <ele>1966.51</ele>
        <time>2016-07-01T06:43:30Z</time>
      </trkpt>
      <trkpt lat="42.48361" lon="2.19103">
        <ele>1966.03</ele>
        <time>2016-07-01T06:43:34Z</time>
      </trkpt>
      <trkpt lat="42.48362" lon="2.19102">
        <ele>1965.55</ele>
        <time>2016-07-01T06:43:35Z</time>
      </trkpt>
      <trkpt lat="42.48362" lon="2.191">
        <ele>1965.55</ele>
        <time>2016-07-01T06:43:36Z</time>
      </trkpt>
      <trkpt lat="42.48362" lon="2.19098">
        <ele>1965.07</ele>
        <time>2016-07-01T06:43:37Z</time>
      </trkpt>
      <trkpt lat="42.48363" lon="2.19097">
        <ele>1965.07</ele>
        <time>2016-07-01T06:43:38Z</time>
      </trkpt>
      <trkpt lat="42.48362" lon="2.19094">
        <ele>1963.15</ele>
        <time>2016-07-01T06:43:40Z</time>
      </trkpt>
      <trkpt lat="42.48362" lon="2.19092">
        <ele>1962.19</ele>
        <time>2016-07-01T06:43:41Z</time>
      </trkpt>
      <trkpt lat="42.48362" lon="2.19091">
        <ele>1961.71</ele>
        <time>2016-07-01T06:43:42Z</time>
      </trkpt>
      <trkpt lat="42.48362" lon="2.19089">
        <ele>1960.75</ele>
        <time>2016-07-01T06:43:43Z</time>
      </trkpt>
      <trkpt lat="42.48362" lon="2.19087">
        <ele>1959.78</ele>
        <time>2016-07-01T06:43:44Z</time>
      </trkpt>
      <trkpt lat="42.48363" lon="2.19086">
        <ele>1959.3</ele>
        <time>2016-07-01T06:43:45Z</time>
      </trkpt>
      <trkpt lat="42.48363" lon="2.19084">
        <ele>1958.34</ele>
        <time>2016-07-01T06:43:46Z</time>
      </trkpt>
      <trkpt lat="42.48363" lon="2.19082">
        <ele>1957.86</ele>
        <time>2016-07-01T06:43:47Z</time>
      </trkpt>
      <trkpt lat="42.48365" lon="2.19079">
        <ele>1957.38</ele>
        <time>2016-07-01T06:43:50Z</time>
      </trkpt>
      <trkpt lat="42.48366" lon="2.19077">
        <ele>1956.9</ele>
        <time>2016-07-01T06:43:51Z</time>
      </trkpt>
      <trkpt lat="42.48366" lon="2.19076">
        <ele>1956.9</ele>
        <time>2016-07-01T06:43:52Z</time>
      </trkpt>
      <trkpt lat="42.48366" lon="2.19074">
        <ele>1956.9</ele>
        <time>2016-07-01T06:43:53Z</time>
      </trkpt>
      <trkpt lat="42.48366" lon="2.19072">
        <ele>1956.9</ele>
        <time>2016-07-01T06:43:54Z</time>
      </trkpt>
      <trkpt lat="42.48367" lon="2.1907">
        <ele>1956.9</ele>
        <time>2016-07-01T06:43:56Z</time>
      </trkpt>
      <trkpt lat="42.48367" lon="2.19068">
        <ele>1956.9</ele>
        <time>2016-07-01T06:43:57Z</time>
      </trkpt>
      <trkpt lat="42.48367" lon="2.19066">
        <ele>1956.9</ele>
        <time>2016-07-01T06:43:58Z</time>
      </trkpt>
      <trkpt lat="42.48368" lon="2.19065">
        <ele>1956.9</ele>
        <time>2016-07-01T06:43:59Z</time>
      </trkpt>
      <trkpt lat="42.48368" lon="2.19064">
        <ele>1956.9</ele>
        <time>2016-07-01T06:44:00Z</time>
      </trkpt>
      <trkpt lat="42.48368" lon="2.19062">
        <ele>1956.9</ele>
        <time>2016-07-01T06:44:01Z</time>
      </trkpt>
      <trkpt lat="42.48368" lon="2.1906">
        <ele>1956.9</ele>
        <time>2016-07-01T06:44:02Z</time>
      </trkpt>
      <trkpt lat="42.48369" lon="2.19059">
        <ele>1956.9</ele>
        <time>2016-07-01T06:44:03Z</time>
      </trkpt>
      <trkpt lat="42.48371" lon="2.19057">
        <ele>1956.42</ele>
        <time>2016-07-01T06:44:05Z</time>
      </trkpt>
      <trkpt lat="42.48371" lon="2.19056">
        <ele>1955.94</ele>
        <time>2016-07-01T06:44:06Z</time>
      </trkpt>
      <trkpt lat="42.48372" lon="2.19055">
        <ele>1955.46</ele>
        <time>2016-07-01T06:44:07Z</time>
      </trkpt>
      <trkpt lat="42.48373" lon="2.19053">
        <ele>1955.46</ele>
        <time>2016-07-01T06:44:08Z</time>
      </trkpt>
      <trkpt lat="42.48373" lon="2.19051">
        <ele>1955.46</ele>
        <time>2016-07-01T06:44:09Z</time>
      </trkpt>
      <trkpt lat="42.48373" lon="2.1905">
        <ele>1954.98</ele>
        <time>2016-07-01T06:44:10Z</time>
      </trkpt>
      <trkpt lat="42.48375" lon="2.19049">
        <ele>1954.98</ele>
        <time>2016-07-01T06:44:11Z</time>
      </trkpt>
      <trkpt lat="42.48376" lon="2.19047">
        <ele>1954.5</ele>
        <time>2016-07-01T06:44:13Z</time>
      </trkpt>
      <trkpt lat="42.48376" lon="2.19045">
        <ele>1954.5</ele>
        <time>2016-07-01T06:44:14Z</time>
      </trkpt>
      <trkpt lat="42.48377" lon="2.19045">
        <ele>1954.02</ele>
        <time>2016-07-01T06:44:15Z</time>
      </trkpt>
      <trkpt lat="42.48378" lon="2.19044">
        <ele>1954.02</ele>
        <time>2016-07-01T06:44:16Z</time>
      </trkpt>
      <trkpt lat="42.48379" lon="2.19042">
        <ele>1953.06</ele>
        <time>2016-07-01T06:44:17Z</time>
      </trkpt>
      <trkpt lat="42.4838" lon="2.19041">
        <ele>1953.54</ele>
        <time>2016-07-01T06:44:18Z</time>
      </trkpt>
      <trkpt lat="42.4838" lon="2.1904">
        <ele>1952.09</ele>
        <time>2016-07-01T06:44:19Z</time>
      </trkpt>
      <trkpt lat="42.48382" lon="2.19038">
        <ele>1950.65</ele>
        <time>2016-07-01T06:44:21Z</time>
      </trkpt>
      <trkpt lat="42.48384" lon="2.19034">
        <ele>1946.81</ele>
        <time>2016-07-01T06:44:25Z</time>
      </trkpt>
      <trkpt lat="42.48385" lon="2.1903">
        <ele>1945.85</ele>
        <time>2016-07-01T06:44:28Z</time>
      </trkpt>
      <trkpt lat="42.48385" lon="2.19029">
        <ele>1944.88</ele>
        <time>2016-07-01T06:44:29Z</time>
      </trkpt>
      <trkpt lat="42.48393" lon="2.19021">
        <ele>1944.4</ele>
        <time>2016-07-01T06:44:40Z</time>
      </trkpt>
      <trkpt lat="42.48394" lon="2.19019">
        <ele>1943.92</ele>
        <time>2016-07-01T06:44:43Z</time>
      </trkpt>
      <trkpt lat="42.48395" lon="2.19014">
        <ele>1943.44</ele>
        <time>2016-07-01T06:44:48Z</time>
      </trkpt>
      <trkpt lat="42.48396" lon="2.19011">
        <ele>1942.96</ele>
        <time>2016-07-01T06:44:51Z</time>
      </trkpt>
      <trkpt lat="42.48396" lon="2.1901">
        <ele>1942.96</ele>
        <time>2016-07-01T06:44:52Z</time>
      </trkpt>
      <trkpt lat="42.48397" lon="2.19009">
        <ele>1942</ele>
        <time>2016-07-01T06:44:53Z</time>
      </trkpt>
      <trkpt lat="42.48398" lon="2.19007">
        <ele>1941.52</ele>
        <time>2016-07-01T06:44:55Z</time>
      </trkpt>
      <trkpt lat="42.48399" lon="2.19005">
        <ele>1938.64</ele>
        <time>2016-07-01T06:45:00Z</time>
      </trkpt>
      <trkpt lat="42.48402" lon="2.18997">
        <ele>1935.75</ele>
        <time>2016-07-01T06:45:08Z</time>
      </trkpt>
      <trkpt lat="42.48402" lon="2.18994">
        <ele>1935.75</ele>
        <time>2016-07-01T06:45:11Z</time>
      </trkpt>
      <trkpt lat="42.48402" lon="2.1899">
        <ele>1935.27</ele>
        <time>2016-07-01T06:45:14Z</time>
      </trkpt>
      <trkpt lat="42.48405" lon="2.18989">
        <ele>1934.79</ele>
        <time>2016-07-01T06:45:17Z</time>
      </trkpt>
      <trkpt lat="42.48408" lon="2.18987">
        <ele>1934.31</ele>
        <time>2016-07-01T06:45:20Z</time>
      </trkpt>
      <trkpt lat="42.4841" lon="2.18981">
        <ele>1933.35</ele>
        <time>2016-07-01T06:45:25Z</time>
      </trkpt>
      <trkpt lat="42.48414" lon="2.18975">
        <ele>1929.98</ele>
        <time>2016-07-01T06:45:32Z</time>
      </trkpt>
      <trkpt lat="42.48415" lon="2.18974">
        <ele>1929.02</ele>
        <time>2016-07-01T06:45:33Z</time>
      </trkpt>
      <trkpt lat="42.48416" lon="2.18971">
        <ele>1926.14</ele>
        <time>2016-07-01T06:45:37Z</time>
      </trkpt>
      <trkpt lat="42.48427" lon="2.18965">
        <ele>1924.22</ele>
        <time>2016-07-01T06:45:49Z</time>
      </trkpt>
      <trkpt lat="42.48433" lon="2.18957">
        <ele>1923.25</ele>
        <time>2016-07-01T06:45:59Z</time>
      </trkpt>
      <trkpt lat="42.48437" lon="2.18954">
        <ele>1922.29</ele>
        <time>2016-07-01T06:46:03Z</time>
      </trkpt>
      <trkpt lat="42.48449" lon="2.18951">
        <ele>1918.93</ele>
        <time>2016-07-01T06:46:12Z</time>
      </trkpt>
      <trkpt lat="42.4845" lon="2.18951">
        <ele>1917.97</ele>
        <time>2016-07-01T06:46:13Z</time>
      </trkpt>
      <trkpt lat="42.48452" lon="2.18949">
        <ele>1916.53</ele>
        <time>2016-07-01T06:46:15Z</time>
      </trkpt>
      <trkpt lat="42.48455" lon="2.18941">
        <ele>1913.64</ele>
        <time>2016-07-01T06:46:20Z</time>
      </trkpt>
      <trkpt lat="42.48456" lon="2.18934">
        <ele>1914.12</ele>
        <time>2016-07-01T06:46:25Z</time>
      </trkpt>
      <trkpt lat="42.48462" lon="2.18928">
        <ele>1913.64</ele>
        <time>2016-07-01T06:46:31Z</time>
      </trkpt>
      <trkpt lat="42.48462" lon="2.18926">
        <ele>1913.64</ele>
        <time>2016-07-01T06:46:32Z</time>
      </trkpt>
      <trkpt lat="42.48462" lon="2.18925">
        <ele>1912.68</ele>
        <time>2016-07-01T06:46:33Z</time>
      </trkpt>
      <trkpt lat="42.48463" lon="2.18923">
        <ele>1912.68</ele>
        <time>2016-07-01T06:46:34Z</time>
      </trkpt>
      <trkpt lat="42.48464" lon="2.18922">
        <ele>1912.2</ele>
        <time>2016-07-01T06:46:36Z</time>
      </trkpt>
      <trkpt lat="42.48468" lon="2.18921">
        <ele>1912.2</ele>
        <time>2016-07-01T06:46:38Z</time>
      </trkpt>
      <trkpt lat="42.48469" lon="2.1892">
        <ele>1912.2</ele>
        <time>2016-07-01T06:46:39Z</time>
      </trkpt>
      <trkpt lat="42.4847" lon="2.18919">
        <ele>1911.72</ele>
        <time>2016-07-01T06:46:40Z</time>
      </trkpt>
      <trkpt lat="42.48472" lon="2.18917">
        <ele>1911.72</ele>
        <time>2016-07-01T06:46:42Z</time>
      </trkpt>
      <trkpt lat="42.48474" lon="2.18916">
        <ele>1911.24</ele>
        <time>2016-07-01T06:46:43Z</time>
      </trkpt>
      <trkpt lat="42.48475" lon="2.18914">
        <ele>1911.24</ele>
        <time>2016-07-01T06:46:44Z</time>
      </trkpt>
      <trkpt lat="42.48475" lon="2.18913">
        <ele>1911.24</ele>
        <time>2016-07-01T06:46:45Z</time>
      </trkpt>
      <trkpt lat="42.48476" lon="2.18911">
        <ele>1910.76</ele>
        <time>2016-07-01T06:46:46Z</time>
      </trkpt>
      <trkpt lat="42.48478" lon="2.18911">
        <ele>1910.76</ele>
        <time>2016-07-01T06:46:47Z</time>
      </trkpt>
      <trkpt lat="42.4848" lon="2.18911">
        <ele>1910.76</ele>
        <time>2016-07-01T06:46:48Z</time>
      </trkpt>
      <trkpt lat="42.48482" lon="2.18911">
        <ele>1910.28</ele>
        <time>2016-07-01T06:46:49Z</time>
      </trkpt>
      <trkpt lat="42.48482" lon="2.1891">
        <ele>1910.28</ele>
        <time>2016-07-01T06:46:50Z</time>
      </trkpt>
      <trkpt lat="42.4849" lon="2.18907">
        <ele>1909.8</ele>
        <time>2016-07-01T06:46:56Z</time>
      </trkpt>
      <trkpt lat="42.485" lon="2.18908">
        <ele>1909.32</ele>
        <time>2016-07-01T06:47:01Z</time>
      </trkpt>
      <trkpt lat="42.48509" lon="2.189">
        <ele>1907.87</ele>
        <time>2016-07-01T06:47:10Z</time>
      </trkpt>
      <trkpt lat="42.4851" lon="2.18899">
        <ele>1907.87</ele>
        <time>2016-07-01T06:47:11Z</time>
      </trkpt>
      <trkpt lat="42.48512" lon="2.18897">
        <ele>1907.87</ele>
        <time>2016-07-01T06:47:13Z</time>
      </trkpt>
      <trkpt lat="42.48514" lon="2.18897">
        <ele>1907.39</ele>
        <time>2016-07-01T06:47:14Z</time>
      </trkpt>
      <trkpt lat="42.48515" lon="2.18897">
        <ele>1907.39</ele>
        <time>2016-07-01T06:47:15Z</time>
      </trkpt>
      <trkpt lat="42.48517" lon="2.18898">
        <ele>1907.39</ele>
        <time>2016-07-01T06:47:16Z</time>
      </trkpt>
      <trkpt lat="42.48519" lon="2.18898">
        <ele>1907.39</ele>
        <time>2016-07-01T06:47:17Z</time>
      </trkpt>
      <trkpt lat="42.4852" lon="2.18899">
        <ele>1907.39</ele>
        <time>2016-07-01T06:47:18Z</time>
      </trkpt>
      <trkpt lat="42.48527" lon="2.1889">
        <ele>1907.39</ele>
        <time>2016-07-01T06:47:28Z</time>
      </trkpt>
      <trkpt lat="42.48536" lon="2.18883">
        <ele>1906.91</ele>
        <time>2016-07-01T06:47:37Z</time>
      </trkpt>
      <trkpt lat="42.48538" lon="2.18871">
        <ele>1906.91</ele>
        <time>2016-07-01T06:47:46Z</time>
      </trkpt>
      <trkpt lat="42.48546" lon="2.1887">
        <ele>1906.91</ele>
        <time>2016-07-01T06:47:52Z</time>
      </trkpt>
      <trkpt lat="42.48548" lon="2.1887">
        <ele>1906.91</ele>
        <time>2016-07-01T06:47:53Z</time>
      </trkpt>
      <trkpt lat="42.48563" lon="2.1887">
        <ele>1906.91</ele>
        <time>2016-07-01T06:48:05Z</time>
      </trkpt>
      <trkpt lat="42.48572" lon="2.1887">
        <ele>1906.43</ele>
        <time>2016-07-01T06:48:12Z</time>
      </trkpt>
      <trkpt lat="42.48583" lon="2.18872">
        <ele>1905.95</ele>
        <time>2016-07-01T06:48:22Z</time>
      </trkpt>
      <trkpt lat="42.48594" lon="2.18877">
        <ele>1905.47</ele>
        <time>2016-07-01T06:48:32Z</time>
      </trkpt>
      <trkpt lat="42.48605" lon="2.18878">
        <ele>1904.51</ele>
        <time>2016-07-01T06:48:41Z</time>
      </trkpt>
      <trkpt lat="42.48616" lon="2.18877">
        <ele>1904.51</ele>
        <time>2016-07-01T06:48:49Z</time>
      </trkpt>
      <trkpt lat="42.48618" lon="2.18876">
        <ele>1904.51</ele>
        <time>2016-07-01T06:48:50Z</time>
      </trkpt>
      <trkpt lat="42.4862" lon="2.18876">
        <ele>1904.51</ele>
        <time>2016-07-01T06:48:51Z</time>
      </trkpt>
      <trkpt lat="42.48621" lon="2.18875">
        <ele>1904.51</ele>
        <time>2016-07-01T06:48:52Z</time>
      </trkpt>
      <trkpt lat="42.48628" lon="2.1887">
        <ele>1904.51</ele>
        <time>2016-07-01T06:48:58Z</time>
      </trkpt>
      <trkpt lat="42.48629" lon="2.18869">
        <ele>1904.03</ele>
        <time>2016-07-01T06:48:59Z</time>
      </trkpt>
      <trkpt lat="42.48632" lon="2.18865">
        <ele>1903.55</ele>
        <time>2016-07-01T06:49:03Z</time>
      </trkpt>
      <trkpt lat="42.48633" lon="2.18864">
        <ele>1903.55</ele>
        <time>2016-07-01T06:49:04Z</time>
      </trkpt>
      <trkpt lat="42.48634" lon="2.18862">
        <ele>1903.07</ele>
        <time>2016-07-01T06:49:06Z</time>
      </trkpt>
      <trkpt lat="42.48636" lon="2.18861">
        <ele>1903.07</ele>
        <time>2016-07-01T06:49:07Z</time>
      </trkpt>
      <trkpt lat="42.48637" lon="2.18858">
        <ele>1902.11</ele>
        <time>2016-07-01T06:49:10Z</time>
      </trkpt>
      <trkpt lat="42.48638" lon="2.18856">
        <ele>1901.63</ele>
        <time>2016-07-01T06:49:12Z</time>
      </trkpt>
      <trkpt lat="42.4864" lon="2.18855">
        <ele>1901.63</ele>
        <time>2016-07-01T06:49:13Z</time>
      </trkpt>
      <trkpt lat="42.4864" lon="2.18854">
        <ele>1901.14</ele>
        <time>2016-07-01T06:49:14Z</time>
      </trkpt>
      <trkpt lat="42.48641" lon="2.18851">
        <ele>1900.66</ele>
        <time>2016-07-01T06:49:16Z</time>
      </trkpt>
      <trkpt lat="42.48642" lon="2.18851">
        <ele>1900.66</ele>
        <time>2016-07-01T06:49:17Z</time>
      </trkpt>
      <trkpt lat="42.48643" lon="2.18849">
        <ele>1899.7</ele>
        <time>2016-07-01T06:49:19Z</time>
      </trkpt>
      <trkpt lat="42.48643" lon="2.18848">
        <ele>1899.22</ele>
        <time>2016-07-01T06:49:20Z</time>
      </trkpt>
      <trkpt lat="42.48645" lon="2.18846">
        <ele>1896.34</ele>
        <time>2016-07-01T06:49:24Z</time>
      </trkpt>
      <trkpt lat="42.48645" lon="2.18844">
        <ele>1895.38</ele>
        <time>2016-07-01T06:49:25Z</time>
      </trkpt>
      <trkpt lat="42.48645" lon="2.18842">
        <ele>1894.9</ele>
        <time>2016-07-01T06:49:26Z</time>
      </trkpt>
      <trkpt lat="42.48647" lon="2.1884">
        <ele>1893.45</ele>
        <time>2016-07-01T06:49:28Z</time>
      </trkpt>
      <trkpt lat="42.48648" lon="2.18839">
        <ele>1893.93</ele>
        <time>2016-07-01T06:49:29Z</time>
      </trkpt>
      <trkpt lat="42.48648" lon="2.18838">
        <ele>1892.97</ele>
        <time>2016-07-01T06:49:30Z</time>
      </trkpt>
      <trkpt lat="42.4865" lon="2.18833">
        <ele>1892.49</ele>
        <time>2016-07-01T06:49:34Z</time>
      </trkpt>
      <trkpt lat="42.4865" lon="2.18832">
        <ele>1892.49</ele>
        <time>2016-07-01T06:49:35Z</time>
      </trkpt>
      <trkpt lat="42.48651" lon="2.18831">
        <ele>1892.49</ele>
        <time>2016-07-01T06:49:36Z</time>
      </trkpt>
      <trkpt lat="42.48653" lon="2.18824">
        <ele>1892.01</ele>
        <time>2016-07-01T06:49:40Z</time>
      </trkpt>
      <trkpt lat="42.48653" lon="2.18822">
        <ele>1892.01</ele>
        <time>2016-07-01T06:49:41Z</time>
      </trkpt>
      <trkpt lat="42.48654" lon="2.18821">
        <ele>1892.01</ele>
        <time>2016-07-01T06:49:42Z</time>
      </trkpt>
      <trkpt lat="42.48655" lon="2.1882">
        <ele>1891.53</ele>
        <time>2016-07-01T06:49:43Z</time>
      </trkpt>
      <trkpt lat="42.48655" lon="2.18818">
        <ele>1891.53</ele>
        <time>2016-07-01T06:49:44Z</time>
      </trkpt>
      <trkpt lat="42.48655" lon="2.18817">
        <ele>1891.53</ele>
        <time>2016-07-01T06:49:45Z</time>
      </trkpt>
      <trkpt lat="42.48656" lon="2.18815">
        <ele>1890.57</ele>
        <time>2016-07-01T06:49:46Z</time>
      </trkpt>
      <trkpt lat="42.48657" lon="2.18814">
        <ele>1890.57</ele>
        <time>2016-07-01T06:49:47Z</time>
      </trkpt>
      <trkpt lat="42.48657" lon="2.18812">
        <ele>1890.57</ele>
        <time>2016-07-01T06:49:48Z</time>
      </trkpt>
      <trkpt lat="42.48657" lon="2.18811">
        <ele>1890.09</ele>
        <time>2016-07-01T06:49:49Z</time>
      </trkpt>
      <trkpt lat="42.48659" lon="2.18806">
        <ele>1888.17</ele>
        <time>2016-07-01T06:49:53Z</time>
      </trkpt>
      <trkpt lat="42.48662" lon="2.18802">
        <ele>1885.28</ele>
        <time>2016-07-01T06:49:57Z</time>
      </trkpt>
      <trkpt lat="42.48662" lon="2.188">
        <ele>1884.8</ele>
        <time>2016-07-01T06:49:58Z</time>
      </trkpt>
      <trkpt lat="42.48663" lon="2.18799">
        <ele>1884.8</ele>
        <time>2016-07-01T06:49:59Z</time>
      </trkpt>
      <trkpt lat="42.48664" lon="2.18796">
        <ele>1883.36</ele>
        <time>2016-07-01T06:50:01Z</time>
      </trkpt>
      <trkpt lat="42.48664" lon="2.18795">
        <ele>1883.84</ele>
        <time>2016-07-01T06:50:02Z</time>
      </trkpt>
      <trkpt lat="42.48665" lon="2.18793">
        <ele>1883.84</ele>
        <time>2016-07-01T06:50:03Z</time>
      </trkpt>
      <trkpt lat="42.48665" lon="2.18792">
        <ele>1883.84</ele>
        <time>2016-07-01T06:50:04Z</time>
      </trkpt>
      <trkpt lat="42.48666" lon="2.1879">
        <ele>1883.84</ele>
        <time>2016-07-01T06:50:05Z</time>
      </trkpt>
      <trkpt lat="42.48667" lon="2.18788">
        <ele>1883.84</ele>
        <time>2016-07-01T06:50:06Z</time>
      </trkpt>
      <trkpt lat="42.48668" lon="2.18785">
        <ele>1883.84</ele>
        <time>2016-07-01T06:50:08Z</time>
      </trkpt>
      <trkpt lat="42.48669" lon="2.18783">
        <ele>1882.88</ele>
        <time>2016-07-01T06:50:09Z</time>
      </trkpt>
      <trkpt lat="42.4867" lon="2.1878">
        <ele>1882.88</ele>
        <time>2016-07-01T06:50:11Z</time>
      </trkpt>
      <trkpt lat="42.48671" lon="2.18779">
        <ele>1882.88</ele>
        <time>2016-07-01T06:50:12Z</time>
      </trkpt>
      <trkpt lat="42.48671" lon="2.18776">
        <ele>1882.4</ele>
        <time>2016-07-01T06:50:14Z</time>
      </trkpt>
      <trkpt lat="42.48672" lon="2.18774">
        <ele>1882.4</ele>
        <time>2016-07-01T06:50:15Z</time>
      </trkpt>
      <trkpt lat="42.48674" lon="2.18772">
        <ele>1882.4</ele>
        <time>2016-07-01T06:50:17Z</time>
      </trkpt>
      <trkpt lat="42.48675" lon="2.18771">
        <ele>1882.4</ele>
        <time>2016-07-01T06:50:18Z</time>
      </trkpt>
      <trkpt lat="42.48678" lon="2.18767">
        <ele>1881.92</ele>
        <time>2016-07-01T06:50:21Z</time>
      </trkpt>
      <trkpt lat="42.48682" lon="2.18764">
        <ele>1881.44</ele>
        <time>2016-07-01T06:50:24Z</time>
      </trkpt>
      <trkpt lat="42.48684" lon="2.18762">
        <ele>1880.48</ele>
        <time>2016-07-01T06:50:26Z</time>
      </trkpt>
      <trkpt lat="42.48686" lon="2.18759">
        <ele>1880.96</ele>
        <time>2016-07-01T06:50:28Z</time>
      </trkpt>
      <trkpt lat="42.48686" lon="2.18757">
        <ele>1880</ele>
        <time>2016-07-01T06:50:29Z</time>
      </trkpt>
      <trkpt lat="42.48687" lon="2.18756">
        <ele>1880.48</ele>
        <time>2016-07-01T06:50:30Z</time>
      </trkpt>
      <trkpt lat="42.48689" lon="2.18756">
        <ele>1880.48</ele>
        <time>2016-07-01T06:50:31Z</time>
      </trkpt>
      <trkpt lat="42.48689" lon="2.18754">
        <ele>1879.51</ele>
        <time>2016-07-01T06:50:32Z</time>
      </trkpt>
      <trkpt lat="42.48691" lon="2.18753">
        <ele>1879.51</ele>
        <time>2016-07-01T06:50:33Z</time>
      </trkpt>
      <trkpt lat="42.48692" lon="2.18751">
        <ele>1879.51</ele>
        <time>2016-07-01T06:50:34Z</time>
      </trkpt>
      <trkpt lat="42.48693" lon="2.1875">
        <ele>1879.51</ele>
        <time>2016-07-01T06:50:35Z</time>
      </trkpt>
      <trkpt lat="42.48693" lon="2.18748">
        <ele>1879.03</ele>
        <time>2016-07-01T06:50:36Z</time>
      </trkpt>
      <trkpt lat="42.48697" lon="2.18743">
        <ele>1878.55</ele>
        <time>2016-07-01T06:50:40Z</time>
      </trkpt>
      <trkpt lat="42.48699" lon="2.18743">
        <ele>1878.55</ele>
        <time>2016-07-01T06:50:41Z</time>
      </trkpt>
      <trkpt lat="42.487" lon="2.18743">
        <ele>1878.55</ele>
        <time>2016-07-01T06:50:42Z</time>
      </trkpt>
      <trkpt lat="42.48701" lon="2.18742">
        <ele>1877.59</ele>
        <time>2016-07-01T06:50:43Z</time>
      </trkpt>
      <trkpt lat="42.48703" lon="2.18741">
        <ele>1878.07</ele>
        <time>2016-07-01T06:50:44Z</time>
      </trkpt>
      <trkpt lat="42.48706" lon="2.18742">
        <ele>1877.11</ele>
        <time>2016-07-01T06:50:45Z</time>
      </trkpt>
      <trkpt lat="42.48707" lon="2.18742">
        <ele>1877.59</ele>
        <time>2016-07-01T06:50:46Z</time>
      </trkpt>
      <trkpt lat="42.48716" lon="2.1874">
        <ele>1874.23</ele>
        <time>2016-07-01T06:50:52Z</time>
      </trkpt>
      <trkpt lat="42.48718" lon="2.18737">
        <ele>1871.82</ele>
        <time>2016-07-01T06:50:55Z</time>
      </trkpt>
      <trkpt lat="42.4872" lon="2.18737">
        <ele>1870.86</ele>
        <time>2016-07-01T06:50:56Z</time>
      </trkpt>
      <trkpt lat="42.48723" lon="2.18737">
        <ele>1870.38</ele>
        <time>2016-07-01T06:50:57Z</time>
      </trkpt>
      <trkpt lat="42.48725" lon="2.18737">
        <ele>1869.9</ele>
        <time>2016-07-01T06:50:58Z</time>
      </trkpt>
      <trkpt lat="42.48727" lon="2.18738">
        <ele>1870.38</ele>
        <time>2016-07-01T06:50:59Z</time>
      </trkpt>
      <trkpt lat="42.48729" lon="2.18738">
        <ele>1869.42</ele>
        <time>2016-07-01T06:51:00Z</time>
      </trkpt>
      <trkpt lat="42.4873" lon="2.18738">
        <ele>1869.9</ele>
        <time>2016-07-01T06:51:01Z</time>
      </trkpt>
      <trkpt lat="42.48731" lon="2.18737">
        <ele>1868.94</ele>
        <time>2016-07-01T06:51:02Z</time>
      </trkpt>
      <trkpt lat="42.48733" lon="2.18737">
        <ele>1869.42</ele>
        <time>2016-07-01T06:51:03Z</time>
      </trkpt>
      <trkpt lat="42.48735" lon="2.18736">
        <ele>1869.42</ele>
        <time>2016-07-01T06:51:04Z</time>
      </trkpt>
      <trkpt lat="42.48737" lon="2.18736">
        <ele>1869.42</ele>
        <time>2016-07-01T06:51:05Z</time>
      </trkpt>
      <trkpt lat="42.48738" lon="2.18735">
        <ele>1869.42</ele>
        <time>2016-07-01T06:51:06Z</time>
      </trkpt>
      <trkpt lat="42.48739" lon="2.18733">
        <ele>1869.42</ele>
        <time>2016-07-01T06:51:08Z</time>
      </trkpt>
      <trkpt lat="42.48739" lon="2.1873">
        <ele>1869.42</ele>
        <time>2016-07-01T06:51:09Z</time>
      </trkpt>
      <trkpt lat="42.4874" lon="2.18727">
        <ele>1869.42</ele>
        <time>2016-07-01T06:51:10Z</time>
      </trkpt>
      <trkpt lat="42.48741" lon="2.18727">
        <ele>1869.42</ele>
        <time>2016-07-01T06:51:11Z</time>
      </trkpt>
      <trkpt lat="42.48741" lon="2.18726">
        <ele>1869.42</ele>
        <time>2016-07-01T06:51:12Z</time>
      </trkpt>
      <trkpt lat="42.48741" lon="2.18723">
        <ele>1869.42</ele>
        <time>2016-07-01T06:51:13Z</time>
      </trkpt>
      <trkpt lat="42.48741" lon="2.18717">
        <ele>1869.42</ele>
        <time>2016-07-01T06:51:16Z</time>
      </trkpt>
      <trkpt lat="42.48742" lon="2.18711">
        <ele>1868.46</ele>
        <time>2016-07-01T06:51:20Z</time>
      </trkpt>
      <trkpt lat="42.48745" lon="2.18707">
        <ele>1867.5</ele>
        <time>2016-07-01T06:51:26Z</time>
      </trkpt>
      <trkpt lat="42.48746" lon="2.18703">
        <ele>1867.02</ele>
        <time>2016-07-01T06:51:29Z</time>
      </trkpt>
      <trkpt lat="42.48748" lon="2.18699">
        <ele>1863.17</ele>
        <time>2016-07-01T06:51:33Z</time>
      </trkpt>
      <trkpt lat="42.48752" lon="2.18697">
        <ele>1859.81</ele>
        <time>2016-07-01T06:51:37Z</time>
      </trkpt>
      <trkpt lat="42.48757" lon="2.18691">
        <ele>1858.85</ele>
        <time>2016-07-01T06:51:47Z</time>
      </trkpt>
      <trkpt lat="42.48759" lon="2.18682">
        <ele>1858.37</ele>
        <time>2016-07-01T06:51:56Z</time>
      </trkpt>
      <trkpt lat="42.48761" lon="2.18679">
        <ele>1857.89</ele>
        <time>2016-07-01T06:51:59Z</time>
      </trkpt>
      <trkpt lat="42.48761" lon="2.18676">
        <ele>1857.4</ele>
        <time>2016-07-01T06:52:02Z</time>
      </trkpt>
      <trkpt lat="42.48762" lon="2.18675">
        <ele>1856.44</ele>
        <time>2016-07-01T06:52:03Z</time>
      </trkpt>
      <trkpt lat="42.48762" lon="2.18673">
        <ele>1856.44</ele>
        <time>2016-07-01T06:52:04Z</time>
      </trkpt>
      <trkpt lat="42.48763" lon="2.18665">
        <ele>1853.56</ele>
        <time>2016-07-01T06:52:13Z</time>
      </trkpt>
      <trkpt lat="42.48763" lon="2.18663">
        <ele>1853.08</ele>
        <time>2016-07-01T06:52:14Z</time>
      </trkpt>
      <trkpt lat="42.48766" lon="2.18658">
        <ele>1849.71</ele>
        <time>2016-07-01T06:52:18Z</time>
      </trkpt>
      <trkpt lat="42.48766" lon="2.18656">
        <ele>1849.23</ele>
        <time>2016-07-01T06:52:19Z</time>
      </trkpt>
      <trkpt lat="42.48767" lon="2.18655">
        <ele>1848.27</ele>
        <time>2016-07-01T06:52:20Z</time>
      </trkpt>
      <trkpt lat="42.48767" lon="2.18653">
        <ele>1847.31</ele>
        <time>2016-07-01T06:52:22Z</time>
      </trkpt>
      <trkpt lat="42.48768" lon="2.18651">
        <ele>1848.27</ele>
        <time>2016-07-01T06:52:23Z</time>
      </trkpt>
      <trkpt lat="42.48768" lon="2.18649">
        <ele>1846.83</ele>
        <time>2016-07-01T06:52:24Z</time>
      </trkpt>
      <trkpt lat="42.48768" lon="2.18648">
        <ele>1847.31</ele>
        <time>2016-07-01T06:52:25Z</time>
      </trkpt>
      <trkpt lat="42.48768" lon="2.18646">
        <ele>1847.31</ele>
        <time>2016-07-01T06:52:26Z</time>
      </trkpt>
      <trkpt lat="42.48768" lon="2.18644">
        <ele>1847.31</ele>
        <time>2016-07-01T06:52:27Z</time>
      </trkpt>
      <trkpt lat="42.48769" lon="2.18642">
        <ele>1847.79</ele>
        <time>2016-07-01T06:52:28Z</time>
      </trkpt>
      <trkpt lat="42.48769" lon="2.1864">
        <ele>1847.31</ele>
        <time>2016-07-01T06:52:29Z</time>
      </trkpt>
      <trkpt lat="42.4877" lon="2.18639">
        <ele>1847.31</ele>
        <time>2016-07-01T06:52:30Z</time>
      </trkpt>
      <trkpt lat="42.48771" lon="2.18637">
        <ele>1847.31</ele>
        <time>2016-07-01T06:52:31Z</time>
      </trkpt>
      <trkpt lat="42.48772" lon="2.18634">
        <ele>1847.31</ele>
        <time>2016-07-01T06:52:33Z</time>
      </trkpt>
      <trkpt lat="42.48772" lon="2.18633">
        <ele>1847.31</ele>
        <time>2016-07-01T06:52:34Z</time>
      </trkpt>
      <trkpt lat="42.48772" lon="2.18631">
        <ele>1847.31</ele>
        <time>2016-07-01T06:52:35Z</time>
      </trkpt>
      <trkpt lat="42.48773" lon="2.1863">
        <ele>1847.31</ele>
        <time>2016-07-01T06:52:36Z</time>
      </trkpt>
      <trkpt lat="42.48775" lon="2.1863">
        <ele>1847.31</ele>
        <time>2016-07-01T06:52:37Z</time>
      </trkpt>
      <trkpt lat="42.48778" lon="2.18628">
        <ele>1847.31</ele>
        <time>2016-07-01T06:52:39Z</time>
      </trkpt>
      <trkpt lat="42.48779" lon="2.18628">
        <ele>1847.31</ele>
        <time>2016-07-01T06:52:40Z</time>
      </trkpt>
      <trkpt lat="42.4878" lon="2.18627">
        <ele>1847.31</ele>
        <time>2016-07-01T06:52:41Z</time>
      </trkpt>
      <trkpt lat="42.48783" lon="2.18625">
        <ele>1847.31</ele>
        <time>2016-07-01T06:52:44Z</time>
      </trkpt>
      <trkpt lat="42.48785" lon="2.18625">
        <ele>1847.31</ele>
        <time>2016-07-01T06:52:45Z</time>
      </trkpt>
      <trkpt lat="42.48786" lon="2.18625">
        <ele>1846.83</ele>
        <time>2016-07-01T06:52:46Z</time>
      </trkpt>
      <trkpt lat="42.48789" lon="2.18623">
        <ele>1846.83</ele>
        <time>2016-07-01T06:52:49Z</time>
      </trkpt>
      <trkpt lat="42.4879" lon="2.18623">
        <ele>1846.35</ele>
        <time>2016-07-01T06:52:50Z</time>
      </trkpt>
      <trkpt lat="42.48799" lon="2.18619">
        <ele>1844.43</ele>
        <time>2016-07-01T06:53:01Z</time>
      </trkpt>
      <trkpt lat="42.48801" lon="2.18616">
        <ele>1841.06</ele>
        <time>2016-07-01T06:53:05Z</time>
      </trkpt>
      <trkpt lat="42.48808" lon="2.18613">
        <ele>1837.7</ele>
        <time>2016-07-01T06:53:12Z</time>
      </trkpt>
      <trkpt lat="42.48811" lon="2.18609">
        <ele>1837.7</ele>
        <time>2016-07-01T06:53:19Z</time>
      </trkpt>
      <trkpt lat="42.48814" lon="2.18599">
        <ele>1837.22</ele>
        <time>2016-07-01T06:53:27Z</time>
      </trkpt>
      <trkpt lat="42.4883" lon="2.18606">
        <ele>1834.81</ele>
        <time>2016-07-01T06:53:36Z</time>
      </trkpt>
      <trkpt lat="42.48833" lon="2.18603">
        <ele>1832.89</ele>
        <time>2016-07-01T06:53:39Z</time>
      </trkpt>
      <trkpt lat="42.48836" lon="2.18601">
        <ele>1831.45</ele>
        <time>2016-07-01T06:53:41Z</time>
      </trkpt>
      <trkpt lat="42.48837" lon="2.18601">
        <ele>1830.97</ele>
        <time>2016-07-01T06:53:42Z</time>
      </trkpt>
      <trkpt lat="42.48835" lon="2.18597">
        <ele>1830.01</ele>
        <time>2016-07-01T06:53:43Z</time>
      </trkpt>
      <trkpt lat="42.48836" lon="2.18595">
        <ele>1829.53</ele>
        <time>2016-07-01T06:53:44Z</time>
      </trkpt>
      <trkpt lat="42.48835" lon="2.18593">
        <ele>1830.49</ele>
        <time>2016-07-01T06:53:45Z</time>
      </trkpt>
      <trkpt lat="42.48836" lon="2.18592">
        <ele>1829.05</ele>
        <time>2016-07-01T06:53:46Z</time>
      </trkpt>
      <trkpt lat="42.48849" lon="2.18587">
        <ele>1829.05</ele>
        <time>2016-07-01T06:53:57Z</time>
      </trkpt>
      <trkpt lat="42.48855" lon="2.18582">
        <ele>1829.05</ele>
        <time>2016-07-01T06:54:04Z</time>
      </trkpt>
      <trkpt lat="42.48866" lon="2.18583">
        <ele>1827.6</ele>
        <time>2016-07-01T06:54:13Z</time>
      </trkpt>
      <trkpt lat="42.48883" lon="2.18583">
        <ele>1825.68</ele>
        <time>2016-07-01T06:54:27Z</time>
      </trkpt>
      <trkpt lat="42.48887" lon="2.18582">
        <ele>1824.24</ele>
        <time>2016-07-01T06:54:31Z</time>
      </trkpt>
      <trkpt lat="42.48888" lon="2.18581">
        <ele>1824.72</ele>
        <time>2016-07-01T06:54:32Z</time>
      </trkpt>
      <trkpt lat="42.48889" lon="2.18581">
        <ele>1824.72</ele>
        <time>2016-07-01T06:54:33Z</time>
      </trkpt>
      <trkpt lat="42.48901" lon="2.18578">
        <ele>1820.87</ele>
        <time>2016-07-01T06:54:44Z</time>
      </trkpt>
      <trkpt lat="42.48905" lon="2.18577">
        <ele>1817.51</ele>
        <time>2016-07-01T06:54:48Z</time>
      </trkpt>
      <trkpt lat="42.48906" lon="2.18577">
        <ele>1816.55</ele>
        <time>2016-07-01T06:54:49Z</time>
      </trkpt>
      <trkpt lat="42.48909" lon="2.18575">
        <ele>1815.11</ele>
        <time>2016-07-01T06:54:52Z</time>
      </trkpt>
      <trkpt lat="42.48911" lon="2.18574">
        <ele>1814.63</ele>
        <time>2016-07-01T06:54:54Z</time>
      </trkpt>
      <trkpt lat="42.48912" lon="2.18573">
        <ele>1815.11</ele>
        <time>2016-07-01T06:54:55Z</time>
      </trkpt>
      <trkpt lat="42.48914" lon="2.18574">
        <ele>1815.11</ele>
        <time>2016-07-01T06:54:56Z</time>
      </trkpt>
      <trkpt lat="42.48915" lon="2.18573">
        <ele>1815.11</ele>
        <time>2016-07-01T06:54:57Z</time>
      </trkpt>
      <trkpt lat="42.48916" lon="2.18573">
        <ele>1815.11</ele>
        <time>2016-07-01T06:54:58Z</time>
      </trkpt>
      <trkpt lat="42.48918" lon="2.18573">
        <ele>1815.11</ele>
        <time>2016-07-01T06:54:59Z</time>
      </trkpt>
      <trkpt lat="42.48924" lon="2.18571">
        <ele>1814.63</ele>
        <time>2016-07-01T06:55:04Z</time>
      </trkpt>
      <trkpt lat="42.48926" lon="2.1857">
        <ele>1814.63</ele>
        <time>2016-07-01T06:55:06Z</time>
      </trkpt>
      <trkpt lat="42.48927" lon="2.18569">
        <ele>1814.63</ele>
        <time>2016-07-01T06:55:07Z</time>
      </trkpt>
      <trkpt lat="42.48931" lon="2.18564">
        <ele>1812.22</ele>
        <time>2016-07-01T06:55:18Z</time>
      </trkpt>
      <trkpt lat="42.4893" lon="2.18564">
        <ele>1811.26</ele>
        <time>2016-07-01T06:55:38Z</time>
      </trkpt>
      <trkpt lat="42.4893" lon="2.18563">
        <ele>1811.26</ele>
        <time>2016-07-01T06:55:55Z</time>
      </trkpt>
      <trkpt lat="42.48932" lon="2.1856">
        <ele>1810.78</ele>
        <time>2016-07-01T06:56:07Z</time>
      </trkpt>
      <trkpt lat="42.48934" lon="2.18556">
        <ele>1810.3</ele>
        <time>2016-07-01T06:56:12Z</time>
      </trkpt>
      <trkpt lat="42.48934" lon="2.18554">
        <ele>1810.3</ele>
        <time>2016-07-01T06:56:13Z</time>
      </trkpt>
      <trkpt lat="42.48936" lon="2.18552">
        <ele>1808.86</ele>
        <time>2016-07-01T06:56:17Z</time>
      </trkpt>
      <trkpt lat="42.48938" lon="2.18551">
        <ele>1809.34</ele>
        <time>2016-07-01T06:56:18Z</time>
      </trkpt>
      <trkpt lat="42.48942" lon="2.18552">
        <ele>1805.97</ele>
        <time>2016-07-01T06:56:21Z</time>
      </trkpt>
      <trkpt lat="42.48944" lon="2.1855">
        <ele>1802.61</ele>
        <time>2016-07-01T06:56:26Z</time>
      </trkpt>
      <trkpt lat="42.48944" lon="2.18548">
        <ele>1801.65</ele>
        <time>2016-07-01T06:56:29Z</time>
      </trkpt>
      <trkpt lat="42.48946" lon="2.18542">
        <ele>1802.13</ele>
        <time>2016-07-01T06:56:34Z</time>
      </trkpt>
      <trkpt lat="42.48958" lon="2.18538">
        <ele>1801.17</ele>
        <time>2016-07-01T06:56:45Z</time>
      </trkpt>
      <trkpt lat="42.48964" lon="2.18535">
        <ele>1797.8</ele>
        <time>2016-07-01T06:56:52Z</time>
      </trkpt>
      <trkpt lat="42.48965" lon="2.18534">
        <ele>1795.88</ele>
        <time>2016-07-01T06:56:54Z</time>
      </trkpt>
      <trkpt lat="42.48971" lon="2.18529">
        <ele>1792.52</ele>
        <time>2016-07-01T06:57:03Z</time>
      </trkpt>
      <trkpt lat="42.48974" lon="2.18525">
        <ele>1792.52</ele>
        <time>2016-07-01T06:57:08Z</time>
      </trkpt>
      <trkpt lat="42.4898" lon="2.18529">
        <ele>1792.52</ele>
        <time>2016-07-01T06:57:12Z</time>
      </trkpt>
      <trkpt lat="42.48985" lon="2.18525">
        <ele>1791.55</ele>
        <time>2016-07-01T06:57:18Z</time>
      </trkpt>
      <trkpt lat="42.48985" lon="2.1852">
        <ele>1791.07</ele>
        <time>2016-07-01T06:57:21Z</time>
      </trkpt>
      <trkpt lat="42.48987" lon="2.18517">
        <ele>1790.59</ele>
        <time>2016-07-01T06:57:24Z</time>
      </trkpt>
      <trkpt lat="42.48987" lon="2.18513">
        <ele>1788.67</ele>
        <time>2016-07-01T06:57:27Z</time>
      </trkpt>
      <trkpt lat="42.4899" lon="2.1851">
        <ele>1785.79</ele>
        <time>2016-07-01T06:57:31Z</time>
      </trkpt>
      <trkpt lat="42.48994" lon="2.18508">
        <ele>1783.38</ele>
        <time>2016-07-01T06:57:38Z</time>
      </trkpt>
      <trkpt lat="42.48994" lon="2.18507">
        <ele>1783.38</ele>
        <time>2016-07-01T06:57:39Z</time>
      </trkpt>
      <trkpt lat="42.49005" lon="2.18505">
        <ele>1782.9</ele>
        <time>2016-07-01T06:57:48Z</time>
      </trkpt>
      <trkpt lat="42.49014" lon="2.18509">
        <ele>1781.46</ele>
        <time>2016-07-01T06:57:56Z</time>
      </trkpt>
      <trkpt lat="42.49014" lon="2.18496">
        <ele>1780.5</ele>
        <time>2016-07-01T06:58:02Z</time>
      </trkpt>
      <trkpt lat="42.49015" lon="2.18493">
        <ele>1779.54</ele>
        <time>2016-07-01T06:58:05Z</time>
      </trkpt>
      <trkpt lat="42.49015" lon="2.1848">
        <ele>1778.58</ele>
        <time>2016-07-01T06:58:10Z</time>
      </trkpt>
      <trkpt lat="42.49017" lon="2.18477">
        <ele>1778.1</ele>
        <time>2016-07-01T06:58:12Z</time>
      </trkpt>
      <trkpt lat="42.49016" lon="2.18469">
        <ele>1776.17</ele>
        <time>2016-07-01T06:58:16Z</time>
      </trkpt>
      <trkpt lat="42.49018" lon="2.18461">
        <ele>1772.33</ele>
        <time>2016-07-01T06:58:21Z</time>
      </trkpt>
      <trkpt lat="42.49033" lon="2.18459">
        <ele>1771.37</ele>
        <time>2016-07-01T06:58:32Z</time>
      </trkpt>
      <trkpt lat="42.49041" lon="2.18457">
        <ele>1771.37</ele>
        <time>2016-07-01T06:58:38Z</time>
      </trkpt>
      <trkpt lat="42.49058" lon="2.18457">
        <ele>1770.89</ele>
        <time>2016-07-01T06:58:51Z</time>
      </trkpt>
      <trkpt lat="42.49072" lon="2.18459">
        <ele>1769.44</ele>
        <time>2016-07-01T06:59:03Z</time>
      </trkpt>
      <trkpt lat="42.49077" lon="2.18459">
        <ele>1768.96</ele>
        <time>2016-07-01T06:59:07Z</time>
      </trkpt>
      <trkpt lat="42.49081" lon="2.18458">
        <ele>1768</ele>
        <time>2016-07-01T06:59:10Z</time>
      </trkpt>
      <trkpt lat="42.49086" lon="2.18455">
        <ele>1767.52</ele>
        <time>2016-07-01T06:59:15Z</time>
      </trkpt>
      <trkpt lat="42.49088" lon="2.18451">
        <ele>1766.08</ele>
        <time>2016-07-01T06:59:18Z</time>
      </trkpt>
      <trkpt lat="42.49092" lon="2.18446">
        <ele>1764.16</ele>
        <time>2016-07-01T06:59:23Z</time>
      </trkpt>
      <trkpt lat="42.49095" lon="2.18445">
        <ele>1761.27</ele>
        <time>2016-07-01T06:59:26Z</time>
      </trkpt>
      <trkpt lat="42.49099" lon="2.18442">
        <ele>1758.39</ele>
        <time>2016-07-01T06:59:30Z</time>
      </trkpt>
      <trkpt lat="42.49109" lon="2.18432">
        <ele>1757.43</ele>
        <time>2016-07-01T06:59:40Z</time>
      </trkpt>
      <trkpt lat="42.4912" lon="2.18431">
        <ele>1756.95</ele>
        <time>2016-07-01T06:59:49Z</time>
      </trkpt>
      <trkpt lat="42.49124" lon="2.18427">
        <ele>1755.99</ele>
        <time>2016-07-01T06:59:54Z</time>
      </trkpt>
      <trkpt lat="42.49126" lon="2.18423">
        <ele>1755.02</ele>
        <time>2016-07-01T06:59:57Z</time>
      </trkpt>
      <trkpt lat="42.4913" lon="2.18421">
        <ele>1752.62</ele>
        <time>2016-07-01T07:00:00Z</time>
      </trkpt>
      <trkpt lat="42.49134" lon="2.18416">
        <ele>1749.26</ele>
        <time>2016-07-01T07:00:05Z</time>
      </trkpt>
      <trkpt lat="42.49138" lon="2.18405">
        <ele>1748.78</ele>
        <time>2016-07-01T07:00:14Z</time>
      </trkpt>
      <trkpt lat="42.49149" lon="2.18398">
        <ele>1748.29</ele>
        <time>2016-07-01T07:00:23Z</time>
      </trkpt>
      <trkpt lat="42.4915" lon="2.18398">
        <ele>1747.81</ele>
        <time>2016-07-01T07:00:24Z</time>
      </trkpt>
      <trkpt lat="42.49156" lon="2.18393">
        <ele>1747.33</ele>
        <time>2016-07-01T07:00:29Z</time>
      </trkpt>
      <trkpt lat="42.49157" lon="2.18392">
        <ele>1747.33</ele>
        <time>2016-07-01T07:00:30Z</time>
      </trkpt>
      <trkpt lat="42.49158" lon="2.18391">
        <ele>1747.33</ele>
        <time>2016-07-01T07:00:31Z</time>
      </trkpt>
      <trkpt lat="42.49159" lon="2.1839">
        <ele>1746.37</ele>
        <time>2016-07-01T07:00:32Z</time>
      </trkpt>
      <trkpt lat="42.49161" lon="2.1839">
        <ele>1746.85</ele>
        <time>2016-07-01T07:00:33Z</time>
      </trkpt>
      <trkpt lat="42.49162" lon="2.18389">
        <ele>1746.85</ele>
        <time>2016-07-01T07:00:34Z</time>
      </trkpt>
      <trkpt lat="42.49164" lon="2.18389">
        <ele>1746.85</ele>
        <time>2016-07-01T07:00:35Z</time>
      </trkpt>
      <trkpt lat="42.49165" lon="2.18389">
        <ele>1746.85</ele>
        <time>2016-07-01T07:00:36Z</time>
      </trkpt>
      <trkpt lat="42.49166" lon="2.18388">
        <ele>1745.89</ele>
        <time>2016-07-01T07:00:37Z</time>
      </trkpt>
      <trkpt lat="42.49168" lon="2.18388">
        <ele>1746.37</ele>
        <time>2016-07-01T07:00:39Z</time>
      </trkpt>
      <trkpt lat="42.4917" lon="2.18388">
        <ele>1746.37</ele>
        <time>2016-07-01T07:00:40Z</time>
      </trkpt>
      <trkpt lat="42.49174" lon="2.18387">
        <ele>1745.89</ele>
        <time>2016-07-01T07:00:44Z</time>
      </trkpt>
      <trkpt lat="42.49185" lon="2.18389">
        <ele>1745.41</ele>
        <time>2016-07-01T07:00:53Z</time>
      </trkpt>
      <trkpt lat="42.49193" lon="2.1839">
        <ele>1744.93</ele>
        <time>2016-07-01T07:00:59Z</time>
      </trkpt>
      <trkpt lat="42.49194" lon="2.1839">
        <ele>1744.93</ele>
        <time>2016-07-01T07:01:00Z</time>
      </trkpt>
      <trkpt lat="42.49195" lon="2.18389">
        <ele>1744.93</ele>
        <time>2016-07-01T07:01:01Z</time>
      </trkpt>
      <trkpt lat="42.492" lon="2.18383">
        <ele>1743.97</ele>
        <time>2016-07-01T07:01:08Z</time>
      </trkpt>
      <trkpt lat="42.49203" lon="2.1838">
        <ele>1743.49</ele>
        <time>2016-07-01T07:01:12Z</time>
      </trkpt>
      <trkpt lat="42.4921" lon="2.18377">
        <ele>1740.12</ele>
        <time>2016-07-01T07:01:20Z</time>
      </trkpt>
      <trkpt lat="42.49213" lon="2.18373">
        <ele>1736.76</ele>
        <time>2016-07-01T07:01:24Z</time>
      </trkpt>
      <trkpt lat="42.49217" lon="2.18369">
        <ele>1734.84</ele>
        <time>2016-07-01T07:01:30Z</time>
      </trkpt>
      <trkpt lat="42.49221" lon="2.18365">
        <ele>1734.84</ele>
        <time>2016-07-01T07:01:36Z</time>
      </trkpt>
      <trkpt lat="42.49224" lon="2.18363">
        <ele>1734.36</ele>
        <time>2016-07-01T07:01:39Z</time>
      </trkpt>
      <trkpt lat="42.49225" lon="2.18361">
        <ele>1734.36</ele>
        <time>2016-07-01T07:01:41Z</time>
      </trkpt>
      <trkpt lat="42.49225" lon="2.18359">
        <ele>1733.88</ele>
        <time>2016-07-01T07:01:42Z</time>
      </trkpt>
      <trkpt lat="42.49226" lon="2.18358">
        <ele>1733.88</ele>
        <time>2016-07-01T07:01:43Z</time>
      </trkpt>
      <trkpt lat="42.49231" lon="2.18355">
        <ele>1732.43</ele>
        <time>2016-07-01T07:01:49Z</time>
      </trkpt>
      <trkpt lat="42.49233" lon="2.18354">
        <ele>1732.43</ele>
        <time>2016-07-01T07:01:51Z</time>
      </trkpt>
      <trkpt lat="42.49233" lon="2.18352">
        <ele>1731.95</ele>
        <time>2016-07-01T07:01:52Z</time>
      </trkpt>
      <trkpt lat="42.49239" lon="2.18346">
        <ele>1728.59</ele>
        <time>2016-07-01T07:02:01Z</time>
      </trkpt>
      <trkpt lat="42.49241" lon="2.18343">
        <ele>1725.22</ele>
        <time>2016-07-01T07:02:05Z</time>
      </trkpt>
      <trkpt lat="42.49242" lon="2.18342">
        <ele>1724.74</ele>
        <time>2016-07-01T07:02:06Z</time>
      </trkpt>
      <trkpt lat="42.49242" lon="2.18339">
        <ele>1723.3</ele>
        <time>2016-07-01T07:02:08Z</time>
      </trkpt>
      <trkpt lat="42.49242" lon="2.18334">
        <ele>1722.34</ele>
        <time>2016-07-01T07:02:12Z</time>
      </trkpt>
      <trkpt lat="42.4925" lon="2.18327">
        <ele>1722.34</ele>
        <time>2016-07-01T07:02:24Z</time>
      </trkpt>
      <trkpt lat="42.49252" lon="2.18327">
        <ele>1721.38</ele>
        <time>2016-07-01T07:02:26Z</time>
      </trkpt>
      <trkpt lat="42.49255" lon="2.18316">
        <ele>1719.94</ele>
        <time>2016-07-01T07:02:37Z</time>
      </trkpt>
      <trkpt lat="42.49259" lon="2.1831">
        <ele>1716.57</ele>
        <time>2016-07-01T07:02:44Z</time>
      </trkpt>
      <trkpt lat="42.49262" lon="2.18307">
        <ele>1713.21</ele>
        <time>2016-07-01T07:02:49Z</time>
      </trkpt>
      <trkpt lat="42.49266" lon="2.183">
        <ele>1711.76</ele>
        <time>2016-07-01T07:02:59Z</time>
      </trkpt>
      <trkpt lat="42.49267" lon="2.18298">
        <ele>1711.76</ele>
        <time>2016-07-01T07:03:01Z</time>
      </trkpt>
      <trkpt lat="42.49271" lon="2.18275">
        <ele>1708.4</ele>
        <time>2016-07-01T07:03:17Z</time>
      </trkpt>
      <trkpt lat="42.49273" lon="2.1827">
        <ele>1705.04</ele>
        <time>2016-07-01T07:03:21Z</time>
      </trkpt>
      <trkpt lat="42.49274" lon="2.18265">
        <ele>1704.07</ele>
        <time>2016-07-01T07:03:26Z</time>
      </trkpt>
      <trkpt lat="42.49275" lon="2.18264">
        <ele>1704.07</ele>
        <time>2016-07-01T07:03:27Z</time>
      </trkpt>
      <trkpt lat="42.49278" lon="2.18258">
        <ele>1703.11</ele>
        <time>2016-07-01T07:03:38Z</time>
      </trkpt>
      <trkpt lat="42.49284" lon="2.18247">
        <ele>1701.19</ele>
        <time>2016-07-01T07:03:48Z</time>
      </trkpt>
      <trkpt lat="42.49288" lon="2.18241">
        <ele>1697.34</ele>
        <time>2016-07-01T07:03:58Z</time>
      </trkpt>
      <trkpt lat="42.4929" lon="2.18238">
        <ele>1693.98</ele>
        <time>2016-07-01T07:04:02Z</time>
      </trkpt>
      <trkpt lat="42.49297" lon="2.18229">
        <ele>1692.06</ele>
        <time>2016-07-01T07:04:13Z</time>
      </trkpt>
      <trkpt lat="42.49302" lon="2.18223">
        <ele>1691.58</ele>
        <time>2016-07-01T07:04:22Z</time>
      </trkpt>
      <trkpt lat="42.49309" lon="2.18217">
        <ele>1689.17</ele>
        <time>2016-07-01T07:04:35Z</time>
      </trkpt>
      <trkpt lat="42.49311" lon="2.18211">
        <ele>1687.73</ele>
        <time>2016-07-01T07:04:41Z</time>
      </trkpt>
      <trkpt lat="42.49313" lon="2.18208">
        <ele>1684.85</ele>
        <time>2016-07-01T07:04:45Z</time>
      </trkpt>
      <trkpt lat="42.49315" lon="2.18205">
        <ele>1681</ele>
        <time>2016-07-01T07:04:50Z</time>
      </trkpt>
      <trkpt lat="42.4932" lon="2.18202">
        <ele>1680.52</ele>
        <time>2016-07-01T07:04:56Z</time>
      </trkpt>
      <trkpt lat="42.49322" lon="2.18202">
        <ele>1680.52</ele>
        <time>2016-07-01T07:04:57Z</time>
      </trkpt>
      <trkpt lat="42.49328" lon="2.18196">
        <ele>1679.56</ele>
        <time>2016-07-01T07:05:08Z</time>
      </trkpt>
      <trkpt lat="42.4933" lon="2.18195">
        <ele>1679.08</ele>
        <time>2016-07-01T07:05:09Z</time>
      </trkpt>
      <trkpt lat="42.49335" lon="2.18193">
        <ele>1677.16</ele>
        <time>2016-07-01T07:05:18Z</time>
      </trkpt>
      <trkpt lat="42.49336" lon="2.18192">
        <ele>1677.16</ele>
        <time>2016-07-01T07:05:19Z</time>
      </trkpt>
      <trkpt lat="42.49342" lon="2.18185">
        <ele>1674.27</ele>
        <time>2016-07-01T07:05:30Z</time>
      </trkpt>
      <trkpt lat="42.49347" lon="2.18185">
        <ele>1670.91</ele>
        <time>2016-07-01T07:05:36Z</time>
      </trkpt>
      <trkpt lat="42.49348" lon="2.18184">
        <ele>1669.95</ele>
        <time>2016-07-01T07:05:37Z</time>
      </trkpt>
      <trkpt lat="42.49355" lon="2.18179">
        <ele>1667.06</ele>
        <time>2016-07-01T07:05:45Z</time>
      </trkpt>
      <trkpt lat="42.4936" lon="2.18174">
        <ele>1667.06</ele>
        <time>2016-07-01T07:05:51Z</time>
      </trkpt>
      <trkpt lat="42.49361" lon="2.18174">
        <ele>1667.06</ele>
        <time>2016-07-01T07:05:52Z</time>
      </trkpt>
      <trkpt lat="42.49362" lon="2.18174">
        <ele>1667.06</ele>
        <time>2016-07-01T07:05:53Z</time>
      </trkpt>
      <trkpt lat="42.49371" lon="2.18169">
        <ele>1665.62</ele>
        <time>2016-07-01T07:06:02Z</time>
      </trkpt>
      <trkpt lat="42.49379" lon="2.1816">
        <ele>1664.18</ele>
        <time>2016-07-01T07:06:13Z</time>
      </trkpt>
      <trkpt lat="42.4938" lon="2.18157">
        <ele>1663.22</ele>
        <time>2016-07-01T07:06:15Z</time>
      </trkpt>
      <trkpt lat="42.4938" lon="2.18156">
        <ele>1663.22</ele>
        <time>2016-07-01T07:06:16Z</time>
      </trkpt>
      <trkpt lat="42.49384" lon="2.18153">
        <ele>1660.33</ele>
        <time>2016-07-01T07:06:22Z</time>
      </trkpt>
      <trkpt lat="42.49389" lon="2.18149">
        <ele>1656.49</ele>
        <time>2016-07-01T07:06:29Z</time>
      </trkpt>
      <trkpt lat="42.49398" lon="2.18142">
        <ele>1656.01</ele>
        <time>2016-07-01T07:06:41Z</time>
      </trkpt>
      <trkpt lat="42.49402" lon="2.18139">
        <ele>1655.05</ele>
        <time>2016-07-01T07:06:47Z</time>
      </trkpt>
      <trkpt lat="42.49409" lon="2.18133">
        <ele>1653.12</ele>
        <time>2016-07-01T07:06:56Z</time>
      </trkpt>
      <trkpt lat="42.49412" lon="2.18131">
        <ele>1649.76</ele>
        <time>2016-07-01T07:07:00Z</time>
      </trkpt>
      <trkpt lat="42.49417" lon="2.18129">
        <ele>1646.88</ele>
        <time>2016-07-01T07:07:05Z</time>
      </trkpt>
      <trkpt lat="42.49422" lon="2.18126">
        <ele>1646.4</ele>
        <time>2016-07-01T07:07:10Z</time>
      </trkpt>
      <trkpt lat="42.49423" lon="2.18126">
        <ele>1646.4</ele>
        <time>2016-07-01T07:07:11Z</time>
      </trkpt>
      <trkpt lat="42.49423" lon="2.18126">
        <ele>1646.4</ele>
        <time>2016-07-01T07:07:24Z</time>
      </trkpt>
      <trkpt lat="42.49425" lon="2.18126">
        <ele>1646.4</ele>
        <time>2016-07-01T07:07:40Z</time>
      </trkpt>
      <trkpt lat="42.49428" lon="2.18123">
        <ele>1646.4</ele>
        <time>2016-07-01T07:08:01Z</time>
      </trkpt>
      <trkpt lat="42.49429" lon="2.18122">
        <ele>1646.4</ele>
        <time>2016-07-01T07:08:02Z</time>
      </trkpt>
      <trkpt lat="42.4943" lon="2.18121">
        <ele>1646.4</ele>
        <time>2016-07-01T07:08:03Z</time>
      </trkpt>
      <trkpt lat="42.49432" lon="2.1812">
        <ele>1645.91</ele>
        <time>2016-07-01T07:08:05Z</time>
      </trkpt>
      <trkpt lat="42.49433" lon="2.1812">
        <ele>1645.91</ele>
        <time>2016-07-01T07:08:06Z</time>
      </trkpt>
      <trkpt lat="42.49435" lon="2.18119">
        <ele>1645.91</ele>
        <time>2016-07-01T07:08:07Z</time>
      </trkpt>
      <trkpt lat="42.49437" lon="2.18117">
        <ele>1645.43</ele>
        <time>2016-07-01T07:08:10Z</time>
      </trkpt>
      <trkpt lat="42.49437" lon="2.18116">
        <ele>1645.43</ele>
        <time>2016-07-01T07:08:11Z</time>
      </trkpt>
      <trkpt lat="42.49439" lon="2.18115">
        <ele>1644.47</ele>
        <time>2016-07-01T07:08:13Z</time>
      </trkpt>
      <trkpt lat="42.49445" lon="2.18105">
        <ele>1641.59</ele>
        <time>2016-07-01T07:08:23Z</time>
      </trkpt>
      <trkpt lat="42.49447" lon="2.18103">
        <ele>1639.67</ele>
        <time>2016-07-01T07:08:25Z</time>
      </trkpt>
      <trkpt lat="42.49452" lon="2.18104">
        <ele>1636.78</ele>
        <time>2016-07-01T07:08:29Z</time>
      </trkpt>
      <trkpt lat="42.49455" lon="2.18103">
        <ele>1635.82</ele>
        <time>2016-07-01T07:08:31Z</time>
      </trkpt>
      <trkpt lat="42.49458" lon="2.18103">
        <ele>1635.34</ele>
        <time>2016-07-01T07:08:33Z</time>
      </trkpt>
      <trkpt lat="42.4946" lon="2.18103">
        <ele>1635.82</ele>
        <time>2016-07-01T07:08:34Z</time>
      </trkpt>
      <trkpt lat="42.49461" lon="2.18102">
        <ele>1635.82</ele>
        <time>2016-07-01T07:08:35Z</time>
      </trkpt>
      <trkpt lat="42.49463" lon="2.18102">
        <ele>1635.82</ele>
        <time>2016-07-01T07:08:36Z</time>
      </trkpt>
      <trkpt lat="42.49464" lon="2.18101">
        <ele>1635.82</ele>
        <time>2016-07-01T07:08:37Z</time>
      </trkpt>
      <trkpt lat="42.49467" lon="2.18099">
        <ele>1635.82</ele>
        <time>2016-07-01T07:08:40Z</time>
      </trkpt>
      <trkpt lat="42.49468" lon="2.18099">
        <ele>1635.82</ele>
        <time>2016-07-01T07:08:41Z</time>
      </trkpt>
      <trkpt lat="42.4947" lon="2.18096">
        <ele>1635.34</ele>
        <time>2016-07-01T07:08:43Z</time>
      </trkpt>
      <trkpt lat="42.49471" lon="2.18095">
        <ele>1635.34</ele>
        <time>2016-07-01T07:08:44Z</time>
      </trkpt>
      <trkpt lat="42.49473" lon="2.18093">
        <ele>1634.38</ele>
        <time>2016-07-01T07:08:46Z</time>
      </trkpt>
      <trkpt lat="42.49474" lon="2.18092">
        <ele>1634.86</ele>
        <time>2016-07-01T07:08:47Z</time>
      </trkpt>
      <trkpt lat="42.4948" lon="2.18091">
        <ele>1633.42</ele>
        <time>2016-07-01T07:08:53Z</time>
      </trkpt>
      <trkpt lat="42.49483" lon="2.18089">
        <ele>1631.98</ele>
        <time>2016-07-01T07:08:57Z</time>
      </trkpt>
      <trkpt lat="42.49489" lon="2.18085">
        <ele>1628.61</ele>
        <time>2016-07-01T07:09:04Z</time>
      </trkpt>
      <trkpt lat="42.4949" lon="2.18084">
        <ele>1627.65</ele>
        <time>2016-07-01T07:09:05Z</time>
      </trkpt>
      <trkpt lat="42.49491" lon="2.18083">
        <ele>1626.21</ele>
        <time>2016-07-01T07:09:06Z</time>
      </trkpt>
      <trkpt lat="42.49492" lon="2.18083">
        <ele>1625.73</ele>
        <time>2016-07-01T07:09:07Z</time>
      </trkpt>
      <trkpt lat="42.49493" lon="2.18083">
        <ele>1624.77</ele>
        <time>2016-07-01T07:09:08Z</time>
      </trkpt>
      <trkpt lat="42.49494" lon="2.18082">
        <ele>1623.8</ele>
        <time>2016-07-01T07:09:10Z</time>
      </trkpt>
      <trkpt lat="42.49498" lon="2.18076">
        <ele>1623.8</ele>
        <time>2016-07-01T07:09:18Z</time>
      </trkpt>
      <trkpt lat="42.49508" lon="2.18066">
        <ele>1621.88</ele>
        <time>2016-07-01T07:09:31Z</time>
      </trkpt>
      <trkpt lat="42.49519" lon="2.18062">
        <ele>1618.52</ele>
        <time>2016-07-01T07:09:42Z</time>
      </trkpt>
      <trkpt lat="42.49522" lon="2.18061">
        <ele>1615.15</ele>
        <time>2016-07-01T07:09:46Z</time>
      </trkpt>
      <trkpt lat="42.49528" lon="2.18061">
        <ele>1612.27</ele>
        <time>2016-07-01T07:09:52Z</time>
      </trkpt>
      <trkpt lat="42.4953" lon="2.1806">
        <ele>1612.75</ele>
        <time>2016-07-01T07:09:54Z</time>
      </trkpt>
      <trkpt lat="42.49531" lon="2.18059">
        <ele>1612.75</ele>
        <time>2016-07-01T07:09:55Z</time>
      </trkpt>
      <trkpt lat="42.4954" lon="2.18054">
        <ele>1612.27</ele>
        <time>2016-07-01T07:10:06Z</time>
      </trkpt>
      <trkpt lat="42.49552" lon="2.18051">
        <ele>1609.86</ele>
        <time>2016-07-01T07:10:18Z</time>
      </trkpt>
      <trkpt lat="42.49556" lon="2.1805">
        <ele>1606.5</ele>
        <time>2016-07-01T07:10:21Z</time>
      </trkpt>
      <trkpt lat="42.49561" lon="2.18049">
        <ele>1603.62</ele>
        <time>2016-07-01T07:10:26Z</time>
      </trkpt>
      <trkpt lat="42.49564" lon="2.18049">
        <ele>1603.62</ele>
        <time>2016-07-01T07:10:29Z</time>
      </trkpt>
      <trkpt lat="42.49565" lon="2.18048">
        <ele>1603.62</ele>
        <time>2016-07-01T07:10:30Z</time>
      </trkpt>
      <trkpt lat="42.49566" lon="2.18048">
        <ele>1603.62</ele>
        <time>2016-07-01T07:10:31Z</time>
      </trkpt>
      <trkpt lat="42.49577" lon="2.18046">
        <ele>1602.66</ele>
        <time>2016-07-01T07:10:43Z</time>
      </trkpt>
      <trkpt lat="42.49578" lon="2.18046">
        <ele>1601.69</ele>
        <time>2016-07-01T07:10:44Z</time>
      </trkpt>
      <trkpt lat="42.4958" lon="2.18046">
        <ele>1602.17</ele>
        <time>2016-07-01T07:10:45Z</time>
      </trkpt>
      <trkpt lat="42.49591" lon="2.18045">
        <ele>1599.77</ele>
        <time>2016-07-01T07:10:55Z</time>
      </trkpt>
      <trkpt lat="42.496" lon="2.18045">
        <ele>1595.93</ele>
        <time>2016-07-01T07:11:02Z</time>
      </trkpt>
      <trkpt lat="42.49607" lon="2.18046">
        <ele>1593.04</ele>
        <time>2016-07-01T07:11:07Z</time>
      </trkpt>
      <trkpt lat="42.49608" lon="2.18047">
        <ele>1593.52</ele>
        <time>2016-07-01T07:11:08Z</time>
      </trkpt>
      <trkpt lat="42.49609" lon="2.18048">
        <ele>1592.56</ele>
        <time>2016-07-01T07:11:09Z</time>
      </trkpt>
      <trkpt lat="42.49617" lon="2.18056">
        <ele>1593.04</ele>
        <time>2016-07-01T07:11:22Z</time>
      </trkpt>
      <trkpt lat="42.49616" lon="2.18056">
        <ele>1593.04</ele>
        <time>2016-07-01T07:11:27Z</time>
      </trkpt>
      <trkpt lat="42.4961" lon="2.18047">
        <ele>1593.04</ele>
        <time>2016-07-01T07:11:36Z</time>
      </trkpt>
      <trkpt lat="42.49613" lon="2.18036">
        <ele>1594</ele>
        <time>2016-07-01T07:11:45Z</time>
      </trkpt>
      <trkpt lat="42.49614" lon="2.18026">
        <ele>1592.08</ele>
        <time>2016-07-01T07:11:53Z</time>
      </trkpt>
      <trkpt lat="42.49617" lon="2.18013">
        <ele>1588.72</ele>
        <time>2016-07-01T07:12:05Z</time>
      </trkpt>
      <trkpt lat="42.49617" lon="2.18009">
        <ele>1584.87</ele>
        <time>2016-07-01T07:12:09Z</time>
      </trkpt>
      <trkpt lat="42.49617" lon="2.18008">
        <ele>1584.39</ele>
        <time>2016-07-01T07:12:10Z</time>
      </trkpt>
      <trkpt lat="42.49614" lon="2.18">
        <ele>1582.47</ele>
        <time>2016-07-01T07:12:17Z</time>
      </trkpt>
      <trkpt lat="42.49613" lon="2.17998">
        <ele>1582.47</ele>
        <time>2016-07-01T07:12:20Z</time>
      </trkpt>
      <trkpt lat="42.49613" lon="2.17993">
        <ele>1582.47</ele>
        <time>2016-07-01T07:12:26Z</time>
      </trkpt>
      <trkpt lat="42.49614" lon="2.17984">
        <ele>1580.06</ele>
        <time>2016-07-01T07:12:38Z</time>
      </trkpt>
      <trkpt lat="42.49618" lon="2.17983">
        <ele>1579.1</ele>
        <time>2016-07-01T07:12:44Z</time>
      </trkpt>
      <trkpt lat="42.49623" lon="2.17981">
        <ele>1576.22</ele>
        <time>2016-07-01T07:12:49Z</time>
      </trkpt>
      <trkpt lat="42.49629" lon="2.17983">
        <ele>1572.37</ele>
        <time>2016-07-01T07:12:54Z</time>
      </trkpt>
      <trkpt lat="42.49632" lon="2.17984">
        <ele>1571.89</ele>
        <time>2016-07-01T07:12:57Z</time>
      </trkpt>
      <trkpt lat="42.49641" lon="2.17988">
        <ele>1571.89</ele>
        <time>2016-07-01T07:13:05Z</time>
      </trkpt>
      <trkpt lat="42.49653" lon="2.18">
        <ele>1570.45</ele>
        <time>2016-07-01T07:13:20Z</time>
      </trkpt>
      <trkpt lat="42.49663" lon="2.18007">
        <ele>1567.57</ele>
        <time>2016-07-01T07:13:32Z</time>
      </trkpt>
      <trkpt lat="42.49667" lon="2.1801">
        <ele>1567.57</ele>
        <time>2016-07-01T07:13:36Z</time>
      </trkpt>
      <trkpt lat="42.49674" lon="2.18018">
        <ele>1563.72</ele>
        <time>2016-07-01T07:13:46Z</time>
      </trkpt>
      <trkpt lat="42.49676" lon="2.18021">
        <ele>1560.36</ele>
        <time>2016-07-01T07:13:50Z</time>
      </trkpt>
      <trkpt lat="42.49678" lon="2.18023">
        <ele>1559.4</ele>
        <time>2016-07-01T07:13:54Z</time>
      </trkpt>
      <trkpt lat="42.49684" lon="2.18027">
        <ele>1557.95</ele>
        <time>2016-07-01T07:14:02Z</time>
      </trkpt>
      <trkpt lat="42.4969" lon="2.18023">
        <ele>1557.47</ele>
        <time>2016-07-01T07:14:10Z</time>
      </trkpt>
      <trkpt lat="42.49693" lon="2.18016">
        <ele>1556.51</ele>
        <time>2016-07-01T07:14:16Z</time>
      </trkpt>
      <trkpt lat="42.49696" lon="2.18006">
        <ele>1551.71</ele>
        <time>2016-07-01T07:14:25Z</time>
      </trkpt>
      <trkpt lat="42.49695" lon="2.18">
        <ele>1548.34</ele>
        <time>2016-07-01T07:14:29Z</time>
      </trkpt>
      <trkpt lat="42.49694" lon="2.17994">
        <ele>1546.9</ele>
        <time>2016-07-01T07:14:33Z</time>
      </trkpt>
      <trkpt lat="42.49687" lon="2.17972">
        <ele>1547.38</ele>
        <time>2016-07-01T07:14:48Z</time>
      </trkpt>
      <trkpt lat="42.49686" lon="2.17968">
        <ele>1546.9</ele>
        <time>2016-07-01T07:14:51Z</time>
      </trkpt>
      <trkpt lat="42.4968" lon="2.1795">
        <ele>1544.5</ele>
        <time>2016-07-01T07:15:05Z</time>
      </trkpt>
      <trkpt lat="42.4968" lon="2.17949">
        <ele>1543.05</ele>
        <time>2016-07-01T07:15:15Z</time>
      </trkpt>
      <trkpt lat="42.49679" lon="2.17948">
        <ele>1542.57</ele>
        <time>2016-07-01T07:15:18Z</time>
      </trkpt>
      <trkpt lat="42.49676" lon="2.17943">
        <ele>1541.61</ele>
        <time>2016-07-01T07:15:22Z</time>
      </trkpt>
      <trkpt lat="42.4967" lon="2.17931">
        <ele>1540.17</ele>
        <time>2016-07-01T07:15:33Z</time>
      </trkpt>
      <trkpt lat="42.49665" lon="2.17923">
        <ele>1538.25</ele>
        <time>2016-07-01T07:15:40Z</time>
      </trkpt>
      <trkpt lat="42.49664" lon="2.1792">
        <ele>1538.25</ele>
        <time>2016-07-01T07:15:42Z</time>
      </trkpt>
      <trkpt lat="42.49658" lon="2.17907">
        <ele>1535.84</ele>
        <time>2016-07-01T07:15:53Z</time>
      </trkpt>
      <trkpt lat="42.49658" lon="2.17907">
        <ele>1535.84</ele>
        <time>2016-07-01T07:15:54Z</time>
      </trkpt>
      <trkpt lat="42.4965" lon="2.17896">
        <ele>1531.52</ele>
        <time>2016-07-01T07:16:04Z</time>
      </trkpt>
      <trkpt lat="42.49647" lon="2.17894">
        <ele>1529.11</ele>
        <time>2016-07-01T07:16:09Z</time>
      </trkpt>
      <trkpt lat="42.49642" lon="2.17886">
        <ele>1528.63</ele>
        <time>2016-07-01T07:16:17Z</time>
      </trkpt>
      <trkpt lat="42.49638" lon="2.17879">
        <ele>1528.15</ele>
        <time>2016-07-01T07:16:28Z</time>
      </trkpt>
      <trkpt lat="42.49633" lon="2.17871">
        <ele>1526.71</ele>
        <time>2016-07-01T07:16:37Z</time>
      </trkpt>
      <trkpt lat="42.4963" lon="2.17868">
        <ele>1526.23</ele>
        <time>2016-07-01T07:16:40Z</time>
      </trkpt>
      <trkpt lat="42.49623" lon="2.17857">
        <ele>1523.83</ele>
        <time>2016-07-01T07:16:51Z</time>
      </trkpt>
      <trkpt lat="42.4962" lon="2.17856">
        <ele>1522.39</ele>
        <time>2016-07-01T07:16:55Z</time>
      </trkpt>
      <trkpt lat="42.49617" lon="2.17852">
        <ele>1518.54</ele>
        <time>2016-07-01T07:17:01Z</time>
      </trkpt>
      <trkpt lat="42.49617" lon="2.17849">
        <ele>1518.06</ele>
        <time>2016-07-01T07:17:03Z</time>
      </trkpt>
      <trkpt lat="42.49617" lon="2.17846">
        <ele>1516.62</ele>
        <time>2016-07-01T07:17:05Z</time>
      </trkpt>
      <trkpt lat="42.49615" lon="2.17841">
        <ele>1517.1</ele>
        <time>2016-07-01T07:17:08Z</time>
      </trkpt>
      <trkpt lat="42.4961" lon="2.1783">
        <ele>1516.62</ele>
        <time>2016-07-01T07:17:16Z</time>
      </trkpt>
      <trkpt lat="42.49605" lon="2.17814">
        <ele>1514.69</ele>
        <time>2016-07-01T07:17:29Z</time>
      </trkpt>
      <trkpt lat="42.49603" lon="2.17806">
        <ele>1513.25</ele>
        <time>2016-07-01T07:17:36Z</time>
      </trkpt>
      <trkpt lat="42.496" lon="2.17801">
        <ele>1509.89</ele>
        <time>2016-07-01T07:17:41Z</time>
      </trkpt>
      <trkpt lat="42.49599" lon="2.17797">
        <ele>1506.52</ele>
        <time>2016-07-01T07:17:45Z</time>
      </trkpt>
      <trkpt lat="42.49596" lon="2.17783">
        <ele>1505.56</ele>
        <time>2016-07-01T07:17:56Z</time>
      </trkpt>
      <trkpt lat="42.49592" lon="2.17776">
        <ele>1505.08</ele>
        <time>2016-07-01T07:18:02Z</time>
      </trkpt>
      <trkpt lat="42.4959" lon="2.17757">
        <ele>1503.16</ele>
        <time>2016-07-01T07:18:15Z</time>
      </trkpt>
      <trkpt lat="42.49589" lon="2.17753">
        <ele>1502.68</ele>
        <time>2016-07-01T07:18:19Z</time>
      </trkpt>
      <trkpt lat="42.49583" lon="2.17743">
        <ele>1498.83</ele>
        <time>2016-07-01T07:18:29Z</time>
      </trkpt>
      <trkpt lat="42.49582" lon="2.17739">
        <ele>1495.47</ele>
        <time>2016-07-01T07:18:33Z</time>
      </trkpt>
      <trkpt lat="42.49581" lon="2.17723">
        <ele>1493.06</ele>
        <time>2016-07-01T07:18:47Z</time>
      </trkpt>
      <trkpt lat="42.4958" lon="2.17711">
        <ele>1492.1</ele>
        <time>2016-07-01T07:18:56Z</time>
      </trkpt>
      <trkpt lat="42.49581" lon="2.17694">
        <ele>1488.74</ele>
        <time>2016-07-01T07:19:10Z</time>
      </trkpt>
      <trkpt lat="42.49579" lon="2.1768">
        <ele>1485.85</ele>
        <time>2016-07-01T07:19:21Z</time>
      </trkpt>
      <trkpt lat="42.49579" lon="2.17675">
        <ele>1482.01</ele>
        <time>2016-07-01T07:19:26Z</time>
      </trkpt>
      <trkpt lat="42.49575" lon="2.17664">
        <ele>1480.57</ele>
        <time>2016-07-01T07:19:38Z</time>
      </trkpt>
      <trkpt lat="42.49572" lon="2.17654">
        <ele>1479.13</ele>
        <time>2016-07-01T07:19:48Z</time>
      </trkpt>
      <trkpt lat="42.49566" lon="2.1764">
        <ele>1476.24</ele>
        <time>2016-07-01T07:20:01Z</time>
      </trkpt>
      <trkpt lat="42.49562" lon="2.1763">
        <ele>1474.8</ele>
        <time>2016-07-01T07:20:09Z</time>
      </trkpt>
      <trkpt lat="42.49558" lon="2.17617">
        <ele>1472.4</ele>
        <time>2016-07-01T07:20:17Z</time>
      </trkpt>
      <trkpt lat="42.49556" lon="2.1761">
        <ele>1468.55</ele>
        <time>2016-07-01T07:20:23Z</time>
      </trkpt>
      <trkpt lat="42.49555" lon="2.17607">
        <ele>1467.59</ele>
        <time>2016-07-01T07:20:25Z</time>
      </trkpt>
      <trkpt lat="42.49555" lon="2.17601">
        <ele>1466.15</ele>
        <time>2016-07-01T07:20:29Z</time>
      </trkpt>
      <trkpt lat="42.49551" lon="2.17584">
        <ele>1465.19</ele>
        <time>2016-07-01T07:20:42Z</time>
      </trkpt>
      <trkpt lat="42.49547" lon="2.17569">
        <ele>1462.78</ele>
        <time>2016-07-01T07:20:55Z</time>
      </trkpt>
      <trkpt lat="42.49544" lon="2.17558">
        <ele>1459.42</ele>
        <time>2016-07-01T07:21:10Z</time>
      </trkpt>
      <trkpt lat="42.49543" lon="2.17556">
        <ele>1458.94</ele>
        <time>2016-07-01T07:21:13Z</time>
      </trkpt>
      <trkpt lat="42.49542" lon="2.17548">
        <ele>1456.05</ele>
        <time>2016-07-01T07:21:21Z</time>
      </trkpt>
      <trkpt lat="42.49542" lon="2.17545">
        <ele>1454.61</ele>
        <time>2016-07-01T07:21:23Z</time>
      </trkpt>
      <trkpt lat="42.49541" lon="2.17529">
        <ele>1452.21</ele>
        <time>2016-07-01T07:21:37Z</time>
      </trkpt>
      <trkpt lat="42.49541" lon="2.17524">
        <ele>1451.73</ele>
        <time>2016-07-01T07:21:50Z</time>
      </trkpt>
      <trkpt lat="42.49541" lon="2.17523">
        <ele>1451.25</ele>
        <time>2016-07-01T07:22:13Z</time>
      </trkpt>
      <trkpt lat="42.49541" lon="2.1752">
        <ele>1450.77</ele>
        <time>2016-07-01T07:22:29Z</time>
      </trkpt>
      <trkpt lat="42.49542" lon="2.17511">
        <ele>1449.81</ele>
        <time>2016-07-01T07:22:36Z</time>
      </trkpt>
      <trkpt lat="42.49542" lon="2.17493">
        <ele>1446.44</ele>
        <time>2016-07-01T07:22:50Z</time>
      </trkpt>
      <trkpt lat="42.49543" lon="2.17486">
        <ele>1443.56</ele>
        <time>2016-07-01T07:22:58Z</time>
      </trkpt>
      <trkpt lat="42.49544" lon="2.17482">
        <ele>1440.19</ele>
        <time>2016-07-01T07:23:02Z</time>
      </trkpt>
      <trkpt lat="42.49547" lon="2.17474">
        <ele>1439.23</ele>
        <time>2016-07-01T07:23:14Z</time>
      </trkpt>
      <trkpt lat="42.49546" lon="2.17468">
        <ele>1439.23</ele>
        <time>2016-07-01T07:23:18Z</time>
      </trkpt>
      <trkpt lat="42.49545" lon="2.17466">
        <ele>1438.75</ele>
        <time>2016-07-01T07:23:20Z</time>
      </trkpt>
      <trkpt lat="42.49541" lon="2.17453">
        <ele>1437.31</ele>
        <time>2016-07-01T07:23:32Z</time>
      </trkpt>
      <trkpt lat="42.4954" lon="2.1744">
        <ele>1433.46</ele>
        <time>2016-07-01T07:23:42Z</time>
      </trkpt>
      <trkpt lat="42.4954" lon="2.17437">
        <ele>1430.58</ele>
        <time>2016-07-01T07:23:46Z</time>
      </trkpt>
      <trkpt lat="42.4954" lon="2.17431">
        <ele>1428.66</ele>
        <time>2016-07-01T07:23:50Z</time>
      </trkpt>
      <trkpt lat="42.49539" lon="2.1743">
        <ele>1428.18</ele>
        <time>2016-07-01T07:23:52Z</time>
      </trkpt>
      <trkpt lat="42.49538" lon="2.17422">
        <ele>1428.66</ele>
        <time>2016-07-01T07:23:58Z</time>
      </trkpt>
      <trkpt lat="42.49535" lon="2.17408">
        <ele>1427.7</ele>
        <time>2016-07-01T07:24:12Z</time>
      </trkpt>
      <trkpt lat="42.49536" lon="2.17405">
        <ele>1427.7</ele>
        <time>2016-07-01T07:24:14Z</time>
      </trkpt>
      <trkpt lat="42.49536" lon="2.17391">
        <ele>1425.29</ele>
        <time>2016-07-01T07:24:27Z</time>
      </trkpt>
      <trkpt lat="42.49533" lon="2.17381">
        <ele>1423.85</ele>
        <time>2016-07-01T07:24:39Z</time>
      </trkpt>
      <trkpt lat="42.49534" lon="2.17365">
        <ele>1420.49</ele>
        <time>2016-07-01T07:24:52Z</time>
      </trkpt>
      <trkpt lat="42.49535" lon="2.17355">
        <ele>1417.12</ele>
        <time>2016-07-01T07:25:00Z</time>
      </trkpt>
      <trkpt lat="42.49535" lon="2.17353">
        <ele>1415.68</ele>
        <time>2016-07-01T07:25:02Z</time>
      </trkpt>
      <trkpt lat="42.49537" lon="2.17338">
        <ele>1413.76</ele>
        <time>2016-07-01T07:25:16Z</time>
      </trkpt>
      <trkpt lat="42.49541" lon="2.17329">
        <ele>1411.35</ele>
        <time>2016-07-01T07:25:27Z</time>
      </trkpt>
      <trkpt lat="42.49545" lon="2.17321">
        <ele>1408.47</ele>
        <time>2016-07-01T07:25:36Z</time>
      </trkpt>
      <trkpt lat="42.49546" lon="2.17317">
        <ele>1405.1</ele>
        <time>2016-07-01T07:25:40Z</time>
      </trkpt>
      <trkpt lat="42.49546" lon="2.17317">
        <ele>1404.62</ele>
        <time>2016-07-01T07:25:41Z</time>
      </trkpt>
      <trkpt lat="42.49547" lon="2.17305">
        <ele>1402.7</ele>
        <time>2016-07-01T07:25:54Z</time>
      </trkpt>
      <trkpt lat="42.49552" lon="2.17297">
        <ele>1400.3</ele>
        <time>2016-07-01T07:26:07Z</time>
      </trkpt>
      <trkpt lat="42.49562" lon="2.17292">
        <ele>1397.89</ele>
        <time>2016-07-01T07:26:20Z</time>
      </trkpt>
      <trkpt lat="42.49564" lon="2.17293">
        <ele>1397.41</ele>
        <time>2016-07-01T07:26:22Z</time>
      </trkpt>
      <trkpt lat="42.49569" lon="2.17293">
        <ele>1396.93</ele>
        <time>2016-07-01T07:26:26Z</time>
      </trkpt>
      <trkpt lat="42.49572" lon="2.17292">
        <ele>1396.45</ele>
        <time>2016-07-01T07:26:29Z</time>
      </trkpt>
      <trkpt lat="42.49583" lon="2.17291">
        <ele>1392.61</ele>
        <time>2016-07-01T07:26:43Z</time>
      </trkpt>
      <trkpt lat="42.49586" lon="2.17289">
        <ele>1389.24</ele>
        <time>2016-07-01T07:26:47Z</time>
      </trkpt>
      <trkpt lat="42.49588" lon="2.17283">
        <ele>1386.84</ele>
        <time>2016-07-01T07:26:54Z</time>
      </trkpt>
      <trkpt lat="42.4959" lon="2.17279">
        <ele>1386.84</ele>
        <time>2016-07-01T07:26:59Z</time>
      </trkpt>
      <trkpt lat="42.49599" lon="2.17283">
        <ele>1386.84</ele>
        <time>2016-07-01T07:27:11Z</time>
      </trkpt>
      <trkpt lat="42.49607" lon="2.17292">
        <ele>1386.36</ele>
        <time>2016-07-01T07:27:20Z</time>
      </trkpt>
      <trkpt lat="42.49614" lon="2.17301">
        <ele>1385.4</ele>
        <time>2016-07-01T07:27:29Z</time>
      </trkpt>
      <trkpt lat="42.49623" lon="2.17314">
        <ele>1384.44</ele>
        <time>2016-07-01T07:27:44Z</time>
      </trkpt>
      <trkpt lat="42.49624" lon="2.17316">
        <ele>1383.96</ele>
        <time>2016-07-01T07:28:03Z</time>
      </trkpt>
      <trkpt lat="42.49627" lon="2.17321">
        <ele>1382.99</ele>
        <time>2016-07-01T07:28:17Z</time>
      </trkpt>
      <trkpt lat="42.49628" lon="2.17321">
        <ele>1382.99</ele>
        <time>2016-07-01T07:28:21Z</time>
      </trkpt>
      <trkpt lat="42.4963" lon="2.17326">
        <ele>1382.51</ele>
        <time>2016-07-01T07:28:36Z</time>
      </trkpt>
      <trkpt lat="42.49636" lon="2.17333">
        <ele>1382.03</ele>
        <time>2016-07-01T07:28:51Z</time>
      </trkpt>
      <trkpt lat="42.49638" lon="2.17338">
        <ele>1382.03</ele>
        <time>2016-07-01T07:28:55Z</time>
      </trkpt>
      <trkpt lat="42.4964" lon="2.17341">
        <ele>1382.03</ele>
        <time>2016-07-01T07:28:58Z</time>
      </trkpt>
      <trkpt lat="42.49649" lon="2.1735">
        <ele>1380.59</ele>
        <time>2016-07-01T07:29:07Z</time>
      </trkpt>
      <trkpt lat="42.49657" lon="2.17358">
        <ele>1380.11</ele>
        <time>2016-07-01T07:29:15Z</time>
      </trkpt>
      <trkpt lat="42.49663" lon="2.17369">
        <ele>1378.67</ele>
        <time>2016-07-01T07:29:23Z</time>
      </trkpt>
      <trkpt lat="42.49667" lon="2.1738">
        <ele>1378.67</ele>
        <time>2016-07-01T07:29:30Z</time>
      </trkpt>
      <trkpt lat="42.4967" lon="2.17389">
        <ele>1377.71</ele>
        <time>2016-07-01T07:29:36Z</time>
      </trkpt>
      <trkpt lat="42.49674" lon="2.17412">
        <ele>1376.26</ele>
        <time>2016-07-01T07:29:51Z</time>
      </trkpt>
      <trkpt lat="42.49678" lon="2.17422">
        <ele>1375.3</ele>
        <time>2016-07-01T07:29:59Z</time>
      </trkpt>
      <trkpt lat="42.49682" lon="2.17428">
        <ele>1374.34</ele>
        <time>2016-07-01T07:30:03Z</time>
      </trkpt>
      <trkpt lat="42.49696" lon="2.17449">
        <ele>1372.9</ele>
        <time>2016-07-01T07:30:20Z</time>
      </trkpt>
      <trkpt lat="42.49708" lon="2.17466">
        <ele>1371.46</ele>
        <time>2016-07-01T07:30:33Z</time>
      </trkpt>
      <trkpt lat="42.49723" lon="2.17483">
        <ele>1369.54</ele>
        <time>2016-07-01T07:30:48Z</time>
      </trkpt>
      <trkpt lat="42.49728" lon="2.17487">
        <ele>1369.05</ele>
        <time>2016-07-01T07:30:52Z</time>
      </trkpt>
      <trkpt lat="42.49741" lon="2.17503">
        <ele>1367.61</ele>
        <time>2016-07-01T07:31:07Z</time>
      </trkpt>
      <trkpt lat="42.49739" lon="2.17502">
        <ele>1367.13</ele>
        <time>2016-07-01T07:31:16Z</time>
      </trkpt>
      <trkpt lat="42.49739" lon="2.17499">
        <ele>1366.65</ele>
        <time>2016-07-01T07:31:30Z</time>
      </trkpt>
      <trkpt lat="42.4974" lon="2.17498">
        <ele>1365.21</ele>
        <time>2016-07-01T07:31:52Z</time>
      </trkpt>
      <trkpt lat="42.4974" lon="2.17498">
        <ele>1365.21</ele>
        <time>2016-07-01T07:32:20Z</time>
      </trkpt>
      <trkpt lat="42.4974" lon="2.17498">
        <ele>1365.21</ele>
        <time>2016-07-01T07:32:47Z</time>
      </trkpt>
      <trkpt lat="42.4974" lon="2.17499">
        <ele>1364.73</ele>
        <time>2016-07-01T07:33:11Z</time>
      </trkpt>
      <trkpt lat="42.4974" lon="2.175">
        <ele>1364.73</ele>
        <time>2016-07-01T07:33:25Z</time>
      </trkpt>
      <trkpt lat="42.4974" lon="2.175">
        <ele>1364.73</ele>
        <time>2016-07-01T07:33:34Z</time>
      </trkpt>
      <trkpt lat="42.49743" lon="2.17504">
        <ele>1364.73</ele>
        <time>2016-07-01T07:33:40Z</time>
      </trkpt>
      <trkpt lat="42.49747" lon="2.17509">
        <ele>1364.73</ele>
        <time>2016-07-01T07:33:46Z</time>
      </trkpt>
      <trkpt lat="42.49759" lon="2.17521">
        <ele>1364.73</ele>
        <time>2016-07-01T07:33:59Z</time>
      </trkpt>
      <trkpt lat="42.4976" lon="2.17521">
        <ele>1364.73</ele>
        <time>2016-07-01T07:34:00Z</time>
      </trkpt>
      <trkpt lat="42.49767" lon="2.17527">
        <ele>1364.25</ele>
        <time>2016-07-01T07:34:07Z</time>
      </trkpt>
      <trkpt lat="42.49771" lon="2.17531">
        <ele>1364.25</ele>
        <time>2016-07-01T07:34:11Z</time>
      </trkpt>
      <trkpt lat="42.49785" lon="2.17546">
        <ele>1363.29</ele>
        <time>2016-07-01T07:34:26Z</time>
      </trkpt>
      <trkpt lat="42.4979" lon="2.17551">
        <ele>1363.29</ele>
        <time>2016-07-01T07:34:31Z</time>
      </trkpt>
      <trkpt lat="42.49794" lon="2.17554">
        <ele>1362.81</ele>
        <time>2016-07-01T07:34:35Z</time>
      </trkpt>
      <trkpt lat="42.49809" lon="2.1757">
        <ele>1361.36</ele>
        <time>2016-07-01T07:34:51Z</time>
      </trkpt>
      <trkpt lat="42.49812" lon="2.17574">
        <ele>1360.88</ele>
        <time>2016-07-01T07:34:54Z</time>
      </trkpt>
      <trkpt lat="42.49826" lon="2.17583">
        <ele>1359.92</ele>
        <time>2016-07-01T07:35:08Z</time>
      </trkpt>
      <trkpt lat="42.49833" lon="2.17585">
        <ele>1359.44</ele>
        <time>2016-07-01T07:35:14Z</time>
      </trkpt>
      <trkpt lat="42.49836" lon="2.17585">
        <ele>1359.44</ele>
        <time>2016-07-01T07:35:17Z</time>
      </trkpt>
      <trkpt lat="42.49857" lon="2.17588">
        <ele>1357.52</ele>
        <time>2016-07-01T07:35:34Z</time>
      </trkpt>
      <trkpt lat="42.4986" lon="2.17588">
        <ele>1357.04</ele>
        <time>2016-07-01T07:35:37Z</time>
      </trkpt>
      <trkpt lat="42.49863" lon="2.17588">
        <ele>1357.04</ele>
        <time>2016-07-01T07:35:39Z</time>
      </trkpt>
      <trkpt lat="42.49866" lon="2.17589">
        <ele>1357.04</ele>
        <time>2016-07-01T07:35:42Z</time>
      </trkpt>
      <trkpt lat="42.49881" lon="2.1759">
        <ele>1355.6</ele>
        <time>2016-07-01T07:35:55Z</time>
      </trkpt>
      <trkpt lat="42.49896" lon="2.17595">
        <ele>1354.63</ele>
        <time>2016-07-01T07:36:08Z</time>
      </trkpt>
      <trkpt lat="42.49903" lon="2.17598">
        <ele>1354.15</ele>
        <time>2016-07-01T07:36:14Z</time>
      </trkpt>
      <trkpt lat="42.49906" lon="2.17599">
        <ele>1353.67</ele>
        <time>2016-07-01T07:36:17Z</time>
      </trkpt>
      <trkpt lat="42.49912" lon="2.17588">
        <ele>1352.23</ele>
        <time>2016-07-01T07:36:28Z</time>
      </trkpt>
      <trkpt lat="42.49896" lon="2.17585">
        <ele>1351.27</ele>
        <time>2016-07-01T07:36:42Z</time>
      </trkpt>
      <trkpt lat="42.49895" lon="2.17585">
        <ele>1351.27</ele>
        <time>2016-07-01T07:36:43Z</time>
      </trkpt>
      <trkpt lat="42.49882" lon="2.1758">
        <ele>1350.31</ele>
        <time>2016-07-01T07:36:54Z</time>
      </trkpt>
      <trkpt lat="42.4988" lon="2.17577">
        <ele>1349.35</ele>
        <time>2016-07-01T07:36:57Z</time>
      </trkpt>
      <trkpt lat="42.49874" lon="2.17571">
        <ele>1348.87</ele>
        <time>2016-07-01T07:37:03Z</time>
      </trkpt>
      <trkpt lat="42.4987" lon="2.17564">
        <ele>1348.39</ele>
        <time>2016-07-01T07:37:09Z</time>
      </trkpt>
      <trkpt lat="42.49867" lon="2.17559">
        <ele>1348.39</ele>
        <time>2016-07-01T07:37:12Z</time>
      </trkpt>
      <trkpt lat="42.49862" lon="2.17535">
        <ele>1346.94</ele>
        <time>2016-07-01T07:37:27Z</time>
      </trkpt>
      <trkpt lat="42.4986" lon="2.17526">
        <ele>1346.46</ele>
        <time>2016-07-01T07:37:32Z</time>
      </trkpt>
      <trkpt lat="42.49858" lon="2.17507">
        <ele>1345.5</ele>
        <time>2016-07-01T07:37:43Z</time>
      </trkpt>
      <trkpt lat="42.49857" lon="2.17501">
        <ele>1345.02</ele>
        <time>2016-07-01T07:37:47Z</time>
      </trkpt>
      <trkpt lat="42.49856" lon="2.17484">
        <ele>1344.06</ele>
        <time>2016-07-01T07:37:57Z</time>
      </trkpt>
      <trkpt lat="42.49856" lon="2.1746">
        <ele>1343.58</ele>
        <time>2016-07-01T07:38:11Z</time>
      </trkpt>
      <trkpt lat="42.49857" lon="2.1744">
        <ele>1342.14</ele>
        <time>2016-07-01T07:38:23Z</time>
      </trkpt>
      <trkpt lat="42.49862" lon="2.17417">
        <ele>1341.18</ele>
        <time>2016-07-01T07:38:37Z</time>
      </trkpt>
      <trkpt lat="42.49868" lon="2.17399">
        <ele>1339.73</ele>
        <time>2016-07-01T07:38:49Z</time>
      </trkpt>
      <trkpt lat="42.49878" lon="2.17384">
        <ele>1338.77</ele>
        <time>2016-07-01T07:39:02Z</time>
      </trkpt>
      <trkpt lat="42.49885" lon="2.17376">
        <ele>1338.29</ele>
        <time>2016-07-01T07:39:10Z</time>
      </trkpt>
      <trkpt lat="42.49896" lon="2.17362">
        <ele>1336.37</ele>
        <time>2016-07-01T07:39:23Z</time>
      </trkpt>
      <trkpt lat="42.49902" lon="2.17351">
        <ele>1335.41</ele>
        <time>2016-07-01T07:39:34Z</time>
      </trkpt>
      <trkpt lat="42.49902" lon="2.17351">
        <ele>1335.41</ele>
        <time>2016-07-01T07:39:39Z</time>
      </trkpt>
      <trkpt lat="42.49902" lon="2.17347">
        <ele>1334.93</ele>
        <time>2016-07-01T07:39:41Z</time>
      </trkpt>
      <trkpt lat="42.49902" lon="2.17339">
        <ele>1333.97</ele>
        <time>2016-07-01T07:39:49Z</time>
      </trkpt>
      <trkpt lat="42.49903" lon="2.17336">
        <ele>1333.49</ele>
        <time>2016-07-01T07:40:05Z</time>
      </trkpt>
      <trkpt lat="42.49902" lon="2.17332">
        <ele>1333.49</ele>
        <time>2016-07-01T07:40:18Z</time>
      </trkpt>
      <trkpt lat="42.49902" lon="2.17331">
        <ele>1333.01</ele>
        <time>2016-07-01T07:40:34Z</time>
      </trkpt>
      <trkpt lat="42.49901" lon="2.17325">
        <ele>1332.52</ele>
        <time>2016-07-01T07:40:49Z</time>
      </trkpt>
      <trkpt lat="42.49902" lon="2.17319">
        <ele>1332.04</ele>
        <time>2016-07-01T07:41:03Z</time>
      </trkpt>
      <trkpt lat="42.49902" lon="2.17317">
        <ele>1332.04</ele>
        <time>2016-07-01T07:41:04Z</time>
      </trkpt>
      <trkpt lat="42.49902" lon="2.17311">
        <ele>1332.04</ele>
        <time>2016-07-01T07:41:09Z</time>
      </trkpt>
      <trkpt lat="42.499" lon="2.17302">
        <ele>1331.56</ele>
        <time>2016-07-01T07:41:16Z</time>
      </trkpt>
      <trkpt lat="42.499" lon="2.173">
        <ele>1331.56</ele>
        <time>2016-07-01T07:41:17Z</time>
      </trkpt>
      <trkpt lat="42.49899" lon="2.17299">
        <ele>1331.56</ele>
        <time>2016-07-01T07:41:18Z</time>
      </trkpt>
      <trkpt lat="42.49898" lon="2.17293">
        <ele>1331.56</ele>
        <time>2016-07-01T07:41:22Z</time>
      </trkpt>
      <trkpt lat="42.49895" lon="2.17289">
        <ele>1331.08</ele>
        <time>2016-07-01T07:41:26Z</time>
      </trkpt>
      <trkpt lat="42.49894" lon="2.17286">
        <ele>1331.08</ele>
        <time>2016-07-01T07:41:28Z</time>
      </trkpt>
      <trkpt lat="42.49893" lon="2.17285">
        <ele>1330.6</ele>
        <time>2016-07-01T07:41:29Z</time>
      </trkpt>
      <trkpt lat="42.49893" lon="2.17284">
        <ele>1330.6</ele>
        <time>2016-07-01T07:41:30Z</time>
      </trkpt>
      <trkpt lat="42.49892" lon="2.17283">
        <ele>1330.6</ele>
        <time>2016-07-01T07:41:31Z</time>
      </trkpt>
      <trkpt lat="42.49892" lon="2.17281">
        <ele>1330.6</ele>
        <time>2016-07-01T07:41:32Z</time>
      </trkpt>
      <trkpt lat="42.49891" lon="2.1728">
        <ele>1330.6</ele>
        <time>2016-07-01T07:41:33Z</time>
      </trkpt>
      <trkpt lat="42.4989" lon="2.17279">
        <ele>1330.6</ele>
        <time>2016-07-01T07:41:34Z</time>
      </trkpt>
      <trkpt lat="42.4989" lon="2.17277">
        <ele>1330.12</ele>
        <time>2016-07-01T07:41:35Z</time>
      </trkpt>
      <trkpt lat="42.49889" lon="2.17275">
        <ele>1330.12</ele>
        <time>2016-07-01T07:41:36Z</time>
      </trkpt>
      <trkpt lat="42.49889" lon="2.17274">
        <ele>1330.12</ele>
        <time>2016-07-01T07:41:37Z</time>
      </trkpt>
      <trkpt lat="42.49888" lon="2.17273">
        <ele>1329.64</ele>
        <time>2016-07-01T07:41:38Z</time>
      </trkpt>
      <trkpt lat="42.49888" lon="2.17271">
        <ele>1329.64</ele>
        <time>2016-07-01T07:41:39Z</time>
      </trkpt>
      <trkpt lat="42.49887" lon="2.17269">
        <ele>1329.64</ele>
        <time>2016-07-01T07:41:40Z</time>
      </trkpt>
      <trkpt lat="42.49886" lon="2.17268">
        <ele>1329.16</ele>
        <time>2016-07-01T07:41:41Z</time>
      </trkpt>
      <trkpt lat="42.49886" lon="2.17267">
        <ele>1329.16</ele>
        <time>2016-07-01T07:41:42Z</time>
      </trkpt>
      <trkpt lat="42.49883" lon="2.17258">
        <ele>1329.16</ele>
        <time>2016-07-01T07:41:48Z</time>
      </trkpt>
      <trkpt lat="42.49883" lon="2.17256">
        <ele>1329.16</ele>
        <time>2016-07-01T07:41:49Z</time>
      </trkpt>
      <trkpt lat="42.49882" lon="2.17254">
        <ele>1328.68</ele>
        <time>2016-07-01T07:41:50Z</time>
      </trkpt>
      <trkpt lat="42.49881" lon="2.17249">
        <ele>1328.68</ele>
        <time>2016-07-01T07:41:53Z</time>
      </trkpt>
      <trkpt lat="42.4988" lon="2.17248">
        <ele>1328.68</ele>
        <time>2016-07-01T07:41:54Z</time>
      </trkpt>
      <trkpt lat="42.49879" lon="2.17247">
        <ele>1328.68</ele>
        <time>2016-07-01T07:41:55Z</time>
      </trkpt>
      <trkpt lat="42.49879" lon="2.17245">
        <ele>1328.68</ele>
        <time>2016-07-01T07:41:56Z</time>
      </trkpt>
      <trkpt lat="42.49878" lon="2.17243">
        <ele>1328.68</ele>
        <time>2016-07-01T07:41:57Z</time>
      </trkpt>
      <trkpt lat="42.49878" lon="2.17242">
        <ele>1328.68</ele>
        <time>2016-07-01T07:41:58Z</time>
      </trkpt>
      <trkpt lat="42.49878" lon="2.1724">
        <ele>1328.2</ele>
        <time>2016-07-01T07:41:59Z</time>
      </trkpt>
      <trkpt lat="42.49877" lon="2.17239">
        <ele>1328.2</ele>
        <time>2016-07-01T07:42:00Z</time>
      </trkpt>
      <trkpt lat="42.49877" lon="2.17237">
        <ele>1328.2</ele>
        <time>2016-07-01T07:42:01Z</time>
      </trkpt>
      <trkpt lat="42.49876" lon="2.17235">
        <ele>1328.2</ele>
        <time>2016-07-01T07:42:02Z</time>
      </trkpt>
      <trkpt lat="42.49875" lon="2.17234">
        <ele>1328.2</ele>
        <time>2016-07-01T07:42:03Z</time>
      </trkpt>
      <trkpt lat="42.49875" lon="2.17232">
        <ele>1328.2</ele>
        <time>2016-07-01T07:42:04Z</time>
      </trkpt>
      <trkpt lat="42.49874" lon="2.17231">
        <ele>1328.2</ele>
        <time>2016-07-01T07:42:05Z</time>
      </trkpt>
      <trkpt lat="42.49874" lon="2.17229">
        <ele>1328.2</ele>
        <time>2016-07-01T07:42:06Z</time>
      </trkpt>
      <trkpt lat="42.49869" lon="2.17204">
        <ele>1327.24</ele>
        <time>2016-07-01T07:42:21Z</time>
      </trkpt>
      <trkpt lat="42.49867" lon="2.17192">
        <ele>1326.28</ele>
        <time>2016-07-01T07:42:29Z</time>
      </trkpt>
      <trkpt lat="42.49866" lon="2.17188">
        <ele>1326.28</ele>
        <time>2016-07-01T07:42:32Z</time>
      </trkpt>
      <trkpt lat="42.49864" lon="2.17188">
        <ele>1326.28</ele>
        <time>2016-07-01T07:42:41Z</time>
      </trkpt>
      <trkpt lat="42.49865" lon="2.17188">
        <ele>1325.8</ele>
        <time>2016-07-01T07:43:04Z</time>
      </trkpt>
      <trkpt lat="42.49865" lon="2.17188">
        <ele>1325.31</ele>
        <time>2016-07-01T07:43:24Z</time>
      </trkpt>
      <trkpt lat="42.49865" lon="2.17188">
        <ele>1325.31</ele>
        <time>2016-07-01T07:43:33Z</time>
      </trkpt>
      <trkpt lat="42.49866" lon="2.17187">
        <ele>1325.31</ele>
        <time>2016-07-01T07:43:34Z</time>
      </trkpt>
      <trkpt lat="42.49866" lon="2.17185">
        <ele>1325.31</ele>
        <time>2016-07-01T07:43:35Z</time>
      </trkpt>
      <trkpt lat="42.49866" lon="2.17183">
        <ele>1325.31</ele>
        <time>2016-07-01T07:43:36Z</time>
      </trkpt>
      <trkpt lat="42.49866" lon="2.17182">
        <ele>1325.31</ele>
        <time>2016-07-01T07:43:37Z</time>
      </trkpt>
      <trkpt lat="42.49867" lon="2.17179">
        <ele>1325.31</ele>
        <time>2016-07-01T07:43:42Z</time>
      </trkpt>
      <trkpt lat="42.49868" lon="2.17177">
        <ele>1325.31</ele>
        <time>2016-07-01T07:43:43Z</time>
      </trkpt>
      <trkpt lat="42.49868" lon="2.17176">
        <ele>1325.31</ele>
        <time>2016-07-01T07:43:44Z</time>
      </trkpt>
      <trkpt lat="42.49868" lon="2.17174">
        <ele>1325.31</ele>
        <time>2016-07-01T07:43:45Z</time>
      </trkpt>
      <trkpt lat="42.49868" lon="2.17172">
        <ele>1325.31</ele>
        <time>2016-07-01T07:43:46Z</time>
      </trkpt>
      <trkpt lat="42.49868" lon="2.1717">
        <ele>1325.31</ele>
        <time>2016-07-01T07:43:47Z</time>
      </trkpt>
      <trkpt lat="42.49868" lon="2.17169">
        <ele>1325.31</ele>
        <time>2016-07-01T07:43:48Z</time>
      </trkpt>
      <trkpt lat="42.49868" lon="2.17167">
        <ele>1325.31</ele>
        <time>2016-07-01T07:43:49Z</time>
      </trkpt>
      <trkpt lat="42.49873" lon="2.17155">
        <ele>1324.35</ele>
        <time>2016-07-01T07:43:57Z</time>
      </trkpt>
      <trkpt lat="42.49873" lon="2.17153">
        <ele>1324.35</ele>
        <time>2016-07-01T07:43:58Z</time>
      </trkpt>
      <trkpt lat="42.49874" lon="2.17151">
        <ele>1324.35</ele>
        <time>2016-07-01T07:43:59Z</time>
      </trkpt>
      <trkpt lat="42.49875" lon="2.1715">
        <ele>1324.35</ele>
        <time>2016-07-01T07:44:00Z</time>
      </trkpt>
      <trkpt lat="42.49876" lon="2.17149">
        <ele>1324.35</ele>
        <time>2016-07-01T07:44:01Z</time>
      </trkpt>
      <trkpt lat="42.49888" lon="2.17142">
        <ele>1322.91</ele>
        <time>2016-07-01T07:44:11Z</time>
      </trkpt>
      <trkpt lat="42.49903" lon="2.1714">
        <ele>1321.95</ele>
        <time>2016-07-01T07:44:22Z</time>
      </trkpt>
      <trkpt lat="42.49921" lon="2.17143">
        <ele>1320.03</ele>
        <time>2016-07-01T07:44:36Z</time>
      </trkpt>
      <trkpt lat="42.49937" lon="2.17151">
        <ele>1319.07</ele>
        <time>2016-07-01T07:44:49Z</time>
      </trkpt>
      <trkpt lat="42.49951" lon="2.17157">
        <ele>1317.62</ele>
        <time>2016-07-01T07:45:00Z</time>
      </trkpt>
      <trkpt lat="42.49965" lon="2.17165">
        <ele>1317.14</ele>
        <time>2016-07-01T07:45:11Z</time>
      </trkpt>
      <trkpt lat="42.4998" lon="2.17174">
        <ele>1315.7</ele>
        <time>2016-07-01T07:45:23Z</time>
      </trkpt>
      <trkpt lat="42.49981" lon="2.17175">
        <ele>1315.7</ele>
        <time>2016-07-01T07:45:24Z</time>
      </trkpt>
      <trkpt lat="42.49982" lon="2.17176">
        <ele>1315.7</ele>
        <time>2016-07-01T07:45:25Z</time>
      </trkpt>
      <trkpt lat="42.49984" lon="2.17178">
        <ele>1315.7</ele>
        <time>2016-07-01T07:45:27Z</time>
      </trkpt>
      <trkpt lat="42.49985" lon="2.1718">
        <ele>1315.7</ele>
        <time>2016-07-01T07:45:28Z</time>
      </trkpt>
      <trkpt lat="42.49986" lon="2.1718">
        <ele>1315.22</ele>
        <time>2016-07-01T07:45:29Z</time>
      </trkpt>
      <trkpt lat="42.50001" lon="2.17197">
        <ele>1313.78</ele>
        <time>2016-07-01T07:45:43Z</time>
      </trkpt>
      <trkpt lat="42.50012" lon="2.17217">
        <ele>1312.82</ele>
        <time>2016-07-01T07:45:57Z</time>
      </trkpt>
      <trkpt lat="42.50021" lon="2.17241">
        <ele>1311.38</ele>
        <time>2016-07-01T07:46:12Z</time>
      </trkpt>
      <trkpt lat="42.50026" lon="2.17255">
        <ele>1310.41</ele>
        <time>2016-07-01T07:46:20Z</time>
      </trkpt>
      <trkpt lat="42.50026" lon="2.17257">
        <ele>1310.41</ele>
        <time>2016-07-01T07:46:21Z</time>
      </trkpt>
      <trkpt lat="42.50034" lon="2.17271">
        <ele>1309.45</ele>
        <time>2016-07-01T07:46:31Z</time>
      </trkpt>
      <trkpt lat="42.50035" lon="2.17273">
        <ele>1309.45</ele>
        <time>2016-07-01T07:46:32Z</time>
      </trkpt>
      <trkpt lat="42.50035" lon="2.17274">
        <ele>1309.45</ele>
        <time>2016-07-01T07:46:33Z</time>
      </trkpt>
      <trkpt lat="42.50035" lon="2.17276">
        <ele>1309.45</ele>
        <time>2016-07-01T07:46:34Z</time>
      </trkpt>
      <trkpt lat="42.50036" lon="2.17278">
        <ele>1308.49</ele>
        <time>2016-07-01T07:46:35Z</time>
      </trkpt>
      <trkpt lat="42.50036" lon="2.1728">
        <ele>1308.49</ele>
        <time>2016-07-01T07:46:36Z</time>
      </trkpt>
      <trkpt lat="42.50036" lon="2.17282">
        <ele>1308.49</ele>
        <time>2016-07-01T07:46:37Z</time>
      </trkpt>
      <trkpt lat="42.50036" lon="2.17284">
        <ele>1308.49</ele>
        <time>2016-07-01T07:46:38Z</time>
      </trkpt>
      <trkpt lat="42.50036" lon="2.17286">
        <ele>1308.49</ele>
        <time>2016-07-01T07:46:39Z</time>
      </trkpt>
      <trkpt lat="42.50036" lon="2.17288">
        <ele>1308.49</ele>
        <time>2016-07-01T07:46:40Z</time>
      </trkpt>
      <trkpt lat="42.50036" lon="2.1729">
        <ele>1308.49</ele>
        <time>2016-07-01T07:46:41Z</time>
      </trkpt>
      <trkpt lat="42.50036" lon="2.17291">
        <ele>1308.49</ele>
        <time>2016-07-01T07:46:42Z</time>
      </trkpt>
      <trkpt lat="42.50036" lon="2.17294">
        <ele>1308.49</ele>
        <time>2016-07-01T07:46:43Z</time>
      </trkpt>
      <trkpt lat="42.50036" lon="2.17296">
        <ele>1308.01</ele>
        <time>2016-07-01T07:46:44Z</time>
      </trkpt>
      <trkpt lat="42.50036" lon="2.17298">
        <ele>1308.01</ele>
        <time>2016-07-01T07:46:45Z</time>
      </trkpt>
      <trkpt lat="42.50035" lon="2.17299">
        <ele>1308.01</ele>
        <time>2016-07-01T07:46:46Z</time>
      </trkpt>
      <trkpt lat="42.50035" lon="2.17301">
        <ele>1308.01</ele>
        <time>2016-07-01T07:46:47Z</time>
      </trkpt>
      <trkpt lat="42.50035" lon="2.17303">
        <ele>1308.01</ele>
        <time>2016-07-01T07:46:48Z</time>
      </trkpt>
      <trkpt lat="42.50035" lon="2.17305">
        <ele>1308.01</ele>
        <time>2016-07-01T07:46:49Z</time>
      </trkpt>
      <trkpt lat="42.50035" lon="2.17307">
        <ele>1308.01</ele>
        <time>2016-07-01T07:46:50Z</time>
      </trkpt>
      <trkpt lat="42.50035" lon="2.17308">
        <ele>1307.53</ele>
        <time>2016-07-01T07:46:51Z</time>
      </trkpt>
      <trkpt lat="42.50034" lon="2.17309">
        <ele>1307.53</ele>
        <time>2016-07-01T07:46:52Z</time>
      </trkpt>
      <trkpt lat="42.50034" lon="2.17311">
        <ele>1307.53</ele>
        <time>2016-07-01T07:46:53Z</time>
      </trkpt>
      <trkpt lat="42.50033" lon="2.17313">
        <ele>1307.53</ele>
        <time>2016-07-01T07:46:54Z</time>
      </trkpt>
      <trkpt lat="42.50033" lon="2.17315">
        <ele>1307.53</ele>
        <time>2016-07-01T07:46:55Z</time>
      </trkpt>
      <trkpt lat="42.50032" lon="2.17317">
        <ele>1307.53</ele>
        <time>2016-07-01T07:46:56Z</time>
      </trkpt>
      <trkpt lat="42.50032" lon="2.17319">
        <ele>1307.05</ele>
        <time>2016-07-01T07:46:57Z</time>
      </trkpt>
      <trkpt lat="42.50032" lon="2.1732">
        <ele>1307.05</ele>
        <time>2016-07-01T07:46:58Z</time>
      </trkpt>
      <trkpt lat="42.50031" lon="2.17322">
        <ele>1307.05</ele>
        <time>2016-07-01T07:46:59Z</time>
      </trkpt>
      <trkpt lat="42.50027" lon="2.17338">
        <ele>1306.09</ele>
        <time>2016-07-01T07:47:09Z</time>
      </trkpt>
      <trkpt lat="42.50026" lon="2.1734">
        <ele>1305.61</ele>
        <time>2016-07-01T07:47:10Z</time>
      </trkpt>
      <trkpt lat="42.50025" lon="2.17342">
        <ele>1305.61</ele>
        <time>2016-07-01T07:47:11Z</time>
      </trkpt>
      <trkpt lat="42.50025" lon="2.17344">
        <ele>1305.61</ele>
        <time>2016-07-01T07:47:12Z</time>
      </trkpt>
      <trkpt lat="42.50017" lon="2.17363">
        <ele>1304.65</ele>
        <time>2016-07-01T07:47:25Z</time>
      </trkpt>
      <trkpt lat="42.50015" lon="2.17371">
        <ele>1304.65</ele>
        <time>2016-07-01T07:47:29Z</time>
      </trkpt>
      <trkpt lat="42.50015" lon="2.17372">
        <ele>1304.65</ele>
        <time>2016-07-01T07:47:30Z</time>
      </trkpt>
      <trkpt lat="42.50014" lon="2.17374">
        <ele>1304.65</ele>
        <time>2016-07-01T07:47:31Z</time>
      </trkpt>
      <trkpt lat="42.50013" lon="2.17376">
        <ele>1304.17</ele>
        <time>2016-07-01T07:47:32Z</time>
      </trkpt>
      <trkpt lat="42.50013" lon="2.17378">
        <ele>1304.17</ele>
        <time>2016-07-01T07:47:33Z</time>
      </trkpt>
      <trkpt lat="42.50013" lon="2.1738">
        <ele>1304.17</ele>
        <time>2016-07-01T07:47:34Z</time>
      </trkpt>
      <trkpt lat="42.50012" lon="2.17382">
        <ele>1304.17</ele>
        <time>2016-07-01T07:47:35Z</time>
      </trkpt>
      <trkpt lat="42.50011" lon="2.17383">
        <ele>1304.17</ele>
        <time>2016-07-01T07:47:36Z</time>
      </trkpt>
      <trkpt lat="42.5001" lon="2.17385">
        <ele>1303.2</ele>
        <time>2016-07-01T07:47:37Z</time>
      </trkpt>
      <trkpt lat="42.5001" lon="2.17386">
        <ele>1303.69</ele>
        <time>2016-07-01T07:47:38Z</time>
      </trkpt>
      <trkpt lat="42.50009" lon="2.17388">
        <ele>1303.69</ele>
        <time>2016-07-01T07:47:39Z</time>
      </trkpt>
      <trkpt lat="42.50008" lon="2.17389">
        <ele>1303.69</ele>
        <time>2016-07-01T07:47:40Z</time>
      </trkpt>
      <trkpt lat="42.50008" lon="2.17391">
        <ele>1303.69</ele>
        <time>2016-07-01T07:47:41Z</time>
      </trkpt>
      <trkpt lat="42.50007" lon="2.17394">
        <ele>1302.72</ele>
        <time>2016-07-01T07:47:43Z</time>
      </trkpt>
      <trkpt lat="42.50007" lon="2.17396">
        <ele>1302.72</ele>
        <time>2016-07-01T07:47:44Z</time>
      </trkpt>
      <trkpt lat="42.50006" lon="2.17398">
        <ele>1302.72</ele>
        <time>2016-07-01T07:47:45Z</time>
      </trkpt>
      <trkpt lat="42.50006" lon="2.17399">
        <ele>1302.72</ele>
        <time>2016-07-01T07:47:46Z</time>
      </trkpt>
      <trkpt lat="42.50005" lon="2.17401">
        <ele>1302.72</ele>
        <time>2016-07-01T07:47:47Z</time>
      </trkpt>
      <trkpt lat="42.50005" lon="2.17402">
        <ele>1302.72</ele>
        <time>2016-07-01T07:47:48Z</time>
      </trkpt>
      <trkpt lat="42.50004" lon="2.17404">
        <ele>1302.72</ele>
        <time>2016-07-01T07:47:49Z</time>
      </trkpt>
      <trkpt lat="42.50004" lon="2.17406">
        <ele>1302.72</ele>
        <time>2016-07-01T07:47:50Z</time>
      </trkpt>
      <trkpt lat="42.50003" lon="2.17408">
        <ele>1302.72</ele>
        <time>2016-07-01T07:47:51Z</time>
      </trkpt>
      <trkpt lat="42.50003" lon="2.17409">
        <ele>1302.24</ele>
        <time>2016-07-01T07:47:52Z</time>
      </trkpt>
      <trkpt lat="42.49999" lon="2.17425">
        <ele>1301.76</ele>
        <time>2016-07-01T07:48:02Z</time>
      </trkpt>
      <trkpt lat="42.5" lon="2.17431">
        <ele>1301.76</ele>
        <time>2016-07-01T07:48:05Z</time>
      </trkpt>
      <trkpt lat="42.50003" lon="2.1744">
        <ele>1300.32</ele>
        <time>2016-07-01T07:48:11Z</time>
      </trkpt>
      <trkpt lat="42.50003" lon="2.17442">
        <ele>1300.8</ele>
        <time>2016-07-01T07:48:12Z</time>
      </trkpt>
      <trkpt lat="42.50004" lon="2.17443">
        <ele>1300.8</ele>
        <time>2016-07-01T07:48:13Z</time>
      </trkpt>
      <trkpt lat="42.50009" lon="2.17447">
        <ele>1299.84</ele>
        <time>2016-07-01T07:48:17Z</time>
      </trkpt>
      <trkpt lat="42.5001" lon="2.17448">
        <ele>1299.84</ele>
        <time>2016-07-01T07:48:18Z</time>
      </trkpt>
      <trkpt lat="42.50011" lon="2.17449">
        <ele>1299.84</ele>
        <time>2016-07-01T07:48:19Z</time>
      </trkpt>
      <trkpt lat="42.50012" lon="2.1745">
        <ele>1299.84</ele>
        <time>2016-07-01T07:48:20Z</time>
      </trkpt>
      <trkpt lat="42.50013" lon="2.17451">
        <ele>1299.84</ele>
        <time>2016-07-01T07:48:21Z</time>
      </trkpt>
      <trkpt lat="42.50014" lon="2.17452">
        <ele>1299.84</ele>
        <time>2016-07-01T07:48:22Z</time>
      </trkpt>
      <trkpt lat="42.50028" lon="2.17462">
        <ele>1298.88</ele>
        <time>2016-07-01T07:48:34Z</time>
      </trkpt>
      <trkpt lat="42.50041" lon="2.17473">
        <ele>1297.92</ele>
        <time>2016-07-01T07:48:45Z</time>
      </trkpt>
      <trkpt lat="42.50048" lon="2.17476">
        <ele>1297.44</ele>
        <time>2016-07-01T07:48:50Z</time>
      </trkpt>
      <trkpt lat="42.5005" lon="2.17476">
        <ele>1297.44</ele>
        <time>2016-07-01T07:48:51Z</time>
      </trkpt>
      <trkpt lat="42.5006" lon="2.17483">
        <ele>1296.48</ele>
        <time>2016-07-01T07:49:00Z</time>
      </trkpt>
      <trkpt lat="42.50061" lon="2.17484">
        <ele>1295.99</ele>
        <time>2016-07-01T07:49:01Z</time>
      </trkpt>
      <trkpt lat="42.50063" lon="2.17484">
        <ele>1295.99</ele>
        <time>2016-07-01T07:49:02Z</time>
      </trkpt>
      <trkpt lat="42.5007" lon="2.17489">
        <ele>1295.51</ele>
        <time>2016-07-01T07:49:08Z</time>
      </trkpt>
      <trkpt lat="42.50071" lon="2.1749">
        <ele>1295.51</ele>
        <time>2016-07-01T07:49:09Z</time>
      </trkpt>
      <trkpt lat="42.50072" lon="2.1749">
        <ele>1295.51</ele>
        <time>2016-07-01T07:49:10Z</time>
      </trkpt>
      <trkpt lat="42.50073" lon="2.17491">
        <ele>1295.51</ele>
        <time>2016-07-01T07:49:11Z</time>
      </trkpt>
      <trkpt lat="42.50075" lon="2.17492">
        <ele>1295.03</ele>
        <time>2016-07-01T07:49:12Z</time>
      </trkpt>
      <trkpt lat="42.50076" lon="2.17494">
        <ele>1295.03</ele>
        <time>2016-07-01T07:49:13Z</time>
      </trkpt>
      <trkpt lat="42.50077" lon="2.17495">
        <ele>1295.03</ele>
        <time>2016-07-01T07:49:14Z</time>
      </trkpt>
      <trkpt lat="42.50078" lon="2.17496">
        <ele>1295.03</ele>
        <time>2016-07-01T07:49:15Z</time>
      </trkpt>
      <trkpt lat="42.5008" lon="2.17497">
        <ele>1295.03</ele>
        <time>2016-07-01T07:49:16Z</time>
      </trkpt>
      <trkpt lat="42.50081" lon="2.17497">
        <ele>1294.55</ele>
        <time>2016-07-01T07:49:17Z</time>
      </trkpt>
      <trkpt lat="42.50082" lon="2.17498">
        <ele>1294.55</ele>
        <time>2016-07-01T07:49:18Z</time>
      </trkpt>
      <trkpt lat="42.50083" lon="2.17499">
        <ele>1294.55</ele>
        <time>2016-07-01T07:49:19Z</time>
      </trkpt>
      <trkpt lat="42.50084" lon="2.175">
        <ele>1294.55</ele>
        <time>2016-07-01T07:49:20Z</time>
      </trkpt>
      <trkpt lat="42.50086" lon="2.17501">
        <ele>1294.55</ele>
        <time>2016-07-01T07:49:21Z</time>
      </trkpt>
      <trkpt lat="42.50087" lon="2.17502">
        <ele>1294.55</ele>
        <time>2016-07-01T07:49:22Z</time>
      </trkpt>
      <trkpt lat="42.50089" lon="2.17503">
        <ele>1293.59</ele>
        <time>2016-07-01T07:49:23Z</time>
      </trkpt>
      <trkpt lat="42.5009" lon="2.17504">
        <ele>1294.07</ele>
        <time>2016-07-01T07:49:24Z</time>
      </trkpt>
      <trkpt lat="42.50091" lon="2.17504">
        <ele>1294.07</ele>
        <time>2016-07-01T07:49:25Z</time>
      </trkpt>
      <trkpt lat="42.50092" lon="2.17505">
        <ele>1294.07</ele>
        <time>2016-07-01T07:49:26Z</time>
      </trkpt>
      <trkpt lat="42.50093" lon="2.17506">
        <ele>1293.59</ele>
        <time>2016-07-01T07:49:27Z</time>
      </trkpt>
      <trkpt lat="42.50095" lon="2.17507">
        <ele>1293.59</ele>
        <time>2016-07-01T07:49:28Z</time>
      </trkpt>
      <trkpt lat="42.50096" lon="2.17508">
        <ele>1293.11</ele>
        <time>2016-07-01T07:49:29Z</time>
      </trkpt>
      <trkpt lat="42.50097" lon="2.17509">
        <ele>1293.11</ele>
        <time>2016-07-01T07:49:30Z</time>
      </trkpt>
      <trkpt lat="42.50103" lon="2.17515">
        <ele>1292.63</ele>
        <time>2016-07-01T07:49:35Z</time>
      </trkpt>
      <trkpt lat="42.50104" lon="2.17516">
        <ele>1292.63</ele>
        <time>2016-07-01T07:49:36Z</time>
      </trkpt>
      <trkpt lat="42.50105" lon="2.17517">
        <ele>1292.63</ele>
        <time>2016-07-01T07:49:37Z</time>
      </trkpt>
      <trkpt lat="42.50107" lon="2.17518">
        <ele>1292.63</ele>
        <time>2016-07-01T07:49:38Z</time>
      </trkpt>
      <trkpt lat="42.50108" lon="2.17519">
        <ele>1292.63</ele>
        <time>2016-07-01T07:49:39Z</time>
      </trkpt>
      <trkpt lat="42.50111" lon="2.1752">
        <ele>1292.15</ele>
        <time>2016-07-01T07:49:41Z</time>
      </trkpt>
      <trkpt lat="42.50111" lon="2.17521">
        <ele>1292.15</ele>
        <time>2016-07-01T07:49:42Z</time>
      </trkpt>
      <trkpt lat="42.50113" lon="2.17522">
        <ele>1292.15</ele>
        <time>2016-07-01T07:49:43Z</time>
      </trkpt>
      <trkpt lat="42.50114" lon="2.17523">
        <ele>1292.15</ele>
        <time>2016-07-01T07:49:44Z</time>
      </trkpt>
      <trkpt lat="42.50114" lon="2.17524">
        <ele>1292.15</ele>
        <time>2016-07-01T07:49:45Z</time>
      </trkpt>
      <trkpt lat="42.50115" lon="2.17525">
        <ele>1292.15</ele>
        <time>2016-07-01T07:49:46Z</time>
      </trkpt>
      <trkpt lat="42.50116" lon="2.17527">
        <ele>1291.67</ele>
        <time>2016-07-01T07:49:47Z</time>
      </trkpt>
      <trkpt lat="42.50117" lon="2.17528">
        <ele>1291.67</ele>
        <time>2016-07-01T07:49:48Z</time>
      </trkpt>
      <trkpt lat="42.50118" lon="2.17529">
        <ele>1291.67</ele>
        <time>2016-07-01T07:49:49Z</time>
      </trkpt>
      <trkpt lat="42.50119" lon="2.1753">
        <ele>1291.67</ele>
        <time>2016-07-01T07:49:50Z</time>
      </trkpt>
      <trkpt lat="42.5012" lon="2.17532">
        <ele>1291.67</ele>
        <time>2016-07-01T07:49:51Z</time>
      </trkpt>
      <trkpt lat="42.50121" lon="2.17533">
        <ele>1291.67</ele>
        <time>2016-07-01T07:49:52Z</time>
      </trkpt>
      <trkpt lat="42.50122" lon="2.17534">
        <ele>1291.67</ele>
        <time>2016-07-01T07:49:53Z</time>
      </trkpt>
      <trkpt lat="42.50123" lon="2.17535">
        <ele>1291.67</ele>
        <time>2016-07-01T07:49:54Z</time>
      </trkpt>
      <trkpt lat="42.50125" lon="2.17537">
        <ele>1291.19</ele>
        <time>2016-07-01T07:49:55Z</time>
      </trkpt>
      <trkpt lat="42.50126" lon="2.17538">
        <ele>1291.19</ele>
        <time>2016-07-01T07:49:56Z</time>
      </trkpt>
      <trkpt lat="42.50139" lon="2.17556">
        <ele>1289.75</ele>
        <time>2016-07-01T07:50:10Z</time>
      </trkpt>
      <trkpt lat="42.50143" lon="2.17562">
        <ele>1289.27</ele>
        <time>2016-07-01T07:50:14Z</time>
      </trkpt>
      <trkpt lat="42.50145" lon="2.17565">
        <ele>1289.27</ele>
        <time>2016-07-01T07:50:16Z</time>
      </trkpt>
      <trkpt lat="42.50146" lon="2.17567">
        <ele>1289.27</ele>
        <time>2016-07-01T07:50:17Z</time>
      </trkpt>
      <trkpt lat="42.50147" lon="2.17568">
        <ele>1289.27</ele>
        <time>2016-07-01T07:50:18Z</time>
      </trkpt>
      <trkpt lat="42.50148" lon="2.17569">
        <ele>1289.27</ele>
        <time>2016-07-01T07:50:19Z</time>
      </trkpt>
      <trkpt lat="42.50148" lon="2.17571">
        <ele>1289.27</ele>
        <time>2016-07-01T07:50:20Z</time>
      </trkpt>
      <trkpt lat="42.50149" lon="2.17573">
        <ele>1288.78</ele>
        <time>2016-07-01T07:50:21Z</time>
      </trkpt>
      <trkpt lat="42.5015" lon="2.17574">
        <ele>1288.78</ele>
        <time>2016-07-01T07:50:22Z</time>
      </trkpt>
      <trkpt lat="42.5015" lon="2.17576">
        <ele>1288.78</ele>
        <time>2016-07-01T07:50:23Z</time>
      </trkpt>
      <trkpt lat="42.50151" lon="2.17578">
        <ele>1288.78</ele>
        <time>2016-07-01T07:50:24Z</time>
      </trkpt>
      <trkpt lat="42.50152" lon="2.17579">
        <ele>1288.78</ele>
        <time>2016-07-01T07:50:25Z</time>
      </trkpt>
      <trkpt lat="42.50152" lon="2.17581">
        <ele>1288.78</ele>
        <time>2016-07-01T07:50:26Z</time>
      </trkpt>
      <trkpt lat="42.50153" lon="2.17582">
        <ele>1288.3</ele>
        <time>2016-07-01T07:50:27Z</time>
      </trkpt>
      <trkpt lat="42.50154" lon="2.17584">
        <ele>1288.3</ele>
        <time>2016-07-01T07:50:28Z</time>
      </trkpt>
      <trkpt lat="42.50154" lon="2.17586">
        <ele>1288.3</ele>
        <time>2016-07-01T07:50:29Z</time>
      </trkpt>
      <trkpt lat="42.50155" lon="2.17587">
        <ele>1288.3</ele>
        <time>2016-07-01T07:50:30Z</time>
      </trkpt>
      <trkpt lat="42.50159" lon="2.17595">
        <ele>1287.34</ele>
        <time>2016-07-01T07:50:35Z</time>
      </trkpt>
      <trkpt lat="42.5016" lon="2.17597">
        <ele>1287.34</ele>
        <time>2016-07-01T07:50:36Z</time>
      </trkpt>
      <trkpt lat="42.50161" lon="2.17598">
        <ele>1287.34</ele>
        <time>2016-07-01T07:50:37Z</time>
      </trkpt>
      <trkpt lat="42.50162" lon="2.176">
        <ele>1287.34</ele>
        <time>2016-07-01T07:50:38Z</time>
      </trkpt>
      <trkpt lat="42.50162" lon="2.17601">
        <ele>1287.34</ele>
        <time>2016-07-01T07:50:39Z</time>
      </trkpt>
      <trkpt lat="42.50163" lon="2.17602">
        <ele>1287.34</ele>
        <time>2016-07-01T07:50:40Z</time>
      </trkpt>
      <trkpt lat="42.50163" lon="2.17604">
        <ele>1287.34</ele>
        <time>2016-07-01T07:50:41Z</time>
      </trkpt>
      <trkpt lat="42.50164" lon="2.17606">
        <ele>1286.86</ele>
        <time>2016-07-01T07:50:42Z</time>
      </trkpt>
      <trkpt lat="42.50164" lon="2.17608">
        <ele>1286.86</ele>
        <time>2016-07-01T07:50:43Z</time>
      </trkpt>
      <trkpt lat="42.50165" lon="2.1761">
        <ele>1286.86</ele>
        <time>2016-07-01T07:50:44Z</time>
      </trkpt>
      <trkpt lat="42.50166" lon="2.17612">
        <ele>1286.86</ele>
        <time>2016-07-01T07:50:45Z</time>
      </trkpt>
      <trkpt lat="42.50166" lon="2.17613">
        <ele>1286.86</ele>
        <time>2016-07-01T07:50:46Z</time>
      </trkpt>
      <trkpt lat="42.50167" lon="2.17615">
        <ele>1286.86</ele>
        <time>2016-07-01T07:50:47Z</time>
      </trkpt>
      <trkpt lat="42.50167" lon="2.17617">
        <ele>1286.86</ele>
        <time>2016-07-01T07:50:48Z</time>
      </trkpt>
      <trkpt lat="42.50168" lon="2.17618">
        <ele>1286.86</ele>
        <time>2016-07-01T07:50:49Z</time>
      </trkpt>
      <trkpt lat="42.50169" lon="2.1762">
        <ele>1286.86</ele>
        <time>2016-07-01T07:50:50Z</time>
      </trkpt>
      <trkpt lat="42.5017" lon="2.17624">
        <ele>1286.38</ele>
        <time>2016-07-01T07:50:52Z</time>
      </trkpt>
      <trkpt lat="42.50171" lon="2.17625">
        <ele>1286.38</ele>
        <time>2016-07-01T07:50:53Z</time>
      </trkpt>
      <trkpt lat="42.50172" lon="2.17627">
        <ele>1286.38</ele>
        <time>2016-07-01T07:50:54Z</time>
      </trkpt>
      <trkpt lat="42.50172" lon="2.17628">
        <ele>1286.38</ele>
        <time>2016-07-01T07:50:55Z</time>
      </trkpt>
      <trkpt lat="42.50173" lon="2.1763">
        <ele>1286.38</ele>
        <time>2016-07-01T07:50:56Z</time>
      </trkpt>
      <trkpt lat="42.50174" lon="2.17631">
        <ele>1285.9</ele>
        <time>2016-07-01T07:50:57Z</time>
      </trkpt>
      <trkpt lat="42.50174" lon="2.17633">
        <ele>1285.9</ele>
        <time>2016-07-01T07:50:58Z</time>
      </trkpt>
      <trkpt lat="42.50179" lon="2.17645">
        <ele>1285.42</ele>
        <time>2016-07-01T07:51:05Z</time>
      </trkpt>
      <trkpt lat="42.5018" lon="2.17646">
        <ele>1285.42</ele>
        <time>2016-07-01T07:51:06Z</time>
      </trkpt>
      <trkpt lat="42.5018" lon="2.17648">
        <ele>1285.42</ele>
        <time>2016-07-01T07:51:07Z</time>
      </trkpt>
      <trkpt lat="42.50181" lon="2.17649">
        <ele>1285.42</ele>
        <time>2016-07-01T07:51:08Z</time>
      </trkpt>
      <trkpt lat="42.50182" lon="2.17651">
        <ele>1284.94</ele>
        <time>2016-07-01T07:51:09Z</time>
      </trkpt>
      <trkpt lat="42.50183" lon="2.17652">
        <ele>1284.46</ele>
        <time>2016-07-01T07:51:10Z</time>
      </trkpt>
      <trkpt lat="42.50184" lon="2.17653">
        <ele>1284.46</ele>
        <time>2016-07-01T07:51:11Z</time>
      </trkpt>
      <trkpt lat="42.50184" lon="2.17655">
        <ele>1284.46</ele>
        <time>2016-07-01T07:51:12Z</time>
      </trkpt>
      <trkpt lat="42.50185" lon="2.17656">
        <ele>1284.46</ele>
        <time>2016-07-01T07:51:13Z</time>
      </trkpt>
      <trkpt lat="42.50186" lon="2.17658">
        <ele>1284.46</ele>
        <time>2016-07-01T07:51:14Z</time>
      </trkpt>
      <trkpt lat="42.50186" lon="2.17659">
        <ele>1284.46</ele>
        <time>2016-07-01T07:51:15Z</time>
      </trkpt>
      <trkpt lat="42.50194" lon="2.17669">
        <ele>1283.5</ele>
        <time>2016-07-01T07:51:23Z</time>
      </trkpt>
      <trkpt lat="42.50195" lon="2.1767">
        <ele>1283.5</ele>
        <time>2016-07-01T07:51:24Z</time>
      </trkpt>
      <trkpt lat="42.50196" lon="2.17671">
        <ele>1283.5</ele>
        <time>2016-07-01T07:51:25Z</time>
      </trkpt>
      <trkpt lat="42.50197" lon="2.17672">
        <ele>1283.5</ele>
        <time>2016-07-01T07:51:26Z</time>
      </trkpt>
      <trkpt lat="42.50197" lon="2.17673">
        <ele>1283.5</ele>
        <time>2016-07-01T07:51:27Z</time>
      </trkpt>
      <trkpt lat="42.50198" lon="2.17674">
        <ele>1283.5</ele>
        <time>2016-07-01T07:51:28Z</time>
      </trkpt>
      <trkpt lat="42.50199" lon="2.17676">
        <ele>1283.02</ele>
        <time>2016-07-01T07:51:29Z</time>
      </trkpt>
      <trkpt lat="42.502" lon="2.17677">
        <ele>1283.02</ele>
        <time>2016-07-01T07:51:30Z</time>
      </trkpt>
      <trkpt lat="42.50202" lon="2.1768">
        <ele>1283.02</ele>
        <time>2016-07-01T07:51:32Z</time>
      </trkpt>
      <trkpt lat="42.50203" lon="2.17681">
        <ele>1283.02</ele>
        <time>2016-07-01T07:51:33Z</time>
      </trkpt>
      <trkpt lat="42.50206" lon="2.17684">
        <ele>1282.54</ele>
        <time>2016-07-01T07:51:36Z</time>
      </trkpt>
      <trkpt lat="42.50208" lon="2.17685">
        <ele>1282.54</ele>
        <time>2016-07-01T07:51:37Z</time>
      </trkpt>
      <trkpt lat="42.50208" lon="2.17686">
        <ele>1282.54</ele>
        <time>2016-07-01T07:51:38Z</time>
      </trkpt>
      <trkpt lat="42.5021" lon="2.17687">
        <ele>1282.54</ele>
        <time>2016-07-01T07:51:39Z</time>
      </trkpt>
      <trkpt lat="42.50211" lon="2.17688">
        <ele>1281.57</ele>
        <time>2016-07-01T07:51:40Z</time>
      </trkpt>
      <trkpt lat="42.50212" lon="2.17689">
        <ele>1282.06</ele>
        <time>2016-07-01T07:51:41Z</time>
      </trkpt>
      <trkpt lat="42.50214" lon="2.17692">
        <ele>1282.06</ele>
        <time>2016-07-01T07:51:43Z</time>
      </trkpt>
      <trkpt lat="42.50214" lon="2.17694">
        <ele>1281.57</ele>
        <time>2016-07-01T07:51:44Z</time>
      </trkpt>
      <trkpt lat="42.50215" lon="2.17695">
        <ele>1281.57</ele>
        <time>2016-07-01T07:51:45Z</time>
      </trkpt>
      <trkpt lat="42.50216" lon="2.17696">
        <ele>1281.57</ele>
        <time>2016-07-01T07:51:46Z</time>
      </trkpt>
      <trkpt lat="42.50217" lon="2.17697">
        <ele>1281.09</ele>
        <time>2016-07-01T07:51:47Z</time>
      </trkpt>
      <trkpt lat="42.50218" lon="2.17698">
        <ele>1281.09</ele>
        <time>2016-07-01T07:51:48Z</time>
      </trkpt>
      <trkpt lat="42.5022" lon="2.17699">
        <ele>1281.09</ele>
        <time>2016-07-01T07:51:49Z</time>
      </trkpt>
      <trkpt lat="42.50221" lon="2.177">
        <ele>1281.09</ele>
        <time>2016-07-01T07:51:50Z</time>
      </trkpt>
      <trkpt lat="42.50222" lon="2.17701">
        <ele>1281.09</ele>
        <time>2016-07-01T07:51:51Z</time>
      </trkpt>
      <trkpt lat="42.50223" lon="2.17702">
        <ele>1281.09</ele>
        <time>2016-07-01T07:51:52Z</time>
      </trkpt>
      <trkpt lat="42.50224" lon="2.17703">
        <ele>1281.09</ele>
        <time>2016-07-01T07:51:53Z</time>
      </trkpt>
      <trkpt lat="42.50225" lon="2.17704">
        <ele>1280.61</ele>
        <time>2016-07-01T07:51:54Z</time>
      </trkpt>
      <trkpt lat="42.50226" lon="2.17705">
        <ele>1280.61</ele>
        <time>2016-07-01T07:51:55Z</time>
      </trkpt>
      <trkpt lat="42.50227" lon="2.17706">
        <ele>1280.61</ele>
        <time>2016-07-01T07:51:56Z</time>
      </trkpt>
      <trkpt lat="42.50228" lon="2.17708">
        <ele>1280.61</ele>
        <time>2016-07-01T07:51:57Z</time>
      </trkpt>
      <trkpt lat="42.50229" lon="2.17709">
        <ele>1280.61</ele>
        <time>2016-07-01T07:51:58Z</time>
      </trkpt>
      <trkpt lat="42.5023" lon="2.1771">
        <ele>1280.61</ele>
        <time>2016-07-01T07:51:59Z</time>
      </trkpt>
      <trkpt lat="42.50231" lon="2.17712">
        <ele>1280.13</ele>
        <time>2016-07-01T07:52:00Z</time>
      </trkpt>
      <trkpt lat="42.50232" lon="2.17713">
        <ele>1280.13</ele>
        <time>2016-07-01T07:52:01Z</time>
      </trkpt>
      <trkpt lat="42.50233" lon="2.17714">
        <ele>1280.13</ele>
        <time>2016-07-01T07:52:02Z</time>
      </trkpt>
      <trkpt lat="42.50233" lon="2.17716">
        <ele>1280.13</ele>
        <time>2016-07-01T07:52:03Z</time>
      </trkpt>
      <trkpt lat="42.50234" lon="2.17717">
        <ele>1280.13</ele>
        <time>2016-07-01T07:52:04Z</time>
      </trkpt>
      <trkpt lat="42.50235" lon="2.17719">
        <ele>1280.13</ele>
        <time>2016-07-01T07:52:05Z</time>
      </trkpt>
      <trkpt lat="42.50237" lon="2.17722">
        <ele>1279.65</ele>
        <time>2016-07-01T07:52:08Z</time>
      </trkpt>
      <trkpt lat="42.50238" lon="2.17724">
        <ele>1279.65</ele>
        <time>2016-07-01T07:52:09Z</time>
      </trkpt>
      <trkpt lat="42.50239" lon="2.17725">
        <ele>1279.17</ele>
        <time>2016-07-01T07:52:10Z</time>
      </trkpt>
      <trkpt lat="42.5024" lon="2.17726">
        <ele>1279.17</ele>
        <time>2016-07-01T07:52:11Z</time>
      </trkpt>
      <trkpt lat="42.50241" lon="2.17728">
        <ele>1279.17</ele>
        <time>2016-07-01T07:52:12Z</time>
      </trkpt>
      <trkpt lat="42.50241" lon="2.1773">
        <ele>1279.17</ele>
        <time>2016-07-01T07:52:13Z</time>
      </trkpt>
      <trkpt lat="42.50242" lon="2.17731">
        <ele>1279.17</ele>
        <time>2016-07-01T07:52:14Z</time>
      </trkpt>
      <trkpt lat="42.50252" lon="2.17746">
        <ele>1277.73</ele>
        <time>2016-07-01T07:52:25Z</time>
      </trkpt>
      <trkpt lat="42.50253" lon="2.17747">
        <ele>1277.73</ele>
        <time>2016-07-01T07:52:26Z</time>
      </trkpt>
      <trkpt lat="42.50254" lon="2.17749">
        <ele>1277.25</ele>
        <time>2016-07-01T07:52:27Z</time>
      </trkpt>
      <trkpt lat="42.50255" lon="2.17751">
        <ele>1277.25</ele>
        <time>2016-07-01T07:52:28Z</time>
      </trkpt>
      <trkpt lat="42.50256" lon="2.17752">
        <ele>1277.25</ele>
        <time>2016-07-01T07:52:29Z</time>
      </trkpt>
      <trkpt lat="42.50257" lon="2.17753">
        <ele>1277.25</ele>
        <time>2016-07-01T07:52:30Z</time>
      </trkpt>
      <trkpt lat="42.50258" lon="2.17754">
        <ele>1276.77</ele>
        <time>2016-07-01T07:52:31Z</time>
      </trkpt>
      <trkpt lat="42.50259" lon="2.17755">
        <ele>1276.77</ele>
        <time>2016-07-01T07:52:32Z</time>
      </trkpt>
      <trkpt lat="42.5026" lon="2.17756">
        <ele>1276.77</ele>
        <time>2016-07-01T07:52:33Z</time>
      </trkpt>
      <trkpt lat="42.50261" lon="2.17757">
        <ele>1276.77</ele>
        <time>2016-07-01T07:52:34Z</time>
      </trkpt>
      <trkpt lat="42.50262" lon="2.17758">
        <ele>1276.77</ele>
        <time>2016-07-01T07:52:35Z</time>
      </trkpt>
      <trkpt lat="42.50266" lon="2.17762">
        <ele>1276.29</ele>
        <time>2016-07-01T07:52:39Z</time>
      </trkpt>
      <trkpt lat="42.50267" lon="2.17763">
        <ele>1276.29</ele>
        <time>2016-07-01T07:52:40Z</time>
      </trkpt>
      <trkpt lat="42.50268" lon="2.17764">
        <ele>1275.33</ele>
        <time>2016-07-01T07:52:41Z</time>
      </trkpt>
      <trkpt lat="42.50269" lon="2.17765">
        <ele>1275.81</ele>
        <time>2016-07-01T07:52:42Z</time>
      </trkpt>
      <trkpt lat="42.50271" lon="2.17766">
        <ele>1275.81</ele>
        <time>2016-07-01T07:52:43Z</time>
      </trkpt>
      <trkpt lat="42.50272" lon="2.17767">
        <ele>1275.33</ele>
        <time>2016-07-01T07:52:44Z</time>
      </trkpt>
      <trkpt lat="42.50273" lon="2.17768">
        <ele>1275.33</ele>
        <time>2016-07-01T07:52:45Z</time>
      </trkpt>
      <trkpt lat="42.50274" lon="2.17769">
        <ele>1275.33</ele>
        <time>2016-07-01T07:52:46Z</time>
      </trkpt>
      <trkpt lat="42.50281" lon="2.17774">
        <ele>1274.85</ele>
        <time>2016-07-01T07:52:52Z</time>
      </trkpt>
      <trkpt lat="42.50282" lon="2.17774">
        <ele>1274.85</ele>
        <time>2016-07-01T07:52:53Z</time>
      </trkpt>
      <trkpt lat="42.50283" lon="2.17775">
        <ele>1274.36</ele>
        <time>2016-07-01T07:52:54Z</time>
      </trkpt>
      <trkpt lat="42.50284" lon="2.17776">
        <ele>1274.36</ele>
        <time>2016-07-01T07:52:55Z</time>
      </trkpt>
      <trkpt lat="42.50285" lon="2.17777">
        <ele>1274.36</ele>
        <time>2016-07-01T07:52:56Z</time>
      </trkpt>
      <trkpt lat="42.50287" lon="2.17778">
        <ele>1274.36</ele>
        <time>2016-07-01T07:52:57Z</time>
      </trkpt>
      <trkpt lat="42.50288" lon="2.17779">
        <ele>1274.36</ele>
        <time>2016-07-01T07:52:58Z</time>
      </trkpt>
      <trkpt lat="42.5029" lon="2.1778">
        <ele>1274.36</ele>
        <time>2016-07-01T07:52:59Z</time>
      </trkpt>
      <trkpt lat="42.50291" lon="2.17781">
        <ele>1274.36</ele>
        <time>2016-07-01T07:53:00Z</time>
      </trkpt>
      <trkpt lat="42.50292" lon="2.17781">
        <ele>1273.88</ele>
        <time>2016-07-01T07:53:01Z</time>
      </trkpt>
      <trkpt lat="42.50293" lon="2.17782">
        <ele>1273.88</ele>
        <time>2016-07-01T07:53:02Z</time>
      </trkpt>
      <trkpt lat="42.50307" lon="2.17791">
        <ele>1272.44</ele>
        <time>2016-07-01T07:53:13Z</time>
      </trkpt>
      <trkpt lat="42.50309" lon="2.17793">
        <ele>1272.44</ele>
        <time>2016-07-01T07:53:15Z</time>
      </trkpt>
      <trkpt lat="42.5031" lon="2.17795">
        <ele>1272.44</ele>
        <time>2016-07-01T07:53:16Z</time>
      </trkpt>
      <trkpt lat="42.50311" lon="2.17797">
        <ele>1272.44</ele>
        <time>2016-07-01T07:53:17Z</time>
      </trkpt>
      <trkpt lat="42.50312" lon="2.17798">
        <ele>1272.44</ele>
        <time>2016-07-01T07:53:18Z</time>
      </trkpt>
      <trkpt lat="42.50313" lon="2.17799">
        <ele>1271.96</ele>
        <time>2016-07-01T07:53:19Z</time>
      </trkpt>
      <trkpt lat="42.50314" lon="2.178">
        <ele>1271.96</ele>
        <time>2016-07-01T07:53:20Z</time>
      </trkpt>
      <trkpt lat="42.50315" lon="2.17801">
        <ele>1271.96</ele>
        <time>2016-07-01T07:53:21Z</time>
      </trkpt>
      <trkpt lat="42.50316" lon="2.17802">
        <ele>1271.96</ele>
        <time>2016-07-01T07:53:22Z</time>
      </trkpt>
      <trkpt lat="42.50318" lon="2.17803">
        <ele>1271.96</ele>
        <time>2016-07-01T07:53:23Z</time>
      </trkpt>
      <trkpt lat="42.50319" lon="2.17804">
        <ele>1271.48</ele>
        <time>2016-07-01T07:53:24Z</time>
      </trkpt>
      <trkpt lat="42.5032" lon="2.17805">
        <ele>1271.48</ele>
        <time>2016-07-01T07:53:25Z</time>
      </trkpt>
      <trkpt lat="42.50321" lon="2.17806">
        <ele>1271.48</ele>
        <time>2016-07-01T07:53:26Z</time>
      </trkpt>
      <trkpt lat="42.50322" lon="2.17807">
        <ele>1271.48</ele>
        <time>2016-07-01T07:53:27Z</time>
      </trkpt>
      <trkpt lat="42.50323" lon="2.17808">
        <ele>1271.48</ele>
        <time>2016-07-01T07:53:28Z</time>
      </trkpt>
      <trkpt lat="42.50324" lon="2.1781">
        <ele>1271.48</ele>
        <time>2016-07-01T07:53:29Z</time>
      </trkpt>
      <trkpt lat="42.50325" lon="2.17811">
        <ele>1271</ele>
        <time>2016-07-01T07:53:30Z</time>
      </trkpt>
      <trkpt lat="42.50326" lon="2.17813">
        <ele>1271</ele>
        <time>2016-07-01T07:53:31Z</time>
      </trkpt>
      <trkpt lat="42.50327" lon="2.17814">
        <ele>1271</ele>
        <time>2016-07-01T07:53:32Z</time>
      </trkpt>
      <trkpt lat="42.50328" lon="2.17816">
        <ele>1271</ele>
        <time>2016-07-01T07:53:33Z</time>
      </trkpt>
      <trkpt lat="42.50328" lon="2.17817">
        <ele>1271</ele>
        <time>2016-07-01T07:53:34Z</time>
      </trkpt>
      <trkpt lat="42.5033" lon="2.17817">
        <ele>1270.52</ele>
        <time>2016-07-01T07:53:35Z</time>
      </trkpt>
      <trkpt lat="42.50331" lon="2.17818">
        <ele>1270.52</ele>
        <time>2016-07-01T07:53:36Z</time>
      </trkpt>
      <trkpt lat="42.50332" lon="2.17819">
        <ele>1270.52</ele>
        <time>2016-07-01T07:53:37Z</time>
      </trkpt>
      <trkpt lat="42.50333" lon="2.17821">
        <ele>1270.52</ele>
        <time>2016-07-01T07:53:38Z</time>
      </trkpt>
      <trkpt lat="42.50334" lon="2.17822">
        <ele>1270.52</ele>
        <time>2016-07-01T07:53:39Z</time>
      </trkpt>
      <trkpt lat="42.50335" lon="2.17823">
        <ele>1270.52</ele>
        <time>2016-07-01T07:53:40Z</time>
      </trkpt>
      <trkpt lat="42.50336" lon="2.17824">
        <ele>1270.04</ele>
        <time>2016-07-01T07:53:41Z</time>
      </trkpt>
      <trkpt lat="42.50337" lon="2.17825">
        <ele>1270.04</ele>
        <time>2016-07-01T07:53:42Z</time>
      </trkpt>
      <trkpt lat="42.50338" lon="2.17826">
        <ele>1270.04</ele>
        <time>2016-07-01T07:53:43Z</time>
      </trkpt>
      <trkpt lat="42.50339" lon="2.17828">
        <ele>1270.04</ele>
        <time>2016-07-01T07:53:44Z</time>
      </trkpt>
      <trkpt lat="42.5034" lon="2.1783">
        <ele>1270.04</ele>
        <time>2016-07-01T07:53:45Z</time>
      </trkpt>
      <trkpt lat="42.5034" lon="2.17831">
        <ele>1269.56</ele>
        <time>2016-07-01T07:53:46Z</time>
      </trkpt>
      <trkpt lat="42.50341" lon="2.17833">
        <ele>1269.56</ele>
        <time>2016-07-01T07:53:47Z</time>
      </trkpt>
      <trkpt lat="42.50342" lon="2.17834">
        <ele>1269.08</ele>
        <time>2016-07-01T07:53:48Z</time>
      </trkpt>
      <trkpt lat="42.50343" lon="2.17835">
        <ele>1269.08</ele>
        <time>2016-07-01T07:53:49Z</time>
      </trkpt>
      <trkpt lat="42.50344" lon="2.17837">
        <ele>1269.08</ele>
        <time>2016-07-01T07:53:50Z</time>
      </trkpt>
      <trkpt lat="42.50345" lon="2.17838">
        <ele>1269.08</ele>
        <time>2016-07-01T07:53:51Z</time>
      </trkpt>
      <trkpt lat="42.50346" lon="2.17839">
        <ele>1269.08</ele>
        <time>2016-07-01T07:53:52Z</time>
      </trkpt>
      <trkpt lat="42.50347" lon="2.1784">
        <ele>1269.08</ele>
        <time>2016-07-01T07:53:53Z</time>
      </trkpt>
      <trkpt lat="42.50348" lon="2.17842">
        <ele>1269.08</ele>
        <time>2016-07-01T07:53:54Z</time>
      </trkpt>
      <trkpt lat="42.50357" lon="2.17858">
        <ele>1268.12</ele>
        <time>2016-07-01T07:54:05Z</time>
      </trkpt>
      <trkpt lat="42.50358" lon="2.17859">
        <ele>1268.12</ele>
        <time>2016-07-01T07:54:06Z</time>
      </trkpt>
      <trkpt lat="42.50359" lon="2.17861">
        <ele>1268.12</ele>
        <time>2016-07-01T07:54:07Z</time>
      </trkpt>
      <trkpt lat="42.5036" lon="2.17862">
        <ele>1267.64</ele>
        <time>2016-07-01T07:54:08Z</time>
      </trkpt>
      <trkpt lat="42.5036" lon="2.17864">
        <ele>1267.64</ele>
        <time>2016-07-01T07:54:09Z</time>
      </trkpt>
      <trkpt lat="42.50363" lon="2.17871">
        <ele>1267.64</ele>
        <time>2016-07-01T07:54:13Z</time>
      </trkpt>
      <trkpt lat="42.50363" lon="2.17872">
        <ele>1267.64</ele>
        <time>2016-07-01T07:54:14Z</time>
      </trkpt>
      <trkpt lat="42.50363" lon="2.17874">
        <ele>1267.16</ele>
        <time>2016-07-01T07:54:15Z</time>
      </trkpt>
      <trkpt lat="42.50359" lon="2.1789">
        <ele>1266.67</ele>
        <time>2016-07-01T07:54:24Z</time>
      </trkpt>
      <trkpt lat="42.50356" lon="2.1791">
        <ele>1265.71</ele>
        <time>2016-07-01T07:54:35Z</time>
      </trkpt>
      <trkpt lat="42.50359" lon="2.17917">
        <ele>1265.23</ele>
        <time>2016-07-01T07:54:39Z</time>
      </trkpt>
      <trkpt lat="42.5036" lon="2.17919">
        <ele>1265.23</ele>
        <time>2016-07-01T07:54:40Z</time>
      </trkpt>
      <trkpt lat="42.50362" lon="2.1792">
        <ele>1265.23</ele>
        <time>2016-07-01T07:54:42Z</time>
      </trkpt>
      <trkpt lat="42.50362" lon="2.17921">
        <ele>1265.23</ele>
        <time>2016-07-01T07:54:43Z</time>
      </trkpt>
      <trkpt lat="42.50363" lon="2.17922">
        <ele>1265.23</ele>
        <time>2016-07-01T07:54:44Z</time>
      </trkpt>
      <trkpt lat="42.50364" lon="2.17924">
        <ele>1264.75</ele>
        <time>2016-07-01T07:54:45Z</time>
      </trkpt>
      <trkpt lat="42.50365" lon="2.17925">
        <ele>1264.75</ele>
        <time>2016-07-01T07:54:46Z</time>
      </trkpt>
      <trkpt lat="42.50366" lon="2.17927">
        <ele>1264.75</ele>
        <time>2016-07-01T07:54:47Z</time>
      </trkpt>
      <trkpt lat="42.50367" lon="2.17928">
        <ele>1264.75</ele>
        <time>2016-07-01T07:54:48Z</time>
      </trkpt>
      <trkpt lat="42.50367" lon="2.1793">
        <ele>1264.75</ele>
        <time>2016-07-01T07:54:49Z</time>
      </trkpt>
      <trkpt lat="42.50365" lon="2.17934">
        <ele>1264.75</ele>
        <time>2016-07-01T07:54:53Z</time>
      </trkpt>
      <trkpt lat="42.50364" lon="2.17935">
        <ele>1264.75</ele>
        <time>2016-07-01T07:54:54Z</time>
      </trkpt>
      <trkpt lat="42.50362" lon="2.17935">
        <ele>1264.75</ele>
        <time>2016-07-01T07:54:55Z</time>
      </trkpt>
      <trkpt lat="42.50361" lon="2.17936">
        <ele>1264.27</ele>
        <time>2016-07-01T07:54:56Z</time>
      </trkpt>
      <trkpt lat="42.5036" lon="2.17937">
        <ele>1264.27</ele>
        <time>2016-07-01T07:54:57Z</time>
      </trkpt>
      <trkpt lat="42.50359" lon="2.17938">
        <ele>1264.27</ele>
        <time>2016-07-01T07:54:58Z</time>
      </trkpt>
      <trkpt lat="42.50356" lon="2.1794">
        <ele>1264.27</ele>
        <time>2016-07-01T07:55:01Z</time>
      </trkpt>
      <trkpt lat="42.50354" lon="2.1794">
        <ele>1263.79</ele>
        <time>2016-07-01T07:55:15Z</time>
      </trkpt>
      <trkpt lat="42.50354" lon="2.1794">
        <ele>1263.79</ele>
        <time>2016-07-01T07:55:38Z</time>
      </trkpt>
      <trkpt lat="42.50356" lon="2.17939">
        <ele>1263.79</ele>
        <time>2016-07-01T07:55:53Z</time>
      </trkpt>
      <trkpt lat="42.50357" lon="2.17939">
        <ele>1263.79</ele>
        <time>2016-07-01T07:55:54Z</time>
      </trkpt>
      <trkpt lat="42.50358" lon="2.17939">
        <ele>1263.79</ele>
        <time>2016-07-01T07:55:55Z</time>
      </trkpt>
      <trkpt lat="42.5036" lon="2.17938">
        <ele>1263.79</ele>
        <time>2016-07-01T07:55:57Z</time>
      </trkpt>
      <trkpt lat="42.50361" lon="2.17937">
        <ele>1263.79</ele>
        <time>2016-07-01T07:55:58Z</time>
      </trkpt>
      <trkpt lat="42.50365" lon="2.17933">
        <ele>1263.79</ele>
        <time>2016-07-01T07:56:04Z</time>
      </trkpt>
      <trkpt lat="42.50374" lon="2.17929">
        <ele>1263.79</ele>
        <time>2016-07-01T07:56:11Z</time>
      </trkpt>
      <trkpt lat="42.50381" lon="2.17927">
        <ele>1263.79</ele>
        <time>2016-07-01T07:56:17Z</time>
      </trkpt>
      <trkpt lat="42.50382" lon="2.17926">
        <ele>1263.79</ele>
        <time>2016-07-01T07:56:18Z</time>
      </trkpt>
      <trkpt lat="42.50383" lon="2.17925">
        <ele>1263.79</ele>
        <time>2016-07-01T07:56:19Z</time>
      </trkpt>
      <trkpt lat="42.50384" lon="2.17924">
        <ele>1263.79</ele>
        <time>2016-07-01T07:56:20Z</time>
      </trkpt>
      <trkpt lat="42.50386" lon="2.17922">
        <ele>1263.79</ele>
        <time>2016-07-01T07:56:21Z</time>
      </trkpt>
      <trkpt lat="42.50386" lon="2.17921">
        <ele>1263.79</ele>
        <time>2016-07-01T07:56:22Z</time>
      </trkpt>
      <trkpt lat="42.5039" lon="2.17904">
        <ele>1262.83</ele>
        <time>2016-07-01T07:56:33Z</time>
      </trkpt>
      <trkpt lat="42.50386" lon="2.17879">
        <ele>1262.35</ele>
        <time>2016-07-01T07:56:47Z</time>
      </trkpt>
      <trkpt lat="42.50379" lon="2.17862">
        <ele>1261.39</ele>
        <time>2016-07-01T07:56:59Z</time>
      </trkpt>
      <trkpt lat="42.50375" lon="2.17853">
        <ele>1260.43</ele>
        <time>2016-07-01T07:57:05Z</time>
      </trkpt>
      <trkpt lat="42.50374" lon="2.17851">
        <ele>1260.43</ele>
        <time>2016-07-01T07:57:06Z</time>
      </trkpt>
      <trkpt lat="42.50369" lon="2.17841">
        <ele>1259.94</ele>
        <time>2016-07-01T07:57:13Z</time>
      </trkpt>
      <trkpt lat="42.50368" lon="2.17839">
        <ele>1259.94</ele>
        <time>2016-07-01T07:57:14Z</time>
      </trkpt>
      <trkpt lat="42.50367" lon="2.17838">
        <ele>1259.94</ele>
        <time>2016-07-01T07:57:15Z</time>
      </trkpt>
      <trkpt lat="42.50367" lon="2.17837">
        <ele>1259.94</ele>
        <time>2016-07-01T07:57:16Z</time>
      </trkpt>
      <trkpt lat="42.50366" lon="2.17835">
        <ele>1259.94</ele>
        <time>2016-07-01T07:57:17Z</time>
      </trkpt>
      <trkpt lat="42.50364" lon="2.17834">
        <ele>1259.46</ele>
        <time>2016-07-01T07:57:18Z</time>
      </trkpt>
      <trkpt lat="42.50359" lon="2.17828">
        <ele>1259.46</ele>
        <time>2016-07-01T07:57:23Z</time>
      </trkpt>
      <trkpt lat="42.50359" lon="2.17826">
        <ele>1259.46</ele>
        <time>2016-07-01T07:57:24Z</time>
      </trkpt>
      <trkpt lat="42.50359" lon="2.17824">
        <ele>1258.98</ele>
        <time>2016-07-01T07:57:25Z</time>
      </trkpt>
      <trkpt lat="42.50358" lon="2.17822">
        <ele>1258.98</ele>
        <time>2016-07-01T07:57:26Z</time>
      </trkpt>
      <trkpt lat="42.50357" lon="2.17821">
        <ele>1258.98</ele>
        <time>2016-07-01T07:57:27Z</time>
      </trkpt>
      <trkpt lat="42.50356" lon="2.1782">
        <ele>1258.98</ele>
        <time>2016-07-01T07:57:28Z</time>
      </trkpt>
      <trkpt lat="42.50355" lon="2.17818">
        <ele>1258.98</ele>
        <time>2016-07-01T07:57:29Z</time>
      </trkpt>
      <trkpt lat="42.50355" lon="2.17817">
        <ele>1258.98</ele>
        <time>2016-07-01T07:57:30Z</time>
      </trkpt>
      <trkpt lat="42.50352" lon="2.17814">
        <ele>1258.5</ele>
        <time>2016-07-01T07:57:33Z</time>
      </trkpt>
      <trkpt lat="42.50352" lon="2.17813">
        <ele>1258.5</ele>
        <time>2016-07-01T07:57:34Z</time>
      </trkpt>
      <trkpt lat="42.50351" lon="2.17812">
        <ele>1258.5</ele>
        <time>2016-07-01T07:57:35Z</time>
      </trkpt>
      <trkpt lat="42.5035" lon="2.1781">
        <ele>1258.5</ele>
        <time>2016-07-01T07:57:36Z</time>
      </trkpt>
      <trkpt lat="42.50349" lon="2.17808">
        <ele>1258.5</ele>
        <time>2016-07-01T07:57:37Z</time>
      </trkpt>
      <trkpt lat="42.50348" lon="2.17807">
        <ele>1258.5</ele>
        <time>2016-07-01T07:57:38Z</time>
      </trkpt>
      <trkpt lat="42.50333" lon="2.17788">
        <ele>1257.06</ele>
        <time>2016-07-01T07:57:53Z</time>
      </trkpt>
      <trkpt lat="42.50331" lon="2.17784">
        <ele>1256.58</ele>
        <time>2016-07-01T07:57:56Z</time>
      </trkpt>
      <trkpt lat="42.5033" lon="2.17783">
        <ele>1256.58</ele>
        <time>2016-07-01T07:57:57Z</time>
      </trkpt>
      <trkpt lat="42.50329" lon="2.17781">
        <ele>1256.58</ele>
        <time>2016-07-01T07:57:58Z</time>
      </trkpt>
      <trkpt lat="42.50328" lon="2.1778">
        <ele>1256.58</ele>
        <time>2016-07-01T07:57:59Z</time>
      </trkpt>
      <trkpt lat="42.50327" lon="2.17779">
        <ele>1256.58</ele>
        <time>2016-07-01T07:58:00Z</time>
      </trkpt>
      <trkpt lat="42.50326" lon="2.17777">
        <ele>1256.1</ele>
        <time>2016-07-01T07:58:01Z</time>
      </trkpt>
      <trkpt lat="42.50325" lon="2.17776">
        <ele>1256.1</ele>
        <time>2016-07-01T07:58:02Z</time>
      </trkpt>
      <trkpt lat="42.50318" lon="2.17768">
        <ele>1255.62</ele>
        <time>2016-07-01T07:58:09Z</time>
      </trkpt>
      <trkpt lat="42.50308" lon="2.17753">
        <ele>1254.18</ele>
        <time>2016-07-01T07:58:19Z</time>
      </trkpt>
      <trkpt lat="42.50298" lon="2.17742">
        <ele>1253.22</ele>
        <time>2016-07-01T07:58:28Z</time>
      </trkpt>
      <trkpt lat="42.50297" lon="2.1774">
        <ele>1253.22</ele>
        <time>2016-07-01T07:58:29Z</time>
      </trkpt>
      <trkpt lat="42.50291" lon="2.17732">
        <ele>1252.74</ele>
        <time>2016-07-01T07:58:35Z</time>
      </trkpt>
      <trkpt lat="42.5029" lon="2.17731">
        <ele>1252.74</ele>
        <time>2016-07-01T07:58:36Z</time>
      </trkpt>
      <trkpt lat="42.50289" lon="2.17729">
        <ele>1252.25</ele>
        <time>2016-07-01T07:58:37Z</time>
      </trkpt>
      <trkpt lat="42.50286" lon="2.17724">
        <ele>1252.25</ele>
        <time>2016-07-01T07:58:40Z</time>
      </trkpt>
      <trkpt lat="42.50284" lon="2.17723">
        <ele>1252.25</ele>
        <time>2016-07-01T07:58:41Z</time>
      </trkpt>
      <trkpt lat="42.50284" lon="2.17721">
        <ele>1251.29</ele>
        <time>2016-07-01T07:58:42Z</time>
      </trkpt>
      <trkpt lat="42.50283" lon="2.1772">
        <ele>1251.29</ele>
        <time>2016-07-01T07:58:43Z</time>
      </trkpt>
      <trkpt lat="42.50282" lon="2.17718">
        <ele>1251.29</ele>
        <time>2016-07-01T07:58:44Z</time>
      </trkpt>
      <trkpt lat="42.50282" lon="2.17716">
        <ele>1251.29</ele>
        <time>2016-07-01T07:58:45Z</time>
      </trkpt>
      <trkpt lat="42.50274" lon="2.17698">
        <ele>1250.33</ele>
        <time>2016-07-01T07:58:56Z</time>
      </trkpt>
      <trkpt lat="42.50274" lon="2.17697">
        <ele>1250.33</ele>
        <time>2016-07-01T07:58:57Z</time>
      </trkpt>
      <trkpt lat="42.50265" lon="2.17675">
        <ele>1249.37</ele>
        <time>2016-07-01T07:59:09Z</time>
      </trkpt>
      <trkpt lat="42.50251" lon="2.17642">
        <ele>1246.97</ele>
        <time>2016-07-01T07:59:28Z</time>
      </trkpt>
      <trkpt lat="42.50242" lon="2.17617">
        <ele>1246.01</ele>
        <time>2016-07-01T07:59:42Z</time>
      </trkpt>
      <trkpt lat="42.5024" lon="2.17602">
        <ele>1244.56</ele>
        <time>2016-07-01T07:59:50Z</time>
      </trkpt>
      <trkpt lat="42.50238" lon="2.17599">
        <ele>1244.56</ele>
        <time>2016-07-01T07:59:52Z</time>
      </trkpt>
      <trkpt lat="42.50237" lon="2.17598">
        <ele>1244.08</ele>
        <time>2016-07-01T07:59:53Z</time>
      </trkpt>
      <trkpt lat="42.50237" lon="2.17596">
        <ele>1244.08</ele>
        <time>2016-07-01T07:59:54Z</time>
      </trkpt>
      <trkpt lat="42.50236" lon="2.17587">
        <ele>1243.6</ele>
        <time>2016-07-01T07:59:59Z</time>
      </trkpt>
      <trkpt lat="42.50235" lon="2.17585">
        <ele>1243.6</ele>
        <time>2016-07-01T08:00:00Z</time>
      </trkpt>
      <trkpt lat="42.50235" lon="2.17584">
        <ele>1243.6</ele>
        <time>2016-07-01T08:00:01Z</time>
      </trkpt>
      <trkpt lat="42.50234" lon="2.17582">
        <ele>1243.6</ele>
        <time>2016-07-01T08:00:02Z</time>
      </trkpt>
      <trkpt lat="42.50235" lon="2.1758">
        <ele>1243.6</ele>
        <time>2016-07-01T08:00:03Z</time>
      </trkpt>
      <trkpt lat="42.50235" lon="2.17578">
        <ele>1243.12</ele>
        <time>2016-07-01T08:00:04Z</time>
      </trkpt>
      <trkpt lat="42.50235" lon="2.17576">
        <ele>1243.12</ele>
        <time>2016-07-01T08:00:05Z</time>
      </trkpt>
      <trkpt lat="42.50235" lon="2.17569">
        <ele>1243.12</ele>
        <time>2016-07-01T08:00:09Z</time>
      </trkpt>
      <trkpt lat="42.50236" lon="2.17568">
        <ele>1242.64</ele>
        <time>2016-07-01T08:00:10Z</time>
      </trkpt>
      <trkpt lat="42.50236" lon="2.17566">
        <ele>1242.64</ele>
        <time>2016-07-01T08:00:11Z</time>
      </trkpt>
      <trkpt lat="42.50236" lon="2.17564">
        <ele>1242.64</ele>
        <time>2016-07-01T08:00:12Z</time>
      </trkpt>
      <trkpt lat="42.50237" lon="2.17562">
        <ele>1242.64</ele>
        <time>2016-07-01T08:00:13Z</time>
      </trkpt>
      <trkpt lat="42.50238" lon="2.1756">
        <ele>1242.64</ele>
        <time>2016-07-01T08:00:14Z</time>
      </trkpt>
      <trkpt lat="42.50239" lon="2.17557">
        <ele>1242.16</ele>
        <time>2016-07-01T08:00:15Z</time>
      </trkpt>
      <trkpt lat="42.50239" lon="2.17555">
        <ele>1242.16</ele>
        <time>2016-07-01T08:00:16Z</time>
      </trkpt>
      <trkpt lat="42.50239" lon="2.17554">
        <ele>1242.16</ele>
        <time>2016-07-01T08:00:17Z</time>
      </trkpt>
      <trkpt lat="42.5024" lon="2.17552">
        <ele>1242.16</ele>
        <time>2016-07-01T08:00:18Z</time>
      </trkpt>
      <trkpt lat="42.5024" lon="2.1755">
        <ele>1241.2</ele>
        <time>2016-07-01T08:00:19Z</time>
      </trkpt>
      <trkpt lat="42.50241" lon="2.17548">
        <ele>1241.68</ele>
        <time>2016-07-01T08:00:20Z</time>
      </trkpt>
      <trkpt lat="42.50241" lon="2.17547">
        <ele>1241.2</ele>
        <time>2016-07-01T08:00:21Z</time>
      </trkpt>
      <trkpt lat="42.50241" lon="2.17545">
        <ele>1241.2</ele>
        <time>2016-07-01T08:00:22Z</time>
      </trkpt>
      <trkpt lat="42.50242" lon="2.17543">
        <ele>1240.72</ele>
        <time>2016-07-01T08:00:23Z</time>
      </trkpt>
      <trkpt lat="42.50242" lon="2.17541">
        <ele>1240.72</ele>
        <time>2016-07-01T08:00:24Z</time>
      </trkpt>
      <trkpt lat="42.50242" lon="2.17539">
        <ele>1240.72</ele>
        <time>2016-07-01T08:00:25Z</time>
      </trkpt>
      <trkpt lat="42.50243" lon="2.17537">
        <ele>1240.72</ele>
        <time>2016-07-01T08:00:26Z</time>
      </trkpt>
      <trkpt lat="42.50248" lon="2.17516">
        <ele>1239.28</ele>
        <time>2016-07-01T08:00:41Z</time>
      </trkpt>
      <trkpt lat="42.5025" lon="2.17501">
        <ele>1238.8</ele>
        <time>2016-07-01T08:00:53Z</time>
      </trkpt>
      <trkpt lat="42.50249" lon="2.17499">
        <ele>1238.8</ele>
        <time>2016-07-01T08:00:54Z</time>
      </trkpt>
      <trkpt lat="42.50248" lon="2.17498">
        <ele>1238.8</ele>
        <time>2016-07-01T08:00:55Z</time>
      </trkpt>
      <trkpt lat="42.50248" lon="2.17497">
        <ele>1238.8</ele>
        <time>2016-07-01T08:00:56Z</time>
      </trkpt>
      <trkpt lat="42.50236" lon="2.1748">
        <ele>1237.83</ele>
        <time>2016-07-01T08:01:09Z</time>
      </trkpt>
      <trkpt lat="42.50227" lon="2.17473">
        <ele>1236.87</ele>
        <time>2016-07-01T08:01:17Z</time>
      </trkpt>
      <trkpt lat="42.50212" lon="2.17465">
        <ele>1235.43</ele>
        <time>2016-07-01T08:01:28Z</time>
      </trkpt>
      <trkpt lat="42.50202" lon="2.17462">
        <ele>1234.95</ele>
        <time>2016-07-01T08:01:35Z</time>
      </trkpt>
      <trkpt lat="42.502" lon="2.17461">
        <ele>1234.95</ele>
        <time>2016-07-01T08:01:36Z</time>
      </trkpt>
      <trkpt lat="42.50199" lon="2.1746">
        <ele>1234.95</ele>
        <time>2016-07-01T08:01:37Z</time>
      </trkpt>
      <trkpt lat="42.50198" lon="2.17459">
        <ele>1234.47</ele>
        <time>2016-07-01T08:01:38Z</time>
      </trkpt>
      <trkpt lat="42.50197" lon="2.17458">
        <ele>1234.47</ele>
        <time>2016-07-01T08:01:39Z</time>
      </trkpt>
      <trkpt lat="42.50195" lon="2.17457">
        <ele>1234.47</ele>
        <time>2016-07-01T08:01:40Z</time>
      </trkpt>
      <trkpt lat="42.50194" lon="2.17456">
        <ele>1234.47</ele>
        <time>2016-07-01T08:01:41Z</time>
      </trkpt>
      <trkpt lat="42.50193" lon="2.17455">
        <ele>1234.47</ele>
        <time>2016-07-01T08:01:42Z</time>
      </trkpt>
      <trkpt lat="42.50191" lon="2.17454">
        <ele>1234.47</ele>
        <time>2016-07-01T08:01:43Z</time>
      </trkpt>
      <trkpt lat="42.5019" lon="2.17453">
        <ele>1233.99</ele>
        <time>2016-07-01T08:01:44Z</time>
      </trkpt>
      <trkpt lat="42.50189" lon="2.17452">
        <ele>1233.99</ele>
        <time>2016-07-01T08:01:45Z</time>
      </trkpt>
      <trkpt lat="42.50187" lon="2.17449">
        <ele>1233.99</ele>
        <time>2016-07-01T08:01:47Z</time>
      </trkpt>
      <trkpt lat="42.50185" lon="2.17449">
        <ele>1233.99</ele>
        <time>2016-07-01T08:01:48Z</time>
      </trkpt>
      <trkpt lat="42.50184" lon="2.17448">
        <ele>1233.99</ele>
        <time>2016-07-01T08:01:49Z</time>
      </trkpt>
      <trkpt lat="42.50183" lon="2.17447">
        <ele>1233.99</ele>
        <time>2016-07-01T08:01:50Z</time>
      </trkpt>
      <trkpt lat="42.50182" lon="2.17446">
        <ele>1233.51</ele>
        <time>2016-07-01T08:01:51Z</time>
      </trkpt>
      <trkpt lat="42.5018" lon="2.17444">
        <ele>1233.51</ele>
        <time>2016-07-01T08:01:52Z</time>
      </trkpt>
      <trkpt lat="42.50179" lon="2.17443">
        <ele>1233.51</ele>
        <time>2016-07-01T08:01:53Z</time>
      </trkpt>
      <trkpt lat="42.50178" lon="2.17443">
        <ele>1233.51</ele>
        <time>2016-07-01T08:01:54Z</time>
      </trkpt>
      <trkpt lat="42.50176" lon="2.17442">
        <ele>1233.51</ele>
        <time>2016-07-01T08:01:55Z</time>
      </trkpt>
      <trkpt lat="42.50175" lon="2.17441">
        <ele>1233.51</ele>
        <time>2016-07-01T08:01:56Z</time>
      </trkpt>
      <trkpt lat="42.50174" lon="2.17441">
        <ele>1233.03</ele>
        <time>2016-07-01T08:01:57Z</time>
      </trkpt>
      <trkpt lat="42.50172" lon="2.1744">
        <ele>1233.03</ele>
        <time>2016-07-01T08:01:58Z</time>
      </trkpt>
      <trkpt lat="42.50166" lon="2.17436">
        <ele>1233.03</ele>
        <time>2016-07-01T08:02:03Z</time>
      </trkpt>
      <trkpt lat="42.50165" lon="2.17435">
        <ele>1232.55</ele>
        <time>2016-07-01T08:02:04Z</time>
      </trkpt>
      <trkpt lat="42.50163" lon="2.17434">
        <ele>1232.55</ele>
        <time>2016-07-01T08:02:05Z</time>
      </trkpt>
      <trkpt lat="42.50162" lon="2.17433">
        <ele>1232.55</ele>
        <time>2016-07-01T08:02:06Z</time>
      </trkpt>
      <trkpt lat="42.5016" lon="2.17432">
        <ele>1232.55</ele>
        <time>2016-07-01T08:02:07Z</time>
      </trkpt>
      <trkpt lat="42.50159" lon="2.17431">
        <ele>1232.55</ele>
        <time>2016-07-01T08:02:08Z</time>
      </trkpt>
      <trkpt lat="42.50152" lon="2.1742">
        <ele>1231.11</ele>
        <time>2016-07-01T08:02:17Z</time>
      </trkpt>
      <trkpt lat="42.50153" lon="2.17418">
        <ele>1231.11</ele>
        <time>2016-07-01T08:02:18Z</time>
      </trkpt>
      <trkpt lat="42.50154" lon="2.17417">
        <ele>1231.11</ele>
        <time>2016-07-01T08:02:19Z</time>
      </trkpt>
      <trkpt lat="42.50156" lon="2.17417">
        <ele>1230.62</ele>
        <time>2016-07-01T08:02:20Z</time>
      </trkpt>
      <trkpt lat="42.50157" lon="2.17416">
        <ele>1230.62</ele>
        <time>2016-07-01T08:02:21Z</time>
      </trkpt>
      <trkpt lat="42.50159" lon="2.17416">
        <ele>1230.62</ele>
        <time>2016-07-01T08:02:22Z</time>
      </trkpt>
      <trkpt lat="42.50171" lon="2.17422">
        <ele>1229.18</ele>
        <time>2016-07-01T08:02:31Z</time>
      </trkpt>
      <trkpt lat="42.50175" lon="2.17424">
        <ele>1228.7</ele>
        <time>2016-07-01T08:02:34Z</time>
      </trkpt>
      <trkpt lat="42.50179" lon="2.17427">
        <ele>1228.22</ele>
        <time>2016-07-01T08:02:37Z</time>
      </trkpt>
      <trkpt lat="42.5018" lon="2.17428">
        <ele>1228.22</ele>
        <time>2016-07-01T08:02:38Z</time>
      </trkpt>
      <trkpt lat="42.50182" lon="2.17429">
        <ele>1227.74</ele>
        <time>2016-07-01T08:02:40Z</time>
      </trkpt>
      <trkpt lat="42.50184" lon="2.17429">
        <ele>1227.74</ele>
        <time>2016-07-01T08:02:41Z</time>
      </trkpt>
      <trkpt lat="42.50185" lon="2.17429">
        <ele>1227.74</ele>
        <time>2016-07-01T08:02:42Z</time>
      </trkpt>
      <trkpt lat="42.50187" lon="2.17429">
        <ele>1227.74</ele>
        <time>2016-07-01T08:02:43Z</time>
      </trkpt>
      <trkpt lat="42.50193" lon="2.17433">
        <ele>1227.26</ele>
        <time>2016-07-01T08:02:48Z</time>
      </trkpt>
      <trkpt lat="42.50195" lon="2.17433">
        <ele>1226.78</ele>
        <time>2016-07-01T08:02:49Z</time>
      </trkpt>
      <trkpt lat="42.50197" lon="2.17434">
        <ele>1226.78</ele>
        <time>2016-07-01T08:02:50Z</time>
      </trkpt>
      <trkpt lat="42.50198" lon="2.17435">
        <ele>1226.78</ele>
        <time>2016-07-01T08:02:51Z</time>
      </trkpt>
      <trkpt lat="42.502" lon="2.17435">
        <ele>1226.78</ele>
        <time>2016-07-01T08:02:52Z</time>
      </trkpt>
      <trkpt lat="42.50201" lon="2.17436">
        <ele>1226.78</ele>
        <time>2016-07-01T08:02:53Z</time>
      </trkpt>
      <trkpt lat="42.50202" lon="2.17436">
        <ele>1225.82</ele>
        <time>2016-07-01T08:02:54Z</time>
      </trkpt>
      <trkpt lat="42.50215" lon="2.17439">
        <ele>1224.86</ele>
        <time>2016-07-01T08:03:03Z</time>
      </trkpt>
      <trkpt lat="42.50221" lon="2.17439">
        <ele>1224.38</ele>
        <time>2016-07-01T08:03:07Z</time>
      </trkpt>
      <trkpt lat="42.50223" lon="2.17439">
        <ele>1224.38</ele>
        <time>2016-07-01T08:03:09Z</time>
      </trkpt>
      <trkpt lat="42.50225" lon="2.17439">
        <ele>1223.9</ele>
        <time>2016-07-01T08:03:10Z</time>
      </trkpt>
      <trkpt lat="42.50226" lon="2.17439">
        <ele>1223.9</ele>
        <time>2016-07-01T08:03:11Z</time>
      </trkpt>
      <trkpt lat="42.50227" lon="2.17439">
        <ele>1223.9</ele>
        <time>2016-07-01T08:03:12Z</time>
      </trkpt>
      <trkpt lat="42.50228" lon="2.17438">
        <ele>1223.9</ele>
        <time>2016-07-01T08:03:13Z</time>
      </trkpt>
      <trkpt lat="42.5023" lon="2.17438">
        <ele>1222.93</ele>
        <time>2016-07-01T08:03:14Z</time>
      </trkpt>
      <trkpt lat="42.50231" lon="2.17437">
        <ele>1222.93</ele>
        <time>2016-07-01T08:03:15Z</time>
      </trkpt>
      <trkpt lat="42.50232" lon="2.17436">
        <ele>1222.93</ele>
        <time>2016-07-01T08:03:16Z</time>
      </trkpt>
      <trkpt lat="42.50234" lon="2.17436">
        <ele>1222.93</ele>
        <time>2016-07-01T08:03:17Z</time>
      </trkpt>
      <trkpt lat="42.50235" lon="2.17435">
        <ele>1222.45</ele>
        <time>2016-07-01T08:03:18Z</time>
      </trkpt>
      <trkpt lat="42.50237" lon="2.17435">
        <ele>1222.45</ele>
        <time>2016-07-01T08:03:19Z</time>
      </trkpt>
      <trkpt lat="42.50247" lon="2.17433">
        <ele>1221.49</ele>
        <time>2016-07-01T08:03:27Z</time>
      </trkpt>
      <trkpt lat="42.50257" lon="2.17434">
        <ele>1220.05</ele>
        <time>2016-07-01T08:03:34Z</time>
      </trkpt>
      <trkpt lat="42.50259" lon="2.17434">
        <ele>1220.05</ele>
        <time>2016-07-01T08:03:35Z</time>
      </trkpt>
      <trkpt lat="42.5026" lon="2.17434">
        <ele>1220.05</ele>
        <time>2016-07-01T08:03:36Z</time>
      </trkpt>
      <trkpt lat="42.50262" lon="2.17435">
        <ele>1219.57</ele>
        <time>2016-07-01T08:03:37Z</time>
      </trkpt>
      <trkpt lat="42.50264" lon="2.17435">
        <ele>1219.57</ele>
        <time>2016-07-01T08:03:38Z</time>
      </trkpt>
      <trkpt lat="42.50265" lon="2.17436">
        <ele>1219.57</ele>
        <time>2016-07-01T08:03:39Z</time>
      </trkpt>
      <trkpt lat="42.50267" lon="2.17436">
        <ele>1219.09</ele>
        <time>2016-07-01T08:03:40Z</time>
      </trkpt>
      <trkpt lat="42.50284" lon="2.1744">
        <ele>1217.65</ele>
        <time>2016-07-01T08:03:52Z</time>
      </trkpt>
      <trkpt lat="42.50295" lon="2.17447">
        <ele>1216.21</ele>
        <time>2016-07-01T08:04:01Z</time>
      </trkpt>
      <trkpt lat="42.50296" lon="2.17448">
        <ele>1216.21</ele>
        <time>2016-07-01T08:04:02Z</time>
      </trkpt>
      <trkpt lat="42.50297" lon="2.1745">
        <ele>1216.21</ele>
        <time>2016-07-01T08:04:03Z</time>
      </trkpt>
      <trkpt lat="42.50299" lon="2.17451">
        <ele>1215.72</ele>
        <time>2016-07-01T08:04:04Z</time>
      </trkpt>
      <trkpt lat="42.50299" lon="2.17453">
        <ele>1215.72</ele>
        <time>2016-07-01T08:04:05Z</time>
      </trkpt>
      <trkpt lat="42.50301" lon="2.17454">
        <ele>1215.72</ele>
        <time>2016-07-01T08:04:06Z</time>
      </trkpt>
      <trkpt lat="42.50309" lon="2.17468">
        <ele>1214.76</ele>
        <time>2016-07-01T08:04:15Z</time>
      </trkpt>
      <trkpt lat="42.50309" lon="2.1747">
        <ele>1214.76</ele>
        <time>2016-07-01T08:04:16Z</time>
      </trkpt>
      <trkpt lat="42.50309" lon="2.17472">
        <ele>1214.76</ele>
        <time>2016-07-01T08:04:17Z</time>
      </trkpt>
      <trkpt lat="42.50309" lon="2.17474">
        <ele>1214.28</ele>
        <time>2016-07-01T08:04:18Z</time>
      </trkpt>
      <trkpt lat="42.50309" lon="2.17476">
        <ele>1214.28</ele>
        <time>2016-07-01T08:04:19Z</time>
      </trkpt>
      <trkpt lat="42.50309" lon="2.17478">
        <ele>1214.28</ele>
        <time>2016-07-01T08:04:20Z</time>
      </trkpt>
      <trkpt lat="42.50309" lon="2.1748">
        <ele>1214.28</ele>
        <time>2016-07-01T08:04:21Z</time>
      </trkpt>
      <trkpt lat="42.5031" lon="2.17482">
        <ele>1213.32</ele>
        <time>2016-07-01T08:04:22Z</time>
      </trkpt>
      <trkpt lat="42.5031" lon="2.17484">
        <ele>1213.32</ele>
        <time>2016-07-01T08:04:23Z</time>
      </trkpt>
      <trkpt lat="42.5031" lon="2.17486">
        <ele>1213.32</ele>
        <time>2016-07-01T08:04:24Z</time>
      </trkpt>
      <trkpt lat="42.50309" lon="2.17487">
        <ele>1213.32</ele>
        <time>2016-07-01T08:04:25Z</time>
      </trkpt>
      <trkpt lat="42.50309" lon="2.17489">
        <ele>1212.84</ele>
        <time>2016-07-01T08:04:26Z</time>
      </trkpt>
      <trkpt lat="42.50309" lon="2.17491">
        <ele>1212.84</ele>
        <time>2016-07-01T08:04:27Z</time>
      </trkpt>
      <trkpt lat="42.50309" lon="2.17493">
        <ele>1212.84</ele>
        <time>2016-07-01T08:04:28Z</time>
      </trkpt>
      <trkpt lat="42.50309" lon="2.17495">
        <ele>1212.84</ele>
        <time>2016-07-01T08:04:29Z</time>
      </trkpt>
      <trkpt lat="42.50309" lon="2.17497">
        <ele>1212.84</ele>
        <time>2016-07-01T08:04:30Z</time>
      </trkpt>
      <trkpt lat="42.50307" lon="2.17518">
        <ele>1211.4</ele>
        <time>2016-07-01T08:04:42Z</time>
      </trkpt>
      <trkpt lat="42.50307" lon="2.17521">
        <ele>1211.4</ele>
        <time>2016-07-01T08:04:44Z</time>
      </trkpt>
      <trkpt lat="42.50307" lon="2.17525">
        <ele>1210.44</ele>
        <time>2016-07-01T08:04:47Z</time>
      </trkpt>
      <trkpt lat="42.50306" lon="2.17539">
        <ele>1209.96</ele>
        <time>2016-07-01T08:04:55Z</time>
      </trkpt>
      <trkpt lat="42.50307" lon="2.17541">
        <ele>1209.96</ele>
        <time>2016-07-01T08:04:56Z</time>
      </trkpt>
      <trkpt lat="42.50308" lon="2.17542">
        <ele>1209.48</ele>
        <time>2016-07-01T08:04:57Z</time>
      </trkpt>
      <trkpt lat="42.50309" lon="2.17545">
        <ele>1209.48</ele>
        <time>2016-07-01T08:04:59Z</time>
      </trkpt>
      <trkpt lat="42.50309" lon="2.17547">
        <ele>1209.48</ele>
        <time>2016-07-01T08:05:00Z</time>
      </trkpt>
      <trkpt lat="42.50309" lon="2.17549">
        <ele>1209.48</ele>
        <time>2016-07-01T08:05:01Z</time>
      </trkpt>
      <trkpt lat="42.5031" lon="2.17551">
        <ele>1209</ele>
        <time>2016-07-01T08:05:02Z</time>
      </trkpt>
      <trkpt lat="42.50309" lon="2.17554">
        <ele>1209</ele>
        <time>2016-07-01T08:05:03Z</time>
      </trkpt>
      <trkpt lat="42.50309" lon="2.17556">
        <ele>1209</ele>
        <time>2016-07-01T08:05:04Z</time>
      </trkpt>
      <trkpt lat="42.5031" lon="2.17558">
        <ele>1209</ele>
        <time>2016-07-01T08:05:05Z</time>
      </trkpt>
      <trkpt lat="42.5031" lon="2.1756">
        <ele>1209</ele>
        <time>2016-07-01T08:05:06Z</time>
      </trkpt>
      <trkpt lat="42.5031" lon="2.17562">
        <ele>1208.51</ele>
        <time>2016-07-01T08:05:07Z</time>
      </trkpt>
      <trkpt lat="42.5031" lon="2.17564">
        <ele>1208.51</ele>
        <time>2016-07-01T08:05:08Z</time>
      </trkpt>
      <trkpt lat="42.50311" lon="2.17567">
        <ele>1208.51</ele>
        <time>2016-07-01T08:05:10Z</time>
      </trkpt>
      <trkpt lat="42.50311" lon="2.17569">
        <ele>1208.51</ele>
        <time>2016-07-01T08:05:11Z</time>
      </trkpt>
      <trkpt lat="42.50311" lon="2.17571">
        <ele>1207.55</ele>
        <time>2016-07-01T08:05:12Z</time>
      </trkpt>
      <trkpt lat="42.50312" lon="2.17573">
        <ele>1207.55</ele>
        <time>2016-07-01T08:05:13Z</time>
      </trkpt>
      <trkpt lat="42.50313" lon="2.17575">
        <ele>1207.55</ele>
        <time>2016-07-01T08:05:14Z</time>
      </trkpt>
      <trkpt lat="42.50313" lon="2.17577">
        <ele>1207.55</ele>
        <time>2016-07-01T08:05:15Z</time>
      </trkpt>
      <trkpt lat="42.50314" lon="2.17579">
        <ele>1207.07</ele>
        <time>2016-07-01T08:05:16Z</time>
      </trkpt>
      <trkpt lat="42.50315" lon="2.17582">
        <ele>1207.07</ele>
        <time>2016-07-01T08:05:18Z</time>
      </trkpt>
      <trkpt lat="42.50315" lon="2.17584">
        <ele>1207.07</ele>
        <time>2016-07-01T08:05:19Z</time>
      </trkpt>
      <trkpt lat="42.50316" lon="2.17586">
        <ele>1206.59</ele>
        <time>2016-07-01T08:05:20Z</time>
      </trkpt>
      <trkpt lat="42.50317" lon="2.17588">
        <ele>1206.59</ele>
        <time>2016-07-01T08:05:21Z</time>
      </trkpt>
      <trkpt lat="42.50317" lon="2.17589">
        <ele>1206.59</ele>
        <time>2016-07-01T08:05:22Z</time>
      </trkpt>
      <trkpt lat="42.50318" lon="2.17591">
        <ele>1206.59</ele>
        <time>2016-07-01T08:05:23Z</time>
      </trkpt>
      <trkpt lat="42.50318" lon="2.17593">
        <ele>1206.11</ele>
        <time>2016-07-01T08:05:24Z</time>
      </trkpt>
      <trkpt lat="42.50319" lon="2.17594">
        <ele>1206.11</ele>
        <time>2016-07-01T08:05:25Z</time>
      </trkpt>
      <trkpt lat="42.5032" lon="2.17595">
        <ele>1206.11</ele>
        <time>2016-07-01T08:05:26Z</time>
      </trkpt>
      <trkpt lat="42.50322" lon="2.17596">
        <ele>1206.11</ele>
        <time>2016-07-01T08:05:27Z</time>
      </trkpt>
      <trkpt lat="42.50322" lon="2.17597">
        <ele>1205.63</ele>
        <time>2016-07-01T08:05:28Z</time>
      </trkpt>
      <trkpt lat="42.50323" lon="2.17599">
        <ele>1205.63</ele>
        <time>2016-07-01T08:05:29Z</time>
      </trkpt>
      <trkpt lat="42.50323" lon="2.176">
        <ele>1205.63</ele>
        <time>2016-07-01T08:05:30Z</time>
      </trkpt>
      <trkpt lat="42.50323" lon="2.17603">
        <ele>1205.63</ele>
        <time>2016-07-01T08:05:31Z</time>
      </trkpt>
      <trkpt lat="42.50322" lon="2.17605">
        <ele>1205.15</ele>
        <time>2016-07-01T08:05:32Z</time>
      </trkpt>
      <trkpt lat="42.50322" lon="2.17607">
        <ele>1205.15</ele>
        <time>2016-07-01T08:05:33Z</time>
      </trkpt>
      <trkpt lat="42.50323" lon="2.17609">
        <ele>1205.15</ele>
        <time>2016-07-01T08:05:34Z</time>
      </trkpt>
      <trkpt lat="42.50324" lon="2.17614">
        <ele>1204.67</ele>
        <time>2016-07-01T08:05:37Z</time>
      </trkpt>
      <trkpt lat="42.50325" lon="2.17615">
        <ele>1204.67</ele>
        <time>2016-07-01T08:05:38Z</time>
      </trkpt>
      <trkpt lat="42.50326" lon="2.17616">
        <ele>1204.67</ele>
        <time>2016-07-01T08:05:39Z</time>
      </trkpt>
      <trkpt lat="42.50329" lon="2.17619">
        <ele>1204.19</ele>
        <time>2016-07-01T08:05:41Z</time>
      </trkpt>
      <trkpt lat="42.5033" lon="2.1762">
        <ele>1204.19</ele>
        <time>2016-07-01T08:05:42Z</time>
      </trkpt>
      <trkpt lat="42.50332" lon="2.17621">
        <ele>1204.19</ele>
        <time>2016-07-01T08:05:43Z</time>
      </trkpt>
      <trkpt lat="42.50333" lon="2.17622">
        <ele>1203.23</ele>
        <time>2016-07-01T08:05:44Z</time>
      </trkpt>
      <trkpt lat="42.50335" lon="2.17623">
        <ele>1203.71</ele>
        <time>2016-07-01T08:05:45Z</time>
      </trkpt>
      <trkpt lat="42.50338" lon="2.17628">
        <ele>1202.75</ele>
        <time>2016-07-01T08:05:49Z</time>
      </trkpt>
      <trkpt lat="42.50339" lon="2.17629">
        <ele>1202.75</ele>
        <time>2016-07-01T08:05:50Z</time>
      </trkpt>
      <trkpt lat="42.5034" lon="2.17631">
        <ele>1202.75</ele>
        <time>2016-07-01T08:05:51Z</time>
      </trkpt>
      <trkpt lat="42.50341" lon="2.17632">
        <ele>1202.27</ele>
        <time>2016-07-01T08:05:52Z</time>
      </trkpt>
      <trkpt lat="42.50342" lon="2.17634">
        <ele>1202.27</ele>
        <time>2016-07-01T08:05:53Z</time>
      </trkpt>
      <trkpt lat="42.50344" lon="2.17635">
        <ele>1202.27</ele>
        <time>2016-07-01T08:05:54Z</time>
      </trkpt>
      <trkpt lat="42.50345" lon="2.17636">
        <ele>1202.27</ele>
        <time>2016-07-01T08:05:55Z</time>
      </trkpt>
      <trkpt lat="42.50346" lon="2.17637">
        <ele>1201.79</ele>
        <time>2016-07-01T08:05:56Z</time>
      </trkpt>
      <trkpt lat="42.50347" lon="2.17639">
        <ele>1201.79</ele>
        <time>2016-07-01T08:05:57Z</time>
      </trkpt>
      <trkpt lat="42.50348" lon="2.1764">
        <ele>1201.79</ele>
        <time>2016-07-01T08:05:58Z</time>
      </trkpt>
      <trkpt lat="42.5035" lon="2.17641">
        <ele>1201.79</ele>
        <time>2016-07-01T08:05:59Z</time>
      </trkpt>
      <trkpt lat="42.50351" lon="2.17642">
        <ele>1201.3</ele>
        <time>2016-07-01T08:06:00Z</time>
      </trkpt>
      <trkpt lat="42.50356" lon="2.17646">
        <ele>1200.82</ele>
        <time>2016-07-01T08:06:04Z</time>
      </trkpt>
      <trkpt lat="42.50357" lon="2.17647">
        <ele>1200.82</ele>
        <time>2016-07-01T08:06:05Z</time>
      </trkpt>
      <trkpt lat="42.50372" lon="2.17658">
        <ele>1198.9</ele>
        <time>2016-07-01T08:06:17Z</time>
      </trkpt>
      <trkpt lat="42.50386" lon="2.17662">
        <ele>1197.46</ele>
        <time>2016-07-01T08:06:29Z</time>
      </trkpt>
      <trkpt lat="42.50397" lon="2.17668">
        <ele>1196.02</ele>
        <time>2016-07-01T08:06:38Z</time>
      </trkpt>
      <trkpt lat="42.50399" lon="2.17668">
        <ele>1196.02</ele>
        <time>2016-07-01T08:06:39Z</time>
      </trkpt>
      <trkpt lat="42.50403" lon="2.17669">
        <ele>1195.54</ele>
        <time>2016-07-01T08:06:43Z</time>
      </trkpt>
      <trkpt lat="42.50404" lon="2.1767">
        <ele>1195.54</ele>
        <time>2016-07-01T08:06:44Z</time>
      </trkpt>
      <trkpt lat="42.50405" lon="2.17671">
        <ele>1195.54</ele>
        <time>2016-07-01T08:06:45Z</time>
      </trkpt>
      <trkpt lat="42.50407" lon="2.17672">
        <ele>1195.54</ele>
        <time>2016-07-01T08:06:46Z</time>
      </trkpt>
      <trkpt lat="42.50413" lon="2.17675">
        <ele>1194.58</ele>
        <time>2016-07-01T08:06:56Z</time>
      </trkpt>
      <trkpt lat="42.50417" lon="2.17678">
        <ele>1194.58</ele>
        <time>2016-07-01T08:06:59Z</time>
      </trkpt>
      <trkpt lat="42.5042" lon="2.17684">
        <ele>1193.61</ele>
        <time>2016-07-01T08:07:03Z</time>
      </trkpt>
      <trkpt lat="42.5042" lon="2.17685">
        <ele>1193.61</ele>
        <time>2016-07-01T08:07:04Z</time>
      </trkpt>
      <trkpt lat="42.50421" lon="2.17686">
        <ele>1193.61</ele>
        <time>2016-07-01T08:07:05Z</time>
      </trkpt>
      <trkpt lat="42.50422" lon="2.17687">
        <ele>1193.61</ele>
        <time>2016-07-01T08:07:06Z</time>
      </trkpt>
      <trkpt lat="42.50423" lon="2.17689">
        <ele>1193.61</ele>
        <time>2016-07-01T08:07:07Z</time>
      </trkpt>
      <trkpt lat="42.50424" lon="2.1769">
        <ele>1193.61</ele>
        <time>2016-07-01T08:07:08Z</time>
      </trkpt>
      <trkpt lat="42.50425" lon="2.17691">
        <ele>1193.61</ele>
        <time>2016-07-01T08:07:09Z</time>
      </trkpt>
      <trkpt lat="42.50426" lon="2.17693">
        <ele>1193.61</ele>
        <time>2016-07-01T08:07:10Z</time>
      </trkpt>
      <trkpt lat="42.50428" lon="2.17694">
        <ele>1193.13</ele>
        <time>2016-07-01T08:07:11Z</time>
      </trkpt>
      <trkpt lat="42.50429" lon="2.17695">
        <ele>1193.13</ele>
        <time>2016-07-01T08:07:12Z</time>
      </trkpt>
      <trkpt lat="42.5043" lon="2.17697">
        <ele>1193.13</ele>
        <time>2016-07-01T08:07:13Z</time>
      </trkpt>
      <trkpt lat="42.5043" lon="2.17698">
        <ele>1193.13</ele>
        <time>2016-07-01T08:07:14Z</time>
      </trkpt>
      <trkpt lat="42.50431" lon="2.177">
        <ele>1192.65</ele>
        <time>2016-07-01T08:07:15Z</time>
      </trkpt>
      <trkpt lat="42.50432" lon="2.17701">
        <ele>1192.65</ele>
        <time>2016-07-01T08:07:16Z</time>
      </trkpt>
      <trkpt lat="42.50433" lon="2.17702">
        <ele>1192.65</ele>
        <time>2016-07-01T08:07:17Z</time>
      </trkpt>
      <trkpt lat="42.50434" lon="2.17703">
        <ele>1192.65</ele>
        <time>2016-07-01T08:07:18Z</time>
      </trkpt>
      <trkpt lat="42.50435" lon="2.17704">
        <ele>1192.65</ele>
        <time>2016-07-01T08:07:19Z</time>
      </trkpt>
      <trkpt lat="42.50436" lon="2.17705">
        <ele>1192.17</ele>
        <time>2016-07-01T08:07:20Z</time>
      </trkpt>
      <trkpt lat="42.50437" lon="2.17707">
        <ele>1192.17</ele>
        <time>2016-07-01T08:07:21Z</time>
      </trkpt>
      <trkpt lat="42.50439" lon="2.1771">
        <ele>1192.17</ele>
        <time>2016-07-01T08:07:23Z</time>
      </trkpt>
      <trkpt lat="42.5044" lon="2.17711">
        <ele>1192.17</ele>
        <time>2016-07-01T08:07:24Z</time>
      </trkpt>
      <trkpt lat="42.50441" lon="2.17711">
        <ele>1191.69</ele>
        <time>2016-07-01T08:07:25Z</time>
      </trkpt>
      <trkpt lat="42.50442" lon="2.17712">
        <ele>1191.69</ele>
        <time>2016-07-01T08:07:26Z</time>
      </trkpt>
      <trkpt lat="42.50444" lon="2.17713">
        <ele>1191.69</ele>
        <time>2016-07-01T08:07:27Z</time>
      </trkpt>
      <trkpt lat="42.50445" lon="2.17714">
        <ele>1191.69</ele>
        <time>2016-07-01T08:07:28Z</time>
      </trkpt>
      <trkpt lat="42.50446" lon="2.17715">
        <ele>1191.69</ele>
        <time>2016-07-01T08:07:29Z</time>
      </trkpt>
      <trkpt lat="42.50454" lon="2.17723">
        <ele>1190.25</ele>
        <time>2016-07-01T08:07:36Z</time>
      </trkpt>
      <trkpt lat="42.50455" lon="2.17724">
        <ele>1190.25</ele>
        <time>2016-07-01T08:07:37Z</time>
      </trkpt>
      <trkpt lat="42.50456" lon="2.17725">
        <ele>1190.25</ele>
        <time>2016-07-01T08:07:38Z</time>
      </trkpt>
      <trkpt lat="42.50457" lon="2.17726">
        <ele>1189.77</ele>
        <time>2016-07-01T08:07:39Z</time>
      </trkpt>
      <trkpt lat="42.50459" lon="2.17727">
        <ele>1189.77</ele>
        <time>2016-07-01T08:07:40Z</time>
      </trkpt>
      <trkpt lat="42.5046" lon="2.17728">
        <ele>1189.77</ele>
        <time>2016-07-01T08:07:41Z</time>
      </trkpt>
      <trkpt lat="42.50461" lon="2.17729">
        <ele>1189.77</ele>
        <time>2016-07-01T08:07:42Z</time>
      </trkpt>
      <trkpt lat="42.50463" lon="2.17731">
        <ele>1189.29</ele>
        <time>2016-07-01T08:07:43Z</time>
      </trkpt>
      <trkpt lat="42.50464" lon="2.17732">
        <ele>1189.29</ele>
        <time>2016-07-01T08:07:44Z</time>
      </trkpt>
      <trkpt lat="42.50465" lon="2.17733">
        <ele>1189.29</ele>
        <time>2016-07-01T08:07:45Z</time>
      </trkpt>
      <trkpt lat="42.50465" lon="2.17735">
        <ele>1189.29</ele>
        <time>2016-07-01T08:07:46Z</time>
      </trkpt>
      <trkpt lat="42.50466" lon="2.17736">
        <ele>1188.81</ele>
        <time>2016-07-01T08:07:47Z</time>
      </trkpt>
      <trkpt lat="42.50467" lon="2.17738">
        <ele>1188.81</ele>
        <time>2016-07-01T08:07:48Z</time>
      </trkpt>
      <trkpt lat="42.50468" lon="2.17739">
        <ele>1188.81</ele>
        <time>2016-07-01T08:07:49Z</time>
      </trkpt>
      <trkpt lat="42.50469" lon="2.1774">
        <ele>1188.81</ele>
        <time>2016-07-01T08:07:50Z</time>
      </trkpt>
      <trkpt lat="42.5047" lon="2.17741">
        <ele>1187.85</ele>
        <time>2016-07-01T08:07:51Z</time>
      </trkpt>
      <trkpt lat="42.50472" lon="2.17742">
        <ele>1187.85</ele>
        <time>2016-07-01T08:07:52Z</time>
      </trkpt>
      <trkpt lat="42.50473" lon="2.17744">
        <ele>1187.85</ele>
        <time>2016-07-01T08:07:53Z</time>
      </trkpt>
      <trkpt lat="42.50474" lon="2.17745">
        <ele>1187.37</ele>
        <time>2016-07-01T08:07:54Z</time>
      </trkpt>
      <trkpt lat="42.50475" lon="2.17747">
        <ele>1187.37</ele>
        <time>2016-07-01T08:07:55Z</time>
      </trkpt>
      <trkpt lat="42.50476" lon="2.17748">
        <ele>1187.37</ele>
        <time>2016-07-01T08:07:56Z</time>
      </trkpt>
      <trkpt lat="42.50478" lon="2.1775">
        <ele>1186.88</ele>
        <time>2016-07-01T08:07:58Z</time>
      </trkpt>
      <trkpt lat="42.50479" lon="2.17751">
        <ele>1186.88</ele>
        <time>2016-07-01T08:07:59Z</time>
      </trkpt>
      <trkpt lat="42.5048" lon="2.17753">
        <ele>1186.4</ele>
        <time>2016-07-01T08:08:00Z</time>
      </trkpt>
      <trkpt lat="42.50487" lon="2.17761">
        <ele>1185.92</ele>
        <time>2016-07-01T08:08:06Z</time>
      </trkpt>
      <trkpt lat="42.50488" lon="2.17763">
        <ele>1185.44</ele>
        <time>2016-07-01T08:08:07Z</time>
      </trkpt>
      <trkpt lat="42.50489" lon="2.17763">
        <ele>1185.44</ele>
        <time>2016-07-01T08:08:08Z</time>
      </trkpt>
      <trkpt lat="42.5049" lon="2.17764">
        <ele>1185.44</ele>
        <time>2016-07-01T08:08:09Z</time>
      </trkpt>
      <trkpt lat="42.50491" lon="2.17765">
        <ele>1185.44</ele>
        <time>2016-07-01T08:08:10Z</time>
      </trkpt>
      <trkpt lat="42.50508" lon="2.17774">
        <ele>1183.04</ele>
        <time>2016-07-01T08:08:22Z</time>
      </trkpt>
      <trkpt lat="42.50513" lon="2.17779">
        <ele>1181.6</ele>
        <time>2016-07-01T08:08:27Z</time>
      </trkpt>
      <trkpt lat="42.50514" lon="2.1778">
        <ele>1181.6</ele>
        <time>2016-07-01T08:08:28Z</time>
      </trkpt>
      <trkpt lat="42.50526" lon="2.17789">
        <ele>1180.16</ele>
        <time>2016-07-01T08:08:39Z</time>
      </trkpt>
      <trkpt lat="42.50528" lon="2.17789">
        <ele>1180.16</ele>
        <time>2016-07-01T08:08:40Z</time>
      </trkpt>
      <trkpt lat="42.50529" lon="2.1779">
        <ele>1179.67</ele>
        <time>2016-07-01T08:08:41Z</time>
      </trkpt>
      <trkpt lat="42.5053" lon="2.17791">
        <ele>1179.67</ele>
        <time>2016-07-01T08:08:42Z</time>
      </trkpt>
      <trkpt lat="42.50532" lon="2.17792">
        <ele>1179.67</ele>
        <time>2016-07-01T08:08:43Z</time>
      </trkpt>
      <trkpt lat="42.50533" lon="2.17792">
        <ele>1179.67</ele>
        <time>2016-07-01T08:08:44Z</time>
      </trkpt>
      <trkpt lat="42.50534" lon="2.17793">
        <ele>1179.19</ele>
        <time>2016-07-01T08:08:45Z</time>
      </trkpt>
      <trkpt lat="42.50535" lon="2.17794">
        <ele>1179.19</ele>
        <time>2016-07-01T08:08:46Z</time>
      </trkpt>
      <trkpt lat="42.50536" lon="2.17794">
        <ele>1179.19</ele>
        <time>2016-07-01T08:08:47Z</time>
      </trkpt>
      <trkpt lat="42.50538" lon="2.17795">
        <ele>1179.19</ele>
        <time>2016-07-01T08:08:48Z</time>
      </trkpt>
      <trkpt lat="42.50539" lon="2.17796">
        <ele>1178.23</ele>
        <time>2016-07-01T08:08:49Z</time>
      </trkpt>
      <trkpt lat="42.5054" lon="2.17797">
        <ele>1178.23</ele>
        <time>2016-07-01T08:08:50Z</time>
      </trkpt>
      <trkpt lat="42.50542" lon="2.17799">
        <ele>1178.23</ele>
        <time>2016-07-01T08:08:52Z</time>
      </trkpt>
      <trkpt lat="42.50543" lon="2.17799">
        <ele>1178.23</ele>
        <time>2016-07-01T08:08:53Z</time>
      </trkpt>
      <trkpt lat="42.50544" lon="2.178">
        <ele>1177.75</ele>
        <time>2016-07-01T08:08:54Z</time>
      </trkpt>
      <trkpt lat="42.50552" lon="2.17801">
        <ele>1177.27</ele>
        <time>2016-07-01T08:08:59Z</time>
      </trkpt>
      <trkpt lat="42.50553" lon="2.17802">
        <ele>1177.27</ele>
        <time>2016-07-01T08:09:00Z</time>
      </trkpt>
      <trkpt lat="42.50554" lon="2.17802">
        <ele>1176.79</ele>
        <time>2016-07-01T08:09:01Z</time>
      </trkpt>
      <trkpt lat="42.50555" lon="2.17803">
        <ele>1176.79</ele>
        <time>2016-07-01T08:09:02Z</time>
      </trkpt>
      <trkpt lat="42.50557" lon="2.17803">
        <ele>1176.79</ele>
        <time>2016-07-01T08:09:03Z</time>
      </trkpt>
      <trkpt lat="42.50558" lon="2.17803">
        <ele>1176.79</ele>
        <time>2016-07-01T08:09:04Z</time>
      </trkpt>
      <trkpt lat="42.50559" lon="2.17804">
        <ele>1175.83</ele>
        <time>2016-07-01T08:09:05Z</time>
      </trkpt>
      <trkpt lat="42.50561" lon="2.17804">
        <ele>1175.83</ele>
        <time>2016-07-01T08:09:06Z</time>
      </trkpt>
      <trkpt lat="42.50562" lon="2.17803">
        <ele>1175.83</ele>
        <time>2016-07-01T08:09:07Z</time>
      </trkpt>
      <trkpt lat="42.50567" lon="2.17803">
        <ele>1175.35</ele>
        <time>2016-07-01T08:09:11Z</time>
      </trkpt>
      <trkpt lat="42.50569" lon="2.17804">
        <ele>1174.87</ele>
        <time>2016-07-01T08:09:12Z</time>
      </trkpt>
      <trkpt lat="42.5057" lon="2.17804">
        <ele>1174.87</ele>
        <time>2016-07-01T08:09:13Z</time>
      </trkpt>
      <trkpt lat="42.50571" lon="2.17804">
        <ele>1174.87</ele>
        <time>2016-07-01T08:09:14Z</time>
      </trkpt>
      <trkpt lat="42.50573" lon="2.17804">
        <ele>1174.87</ele>
        <time>2016-07-01T08:09:15Z</time>
      </trkpt>
      <trkpt lat="42.50574" lon="2.17804">
        <ele>1174.39</ele>
        <time>2016-07-01T08:09:16Z</time>
      </trkpt>
      <trkpt lat="42.50591" lon="2.17802">
        <ele>1171.98</ele>
        <time>2016-07-01T08:09:30Z</time>
      </trkpt>
      <trkpt lat="42.50614" lon="2.1781">
        <ele>1169.58</ele>
        <time>2016-07-01T08:09:47Z</time>
      </trkpt>
      <trkpt lat="42.50615" lon="2.1781">
        <ele>1169.58</ele>
        <time>2016-07-01T08:09:48Z</time>
      </trkpt>
      <trkpt lat="42.50617" lon="2.17811">
        <ele>1169.58</ele>
        <time>2016-07-01T08:09:49Z</time>
      </trkpt>
      <trkpt lat="42.50618" lon="2.17811">
        <ele>1169.1</ele>
        <time>2016-07-01T08:09:50Z</time>
      </trkpt>
      <trkpt lat="42.50619" lon="2.17812">
        <ele>1169.1</ele>
        <time>2016-07-01T08:09:51Z</time>
      </trkpt>
      <trkpt lat="42.50631" lon="2.17818">
        <ele>1168.14</ele>
        <time>2016-07-01T08:10:00Z</time>
      </trkpt>
      <trkpt lat="42.50632" lon="2.17818">
        <ele>1167.66</ele>
        <time>2016-07-01T08:10:01Z</time>
      </trkpt>
      <trkpt lat="42.50633" lon="2.17817">
        <ele>1167.18</ele>
        <time>2016-07-01T08:10:02Z</time>
      </trkpt>
      <trkpt lat="42.50634" lon="2.17815">
        <ele>1167.18</ele>
        <time>2016-07-01T08:10:03Z</time>
      </trkpt>
      <trkpt lat="42.50626" lon="2.17802">
        <ele>1165.74</ele>
        <time>2016-07-01T08:10:14Z</time>
      </trkpt>
      <trkpt lat="42.50622" lon="2.17799">
        <ele>1165.74</ele>
        <time>2016-07-01T08:10:17Z</time>
      </trkpt>
      <trkpt lat="42.50598" lon="2.17791">
        <ele>1163.81</ele>
        <time>2016-07-01T08:10:34Z</time>
      </trkpt>
      <trkpt lat="42.5058" lon="2.17782">
        <ele>1162.85</ele>
        <time>2016-07-01T08:10:48Z</time>
      </trkpt>
      <trkpt lat="42.50577" lon="2.17782">
        <ele>1162.37</ele>
        <time>2016-07-01T08:10:50Z</time>
      </trkpt>
      <trkpt lat="42.50572" lon="2.1778">
        <ele>1162.37</ele>
        <time>2016-07-01T08:10:54Z</time>
      </trkpt>
      <trkpt lat="42.50561" lon="2.17775">
        <ele>1161.41</ele>
        <time>2016-07-01T08:11:02Z</time>
      </trkpt>
      <trkpt lat="42.50554" lon="2.17771">
        <ele>1160.45</ele>
        <time>2016-07-01T08:11:08Z</time>
      </trkpt>
      <trkpt lat="42.50545" lon="2.17763">
        <ele>1159.97</ele>
        <time>2016-07-01T08:11:15Z</time>
      </trkpt>
      <trkpt lat="42.50532" lon="2.17748">
        <ele>1158.53</ele>
        <time>2016-07-01T08:11:27Z</time>
      </trkpt>
      <trkpt lat="42.50521" lon="2.17738">
        <ele>1157.08</ele>
        <time>2016-07-01T08:11:36Z</time>
      </trkpt>
      <trkpt lat="42.50516" lon="2.17731">
        <ele>1156.6</ele>
        <time>2016-07-01T08:11:41Z</time>
      </trkpt>
      <trkpt lat="42.50513" lon="2.17725">
        <ele>1155.64</ele>
        <time>2016-07-01T08:11:44Z</time>
      </trkpt>
      <trkpt lat="42.50509" lon="2.17715">
        <ele>1155.16</ele>
        <time>2016-07-01T08:11:50Z</time>
      </trkpt>
      <trkpt lat="42.50499" lon="2.17693">
        <ele>1153.24</ele>
        <time>2016-07-01T08:12:03Z</time>
      </trkpt>
      <trkpt lat="42.50494" lon="2.17675">
        <ele>1151.32</ele>
        <time>2016-07-01T08:12:13Z</time>
      </trkpt>
      <trkpt lat="42.50493" lon="2.17672">
        <ele>1151.32</ele>
        <time>2016-07-01T08:12:15Z</time>
      </trkpt>
      <trkpt lat="42.50491" lon="2.17667">
        <ele>1150.84</ele>
        <time>2016-07-01T08:12:18Z</time>
      </trkpt>
      <trkpt lat="42.50487" lon="2.17657">
        <ele>1150.35</ele>
        <time>2016-07-01T08:12:24Z</time>
      </trkpt>
      <trkpt lat="42.50477" lon="2.17635">
        <ele>1147.95</ele>
        <time>2016-07-01T08:12:37Z</time>
      </trkpt>
      <trkpt lat="42.50475" lon="2.17631">
        <ele>1147.95</ele>
        <time>2016-07-01T08:12:40Z</time>
      </trkpt>
      <trkpt lat="42.50472" lon="2.17626">
        <ele>1147.47</ele>
        <time>2016-07-01T08:12:43Z</time>
      </trkpt>
      <trkpt lat="42.50463" lon="2.17612">
        <ele>1145.55</ele>
        <time>2016-07-01T08:12:53Z</time>
      </trkpt>
      <trkpt lat="42.50452" lon="2.176">
        <ele>1144.11</ele>
        <time>2016-07-01T08:13:03Z</time>
      </trkpt>
      <trkpt lat="42.50448" lon="2.17595">
        <ele>1143.14</ele>
        <time>2016-07-01T08:13:07Z</time>
      </trkpt>
      <trkpt lat="42.50446" lon="2.17593">
        <ele>1142.66</ele>
        <time>2016-07-01T08:13:09Z</time>
      </trkpt>
      <trkpt lat="42.50437" lon="2.17586">
        <ele>1141.22</ele>
        <time>2016-07-01T08:13:16Z</time>
      </trkpt>
      <trkpt lat="42.50428" lon="2.17568">
        <ele>1139.78</ele>
        <time>2016-07-01T08:13:27Z</time>
      </trkpt>
      <trkpt lat="42.50427" lon="2.17565">
        <ele>1139.78</ele>
        <time>2016-07-01T08:13:29Z</time>
      </trkpt>
      <trkpt lat="42.50427" lon="2.17554">
        <ele>1138.34</ele>
        <time>2016-07-01T08:13:35Z</time>
      </trkpt>
      <trkpt lat="42.50426" lon="2.17539">
        <ele>1137.38</ele>
        <time>2016-07-01T08:13:44Z</time>
      </trkpt>
      <trkpt lat="42.50428" lon="2.1753">
        <ele>1136.9</ele>
        <time>2016-07-01T08:13:49Z</time>
      </trkpt>
      <trkpt lat="42.50429" lon="2.17529">
        <ele>1136.9</ele>
        <time>2016-07-01T08:13:50Z</time>
      </trkpt>
      <trkpt lat="42.50432" lon="2.1752">
        <ele>1136.42</ele>
        <time>2016-07-01T08:13:54Z</time>
      </trkpt>
      <trkpt lat="42.50432" lon="2.17518">
        <ele>1136.42</ele>
        <time>2016-07-01T08:13:55Z</time>
      </trkpt>
      <trkpt lat="42.50433" lon="2.17516">
        <ele>1135.94</ele>
        <time>2016-07-01T08:13:56Z</time>
      </trkpt>
      <trkpt lat="42.50433" lon="2.17515">
        <ele>1135.94</ele>
        <time>2016-07-01T08:13:57Z</time>
      </trkpt>
      <trkpt lat="42.50434" lon="2.17513">
        <ele>1135.94</ele>
        <time>2016-07-01T08:13:58Z</time>
      </trkpt>
      <trkpt lat="42.50434" lon="2.17512">
        <ele>1135.94</ele>
        <time>2016-07-01T08:13:59Z</time>
      </trkpt>
      <trkpt lat="42.50435" lon="2.1751">
        <ele>1135.45</ele>
        <time>2016-07-01T08:14:00Z</time>
      </trkpt>
      <trkpt lat="42.50436" lon="2.17508">
        <ele>1135.45</ele>
        <time>2016-07-01T08:14:01Z</time>
      </trkpt>
      <trkpt lat="42.50438" lon="2.17506">
        <ele>1135.45</ele>
        <time>2016-07-01T08:14:02Z</time>
      </trkpt>
      <trkpt lat="42.50439" lon="2.17504">
        <ele>1135.45</ele>
        <time>2016-07-01T08:14:03Z</time>
      </trkpt>
      <trkpt lat="42.5044" lon="2.17502">
        <ele>1134.49</ele>
        <time>2016-07-01T08:14:04Z</time>
      </trkpt>
      <trkpt lat="42.50442" lon="2.17496">
        <ele>1134.49</ele>
        <time>2016-07-01T08:14:07Z</time>
      </trkpt>
      <trkpt lat="42.50443" lon="2.17494">
        <ele>1134.01</ele>
        <time>2016-07-01T08:14:08Z</time>
      </trkpt>
      <trkpt lat="42.50443" lon="2.17492">
        <ele>1134.01</ele>
        <time>2016-07-01T08:14:09Z</time>
      </trkpt>
      <trkpt lat="42.50443" lon="2.1749">
        <ele>1134.01</ele>
        <time>2016-07-01T08:14:10Z</time>
      </trkpt>
      <trkpt lat="42.50443" lon="2.17488">
        <ele>1134.01</ele>
        <time>2016-07-01T08:14:11Z</time>
      </trkpt>
      <trkpt lat="42.50443" lon="2.17486">
        <ele>1133.53</ele>
        <time>2016-07-01T08:14:12Z</time>
      </trkpt>
      <trkpt lat="42.50443" lon="2.17485">
        <ele>1133.53</ele>
        <time>2016-07-01T08:14:13Z</time>
      </trkpt>
      <trkpt lat="42.50443" lon="2.17482">
        <ele>1133.53</ele>
        <time>2016-07-01T08:14:14Z</time>
      </trkpt>
      <trkpt lat="42.50441" lon="2.17473">
        <ele>1133.05</ele>
        <time>2016-07-01T08:14:19Z</time>
      </trkpt>
      <trkpt lat="42.50441" lon="2.17471">
        <ele>1132.09</ele>
        <time>2016-07-01T08:14:20Z</time>
      </trkpt>
      <trkpt lat="42.50441" lon="2.1747">
        <ele>1132.09</ele>
        <time>2016-07-01T08:14:21Z</time>
      </trkpt>
      <trkpt lat="42.50441" lon="2.17468">
        <ele>1132.09</ele>
        <time>2016-07-01T08:14:22Z</time>
      </trkpt>
      <trkpt lat="42.5044" lon="2.17466">
        <ele>1131.61</ele>
        <time>2016-07-01T08:14:23Z</time>
      </trkpt>
      <trkpt lat="42.5044" lon="2.17464">
        <ele>1131.61</ele>
        <time>2016-07-01T08:14:24Z</time>
      </trkpt>
      <trkpt lat="42.5044" lon="2.17462">
        <ele>1131.61</ele>
        <time>2016-07-01T08:14:25Z</time>
      </trkpt>
      <trkpt lat="42.50439" lon="2.1746">
        <ele>1131.61</ele>
        <time>2016-07-01T08:14:26Z</time>
      </trkpt>
      <trkpt lat="42.50439" lon="2.17458">
        <ele>1131.13</ele>
        <time>2016-07-01T08:14:27Z</time>
      </trkpt>
      <trkpt lat="42.50439" lon="2.17456">
        <ele>1131.13</ele>
        <time>2016-07-01T08:14:28Z</time>
      </trkpt>
      <trkpt lat="42.50439" lon="2.17454">
        <ele>1131.13</ele>
        <time>2016-07-01T08:14:29Z</time>
      </trkpt>
      <trkpt lat="42.50439" lon="2.17452">
        <ele>1130.65</ele>
        <time>2016-07-01T08:14:30Z</time>
      </trkpt>
      <trkpt lat="42.50439" lon="2.1745">
        <ele>1130.65</ele>
        <time>2016-07-01T08:14:31Z</time>
      </trkpt>
      <trkpt lat="42.50438" lon="2.17449">
        <ele>1130.65</ele>
        <time>2016-07-01T08:14:32Z</time>
      </trkpt>
      <trkpt lat="42.50437" lon="2.17447">
        <ele>1130.65</ele>
        <time>2016-07-01T08:14:33Z</time>
      </trkpt>
      <trkpt lat="42.50437" lon="2.17445">
        <ele>1130.17</ele>
        <time>2016-07-01T08:14:34Z</time>
      </trkpt>
      <trkpt lat="42.50437" lon="2.17443">
        <ele>1130.17</ele>
        <time>2016-07-01T08:14:35Z</time>
      </trkpt>
      <trkpt lat="42.50436" lon="2.17441">
        <ele>1130.17</ele>
        <time>2016-07-01T08:14:36Z</time>
      </trkpt>
      <trkpt lat="42.5043" lon="2.17422">
        <ele>1128.24</ele>
        <time>2016-07-01T08:14:47Z</time>
      </trkpt>
      <trkpt lat="42.5043" lon="2.1742">
        <ele>1128.24</ele>
        <time>2016-07-01T08:14:48Z</time>
      </trkpt>
      <trkpt lat="42.50429" lon="2.17419">
        <ele>1128.24</ele>
        <time>2016-07-01T08:14:49Z</time>
      </trkpt>
      <trkpt lat="42.50429" lon="2.17417">
        <ele>1127.76</ele>
        <time>2016-07-01T08:14:50Z</time>
      </trkpt>
      <trkpt lat="42.50428" lon="2.17415">
        <ele>1127.76</ele>
        <time>2016-07-01T08:14:51Z</time>
      </trkpt>
      <trkpt lat="42.50428" lon="2.17413">
        <ele>1127.76</ele>
        <time>2016-07-01T08:14:52Z</time>
      </trkpt>
      <trkpt lat="42.50428" lon="2.17412">
        <ele>1127.76</ele>
        <time>2016-07-01T08:14:53Z</time>
      </trkpt>
      <trkpt lat="42.50428" lon="2.1741">
        <ele>1127.76</ele>
        <time>2016-07-01T08:14:54Z</time>
      </trkpt>
      <trkpt lat="42.50428" lon="2.17408">
        <ele>1127.28</ele>
        <time>2016-07-01T08:14:55Z</time>
      </trkpt>
      <trkpt lat="42.50428" lon="2.17405">
        <ele>1127.28</ele>
        <time>2016-07-01T08:14:56Z</time>
      </trkpt>
      <trkpt lat="42.50428" lon="2.17403">
        <ele>1127.28</ele>
        <time>2016-07-01T08:14:57Z</time>
      </trkpt>
      <trkpt lat="42.50428" lon="2.17401">
        <ele>1127.28</ele>
        <time>2016-07-01T08:14:58Z</time>
      </trkpt>
      <trkpt lat="42.50428" lon="2.17399">
        <ele>1126.8</ele>
        <time>2016-07-01T08:14:59Z</time>
      </trkpt>
      <trkpt lat="42.50428" lon="2.17397">
        <ele>1126.8</ele>
        <time>2016-07-01T08:15:00Z</time>
      </trkpt>
      <trkpt lat="42.50428" lon="2.17395">
        <ele>1126.8</ele>
        <time>2016-07-01T08:15:01Z</time>
      </trkpt>
      <trkpt lat="42.50427" lon="2.17393">
        <ele>1126.8</ele>
        <time>2016-07-01T08:15:02Z</time>
      </trkpt>
      <trkpt lat="42.50426" lon="2.17392">
        <ele>1126.8</ele>
        <time>2016-07-01T08:15:03Z</time>
      </trkpt>
      <trkpt lat="42.50426" lon="2.1739">
        <ele>1125.84</ele>
        <time>2016-07-01T08:15:04Z</time>
      </trkpt>
      <trkpt lat="42.50426" lon="2.17389">
        <ele>1126.32</ele>
        <time>2016-07-01T08:15:05Z</time>
      </trkpt>
      <trkpt lat="42.50426" lon="2.17387">
        <ele>1125.84</ele>
        <time>2016-07-01T08:15:06Z</time>
      </trkpt>
      <trkpt lat="42.50426" lon="2.17381">
        <ele>1125.36</ele>
        <time>2016-07-01T08:15:12Z</time>
      </trkpt>
      <trkpt lat="42.50425" lon="2.17382">
        <ele>1124.88</ele>
        <time>2016-07-01T08:15:23Z</time>
      </trkpt>
      <trkpt lat="42.5043" lon="2.17387">
        <ele>1123.92</ele>
        <time>2016-07-01T08:15:30Z</time>
      </trkpt>
      <trkpt lat="42.50431" lon="2.1739">
        <ele>1123.44</ele>
        <time>2016-07-01T08:15:32Z</time>
      </trkpt>
      <trkpt lat="42.50432" lon="2.17392">
        <ele>1123.44</ele>
        <time>2016-07-01T08:15:33Z</time>
      </trkpt>
      <trkpt lat="42.50433" lon="2.17399">
        <ele>1122.48</ele>
        <time>2016-07-01T08:15:37Z</time>
      </trkpt>
      <trkpt lat="42.50432" lon="2.17401">
        <ele>1122</ele>
        <time>2016-07-01T08:15:38Z</time>
      </trkpt>
      <trkpt lat="42.50432" lon="2.17403">
        <ele>1122</ele>
        <time>2016-07-01T08:15:39Z</time>
      </trkpt>
      <trkpt lat="42.50432" lon="2.17405">
        <ele>1122</ele>
        <time>2016-07-01T08:15:40Z</time>
      </trkpt>
      <trkpt lat="42.50432" lon="2.17407">
        <ele>1121.52</ele>
        <time>2016-07-01T08:15:41Z</time>
      </trkpt>
      <trkpt lat="42.50435" lon="2.17414">
        <ele>1120.07</ele>
        <time>2016-07-01T08:15:47Z</time>
      </trkpt>
      <trkpt lat="42.50437" lon="2.17415">
        <ele>1120.55</ele>
        <time>2016-07-01T08:15:48Z</time>
      </trkpt>
      <trkpt lat="42.50443" lon="2.17417">
        <ele>1119.59</ele>
        <time>2016-07-01T08:15:52Z</time>
      </trkpt>
      <trkpt lat="42.50447" lon="2.17421">
        <ele>1118.15</ele>
        <time>2016-07-01T08:15:56Z</time>
      </trkpt>
      <trkpt lat="42.5046" lon="2.17431">
        <ele>1116.23</ele>
        <time>2016-07-01T08:16:07Z</time>
      </trkpt>
      <trkpt lat="42.50474" lon="2.1744">
        <ele>1113.82</ele>
        <time>2016-07-01T08:16:20Z</time>
      </trkpt>
      <trkpt lat="42.50482" lon="2.17453">
        <ele>1111.9</ele>
        <time>2016-07-01T08:16:30Z</time>
      </trkpt>
      <trkpt lat="42.50483" lon="2.17454">
        <ele>1111.42</ele>
        <time>2016-07-01T08:16:31Z</time>
      </trkpt>
      <trkpt lat="42.50487" lon="2.17465">
        <ele>1108.06</ele>
        <time>2016-07-01T08:16:39Z</time>
      </trkpt>
      <trkpt lat="42.50489" lon="2.17468">
        <ele>1106.13</ele>
        <time>2016-07-01T08:16:41Z</time>
      </trkpt>
      <trkpt lat="42.50494" lon="2.17479">
        <ele>1103.73</ele>
        <time>2016-07-01T08:16:50Z</time>
      </trkpt>
      <trkpt lat="42.50495" lon="2.17483">
        <ele>1103.73</ele>
        <time>2016-07-01T08:16:53Z</time>
      </trkpt>
      <trkpt lat="42.50501" lon="2.17494">
        <ele>1102.77</ele>
        <time>2016-07-01T08:17:02Z</time>
      </trkpt>
      <trkpt lat="42.505" lon="2.175">
        <ele>1102.29</ele>
        <time>2016-07-01T08:17:06Z</time>
      </trkpt>
      <trkpt lat="42.50499" lon="2.17505">
        <ele>1102.29</ele>
        <time>2016-07-01T08:17:09Z</time>
      </trkpt>
      <trkpt lat="42.50506" lon="2.17521">
        <ele>1099.89</ele>
        <time>2016-07-01T08:17:23Z</time>
      </trkpt>
      <trkpt lat="42.50508" lon="2.17523">
        <ele>1099.89</ele>
        <time>2016-07-01T08:17:25Z</time>
      </trkpt>
      <trkpt lat="42.50525" lon="2.17532">
        <ele>1097</ele>
        <time>2016-07-01T08:17:38Z</time>
      </trkpt>
      <trkpt lat="42.50536" lon="2.17541">
        <ele>1095.56</ele>
        <time>2016-07-01T08:17:49Z</time>
      </trkpt>
      <trkpt lat="42.50543" lon="2.17547">
        <ele>1094.12</ele>
        <time>2016-07-01T08:17:56Z</time>
      </trkpt>
      <trkpt lat="42.50553" lon="2.17555">
        <ele>1092.68</ele>
        <time>2016-07-01T08:18:07Z</time>
      </trkpt>
      <trkpt lat="42.50559" lon="2.17561">
        <ele>1091.23</ele>
        <time>2016-07-01T08:18:15Z</time>
      </trkpt>
      <trkpt lat="42.50566" lon="2.17569">
        <ele>1090.27</ele>
        <time>2016-07-01T08:18:24Z</time>
      </trkpt>
      <trkpt lat="42.50575" lon="2.17572">
        <ele>1089.79</ele>
        <time>2016-07-01T08:18:32Z</time>
      </trkpt>
      <trkpt lat="42.50579" lon="2.17571">
        <ele>1089.31</ele>
        <time>2016-07-01T08:18:35Z</time>
      </trkpt>
      <trkpt lat="42.50595" lon="2.17566">
        <ele>1087.87</ele>
        <time>2016-07-01T08:18:47Z</time>
      </trkpt>
      <trkpt lat="42.50597" lon="2.17565">
        <ele>1087.87</ele>
        <time>2016-07-01T08:18:49Z</time>
      </trkpt>
      <trkpt lat="42.50609" lon="2.1757">
        <ele>1086.91</ele>
        <time>2016-07-01T08:19:00Z</time>
      </trkpt>
      <trkpt lat="42.50613" lon="2.17575">
        <ele>1085.95</ele>
        <time>2016-07-01T08:19:07Z</time>
      </trkpt>
      <trkpt lat="42.50611" lon="2.17588">
        <ele>1083.54</ele>
        <time>2016-07-01T08:19:19Z</time>
      </trkpt>
      <trkpt lat="42.50611" lon="2.17592">
        <ele>1083.06</ele>
        <time>2016-07-01T08:19:22Z</time>
      </trkpt>
      <trkpt lat="42.50614" lon="2.17598">
        <ele>1081.62</ele>
        <time>2016-07-01T08:19:27Z</time>
      </trkpt>
      <trkpt lat="42.50617" lon="2.176">
        <ele>1081.14</ele>
        <time>2016-07-01T08:19:30Z</time>
      </trkpt>
      <trkpt lat="42.50621" lon="2.17606">
        <ele>1079.7</ele>
        <time>2016-07-01T08:19:37Z</time>
      </trkpt>
      <trkpt lat="42.50629" lon="2.17616">
        <ele>1075.37</ele>
        <time>2016-07-01T08:19:46Z</time>
      </trkpt>
      <trkpt lat="42.50633" lon="2.17627">
        <ele>1072.49</ele>
        <time>2016-07-01T08:19:57Z</time>
      </trkpt>
      <trkpt lat="42.50641" lon="2.17632">
        <ele>1072.01</ele>
        <time>2016-07-01T08:20:06Z</time>
      </trkpt>
      <trkpt lat="42.50641" lon="2.17633">
        <ele>1072.01</ele>
        <time>2016-07-01T08:20:08Z</time>
      </trkpt>
      <trkpt lat="42.50647" lon="2.17638">
        <ele>1069.6</ele>
        <time>2016-07-01T08:20:20Z</time>
      </trkpt>
      <trkpt lat="42.50653" lon="2.17635">
        <ele>1067.68</ele>
        <time>2016-07-01T08:20:29Z</time>
      </trkpt>
      <trkpt lat="42.50659" lon="2.17635">
        <ele>1065.28</ele>
        <time>2016-07-01T08:20:33Z</time>
      </trkpt>
      <trkpt lat="42.50669" lon="2.17632">
        <ele>1060.95</ele>
        <time>2016-07-01T08:20:39Z</time>
      </trkpt>
      <trkpt lat="42.50674" lon="2.17632">
        <ele>1060.47</ele>
        <time>2016-07-01T08:20:44Z</time>
      </trkpt>
      <trkpt lat="42.50686" lon="2.17623">
        <ele>1059.99</ele>
        <time>2016-07-01T08:20:59Z</time>
      </trkpt>
      <trkpt lat="42.50686" lon="2.17622">
        <ele>1059.99</ele>
        <time>2016-07-01T08:21:02Z</time>
      </trkpt>
      <trkpt lat="42.50686" lon="2.17615">
        <ele>1059.99</ele>
        <time>2016-07-01T08:21:12Z</time>
      </trkpt>
      <trkpt lat="42.50693" lon="2.17604">
        <ele>1059.99</ele>
        <time>2016-07-01T08:21:21Z</time>
      </trkpt>
      <trkpt lat="42.50705" lon="2.17591">
        <ele>1059.03</ele>
        <time>2016-07-01T08:21:33Z</time>
      </trkpt>
      <trkpt lat="42.50708" lon="2.17582">
        <ele>1059.03</ele>
        <time>2016-07-01T08:21:39Z</time>
      </trkpt>
      <trkpt lat="42.50721" lon="2.17576">
        <ele>1057.59</ele>
        <time>2016-07-01T08:21:52Z</time>
      </trkpt>
      <trkpt lat="42.5073" lon="2.17574">
        <ele>1057.59</ele>
        <time>2016-07-01T08:21:58Z</time>
      </trkpt>
      <trkpt lat="42.50746" lon="2.17578">
        <ele>1057.11</ele>
        <time>2016-07-01T08:22:09Z</time>
      </trkpt>
      <trkpt lat="42.50758" lon="2.17585">
        <ele>1056.63</ele>
        <time>2016-07-01T08:22:19Z</time>
      </trkpt>
      <trkpt lat="42.50758" lon="2.17587">
        <ele>1056.63</ele>
        <time>2016-07-01T08:22:20Z</time>
      </trkpt>
      <trkpt lat="42.50758" lon="2.17588">
        <ele>1055.67</ele>
        <time>2016-07-01T08:22:21Z</time>
      </trkpt>
      <trkpt lat="42.50758" lon="2.17591">
        <ele>1056.15</ele>
        <time>2016-07-01T08:22:22Z</time>
      </trkpt>
      <trkpt lat="42.5076" lon="2.17592">
        <ele>1056.15</ele>
        <time>2016-07-01T08:22:23Z</time>
      </trkpt>
      <trkpt lat="42.50763" lon="2.17593">
        <ele>1056.15</ele>
        <time>2016-07-01T08:22:24Z</time>
      </trkpt>
      <trkpt lat="42.50764" lon="2.17594">
        <ele>1056.15</ele>
        <time>2016-07-01T08:22:25Z</time>
      </trkpt>
      <trkpt lat="42.50766" lon="2.17595">
        <ele>1055.18</ele>
        <time>2016-07-01T08:22:26Z</time>
      </trkpt>
      <trkpt lat="42.50767" lon="2.17596">
        <ele>1055.18</ele>
        <time>2016-07-01T08:22:27Z</time>
      </trkpt>
      <trkpt lat="42.50768" lon="2.17597">
        <ele>1055.18</ele>
        <time>2016-07-01T08:22:28Z</time>
      </trkpt>
      <trkpt lat="42.50771" lon="2.17601">
        <ele>1055.18</ele>
        <time>2016-07-01T08:22:31Z</time>
      </trkpt>
      <trkpt lat="42.50771" lon="2.17602">
        <ele>1055.18</ele>
        <time>2016-07-01T08:22:32Z</time>
      </trkpt>
      <trkpt lat="42.50771" lon="2.17604">
        <ele>1054.7</ele>
        <time>2016-07-01T08:22:33Z</time>
      </trkpt>
      <trkpt lat="42.5077" lon="2.17607">
        <ele>1054.7</ele>
        <time>2016-07-01T08:22:34Z</time>
      </trkpt>
      <trkpt lat="42.5077" lon="2.17609">
        <ele>1054.7</ele>
        <time>2016-07-01T08:22:35Z</time>
      </trkpt>
      <trkpt lat="42.50771" lon="2.1761">
        <ele>1054.7</ele>
        <time>2016-07-01T08:22:36Z</time>
      </trkpt>
      <trkpt lat="42.50772" lon="2.17611">
        <ele>1054.7</ele>
        <time>2016-07-01T08:22:37Z</time>
      </trkpt>
      <trkpt lat="42.50773" lon="2.17612">
        <ele>1054.7</ele>
        <time>2016-07-01T08:22:38Z</time>
      </trkpt>
      <trkpt lat="42.50774" lon="2.17614">
        <ele>1054.22</ele>
        <time>2016-07-01T08:22:39Z</time>
      </trkpt>
      <trkpt lat="42.50774" lon="2.17616">
        <ele>1054.22</ele>
        <time>2016-07-01T08:22:40Z</time>
      </trkpt>
      <trkpt lat="42.50774" lon="2.17617">
        <ele>1054.22</ele>
        <time>2016-07-01T08:22:41Z</time>
      </trkpt>
      <trkpt lat="42.50773" lon="2.1762">
        <ele>1054.22</ele>
        <time>2016-07-01T08:22:42Z</time>
      </trkpt>
      <trkpt lat="42.50774" lon="2.17622">
        <ele>1054.22</ele>
        <time>2016-07-01T08:22:43Z</time>
      </trkpt>
      <trkpt lat="42.50775" lon="2.17624">
        <ele>1054.22</ele>
        <time>2016-07-01T08:22:44Z</time>
      </trkpt>
      <trkpt lat="42.50775" lon="2.17626">
        <ele>1053.74</ele>
        <time>2016-07-01T08:22:45Z</time>
      </trkpt>
      <trkpt lat="42.50776" lon="2.1763">
        <ele>1053.74</ele>
        <time>2016-07-01T08:22:47Z</time>
      </trkpt>
      <trkpt lat="42.50776" lon="2.17632">
        <ele>1053.74</ele>
        <time>2016-07-01T08:22:48Z</time>
      </trkpt>
      <trkpt lat="42.50776" lon="2.17634">
        <ele>1053.74</ele>
        <time>2016-07-01T08:22:49Z</time>
      </trkpt>
      <trkpt lat="42.50776" lon="2.17636">
        <ele>1053.26</ele>
        <time>2016-07-01T08:22:50Z</time>
      </trkpt>
      <trkpt lat="42.50775" lon="2.17638">
        <ele>1053.26</ele>
        <time>2016-07-01T08:22:51Z</time>
      </trkpt>
      <trkpt lat="42.50774" lon="2.17641">
        <ele>1053.26</ele>
        <time>2016-07-01T08:22:52Z</time>
      </trkpt>
      <trkpt lat="42.50773" lon="2.17646">
        <ele>1053.26</ele>
        <time>2016-07-01T08:22:54Z</time>
      </trkpt>
      <trkpt lat="42.50774" lon="2.17647">
        <ele>1052.3</ele>
        <time>2016-07-01T08:22:55Z</time>
      </trkpt>
      <trkpt lat="42.50774" lon="2.17649">
        <ele>1052.78</ele>
        <time>2016-07-01T08:22:56Z</time>
      </trkpt>
      <trkpt lat="42.50772" lon="2.17652">
        <ele>1052.78</ele>
        <time>2016-07-01T08:22:57Z</time>
      </trkpt>
      <trkpt lat="42.50773" lon="2.17654">
        <ele>1052.78</ele>
        <time>2016-07-01T08:22:58Z</time>
      </trkpt>
      <trkpt lat="42.50774" lon="2.17656">
        <ele>1052.78</ele>
        <time>2016-07-01T08:22:59Z</time>
      </trkpt>
      <trkpt lat="42.50774" lon="2.17657">
        <ele>1052.78</ele>
        <time>2016-07-01T08:23:00Z</time>
      </trkpt>
      <trkpt lat="42.50777" lon="2.17658">
        <ele>1051.82</ele>
        <time>2016-07-01T08:23:01Z</time>
      </trkpt>
      <trkpt lat="42.50777" lon="2.1766">
        <ele>1051.82</ele>
        <time>2016-07-01T08:23:02Z</time>
      </trkpt>
      <trkpt lat="42.50777" lon="2.17661">
        <ele>1051.82</ele>
        <time>2016-07-01T08:23:03Z</time>
      </trkpt>
      <trkpt lat="42.50778" lon="2.17663">
        <ele>1051.82</ele>
        <time>2016-07-01T08:23:04Z</time>
      </trkpt>
      <trkpt lat="42.50779" lon="2.17667">
        <ele>1051.82</ele>
        <time>2016-07-01T08:23:06Z</time>
      </trkpt>
      <trkpt lat="42.50779" lon="2.17669">
        <ele>1051.34</ele>
        <time>2016-07-01T08:23:07Z</time>
      </trkpt>
      <trkpt lat="42.50779" lon="2.17671">
        <ele>1051.34</ele>
        <time>2016-07-01T08:23:08Z</time>
      </trkpt>
      <trkpt lat="42.50783" lon="2.17673">
        <ele>1051.34</ele>
        <time>2016-07-01T08:23:10Z</time>
      </trkpt>
      <trkpt lat="42.50782" lon="2.17675">
        <ele>1051.34</ele>
        <time>2016-07-01T08:23:11Z</time>
      </trkpt>
      <trkpt lat="42.50783" lon="2.17677">
        <ele>1051.34</ele>
        <time>2016-07-01T08:23:12Z</time>
      </trkpt>
      <trkpt lat="42.50783" lon="2.17679">
        <ele>1050.86</ele>
        <time>2016-07-01T08:23:13Z</time>
      </trkpt>
      <trkpt lat="42.50784" lon="2.17681">
        <ele>1050.86</ele>
        <time>2016-07-01T08:23:16Z</time>
      </trkpt>
      <trkpt lat="42.50784" lon="2.17682">
        <ele>1050.86</ele>
        <time>2016-07-01T08:23:18Z</time>
      </trkpt>
      <trkpt lat="42.50785" lon="2.17686">
        <ele>1050.38</ele>
        <time>2016-07-01T08:23:20Z</time>
      </trkpt>
      <trkpt lat="42.50785" lon="2.17687">
        <ele>1050.38</ele>
        <time>2016-07-01T08:23:21Z</time>
      </trkpt>
      <trkpt lat="42.50785" lon="2.17689">
        <ele>1050.38</ele>
        <time>2016-07-01T08:23:22Z</time>
      </trkpt>
      <trkpt lat="42.50789" lon="2.17689">
        <ele>1050.38</ele>
        <time>2016-07-01T08:23:23Z</time>
      </trkpt>
      <trkpt lat="42.50793" lon="2.17689">
        <ele>1050.38</ele>
        <time>2016-07-01T08:23:24Z</time>
      </trkpt>
      <trkpt lat="42.50795" lon="2.1769">
        <ele>1050.38</ele>
        <time>2016-07-01T08:23:25Z</time>
      </trkpt>
      <trkpt lat="42.50798" lon="2.17691">
        <ele>1050.38</ele>
        <time>2016-07-01T08:23:26Z</time>
      </trkpt>
      <trkpt lat="42.508" lon="2.17691">
        <ele>1049.9</ele>
        <time>2016-07-01T08:23:27Z</time>
      </trkpt>
      <trkpt lat="42.50802" lon="2.17692">
        <ele>1049.9</ele>
        <time>2016-07-01T08:23:28Z</time>
      </trkpt>
      <trkpt lat="42.50804" lon="2.17693">
        <ele>1049.9</ele>
        <time>2016-07-01T08:23:29Z</time>
      </trkpt>
      <trkpt lat="42.50805" lon="2.17695">
        <ele>1049.9</ele>
        <time>2016-07-01T08:23:30Z</time>
      </trkpt>
      <trkpt lat="42.50806" lon="2.17696">
        <ele>1049.9</ele>
        <time>2016-07-01T08:23:31Z</time>
      </trkpt>
      <trkpt lat="42.50808" lon="2.17696">
        <ele>1049.9</ele>
        <time>2016-07-01T08:23:32Z</time>
      </trkpt>
      <trkpt lat="42.50811" lon="2.17703">
        <ele>1049.42</ele>
        <time>2016-07-01T08:23:36Z</time>
      </trkpt>
      <trkpt lat="42.50812" lon="2.17705">
        <ele>1048.45</ele>
        <time>2016-07-01T08:23:37Z</time>
      </trkpt>
      <trkpt lat="42.50818" lon="2.17712">
        <ele>1048.94</ele>
        <time>2016-07-01T08:23:43Z</time>
      </trkpt>
      <trkpt lat="42.50819" lon="2.17713">
        <ele>1048.94</ele>
        <time>2016-07-01T08:23:44Z</time>
      </trkpt>
      <trkpt lat="42.5082" lon="2.17714">
        <ele>1047.97</ele>
        <time>2016-07-01T08:23:45Z</time>
      </trkpt>
      <trkpt lat="42.50821" lon="2.17715">
        <ele>1047.97</ele>
        <time>2016-07-01T08:23:46Z</time>
      </trkpt>
      <trkpt lat="42.50822" lon="2.17716">
        <ele>1047.97</ele>
        <time>2016-07-01T08:23:47Z</time>
      </trkpt>
      <trkpt lat="42.50823" lon="2.17718">
        <ele>1047.97</ele>
        <time>2016-07-01T08:23:48Z</time>
      </trkpt>
      <trkpt lat="42.50824" lon="2.17719">
        <ele>1047.97</ele>
        <time>2016-07-01T08:23:49Z</time>
      </trkpt>
      <trkpt lat="42.50832" lon="2.17726">
        <ele>1047.49</ele>
        <time>2016-07-01T08:23:56Z</time>
      </trkpt>
      <trkpt lat="42.50833" lon="2.17727">
        <ele>1047.49</ele>
        <time>2016-07-01T08:23:57Z</time>
      </trkpt>
      <trkpt lat="42.50835" lon="2.17728">
        <ele>1047.01</ele>
        <time>2016-07-01T08:23:59Z</time>
      </trkpt>
      <trkpt lat="42.50836" lon="2.17729">
        <ele>1047.01</ele>
        <time>2016-07-01T08:24:00Z</time>
      </trkpt>
      <trkpt lat="42.50837" lon="2.1773">
        <ele>1047.01</ele>
        <time>2016-07-01T08:24:01Z</time>
      </trkpt>
      <trkpt lat="42.50838" lon="2.17731">
        <ele>1047.01</ele>
        <time>2016-07-01T08:24:02Z</time>
      </trkpt>
      <trkpt lat="42.50839" lon="2.17732">
        <ele>1047.01</ele>
        <time>2016-07-01T08:24:03Z</time>
      </trkpt>
      <trkpt lat="42.50841" lon="2.17733">
        <ele>1047.01</ele>
        <time>2016-07-01T08:24:04Z</time>
      </trkpt>
      <trkpt lat="42.50842" lon="2.17734">
        <ele>1047.01</ele>
        <time>2016-07-01T08:24:05Z</time>
      </trkpt>
      <trkpt lat="42.50844" lon="2.17734">
        <ele>1046.53</ele>
        <time>2016-07-01T08:24:06Z</time>
      </trkpt>
      <trkpt lat="42.50846" lon="2.17734">
        <ele>1046.53</ele>
        <time>2016-07-01T08:24:07Z</time>
      </trkpt>
      <trkpt lat="42.50847" lon="2.17734">
        <ele>1046.53</ele>
        <time>2016-07-01T08:24:08Z</time>
      </trkpt>
      <trkpt lat="42.50848" lon="2.17735">
        <ele>1046.53</ele>
        <time>2016-07-01T08:24:09Z</time>
      </trkpt>
      <trkpt lat="42.5085" lon="2.17735">
        <ele>1046.53</ele>
        <time>2016-07-01T08:24:10Z</time>
      </trkpt>
      <trkpt lat="42.50861" lon="2.17735">
        <ele>1046.05</ele>
        <time>2016-07-01T08:24:18Z</time>
      </trkpt>
      <trkpt lat="42.50862" lon="2.17735">
        <ele>1046.05</ele>
        <time>2016-07-01T08:24:19Z</time>
      </trkpt>
      <trkpt lat="42.50865" lon="2.17735">
        <ele>1046.05</ele>
        <time>2016-07-01T08:24:21Z</time>
      </trkpt>
      <trkpt lat="42.50866" lon="2.17736">
        <ele>1046.05</ele>
        <time>2016-07-01T08:24:22Z</time>
      </trkpt>
      <trkpt lat="42.50867" lon="2.17736">
        <ele>1046.05</ele>
        <time>2016-07-01T08:24:23Z</time>
      </trkpt>
      <trkpt lat="42.50868" lon="2.17736">
        <ele>1046.05</ele>
        <time>2016-07-01T08:24:24Z</time>
      </trkpt>
      <trkpt lat="42.5087" lon="2.17736">
        <ele>1045.09</ele>
        <time>2016-07-01T08:24:25Z</time>
      </trkpt>
      <trkpt lat="42.50871" lon="2.17736">
        <ele>1045.09</ele>
        <time>2016-07-01T08:24:26Z</time>
      </trkpt>
      <trkpt lat="42.50872" lon="2.17735">
        <ele>1045.09</ele>
        <time>2016-07-01T08:24:27Z</time>
      </trkpt>
      <trkpt lat="42.50873" lon="2.17735">
        <ele>1045.09</ele>
        <time>2016-07-01T08:24:28Z</time>
      </trkpt>
      <trkpt lat="42.50874" lon="2.17735">
        <ele>1045.09</ele>
        <time>2016-07-01T08:24:29Z</time>
      </trkpt>
      <trkpt lat="42.50876" lon="2.17734">
        <ele>1045.09</ele>
        <time>2016-07-01T08:24:30Z</time>
      </trkpt>
      <trkpt lat="42.50877" lon="2.17733">
        <ele>1044.61</ele>
        <time>2016-07-01T08:24:31Z</time>
      </trkpt>
      <trkpt lat="42.50878" lon="2.17732">
        <ele>1044.61</ele>
        <time>2016-07-01T08:24:32Z</time>
      </trkpt>
      <trkpt lat="42.5088" lon="2.17731">
        <ele>1044.61</ele>
        <time>2016-07-01T08:24:33Z</time>
      </trkpt>
      <trkpt lat="42.50881" lon="2.17731">
        <ele>1044.61</ele>
        <time>2016-07-01T08:24:34Z</time>
      </trkpt>
      <trkpt lat="42.50882" lon="2.17729">
        <ele>1044.61</ele>
        <time>2016-07-01T08:24:35Z</time>
      </trkpt>
      <trkpt lat="42.50883" lon="2.17728">
        <ele>1044.61</ele>
        <time>2016-07-01T08:24:36Z</time>
      </trkpt>
      <trkpt lat="42.50884" lon="2.17727">
        <ele>1044.61</ele>
        <time>2016-07-01T08:24:37Z</time>
      </trkpt>
      <trkpt lat="42.50884" lon="2.17726">
        <ele>1044.61</ele>
        <time>2016-07-01T08:24:38Z</time>
      </trkpt>
      <trkpt lat="42.50885" lon="2.17724">
        <ele>1044.61</ele>
        <time>2016-07-01T08:24:39Z</time>
      </trkpt>
      <trkpt lat="42.50886" lon="2.17722">
        <ele>1044.13</ele>
        <time>2016-07-01T08:24:41Z</time>
      </trkpt>
      <trkpt lat="42.50887" lon="2.1772">
        <ele>1044.13</ele>
        <time>2016-07-01T08:24:42Z</time>
      </trkpt>
      <trkpt lat="42.50886" lon="2.17718">
        <ele>1044.13</ele>
        <time>2016-07-01T08:24:43Z</time>
      </trkpt>
      <trkpt lat="42.50886" lon="2.17717">
        <ele>1044.13</ele>
        <time>2016-07-01T08:24:44Z</time>
      </trkpt>
      <trkpt lat="42.50887" lon="2.17714">
        <ele>1044.13</ele>
        <time>2016-07-01T08:24:45Z</time>
      </trkpt>
      <trkpt lat="42.50887" lon="2.17712">
        <ele>1044.13</ele>
        <time>2016-07-01T08:24:46Z</time>
      </trkpt>
      <trkpt lat="42.50887" lon="2.1771">
        <ele>1044.13</ele>
        <time>2016-07-01T08:24:47Z</time>
      </trkpt>
      <trkpt lat="42.50887" lon="2.17708">
        <ele>1043.65</ele>
        <time>2016-07-01T08:24:48Z</time>
      </trkpt>
      <trkpt lat="42.50886" lon="2.17707">
        <ele>1043.65</ele>
        <time>2016-07-01T08:24:49Z</time>
      </trkpt>
      <trkpt lat="42.50886" lon="2.17705">
        <ele>1043.65</ele>
        <time>2016-07-01T08:24:50Z</time>
      </trkpt>
      <trkpt lat="42.50886" lon="2.17703">
        <ele>1043.65</ele>
        <time>2016-07-01T08:24:51Z</time>
      </trkpt>
      <trkpt lat="42.50886" lon="2.17701">
        <ele>1043.65</ele>
        <time>2016-07-01T08:24:52Z</time>
      </trkpt>
      <trkpt lat="42.50886" lon="2.17699">
        <ele>1043.65</ele>
        <time>2016-07-01T08:24:53Z</time>
      </trkpt>
      <trkpt lat="42.50886" lon="2.17697">
        <ele>1043.65</ele>
        <time>2016-07-01T08:24:54Z</time>
      </trkpt>
      <trkpt lat="42.50886" lon="2.17695">
        <ele>1043.17</ele>
        <time>2016-07-01T08:24:55Z</time>
      </trkpt>
      <trkpt lat="42.50886" lon="2.17693">
        <ele>1043.17</ele>
        <time>2016-07-01T08:24:56Z</time>
      </trkpt>
      <trkpt lat="42.50884" lon="2.17687">
        <ele>1043.17</ele>
        <time>2016-07-01T08:24:59Z</time>
      </trkpt>
      <trkpt lat="42.50888" lon="2.17665">
        <ele>1042.69</ele>
        <time>2016-07-01T08:25:11Z</time>
      </trkpt>
      <trkpt lat="42.50893" lon="2.17664">
        <ele>1042.69</ele>
        <time>2016-07-01T08:25:14Z</time>
      </trkpt>
      <trkpt lat="42.50904" lon="2.17662">
        <ele>1042.69</ele>
        <time>2016-07-01T08:25:20Z</time>
      </trkpt>
      <trkpt lat="42.50905" lon="2.17662">
        <ele>1042.69</ele>
        <time>2016-07-01T08:25:21Z</time>
      </trkpt>
      <trkpt lat="42.5091" lon="2.17664">
        <ele>1042.69</ele>
        <time>2016-07-01T08:25:25Z</time>
      </trkpt>
      <trkpt lat="42.50914" lon="2.17668">
        <ele>1042.69</ele>
        <time>2016-07-01T08:25:29Z</time>
      </trkpt>
      <trkpt lat="42.50915" lon="2.17669">
        <ele>1042.69</ele>
        <time>2016-07-01T08:25:30Z</time>
      </trkpt>
      <trkpt lat="42.50917" lon="2.1767">
        <ele>1042.69</ele>
        <time>2016-07-01T08:25:31Z</time>
      </trkpt>
      <trkpt lat="42.50918" lon="2.1767">
        <ele>1042.69</ele>
        <time>2016-07-01T08:25:32Z</time>
      </trkpt>
      <trkpt lat="42.5092" lon="2.17671">
        <ele>1042.69</ele>
        <time>2016-07-01T08:25:33Z</time>
      </trkpt>
      <trkpt lat="42.50921" lon="2.17672">
        <ele>1042.69</ele>
        <time>2016-07-01T08:25:34Z</time>
      </trkpt>
      <trkpt lat="42.50923" lon="2.17673">
        <ele>1042.69</ele>
        <time>2016-07-01T08:25:35Z</time>
      </trkpt>
      <trkpt lat="42.50926" lon="2.17675">
        <ele>1042.69</ele>
        <time>2016-07-01T08:25:38Z</time>
      </trkpt>
      <trkpt lat="42.50927" lon="2.17676">
        <ele>1042.69</ele>
        <time>2016-07-01T08:25:39Z</time>
      </trkpt>
      <trkpt lat="42.50928" lon="2.17677">
        <ele>1042.69</ele>
        <time>2016-07-01T08:25:40Z</time>
      </trkpt>
      <trkpt lat="42.5093" lon="2.17678">
        <ele>1042.69</ele>
        <time>2016-07-01T08:25:41Z</time>
      </trkpt>
      <trkpt lat="42.50931" lon="2.17679">
        <ele>1042.69</ele>
        <time>2016-07-01T08:25:42Z</time>
      </trkpt>
      <trkpt lat="42.50933" lon="2.17679">
        <ele>1042.69</ele>
        <time>2016-07-01T08:25:43Z</time>
      </trkpt>
      <trkpt lat="42.50934" lon="2.1768">
        <ele>1042.69</ele>
        <time>2016-07-01T08:25:44Z</time>
      </trkpt>
      <trkpt lat="42.50935" lon="2.17681">
        <ele>1042.69</ele>
        <time>2016-07-01T08:25:45Z</time>
      </trkpt>
      <trkpt lat="42.50937" lon="2.17682">
        <ele>1042.69</ele>
        <time>2016-07-01T08:25:46Z</time>
      </trkpt>
      <trkpt lat="42.50938" lon="2.17683">
        <ele>1042.69</ele>
        <time>2016-07-01T08:25:47Z</time>
      </trkpt>
      <trkpt lat="42.5094" lon="2.17683">
        <ele>1042.69</ele>
        <time>2016-07-01T08:25:48Z</time>
      </trkpt>
      <trkpt lat="42.50941" lon="2.17684">
        <ele>1042.69</ele>
        <time>2016-07-01T08:25:49Z</time>
      </trkpt>
      <trkpt lat="42.50945" lon="2.17687">
        <ele>1042.21</ele>
        <time>2016-07-01T08:25:53Z</time>
      </trkpt>
      <trkpt lat="42.50947" lon="2.17689">
        <ele>1042.21</ele>
        <time>2016-07-01T08:25:55Z</time>
      </trkpt>
      <trkpt lat="42.50948" lon="2.1769">
        <ele>1042.21</ele>
        <time>2016-07-01T08:25:56Z</time>
      </trkpt>
      <trkpt lat="42.50949" lon="2.17691">
        <ele>1042.21</ele>
        <time>2016-07-01T08:25:57Z</time>
      </trkpt>
      <trkpt lat="42.50951" lon="2.17692">
        <ele>1042.21</ele>
        <time>2016-07-01T08:25:59Z</time>
      </trkpt>
      <trkpt lat="42.50953" lon="2.17692">
        <ele>1042.21</ele>
        <time>2016-07-01T08:26:00Z</time>
      </trkpt>
      <trkpt lat="42.50954" lon="2.17693">
        <ele>1042.21</ele>
        <time>2016-07-01T08:26:01Z</time>
      </trkpt>
      <trkpt lat="42.50955" lon="2.17693">
        <ele>1042.21</ele>
        <time>2016-07-01T08:26:02Z</time>
      </trkpt>
      <trkpt lat="42.50956" lon="2.17693">
        <ele>1042.21</ele>
        <time>2016-07-01T08:26:03Z</time>
      </trkpt>
      <trkpt lat="42.50958" lon="2.17694">
        <ele>1042.21</ele>
        <time>2016-07-01T08:26:04Z</time>
      </trkpt>
      <trkpt lat="42.50965" lon="2.17695">
        <ele>1042.21</ele>
        <time>2016-07-01T08:26:09Z</time>
      </trkpt>
      <trkpt lat="42.50966" lon="2.17697">
        <ele>1042.21</ele>
        <time>2016-07-01T08:26:10Z</time>
      </trkpt>
      <trkpt lat="42.50968" lon="2.17698">
        <ele>1042.21</ele>
        <time>2016-07-01T08:26:11Z</time>
      </trkpt>
      <trkpt lat="42.5097" lon="2.17699">
        <ele>1042.21</ele>
        <time>2016-07-01T08:26:13Z</time>
      </trkpt>
      <trkpt lat="42.50971" lon="2.177">
        <ele>1042.21</ele>
        <time>2016-07-01T08:26:14Z</time>
      </trkpt>
      <trkpt lat="42.50972" lon="2.17701">
        <ele>1042.21</ele>
        <time>2016-07-01T08:26:15Z</time>
      </trkpt>
      <trkpt lat="42.50978" lon="2.17705">
        <ele>1042.21</ele>
        <time>2016-07-01T08:26:19Z</time>
      </trkpt>
      <trkpt lat="42.50989" lon="2.17715">
        <ele>1041.73</ele>
        <time>2016-07-01T08:26:29Z</time>
      </trkpt>
      <trkpt lat="42.50999" lon="2.17726">
        <ele>1041.25</ele>
        <time>2016-07-01T08:26:39Z</time>
      </trkpt>
      <trkpt lat="42.51002" lon="2.17731">
        <ele>1041.25</ele>
        <time>2016-07-01T08:26:42Z</time>
      </trkpt>
      <trkpt lat="42.51003" lon="2.17733">
        <ele>1041.25</ele>
        <time>2016-07-01T08:26:43Z</time>
      </trkpt>
      <trkpt lat="42.51003" lon="2.17735">
        <ele>1041.25</ele>
        <time>2016-07-01T08:26:44Z</time>
      </trkpt>
      <trkpt lat="42.51005" lon="2.17736">
        <ele>1041.25</ele>
        <time>2016-07-01T08:26:45Z</time>
      </trkpt>
      <trkpt lat="42.51006" lon="2.17738">
        <ele>1040.28</ele>
        <time>2016-07-01T08:26:46Z</time>
      </trkpt>
      <trkpt lat="42.51007" lon="2.17739">
        <ele>1040.76</ele>
        <time>2016-07-01T08:26:47Z</time>
      </trkpt>
      <trkpt lat="42.51008" lon="2.17741">
        <ele>1040.76</ele>
        <time>2016-07-01T08:26:48Z</time>
      </trkpt>
      <trkpt lat="42.51008" lon="2.17742">
        <ele>1040.76</ele>
        <time>2016-07-01T08:26:49Z</time>
      </trkpt>
      <trkpt lat="42.51009" lon="2.17744">
        <ele>1039.8</ele>
        <time>2016-07-01T08:26:50Z</time>
      </trkpt>
      <trkpt lat="42.5101" lon="2.17745">
        <ele>1039.8</ele>
        <time>2016-07-01T08:26:51Z</time>
      </trkpt>
      <trkpt lat="42.51011" lon="2.17747">
        <ele>1039.8</ele>
        <time>2016-07-01T08:26:52Z</time>
      </trkpt>
      <trkpt lat="42.51012" lon="2.17748">
        <ele>1039.8</ele>
        <time>2016-07-01T08:26:53Z</time>
      </trkpt>
      <trkpt lat="42.51013" lon="2.17749">
        <ele>1039.8</ele>
        <time>2016-07-01T08:26:54Z</time>
      </trkpt>
      <trkpt lat="42.51014" lon="2.1775">
        <ele>1039.8</ele>
        <time>2016-07-01T08:26:55Z</time>
      </trkpt>
      <trkpt lat="42.51015" lon="2.17752">
        <ele>1039.32</ele>
        <time>2016-07-01T08:26:56Z</time>
      </trkpt>
      <trkpt lat="42.51016" lon="2.17753">
        <ele>1039.32</ele>
        <time>2016-07-01T08:26:57Z</time>
      </trkpt>
      <trkpt lat="42.51017" lon="2.17754">
        <ele>1039.32</ele>
        <time>2016-07-01T08:26:58Z</time>
      </trkpt>
      <trkpt lat="42.51017" lon="2.17755">
        <ele>1039.32</ele>
        <time>2016-07-01T08:26:59Z</time>
      </trkpt>
      <trkpt lat="42.51018" lon="2.17757">
        <ele>1039.32</ele>
        <time>2016-07-01T08:27:00Z</time>
      </trkpt>
      <trkpt lat="42.51019" lon="2.17758">
        <ele>1038.84</ele>
        <time>2016-07-01T08:27:01Z</time>
      </trkpt>
      <trkpt lat="42.5102" lon="2.1776">
        <ele>1038.84</ele>
        <time>2016-07-01T08:27:02Z</time>
      </trkpt>
      <trkpt lat="42.51021" lon="2.17761">
        <ele>1038.84</ele>
        <time>2016-07-01T08:27:03Z</time>
      </trkpt>
      <trkpt lat="42.51022" lon="2.17763">
        <ele>1038.84</ele>
        <time>2016-07-01T08:27:04Z</time>
      </trkpt>
      <trkpt lat="42.51023" lon="2.17765">
        <ele>1038.84</ele>
        <time>2016-07-01T08:27:05Z</time>
      </trkpt>
      <trkpt lat="42.51024" lon="2.17766">
        <ele>1038.84</ele>
        <time>2016-07-01T08:27:06Z</time>
      </trkpt>
      <trkpt lat="42.51026" lon="2.17768">
        <ele>1037.88</ele>
        <time>2016-07-01T08:27:07Z</time>
      </trkpt>
      <trkpt lat="42.51026" lon="2.1777">
        <ele>1038.36</ele>
        <time>2016-07-01T08:27:08Z</time>
      </trkpt>
      <trkpt lat="42.51027" lon="2.17771">
        <ele>1038.36</ele>
        <time>2016-07-01T08:27:09Z</time>
      </trkpt>
      <trkpt lat="42.51028" lon="2.17772">
        <ele>1038.36</ele>
        <time>2016-07-01T08:27:10Z</time>
      </trkpt>
      <trkpt lat="42.51028" lon="2.17773">
        <ele>1038.36</ele>
        <time>2016-07-01T08:27:11Z</time>
      </trkpt>
      <trkpt lat="42.5103" lon="2.17774">
        <ele>1038.36</ele>
        <time>2016-07-01T08:27:12Z</time>
      </trkpt>
      <trkpt lat="42.5103" lon="2.17776">
        <ele>1038.36</ele>
        <time>2016-07-01T08:27:13Z</time>
      </trkpt>
      <trkpt lat="42.51031" lon="2.17777">
        <ele>1037.4</ele>
        <time>2016-07-01T08:27:14Z</time>
      </trkpt>
      <trkpt lat="42.51033" lon="2.17778">
        <ele>1037.88</ele>
        <time>2016-07-01T08:27:15Z</time>
      </trkpt>
      <trkpt lat="42.51034" lon="2.1778">
        <ele>1037.4</ele>
        <time>2016-07-01T08:27:16Z</time>
      </trkpt>
      <trkpt lat="42.51034" lon="2.17781">
        <ele>1037.4</ele>
        <time>2016-07-01T08:27:17Z</time>
      </trkpt>
      <trkpt lat="42.51035" lon="2.17783">
        <ele>1037.4</ele>
        <time>2016-07-01T08:27:18Z</time>
      </trkpt>
      <trkpt lat="42.51037" lon="2.17784">
        <ele>1036.92</ele>
        <time>2016-07-01T08:27:19Z</time>
      </trkpt>
      <trkpt lat="42.51038" lon="2.17784">
        <ele>1036.92</ele>
        <time>2016-07-01T08:27:20Z</time>
      </trkpt>
      <trkpt lat="42.5104" lon="2.17785">
        <ele>1036.92</ele>
        <time>2016-07-01T08:27:21Z</time>
      </trkpt>
      <trkpt lat="42.51041" lon="2.17786">
        <ele>1036.92</ele>
        <time>2016-07-01T08:27:22Z</time>
      </trkpt>
      <trkpt lat="42.51042" lon="2.17787">
        <ele>1036.92</ele>
        <time>2016-07-01T08:27:23Z</time>
      </trkpt>
      <trkpt lat="42.51042" lon="2.17788">
        <ele>1036.92</ele>
        <time>2016-07-01T08:27:24Z</time>
      </trkpt>
      <trkpt lat="42.51043" lon="2.17789">
        <ele>1036.92</ele>
        <time>2016-07-01T08:27:25Z</time>
      </trkpt>
      <trkpt lat="42.51044" lon="2.17791">
        <ele>1036.92</ele>
        <time>2016-07-01T08:27:26Z</time>
      </trkpt>
      <trkpt lat="42.51045" lon="2.17793">
        <ele>1036.92</ele>
        <time>2016-07-01T08:27:27Z</time>
      </trkpt>
      <trkpt lat="42.51046" lon="2.17794">
        <ele>1036.44</ele>
        <time>2016-07-01T08:27:28Z</time>
      </trkpt>
      <trkpt lat="42.51046" lon="2.17797">
        <ele>1036.44</ele>
        <time>2016-07-01T08:27:29Z</time>
      </trkpt>
      <trkpt lat="42.51047" lon="2.17799">
        <ele>1036.44</ele>
        <time>2016-07-01T08:27:31Z</time>
      </trkpt>
      <trkpt lat="42.51048" lon="2.17801">
        <ele>1036.44</ele>
        <time>2016-07-01T08:27:32Z</time>
      </trkpt>
      <trkpt lat="42.51049" lon="2.17802">
        <ele>1036.44</ele>
        <time>2016-07-01T08:27:33Z</time>
      </trkpt>
      <trkpt lat="42.51049" lon="2.17803">
        <ele>1036.44</ele>
        <time>2016-07-01T08:27:34Z</time>
      </trkpt>
      <trkpt lat="42.51051" lon="2.17804">
        <ele>1036.44</ele>
        <time>2016-07-01T08:27:35Z</time>
      </trkpt>
      <trkpt lat="42.51052" lon="2.17805">
        <ele>1036.44</ele>
        <time>2016-07-01T08:27:36Z</time>
      </trkpt>
      <trkpt lat="42.51052" lon="2.17807">
        <ele>1036.44</ele>
        <time>2016-07-01T08:27:37Z</time>
      </trkpt>
      <trkpt lat="42.51054" lon="2.17808">
        <ele>1036.44</ele>
        <time>2016-07-01T08:27:38Z</time>
      </trkpt>
      <trkpt lat="42.51055" lon="2.17809">
        <ele>1036.44</ele>
        <time>2016-07-01T08:27:39Z</time>
      </trkpt>
      <trkpt lat="42.51056" lon="2.1781">
        <ele>1036.44</ele>
        <time>2016-07-01T08:27:40Z</time>
      </trkpt>
      <trkpt lat="42.51057" lon="2.17811">
        <ele>1036.44</ele>
        <time>2016-07-01T08:27:41Z</time>
      </trkpt>
      <trkpt lat="42.51057" lon="2.17813">
        <ele>1036.44</ele>
        <time>2016-07-01T08:27:42Z</time>
      </trkpt>
      <trkpt lat="42.51059" lon="2.17814">
        <ele>1036.44</ele>
        <time>2016-07-01T08:27:43Z</time>
      </trkpt>
      <trkpt lat="42.5106" lon="2.17815">
        <ele>1036.44</ele>
        <time>2016-07-01T08:27:44Z</time>
      </trkpt>
      <trkpt lat="42.5106" lon="2.17816">
        <ele>1036.44</ele>
        <time>2016-07-01T08:27:45Z</time>
      </trkpt>
      <trkpt lat="42.51061" lon="2.17818">
        <ele>1036.44</ele>
        <time>2016-07-01T08:27:46Z</time>
      </trkpt>
      <trkpt lat="42.51063" lon="2.17827">
        <ele>1036.44</ele>
        <time>2016-07-01T08:27:56Z</time>
      </trkpt>
      <trkpt lat="42.5107" lon="2.17824">
        <ele>1036.44</ele>
        <time>2016-07-01T08:28:07Z</time>
      </trkpt>
      <trkpt lat="42.51074" lon="2.17823">
        <ele>1036.44</ele>
        <time>2016-07-01T08:28:19Z</time>
      </trkpt>
      <trkpt lat="42.5108" lon="2.17824">
        <ele>1036.44</ele>
        <time>2016-07-01T08:28:25Z</time>
      </trkpt>
      <trkpt lat="42.5108" lon="2.17826">
        <ele>1036.44</ele>
        <time>2016-07-01T08:28:26Z</time>
      </trkpt>
      <trkpt lat="42.51081" lon="2.17827">
        <ele>1036.44</ele>
        <time>2016-07-01T08:28:27Z</time>
      </trkpt>
      <trkpt lat="42.51082" lon="2.17828">
        <ele>1036.44</ele>
        <time>2016-07-01T08:28:28Z</time>
      </trkpt>
      <trkpt lat="42.51083" lon="2.17829">
        <ele>1036.44</ele>
        <time>2016-07-01T08:28:29Z</time>
      </trkpt>
      <trkpt lat="42.51084" lon="2.1783">
        <ele>1036.44</ele>
        <time>2016-07-01T08:28:30Z</time>
      </trkpt>
      <trkpt lat="42.51085" lon="2.1783">
        <ele>1036.44</ele>
        <time>2016-07-01T08:28:31Z</time>
      </trkpt>
      <trkpt lat="42.51086" lon="2.17831">
        <ele>1036.44</ele>
        <time>2016-07-01T08:28:32Z</time>
      </trkpt>
      <trkpt lat="42.51087" lon="2.17831">
        <ele>1036.44</ele>
        <time>2016-07-01T08:28:33Z</time>
      </trkpt>
      <trkpt lat="42.51088" lon="2.17832">
        <ele>1036.44</ele>
        <time>2016-07-01T08:28:34Z</time>
      </trkpt>
      <trkpt lat="42.51089" lon="2.17834">
        <ele>1036.44</ele>
        <time>2016-07-01T08:28:36Z</time>
      </trkpt>
      <trkpt lat="42.51089" lon="2.17837">
        <ele>1036.44</ele>
        <time>2016-07-01T08:28:38Z</time>
      </trkpt>
      <trkpt lat="42.51092" lon="2.17841">
        <ele>1037.4</ele>
        <time>2016-07-01T08:28:41Z</time>
      </trkpt>
      <trkpt lat="42.51094" lon="2.17844">
        <ele>1037.4</ele>
        <time>2016-07-01T08:28:44Z</time>
      </trkpt>
      <trkpt lat="42.51095" lon="2.17845">
        <ele>1037.4</ele>
        <time>2016-07-01T08:28:45Z</time>
      </trkpt>
      <trkpt lat="42.51095" lon="2.17847">
        <ele>1037.4</ele>
        <time>2016-07-01T08:28:46Z</time>
      </trkpt>
      <trkpt lat="42.51095" lon="2.17849">
        <ele>1037.4</ele>
        <time>2016-07-01T08:28:47Z</time>
      </trkpt>
      <trkpt lat="42.51095" lon="2.17851">
        <ele>1037.4</ele>
        <time>2016-07-01T08:28:48Z</time>
      </trkpt>
      <trkpt lat="42.51095" lon="2.17852">
        <ele>1037.88</ele>
        <time>2016-07-01T08:28:49Z</time>
      </trkpt>
      <trkpt lat="42.51096" lon="2.17854">
        <ele>1038.36</ele>
        <time>2016-07-01T08:28:50Z</time>
      </trkpt>
      <trkpt lat="42.51097" lon="2.17855">
        <ele>1038.36</ele>
        <time>2016-07-01T08:28:51Z</time>
      </trkpt>
      <trkpt lat="42.51099" lon="2.17856">
        <ele>1038.36</ele>
        <time>2016-07-01T08:28:52Z</time>
      </trkpt>
      <trkpt lat="42.51099" lon="2.17859">
        <ele>1038.84</ele>
        <time>2016-07-01T08:28:54Z</time>
      </trkpt>
      <trkpt lat="42.51099" lon="2.1786">
        <ele>1038.84</ele>
        <time>2016-07-01T08:28:55Z</time>
      </trkpt>
      <trkpt lat="42.51101" lon="2.17861">
        <ele>1038.84</ele>
        <time>2016-07-01T08:28:56Z</time>
      </trkpt>
      <trkpt lat="42.51102" lon="2.17864">
        <ele>1038.84</ele>
        <time>2016-07-01T08:28:58Z</time>
      </trkpt>
      <trkpt lat="42.51103" lon="2.17865">
        <ele>1039.32</ele>
        <time>2016-07-01T08:28:59Z</time>
      </trkpt>
      <trkpt lat="42.51104" lon="2.17866">
        <ele>1039.32</ele>
        <time>2016-07-01T08:29:00Z</time>
      </trkpt>
      <trkpt lat="42.51104" lon="2.17868">
        <ele>1039.32</ele>
        <time>2016-07-01T08:29:01Z</time>
      </trkpt>
      <trkpt lat="42.51105" lon="2.1787">
        <ele>1039.8</ele>
        <time>2016-07-01T08:29:03Z</time>
      </trkpt>
      <trkpt lat="42.51105" lon="2.17872">
        <ele>1039.8</ele>
        <time>2016-07-01T08:29:04Z</time>
      </trkpt>
      <trkpt lat="42.51105" lon="2.17874">
        <ele>1039.8</ele>
        <time>2016-07-01T08:29:05Z</time>
      </trkpt>
      <trkpt lat="42.51105" lon="2.17877">
        <ele>1039.8</ele>
        <time>2016-07-01T08:29:07Z</time>
      </trkpt>
      <trkpt lat="42.51105" lon="2.17879">
        <ele>1040.28</ele>
        <time>2016-07-01T08:29:08Z</time>
      </trkpt>
      <trkpt lat="42.51106" lon="2.17881">
        <ele>1040.28</ele>
        <time>2016-07-01T08:29:09Z</time>
      </trkpt>
      <trkpt lat="42.51107" lon="2.17882">
        <ele>1040.28</ele>
        <time>2016-07-01T08:29:10Z</time>
      </trkpt>
      <trkpt lat="42.51107" lon="2.17883">
        <ele>1040.28</ele>
        <time>2016-07-01T08:29:11Z</time>
      </trkpt>
      <trkpt lat="42.51108" lon="2.17885">
        <ele>1040.28</ele>
        <time>2016-07-01T08:29:12Z</time>
      </trkpt>
      <trkpt lat="42.51108" lon="2.17887">
        <ele>1041.25</ele>
        <time>2016-07-01T08:29:13Z</time>
      </trkpt>
      <trkpt lat="42.51109" lon="2.17889">
        <ele>1041.25</ele>
        <time>2016-07-01T08:29:14Z</time>
      </trkpt>
      <trkpt lat="42.51109" lon="2.17891">
        <ele>1041.25</ele>
        <time>2016-07-01T08:29:15Z</time>
      </trkpt>
      <trkpt lat="42.51109" lon="2.17893">
        <ele>1041.25</ele>
        <time>2016-07-01T08:29:16Z</time>
      </trkpt>
      <trkpt lat="42.5111" lon="2.17894">
        <ele>1041.73</ele>
        <time>2016-07-01T08:29:17Z</time>
      </trkpt>
      <trkpt lat="42.5111" lon="2.17896">
        <ele>1041.73</ele>
        <time>2016-07-01T08:29:18Z</time>
      </trkpt>
      <trkpt lat="42.51111" lon="2.17897">
        <ele>1041.25</ele>
        <time>2016-07-01T08:29:19Z</time>
      </trkpt>
      <trkpt lat="42.51113" lon="2.17898">
        <ele>1041.25</ele>
        <time>2016-07-01T08:29:20Z</time>
      </trkpt>
      <trkpt lat="42.51114" lon="2.17901">
        <ele>1042.21</ele>
        <time>2016-07-01T08:29:22Z</time>
      </trkpt>
      <trkpt lat="42.51115" lon="2.17902">
        <ele>1042.21</ele>
        <time>2016-07-01T08:29:23Z</time>
      </trkpt>
      <trkpt lat="42.51116" lon="2.17904">
        <ele>1042.21</ele>
        <time>2016-07-01T08:29:24Z</time>
      </trkpt>
      <trkpt lat="42.51117" lon="2.17905">
        <ele>1042.69</ele>
        <time>2016-07-01T08:29:25Z</time>
      </trkpt>
      <trkpt lat="42.51118" lon="2.17906">
        <ele>1042.69</ele>
        <time>2016-07-01T08:29:26Z</time>
      </trkpt>
      <trkpt lat="42.51119" lon="2.17907">
        <ele>1042.69</ele>
        <time>2016-07-01T08:29:27Z</time>
      </trkpt>
      <trkpt lat="42.5112" lon="2.17909">
        <ele>1042.69</ele>
        <time>2016-07-01T08:29:28Z</time>
      </trkpt>
      <trkpt lat="42.5112" lon="2.1791">
        <ele>1043.17</ele>
        <time>2016-07-01T08:29:29Z</time>
      </trkpt>
      <trkpt lat="42.51122" lon="2.17911">
        <ele>1043.17</ele>
        <time>2016-07-01T08:29:30Z</time>
      </trkpt>
      <trkpt lat="42.51124" lon="2.17912">
        <ele>1043.17</ele>
        <time>2016-07-01T08:29:31Z</time>
      </trkpt>
      <trkpt lat="42.51125" lon="2.17913">
        <ele>1043.17</ele>
        <time>2016-07-01T08:29:32Z</time>
      </trkpt>
      <trkpt lat="42.51126" lon="2.17916">
        <ele>1043.17</ele>
        <time>2016-07-01T08:29:34Z</time>
      </trkpt>
      <trkpt lat="42.51127" lon="2.17917">
        <ele>1043.17</ele>
        <time>2016-07-01T08:29:35Z</time>
      </trkpt>
      <trkpt lat="42.51129" lon="2.17919">
        <ele>1043.65</ele>
        <time>2016-07-01T08:29:36Z</time>
      </trkpt>
      <trkpt lat="42.5113" lon="2.1792">
        <ele>1043.65</ele>
        <time>2016-07-01T08:29:37Z</time>
      </trkpt>
      <trkpt lat="42.51133" lon="2.17922">
        <ele>1043.65</ele>
        <time>2016-07-01T08:29:40Z</time>
      </trkpt>
      <trkpt lat="42.51135" lon="2.17928">
        <ele>1043.65</ele>
        <time>2016-07-01T08:29:44Z</time>
      </trkpt>
      <trkpt lat="42.51136" lon="2.17931">
        <ele>1044.13</ele>
        <time>2016-07-01T08:29:46Z</time>
      </trkpt>
      <trkpt lat="42.51138" lon="2.17932">
        <ele>1044.13</ele>
        <time>2016-07-01T08:29:47Z</time>
      </trkpt>
      <trkpt lat="42.5114" lon="2.17933">
        <ele>1044.13</ele>
        <time>2016-07-01T08:29:48Z</time>
      </trkpt>
      <trkpt lat="42.51142" lon="2.17933">
        <ele>1044.13</ele>
        <time>2016-07-01T08:29:49Z</time>
      </trkpt>
      <trkpt lat="42.51144" lon="2.17933">
        <ele>1044.13</ele>
        <time>2016-07-01T08:29:50Z</time>
      </trkpt>
      <trkpt lat="42.51145" lon="2.17933">
        <ele>1044.13</ele>
        <time>2016-07-01T08:29:51Z</time>
      </trkpt>
      <trkpt lat="42.51147" lon="2.17935">
        <ele>1044.13</ele>
        <time>2016-07-01T08:29:53Z</time>
      </trkpt>
      <trkpt lat="42.51148" lon="2.17936">
        <ele>1044.13</ele>
        <time>2016-07-01T08:29:54Z</time>
      </trkpt>
      <trkpt lat="42.51149" lon="2.17937">
        <ele>1044.13</ele>
        <time>2016-07-01T08:29:55Z</time>
      </trkpt>
      <trkpt lat="42.51149" lon="2.17939">
        <ele>1044.61</ele>
        <time>2016-07-01T08:29:56Z</time>
      </trkpt>
      <trkpt lat="42.5115" lon="2.1794">
        <ele>1044.61</ele>
        <time>2016-07-01T08:29:57Z</time>
      </trkpt>
      <trkpt lat="42.5115" lon="2.17942">
        <ele>1044.61</ele>
        <time>2016-07-01T08:29:58Z</time>
      </trkpt>
      <trkpt lat="42.51152" lon="2.17943">
        <ele>1044.61</ele>
        <time>2016-07-01T08:29:59Z</time>
      </trkpt>
      <trkpt lat="42.51152" lon="2.17945">
        <ele>1044.61</ele>
        <time>2016-07-01T08:30:00Z</time>
      </trkpt>
      <trkpt lat="42.51153" lon="2.17946">
        <ele>1044.61</ele>
        <time>2016-07-01T08:30:01Z</time>
      </trkpt>
      <trkpt lat="42.51155" lon="2.17947">
        <ele>1044.61</ele>
        <time>2016-07-01T08:30:02Z</time>
      </trkpt>
      <trkpt lat="42.51155" lon="2.17949">
        <ele>1044.61</ele>
        <time>2016-07-01T08:30:03Z</time>
      </trkpt>
      <trkpt lat="42.51155" lon="2.17951">
        <ele>1044.61</ele>
        <time>2016-07-01T08:30:04Z</time>
      </trkpt>
      <trkpt lat="42.51156" lon="2.17952">
        <ele>1044.61</ele>
        <time>2016-07-01T08:30:05Z</time>
      </trkpt>
      <trkpt lat="42.51157" lon="2.17954">
        <ele>1044.61</ele>
        <time>2016-07-01T08:30:06Z</time>
      </trkpt>
      <trkpt lat="42.51158" lon="2.17955">
        <ele>1044.61</ele>
        <time>2016-07-01T08:30:07Z</time>
      </trkpt>
      <trkpt lat="42.51158" lon="2.17956">
        <ele>1044.61</ele>
        <time>2016-07-01T08:30:08Z</time>
      </trkpt>
      <trkpt lat="42.51159" lon="2.17958">
        <ele>1044.61</ele>
        <time>2016-07-01T08:30:09Z</time>
      </trkpt>
      <trkpt lat="42.51159" lon="2.1796">
        <ele>1044.61</ele>
        <time>2016-07-01T08:30:10Z</time>
      </trkpt>
      <trkpt lat="42.5116" lon="2.17962">
        <ele>1044.13</ele>
        <time>2016-07-01T08:30:11Z</time>
      </trkpt>
      <trkpt lat="42.51161" lon="2.17963">
        <ele>1044.13</ele>
        <time>2016-07-01T08:30:12Z</time>
      </trkpt>
      <trkpt lat="42.51162" lon="2.17965">
        <ele>1044.13</ele>
        <time>2016-07-01T08:30:13Z</time>
      </trkpt>
      <trkpt lat="42.51162" lon="2.17967">
        <ele>1044.13</ele>
        <time>2016-07-01T08:30:14Z</time>
      </trkpt>
      <trkpt lat="42.51162" lon="2.17968">
        <ele>1045.09</ele>
        <time>2016-07-01T08:30:15Z</time>
      </trkpt>
      <trkpt lat="42.51163" lon="2.1797">
        <ele>1044.61</ele>
        <time>2016-07-01T08:30:16Z</time>
      </trkpt>
      <trkpt lat="42.51163" lon="2.17972">
        <ele>1044.61</ele>
        <time>2016-07-01T08:30:17Z</time>
      </trkpt>
      <trkpt lat="42.51164" lon="2.17975">
        <ele>1044.61</ele>
        <time>2016-07-01T08:30:19Z</time>
      </trkpt>
      <trkpt lat="42.51165" lon="2.17976">
        <ele>1044.61</ele>
        <time>2016-07-01T08:30:20Z</time>
      </trkpt>
      <trkpt lat="42.51165" lon="2.17979">
        <ele>1044.61</ele>
        <time>2016-07-01T08:30:21Z</time>
      </trkpt>
      <trkpt lat="42.51165" lon="2.17981">
        <ele>1045.57</ele>
        <time>2016-07-01T08:30:22Z</time>
      </trkpt>
      <trkpt lat="42.51165" lon="2.17983">
        <ele>1045.57</ele>
        <time>2016-07-01T08:30:23Z</time>
      </trkpt>
      <trkpt lat="42.51165" lon="2.17985">
        <ele>1045.09</ele>
        <time>2016-07-01T08:30:24Z</time>
      </trkpt>
      <trkpt lat="42.51167" lon="2.17985">
        <ele>1045.09</ele>
        <time>2016-07-01T08:30:25Z</time>
      </trkpt>
      <trkpt lat="42.51168" lon="2.17987">
        <ele>1045.09</ele>
        <time>2016-07-01T08:30:26Z</time>
      </trkpt>
      <trkpt lat="42.51169" lon="2.17988">
        <ele>1045.09</ele>
        <time>2016-07-01T08:30:27Z</time>
      </trkpt>
      <trkpt lat="42.5117" lon="2.1799">
        <ele>1046.05</ele>
        <time>2016-07-01T08:30:28Z</time>
      </trkpt>
      <trkpt lat="42.5117" lon="2.17991">
        <ele>1045.57</ele>
        <time>2016-07-01T08:30:29Z</time>
      </trkpt>
      <trkpt lat="42.51171" lon="2.17993">
        <ele>1045.57</ele>
        <time>2016-07-01T08:30:30Z</time>
      </trkpt>
      <trkpt lat="42.51172" lon="2.17994">
        <ele>1045.57</ele>
        <time>2016-07-01T08:30:31Z</time>
      </trkpt>
      <trkpt lat="42.51172" lon="2.17996">
        <ele>1045.57</ele>
        <time>2016-07-01T08:30:32Z</time>
      </trkpt>
      <trkpt lat="42.51172" lon="2.17998">
        <ele>1046.05</ele>
        <time>2016-07-01T08:30:33Z</time>
      </trkpt>
      <trkpt lat="42.51173" lon="2.18">
        <ele>1046.53</ele>
        <time>2016-07-01T08:30:34Z</time>
      </trkpt>
      <trkpt lat="42.51173" lon="2.18002">
        <ele>1046.53</ele>
        <time>2016-07-01T08:30:35Z</time>
      </trkpt>
      <trkpt lat="42.51174" lon="2.18003">
        <ele>1046.53</ele>
        <time>2016-07-01T08:30:36Z</time>
      </trkpt>
      <trkpt lat="42.51174" lon="2.18005">
        <ele>1046.53</ele>
        <time>2016-07-01T08:30:37Z</time>
      </trkpt>
      <trkpt lat="42.51174" lon="2.18007">
        <ele>1046.53</ele>
        <time>2016-07-01T08:30:38Z</time>
      </trkpt>
      <trkpt lat="42.51173" lon="2.18009">
        <ele>1047.01</ele>
        <time>2016-07-01T08:30:39Z</time>
      </trkpt>
      <trkpt lat="42.51173" lon="2.18011">
        <ele>1047.01</ele>
        <time>2016-07-01T08:30:40Z</time>
      </trkpt>
      <trkpt lat="42.51174" lon="2.18011">
        <ele>1047.01</ele>
        <time>2016-07-01T08:30:41Z</time>
      </trkpt>
      <trkpt lat="42.51174" lon="2.18014">
        <ele>1047.01</ele>
        <time>2016-07-01T08:30:42Z</time>
      </trkpt>
      <trkpt lat="42.51172" lon="2.18031">
        <ele>1047.97</ele>
        <time>2016-07-01T08:30:52Z</time>
      </trkpt>
      <trkpt lat="42.51171" lon="2.18033">
        <ele>1047.97</ele>
        <time>2016-07-01T08:30:53Z</time>
      </trkpt>
      <trkpt lat="42.5117" lon="2.18036">
        <ele>1047.97</ele>
        <time>2016-07-01T08:30:54Z</time>
      </trkpt>
      <trkpt lat="42.51162" lon="2.18053">
        <ele>1047.97</ele>
        <time>2016-07-01T08:31:03Z</time>
      </trkpt>
      <trkpt lat="42.51162" lon="2.18066">
        <ele>1047.97</ele>
        <time>2016-07-01T08:31:10Z</time>
      </trkpt>
      <trkpt lat="42.51157" lon="2.1808">
        <ele>1047.49</ele>
        <time>2016-07-01T08:31:18Z</time>
      </trkpt>
      <trkpt lat="42.51164" lon="2.18083">
        <ele>1047.49</ele>
        <time>2016-07-01T08:31:32Z</time>
      </trkpt>
      <trkpt lat="42.51164" lon="2.18085">
        <ele>1047.49</ele>
        <time>2016-07-01T08:31:41Z</time>
      </trkpt>
      <trkpt lat="42.51163" lon="2.18088">
        <ele>1047.49</ele>
        <time>2016-07-01T08:31:42Z</time>
      </trkpt>
      <trkpt lat="42.51162" lon="2.18089">
        <ele>1047.49</ele>
        <time>2016-07-01T08:31:43Z</time>
      </trkpt>
      <trkpt lat="42.51163" lon="2.1809">
        <ele>1047.49</ele>
        <time>2016-07-01T08:31:44Z</time>
      </trkpt>
      <trkpt lat="42.51162" lon="2.18092">
        <ele>1047.49</ele>
        <time>2016-07-01T08:31:45Z</time>
      </trkpt>
      <trkpt lat="42.51169" lon="2.18097">
        <ele>1047.49</ele>
        <time>2016-07-01T08:31:50Z</time>
      </trkpt>
      <trkpt lat="42.5117" lon="2.18099">
        <ele>1047.49</ele>
        <time>2016-07-01T08:31:51Z</time>
      </trkpt>
      <trkpt lat="42.5117" lon="2.1811">
        <ele>1046.53</ele>
        <time>2016-07-01T08:31:57Z</time>
      </trkpt>
      <trkpt lat="42.5117" lon="2.18112">
        <ele>1046.53</ele>
        <time>2016-07-01T08:31:58Z</time>
      </trkpt>
      <trkpt lat="42.51169" lon="2.18113">
        <ele>1046.53</ele>
        <time>2016-07-01T08:31:59Z</time>
      </trkpt>
      <trkpt lat="42.51169" lon="2.18115">
        <ele>1046.05</ele>
        <time>2016-07-01T08:32:00Z</time>
      </trkpt>
      <trkpt lat="42.51169" lon="2.18117">
        <ele>1046.05</ele>
        <time>2016-07-01T08:32:01Z</time>
      </trkpt>
      <trkpt lat="42.51165" lon="2.18133">
        <ele>1046.05</ele>
        <time>2016-07-01T08:32:10Z</time>
      </trkpt>
      <trkpt lat="42.51166" lon="2.18135">
        <ele>1046.05</ele>
        <time>2016-07-01T08:32:11Z</time>
      </trkpt>
      <trkpt lat="42.51164" lon="2.18141">
        <ele>1045.57</ele>
        <time>2016-07-01T08:32:14Z</time>
      </trkpt>
      <trkpt lat="42.51165" lon="2.18142">
        <ele>1045.57</ele>
        <time>2016-07-01T08:32:15Z</time>
      </trkpt>
      <trkpt lat="42.51166" lon="2.18143">
        <ele>1045.57</ele>
        <time>2016-07-01T08:32:16Z</time>
      </trkpt>
      <trkpt lat="42.51167" lon="2.18146">
        <ele>1045.57</ele>
        <time>2016-07-01T08:32:18Z</time>
      </trkpt>
      <trkpt lat="42.51168" lon="2.18147">
        <ele>1045.57</ele>
        <time>2016-07-01T08:32:19Z</time>
      </trkpt>
      <trkpt lat="42.51168" lon="2.18149">
        <ele>1045.57</ele>
        <time>2016-07-01T08:32:20Z</time>
      </trkpt>
      <trkpt lat="42.51168" lon="2.18151">
        <ele>1045.57</ele>
        <time>2016-07-01T08:32:21Z</time>
      </trkpt>
      <trkpt lat="42.51169" lon="2.18153">
        <ele>1045.57</ele>
        <time>2016-07-01T08:32:22Z</time>
      </trkpt>
      <trkpt lat="42.51169" lon="2.18154">
        <ele>1045.57</ele>
        <time>2016-07-01T08:32:23Z</time>
      </trkpt>
      <trkpt lat="42.5117" lon="2.18156">
        <ele>1045.57</ele>
        <time>2016-07-01T08:32:24Z</time>
      </trkpt>
      <trkpt lat="42.51171" lon="2.18157">
        <ele>1045.57</ele>
        <time>2016-07-01T08:32:25Z</time>
      </trkpt>
      <trkpt lat="42.51172" lon="2.18159">
        <ele>1045.57</ele>
        <time>2016-07-01T08:32:26Z</time>
      </trkpt>
      <trkpt lat="42.51173" lon="2.18161">
        <ele>1045.57</ele>
        <time>2016-07-01T08:32:27Z</time>
      </trkpt>
      <trkpt lat="42.51174" lon="2.18161">
        <ele>1045.57</ele>
        <time>2016-07-01T08:32:28Z</time>
      </trkpt>
      <trkpt lat="42.51176" lon="2.18162">
        <ele>1045.57</ele>
        <time>2016-07-01T08:32:29Z</time>
      </trkpt>
      <trkpt lat="42.51178" lon="2.18166">
        <ele>1045.57</ele>
        <time>2016-07-01T08:32:32Z</time>
      </trkpt>
      <trkpt lat="42.51178" lon="2.18168">
        <ele>1045.57</ele>
        <time>2016-07-01T08:32:33Z</time>
      </trkpt>
      <trkpt lat="42.5118" lon="2.18169">
        <ele>1045.57</ele>
        <time>2016-07-01T08:32:34Z</time>
      </trkpt>
      <trkpt lat="42.51181" lon="2.1817">
        <ele>1045.57</ele>
        <time>2016-07-01T08:32:35Z</time>
      </trkpt>
      <trkpt lat="42.51182" lon="2.18172">
        <ele>1045.57</ele>
        <time>2016-07-01T08:32:36Z</time>
      </trkpt>
      <trkpt lat="42.51183" lon="2.18173">
        <ele>1046.53</ele>
        <time>2016-07-01T08:32:37Z</time>
      </trkpt>
      <trkpt lat="42.51183" lon="2.18175">
        <ele>1046.53</ele>
        <time>2016-07-01T08:32:38Z</time>
      </trkpt>
      <trkpt lat="42.51184" lon="2.18177">
        <ele>1047.01</ele>
        <time>2016-07-01T08:32:39Z</time>
      </trkpt>
      <trkpt lat="42.51185" lon="2.18178">
        <ele>1047.01</ele>
        <time>2016-07-01T08:32:40Z</time>
      </trkpt>
      <trkpt lat="42.51186" lon="2.18179">
        <ele>1047.01</ele>
        <time>2016-07-01T08:32:41Z</time>
      </trkpt>
      <trkpt lat="42.51188" lon="2.18182">
        <ele>1047.01</ele>
        <time>2016-07-01T08:32:43Z</time>
      </trkpt>
      <trkpt lat="42.51189" lon="2.18183">
        <ele>1047.01</ele>
        <time>2016-07-01T08:32:44Z</time>
      </trkpt>
      <trkpt lat="42.51189" lon="2.18186">
        <ele>1047.01</ele>
        <time>2016-07-01T08:32:45Z</time>
      </trkpt>
      <trkpt lat="42.5119" lon="2.18188">
        <ele>1047.49</ele>
        <time>2016-07-01T08:32:46Z</time>
      </trkpt>
      <trkpt lat="42.5119" lon="2.1819">
        <ele>1047.49</ele>
        <time>2016-07-01T08:32:47Z</time>
      </trkpt>
      <trkpt lat="42.5119" lon="2.18191">
        <ele>1047.49</ele>
        <time>2016-07-01T08:32:48Z</time>
      </trkpt>
      <trkpt lat="42.51191" lon="2.18193">
        <ele>1047.49</ele>
        <time>2016-07-01T08:32:49Z</time>
      </trkpt>
      <trkpt lat="42.51191" lon="2.18195">
        <ele>1047.49</ele>
        <time>2016-07-01T08:32:50Z</time>
      </trkpt>
      <trkpt lat="42.51192" lon="2.18196">
        <ele>1047.97</ele>
        <time>2016-07-01T08:32:51Z</time>
      </trkpt>
      <trkpt lat="42.51193" lon="2.18198">
        <ele>1047.97</ele>
        <time>2016-07-01T08:32:52Z</time>
      </trkpt>
      <trkpt lat="42.51193" lon="2.182">
        <ele>1047.97</ele>
        <time>2016-07-01T08:32:53Z</time>
      </trkpt>
      <trkpt lat="42.51194" lon="2.18203">
        <ele>1047.97</ele>
        <time>2016-07-01T08:32:55Z</time>
      </trkpt>
      <trkpt lat="42.51194" lon="2.18205">
        <ele>1047.97</ele>
        <time>2016-07-01T08:32:56Z</time>
      </trkpt>
      <trkpt lat="42.51194" lon="2.18207">
        <ele>1047.97</ele>
        <time>2016-07-01T08:32:57Z</time>
      </trkpt>
      <trkpt lat="42.51194" lon="2.1821">
        <ele>1047.97</ele>
        <time>2016-07-01T08:32:58Z</time>
      </trkpt>
      <trkpt lat="42.51195" lon="2.18211">
        <ele>1047.97</ele>
        <time>2016-07-01T08:32:59Z</time>
      </trkpt>
      <trkpt lat="42.51196" lon="2.18214">
        <ele>1048.45</ele>
        <time>2016-07-01T08:33:04Z</time>
      </trkpt>
      <trkpt lat="42.51197" lon="2.18216">
        <ele>1048.45</ele>
        <time>2016-07-01T08:33:06Z</time>
      </trkpt>
      <trkpt lat="42.51198" lon="2.18218">
        <ele>1048.45</ele>
        <time>2016-07-01T08:33:07Z</time>
      </trkpt>
      <trkpt lat="42.51199" lon="2.1822">
        <ele>1048.45</ele>
        <time>2016-07-01T08:33:08Z</time>
      </trkpt>
      <trkpt lat="42.51199" lon="2.18222">
        <ele>1048.45</ele>
        <time>2016-07-01T08:33:09Z</time>
      </trkpt>
      <trkpt lat="42.512" lon="2.18224">
        <ele>1048.45</ele>
        <time>2016-07-01T08:33:10Z</time>
      </trkpt>
      <trkpt lat="42.51201" lon="2.18225">
        <ele>1048.45</ele>
        <time>2016-07-01T08:33:11Z</time>
      </trkpt>
      <trkpt lat="42.51201" lon="2.18227">
        <ele>1048.45</ele>
        <time>2016-07-01T08:33:12Z</time>
      </trkpt>
      <trkpt lat="42.51201" lon="2.18229">
        <ele>1048.45</ele>
        <time>2016-07-01T08:33:13Z</time>
      </trkpt>
      <trkpt lat="42.51202" lon="2.18233">
        <ele>1048.94</ele>
        <time>2016-07-01T08:33:15Z</time>
      </trkpt>
      <trkpt lat="42.51203" lon="2.18235">
        <ele>1048.94</ele>
        <time>2016-07-01T08:33:16Z</time>
      </trkpt>
      <trkpt lat="42.51205" lon="2.18245">
        <ele>1048.94</ele>
        <time>2016-07-01T08:33:22Z</time>
      </trkpt>
      <trkpt lat="42.51205" lon="2.18247">
        <ele>1049.42</ele>
        <time>2016-07-01T08:33:23Z</time>
      </trkpt>
      <trkpt lat="42.51206" lon="2.18249">
        <ele>1049.42</ele>
        <time>2016-07-01T08:33:24Z</time>
      </trkpt>
      <trkpt lat="42.51207" lon="2.1825">
        <ele>1049.42</ele>
        <time>2016-07-01T08:33:25Z</time>
      </trkpt>
      <trkpt lat="42.51208" lon="2.18251">
        <ele>1049.42</ele>
        <time>2016-07-01T08:33:26Z</time>
      </trkpt>
      <trkpt lat="42.51209" lon="2.18253">
        <ele>1049.42</ele>
        <time>2016-07-01T08:33:27Z</time>
      </trkpt>
      <trkpt lat="42.5121" lon="2.18254">
        <ele>1049.42</ele>
        <time>2016-07-01T08:33:28Z</time>
      </trkpt>
      <trkpt lat="42.51211" lon="2.18256">
        <ele>1049.42</ele>
        <time>2016-07-01T08:33:29Z</time>
      </trkpt>
      <trkpt lat="42.51212" lon="2.18257">
        <ele>1049.42</ele>
        <time>2016-07-01T08:33:30Z</time>
      </trkpt>
      <trkpt lat="42.51212" lon="2.18259">
        <ele>1049.42</ele>
        <time>2016-07-01T08:33:31Z</time>
      </trkpt>
      <trkpt lat="42.51212" lon="2.18261">
        <ele>1049.9</ele>
        <time>2016-07-01T08:33:32Z</time>
      </trkpt>
      <trkpt lat="42.51213" lon="2.18262">
        <ele>1049.9</ele>
        <time>2016-07-01T08:33:33Z</time>
      </trkpt>
      <trkpt lat="42.51214" lon="2.18263">
        <ele>1049.9</ele>
        <time>2016-07-01T08:33:34Z</time>
      </trkpt>
      <trkpt lat="42.51215" lon="2.18265">
        <ele>1049.9</ele>
        <time>2016-07-01T08:33:35Z</time>
      </trkpt>
      <trkpt lat="42.51216" lon="2.18266">
        <ele>1049.9</ele>
        <time>2016-07-01T08:33:36Z</time>
      </trkpt>
      <trkpt lat="42.51217" lon="2.18268">
        <ele>1049.9</ele>
        <time>2016-07-01T08:33:37Z</time>
      </trkpt>
      <trkpt lat="42.51217" lon="2.18269">
        <ele>1049.9</ele>
        <time>2016-07-01T08:33:38Z</time>
      </trkpt>
      <trkpt lat="42.51218" lon="2.1827">
        <ele>1050.38</ele>
        <time>2016-07-01T08:33:39Z</time>
      </trkpt>
      <trkpt lat="42.51219" lon="2.18272">
        <ele>1050.38</ele>
        <time>2016-07-01T08:33:40Z</time>
      </trkpt>
      <trkpt lat="42.51219" lon="2.18274">
        <ele>1050.38</ele>
        <time>2016-07-01T08:33:41Z</time>
      </trkpt>
      <trkpt lat="42.5122" lon="2.18275">
        <ele>1050.38</ele>
        <time>2016-07-01T08:33:42Z</time>
      </trkpt>
      <trkpt lat="42.51221" lon="2.18277">
        <ele>1050.38</ele>
        <time>2016-07-01T08:33:43Z</time>
      </trkpt>
      <trkpt lat="42.51221" lon="2.18278">
        <ele>1050.38</ele>
        <time>2016-07-01T08:33:44Z</time>
      </trkpt>
      <trkpt lat="42.51222" lon="2.18281">
        <ele>1050.38</ele>
        <time>2016-07-01T08:33:46Z</time>
      </trkpt>
      <trkpt lat="42.51223" lon="2.18283">
        <ele>1050.86</ele>
        <time>2016-07-01T08:33:47Z</time>
      </trkpt>
      <trkpt lat="42.51224" lon="2.18285">
        <ele>1050.86</ele>
        <time>2016-07-01T08:33:48Z</time>
      </trkpt>
      <trkpt lat="42.51223" lon="2.18288">
        <ele>1050.86</ele>
        <time>2016-07-01T08:33:49Z</time>
      </trkpt>
      <trkpt lat="42.51222" lon="2.18291">
        <ele>1050.86</ele>
        <time>2016-07-01T08:33:50Z</time>
      </trkpt>
      <trkpt lat="42.51224" lon="2.18293">
        <ele>1050.86</ele>
        <time>2016-07-01T08:33:51Z</time>
      </trkpt>
      <trkpt lat="42.51224" lon="2.18295">
        <ele>1050.86</ele>
        <time>2016-07-01T08:33:52Z</time>
      </trkpt>
      <trkpt lat="42.51224" lon="2.18296">
        <ele>1050.86</ele>
        <time>2016-07-01T08:33:53Z</time>
      </trkpt>
      <trkpt lat="42.51224" lon="2.18298">
        <ele>1051.34</ele>
        <time>2016-07-01T08:33:54Z</time>
      </trkpt>
      <trkpt lat="42.51225" lon="2.18299">
        <ele>1051.34</ele>
        <time>2016-07-01T08:33:55Z</time>
      </trkpt>
      <trkpt lat="42.51225" lon="2.18301">
        <ele>1051.34</ele>
        <time>2016-07-01T08:33:56Z</time>
      </trkpt>
      <trkpt lat="42.51226" lon="2.18303">
        <ele>1051.34</ele>
        <time>2016-07-01T08:33:57Z</time>
      </trkpt>
      <trkpt lat="42.51228" lon="2.18306">
        <ele>1051.34</ele>
        <time>2016-07-01T08:33:59Z</time>
      </trkpt>
      <trkpt lat="42.51229" lon="2.18307">
        <ele>1051.34</ele>
        <time>2016-07-01T08:34:00Z</time>
      </trkpt>
      <trkpt lat="42.51229" lon="2.1831">
        <ele>1051.82</ele>
        <time>2016-07-01T08:34:01Z</time>
      </trkpt>
      <trkpt lat="42.51229" lon="2.18312">
        <ele>1051.82</ele>
        <time>2016-07-01T08:34:02Z</time>
      </trkpt>
      <trkpt lat="42.51229" lon="2.18314">
        <ele>1051.82</ele>
        <time>2016-07-01T08:34:03Z</time>
      </trkpt>
      <trkpt lat="42.51228" lon="2.18316">
        <ele>1051.82</ele>
        <time>2016-07-01T08:34:04Z</time>
      </trkpt>
      <trkpt lat="42.51228" lon="2.18318">
        <ele>1051.82</ele>
        <time>2016-07-01T08:34:05Z</time>
      </trkpt>
      <trkpt lat="42.5123" lon="2.18319">
        <ele>1051.82</ele>
        <time>2016-07-01T08:34:06Z</time>
      </trkpt>
      <trkpt lat="42.51231" lon="2.18321">
        <ele>1051.82</ele>
        <time>2016-07-01T08:34:07Z</time>
      </trkpt>
      <trkpt lat="42.51231" lon="2.18323">
        <ele>1051.82</ele>
        <time>2016-07-01T08:34:08Z</time>
      </trkpt>
      <trkpt lat="42.51232" lon="2.18325">
        <ele>1051.82</ele>
        <time>2016-07-01T08:34:09Z</time>
      </trkpt>
      <trkpt lat="42.51234" lon="2.18331">
        <ele>1052.3</ele>
        <time>2016-07-01T08:34:13Z</time>
      </trkpt>
      <trkpt lat="42.51234" lon="2.18333">
        <ele>1052.3</ele>
        <time>2016-07-01T08:34:14Z</time>
      </trkpt>
      <trkpt lat="42.51235" lon="2.18335">
        <ele>1052.3</ele>
        <time>2016-07-01T08:34:15Z</time>
      </trkpt>
      <trkpt lat="42.51235" lon="2.18337">
        <ele>1052.78</ele>
        <time>2016-07-01T08:34:16Z</time>
      </trkpt>
      <trkpt lat="42.51235" lon="2.1834">
        <ele>1052.78</ele>
        <time>2016-07-01T08:34:17Z</time>
      </trkpt>
      <trkpt lat="42.51236" lon="2.18341">
        <ele>1052.78</ele>
        <time>2016-07-01T08:34:18Z</time>
      </trkpt>
      <trkpt lat="42.51237" lon="2.18342">
        <ele>1052.78</ele>
        <time>2016-07-01T08:34:19Z</time>
      </trkpt>
      <trkpt lat="42.51238" lon="2.18344">
        <ele>1052.78</ele>
        <time>2016-07-01T08:34:20Z</time>
      </trkpt>
      <trkpt lat="42.51239" lon="2.18346">
        <ele>1052.78</ele>
        <time>2016-07-01T08:34:21Z</time>
      </trkpt>
      <trkpt lat="42.51238" lon="2.18348">
        <ele>1052.78</ele>
        <time>2016-07-01T08:34:22Z</time>
      </trkpt>
      <trkpt lat="42.51238" lon="2.1835">
        <ele>1052.78</ele>
        <time>2016-07-01T08:34:23Z</time>
      </trkpt>
      <trkpt lat="42.51237" lon="2.18353">
        <ele>1052.78</ele>
        <time>2016-07-01T08:34:25Z</time>
      </trkpt>
      <trkpt lat="42.51239" lon="2.18355">
        <ele>1053.26</ele>
        <time>2016-07-01T08:34:26Z</time>
      </trkpt>
      <trkpt lat="42.5124" lon="2.18357">
        <ele>1053.26</ele>
        <time>2016-07-01T08:34:27Z</time>
      </trkpt>
      <trkpt lat="42.51241" lon="2.18359">
        <ele>1053.26</ele>
        <time>2016-07-01T08:34:28Z</time>
      </trkpt>
      <trkpt lat="42.51241" lon="2.18361">
        <ele>1053.26</ele>
        <time>2016-07-01T08:34:29Z</time>
      </trkpt>
      <trkpt lat="42.51241" lon="2.18364">
        <ele>1053.26</ele>
        <time>2016-07-01T08:34:30Z</time>
      </trkpt>
      <trkpt lat="42.51241" lon="2.18366">
        <ele>1053.26</ele>
        <time>2016-07-01T08:34:31Z</time>
      </trkpt>
      <trkpt lat="42.51243" lon="2.18382">
        <ele>1053.26</ele>
        <time>2016-07-01T08:34:39Z</time>
      </trkpt>
      <trkpt lat="42.51243" lon="2.18384">
        <ele>1053.26</ele>
        <time>2016-07-01T08:34:40Z</time>
      </trkpt>
      <trkpt lat="42.51243" lon="2.18387">
        <ele>1053.26</ele>
        <time>2016-07-01T08:34:42Z</time>
      </trkpt>
      <trkpt lat="42.51244" lon="2.18389">
        <ele>1053.26</ele>
        <time>2016-07-01T08:34:43Z</time>
      </trkpt>
      <trkpt lat="42.51243" lon="2.18391">
        <ele>1053.26</ele>
        <time>2016-07-01T08:34:44Z</time>
      </trkpt>
      <trkpt lat="42.51243" lon="2.18394">
        <ele>1053.26</ele>
        <time>2016-07-01T08:34:46Z</time>
      </trkpt>
      <trkpt lat="42.51243" lon="2.18396">
        <ele>1053.26</ele>
        <time>2016-07-01T08:34:47Z</time>
      </trkpt>
      <trkpt lat="42.51243" lon="2.18398">
        <ele>1053.26</ele>
        <time>2016-07-01T08:34:48Z</time>
      </trkpt>
      <trkpt lat="42.51244" lon="2.18406">
        <ele>1053.26</ele>
        <time>2016-07-01T08:34:52Z</time>
      </trkpt>
      <trkpt lat="42.51244" lon="2.18408">
        <ele>1053.26</ele>
        <time>2016-07-01T08:34:53Z</time>
      </trkpt>
      <trkpt lat="42.51245" lon="2.1841">
        <ele>1053.26</ele>
        <time>2016-07-01T08:34:54Z</time>
      </trkpt>
      <trkpt lat="42.51246" lon="2.18411">
        <ele>1053.26</ele>
        <time>2016-07-01T08:34:55Z</time>
      </trkpt>
      <trkpt lat="42.51247" lon="2.18413">
        <ele>1053.26</ele>
        <time>2016-07-01T08:34:56Z</time>
      </trkpt>
      <trkpt lat="42.51247" lon="2.18415">
        <ele>1053.26</ele>
        <time>2016-07-01T08:34:57Z</time>
      </trkpt>
      <trkpt lat="42.51247" lon="2.18418">
        <ele>1053.26</ele>
        <time>2016-07-01T08:34:58Z</time>
      </trkpt>
      <trkpt lat="42.51248" lon="2.1842">
        <ele>1052.3</ele>
        <time>2016-07-01T08:34:59Z</time>
      </trkpt>
      <trkpt lat="42.51249" lon="2.18421">
        <ele>1052.3</ele>
        <time>2016-07-01T08:35:00Z</time>
      </trkpt>
      <trkpt lat="42.5125" lon="2.18423">
        <ele>1052.3</ele>
        <time>2016-07-01T08:35:01Z</time>
      </trkpt>
      <trkpt lat="42.51252" lon="2.18424">
        <ele>1052.3</ele>
        <time>2016-07-01T08:35:02Z</time>
      </trkpt>
      <trkpt lat="42.51253" lon="2.18425">
        <ele>1051.82</ele>
        <time>2016-07-01T08:35:03Z</time>
      </trkpt>
      <trkpt lat="42.51254" lon="2.18426">
        <ele>1051.82</ele>
        <time>2016-07-01T08:35:04Z</time>
      </trkpt>
      <trkpt lat="42.51255" lon="2.18426">
        <ele>1051.82</ele>
        <time>2016-07-01T08:35:05Z</time>
      </trkpt>
      <trkpt lat="42.51256" lon="2.18427">
        <ele>1051.82</ele>
        <time>2016-07-01T08:35:06Z</time>
      </trkpt>
      <trkpt lat="42.51257" lon="2.18427">
        <ele>1051.82</ele>
        <time>2016-07-01T08:35:07Z</time>
      </trkpt>
      <trkpt lat="42.51258" lon="2.18428">
        <ele>1051.82</ele>
        <time>2016-07-01T08:35:08Z</time>
      </trkpt>
      <trkpt lat="42.51262" lon="2.18431">
        <ele>1051.82</ele>
        <time>2016-07-01T08:35:12Z</time>
      </trkpt>
      <trkpt lat="42.51262" lon="2.18433">
        <ele>1051.82</ele>
        <time>2016-07-01T08:35:13Z</time>
      </trkpt>
      <trkpt lat="42.51263" lon="2.18434">
        <ele>1051.82</ele>
        <time>2016-07-01T08:35:14Z</time>
      </trkpt>
      <trkpt lat="42.51264" lon="2.18435">
        <ele>1051.34</ele>
        <time>2016-07-01T08:35:15Z</time>
      </trkpt>
      <trkpt lat="42.51264" lon="2.18437">
        <ele>1051.34</ele>
        <time>2016-07-01T08:35:16Z</time>
      </trkpt>
      <trkpt lat="42.51265" lon="2.18438">
        <ele>1051.34</ele>
        <time>2016-07-01T08:35:17Z</time>
      </trkpt>
      <trkpt lat="42.51265" lon="2.18439">
        <ele>1050.86</ele>
        <time>2016-07-01T08:35:26Z</time>
      </trkpt>
      <trkpt lat="42.51267" lon="2.18438">
        <ele>1050.86</ele>
        <time>2016-07-01T08:35:43Z</time>
      </trkpt>
      <trkpt lat="42.5127" lon="2.18442">
        <ele>1050.86</ele>
        <time>2016-07-01T08:35:57Z</time>
      </trkpt>
      <trkpt lat="42.51271" lon="2.18443">
        <ele>1050.86</ele>
        <time>2016-07-01T08:35:58Z</time>
      </trkpt>
      <trkpt lat="42.51272" lon="2.18445">
        <ele>1050.86</ele>
        <time>2016-07-01T08:35:59Z</time>
      </trkpt>
      <trkpt lat="42.51273" lon="2.18447">
        <ele>1050.86</ele>
        <time>2016-07-01T08:36:00Z</time>
      </trkpt>
      <trkpt lat="42.51274" lon="2.18449">
        <ele>1050.86</ele>
        <time>2016-07-01T08:36:01Z</time>
      </trkpt>
      <trkpt lat="42.51274" lon="2.1845">
        <ele>1050.38</ele>
        <time>2016-07-01T08:36:02Z</time>
      </trkpt>
      <trkpt lat="42.51274" lon="2.18452">
        <ele>1050.38</ele>
        <time>2016-07-01T08:36:03Z</time>
      </trkpt>
      <trkpt lat="42.51274" lon="2.18454">
        <ele>1050.38</ele>
        <time>2016-07-01T08:36:04Z</time>
      </trkpt>
      <trkpt lat="42.51275" lon="2.18456">
        <ele>1050.38</ele>
        <time>2016-07-01T08:36:05Z</time>
      </trkpt>
      <trkpt lat="42.51275" lon="2.18458">
        <ele>1050.38</ele>
        <time>2016-07-01T08:36:06Z</time>
      </trkpt>
      <trkpt lat="42.51277" lon="2.18459">
        <ele>1050.38</ele>
        <time>2016-07-01T08:36:07Z</time>
      </trkpt>
      <trkpt lat="42.51277" lon="2.18461">
        <ele>1050.38</ele>
        <time>2016-07-01T08:36:08Z</time>
      </trkpt>
      <trkpt lat="42.51278" lon="2.18463">
        <ele>1049.9</ele>
        <time>2016-07-01T08:36:09Z</time>
      </trkpt>
      <trkpt lat="42.51279" lon="2.18465">
        <ele>1049.9</ele>
        <time>2016-07-01T08:36:10Z</time>
      </trkpt>
      <trkpt lat="42.51279" lon="2.18466">
        <ele>1049.9</ele>
        <time>2016-07-01T08:36:11Z</time>
      </trkpt>
      <trkpt lat="42.5128" lon="2.18468">
        <ele>1049.9</ele>
        <time>2016-07-01T08:36:12Z</time>
      </trkpt>
      <trkpt lat="42.5128" lon="2.18469">
        <ele>1049.42</ele>
        <time>2016-07-01T08:36:13Z</time>
      </trkpt>
      <trkpt lat="42.51281" lon="2.18471">
        <ele>1049.42</ele>
        <time>2016-07-01T08:36:14Z</time>
      </trkpt>
      <trkpt lat="42.51281" lon="2.18472">
        <ele>1049.42</ele>
        <time>2016-07-01T08:36:15Z</time>
      </trkpt>
      <trkpt lat="42.51284" lon="2.18478">
        <ele>1049.42</ele>
        <time>2016-07-01T08:36:19Z</time>
      </trkpt>
      <trkpt lat="42.51285" lon="2.18479">
        <ele>1048.94</ele>
        <time>2016-07-01T08:36:20Z</time>
      </trkpt>
      <trkpt lat="42.51286" lon="2.18481">
        <ele>1048.94</ele>
        <time>2016-07-01T08:36:21Z</time>
      </trkpt>
      <trkpt lat="42.5129" lon="2.18485">
        <ele>1048.94</ele>
        <time>2016-07-01T08:36:24Z</time>
      </trkpt>
      <trkpt lat="42.51291" lon="2.18486">
        <ele>1048.94</ele>
        <time>2016-07-01T08:36:25Z</time>
      </trkpt>
      <trkpt lat="42.51292" lon="2.18487">
        <ele>1048.94</ele>
        <time>2016-07-01T08:36:26Z</time>
      </trkpt>
      <trkpt lat="42.51292" lon="2.18489">
        <ele>1048.94</ele>
        <time>2016-07-01T08:36:27Z</time>
      </trkpt>
      <trkpt lat="42.51293" lon="2.18491">
        <ele>1048.45</ele>
        <time>2016-07-01T08:36:28Z</time>
      </trkpt>
      <trkpt lat="42.51293" lon="2.18493">
        <ele>1048.45</ele>
        <time>2016-07-01T08:36:29Z</time>
      </trkpt>
      <trkpt lat="42.51294" lon="2.18494">
        <ele>1048.45</ele>
        <time>2016-07-01T08:36:30Z</time>
      </trkpt>
      <trkpt lat="42.51294" lon="2.18496">
        <ele>1048.45</ele>
        <time>2016-07-01T08:36:31Z</time>
      </trkpt>
      <trkpt lat="42.51295" lon="2.18497">
        <ele>1048.45</ele>
        <time>2016-07-01T08:36:32Z</time>
      </trkpt>
      <trkpt lat="42.51302" lon="2.18512">
        <ele>1047.49</ele>
        <time>2016-07-01T08:36:40Z</time>
      </trkpt>
      <trkpt lat="42.51303" lon="2.18513">
        <ele>1047.49</ele>
        <time>2016-07-01T08:36:41Z</time>
      </trkpt>
      <trkpt lat="42.51304" lon="2.18515">
        <ele>1047.49</ele>
        <time>2016-07-01T08:36:42Z</time>
      </trkpt>
      <trkpt lat="42.51305" lon="2.18516">
        <ele>1047.49</ele>
        <time>2016-07-01T08:36:43Z</time>
      </trkpt>
      <trkpt lat="42.51306" lon="2.18517">
        <ele>1047.49</ele>
        <time>2016-07-01T08:36:44Z</time>
      </trkpt>
      <trkpt lat="42.51307" lon="2.18519">
        <ele>1047.01</ele>
        <time>2016-07-01T08:36:45Z</time>
      </trkpt>
      <trkpt lat="42.51308" lon="2.18521">
        <ele>1047.01</ele>
        <time>2016-07-01T08:36:46Z</time>
      </trkpt>
      <trkpt lat="42.51308" lon="2.18522">
        <ele>1047.01</ele>
        <time>2016-07-01T08:36:47Z</time>
      </trkpt>
      <trkpt lat="42.51309" lon="2.18524">
        <ele>1047.01</ele>
        <time>2016-07-01T08:36:48Z</time>
      </trkpt>
      <trkpt lat="42.5131" lon="2.18526">
        <ele>1047.01</ele>
        <time>2016-07-01T08:36:49Z</time>
      </trkpt>
      <trkpt lat="42.51313" lon="2.1853">
        <ele>1047.01</ele>
        <time>2016-07-01T08:36:52Z</time>
      </trkpt>
      <trkpt lat="42.51314" lon="2.18531">
        <ele>1047.01</ele>
        <time>2016-07-01T08:36:53Z</time>
      </trkpt>
      <trkpt lat="42.51314" lon="2.18534">
        <ele>1046.05</ele>
        <time>2016-07-01T08:36:54Z</time>
      </trkpt>
      <trkpt lat="42.51315" lon="2.18535">
        <ele>1046.05</ele>
        <time>2016-07-01T08:36:55Z</time>
      </trkpt>
      <trkpt lat="42.51316" lon="2.18537">
        <ele>1046.05</ele>
        <time>2016-07-01T08:36:56Z</time>
      </trkpt>
      <trkpt lat="42.5132" lon="2.18551">
        <ele>1045.57</ele>
        <time>2016-07-01T08:37:03Z</time>
      </trkpt>
      <trkpt lat="42.51321" lon="2.18553">
        <ele>1045.57</ele>
        <time>2016-07-01T08:37:04Z</time>
      </trkpt>
      <trkpt lat="42.51322" lon="2.18555">
        <ele>1045.57</ele>
        <time>2016-07-01T08:37:05Z</time>
      </trkpt>
      <trkpt lat="42.51323" lon="2.18556">
        <ele>1045.57</ele>
        <time>2016-07-01T08:37:06Z</time>
      </trkpt>
      <trkpt lat="42.51323" lon="2.18558">
        <ele>1045.57</ele>
        <time>2016-07-01T08:37:07Z</time>
      </trkpt>
      <trkpt lat="42.51324" lon="2.1856">
        <ele>1045.57</ele>
        <time>2016-07-01T08:37:08Z</time>
      </trkpt>
      <trkpt lat="42.51324" lon="2.18562">
        <ele>1045.57</ele>
        <time>2016-07-01T08:37:09Z</time>
      </trkpt>
      <trkpt lat="42.51325" lon="2.18564">
        <ele>1045.09</ele>
        <time>2016-07-01T08:37:10Z</time>
      </trkpt>
      <trkpt lat="42.51325" lon="2.18566">
        <ele>1045.09</ele>
        <time>2016-07-01T08:37:11Z</time>
      </trkpt>
      <trkpt lat="42.51325" lon="2.18568">
        <ele>1045.09</ele>
        <time>2016-07-01T08:37:12Z</time>
      </trkpt>
      <trkpt lat="42.51326" lon="2.1857">
        <ele>1045.09</ele>
        <time>2016-07-01T08:37:13Z</time>
      </trkpt>
      <trkpt lat="42.51326" lon="2.18572">
        <ele>1045.09</ele>
        <time>2016-07-01T08:37:14Z</time>
      </trkpt>
      <trkpt lat="42.51326" lon="2.18574">
        <ele>1045.09</ele>
        <time>2016-07-01T08:37:15Z</time>
      </trkpt>
      <trkpt lat="42.51327" lon="2.18576">
        <ele>1045.09</ele>
        <time>2016-07-01T08:37:16Z</time>
      </trkpt>
      <trkpt lat="42.51327" lon="2.18579">
        <ele>1044.61</ele>
        <time>2016-07-01T08:37:17Z</time>
      </trkpt>
      <trkpt lat="42.51328" lon="2.18581">
        <ele>1044.61</ele>
        <time>2016-07-01T08:37:18Z</time>
      </trkpt>
      <trkpt lat="42.51329" lon="2.18583">
        <ele>1044.61</ele>
        <time>2016-07-01T08:37:19Z</time>
      </trkpt>
      <trkpt lat="42.51329" lon="2.18585">
        <ele>1044.61</ele>
        <time>2016-07-01T08:37:20Z</time>
      </trkpt>
      <trkpt lat="42.51329" lon="2.18587">
        <ele>1044.61</ele>
        <time>2016-07-01T08:37:21Z</time>
      </trkpt>
      <trkpt lat="42.5133" lon="2.18589">
        <ele>1044.61</ele>
        <time>2016-07-01T08:37:22Z</time>
      </trkpt>
      <trkpt lat="42.5133" lon="2.18591">
        <ele>1044.13</ele>
        <time>2016-07-01T08:37:23Z</time>
      </trkpt>
      <trkpt lat="42.5133" lon="2.18593">
        <ele>1044.13</ele>
        <time>2016-07-01T08:37:24Z</time>
      </trkpt>
      <trkpt lat="42.51331" lon="2.18595">
        <ele>1044.13</ele>
        <time>2016-07-01T08:37:25Z</time>
      </trkpt>
      <trkpt lat="42.51331" lon="2.18596">
        <ele>1044.13</ele>
        <time>2016-07-01T08:37:26Z</time>
      </trkpt>
      <trkpt lat="42.51331" lon="2.18598">
        <ele>1044.13</ele>
        <time>2016-07-01T08:37:27Z</time>
      </trkpt>
      <trkpt lat="42.51331" lon="2.186">
        <ele>1043.65</ele>
        <time>2016-07-01T08:37:28Z</time>
      </trkpt>
      <trkpt lat="42.51331" lon="2.18601">
        <ele>1043.65</ele>
        <time>2016-07-01T08:37:29Z</time>
      </trkpt>
      <trkpt lat="42.51331" lon="2.18603">
        <ele>1043.65</ele>
        <time>2016-07-01T08:37:30Z</time>
      </trkpt>
      <trkpt lat="42.51331" lon="2.18605">
        <ele>1043.65</ele>
        <time>2016-07-01T08:37:31Z</time>
      </trkpt>
      <trkpt lat="42.51331" lon="2.18607">
        <ele>1043.65</ele>
        <time>2016-07-01T08:37:32Z</time>
      </trkpt>
      <trkpt lat="42.5133" lon="2.1861">
        <ele>1043.17</ele>
        <time>2016-07-01T08:37:33Z</time>
      </trkpt>
      <trkpt lat="42.5133" lon="2.18612">
        <ele>1043.17</ele>
        <time>2016-07-01T08:37:34Z</time>
      </trkpt>
      <trkpt lat="42.5133" lon="2.18617">
        <ele>1043.17</ele>
        <time>2016-07-01T08:37:36Z</time>
      </trkpt>
      <trkpt lat="42.51329" lon="2.18619">
        <ele>1043.17</ele>
        <time>2016-07-01T08:37:37Z</time>
      </trkpt>
      <trkpt lat="42.51327" lon="2.18629">
        <ele>1042.21</ele>
        <time>2016-07-01T08:37:42Z</time>
      </trkpt>
      <trkpt lat="42.51327" lon="2.18631">
        <ele>1042.21</ele>
        <time>2016-07-01T08:37:43Z</time>
      </trkpt>
      <trkpt lat="42.51326" lon="2.18633">
        <ele>1042.21</ele>
        <time>2016-07-01T08:37:44Z</time>
      </trkpt>
      <trkpt lat="42.51325" lon="2.18638">
        <ele>1041.73</ele>
        <time>2016-07-01T08:37:47Z</time>
      </trkpt>
      <trkpt lat="42.51325" lon="2.1864">
        <ele>1041.73</ele>
        <time>2016-07-01T08:37:48Z</time>
      </trkpt>
      <trkpt lat="42.51324" lon="2.18649">
        <ele>1041.25</ele>
        <time>2016-07-01T08:37:52Z</time>
      </trkpt>
      <trkpt lat="42.5132" lon="2.18666">
        <ele>1040.76</ele>
        <time>2016-07-01T08:38:00Z</time>
      </trkpt>
      <trkpt lat="42.5132" lon="2.18667">
        <ele>1040.76</ele>
        <time>2016-07-01T08:38:01Z</time>
      </trkpt>
      <trkpt lat="42.51318" lon="2.18674">
        <ele>1040.76</ele>
        <time>2016-07-01T08:38:05Z</time>
      </trkpt>
      <trkpt lat="42.51317" lon="2.18676">
        <ele>1040.76</ele>
        <time>2016-07-01T08:38:06Z</time>
      </trkpt>
      <trkpt lat="42.51316" lon="2.18688">
        <ele>1040.28</ele>
        <time>2016-07-01T08:38:12Z</time>
      </trkpt>
      <trkpt lat="42.51315" lon="2.18691">
        <ele>1039.8</ele>
        <time>2016-07-01T08:38:13Z</time>
      </trkpt>
      <trkpt lat="42.51315" lon="2.18693">
        <ele>1039.8</ele>
        <time>2016-07-01T08:38:14Z</time>
      </trkpt>
      <trkpt lat="42.51315" lon="2.18696">
        <ele>1039.8</ele>
        <time>2016-07-01T08:38:15Z</time>
      </trkpt>
      <trkpt lat="42.51315" lon="2.18698">
        <ele>1039.8</ele>
        <time>2016-07-01T08:38:16Z</time>
      </trkpt>
      <trkpt lat="42.51315" lon="2.187">
        <ele>1039.8</ele>
        <time>2016-07-01T08:38:17Z</time>
      </trkpt>
      <trkpt lat="42.51315" lon="2.18702">
        <ele>1039.8</ele>
        <time>2016-07-01T08:38:18Z</time>
      </trkpt>
      <trkpt lat="42.51315" lon="2.18704">
        <ele>1039.8</ele>
        <time>2016-07-01T08:38:19Z</time>
      </trkpt>
      <trkpt lat="42.51315" lon="2.18707">
        <ele>1038.84</ele>
        <time>2016-07-01T08:38:20Z</time>
      </trkpt>
      <trkpt lat="42.51316" lon="2.18709">
        <ele>1038.84</ele>
        <time>2016-07-01T08:38:21Z</time>
      </trkpt>
      <trkpt lat="42.51316" lon="2.18711">
        <ele>1038.84</ele>
        <time>2016-07-01T08:38:22Z</time>
      </trkpt>
      <trkpt lat="42.51316" lon="2.18713">
        <ele>1038.84</ele>
        <time>2016-07-01T08:38:23Z</time>
      </trkpt>
      <trkpt lat="42.51316" lon="2.18715">
        <ele>1038.84</ele>
        <time>2016-07-01T08:38:24Z</time>
      </trkpt>
      <trkpt lat="42.51317" lon="2.18716">
        <ele>1038.84</ele>
        <time>2016-07-01T08:38:25Z</time>
      </trkpt>
      <trkpt lat="42.51317" lon="2.18718">
        <ele>1038.84</ele>
        <time>2016-07-01T08:38:26Z</time>
      </trkpt>
      <trkpt lat="42.51317" lon="2.1872">
        <ele>1038.84</ele>
        <time>2016-07-01T08:38:27Z</time>
      </trkpt>
      <trkpt lat="42.51317" lon="2.18722">
        <ele>1038.84</ele>
        <time>2016-07-01T08:38:28Z</time>
      </trkpt>
      <trkpt lat="42.51318" lon="2.18723">
        <ele>1038.36</ele>
        <time>2016-07-01T08:38:29Z</time>
      </trkpt>
      <trkpt lat="42.51318" lon="2.18725">
        <ele>1038.36</ele>
        <time>2016-07-01T08:38:30Z</time>
      </trkpt>
      <trkpt lat="42.51318" lon="2.18727">
        <ele>1038.36</ele>
        <time>2016-07-01T08:38:31Z</time>
      </trkpt>
      <trkpt lat="42.51318" lon="2.18729">
        <ele>1038.36</ele>
        <time>2016-07-01T08:38:32Z</time>
      </trkpt>
      <trkpt lat="42.51318" lon="2.18732">
        <ele>1038.36</ele>
        <time>2016-07-01T08:38:33Z</time>
      </trkpt>
      <trkpt lat="42.51318" lon="2.18734">
        <ele>1038.36</ele>
        <time>2016-07-01T08:38:34Z</time>
      </trkpt>
      <trkpt lat="42.51318" lon="2.18736">
        <ele>1038.36</ele>
        <time>2016-07-01T08:38:35Z</time>
      </trkpt>
      <trkpt lat="42.51319" lon="2.18738">
        <ele>1038.36</ele>
        <time>2016-07-01T08:38:36Z</time>
      </trkpt>
      <trkpt lat="42.51319" lon="2.1874">
        <ele>1038.36</ele>
        <time>2016-07-01T08:38:37Z</time>
      </trkpt>
      <trkpt lat="42.5132" lon="2.18743">
        <ele>1038.36</ele>
        <time>2016-07-01T08:38:38Z</time>
      </trkpt>
      <trkpt lat="42.5132" lon="2.18745">
        <ele>1037.88</ele>
        <time>2016-07-01T08:38:39Z</time>
      </trkpt>
      <trkpt lat="42.51321" lon="2.18753">
        <ele>1037.88</ele>
        <time>2016-07-01T08:38:44Z</time>
      </trkpt>
      <trkpt lat="42.51322" lon="2.18754">
        <ele>1037.88</ele>
        <time>2016-07-01T08:38:45Z</time>
      </trkpt>
      <trkpt lat="42.51322" lon="2.18756">
        <ele>1037.88</ele>
        <time>2016-07-01T08:38:46Z</time>
      </trkpt>
      <trkpt lat="42.51322" lon="2.18758">
        <ele>1037.4</ele>
        <time>2016-07-01T08:38:47Z</time>
      </trkpt>
      <trkpt lat="42.51322" lon="2.1876">
        <ele>1037.4</ele>
        <time>2016-07-01T08:38:48Z</time>
      </trkpt>
      <trkpt lat="42.51318" lon="2.18779">
        <ele>1036.92</ele>
        <time>2016-07-01T08:38:57Z</time>
      </trkpt>
      <trkpt lat="42.51318" lon="2.1878">
        <ele>1036.92</ele>
        <time>2016-07-01T08:38:58Z</time>
      </trkpt>
      <trkpt lat="42.51318" lon="2.18783">
        <ele>1036.92</ele>
        <time>2016-07-01T08:38:59Z</time>
      </trkpt>
      <trkpt lat="42.51315" lon="2.188">
        <ele>1035.96</ele>
        <time>2016-07-01T08:39:08Z</time>
      </trkpt>
      <trkpt lat="42.51313" lon="2.18813">
        <ele>1035</ele>
        <time>2016-07-01T08:39:14Z</time>
      </trkpt>
      <trkpt lat="42.51313" lon="2.18815">
        <ele>1035</ele>
        <time>2016-07-01T08:39:15Z</time>
      </trkpt>
      <trkpt lat="42.51314" lon="2.18821">
        <ele>1034.52</ele>
        <time>2016-07-01T08:39:18Z</time>
      </trkpt>
      <trkpt lat="42.51313" lon="2.18823">
        <ele>1034.52</ele>
        <time>2016-07-01T08:39:19Z</time>
      </trkpt>
      <trkpt lat="42.51312" lon="2.18825">
        <ele>1034.52</ele>
        <time>2016-07-01T08:39:20Z</time>
      </trkpt>
      <trkpt lat="42.51312" lon="2.1883">
        <ele>1034.04</ele>
        <time>2016-07-01T08:39:23Z</time>
      </trkpt>
      <trkpt lat="42.51312" lon="2.18832">
        <ele>1034.04</ele>
        <time>2016-07-01T08:39:24Z</time>
      </trkpt>
      <trkpt lat="42.51312" lon="2.18835">
        <ele>1034.04</ele>
        <time>2016-07-01T08:39:26Z</time>
      </trkpt>
      <trkpt lat="42.51312" lon="2.18837">
        <ele>1034.04</ele>
        <time>2016-07-01T08:39:27Z</time>
      </trkpt>
      <trkpt lat="42.51313" lon="2.18839">
        <ele>1034.04</ele>
        <time>2016-07-01T08:39:28Z</time>
      </trkpt>
      <trkpt lat="42.51313" lon="2.18841">
        <ele>1033.55</ele>
        <time>2016-07-01T08:39:29Z</time>
      </trkpt>
      <trkpt lat="42.51313" lon="2.18843">
        <ele>1033.55</ele>
        <time>2016-07-01T08:39:30Z</time>
      </trkpt>
      <trkpt lat="42.51313" lon="2.18847">
        <ele>1033.55</ele>
        <time>2016-07-01T08:39:32Z</time>
      </trkpt>
      <trkpt lat="42.51313" lon="2.18849">
        <ele>1033.55</ele>
        <time>2016-07-01T08:39:33Z</time>
      </trkpt>
      <trkpt lat="42.51314" lon="2.18851">
        <ele>1033.07</ele>
        <time>2016-07-01T08:39:34Z</time>
      </trkpt>
      <trkpt lat="42.51314" lon="2.18853">
        <ele>1033.07</ele>
        <time>2016-07-01T08:39:35Z</time>
      </trkpt>
      <trkpt lat="42.51313" lon="2.18855">
        <ele>1033.07</ele>
        <time>2016-07-01T08:39:36Z</time>
      </trkpt>
      <trkpt lat="42.51313" lon="2.18858">
        <ele>1033.07</ele>
        <time>2016-07-01T08:39:37Z</time>
      </trkpt>
      <trkpt lat="42.51314" lon="2.1886">
        <ele>1033.07</ele>
        <time>2016-07-01T08:39:38Z</time>
      </trkpt>
      <trkpt lat="42.51314" lon="2.18863">
        <ele>1033.07</ele>
        <time>2016-07-01T08:39:39Z</time>
      </trkpt>
      <trkpt lat="42.51314" lon="2.18865">
        <ele>1032.59</ele>
        <time>2016-07-01T08:39:40Z</time>
      </trkpt>
      <trkpt lat="42.51314" lon="2.18868">
        <ele>1032.59</ele>
        <time>2016-07-01T08:39:41Z</time>
      </trkpt>
      <trkpt lat="42.51314" lon="2.18871">
        <ele>1032.59</ele>
        <time>2016-07-01T08:39:42Z</time>
      </trkpt>
      <trkpt lat="42.51314" lon="2.18873">
        <ele>1032.59</ele>
        <time>2016-07-01T08:39:43Z</time>
      </trkpt>
      <trkpt lat="42.51315" lon="2.18875">
        <ele>1032.59</ele>
        <time>2016-07-01T08:39:44Z</time>
      </trkpt>
      <trkpt lat="42.51315" lon="2.18878">
        <ele>1032.59</ele>
        <time>2016-07-01T08:39:45Z</time>
      </trkpt>
      <trkpt lat="42.51316" lon="2.1888">
        <ele>1032.59</ele>
        <time>2016-07-01T08:39:46Z</time>
      </trkpt>
      <trkpt lat="42.51316" lon="2.18882">
        <ele>1032.59</ele>
        <time>2016-07-01T08:39:47Z</time>
      </trkpt>
      <trkpt lat="42.51318" lon="2.1889">
        <ele>1032.11</ele>
        <time>2016-07-01T08:39:51Z</time>
      </trkpt>
      <trkpt lat="42.51319" lon="2.18892">
        <ele>1032.11</ele>
        <time>2016-07-01T08:39:52Z</time>
      </trkpt>
      <trkpt lat="42.5132" lon="2.18893">
        <ele>1032.11</ele>
        <time>2016-07-01T08:39:53Z</time>
      </trkpt>
      <trkpt lat="42.5132" lon="2.18895">
        <ele>1032.11</ele>
        <time>2016-07-01T08:39:54Z</time>
      </trkpt>
      <trkpt lat="42.51321" lon="2.18897">
        <ele>1032.11</ele>
        <time>2016-07-01T08:39:55Z</time>
      </trkpt>
      <trkpt lat="42.51322" lon="2.18898">
        <ele>1031.63</ele>
        <time>2016-07-01T08:39:56Z</time>
      </trkpt>
      <trkpt lat="42.51323" lon="2.189">
        <ele>1031.15</ele>
        <time>2016-07-01T08:39:57Z</time>
      </trkpt>
      <trkpt lat="42.51324" lon="2.18902">
        <ele>1031.15</ele>
        <time>2016-07-01T08:39:58Z</time>
      </trkpt>
      <trkpt lat="42.51324" lon="2.18903">
        <ele>1031.15</ele>
        <time>2016-07-01T08:39:59Z</time>
      </trkpt>
      <trkpt lat="42.51325" lon="2.18905">
        <ele>1031.15</ele>
        <time>2016-07-01T08:40:00Z</time>
      </trkpt>
      <trkpt lat="42.51325" lon="2.18908">
        <ele>1031.15</ele>
        <time>2016-07-01T08:40:01Z</time>
      </trkpt>
      <trkpt lat="42.51326" lon="2.1891">
        <ele>1030.67</ele>
        <time>2016-07-01T08:40:02Z</time>
      </trkpt>
      <trkpt lat="42.51327" lon="2.18912">
        <ele>1030.67</ele>
        <time>2016-07-01T08:40:03Z</time>
      </trkpt>
      <trkpt lat="42.51327" lon="2.18914">
        <ele>1030.67</ele>
        <time>2016-07-01T08:40:04Z</time>
      </trkpt>
      <trkpt lat="42.51328" lon="2.18916">
        <ele>1030.67</ele>
        <time>2016-07-01T08:40:05Z</time>
      </trkpt>
      <trkpt lat="42.51328" lon="2.18917">
        <ele>1030.67</ele>
        <time>2016-07-01T08:40:06Z</time>
      </trkpt>
      <trkpt lat="42.51329" lon="2.18919">
        <ele>1030.67</ele>
        <time>2016-07-01T08:40:07Z</time>
      </trkpt>
      <trkpt lat="42.51329" lon="2.18921">
        <ele>1030.19</ele>
        <time>2016-07-01T08:40:08Z</time>
      </trkpt>
      <trkpt lat="42.51331" lon="2.18923">
        <ele>1030.19</ele>
        <time>2016-07-01T08:40:10Z</time>
      </trkpt>
      <trkpt lat="42.51331" lon="2.18925">
        <ele>1030.19</ele>
        <time>2016-07-01T08:40:11Z</time>
      </trkpt>
      <trkpt lat="42.51331" lon="2.18927">
        <ele>1030.19</ele>
        <time>2016-07-01T08:40:12Z</time>
      </trkpt>
      <trkpt lat="42.51331" lon="2.18929">
        <ele>1030.19</ele>
        <time>2016-07-01T08:40:13Z</time>
      </trkpt>
      <trkpt lat="42.51331" lon="2.18932">
        <ele>1030.19</ele>
        <time>2016-07-01T08:40:14Z</time>
      </trkpt>
      <trkpt lat="42.51333" lon="2.18934">
        <ele>1029.71</ele>
        <time>2016-07-01T08:40:15Z</time>
      </trkpt>
      <trkpt lat="42.51334" lon="2.18935">
        <ele>1029.71</ele>
        <time>2016-07-01T08:40:16Z</time>
      </trkpt>
      <trkpt lat="42.51333" lon="2.18938">
        <ele>1029.71</ele>
        <time>2016-07-01T08:40:17Z</time>
      </trkpt>
      <trkpt lat="42.51334" lon="2.18941">
        <ele>1029.71</ele>
        <time>2016-07-01T08:40:18Z</time>
      </trkpt>
      <trkpt lat="42.51335" lon="2.18943">
        <ele>1029.71</ele>
        <time>2016-07-01T08:40:19Z</time>
      </trkpt>
      <trkpt lat="42.51335" lon="2.18945">
        <ele>1029.71</ele>
        <time>2016-07-01T08:40:20Z</time>
      </trkpt>
      <trkpt lat="42.51336" lon="2.18948">
        <ele>1028.75</ele>
        <time>2016-07-01T08:40:21Z</time>
      </trkpt>
      <trkpt lat="42.51337" lon="2.18949">
        <ele>1029.23</ele>
        <time>2016-07-01T08:40:22Z</time>
      </trkpt>
      <trkpt lat="42.51337" lon="2.18951">
        <ele>1029.23</ele>
        <time>2016-07-01T08:40:23Z</time>
      </trkpt>
      <trkpt lat="42.51337" lon="2.18954">
        <ele>1028.75</ele>
        <time>2016-07-01T08:40:24Z</time>
      </trkpt>
      <trkpt lat="42.51338" lon="2.18956">
        <ele>1028.75</ele>
        <time>2016-07-01T08:40:25Z</time>
      </trkpt>
      <trkpt lat="42.5134" lon="2.18961">
        <ele>1028.27</ele>
        <time>2016-07-01T08:40:28Z</time>
      </trkpt>
      <trkpt lat="42.5134" lon="2.18963">
        <ele>1028.27</ele>
        <time>2016-07-01T08:40:29Z</time>
      </trkpt>
      <trkpt lat="42.5134" lon="2.18965">
        <ele>1028.27</ele>
        <time>2016-07-01T08:40:30Z</time>
      </trkpt>
      <trkpt lat="42.51341" lon="2.18967">
        <ele>1028.27</ele>
        <time>2016-07-01T08:40:31Z</time>
      </trkpt>
      <trkpt lat="42.51341" lon="2.18969">
        <ele>1028.27</ele>
        <time>2016-07-01T08:40:32Z</time>
      </trkpt>
      <trkpt lat="42.51342" lon="2.18971">
        <ele>1028.27</ele>
        <time>2016-07-01T08:40:33Z</time>
      </trkpt>
      <trkpt lat="42.51342" lon="2.18973">
        <ele>1028.27</ele>
        <time>2016-07-01T08:40:34Z</time>
      </trkpt>
      <trkpt lat="42.51342" lon="2.18975">
        <ele>1027.79</ele>
        <time>2016-07-01T08:40:35Z</time>
      </trkpt>
      <trkpt lat="42.51343" lon="2.18977">
        <ele>1027.79</ele>
        <time>2016-07-01T08:40:36Z</time>
      </trkpt>
      <trkpt lat="42.51344" lon="2.18981">
        <ele>1027.79</ele>
        <time>2016-07-01T08:40:38Z</time>
      </trkpt>
      <trkpt lat="42.51345" lon="2.18983">
        <ele>1027.79</ele>
        <time>2016-07-01T08:40:39Z</time>
      </trkpt>
      <trkpt lat="42.51346" lon="2.18985">
        <ele>1027.79</ele>
        <time>2016-07-01T08:40:40Z</time>
      </trkpt>
      <trkpt lat="42.51346" lon="2.18987">
        <ele>1027.79</ele>
        <time>2016-07-01T08:40:41Z</time>
      </trkpt>
      <trkpt lat="42.51348" lon="2.18988">
        <ele>1027.79</ele>
        <time>2016-07-01T08:40:42Z</time>
      </trkpt>
      <trkpt lat="42.51348" lon="2.1899">
        <ele>1027.31</ele>
        <time>2016-07-01T08:40:43Z</time>
      </trkpt>
      <trkpt lat="42.51349" lon="2.18992">
        <ele>1027.31</ele>
        <time>2016-07-01T08:40:44Z</time>
      </trkpt>
      <trkpt lat="42.51349" lon="2.18993">
        <ele>1027.31</ele>
        <time>2016-07-01T08:40:45Z</time>
      </trkpt>
      <trkpt lat="42.5135" lon="2.18995">
        <ele>1027.31</ele>
        <time>2016-07-01T08:40:46Z</time>
      </trkpt>
      <trkpt lat="42.51351" lon="2.18996">
        <ele>1027.31</ele>
        <time>2016-07-01T08:40:47Z</time>
      </trkpt>
      <trkpt lat="42.51351" lon="2.18998">
        <ele>1027.31</ele>
        <time>2016-07-01T08:40:48Z</time>
      </trkpt>
      <trkpt lat="42.51352" lon="2.19">
        <ele>1027.31</ele>
        <time>2016-07-01T08:40:49Z</time>
      </trkpt>
      <trkpt lat="42.51352" lon="2.19002">
        <ele>1026.83</ele>
        <time>2016-07-01T08:40:50Z</time>
      </trkpt>
      <trkpt lat="42.51353" lon="2.19004">
        <ele>1026.83</ele>
        <time>2016-07-01T08:40:51Z</time>
      </trkpt>
      <trkpt lat="42.51353" lon="2.19007">
        <ele>1026.83</ele>
        <time>2016-07-01T08:40:52Z</time>
      </trkpt>
      <trkpt lat="42.51353" lon="2.19009">
        <ele>1026.83</ele>
        <time>2016-07-01T08:40:53Z</time>
      </trkpt>
      <trkpt lat="42.51353" lon="2.19012">
        <ele>1026.34</ele>
        <time>2016-07-01T08:40:54Z</time>
      </trkpt>
      <trkpt lat="42.51354" lon="2.19014">
        <ele>1026.34</ele>
        <time>2016-07-01T08:40:55Z</time>
      </trkpt>
      <trkpt lat="42.51354" lon="2.19016">
        <ele>1026.34</ele>
        <time>2016-07-01T08:40:56Z</time>
      </trkpt>
      <trkpt lat="42.51354" lon="2.19018">
        <ele>1026.34</ele>
        <time>2016-07-01T08:40:57Z</time>
      </trkpt>
      <trkpt lat="42.51355" lon="2.1902">
        <ele>1026.34</ele>
        <time>2016-07-01T08:40:58Z</time>
      </trkpt>
      <trkpt lat="42.51355" lon="2.19022">
        <ele>1026.34</ele>
        <time>2016-07-01T08:40:59Z</time>
      </trkpt>
      <trkpt lat="42.51355" lon="2.19025">
        <ele>1026.34</ele>
        <time>2016-07-01T08:41:00Z</time>
      </trkpt>
      <trkpt lat="42.51355" lon="2.19026">
        <ele>1026.34</ele>
        <time>2016-07-01T08:41:01Z</time>
      </trkpt>
      <trkpt lat="42.51356" lon="2.19028">
        <ele>1025.38</ele>
        <time>2016-07-01T08:41:02Z</time>
      </trkpt>
      <trkpt lat="42.51356" lon="2.1903">
        <ele>1025.38</ele>
        <time>2016-07-01T08:41:03Z</time>
      </trkpt>
      <trkpt lat="42.51356" lon="2.19031">
        <ele>1025.38</ele>
        <time>2016-07-01T08:41:04Z</time>
      </trkpt>
      <trkpt lat="42.51358" lon="2.19046">
        <ele>1024.9</ele>
        <time>2016-07-01T08:41:11Z</time>
      </trkpt>
      <trkpt lat="42.51358" lon="2.19048">
        <ele>1024.42</ele>
        <time>2016-07-01T08:41:12Z</time>
      </trkpt>
      <trkpt lat="42.51358" lon="2.19051">
        <ele>1024.42</ele>
        <time>2016-07-01T08:41:13Z</time>
      </trkpt>
      <trkpt lat="42.51358" lon="2.19053">
        <ele>1024.42</ele>
        <time>2016-07-01T08:41:14Z</time>
      </trkpt>
      <trkpt lat="42.51358" lon="2.19055">
        <ele>1024.42</ele>
        <time>2016-07-01T08:41:15Z</time>
      </trkpt>
      <trkpt lat="42.51358" lon="2.19057">
        <ele>1024.42</ele>
        <time>2016-07-01T08:41:16Z</time>
      </trkpt>
      <trkpt lat="42.51359" lon="2.19059">
        <ele>1023.94</ele>
        <time>2016-07-01T08:41:17Z</time>
      </trkpt>
      <trkpt lat="42.51359" lon="2.1906">
        <ele>1023.94</ele>
        <time>2016-07-01T08:41:18Z</time>
      </trkpt>
      <trkpt lat="42.51359" lon="2.19062">
        <ele>1023.94</ele>
        <time>2016-07-01T08:41:19Z</time>
      </trkpt>
      <trkpt lat="42.5136" lon="2.19064">
        <ele>1023.94</ele>
        <time>2016-07-01T08:41:20Z</time>
      </trkpt>
      <trkpt lat="42.5136" lon="2.19065">
        <ele>1023.94</ele>
        <time>2016-07-01T08:41:21Z</time>
      </trkpt>
      <trkpt lat="42.51361" lon="2.19067">
        <ele>1023.94</ele>
        <time>2016-07-01T08:41:22Z</time>
      </trkpt>
      <trkpt lat="42.51361" lon="2.19069">
        <ele>1023.94</ele>
        <time>2016-07-01T08:41:23Z</time>
      </trkpt>
      <trkpt lat="42.51362" lon="2.19071">
        <ele>1023.46</ele>
        <time>2016-07-01T08:41:24Z</time>
      </trkpt>
      <trkpt lat="42.51362" lon="2.19072">
        <ele>1023.46</ele>
        <time>2016-07-01T08:41:25Z</time>
      </trkpt>
      <trkpt lat="42.51363" lon="2.19074">
        <ele>1023.46</ele>
        <time>2016-07-01T08:41:26Z</time>
      </trkpt>
      <trkpt lat="42.51363" lon="2.19076">
        <ele>1023.46</ele>
        <time>2016-07-01T08:41:27Z</time>
      </trkpt>
      <trkpt lat="42.51363" lon="2.19078">
        <ele>1023.46</ele>
        <time>2016-07-01T08:41:28Z</time>
      </trkpt>
      <trkpt lat="42.51363" lon="2.1908">
        <ele>1023.46</ele>
        <time>2016-07-01T08:41:29Z</time>
      </trkpt>
      <trkpt lat="42.51364" lon="2.19083">
        <ele>1022.98</ele>
        <time>2016-07-01T08:41:30Z</time>
      </trkpt>
      <trkpt lat="42.51364" lon="2.19085">
        <ele>1022.98</ele>
        <time>2016-07-01T08:41:31Z</time>
      </trkpt>
      <trkpt lat="42.51365" lon="2.19087">
        <ele>1022.98</ele>
        <time>2016-07-01T08:41:32Z</time>
      </trkpt>
      <trkpt lat="42.51365" lon="2.1909">
        <ele>1022.98</ele>
        <time>2016-07-01T08:41:33Z</time>
      </trkpt>
      <trkpt lat="42.51368" lon="2.19098">
        <ele>1022.5</ele>
        <time>2016-07-01T08:41:37Z</time>
      </trkpt>
      <trkpt lat="42.51369" lon="2.19102">
        <ele>1022.5</ele>
        <time>2016-07-01T08:41:39Z</time>
      </trkpt>
      <trkpt lat="42.5137" lon="2.19104">
        <ele>1022.5</ele>
        <time>2016-07-01T08:41:40Z</time>
      </trkpt>
      <trkpt lat="42.51372" lon="2.19107">
        <ele>1021.54</ele>
        <time>2016-07-01T08:41:42Z</time>
      </trkpt>
      <trkpt lat="42.51373" lon="2.19108">
        <ele>1021.54</ele>
        <time>2016-07-01T08:41:43Z</time>
      </trkpt>
      <trkpt lat="42.51373" lon="2.1911">
        <ele>1021.54</ele>
        <time>2016-07-01T08:41:44Z</time>
      </trkpt>
      <trkpt lat="42.51374" lon="2.19112">
        <ele>1021.06</ele>
        <time>2016-07-01T08:41:45Z</time>
      </trkpt>
      <trkpt lat="42.51375" lon="2.19114">
        <ele>1021.06</ele>
        <time>2016-07-01T08:41:46Z</time>
      </trkpt>
      <trkpt lat="42.51376" lon="2.19115">
        <ele>1021.06</ele>
        <time>2016-07-01T08:41:47Z</time>
      </trkpt>
      <trkpt lat="42.51377" lon="2.19117">
        <ele>1021.06</ele>
        <time>2016-07-01T08:41:48Z</time>
      </trkpt>
      <trkpt lat="42.51378" lon="2.19119">
        <ele>1021.06</ele>
        <time>2016-07-01T08:41:49Z</time>
      </trkpt>
      <trkpt lat="42.51382" lon="2.19123">
        <ele>1020.58</ele>
        <time>2016-07-01T08:41:52Z</time>
      </trkpt>
      <trkpt lat="42.51387" lon="2.1913">
        <ele>1020.1</ele>
        <time>2016-07-01T08:41:56Z</time>
      </trkpt>
      <trkpt lat="42.51388" lon="2.19131">
        <ele>1020.1</ele>
        <time>2016-07-01T08:41:57Z</time>
      </trkpt>
      <trkpt lat="42.5139" lon="2.19132">
        <ele>1020.1</ele>
        <time>2016-07-01T08:41:58Z</time>
      </trkpt>
      <trkpt lat="42.51391" lon="2.19134">
        <ele>1020.1</ele>
        <time>2016-07-01T08:41:59Z</time>
      </trkpt>
      <trkpt lat="42.51392" lon="2.19135">
        <ele>1019.62</ele>
        <time>2016-07-01T08:42:00Z</time>
      </trkpt>
      <trkpt lat="42.51393" lon="2.19136">
        <ele>1019.62</ele>
        <time>2016-07-01T08:42:01Z</time>
      </trkpt>
      <trkpt lat="42.51394" lon="2.19137">
        <ele>1019.62</ele>
        <time>2016-07-01T08:42:02Z</time>
      </trkpt>
      <trkpt lat="42.51395" lon="2.19138">
        <ele>1019.62</ele>
        <time>2016-07-01T08:42:03Z</time>
      </trkpt>
      <trkpt lat="42.51396" lon="2.1914">
        <ele>1019.62</ele>
        <time>2016-07-01T08:42:04Z</time>
      </trkpt>
      <trkpt lat="42.51398" lon="2.19141">
        <ele>1019.13</ele>
        <time>2016-07-01T08:42:05Z</time>
      </trkpt>
      <trkpt lat="42.51398" lon="2.19142">
        <ele>1019.13</ele>
        <time>2016-07-01T08:42:06Z</time>
      </trkpt>
      <trkpt lat="42.51399" lon="2.19144">
        <ele>1019.13</ele>
        <time>2016-07-01T08:42:07Z</time>
      </trkpt>
      <trkpt lat="42.514" lon="2.19146">
        <ele>1019.13</ele>
        <time>2016-07-01T08:42:08Z</time>
      </trkpt>
      <trkpt lat="42.51404" lon="2.19151">
        <ele>1019.13</ele>
        <time>2016-07-01T08:42:11Z</time>
      </trkpt>
      <trkpt lat="42.51405" lon="2.19153">
        <ele>1018.17</ele>
        <time>2016-07-01T08:42:12Z</time>
      </trkpt>
      <trkpt lat="42.51406" lon="2.19155">
        <ele>1018.65</ele>
        <time>2016-07-01T08:42:13Z</time>
      </trkpt>
      <trkpt lat="42.51407" lon="2.19157">
        <ele>1018.65</ele>
        <time>2016-07-01T08:42:14Z</time>
      </trkpt>
      <trkpt lat="42.51408" lon="2.19158">
        <ele>1018.65</ele>
        <time>2016-07-01T08:42:15Z</time>
      </trkpt>
      <trkpt lat="42.51409" lon="2.1916">
        <ele>1018.65</ele>
        <time>2016-07-01T08:42:16Z</time>
      </trkpt>
      <trkpt lat="42.5141" lon="2.19161">
        <ele>1018.17</ele>
        <time>2016-07-01T08:42:17Z</time>
      </trkpt>
      <trkpt lat="42.51411" lon="2.19162">
        <ele>1018.17</ele>
        <time>2016-07-01T08:42:18Z</time>
      </trkpt>
      <trkpt lat="42.51412" lon="2.19164">
        <ele>1018.17</ele>
        <time>2016-07-01T08:42:19Z</time>
      </trkpt>
      <trkpt lat="42.51413" lon="2.19165">
        <ele>1017.69</ele>
        <time>2016-07-01T08:42:20Z</time>
      </trkpt>
      <trkpt lat="42.51414" lon="2.19166">
        <ele>1017.69</ele>
        <time>2016-07-01T08:42:21Z</time>
      </trkpt>
      <trkpt lat="42.51415" lon="2.19167">
        <ele>1017.69</ele>
        <time>2016-07-01T08:42:22Z</time>
      </trkpt>
      <trkpt lat="42.51416" lon="2.19169">
        <ele>1017.69</ele>
        <time>2016-07-01T08:42:23Z</time>
      </trkpt>
      <trkpt lat="42.51417" lon="2.1917">
        <ele>1017.69</ele>
        <time>2016-07-01T08:42:24Z</time>
      </trkpt>
      <trkpt lat="42.51417" lon="2.19172">
        <ele>1017.69</ele>
        <time>2016-07-01T08:42:25Z</time>
      </trkpt>
      <trkpt lat="42.5142" lon="2.19178">
        <ele>1017.21</ele>
        <time>2016-07-01T08:42:28Z</time>
      </trkpt>
      <trkpt lat="42.51421" lon="2.1918">
        <ele>1017.21</ele>
        <time>2016-07-01T08:42:29Z</time>
      </trkpt>
      <trkpt lat="42.51422" lon="2.19182">
        <ele>1017.21</ele>
        <time>2016-07-01T08:42:30Z</time>
      </trkpt>
      <trkpt lat="42.51423" lon="2.19184">
        <ele>1017.21</ele>
        <time>2016-07-01T08:42:31Z</time>
      </trkpt>
      <trkpt lat="42.51424" lon="2.19186">
        <ele>1017.21</ele>
        <time>2016-07-01T08:42:32Z</time>
      </trkpt>
      <trkpt lat="42.51424" lon="2.19188">
        <ele>1017.21</ele>
        <time>2016-07-01T08:42:33Z</time>
      </trkpt>
      <trkpt lat="42.51426" lon="2.1919">
        <ele>1017.21</ele>
        <time>2016-07-01T08:42:34Z</time>
      </trkpt>
      <trkpt lat="42.51426" lon="2.19192">
        <ele>1017.21</ele>
        <time>2016-07-01T08:42:35Z</time>
      </trkpt>
      <trkpt lat="42.51427" lon="2.19194">
        <ele>1017.21</ele>
        <time>2016-07-01T08:42:36Z</time>
      </trkpt>
      <trkpt lat="42.51428" lon="2.19196">
        <ele>1017.21</ele>
        <time>2016-07-01T08:42:37Z</time>
      </trkpt>
      <trkpt lat="42.51429" lon="2.19197">
        <ele>1016.73</ele>
        <time>2016-07-01T08:42:38Z</time>
      </trkpt>
      <trkpt lat="42.51429" lon="2.19199">
        <ele>1016.73</ele>
        <time>2016-07-01T08:42:39Z</time>
      </trkpt>
      <trkpt lat="42.5143" lon="2.19201">
        <ele>1016.73</ele>
        <time>2016-07-01T08:42:40Z</time>
      </trkpt>
      <trkpt lat="42.51431" lon="2.19202">
        <ele>1016.73</ele>
        <time>2016-07-01T08:42:41Z</time>
      </trkpt>
      <trkpt lat="42.51434" lon="2.19208">
        <ele>1016.25</ele>
        <time>2016-07-01T08:42:45Z</time>
      </trkpt>
      <trkpt lat="42.51434" lon="2.19211">
        <ele>1016.25</ele>
        <time>2016-07-01T08:42:46Z</time>
      </trkpt>
      <trkpt lat="42.51434" lon="2.19213">
        <ele>1016.25</ele>
        <time>2016-07-01T08:42:47Z</time>
      </trkpt>
      <trkpt lat="42.51438" lon="2.19223">
        <ele>1015.77</ele>
        <time>2016-07-01T08:42:52Z</time>
      </trkpt>
      <trkpt lat="42.51439" lon="2.19225">
        <ele>1014.81</ele>
        <time>2016-07-01T08:42:53Z</time>
      </trkpt>
      <trkpt lat="42.51439" lon="2.19226">
        <ele>1015.29</ele>
        <time>2016-07-01T08:42:54Z</time>
      </trkpt>
      <trkpt lat="42.5144" lon="2.19228">
        <ele>1015.29</ele>
        <time>2016-07-01T08:42:55Z</time>
      </trkpt>
      <trkpt lat="42.5144" lon="2.1923">
        <ele>1015.29</ele>
        <time>2016-07-01T08:42:56Z</time>
      </trkpt>
      <trkpt lat="42.51442" lon="2.19231">
        <ele>1014.33</ele>
        <time>2016-07-01T08:42:57Z</time>
      </trkpt>
      <trkpt lat="42.51443" lon="2.19232">
        <ele>1014.33</ele>
        <time>2016-07-01T08:42:58Z</time>
      </trkpt>
      <trkpt lat="42.51444" lon="2.19233">
        <ele>1014.33</ele>
        <time>2016-07-01T08:42:59Z</time>
      </trkpt>
      <trkpt lat="42.51445" lon="2.19235">
        <ele>1014.33</ele>
        <time>2016-07-01T08:43:00Z</time>
      </trkpt>
      <trkpt lat="42.51446" lon="2.19236">
        <ele>1014.33</ele>
        <time>2016-07-01T08:43:01Z</time>
      </trkpt>
      <trkpt lat="42.51447" lon="2.19237">
        <ele>1013.85</ele>
        <time>2016-07-01T08:43:02Z</time>
      </trkpt>
      <trkpt lat="42.51448" lon="2.19239">
        <ele>1013.85</ele>
        <time>2016-07-01T08:43:03Z</time>
      </trkpt>
      <trkpt lat="42.51449" lon="2.1924">
        <ele>1013.85</ele>
        <time>2016-07-01T08:43:04Z</time>
      </trkpt>
      <trkpt lat="42.5145" lon="2.19242">
        <ele>1013.85</ele>
        <time>2016-07-01T08:43:05Z</time>
      </trkpt>
      <trkpt lat="42.51451" lon="2.19243">
        <ele>1013.37</ele>
        <time>2016-07-01T08:43:06Z</time>
      </trkpt>
      <trkpt lat="42.51453" lon="2.19244">
        <ele>1013.37</ele>
        <time>2016-07-01T08:43:07Z</time>
      </trkpt>
      <trkpt lat="42.51455" lon="2.19245">
        <ele>1013.37</ele>
        <time>2016-07-01T08:43:08Z</time>
      </trkpt>
      <trkpt lat="42.51456" lon="2.19246">
        <ele>1013.37</ele>
        <time>2016-07-01T08:43:09Z</time>
      </trkpt>
      <trkpt lat="42.51469" lon="2.19255">
        <ele>1012.41</ele>
        <time>2016-07-01T08:43:19Z</time>
      </trkpt>
      <trkpt lat="42.51483" lon="2.19272">
        <ele>1010.96</ele>
        <time>2016-07-01T08:43:31Z</time>
      </trkpt>
      <trkpt lat="42.51497" lon="2.19295">
        <ele>1009.52</ele>
        <time>2016-07-01T08:43:46Z</time>
      </trkpt>
      <trkpt lat="42.51502" lon="2.19305">
        <ele>1009.04</ele>
        <time>2016-07-01T08:43:52Z</time>
      </trkpt>
      <trkpt lat="42.51502" lon="2.19307">
        <ele>1009.04</ele>
        <time>2016-07-01T08:43:53Z</time>
      </trkpt>
      <trkpt lat="42.51503" lon="2.19309">
        <ele>1009.04</ele>
        <time>2016-07-01T08:43:54Z</time>
      </trkpt>
      <trkpt lat="42.51503" lon="2.19311">
        <ele>1009.04</ele>
        <time>2016-07-01T08:43:55Z</time>
      </trkpt>
      <trkpt lat="42.51503" lon="2.19313">
        <ele>1009.04</ele>
        <time>2016-07-01T08:43:56Z</time>
      </trkpt>
      <trkpt lat="42.51504" lon="2.19315">
        <ele>1008.56</ele>
        <time>2016-07-01T08:43:57Z</time>
      </trkpt>
      <trkpt lat="42.51504" lon="2.19316">
        <ele>1008.56</ele>
        <time>2016-07-01T08:43:58Z</time>
      </trkpt>
      <trkpt lat="42.51504" lon="2.19318">
        <ele>1008.56</ele>
        <time>2016-07-01T08:43:59Z</time>
      </trkpt>
      <trkpt lat="42.51505" lon="2.1932">
        <ele>1008.56</ele>
        <time>2016-07-01T08:44:00Z</time>
      </trkpt>
      <trkpt lat="42.51506" lon="2.19335">
        <ele>1007.6</ele>
        <time>2016-07-01T08:44:07Z</time>
      </trkpt>
      <trkpt lat="42.51506" lon="2.19337">
        <ele>1007.6</ele>
        <time>2016-07-01T08:44:08Z</time>
      </trkpt>
      <trkpt lat="42.51506" lon="2.19339">
        <ele>1007.6</ele>
        <time>2016-07-01T08:44:09Z</time>
      </trkpt>
      <trkpt lat="42.51506" lon="2.1934">
        <ele>1007.6</ele>
        <time>2016-07-01T08:44:10Z</time>
      </trkpt>
      <trkpt lat="42.51505" lon="2.19342">
        <ele>1007.12</ele>
        <time>2016-07-01T08:44:11Z</time>
      </trkpt>
      <trkpt lat="42.51505" lon="2.19344">
        <ele>1007.12</ele>
        <time>2016-07-01T08:44:12Z</time>
      </trkpt>
      <trkpt lat="42.51505" lon="2.19346">
        <ele>1007.12</ele>
        <time>2016-07-01T08:44:13Z</time>
      </trkpt>
      <trkpt lat="42.51505" lon="2.19348">
        <ele>1007.12</ele>
        <time>2016-07-01T08:44:14Z</time>
      </trkpt>
      <trkpt lat="42.51504" lon="2.19352">
        <ele>1006.64</ele>
        <time>2016-07-01T08:44:16Z</time>
      </trkpt>
      <trkpt lat="42.51504" lon="2.19354">
        <ele>1006.64</ele>
        <time>2016-07-01T08:44:17Z</time>
      </trkpt>
      <trkpt lat="42.51503" lon="2.19357">
        <ele>1006.64</ele>
        <time>2016-07-01T08:44:18Z</time>
      </trkpt>
      <trkpt lat="42.51503" lon="2.19359">
        <ele>1005.68</ele>
        <time>2016-07-01T08:44:19Z</time>
      </trkpt>
      <trkpt lat="42.51503" lon="2.19361">
        <ele>1006.16</ele>
        <time>2016-07-01T08:44:20Z</time>
      </trkpt>
      <trkpt lat="42.51502" lon="2.19363">
        <ele>1006.16</ele>
        <time>2016-07-01T08:44:21Z</time>
      </trkpt>
      <trkpt lat="42.51502" lon="2.19365">
        <ele>1006.16</ele>
        <time>2016-07-01T08:44:22Z</time>
      </trkpt>
      <trkpt lat="42.51502" lon="2.1937">
        <ele>1005.68</ele>
        <time>2016-07-01T08:44:25Z</time>
      </trkpt>
      <trkpt lat="42.51501" lon="2.19372">
        <ele>1005.68</ele>
        <time>2016-07-01T08:44:26Z</time>
      </trkpt>
      <trkpt lat="42.51501" lon="2.19382">
        <ele>1004.23</ele>
        <time>2016-07-01T08:44:31Z</time>
      </trkpt>
      <trkpt lat="42.51501" lon="2.19383">
        <ele>1004.23</ele>
        <time>2016-07-01T08:44:32Z</time>
      </trkpt>
      <trkpt lat="42.51501" lon="2.19386">
        <ele>1004.23</ele>
        <time>2016-07-01T08:44:33Z</time>
      </trkpt>
      <trkpt lat="42.51501" lon="2.19388">
        <ele>1004.23</ele>
        <time>2016-07-01T08:44:34Z</time>
      </trkpt>
      <trkpt lat="42.51501" lon="2.1939">
        <ele>1003.75</ele>
        <time>2016-07-01T08:44:35Z</time>
      </trkpt>
      <trkpt lat="42.51501" lon="2.19392">
        <ele>1003.75</ele>
        <time>2016-07-01T08:44:36Z</time>
      </trkpt>
      <trkpt lat="42.51501" lon="2.19394">
        <ele>1003.75</ele>
        <time>2016-07-01T08:44:37Z</time>
      </trkpt>
      <trkpt lat="42.51502" lon="2.19395">
        <ele>1003.75</ele>
        <time>2016-07-01T08:44:38Z</time>
      </trkpt>
      <trkpt lat="42.51502" lon="2.19397">
        <ele>1003.75</ele>
        <time>2016-07-01T08:44:39Z</time>
      </trkpt>
      <trkpt lat="42.51502" lon="2.19399">
        <ele>1003.27</ele>
        <time>2016-07-01T08:44:40Z</time>
      </trkpt>
      <trkpt lat="42.51503" lon="2.19403">
        <ele>1003.27</ele>
        <time>2016-07-01T08:44:43Z</time>
      </trkpt>
      <trkpt lat="42.51503" lon="2.19406">
        <ele>1002.79</ele>
        <time>2016-07-01T08:44:44Z</time>
      </trkpt>
      <trkpt lat="42.51504" lon="2.19408">
        <ele>1002.79</ele>
        <time>2016-07-01T08:44:45Z</time>
      </trkpt>
      <trkpt lat="42.51504" lon="2.1941">
        <ele>1002.79</ele>
        <time>2016-07-01T08:44:46Z</time>
      </trkpt>
      <trkpt lat="42.51505" lon="2.19412">
        <ele>1002.79</ele>
        <time>2016-07-01T08:44:47Z</time>
      </trkpt>
      <trkpt lat="42.51505" lon="2.19414">
        <ele>1002.79</ele>
        <time>2016-07-01T08:44:48Z</time>
      </trkpt>
      <trkpt lat="42.51507" lon="2.19423">
        <ele>1002.31</ele>
        <time>2016-07-01T08:44:52Z</time>
      </trkpt>
      <trkpt lat="42.51507" lon="2.19426">
        <ele>1001.35</ele>
        <time>2016-07-01T08:44:53Z</time>
      </trkpt>
      <trkpt lat="42.51507" lon="2.19428">
        <ele>1001.83</ele>
        <time>2016-07-01T08:44:54Z</time>
      </trkpt>
      <trkpt lat="42.51508" lon="2.1943">
        <ele>1001.83</ele>
        <time>2016-07-01T08:44:55Z</time>
      </trkpt>
      <trkpt lat="42.51509" lon="2.19432">
        <ele>1001.83</ele>
        <time>2016-07-01T08:44:56Z</time>
      </trkpt>
      <trkpt lat="42.51509" lon="2.19434">
        <ele>1000.87</ele>
        <time>2016-07-01T08:44:57Z</time>
      </trkpt>
      <trkpt lat="42.5151" lon="2.19436">
        <ele>1000.87</ele>
        <time>2016-07-01T08:44:58Z</time>
      </trkpt>
      <trkpt lat="42.51511" lon="2.19437">
        <ele>1000.87</ele>
        <time>2016-07-01T08:44:59Z</time>
      </trkpt>
      <trkpt lat="42.51511" lon="2.19439">
        <ele>1000.87</ele>
        <time>2016-07-01T08:45:00Z</time>
      </trkpt>
      <trkpt lat="42.51512" lon="2.19441">
        <ele>1000.39</ele>
        <time>2016-07-01T08:45:01Z</time>
      </trkpt>
      <trkpt lat="42.51513" lon="2.19443">
        <ele>1000.39</ele>
        <time>2016-07-01T08:45:02Z</time>
      </trkpt>
      <trkpt lat="42.51513" lon="2.19445">
        <ele>1000.39</ele>
        <time>2016-07-01T08:45:03Z</time>
      </trkpt>
      <trkpt lat="42.51513" lon="2.19446">
        <ele>1000.39</ele>
        <time>2016-07-01T08:45:04Z</time>
      </trkpt>
      <trkpt lat="42.51514" lon="2.19448">
        <ele>1000.39</ele>
        <time>2016-07-01T08:45:05Z</time>
      </trkpt>
      <trkpt lat="42.51515" lon="2.19449">
        <ele>999.91</ele>
        <time>2016-07-01T08:45:06Z</time>
      </trkpt>
      <trkpt lat="42.51515" lon="2.1945">
        <ele>999.91</ele>
        <time>2016-07-01T08:45:07Z</time>
      </trkpt>
      <trkpt lat="42.51516" lon="2.19452">
        <ele>999.91</ele>
        <time>2016-07-01T08:45:08Z</time>
      </trkpt>
      <trkpt lat="42.51517" lon="2.19454">
        <ele>999.91</ele>
        <time>2016-07-01T08:45:09Z</time>
      </trkpt>
      <trkpt lat="42.51518" lon="2.19455">
        <ele>999.91</ele>
        <time>2016-07-01T08:45:10Z</time>
      </trkpt>
      <trkpt lat="42.51519" lon="2.19456">
        <ele>999.43</ele>
        <time>2016-07-01T08:45:11Z</time>
      </trkpt>
      <trkpt lat="42.51521" lon="2.19458">
        <ele>999.43</ele>
        <time>2016-07-01T08:45:12Z</time>
      </trkpt>
      <trkpt lat="42.51522" lon="2.1946">
        <ele>999.43</ele>
        <time>2016-07-01T08:45:13Z</time>
      </trkpt>
      <trkpt lat="42.51525" lon="2.19462">
        <ele>999.43</ele>
        <time>2016-07-01T08:45:15Z</time>
      </trkpt>
      <trkpt lat="42.51526" lon="2.19463">
        <ele>999.43</ele>
        <time>2016-07-01T08:45:16Z</time>
      </trkpt>
      <trkpt lat="42.51532" lon="2.19468">
        <ele>998.95</ele>
        <time>2016-07-01T08:45:20Z</time>
      </trkpt>
      <trkpt lat="42.51533" lon="2.19469">
        <ele>998.95</ele>
        <time>2016-07-01T08:45:21Z</time>
      </trkpt>
      <trkpt lat="42.51534" lon="2.1947">
        <ele>997.99</ele>
        <time>2016-07-01T08:45:22Z</time>
      </trkpt>
      <trkpt lat="42.51536" lon="2.19471">
        <ele>998.47</ele>
        <time>2016-07-01T08:45:23Z</time>
      </trkpt>
      <trkpt lat="42.51537" lon="2.19472">
        <ele>998.47</ele>
        <time>2016-07-01T08:45:24Z</time>
      </trkpt>
      <trkpt lat="42.51538" lon="2.19473">
        <ele>998.47</ele>
        <time>2016-07-01T08:45:25Z</time>
      </trkpt>
      <trkpt lat="42.51539" lon="2.19474">
        <ele>998.47</ele>
        <time>2016-07-01T08:45:26Z</time>
      </trkpt>
      <trkpt lat="42.5154" lon="2.19475">
        <ele>998.47</ele>
        <time>2016-07-01T08:45:27Z</time>
      </trkpt>
      <trkpt lat="42.51542" lon="2.19476">
        <ele>997.51</ele>
        <time>2016-07-01T08:45:28Z</time>
      </trkpt>
      <trkpt lat="42.51543" lon="2.19477">
        <ele>997.51</ele>
        <time>2016-07-01T08:45:29Z</time>
      </trkpt>
      <trkpt lat="42.51544" lon="2.19478">
        <ele>997.51</ele>
        <time>2016-07-01T08:45:30Z</time>
      </trkpt>
      <trkpt lat="42.51545" lon="2.1948">
        <ele>997.51</ele>
        <time>2016-07-01T08:45:31Z</time>
      </trkpt>
      <trkpt lat="42.51547" lon="2.19481">
        <ele>997.51</ele>
        <time>2016-07-01T08:45:32Z</time>
      </trkpt>
      <trkpt lat="42.51548" lon="2.19482">
        <ele>997.51</ele>
        <time>2016-07-01T08:45:33Z</time>
      </trkpt>
      <trkpt lat="42.51549" lon="2.19484">
        <ele>997.02</ele>
        <time>2016-07-01T08:45:34Z</time>
      </trkpt>
      <trkpt lat="42.51558" lon="2.19491">
        <ele>996.54</ele>
        <time>2016-07-01T08:45:40Z</time>
      </trkpt>
      <trkpt lat="42.51559" lon="2.19493">
        <ele>996.54</ele>
        <time>2016-07-01T08:45:41Z</time>
      </trkpt>
      <trkpt lat="42.5156" lon="2.19494">
        <ele>996.54</ele>
        <time>2016-07-01T08:45:42Z</time>
      </trkpt>
      <trkpt lat="42.51562" lon="2.19495">
        <ele>996.54</ele>
        <time>2016-07-01T08:45:43Z</time>
      </trkpt>
      <trkpt lat="42.51563" lon="2.19496">
        <ele>996.06</ele>
        <time>2016-07-01T08:45:44Z</time>
      </trkpt>
      <trkpt lat="42.51564" lon="2.19497">
        <ele>996.06</ele>
        <time>2016-07-01T08:45:45Z</time>
      </trkpt>
      <trkpt lat="42.51565" lon="2.19497">
        <ele>996.06</ele>
        <time>2016-07-01T08:45:46Z</time>
      </trkpt>
      <trkpt lat="42.51566" lon="2.19499">
        <ele>996.06</ele>
        <time>2016-07-01T08:45:47Z</time>
      </trkpt>
      <trkpt lat="42.51568" lon="2.195">
        <ele>996.06</ele>
        <time>2016-07-01T08:45:48Z</time>
      </trkpt>
      <trkpt lat="42.51569" lon="2.19501">
        <ele>996.06</ele>
        <time>2016-07-01T08:45:49Z</time>
      </trkpt>
      <trkpt lat="42.5157" lon="2.19502">
        <ele>995.58</ele>
        <time>2016-07-01T08:45:50Z</time>
      </trkpt>
      <trkpt lat="42.51571" lon="2.19503">
        <ele>995.58</ele>
        <time>2016-07-01T08:45:51Z</time>
      </trkpt>
      <trkpt lat="42.51572" lon="2.19504">
        <ele>995.58</ele>
        <time>2016-07-01T08:45:52Z</time>
      </trkpt>
      <trkpt lat="42.51592" lon="2.19519">
        <ele>994.14</ele>
        <time>2016-07-01T08:46:07Z</time>
      </trkpt>
      <trkpt lat="42.51594" lon="2.1952">
        <ele>993.66</ele>
        <time>2016-07-01T08:46:08Z</time>
      </trkpt>
      <trkpt lat="42.51604" lon="2.19527">
        <ele>993.18</ele>
        <time>2016-07-01T08:46:16Z</time>
      </trkpt>
      <trkpt lat="42.51605" lon="2.19528">
        <ele>993.18</ele>
        <time>2016-07-01T08:46:17Z</time>
      </trkpt>
      <trkpt lat="42.51607" lon="2.19529">
        <ele>993.18</ele>
        <time>2016-07-01T08:46:18Z</time>
      </trkpt>
      <trkpt lat="42.51608" lon="2.1953">
        <ele>992.7</ele>
        <time>2016-07-01T08:46:19Z</time>
      </trkpt>
      <trkpt lat="42.51609" lon="2.1953">
        <ele>992.7</ele>
        <time>2016-07-01T08:46:20Z</time>
      </trkpt>
      <trkpt lat="42.51619" lon="2.19534">
        <ele>992.22</ele>
        <time>2016-07-01T08:46:28Z</time>
      </trkpt>
      <trkpt lat="42.51621" lon="2.19534">
        <ele>992.22</ele>
        <time>2016-07-01T08:46:29Z</time>
      </trkpt>
      <trkpt lat="42.51622" lon="2.19535">
        <ele>992.22</ele>
        <time>2016-07-01T08:46:30Z</time>
      </trkpt>
      <trkpt lat="42.51624" lon="2.19535">
        <ele>991.26</ele>
        <time>2016-07-01T08:46:31Z</time>
      </trkpt>
      <trkpt lat="42.51626" lon="2.19535">
        <ele>991.74</ele>
        <time>2016-07-01T08:46:32Z</time>
      </trkpt>
      <trkpt lat="42.51627" lon="2.19536">
        <ele>991.74</ele>
        <time>2016-07-01T08:46:33Z</time>
      </trkpt>
      <trkpt lat="42.51631" lon="2.19536">
        <ele>991.74</ele>
        <time>2016-07-01T08:46:35Z</time>
      </trkpt>
      <trkpt lat="42.51632" lon="2.19537">
        <ele>991.74</ele>
        <time>2016-07-01T08:46:36Z</time>
      </trkpt>
      <trkpt lat="42.51634" lon="2.19537">
        <ele>990.78</ele>
        <time>2016-07-01T08:46:37Z</time>
      </trkpt>
      <trkpt lat="42.51635" lon="2.19536">
        <ele>991.26</ele>
        <time>2016-07-01T08:46:38Z</time>
      </trkpt>
      <trkpt lat="42.51636" lon="2.19537">
        <ele>991.26</ele>
        <time>2016-07-01T08:46:39Z</time>
      </trkpt>
      <trkpt lat="42.51637" lon="2.19537">
        <ele>991.26</ele>
        <time>2016-07-01T08:46:40Z</time>
      </trkpt>
      <trkpt lat="42.51639" lon="2.19537">
        <ele>991.26</ele>
        <time>2016-07-01T08:46:41Z</time>
      </trkpt>
      <trkpt lat="42.5164" lon="2.19538">
        <ele>991.26</ele>
        <time>2016-07-01T08:46:42Z</time>
      </trkpt>
      <trkpt lat="42.51642" lon="2.19539">
        <ele>991.26</ele>
        <time>2016-07-01T08:46:43Z</time>
      </trkpt>
      <trkpt lat="42.51643" lon="2.1954">
        <ele>991.26</ele>
        <time>2016-07-01T08:46:44Z</time>
      </trkpt>
      <trkpt lat="42.51645" lon="2.19541">
        <ele>990.3</ele>
        <time>2016-07-01T08:46:45Z</time>
      </trkpt>
      <trkpt lat="42.51653" lon="2.19544">
        <ele>989.81</ele>
        <time>2016-07-01T08:46:51Z</time>
      </trkpt>
      <trkpt lat="42.51654" lon="2.19545">
        <ele>989.81</ele>
        <time>2016-07-01T08:46:52Z</time>
      </trkpt>
      <trkpt lat="42.51656" lon="2.19545">
        <ele>989.81</ele>
        <time>2016-07-01T08:46:53Z</time>
      </trkpt>
      <trkpt lat="42.51657" lon="2.19546">
        <ele>989.81</ele>
        <time>2016-07-01T08:46:54Z</time>
      </trkpt>
      <trkpt lat="42.51658" lon="2.19546">
        <ele>989.81</ele>
        <time>2016-07-01T08:46:55Z</time>
      </trkpt>
      <trkpt lat="42.5166" lon="2.19547">
        <ele>989.81</ele>
        <time>2016-07-01T08:46:56Z</time>
      </trkpt>
      <trkpt lat="42.51662" lon="2.19548">
        <ele>989.81</ele>
        <time>2016-07-01T08:46:57Z</time>
      </trkpt>
      <trkpt lat="42.51663" lon="2.19548">
        <ele>989.33</ele>
        <time>2016-07-01T08:46:58Z</time>
      </trkpt>
      <trkpt lat="42.51664" lon="2.19549">
        <ele>989.33</ele>
        <time>2016-07-01T08:46:59Z</time>
      </trkpt>
      <trkpt lat="42.51665" lon="2.19549">
        <ele>989.33</ele>
        <time>2016-07-01T08:47:00Z</time>
      </trkpt>
      <trkpt lat="42.51667" lon="2.19549">
        <ele>989.33</ele>
        <time>2016-07-01T08:47:01Z</time>
      </trkpt>
      <trkpt lat="42.51675" lon="2.19554">
        <ele>989.33</ele>
        <time>2016-07-01T08:47:07Z</time>
      </trkpt>
      <trkpt lat="42.51676" lon="2.19556">
        <ele>988.85</ele>
        <time>2016-07-01T08:47:08Z</time>
      </trkpt>
      <trkpt lat="42.51678" lon="2.19557">
        <ele>988.85</ele>
        <time>2016-07-01T08:47:09Z</time>
      </trkpt>
      <trkpt lat="42.51679" lon="2.19558">
        <ele>988.85</ele>
        <time>2016-07-01T08:47:10Z</time>
      </trkpt>
      <trkpt lat="42.5168" lon="2.19559">
        <ele>988.85</ele>
        <time>2016-07-01T08:47:11Z</time>
      </trkpt>
      <trkpt lat="42.51682" lon="2.1956">
        <ele>988.85</ele>
        <time>2016-07-01T08:47:12Z</time>
      </trkpt>
      <trkpt lat="42.51683" lon="2.19561">
        <ele>988.85</ele>
        <time>2016-07-01T08:47:13Z</time>
      </trkpt>
      <trkpt lat="42.51684" lon="2.19562">
        <ele>988.85</ele>
        <time>2016-07-01T08:47:14Z</time>
      </trkpt>
      <trkpt lat="42.51693" lon="2.19574">
        <ele>987.89</ele>
        <time>2016-07-01T08:47:22Z</time>
      </trkpt>
      <trkpt lat="42.51694" lon="2.19575">
        <ele>987.89</ele>
        <time>2016-07-01T08:47:23Z</time>
      </trkpt>
      <trkpt lat="42.51694" lon="2.19577">
        <ele>987.89</ele>
        <time>2016-07-01T08:47:24Z</time>
      </trkpt>
      <trkpt lat="42.51695" lon="2.19578">
        <ele>987.89</ele>
        <time>2016-07-01T08:47:25Z</time>
      </trkpt>
      <trkpt lat="42.51696" lon="2.19579">
        <ele>986.93</ele>
        <time>2016-07-01T08:47:26Z</time>
      </trkpt>
      <trkpt lat="42.51699" lon="2.19585">
        <ele>986.93</ele>
        <time>2016-07-01T08:47:29Z</time>
      </trkpt>
      <trkpt lat="42.51699" lon="2.19587">
        <ele>986.93</ele>
        <time>2016-07-01T08:47:30Z</time>
      </trkpt>
      <trkpt lat="42.517" lon="2.19589">
        <ele>986.93</ele>
        <time>2016-07-01T08:47:31Z</time>
      </trkpt>
      <trkpt lat="42.51701" lon="2.19591">
        <ele>986.45</ele>
        <time>2016-07-01T08:47:32Z</time>
      </trkpt>
      <trkpt lat="42.51702" lon="2.19593">
        <ele>986.45</ele>
        <time>2016-07-01T08:47:33Z</time>
      </trkpt>
      <trkpt lat="42.51702" lon="2.19595">
        <ele>986.45</ele>
        <time>2016-07-01T08:47:34Z</time>
      </trkpt>
      <trkpt lat="42.51704" lon="2.19605">
        <ele>985.97</ele>
        <time>2016-07-01T08:47:39Z</time>
      </trkpt>
      <trkpt lat="42.51705" lon="2.19607">
        <ele>985.97</ele>
        <time>2016-07-01T08:47:40Z</time>
      </trkpt>
      <trkpt lat="42.51705" lon="2.19608">
        <ele>985.97</ele>
        <time>2016-07-01T08:47:41Z</time>
      </trkpt>
      <trkpt lat="42.51705" lon="2.1961">
        <ele>985.97</ele>
        <time>2016-07-01T08:47:42Z</time>
      </trkpt>
      <trkpt lat="42.51706" lon="2.19613">
        <ele>985.97</ele>
        <time>2016-07-01T08:47:43Z</time>
      </trkpt>
      <trkpt lat="42.51706" lon="2.19614">
        <ele>985.97</ele>
        <time>2016-07-01T08:47:44Z</time>
      </trkpt>
      <trkpt lat="42.51706" lon="2.19617">
        <ele>985.97</ele>
        <time>2016-07-01T08:47:45Z</time>
      </trkpt>
      <trkpt lat="42.51706" lon="2.19619">
        <ele>985.49</ele>
        <time>2016-07-01T08:47:46Z</time>
      </trkpt>
      <trkpt lat="42.51707" lon="2.19621">
        <ele>985.49</ele>
        <time>2016-07-01T08:47:47Z</time>
      </trkpt>
      <trkpt lat="42.51708" lon="2.19623">
        <ele>985.49</ele>
        <time>2016-07-01T08:47:48Z</time>
      </trkpt>
      <trkpt lat="42.51708" lon="2.19625">
        <ele>985.49</ele>
        <time>2016-07-01T08:47:49Z</time>
      </trkpt>
      <trkpt lat="42.51709" lon="2.19628">
        <ele>985.49</ele>
        <time>2016-07-01T08:47:50Z</time>
      </trkpt>
      <trkpt lat="42.51709" lon="2.1963">
        <ele>985.01</ele>
        <time>2016-07-01T08:47:51Z</time>
      </trkpt>
      <trkpt lat="42.51709" lon="2.19632">
        <ele>985.01</ele>
        <time>2016-07-01T08:47:52Z</time>
      </trkpt>
      <trkpt lat="42.51709" lon="2.19633">
        <ele>985.01</ele>
        <time>2016-07-01T08:47:53Z</time>
      </trkpt>
      <trkpt lat="42.5171" lon="2.19635">
        <ele>985.01</ele>
        <time>2016-07-01T08:47:54Z</time>
      </trkpt>
      <trkpt lat="42.51711" lon="2.19637">
        <ele>985.01</ele>
        <time>2016-07-01T08:47:55Z</time>
      </trkpt>
      <trkpt lat="42.51711" lon="2.19638">
        <ele>985.01</ele>
        <time>2016-07-01T08:47:56Z</time>
      </trkpt>
      <trkpt lat="42.51711" lon="2.1964">
        <ele>984.53</ele>
        <time>2016-07-01T08:47:57Z</time>
      </trkpt>
      <trkpt lat="42.51712" lon="2.19642">
        <ele>984.53</ele>
        <time>2016-07-01T08:47:58Z</time>
      </trkpt>
      <trkpt lat="42.51712" lon="2.19644">
        <ele>984.53</ele>
        <time>2016-07-01T08:47:59Z</time>
      </trkpt>
      <trkpt lat="42.51713" lon="2.19645">
        <ele>984.53</ele>
        <time>2016-07-01T08:48:00Z</time>
      </trkpt>
      <trkpt lat="42.51712" lon="2.19648">
        <ele>984.53</ele>
        <time>2016-07-01T08:48:01Z</time>
      </trkpt>
      <trkpt lat="42.51711" lon="2.19653">
        <ele>984.53</ele>
        <time>2016-07-01T08:48:03Z</time>
      </trkpt>
      <trkpt lat="42.51711" lon="2.19655">
        <ele>984.05</ele>
        <time>2016-07-01T08:48:04Z</time>
      </trkpt>
      <trkpt lat="42.51711" lon="2.19657">
        <ele>984.05</ele>
        <time>2016-07-01T08:48:05Z</time>
      </trkpt>
      <trkpt lat="42.51707" lon="2.19677">
        <ele>982.6</ele>
        <time>2016-07-01T08:48:15Z</time>
      </trkpt>
      <trkpt lat="42.517" lon="2.197">
        <ele>980.68</ele>
        <time>2016-07-01T08:48:26Z</time>
      </trkpt>
      <trkpt lat="42.51699" lon="2.19707">
        <ele>980.2</ele>
        <time>2016-07-01T08:48:30Z</time>
      </trkpt>
      <trkpt lat="42.51699" lon="2.19709">
        <ele>980.2</ele>
        <time>2016-07-01T08:48:31Z</time>
      </trkpt>
      <trkpt lat="42.51699" lon="2.19711">
        <ele>980.2</ele>
        <time>2016-07-01T08:48:32Z</time>
      </trkpt>
      <trkpt lat="42.51698" lon="2.19725">
        <ele>979.24</ele>
        <time>2016-07-01T08:48:40Z</time>
      </trkpt>
      <trkpt lat="42.51698" lon="2.19727">
        <ele>979.24</ele>
        <time>2016-07-01T08:48:41Z</time>
      </trkpt>
      <trkpt lat="42.51699" lon="2.19729">
        <ele>979.24</ele>
        <time>2016-07-01T08:48:42Z</time>
      </trkpt>
      <trkpt lat="42.51699" lon="2.19731">
        <ele>979.24</ele>
        <time>2016-07-01T08:48:43Z</time>
      </trkpt>
      <trkpt lat="42.51698" lon="2.19733">
        <ele>978.28</ele>
        <time>2016-07-01T08:48:44Z</time>
      </trkpt>
      <trkpt lat="42.51699" lon="2.19735">
        <ele>978.76</ele>
        <time>2016-07-01T08:48:45Z</time>
      </trkpt>
      <trkpt lat="42.51699" lon="2.19737">
        <ele>978.76</ele>
        <time>2016-07-01T08:48:46Z</time>
      </trkpt>
      <trkpt lat="42.517" lon="2.19739">
        <ele>978.76</ele>
        <time>2016-07-01T08:48:47Z</time>
      </trkpt>
      <trkpt lat="42.517" lon="2.19741">
        <ele>977.8</ele>
        <time>2016-07-01T08:48:48Z</time>
      </trkpt>
      <trkpt lat="42.51701" lon="2.19744">
        <ele>977.8</ele>
        <time>2016-07-01T08:48:49Z</time>
      </trkpt>
      <trkpt lat="42.51701" lon="2.19746">
        <ele>977.8</ele>
        <time>2016-07-01T08:48:50Z</time>
      </trkpt>
      <trkpt lat="42.51702" lon="2.19749">
        <ele>977.8</ele>
        <time>2016-07-01T08:48:51Z</time>
      </trkpt>
      <trkpt lat="42.51702" lon="2.19751">
        <ele>977.32</ele>
        <time>2016-07-01T08:48:52Z</time>
      </trkpt>
      <trkpt lat="42.51702" lon="2.19754">
        <ele>977.32</ele>
        <time>2016-07-01T08:48:53Z</time>
      </trkpt>
      <trkpt lat="42.51702" lon="2.19756">
        <ele>977.32</ele>
        <time>2016-07-01T08:48:54Z</time>
      </trkpt>
      <trkpt lat="42.51705" lon="2.19767">
        <ele>976.36</ele>
        <time>2016-07-01T08:49:00Z</time>
      </trkpt>
      <trkpt lat="42.51705" lon="2.19769">
        <ele>976.36</ele>
        <time>2016-07-01T08:49:01Z</time>
      </trkpt>
      <trkpt lat="42.51706" lon="2.1977">
        <ele>976.36</ele>
        <time>2016-07-01T08:49:02Z</time>
      </trkpt>
      <trkpt lat="42.51706" lon="2.19772">
        <ele>976.36</ele>
        <time>2016-07-01T08:49:03Z</time>
      </trkpt>
      <trkpt lat="42.51707" lon="2.19774">
        <ele>976.36</ele>
        <time>2016-07-01T08:49:04Z</time>
      </trkpt>
      <trkpt lat="42.51707" lon="2.19777">
        <ele>975.88</ele>
        <time>2016-07-01T08:49:05Z</time>
      </trkpt>
      <trkpt lat="42.51708" lon="2.19779">
        <ele>975.88</ele>
        <time>2016-07-01T08:49:06Z</time>
      </trkpt>
      <trkpt lat="42.51708" lon="2.19781">
        <ele>975.88</ele>
        <time>2016-07-01T08:49:07Z</time>
      </trkpt>
      <trkpt lat="42.5171" lon="2.19792">
        <ele>974.91</ele>
        <time>2016-07-01T08:49:12Z</time>
      </trkpt>
      <trkpt lat="42.5171" lon="2.19794">
        <ele>974.91</ele>
        <time>2016-07-01T08:49:13Z</time>
      </trkpt>
      <trkpt lat="42.5171" lon="2.19796">
        <ele>974.91</ele>
        <time>2016-07-01T08:49:14Z</time>
      </trkpt>
      <trkpt lat="42.51711" lon="2.19801">
        <ele>974.91</ele>
        <time>2016-07-01T08:49:16Z</time>
      </trkpt>
      <trkpt lat="42.51711" lon="2.19803">
        <ele>974.43</ele>
        <time>2016-07-01T08:49:17Z</time>
      </trkpt>
      <trkpt lat="42.5171" lon="2.19806">
        <ele>974.43</ele>
        <time>2016-07-01T08:49:19Z</time>
      </trkpt>
      <trkpt lat="42.5171" lon="2.19808">
        <ele>974.43</ele>
        <time>2016-07-01T08:49:20Z</time>
      </trkpt>
      <trkpt lat="42.5171" lon="2.1981">
        <ele>974.43</ele>
        <time>2016-07-01T08:49:21Z</time>
      </trkpt>
      <trkpt lat="42.5171" lon="2.19813">
        <ele>974.43</ele>
        <time>2016-07-01T08:49:22Z</time>
      </trkpt>
      <trkpt lat="42.5171" lon="2.19815">
        <ele>974.43</ele>
        <time>2016-07-01T08:49:23Z</time>
      </trkpt>
      <trkpt lat="42.5171" lon="2.19817">
        <ele>973.95</ele>
        <time>2016-07-01T08:49:24Z</time>
      </trkpt>
      <trkpt lat="42.5171" lon="2.19819">
        <ele>973.95</ele>
        <time>2016-07-01T08:49:25Z</time>
      </trkpt>
      <trkpt lat="42.51709" lon="2.19822">
        <ele>973.95</ele>
        <time>2016-07-01T08:49:26Z</time>
      </trkpt>
      <trkpt lat="42.51709" lon="2.19824">
        <ele>973.95</ele>
        <time>2016-07-01T08:49:27Z</time>
      </trkpt>
      <trkpt lat="42.51709" lon="2.19826">
        <ele>973.95</ele>
        <time>2016-07-01T08:49:28Z</time>
      </trkpt>
      <trkpt lat="42.51709" lon="2.19828">
        <ele>973.95</ele>
        <time>2016-07-01T08:49:29Z</time>
      </trkpt>
      <trkpt lat="42.51703" lon="2.19849">
        <ele>972.51</ele>
        <time>2016-07-01T08:49:40Z</time>
      </trkpt>
      <trkpt lat="42.51696" lon="2.19876">
        <ele>970.59</ele>
        <time>2016-07-01T08:49:54Z</time>
      </trkpt>
      <trkpt lat="42.51688" lon="2.19897">
        <ele>969.63</ele>
        <time>2016-07-01T08:50:06Z</time>
      </trkpt>
      <trkpt lat="42.51686" lon="2.19902">
        <ele>969.15</ele>
        <time>2016-07-01T08:50:11Z</time>
      </trkpt>
      <trkpt lat="42.51685" lon="2.19902">
        <ele>969.15</ele>
        <time>2016-07-01T08:50:12Z</time>
      </trkpt>
      <trkpt lat="42.51683" lon="2.19903">
        <ele>969.15</ele>
        <time>2016-07-01T08:50:13Z</time>
      </trkpt>
      <trkpt lat="42.51674" lon="2.19905">
        <ele>969.15</ele>
        <time>2016-07-01T08:50:24Z</time>
      </trkpt>
      <trkpt lat="42.5168" lon="2.19913">
        <ele>968.67</ele>
        <time>2016-07-01T08:50:30Z</time>
      </trkpt>
      <trkpt lat="42.51682" lon="2.1992">
        <ele>968.67</ele>
        <time>2016-07-01T08:50:34Z</time>
      </trkpt>
      <trkpt lat="42.5168" lon="2.1993">
        <ele>968.18</ele>
        <time>2016-07-01T08:50:39Z</time>
      </trkpt>
      <trkpt lat="42.5168" lon="2.1994">
        <ele>968.18</ele>
        <time>2016-07-01T08:50:44Z</time>
      </trkpt>
      <trkpt lat="42.5168" lon="2.19945">
        <ele>967.7</ele>
        <time>2016-07-01T08:50:47Z</time>
      </trkpt>
      <trkpt lat="42.51679" lon="2.19954">
        <ele>967.22</ele>
        <time>2016-07-01T08:50:52Z</time>
      </trkpt>
      <trkpt lat="42.51682" lon="2.1998">
        <ele>966.74</ele>
        <time>2016-07-01T08:51:03Z</time>
      </trkpt>
      <trkpt lat="42.51683" lon="2.19984">
        <ele>966.26</ele>
        <time>2016-07-01T08:51:05Z</time>
      </trkpt>
      <trkpt lat="42.51683" lon="2.19985">
        <ele>966.26</ele>
        <time>2016-07-01T08:51:06Z</time>
      </trkpt>
      <trkpt lat="42.51684" lon="2.19987">
        <ele>966.26</ele>
        <time>2016-07-01T08:51:07Z</time>
      </trkpt>
      <trkpt lat="42.51684" lon="2.19989">
        <ele>966.26</ele>
        <time>2016-07-01T08:51:08Z</time>
      </trkpt>
      <trkpt lat="42.51685" lon="2.1999">
        <ele>966.26</ele>
        <time>2016-07-01T08:51:09Z</time>
      </trkpt>
      <trkpt lat="42.51685" lon="2.19992">
        <ele>966.26</ele>
        <time>2016-07-01T08:51:10Z</time>
      </trkpt>
      <trkpt lat="42.51686" lon="2.19994">
        <ele>965.3</ele>
        <time>2016-07-01T08:51:11Z</time>
      </trkpt>
      <trkpt lat="42.51686" lon="2.19995">
        <ele>965.78</ele>
        <time>2016-07-01T08:51:12Z</time>
      </trkpt>
      <trkpt lat="42.51687" lon="2.19997">
        <ele>965.3</ele>
        <time>2016-07-01T08:51:13Z</time>
      </trkpt>
      <trkpt lat="42.51688" lon="2.19999">
        <ele>965.3</ele>
        <time>2016-07-01T08:51:14Z</time>
      </trkpt>
      <trkpt lat="42.51689" lon="2.2">
        <ele>965.3</ele>
        <time>2016-07-01T08:51:15Z</time>
      </trkpt>
      <trkpt lat="42.5169" lon="2.20002">
        <ele>965.3</ele>
        <time>2016-07-01T08:51:16Z</time>
      </trkpt>
      <trkpt lat="42.51691" lon="2.20004">
        <ele>965.3</ele>
        <time>2016-07-01T08:51:17Z</time>
      </trkpt>
      <trkpt lat="42.51691" lon="2.20006">
        <ele>965.3</ele>
        <time>2016-07-01T08:51:18Z</time>
      </trkpt>
      <trkpt lat="42.51692" lon="2.20007">
        <ele>965.3</ele>
        <time>2016-07-01T08:51:19Z</time>
      </trkpt>
      <trkpt lat="42.51693" lon="2.20009">
        <ele>965.3</ele>
        <time>2016-07-01T08:51:20Z</time>
      </trkpt>
      <trkpt lat="42.51694" lon="2.2001">
        <ele>964.82</ele>
        <time>2016-07-01T08:51:21Z</time>
      </trkpt>
      <trkpt lat="42.51695" lon="2.20012">
        <ele>964.82</ele>
        <time>2016-07-01T08:51:22Z</time>
      </trkpt>
      <trkpt lat="42.51695" lon="2.20013">
        <ele>964.82</ele>
        <time>2016-07-01T08:51:23Z</time>
      </trkpt>
      <trkpt lat="42.51696" lon="2.20015">
        <ele>964.82</ele>
        <time>2016-07-01T08:51:24Z</time>
      </trkpt>
      <trkpt lat="42.51697" lon="2.20016">
        <ele>964.82</ele>
        <time>2016-07-01T08:51:25Z</time>
      </trkpt>
      <trkpt lat="42.51698" lon="2.20018">
        <ele>964.82</ele>
        <time>2016-07-01T08:51:26Z</time>
      </trkpt>
      <trkpt lat="42.51699" lon="2.20019">
        <ele>964.82</ele>
        <time>2016-07-01T08:51:27Z</time>
      </trkpt>
      <trkpt lat="42.517" lon="2.20021">
        <ele>964.82</ele>
        <time>2016-07-01T08:51:28Z</time>
      </trkpt>
      <trkpt lat="42.51701" lon="2.20023">
        <ele>964.34</ele>
        <time>2016-07-01T08:51:29Z</time>
      </trkpt>
      <trkpt lat="42.51701" lon="2.20025">
        <ele>964.34</ele>
        <time>2016-07-01T08:51:30Z</time>
      </trkpt>
      <trkpt lat="42.51702" lon="2.20027">
        <ele>964.34</ele>
        <time>2016-07-01T08:51:31Z</time>
      </trkpt>
      <trkpt lat="42.51703" lon="2.20029">
        <ele>964.34</ele>
        <time>2016-07-01T08:51:32Z</time>
      </trkpt>
      <trkpt lat="42.51703" lon="2.20031">
        <ele>964.34</ele>
        <time>2016-07-01T08:51:33Z</time>
      </trkpt>
      <trkpt lat="42.51706" lon="2.20037">
        <ele>964.34</ele>
        <time>2016-07-01T08:51:36Z</time>
      </trkpt>
      <trkpt lat="42.51706" lon="2.20038">
        <ele>964.34</ele>
        <time>2016-07-01T08:51:37Z</time>
      </trkpt>
      <trkpt lat="42.51707" lon="2.2004">
        <ele>964.34</ele>
        <time>2016-07-01T08:51:38Z</time>
      </trkpt>
      <trkpt lat="42.51708" lon="2.20041">
        <ele>964.34</ele>
        <time>2016-07-01T08:51:39Z</time>
      </trkpt>
      <trkpt lat="42.51709" lon="2.20043">
        <ele>964.34</ele>
        <time>2016-07-01T08:51:40Z</time>
      </trkpt>
      <trkpt lat="42.51709" lon="2.20044">
        <ele>964.34</ele>
        <time>2016-07-01T08:51:41Z</time>
      </trkpt>
      <trkpt lat="42.5171" lon="2.20046">
        <ele>964.34</ele>
        <time>2016-07-01T08:51:42Z</time>
      </trkpt>
      <trkpt lat="42.51711" lon="2.20048">
        <ele>964.34</ele>
        <time>2016-07-01T08:51:43Z</time>
      </trkpt>
      <trkpt lat="42.51712" lon="2.20049">
        <ele>964.34</ele>
        <time>2016-07-01T08:51:44Z</time>
      </trkpt>
      <trkpt lat="42.51713" lon="2.20051">
        <ele>964.34</ele>
        <time>2016-07-01T08:51:45Z</time>
      </trkpt>
      <trkpt lat="42.51714" lon="2.20053">
        <ele>964.34</ele>
        <time>2016-07-01T08:51:46Z</time>
      </trkpt>
      <trkpt lat="42.51715" lon="2.20055">
        <ele>963.86</ele>
        <time>2016-07-01T08:51:47Z</time>
      </trkpt>
      <trkpt lat="42.51715" lon="2.20056">
        <ele>963.86</ele>
        <time>2016-07-01T08:51:48Z</time>
      </trkpt>
      <trkpt lat="42.51716" lon="2.20057">
        <ele>963.86</ele>
        <time>2016-07-01T08:51:49Z</time>
      </trkpt>
      <trkpt lat="42.51717" lon="2.20059">
        <ele>963.86</ele>
        <time>2016-07-01T08:51:50Z</time>
      </trkpt>
      <trkpt lat="42.51718" lon="2.2006">
        <ele>963.86</ele>
        <time>2016-07-01T08:51:51Z</time>
      </trkpt>
      <trkpt lat="42.51719" lon="2.20062">
        <ele>963.86</ele>
        <time>2016-07-01T08:51:52Z</time>
      </trkpt>
      <trkpt lat="42.5172" lon="2.20063">
        <ele>963.86</ele>
        <time>2016-07-01T08:51:53Z</time>
      </trkpt>
      <trkpt lat="42.5172" lon="2.20065">
        <ele>963.86</ele>
        <time>2016-07-01T08:51:54Z</time>
      </trkpt>
      <trkpt lat="42.51721" lon="2.20067">
        <ele>963.86</ele>
        <time>2016-07-01T08:51:55Z</time>
      </trkpt>
      <trkpt lat="42.51722" lon="2.20069">
        <ele>963.86</ele>
        <time>2016-07-01T08:51:56Z</time>
      </trkpt>
      <trkpt lat="42.51723" lon="2.20071">
        <ele>963.86</ele>
        <time>2016-07-01T08:51:57Z</time>
      </trkpt>
      <trkpt lat="42.51724" lon="2.20074">
        <ele>963.86</ele>
        <time>2016-07-01T08:51:58Z</time>
      </trkpt>
      <trkpt lat="42.51725" lon="2.20078">
        <ele>963.86</ele>
        <time>2016-07-01T08:52:00Z</time>
      </trkpt>
      <trkpt lat="42.51726" lon="2.2008">
        <ele>963.86</ele>
        <time>2016-07-01T08:52:01Z</time>
      </trkpt>
      <trkpt lat="42.51727" lon="2.20081">
        <ele>963.86</ele>
        <time>2016-07-01T08:52:02Z</time>
      </trkpt>
      <trkpt lat="42.51727" lon="2.20083">
        <ele>963.86</ele>
        <time>2016-07-01T08:52:03Z</time>
      </trkpt>
      <trkpt lat="42.51728" lon="2.20085">
        <ele>963.86</ele>
        <time>2016-07-01T08:52:04Z</time>
      </trkpt>
      <trkpt lat="42.51729" lon="2.20086">
        <ele>963.38</ele>
        <time>2016-07-01T08:52:05Z</time>
      </trkpt>
      <trkpt lat="42.51729" lon="2.20087">
        <ele>963.38</ele>
        <time>2016-07-01T08:52:06Z</time>
      </trkpt>
      <trkpt lat="42.5173" lon="2.20089">
        <ele>963.38</ele>
        <time>2016-07-01T08:52:07Z</time>
      </trkpt>
      <trkpt lat="42.51731" lon="2.20091">
        <ele>963.38</ele>
        <time>2016-07-01T08:52:08Z</time>
      </trkpt>
      <trkpt lat="42.51738" lon="2.20106">
        <ele>962.9</ele>
        <time>2016-07-01T08:52:16Z</time>
      </trkpt>
      <trkpt lat="42.51739" lon="2.20108">
        <ele>962.9</ele>
        <time>2016-07-01T08:52:17Z</time>
      </trkpt>
      <trkpt lat="42.5174" lon="2.20109">
        <ele>962.9</ele>
        <time>2016-07-01T08:52:18Z</time>
      </trkpt>
      <trkpt lat="42.51741" lon="2.20111">
        <ele>962.9</ele>
        <time>2016-07-01T08:52:19Z</time>
      </trkpt>
      <trkpt lat="42.51742" lon="2.20113">
        <ele>962.9</ele>
        <time>2016-07-01T08:52:20Z</time>
      </trkpt>
      <trkpt lat="42.51743" lon="2.20114">
        <ele>961.94</ele>
        <time>2016-07-01T08:52:21Z</time>
      </trkpt>
      <trkpt lat="42.51745" lon="2.20118">
        <ele>961.94</ele>
        <time>2016-07-01T08:52:24Z</time>
      </trkpt>
      <trkpt lat="42.51746" lon="2.2012">
        <ele>961.94</ele>
        <time>2016-07-01T08:52:25Z</time>
      </trkpt>
      <trkpt lat="42.51747" lon="2.20121">
        <ele>961.94</ele>
        <time>2016-07-01T08:52:26Z</time>
      </trkpt>
      <trkpt lat="42.51755" lon="2.20141">
        <ele>961.46</ele>
        <time>2016-07-01T08:52:36Z</time>
      </trkpt>
      <trkpt lat="42.51755" lon="2.20143">
        <ele>961.46</ele>
        <time>2016-07-01T08:52:37Z</time>
      </trkpt>
      <trkpt lat="42.51758" lon="2.20149">
        <ele>960.98</ele>
        <time>2016-07-01T08:52:40Z</time>
      </trkpt>
      <trkpt lat="42.51758" lon="2.2015">
        <ele>960.98</ele>
        <time>2016-07-01T08:52:41Z</time>
      </trkpt>
      <trkpt lat="42.51759" lon="2.20152">
        <ele>960.98</ele>
        <time>2016-07-01T08:52:42Z</time>
      </trkpt>
      <trkpt lat="42.5176" lon="2.20153">
        <ele>960.98</ele>
        <time>2016-07-01T08:52:43Z</time>
      </trkpt>
      <trkpt lat="42.51761" lon="2.20155">
        <ele>960.98</ele>
        <time>2016-07-01T08:52:44Z</time>
      </trkpt>
      <trkpt lat="42.51762" lon="2.20157">
        <ele>960.98</ele>
        <time>2016-07-01T08:52:45Z</time>
      </trkpt>
      <trkpt lat="42.51767" lon="2.20168">
        <ele>960.49</ele>
        <time>2016-07-01T08:52:52Z</time>
      </trkpt>
      <trkpt lat="42.51768" lon="2.2017">
        <ele>960.49</ele>
        <time>2016-07-01T08:52:53Z</time>
      </trkpt>
      <trkpt lat="42.51769" lon="2.20172">
        <ele>960.49</ele>
        <time>2016-07-01T08:52:54Z</time>
      </trkpt>
      <trkpt lat="42.5177" lon="2.20174">
        <ele>960.01</ele>
        <time>2016-07-01T08:52:55Z</time>
      </trkpt>
      <trkpt lat="42.51771" lon="2.20176">
        <ele>960.01</ele>
        <time>2016-07-01T08:52:56Z</time>
      </trkpt>
      <trkpt lat="42.51772" lon="2.20178">
        <ele>960.01</ele>
        <time>2016-07-01T08:52:57Z</time>
      </trkpt>
      <trkpt lat="42.51773" lon="2.2018">
        <ele>960.01</ele>
        <time>2016-07-01T08:52:58Z</time>
      </trkpt>
      <trkpt lat="42.51779" lon="2.20191">
        <ele>959.53</ele>
        <time>2016-07-01T08:53:04Z</time>
      </trkpt>
      <trkpt lat="42.5178" lon="2.20193">
        <ele>959.53</ele>
        <time>2016-07-01T08:53:05Z</time>
      </trkpt>
      <trkpt lat="42.51782" lon="2.20198">
        <ele>958.57</ele>
        <time>2016-07-01T08:53:08Z</time>
      </trkpt>
      <trkpt lat="42.51783" lon="2.202">
        <ele>958.57</ele>
        <time>2016-07-01T08:53:09Z</time>
      </trkpt>
      <trkpt lat="42.51784" lon="2.20202">
        <ele>958.57</ele>
        <time>2016-07-01T08:53:10Z</time>
      </trkpt>
      <trkpt lat="42.51785" lon="2.20204">
        <ele>958.57</ele>
        <time>2016-07-01T08:53:11Z</time>
      </trkpt>
      <trkpt lat="42.51785" lon="2.20205">
        <ele>958.09</ele>
        <time>2016-07-01T08:53:12Z</time>
      </trkpt>
      <trkpt lat="42.51786" lon="2.20207">
        <ele>958.09</ele>
        <time>2016-07-01T08:53:13Z</time>
      </trkpt>
      <trkpt lat="42.51788" lon="2.2021">
        <ele>958.09</ele>
        <time>2016-07-01T08:53:15Z</time>
      </trkpt>
      <trkpt lat="42.51788" lon="2.20212">
        <ele>958.09</ele>
        <time>2016-07-01T08:53:16Z</time>
      </trkpt>
      <trkpt lat="42.51789" lon="2.20214">
        <ele>958.09</ele>
        <time>2016-07-01T08:53:17Z</time>
      </trkpt>
      <trkpt lat="42.5179" lon="2.20216">
        <ele>957.61</ele>
        <time>2016-07-01T08:53:18Z</time>
      </trkpt>
      <trkpt lat="42.5179" lon="2.20218">
        <ele>957.61</ele>
        <time>2016-07-01T08:53:19Z</time>
      </trkpt>
      <trkpt lat="42.51791" lon="2.20219">
        <ele>957.61</ele>
        <time>2016-07-01T08:53:20Z</time>
      </trkpt>
      <trkpt lat="42.51792" lon="2.20223">
        <ele>957.13</ele>
        <time>2016-07-01T08:53:23Z</time>
      </trkpt>
      <trkpt lat="42.51794" lon="2.20228">
        <ele>957.13</ele>
        <time>2016-07-01T08:53:26Z</time>
      </trkpt>
      <trkpt lat="42.51795" lon="2.2023">
        <ele>956.65</ele>
        <time>2016-07-01T08:53:27Z</time>
      </trkpt>
      <trkpt lat="42.51795" lon="2.20232">
        <ele>956.65</ele>
        <time>2016-07-01T08:53:28Z</time>
      </trkpt>
      <trkpt lat="42.51795" lon="2.20234">
        <ele>956.65</ele>
        <time>2016-07-01T08:53:29Z</time>
      </trkpt>
      <trkpt lat="42.51795" lon="2.20235">
        <ele>956.65</ele>
        <time>2016-07-01T08:53:30Z</time>
      </trkpt>
      <trkpt lat="42.51795" lon="2.20237">
        <ele>956.65</ele>
        <time>2016-07-01T08:53:31Z</time>
      </trkpt>
      <trkpt lat="42.51796" lon="2.20238">
        <ele>955.69</ele>
        <time>2016-07-01T08:53:32Z</time>
      </trkpt>
      <trkpt lat="42.51797" lon="2.20238">
        <ele>956.17</ele>
        <time>2016-07-01T08:53:33Z</time>
      </trkpt>
      <trkpt lat="42.51803" lon="2.20236">
        <ele>955.69</ele>
        <time>2016-07-01T08:53:37Z</time>
      </trkpt>
      <trkpt lat="42.5181" lon="2.20246">
        <ele>955.69</ele>
        <time>2016-07-01T08:53:45Z</time>
      </trkpt>
      <trkpt lat="42.51811" lon="2.20249">
        <ele>955.69</ele>
        <time>2016-07-01T08:53:47Z</time>
      </trkpt>
      <trkpt lat="42.5181" lon="2.20253">
        <ele>955.69</ele>
        <time>2016-07-01T08:53:53Z</time>
      </trkpt>
      <trkpt lat="42.51806" lon="2.20255">
        <ele>955.21</ele>
        <time>2016-07-01T08:53:57Z</time>
      </trkpt>
      <trkpt lat="42.51808" lon="2.20261">
        <ele>954.73</ele>
        <time>2016-07-01T08:54:01Z</time>
      </trkpt>
      <trkpt lat="42.51814" lon="2.20269">
        <ele>953.77</ele>
        <time>2016-07-01T08:54:07Z</time>
      </trkpt>
      <trkpt lat="42.51818" lon="2.20272">
        <ele>953.28</ele>
        <time>2016-07-01T08:54:10Z</time>
      </trkpt>
      <trkpt lat="42.51826" lon="2.20286">
        <ele>951.84</ele>
        <time>2016-07-01T08:54:20Z</time>
      </trkpt>
      <trkpt lat="42.51827" lon="2.2029">
        <ele>951.36</ele>
        <time>2016-07-01T08:54:22Z</time>
      </trkpt>
      <trkpt lat="42.51838" lon="2.20306">
        <ele>950.4</ele>
        <time>2016-07-01T08:54:33Z</time>
      </trkpt>
      <trkpt lat="42.51851" lon="2.20324">
        <ele>948.48</ele>
        <time>2016-07-01T08:54:46Z</time>
      </trkpt>
      <trkpt lat="42.51854" lon="2.20327">
        <ele>948</ele>
        <time>2016-07-01T08:54:48Z</time>
      </trkpt>
      <trkpt lat="42.5187" lon="2.20346">
        <ele>946.56</ele>
        <time>2016-07-01T08:55:01Z</time>
      </trkpt>
      <trkpt lat="42.51875" lon="2.20353">
        <ele>946.07</ele>
        <time>2016-07-01T08:55:06Z</time>
      </trkpt>
      <trkpt lat="42.51886" lon="2.20361">
        <ele>944.63</ele>
        <time>2016-07-01T08:55:14Z</time>
      </trkpt>
      <trkpt lat="42.51897" lon="2.20368">
        <ele>943.67</ele>
        <time>2016-07-01T08:55:22Z</time>
      </trkpt>
      <trkpt lat="42.51898" lon="2.20369">
        <ele>943.67</ele>
        <time>2016-07-01T08:55:23Z</time>
      </trkpt>
      <trkpt lat="42.519" lon="2.2037">
        <ele>943.67</ele>
        <time>2016-07-01T08:55:24Z</time>
      </trkpt>
      <trkpt lat="42.51901" lon="2.2037">
        <ele>943.67</ele>
        <time>2016-07-01T08:55:25Z</time>
      </trkpt>
      <trkpt lat="42.51902" lon="2.2037">
        <ele>943.19</ele>
        <time>2016-07-01T08:55:26Z</time>
      </trkpt>
      <trkpt lat="42.51905" lon="2.2037">
        <ele>943.19</ele>
        <time>2016-07-01T08:55:28Z</time>
      </trkpt>
      <trkpt lat="42.51906" lon="2.20371">
        <ele>943.19</ele>
        <time>2016-07-01T08:55:29Z</time>
      </trkpt>
      <trkpt lat="42.51908" lon="2.20371">
        <ele>943.19</ele>
        <time>2016-07-01T08:55:30Z</time>
      </trkpt>
      <trkpt lat="42.5191" lon="2.20372">
        <ele>943.19</ele>
        <time>2016-07-01T08:55:31Z</time>
      </trkpt>
      <trkpt lat="42.51911" lon="2.20372">
        <ele>942.23</ele>
        <time>2016-07-01T08:55:32Z</time>
      </trkpt>
      <trkpt lat="42.51912" lon="2.20373">
        <ele>942.71</ele>
        <time>2016-07-01T08:55:33Z</time>
      </trkpt>
      <trkpt lat="42.51914" lon="2.20374">
        <ele>942.71</ele>
        <time>2016-07-01T08:55:34Z</time>
      </trkpt>
      <trkpt lat="42.51924" lon="2.20377">
        <ele>941.75</ele>
        <time>2016-07-01T08:55:42Z</time>
      </trkpt>
      <trkpt lat="42.51925" lon="2.20378">
        <ele>941.75</ele>
        <time>2016-07-01T08:55:43Z</time>
      </trkpt>
      <trkpt lat="42.51927" lon="2.20379">
        <ele>941.27</ele>
        <time>2016-07-01T08:55:44Z</time>
      </trkpt>
      <trkpt lat="42.51928" lon="2.2038">
        <ele>941.27</ele>
        <time>2016-07-01T08:55:45Z</time>
      </trkpt>
      <trkpt lat="42.5193" lon="2.20381">
        <ele>941.27</ele>
        <time>2016-07-01T08:55:46Z</time>
      </trkpt>
      <trkpt lat="42.51932" lon="2.20383">
        <ele>941.27</ele>
        <time>2016-07-01T08:55:47Z</time>
      </trkpt>
      <trkpt lat="42.51933" lon="2.20384">
        <ele>941.27</ele>
        <time>2016-07-01T08:55:48Z</time>
      </trkpt>
      <trkpt lat="42.51935" lon="2.20385">
        <ele>940.79</ele>
        <time>2016-07-01T08:55:49Z</time>
      </trkpt>
      <trkpt lat="42.51936" lon="2.20386">
        <ele>940.79</ele>
        <time>2016-07-01T08:55:50Z</time>
      </trkpt>
      <trkpt lat="42.51938" lon="2.20387">
        <ele>940.79</ele>
        <time>2016-07-01T08:55:51Z</time>
      </trkpt>
      <trkpt lat="42.51939" lon="2.20388">
        <ele>940.79</ele>
        <time>2016-07-01T08:55:52Z</time>
      </trkpt>
      <trkpt lat="42.5194" lon="2.20389">
        <ele>940.31</ele>
        <time>2016-07-01T08:55:53Z</time>
      </trkpt>
      <trkpt lat="42.51942" lon="2.2039">
        <ele>940.31</ele>
        <time>2016-07-01T08:55:54Z</time>
      </trkpt>
      <trkpt lat="42.51943" lon="2.20391">
        <ele>940.31</ele>
        <time>2016-07-01T08:55:55Z</time>
      </trkpt>
      <trkpt lat="42.51947" lon="2.20396">
        <ele>939.35</ele>
        <time>2016-07-01T08:55:59Z</time>
      </trkpt>
      <trkpt lat="42.51948" lon="2.20398">
        <ele>939.83</ele>
        <time>2016-07-01T08:56:00Z</time>
      </trkpt>
      <trkpt lat="42.5195" lon="2.20399">
        <ele>939.83</ele>
        <time>2016-07-01T08:56:01Z</time>
      </trkpt>
      <trkpt lat="42.51951" lon="2.204">
        <ele>939.83</ele>
        <time>2016-07-01T08:56:02Z</time>
      </trkpt>
      <trkpt lat="42.51952" lon="2.20401">
        <ele>939.83</ele>
        <time>2016-07-01T08:56:03Z</time>
      </trkpt>
      <trkpt lat="42.51953" lon="2.20402">
        <ele>938.86</ele>
        <time>2016-07-01T08:56:04Z</time>
      </trkpt>
      <trkpt lat="42.51954" lon="2.20403">
        <ele>939.35</ele>
        <time>2016-07-01T08:56:05Z</time>
      </trkpt>
      <trkpt lat="42.51955" lon="2.20404">
        <ele>939.35</ele>
        <time>2016-07-01T08:56:06Z</time>
      </trkpt>
      <trkpt lat="42.51956" lon="2.20405">
        <ele>939.35</ele>
        <time>2016-07-01T08:56:07Z</time>
      </trkpt>
      <trkpt lat="42.51957" lon="2.20406">
        <ele>939.35</ele>
        <time>2016-07-01T08:56:08Z</time>
      </trkpt>
      <trkpt lat="42.51958" lon="2.20408">
        <ele>938.38</ele>
        <time>2016-07-01T08:56:09Z</time>
      </trkpt>
      <trkpt lat="42.51959" lon="2.2041">
        <ele>938.38</ele>
        <time>2016-07-01T08:56:10Z</time>
      </trkpt>
      <trkpt lat="42.5196" lon="2.20412">
        <ele>938.38</ele>
        <time>2016-07-01T08:56:11Z</time>
      </trkpt>
      <trkpt lat="42.51961" lon="2.20413">
        <ele>938.38</ele>
        <time>2016-07-01T08:56:12Z</time>
      </trkpt>
      <trkpt lat="42.51962" lon="2.20416">
        <ele>938.38</ele>
        <time>2016-07-01T08:56:13Z</time>
      </trkpt>
      <trkpt lat="42.51965" lon="2.20421">
        <ele>937.9</ele>
        <time>2016-07-01T08:56:16Z</time>
      </trkpt>
      <trkpt lat="42.51965" lon="2.20423">
        <ele>937.9</ele>
        <time>2016-07-01T08:56:17Z</time>
      </trkpt>
      <trkpt lat="42.51967" lon="2.20426">
        <ele>937.42</ele>
        <time>2016-07-01T08:56:19Z</time>
      </trkpt>
      <trkpt lat="42.51967" lon="2.20428">
        <ele>937.42</ele>
        <time>2016-07-01T08:56:20Z</time>
      </trkpt>
      <trkpt lat="42.51967" lon="2.20429">
        <ele>937.42</ele>
        <time>2016-07-01T08:56:21Z</time>
      </trkpt>
      <trkpt lat="42.51967" lon="2.20431">
        <ele>937.42</ele>
        <time>2016-07-01T08:56:22Z</time>
      </trkpt>
      <trkpt lat="42.51967" lon="2.20433">
        <ele>936.94</ele>
        <time>2016-07-01T08:56:23Z</time>
      </trkpt>
      <trkpt lat="42.51967" lon="2.20435">
        <ele>936.94</ele>
        <time>2016-07-01T08:56:24Z</time>
      </trkpt>
      <trkpt lat="42.51967" lon="2.20437">
        <ele>936.94</ele>
        <time>2016-07-01T08:56:25Z</time>
      </trkpt>
      <trkpt lat="42.51966" lon="2.20439">
        <ele>936.94</ele>
        <time>2016-07-01T08:56:26Z</time>
      </trkpt>
      <trkpt lat="42.51966" lon="2.20441">
        <ele>936.46</ele>
        <time>2016-07-01T08:56:27Z</time>
      </trkpt>
      <trkpt lat="42.51966" lon="2.20443">
        <ele>936.46</ele>
        <time>2016-07-01T08:56:28Z</time>
      </trkpt>
      <trkpt lat="42.51966" lon="2.20446">
        <ele>936.46</ele>
        <time>2016-07-01T08:56:29Z</time>
      </trkpt>
      <trkpt lat="42.51965" lon="2.20448">
        <ele>936.46</ele>
        <time>2016-07-01T08:56:30Z</time>
      </trkpt>
      <trkpt lat="42.51964" lon="2.2045">
        <ele>936.46</ele>
        <time>2016-07-01T08:56:31Z</time>
      </trkpt>
      <trkpt lat="42.51964" lon="2.20451">
        <ele>935.5</ele>
        <time>2016-07-01T08:56:32Z</time>
      </trkpt>
      <trkpt lat="42.51964" lon="2.20453">
        <ele>935.98</ele>
        <time>2016-07-01T08:56:33Z</time>
      </trkpt>
      <trkpt lat="42.5196" lon="2.20461">
        <ele>935.02</ele>
        <time>2016-07-01T08:56:38Z</time>
      </trkpt>
      <trkpt lat="42.5196" lon="2.20463">
        <ele>935.02</ele>
        <time>2016-07-01T08:56:39Z</time>
      </trkpt>
      <trkpt lat="42.5196" lon="2.20465">
        <ele>935.02</ele>
        <time>2016-07-01T08:56:40Z</time>
      </trkpt>
      <trkpt lat="42.5196" lon="2.20467">
        <ele>935.02</ele>
        <time>2016-07-01T08:56:41Z</time>
      </trkpt>
      <trkpt lat="42.5196" lon="2.20469">
        <ele>934.54</ele>
        <time>2016-07-01T08:56:42Z</time>
      </trkpt>
      <trkpt lat="42.5196" lon="2.20471">
        <ele>934.54</ele>
        <time>2016-07-01T08:56:43Z</time>
      </trkpt>
      <trkpt lat="42.51959" lon="2.20473">
        <ele>934.54</ele>
        <time>2016-07-01T08:56:44Z</time>
      </trkpt>
      <trkpt lat="42.51959" lon="2.20476">
        <ele>934.54</ele>
        <time>2016-07-01T08:56:46Z</time>
      </trkpt>
      <trkpt lat="42.51958" lon="2.20477">
        <ele>934.54</ele>
        <time>2016-07-01T08:56:47Z</time>
      </trkpt>
      <trkpt lat="42.51957" lon="2.20484">
        <ele>934.06</ele>
        <time>2016-07-01T08:56:51Z</time>
      </trkpt>
      <trkpt lat="42.51957" lon="2.20485">
        <ele>934.06</ele>
        <time>2016-07-01T08:56:52Z</time>
      </trkpt>
      <trkpt lat="42.51957" lon="2.20487">
        <ele>933.58</ele>
        <time>2016-07-01T08:56:53Z</time>
      </trkpt>
      <trkpt lat="42.51958" lon="2.20489">
        <ele>933.58</ele>
        <time>2016-07-01T08:56:54Z</time>
      </trkpt>
      <trkpt lat="42.51958" lon="2.20491">
        <ele>933.58</ele>
        <time>2016-07-01T08:56:55Z</time>
      </trkpt>
      <trkpt lat="42.51958" lon="2.20493">
        <ele>933.58</ele>
        <time>2016-07-01T08:56:56Z</time>
      </trkpt>
      <trkpt lat="42.51958" lon="2.20495">
        <ele>933.58</ele>
        <time>2016-07-01T08:56:57Z</time>
      </trkpt>
      <trkpt lat="42.51959" lon="2.20497">
        <ele>933.58</ele>
        <time>2016-07-01T08:56:58Z</time>
      </trkpt>
      <trkpt lat="42.51959" lon="2.20499">
        <ele>933.1</ele>
        <time>2016-07-01T08:56:59Z</time>
      </trkpt>
      <trkpt lat="42.51959" lon="2.20501">
        <ele>933.1</ele>
        <time>2016-07-01T08:57:00Z</time>
      </trkpt>
      <trkpt lat="42.5196" lon="2.20502">
        <ele>933.1</ele>
        <time>2016-07-01T08:57:01Z</time>
      </trkpt>
      <trkpt lat="42.5196" lon="2.20504">
        <ele>933.1</ele>
        <time>2016-07-01T08:57:02Z</time>
      </trkpt>
      <trkpt lat="42.51961" lon="2.20506">
        <ele>933.1</ele>
        <time>2016-07-01T08:57:03Z</time>
      </trkpt>
      <trkpt lat="42.51962" lon="2.20508">
        <ele>932.62</ele>
        <time>2016-07-01T08:57:04Z</time>
      </trkpt>
      <trkpt lat="42.51962" lon="2.2051">
        <ele>932.62</ele>
        <time>2016-07-01T08:57:05Z</time>
      </trkpt>
      <trkpt lat="42.51963" lon="2.20511">
        <ele>932.62</ele>
        <time>2016-07-01T08:57:06Z</time>
      </trkpt>
      <trkpt lat="42.51963" lon="2.20513">
        <ele>932.62</ele>
        <time>2016-07-01T08:57:07Z</time>
      </trkpt>
      <trkpt lat="42.51963" lon="2.20515">
        <ele>932.62</ele>
        <time>2016-07-01T08:57:08Z</time>
      </trkpt>
      <trkpt lat="42.51964" lon="2.20516">
        <ele>932.62</ele>
        <time>2016-07-01T08:57:09Z</time>
      </trkpt>
      <trkpt lat="42.51964" lon="2.20519">
        <ele>932.62</ele>
        <time>2016-07-01T08:57:10Z</time>
      </trkpt>
      <trkpt lat="42.51964" lon="2.20521">
        <ele>932.62</ele>
        <time>2016-07-01T08:57:11Z</time>
      </trkpt>
      <trkpt lat="42.51964" lon="2.20522">
        <ele>931.65</ele>
        <time>2016-07-01T08:57:12Z</time>
      </trkpt>
      <trkpt lat="42.51964" lon="2.20524">
        <ele>932.14</ele>
        <time>2016-07-01T08:57:13Z</time>
      </trkpt>
      <trkpt lat="42.51967" lon="2.20544">
        <ele>930.69</ele>
        <time>2016-07-01T08:57:23Z</time>
      </trkpt>
      <trkpt lat="42.51967" lon="2.20545">
        <ele>930.69</ele>
        <time>2016-07-01T08:57:24Z</time>
      </trkpt>
      <trkpt lat="42.51967" lon="2.20547">
        <ele>930.69</ele>
        <time>2016-07-01T08:57:25Z</time>
      </trkpt>
      <trkpt lat="42.51967" lon="2.20549">
        <ele>930.69</ele>
        <time>2016-07-01T08:57:26Z</time>
      </trkpt>
      <trkpt lat="42.51967" lon="2.20551">
        <ele>930.21</ele>
        <time>2016-07-01T08:57:27Z</time>
      </trkpt>
      <trkpt lat="42.51967" lon="2.20553">
        <ele>930.21</ele>
        <time>2016-07-01T08:57:28Z</time>
      </trkpt>
      <trkpt lat="42.51967" lon="2.20555">
        <ele>930.21</ele>
        <time>2016-07-01T08:57:29Z</time>
      </trkpt>
      <trkpt lat="42.51967" lon="2.20558">
        <ele>930.21</ele>
        <time>2016-07-01T08:57:30Z</time>
      </trkpt>
      <trkpt lat="42.51967" lon="2.20562">
        <ele>929.73</ele>
        <time>2016-07-01T08:57:32Z</time>
      </trkpt>
      <trkpt lat="42.51967" lon="2.20565">
        <ele>929.73</ele>
        <time>2016-07-01T08:57:33Z</time>
      </trkpt>
      <trkpt lat="42.51967" lon="2.20567">
        <ele>929.73</ele>
        <time>2016-07-01T08:57:34Z</time>
      </trkpt>
      <trkpt lat="42.51967" lon="2.20568">
        <ele>929.73</ele>
        <time>2016-07-01T08:57:35Z</time>
      </trkpt>
      <trkpt lat="42.51967" lon="2.2057">
        <ele>929.73</ele>
        <time>2016-07-01T08:57:36Z</time>
      </trkpt>
      <trkpt lat="42.51967" lon="2.20572">
        <ele>929.73</ele>
        <time>2016-07-01T08:57:37Z</time>
      </trkpt>
      <trkpt lat="42.51966" lon="2.20574">
        <ele>929.25</ele>
        <time>2016-07-01T08:57:38Z</time>
      </trkpt>
      <trkpt lat="42.51964" lon="2.20588">
        <ele>928.77</ele>
        <time>2016-07-01T08:57:45Z</time>
      </trkpt>
      <trkpt lat="42.51964" lon="2.20589">
        <ele>928.77</ele>
        <time>2016-07-01T08:57:46Z</time>
      </trkpt>
      <trkpt lat="42.51964" lon="2.20591">
        <ele>928.77</ele>
        <time>2016-07-01T08:57:47Z</time>
      </trkpt>
      <trkpt lat="42.51964" lon="2.20593">
        <ele>927.81</ele>
        <time>2016-07-01T08:57:48Z</time>
      </trkpt>
      <trkpt lat="42.51964" lon="2.20595">
        <ele>928.29</ele>
        <time>2016-07-01T08:57:49Z</time>
      </trkpt>
      <trkpt lat="42.51964" lon="2.20596">
        <ele>928.29</ele>
        <time>2016-07-01T08:57:50Z</time>
      </trkpt>
      <trkpt lat="42.51963" lon="2.20598">
        <ele>928.29</ele>
        <time>2016-07-01T08:57:51Z</time>
      </trkpt>
      <trkpt lat="42.51963" lon="2.20606">
        <ele>927.81</ele>
        <time>2016-07-01T08:57:55Z</time>
      </trkpt>
      <trkpt lat="42.51964" lon="2.20607">
        <ele>927.81</ele>
        <time>2016-07-01T08:57:56Z</time>
      </trkpt>
      <trkpt lat="42.51964" lon="2.2061">
        <ele>927.81</ele>
        <time>2016-07-01T08:57:57Z</time>
      </trkpt>
      <trkpt lat="42.51964" lon="2.20612">
        <ele>927.81</ele>
        <time>2016-07-01T08:57:58Z</time>
      </trkpt>
      <trkpt lat="42.51964" lon="2.20614">
        <ele>927.81</ele>
        <time>2016-07-01T08:57:59Z</time>
      </trkpt>
      <trkpt lat="42.51965" lon="2.20615">
        <ele>927.81</ele>
        <time>2016-07-01T08:58:00Z</time>
      </trkpt>
      <trkpt lat="42.51966" lon="2.20616">
        <ele>927.81</ele>
        <time>2016-07-01T08:58:01Z</time>
      </trkpt>
      <trkpt lat="42.51966" lon="2.20618">
        <ele>926.85</ele>
        <time>2016-07-01T08:58:02Z</time>
      </trkpt>
      <trkpt lat="42.51967" lon="2.20619">
        <ele>926.85</ele>
        <time>2016-07-01T08:58:03Z</time>
      </trkpt>
      <trkpt lat="42.51982" lon="2.20632">
        <ele>926.37</ele>
        <time>2016-07-01T08:58:16Z</time>
      </trkpt>
      <trkpt lat="42.51987" lon="2.20635">
        <ele>926.37</ele>
        <time>2016-07-01T08:58:20Z</time>
      </trkpt>
      <trkpt lat="42.51988" lon="2.20635">
        <ele>926.37</ele>
        <time>2016-07-01T08:58:21Z</time>
      </trkpt>
      <trkpt lat="42.51989" lon="2.20635">
        <ele>925.89</ele>
        <time>2016-07-01T08:58:22Z</time>
      </trkpt>
      <trkpt lat="42.51991" lon="2.20635">
        <ele>925.89</ele>
        <time>2016-07-01T08:58:23Z</time>
      </trkpt>
      <trkpt lat="42.51992" lon="2.20635">
        <ele>925.89</ele>
        <time>2016-07-01T08:58:24Z</time>
      </trkpt>
      <trkpt lat="42.51993" lon="2.20635">
        <ele>925.89</ele>
        <time>2016-07-01T08:58:25Z</time>
      </trkpt>
      <trkpt lat="42.51995" lon="2.20635">
        <ele>925.89</ele>
        <time>2016-07-01T08:58:26Z</time>
      </trkpt>
      <trkpt lat="42.52005" lon="2.20635">
        <ele>925.41</ele>
        <time>2016-07-01T08:58:36Z</time>
      </trkpt>
      <trkpt lat="42.52022" lon="2.20639">
        <ele>923.48</ele>
        <time>2016-07-01T08:58:48Z</time>
      </trkpt>
      <trkpt lat="42.52043" lon="2.20648">
        <ele>921.56</ele>
        <time>2016-07-01T08:59:04Z</time>
      </trkpt>
      <trkpt lat="42.52058" lon="2.20667">
        <ele>920.12</ele>
        <time>2016-07-01T08:59:18Z</time>
      </trkpt>
      <trkpt lat="42.52066" lon="2.2068">
        <ele>919.16</ele>
        <time>2016-07-01T08:59:28Z</time>
      </trkpt>
      <trkpt lat="42.52068" lon="2.20683">
        <ele>918.68</ele>
        <time>2016-07-01T08:59:30Z</time>
      </trkpt>
      <trkpt lat="42.52068" lon="2.20685">
        <ele>918.68</ele>
        <time>2016-07-01T08:59:31Z</time>
      </trkpt>
      <trkpt lat="42.52069" lon="2.20687">
        <ele>918.68</ele>
        <time>2016-07-01T08:59:32Z</time>
      </trkpt>
      <trkpt lat="42.52077" lon="2.20708">
        <ele>917.72</ele>
        <time>2016-07-01T08:59:44Z</time>
      </trkpt>
      <trkpt lat="42.52078" lon="2.2071">
        <ele>917.72</ele>
        <time>2016-07-01T08:59:45Z</time>
      </trkpt>
      <trkpt lat="42.52079" lon="2.20712">
        <ele>917.72</ele>
        <time>2016-07-01T08:59:46Z</time>
      </trkpt>
      <trkpt lat="42.5208" lon="2.20713">
        <ele>917.24</ele>
        <time>2016-07-01T08:59:47Z</time>
      </trkpt>
      <trkpt lat="42.52081" lon="2.20715">
        <ele>917.24</ele>
        <time>2016-07-01T08:59:48Z</time>
      </trkpt>
      <trkpt lat="42.52082" lon="2.20716">
        <ele>917.24</ele>
        <time>2016-07-01T08:59:49Z</time>
      </trkpt>
      <trkpt lat="42.52082" lon="2.20717">
        <ele>917.24</ele>
        <time>2016-07-01T08:59:50Z</time>
      </trkpt>
      <trkpt lat="42.5209" lon="2.20736">
        <ele>916.27</ele>
        <time>2016-07-01T09:00:00Z</time>
      </trkpt>
      <trkpt lat="42.52091" lon="2.20738">
        <ele>916.27</ele>
        <time>2016-07-01T09:00:01Z</time>
      </trkpt>
      <trkpt lat="42.52092" lon="2.20739">
        <ele>916.27</ele>
        <time>2016-07-01T09:00:02Z</time>
      </trkpt>
      <trkpt lat="42.52093" lon="2.2074">
        <ele>916.27</ele>
        <time>2016-07-01T09:00:03Z</time>
      </trkpt>
      <trkpt lat="42.52094" lon="2.20741">
        <ele>916.27</ele>
        <time>2016-07-01T09:00:04Z</time>
      </trkpt>
      <trkpt lat="42.52096" lon="2.20742">
        <ele>915.31</ele>
        <time>2016-07-01T09:00:05Z</time>
      </trkpt>
      <trkpt lat="42.52096" lon="2.20743">
        <ele>915.31</ele>
        <time>2016-07-01T09:00:06Z</time>
      </trkpt>
      <trkpt lat="42.52097" lon="2.20745">
        <ele>915.31</ele>
        <time>2016-07-01T09:00:07Z</time>
      </trkpt>
      <trkpt lat="42.52098" lon="2.20747">
        <ele>915.31</ele>
        <time>2016-07-01T09:00:08Z</time>
      </trkpt>
      <trkpt lat="42.52098" lon="2.20748">
        <ele>915.31</ele>
        <time>2016-07-01T09:00:09Z</time>
      </trkpt>
      <trkpt lat="42.52099" lon="2.20751">
        <ele>915.31</ele>
        <time>2016-07-01T09:00:10Z</time>
      </trkpt>
      <trkpt lat="42.52102" lon="2.20756">
        <ele>914.83</ele>
        <time>2016-07-01T09:00:14Z</time>
      </trkpt>
      <trkpt lat="42.52104" lon="2.20758">
        <ele>914.83</ele>
        <time>2016-07-01T09:00:16Z</time>
      </trkpt>
      <trkpt lat="42.52105" lon="2.20759">
        <ele>914.35</ele>
        <time>2016-07-01T09:00:17Z</time>
      </trkpt>
      <trkpt lat="42.52107" lon="2.20759">
        <ele>914.35</ele>
        <time>2016-07-01T09:00:18Z</time>
      </trkpt>
      <trkpt lat="42.52108" lon="2.2076">
        <ele>914.35</ele>
        <time>2016-07-01T09:00:19Z</time>
      </trkpt>
      <trkpt lat="42.52109" lon="2.20761">
        <ele>914.35</ele>
        <time>2016-07-01T09:00:20Z</time>
      </trkpt>
      <trkpt lat="42.5211" lon="2.20763">
        <ele>914.35</ele>
        <time>2016-07-01T09:00:21Z</time>
      </trkpt>
      <trkpt lat="42.52111" lon="2.20764">
        <ele>913.87</ele>
        <time>2016-07-01T09:00:22Z</time>
      </trkpt>
      <trkpt lat="42.52112" lon="2.20766">
        <ele>913.87</ele>
        <time>2016-07-01T09:00:23Z</time>
      </trkpt>
      <trkpt lat="42.52113" lon="2.20768">
        <ele>913.87</ele>
        <time>2016-07-01T09:00:24Z</time>
      </trkpt>
      <trkpt lat="42.52113" lon="2.2077">
        <ele>913.87</ele>
        <time>2016-07-01T09:00:25Z</time>
      </trkpt>
      <trkpt lat="42.52113" lon="2.20772">
        <ele>913.87</ele>
        <time>2016-07-01T09:00:26Z</time>
      </trkpt>
      <trkpt lat="42.52114" lon="2.20774">
        <ele>913.87</ele>
        <time>2016-07-01T09:00:27Z</time>
      </trkpt>
      <trkpt lat="42.52114" lon="2.20776">
        <ele>913.87</ele>
        <time>2016-07-01T09:00:28Z</time>
      </trkpt>
      <trkpt lat="42.52115" lon="2.20778">
        <ele>913.39</ele>
        <time>2016-07-01T09:00:29Z</time>
      </trkpt>
      <trkpt lat="42.52116" lon="2.2078">
        <ele>913.39</ele>
        <time>2016-07-01T09:00:30Z</time>
      </trkpt>
      <trkpt lat="42.52117" lon="2.20781">
        <ele>913.39</ele>
        <time>2016-07-01T09:00:31Z</time>
      </trkpt>
      <trkpt lat="42.52117" lon="2.20783">
        <ele>913.39</ele>
        <time>2016-07-01T09:00:32Z</time>
      </trkpt>
      <trkpt lat="42.52118" lon="2.20785">
        <ele>913.39</ele>
        <time>2016-07-01T09:00:33Z</time>
      </trkpt>
      <trkpt lat="42.52118" lon="2.20787">
        <ele>913.39</ele>
        <time>2016-07-01T09:00:34Z</time>
      </trkpt>
      <trkpt lat="42.52118" lon="2.20789">
        <ele>912.91</ele>
        <time>2016-07-01T09:00:35Z</time>
      </trkpt>
      <trkpt lat="42.52119" lon="2.20791">
        <ele>912.91</ele>
        <time>2016-07-01T09:00:36Z</time>
      </trkpt>
      <trkpt lat="42.52118" lon="2.20793">
        <ele>912.91</ele>
        <time>2016-07-01T09:00:37Z</time>
      </trkpt>
      <trkpt lat="42.52118" lon="2.20796">
        <ele>912.91</ele>
        <time>2016-07-01T09:00:38Z</time>
      </trkpt>
      <trkpt lat="42.52118" lon="2.20798">
        <ele>912.91</ele>
        <time>2016-07-01T09:00:39Z</time>
      </trkpt>
      <trkpt lat="42.52118" lon="2.208">
        <ele>912.91</ele>
        <time>2016-07-01T09:00:40Z</time>
      </trkpt>
      <trkpt lat="42.52118" lon="2.20802">
        <ele>912.43</ele>
        <time>2016-07-01T09:00:41Z</time>
      </trkpt>
      <trkpt lat="42.52119" lon="2.20804">
        <ele>912.43</ele>
        <time>2016-07-01T09:00:42Z</time>
      </trkpt>
      <trkpt lat="42.52119" lon="2.20806">
        <ele>912.43</ele>
        <time>2016-07-01T09:00:43Z</time>
      </trkpt>
      <trkpt lat="42.52118" lon="2.20808">
        <ele>912.43</ele>
        <time>2016-07-01T09:00:44Z</time>
      </trkpt>
      <trkpt lat="42.52119" lon="2.2081">
        <ele>912.43</ele>
        <time>2016-07-01T09:00:45Z</time>
      </trkpt>
      <trkpt lat="42.52119" lon="2.20812">
        <ele>912.43</ele>
        <time>2016-07-01T09:00:46Z</time>
      </trkpt>
      <trkpt lat="42.52119" lon="2.20814">
        <ele>911.47</ele>
        <time>2016-07-01T09:00:47Z</time>
      </trkpt>
      <trkpt lat="42.5212" lon="2.20816">
        <ele>911.95</ele>
        <time>2016-07-01T09:00:48Z</time>
      </trkpt>
      <trkpt lat="42.5212" lon="2.20823">
        <ele>911.95</ele>
        <time>2016-07-01T09:00:51Z</time>
      </trkpt>
      <trkpt lat="42.52121" lon="2.20825">
        <ele>911.95</ele>
        <time>2016-07-01T09:00:52Z</time>
      </trkpt>
      <trkpt lat="42.5212" lon="2.20827">
        <ele>911.95</ele>
        <time>2016-07-01T09:00:53Z</time>
      </trkpt>
      <trkpt lat="42.5212" lon="2.20829">
        <ele>910.99</ele>
        <time>2016-07-01T09:00:54Z</time>
      </trkpt>
      <trkpt lat="42.5212" lon="2.20831">
        <ele>910.99</ele>
        <time>2016-07-01T09:00:55Z</time>
      </trkpt>
      <trkpt lat="42.5212" lon="2.20835">
        <ele>910.99</ele>
        <time>2016-07-01T09:00:57Z</time>
      </trkpt>
      <trkpt lat="42.5212" lon="2.20839">
        <ele>910.99</ele>
        <time>2016-07-01T09:00:59Z</time>
      </trkpt>
      <trkpt lat="42.5212" lon="2.2084">
        <ele>910.51</ele>
        <time>2016-07-01T09:01:00Z</time>
      </trkpt>
      <trkpt lat="42.5212" lon="2.20842">
        <ele>910.51</ele>
        <time>2016-07-01T09:01:01Z</time>
      </trkpt>
      <trkpt lat="42.5212" lon="2.20844">
        <ele>910.51</ele>
        <time>2016-07-01T09:01:02Z</time>
      </trkpt>
      <trkpt lat="42.52119" lon="2.20846">
        <ele>910.51</ele>
        <time>2016-07-01T09:01:03Z</time>
      </trkpt>
      <trkpt lat="42.52119" lon="2.20847">
        <ele>910.51</ele>
        <time>2016-07-01T09:01:04Z</time>
      </trkpt>
      <trkpt lat="42.52118" lon="2.20849">
        <ele>910.51</ele>
        <time>2016-07-01T09:01:05Z</time>
      </trkpt>
      <trkpt lat="42.52117" lon="2.20851">
        <ele>910.51</ele>
        <time>2016-07-01T09:01:06Z</time>
      </trkpt>
      <trkpt lat="42.52107" lon="2.20867">
        <ele>909.54</ele>
        <time>2016-07-01T09:01:16Z</time>
      </trkpt>
      <trkpt lat="42.52107" lon="2.20869">
        <ele>909.54</ele>
        <time>2016-07-01T09:01:17Z</time>
      </trkpt>
      <trkpt lat="42.52107" lon="2.2087">
        <ele>909.06</ele>
        <time>2016-07-01T09:01:18Z</time>
      </trkpt>
      <trkpt lat="42.52107" lon="2.20872">
        <ele>909.06</ele>
        <time>2016-07-01T09:01:19Z</time>
      </trkpt>
      <trkpt lat="42.52107" lon="2.20874">
        <ele>909.06</ele>
        <time>2016-07-01T09:01:20Z</time>
      </trkpt>
      <trkpt lat="42.52107" lon="2.20876">
        <ele>909.06</ele>
        <time>2016-07-01T09:01:21Z</time>
      </trkpt>
      <trkpt lat="42.52107" lon="2.20878">
        <ele>909.06</ele>
        <time>2016-07-01T09:01:22Z</time>
      </trkpt>
      <trkpt lat="42.52107" lon="2.2088">
        <ele>908.1</ele>
        <time>2016-07-01T09:01:23Z</time>
      </trkpt>
      <trkpt lat="42.52107" lon="2.20882">
        <ele>908.58</ele>
        <time>2016-07-01T09:01:24Z</time>
      </trkpt>
      <trkpt lat="42.52107" lon="2.20884">
        <ele>908.58</ele>
        <time>2016-07-01T09:01:25Z</time>
      </trkpt>
      <trkpt lat="42.52106" lon="2.20886">
        <ele>908.58</ele>
        <time>2016-07-01T09:01:26Z</time>
      </trkpt>
      <trkpt lat="42.52106" lon="2.20887">
        <ele>908.58</ele>
        <time>2016-07-01T09:01:27Z</time>
      </trkpt>
      <trkpt lat="42.52105" lon="2.2089">
        <ele>908.58</ele>
        <time>2016-07-01T09:01:28Z</time>
      </trkpt>
      <trkpt lat="42.52105" lon="2.20892">
        <ele>908.58</ele>
        <time>2016-07-01T09:01:29Z</time>
      </trkpt>
      <trkpt lat="42.52104" lon="2.20894">
        <ele>907.62</ele>
        <time>2016-07-01T09:01:30Z</time>
      </trkpt>
      <trkpt lat="42.52104" lon="2.20896">
        <ele>907.62</ele>
        <time>2016-07-01T09:01:31Z</time>
      </trkpt>
      <trkpt lat="42.52103" lon="2.20898">
        <ele>907.62</ele>
        <time>2016-07-01T09:01:32Z</time>
      </trkpt>
      <trkpt lat="42.52104" lon="2.209">
        <ele>907.62</ele>
        <time>2016-07-01T09:01:33Z</time>
      </trkpt>
      <trkpt lat="42.52105" lon="2.20902">
        <ele>907.62</ele>
        <time>2016-07-01T09:01:34Z</time>
      </trkpt>
      <trkpt lat="42.52105" lon="2.20904">
        <ele>907.14</ele>
        <time>2016-07-01T09:01:35Z</time>
      </trkpt>
      <trkpt lat="42.52104" lon="2.20906">
        <ele>907.14</ele>
        <time>2016-07-01T09:01:36Z</time>
      </trkpt>
      <trkpt lat="42.52105" lon="2.20908">
        <ele>907.14</ele>
        <time>2016-07-01T09:01:37Z</time>
      </trkpt>
      <trkpt lat="42.52104" lon="2.2091">
        <ele>907.14</ele>
        <time>2016-07-01T09:01:38Z</time>
      </trkpt>
      <trkpt lat="42.52104" lon="2.20912">
        <ele>907.14</ele>
        <time>2016-07-01T09:01:39Z</time>
      </trkpt>
      <trkpt lat="42.52105" lon="2.20915">
        <ele>907.14</ele>
        <time>2016-07-01T09:01:40Z</time>
      </trkpt>
      <trkpt lat="42.52105" lon="2.20917">
        <ele>907.14</ele>
        <time>2016-07-01T09:01:41Z</time>
      </trkpt>
      <trkpt lat="42.52104" lon="2.20919">
        <ele>906.66</ele>
        <time>2016-07-01T09:01:42Z</time>
      </trkpt>
      <trkpt lat="42.52104" lon="2.20931">
        <ele>906.66</ele>
        <time>2016-07-01T09:01:47Z</time>
      </trkpt>
      <trkpt lat="42.52104" lon="2.20933">
        <ele>906.66</ele>
        <time>2016-07-01T09:01:48Z</time>
      </trkpt>
      <trkpt lat="42.52103" lon="2.20935">
        <ele>906.18</ele>
        <time>2016-07-01T09:01:49Z</time>
      </trkpt>
      <trkpt lat="42.52103" lon="2.20937">
        <ele>906.18</ele>
        <time>2016-07-01T09:01:50Z</time>
      </trkpt>
      <trkpt lat="42.52103" lon="2.2094">
        <ele>906.18</ele>
        <time>2016-07-01T09:01:51Z</time>
      </trkpt>
      <trkpt lat="42.52103" lon="2.20942">
        <ele>906.18</ele>
        <time>2016-07-01T09:01:52Z</time>
      </trkpt>
      <trkpt lat="42.52103" lon="2.20943">
        <ele>906.18</ele>
        <time>2016-07-01T09:01:53Z</time>
      </trkpt>
      <trkpt lat="42.52104" lon="2.20945">
        <ele>906.18</ele>
        <time>2016-07-01T09:01:54Z</time>
      </trkpt>
      <trkpt lat="42.52103" lon="2.20947">
        <ele>905.7</ele>
        <time>2016-07-01T09:01:55Z</time>
      </trkpt>
      <trkpt lat="42.52103" lon="2.20949">
        <ele>905.7</ele>
        <time>2016-07-01T09:01:56Z</time>
      </trkpt>
      <trkpt lat="42.52104" lon="2.20951">
        <ele>905.7</ele>
        <time>2016-07-01T09:01:57Z</time>
      </trkpt>
      <trkpt lat="42.52104" lon="2.20953">
        <ele>905.7</ele>
        <time>2016-07-01T09:01:58Z</time>
      </trkpt>
      <trkpt lat="42.52104" lon="2.20956">
        <ele>905.7</ele>
        <time>2016-07-01T09:01:59Z</time>
      </trkpt>
      <trkpt lat="42.52104" lon="2.20958">
        <ele>905.22</ele>
        <time>2016-07-01T09:02:00Z</time>
      </trkpt>
      <trkpt lat="42.52105" lon="2.2096">
        <ele>905.22</ele>
        <time>2016-07-01T09:02:01Z</time>
      </trkpt>
      <trkpt lat="42.52105" lon="2.20962">
        <ele>905.22</ele>
        <time>2016-07-01T09:02:02Z</time>
      </trkpt>
      <trkpt lat="42.52105" lon="2.20964">
        <ele>905.22</ele>
        <time>2016-07-01T09:02:03Z</time>
      </trkpt>
      <trkpt lat="42.52107" lon="2.20973">
        <ele>904.74</ele>
        <time>2016-07-01T09:02:07Z</time>
      </trkpt>
      <trkpt lat="42.52107" lon="2.20975">
        <ele>904.74</ele>
        <time>2016-07-01T09:02:08Z</time>
      </trkpt>
      <trkpt lat="42.52114" lon="2.20998">
        <ele>903.3</ele>
        <time>2016-07-01T09:02:18Z</time>
      </trkpt>
      <trkpt lat="42.52125" lon="2.21013">
        <ele>902.33</ele>
        <time>2016-07-01T09:02:28Z</time>
      </trkpt>
      <trkpt lat="42.52125" lon="2.21015">
        <ele>901.85</ele>
        <time>2016-07-01T09:02:29Z</time>
      </trkpt>
      <trkpt lat="42.52126" lon="2.21017">
        <ele>901.85</ele>
        <time>2016-07-01T09:02:30Z</time>
      </trkpt>
      <trkpt lat="42.52127" lon="2.21019">
        <ele>901.85</ele>
        <time>2016-07-01T09:02:31Z</time>
      </trkpt>
      <trkpt lat="42.52128" lon="2.21021">
        <ele>901.85</ele>
        <time>2016-07-01T09:02:32Z</time>
      </trkpt>
      <trkpt lat="42.52132" lon="2.21033">
        <ele>900.41</ele>
        <time>2016-07-01T09:02:39Z</time>
      </trkpt>
      <trkpt lat="42.52132" lon="2.21035">
        <ele>900.41</ele>
        <time>2016-07-01T09:02:40Z</time>
      </trkpt>
      <trkpt lat="42.52132" lon="2.21037">
        <ele>900.41</ele>
        <time>2016-07-01T09:02:41Z</time>
      </trkpt>
      <trkpt lat="42.52133" lon="2.21041">
        <ele>899.93</ele>
        <time>2016-07-01T09:02:43Z</time>
      </trkpt>
      <trkpt lat="42.52133" lon="2.21044">
        <ele>899.93</ele>
        <time>2016-07-01T09:02:44Z</time>
      </trkpt>
      <trkpt lat="42.52134" lon="2.21046">
        <ele>899.93</ele>
        <time>2016-07-01T09:02:45Z</time>
      </trkpt>
      <trkpt lat="42.52135" lon="2.21052">
        <ele>899.93</ele>
        <time>2016-07-01T09:02:48Z</time>
      </trkpt>
      <trkpt lat="42.52136" lon="2.21054">
        <ele>899.45</ele>
        <time>2016-07-01T09:02:49Z</time>
      </trkpt>
      <trkpt lat="42.52137" lon="2.21066">
        <ele>898.97</ele>
        <time>2016-07-01T09:02:55Z</time>
      </trkpt>
      <trkpt lat="42.52138" lon="2.21068">
        <ele>898.97</ele>
        <time>2016-07-01T09:02:56Z</time>
      </trkpt>
      <trkpt lat="42.52138" lon="2.2107">
        <ele>898.97</ele>
        <time>2016-07-01T09:02:57Z</time>
      </trkpt>
      <trkpt lat="42.52138" lon="2.21073">
        <ele>898.97</ele>
        <time>2016-07-01T09:02:58Z</time>
      </trkpt>
      <trkpt lat="42.52139" lon="2.21075">
        <ele>898.97</ele>
        <time>2016-07-01T09:02:59Z</time>
      </trkpt>
      <trkpt lat="42.52139" lon="2.21077">
        <ele>898.49</ele>
        <time>2016-07-01T09:03:00Z</time>
      </trkpt>
      <trkpt lat="42.52139" lon="2.2108">
        <ele>898.49</ele>
        <time>2016-07-01T09:03:01Z</time>
      </trkpt>
      <trkpt lat="42.5214" lon="2.21082">
        <ele>898.49</ele>
        <time>2016-07-01T09:03:02Z</time>
      </trkpt>
      <trkpt lat="42.5214" lon="2.21084">
        <ele>898.49</ele>
        <time>2016-07-01T09:03:03Z</time>
      </trkpt>
      <trkpt lat="42.52141" lon="2.21086">
        <ele>898.49</ele>
        <time>2016-07-01T09:03:04Z</time>
      </trkpt>
      <trkpt lat="42.52141" lon="2.21089">
        <ele>898.01</ele>
        <time>2016-07-01T09:03:05Z</time>
      </trkpt>
      <trkpt lat="42.5214" lon="2.21091">
        <ele>898.01</ele>
        <time>2016-07-01T09:03:06Z</time>
      </trkpt>
      <trkpt lat="42.52141" lon="2.21093">
        <ele>898.01</ele>
        <time>2016-07-01T09:03:07Z</time>
      </trkpt>
      <trkpt lat="42.52141" lon="2.21095">
        <ele>898.01</ele>
        <time>2016-07-01T09:03:08Z</time>
      </trkpt>
      <trkpt lat="42.52141" lon="2.21097">
        <ele>898.01</ele>
        <time>2016-07-01T09:03:09Z</time>
      </trkpt>
      <trkpt lat="42.52142" lon="2.21101">
        <ele>897.53</ele>
        <time>2016-07-01T09:03:11Z</time>
      </trkpt>
      <trkpt lat="42.52142" lon="2.21104">
        <ele>897.53</ele>
        <time>2016-07-01T09:03:12Z</time>
      </trkpt>
      <trkpt lat="42.52142" lon="2.21106">
        <ele>897.53</ele>
        <time>2016-07-01T09:03:13Z</time>
      </trkpt>
      <trkpt lat="42.52142" lon="2.21108">
        <ele>897.53</ele>
        <time>2016-07-01T09:03:14Z</time>
      </trkpt>
      <trkpt lat="42.52143" lon="2.2111">
        <ele>897.53</ele>
        <time>2016-07-01T09:03:15Z</time>
      </trkpt>
      <trkpt lat="42.52143" lon="2.21112">
        <ele>896.57</ele>
        <time>2016-07-01T09:03:16Z</time>
      </trkpt>
      <trkpt lat="42.52143" lon="2.21114">
        <ele>896.57</ele>
        <time>2016-07-01T09:03:17Z</time>
      </trkpt>
      <trkpt lat="42.52143" lon="2.21116">
        <ele>896.57</ele>
        <time>2016-07-01T09:03:18Z</time>
      </trkpt>
      <trkpt lat="42.52143" lon="2.21118">
        <ele>896.57</ele>
        <time>2016-07-01T09:03:19Z</time>
      </trkpt>
      <trkpt lat="42.52143" lon="2.2112">
        <ele>896.57</ele>
        <time>2016-07-01T09:03:20Z</time>
      </trkpt>
      <trkpt lat="42.52142" lon="2.21122">
        <ele>896.09</ele>
        <time>2016-07-01T09:03:21Z</time>
      </trkpt>
      <trkpt lat="42.52143" lon="2.21124">
        <ele>896.09</ele>
        <time>2016-07-01T09:03:22Z</time>
      </trkpt>
      <trkpt lat="42.52143" lon="2.21126">
        <ele>896.09</ele>
        <time>2016-07-01T09:03:23Z</time>
      </trkpt>
      <trkpt lat="42.52142" lon="2.21128">
        <ele>896.09</ele>
        <time>2016-07-01T09:03:24Z</time>
      </trkpt>
      <trkpt lat="42.52143" lon="2.21129">
        <ele>896.09</ele>
        <time>2016-07-01T09:03:25Z</time>
      </trkpt>
      <trkpt lat="42.52143" lon="2.21131">
        <ele>895.61</ele>
        <time>2016-07-01T09:03:26Z</time>
      </trkpt>
      <trkpt lat="42.52143" lon="2.21133">
        <ele>895.61</ele>
        <time>2016-07-01T09:03:27Z</time>
      </trkpt>
      <trkpt lat="42.52143" lon="2.21135">
        <ele>895.61</ele>
        <time>2016-07-01T09:03:28Z</time>
      </trkpt>
      <trkpt lat="42.52143" lon="2.21137">
        <ele>895.61</ele>
        <time>2016-07-01T09:03:29Z</time>
      </trkpt>
      <trkpt lat="42.52144" lon="2.21139">
        <ele>895.61</ele>
        <time>2016-07-01T09:03:30Z</time>
      </trkpt>
      <trkpt lat="42.52144" lon="2.21141">
        <ele>895.12</ele>
        <time>2016-07-01T09:03:31Z</time>
      </trkpt>
      <trkpt lat="42.52143" lon="2.21143">
        <ele>895.12</ele>
        <time>2016-07-01T09:03:32Z</time>
      </trkpt>
      <trkpt lat="42.52144" lon="2.21145">
        <ele>895.12</ele>
        <time>2016-07-01T09:03:33Z</time>
      </trkpt>
      <trkpt lat="42.52144" lon="2.21147">
        <ele>895.12</ele>
        <time>2016-07-01T09:03:34Z</time>
      </trkpt>
      <trkpt lat="42.52144" lon="2.21149">
        <ele>895.12</ele>
        <time>2016-07-01T09:03:35Z</time>
      </trkpt>
      <trkpt lat="42.52143" lon="2.21152">
        <ele>894.64</ele>
        <time>2016-07-01T09:03:36Z</time>
      </trkpt>
      <trkpt lat="42.52144" lon="2.21154">
        <ele>894.64</ele>
        <time>2016-07-01T09:03:37Z</time>
      </trkpt>
      <trkpt lat="42.52144" lon="2.21156">
        <ele>894.64</ele>
        <time>2016-07-01T09:03:38Z</time>
      </trkpt>
      <trkpt lat="42.52144" lon="2.21158">
        <ele>894.64</ele>
        <time>2016-07-01T09:03:39Z</time>
      </trkpt>
      <trkpt lat="42.52144" lon="2.2116">
        <ele>894.64</ele>
        <time>2016-07-01T09:03:40Z</time>
      </trkpt>
      <trkpt lat="42.52145" lon="2.21162">
        <ele>894.16</ele>
        <time>2016-07-01T09:03:41Z</time>
      </trkpt>
      <trkpt lat="42.52145" lon="2.21164">
        <ele>894.16</ele>
        <time>2016-07-01T09:03:42Z</time>
      </trkpt>
      <trkpt lat="42.52145" lon="2.21166">
        <ele>894.16</ele>
        <time>2016-07-01T09:03:43Z</time>
      </trkpt>
      <trkpt lat="42.52145" lon="2.21169">
        <ele>894.16</ele>
        <time>2016-07-01T09:03:44Z</time>
      </trkpt>
      <trkpt lat="42.52146" lon="2.21171">
        <ele>894.16</ele>
        <time>2016-07-01T09:03:45Z</time>
      </trkpt>
      <trkpt lat="42.52152" lon="2.21201">
        <ele>892.24</ele>
        <time>2016-07-01T09:03:58Z</time>
      </trkpt>
      <trkpt lat="42.52153" lon="2.21205">
        <ele>892.24</ele>
        <time>2016-07-01T09:04:00Z</time>
      </trkpt>
      <trkpt lat="42.52154" lon="2.21208">
        <ele>891.76</ele>
        <time>2016-07-01T09:04:01Z</time>
      </trkpt>
      <trkpt lat="42.52155" lon="2.2121">
        <ele>891.76</ele>
        <time>2016-07-01T09:04:02Z</time>
      </trkpt>
      <trkpt lat="42.52155" lon="2.21212">
        <ele>891.76</ele>
        <time>2016-07-01T09:04:03Z</time>
      </trkpt>
      <trkpt lat="42.52156" lon="2.21214">
        <ele>891.76</ele>
        <time>2016-07-01T09:04:04Z</time>
      </trkpt>
      <trkpt lat="42.52157" lon="2.21216">
        <ele>891.28</ele>
        <time>2016-07-01T09:04:05Z</time>
      </trkpt>
      <trkpt lat="42.52157" lon="2.21218">
        <ele>891.28</ele>
        <time>2016-07-01T09:04:06Z</time>
      </trkpt>
      <trkpt lat="42.52167" lon="2.21246">
        <ele>889.84</ele>
        <time>2016-07-01T09:04:20Z</time>
      </trkpt>
      <trkpt lat="42.52175" lon="2.21267">
        <ele>888.88</ele>
        <time>2016-07-01T09:04:31Z</time>
      </trkpt>
      <trkpt lat="42.52178" lon="2.21276">
        <ele>888.88</ele>
        <time>2016-07-01T09:04:35Z</time>
      </trkpt>
      <trkpt lat="42.52179" lon="2.21278">
        <ele>888.4</ele>
        <time>2016-07-01T09:04:36Z</time>
      </trkpt>
      <trkpt lat="42.52188" lon="2.21303">
        <ele>887.43</ele>
        <time>2016-07-01T09:04:49Z</time>
      </trkpt>
      <trkpt lat="42.52192" lon="2.21317">
        <ele>886.95</ele>
        <time>2016-07-01T09:04:56Z</time>
      </trkpt>
      <trkpt lat="42.52193" lon="2.21319">
        <ele>886.47</ele>
        <time>2016-07-01T09:04:57Z</time>
      </trkpt>
      <trkpt lat="42.52194" lon="2.2132">
        <ele>886.47</ele>
        <time>2016-07-01T09:04:58Z</time>
      </trkpt>
      <trkpt lat="42.52194" lon="2.21322">
        <ele>886.47</ele>
        <time>2016-07-01T09:04:59Z</time>
      </trkpt>
      <trkpt lat="42.52195" lon="2.21324">
        <ele>886.47</ele>
        <time>2016-07-01T09:05:00Z</time>
      </trkpt>
      <trkpt lat="42.52196" lon="2.21326">
        <ele>886.47</ele>
        <time>2016-07-01T09:05:01Z</time>
      </trkpt>
      <trkpt lat="42.52196" lon="2.21328">
        <ele>885.51</ele>
        <time>2016-07-01T09:05:02Z</time>
      </trkpt>
      <trkpt lat="42.52197" lon="2.21332">
        <ele>885.51</ele>
        <time>2016-07-01T09:05:04Z</time>
      </trkpt>
      <trkpt lat="42.52198" lon="2.21334">
        <ele>885.51</ele>
        <time>2016-07-01T09:05:05Z</time>
      </trkpt>
      <trkpt lat="42.52199" lon="2.21336">
        <ele>885.51</ele>
        <time>2016-07-01T09:05:06Z</time>
      </trkpt>
      <trkpt lat="42.52199" lon="2.21338">
        <ele>885.51</ele>
        <time>2016-07-01T09:05:07Z</time>
      </trkpt>
      <trkpt lat="42.52199" lon="2.2134">
        <ele>885.03</ele>
        <time>2016-07-01T09:05:08Z</time>
      </trkpt>
      <trkpt lat="42.522" lon="2.21342">
        <ele>885.03</ele>
        <time>2016-07-01T09:05:09Z</time>
      </trkpt>
      <trkpt lat="42.522" lon="2.21344">
        <ele>885.03</ele>
        <time>2016-07-01T09:05:10Z</time>
      </trkpt>
      <trkpt lat="42.522" lon="2.21346">
        <ele>885.03</ele>
        <time>2016-07-01T09:05:11Z</time>
      </trkpt>
      <trkpt lat="42.522" lon="2.21349">
        <ele>885.03</ele>
        <time>2016-07-01T09:05:12Z</time>
      </trkpt>
      <trkpt lat="42.52201" lon="2.21351">
        <ele>885.03</ele>
        <time>2016-07-01T09:05:13Z</time>
      </trkpt>
      <trkpt lat="42.52201" lon="2.21353">
        <ele>884.55</ele>
        <time>2016-07-01T09:05:14Z</time>
      </trkpt>
      <trkpt lat="42.52201" lon="2.21355">
        <ele>884.55</ele>
        <time>2016-07-01T09:05:15Z</time>
      </trkpt>
      <trkpt lat="42.52201" lon="2.21357">
        <ele>884.55</ele>
        <time>2016-07-01T09:05:16Z</time>
      </trkpt>
      <trkpt lat="42.52201" lon="2.21359">
        <ele>884.55</ele>
        <time>2016-07-01T09:05:17Z</time>
      </trkpt>
      <trkpt lat="42.52201" lon="2.21361">
        <ele>884.55</ele>
        <time>2016-07-01T09:05:18Z</time>
      </trkpt>
      <trkpt lat="42.52201" lon="2.21363">
        <ele>884.55</ele>
        <time>2016-07-01T09:05:19Z</time>
      </trkpt>
      <trkpt lat="42.52201" lon="2.21366">
        <ele>884.07</ele>
        <time>2016-07-01T09:05:20Z</time>
      </trkpt>
      <trkpt lat="42.52201" lon="2.21368">
        <ele>884.07</ele>
        <time>2016-07-01T09:05:21Z</time>
      </trkpt>
      <trkpt lat="42.52201" lon="2.2137">
        <ele>884.07</ele>
        <time>2016-07-01T09:05:22Z</time>
      </trkpt>
      <trkpt lat="42.52201" lon="2.21372">
        <ele>884.07</ele>
        <time>2016-07-01T09:05:23Z</time>
      </trkpt>
      <trkpt lat="42.52202" lon="2.21374">
        <ele>884.07</ele>
        <time>2016-07-01T09:05:24Z</time>
      </trkpt>
      <trkpt lat="42.52202" lon="2.21377">
        <ele>883.59</ele>
        <time>2016-07-01T09:05:25Z</time>
      </trkpt>
      <trkpt lat="42.52202" lon="2.21379">
        <ele>883.59</ele>
        <time>2016-07-01T09:05:26Z</time>
      </trkpt>
      <trkpt lat="42.52202" lon="2.21382">
        <ele>883.59</ele>
        <time>2016-07-01T09:05:27Z</time>
      </trkpt>
      <trkpt lat="42.52202" lon="2.21384">
        <ele>883.59</ele>
        <time>2016-07-01T09:05:28Z</time>
      </trkpt>
      <trkpt lat="42.52202" lon="2.21386">
        <ele>883.59</ele>
        <time>2016-07-01T09:05:29Z</time>
      </trkpt>
      <trkpt lat="42.52203" lon="2.2139">
        <ele>883.11</ele>
        <time>2016-07-01T09:05:31Z</time>
      </trkpt>
      <trkpt lat="42.52203" lon="2.21392">
        <ele>883.11</ele>
        <time>2016-07-01T09:05:32Z</time>
      </trkpt>
      <trkpt lat="42.52203" lon="2.21394">
        <ele>883.11</ele>
        <time>2016-07-01T09:05:33Z</time>
      </trkpt>
      <trkpt lat="42.52203" lon="2.21396">
        <ele>883.11</ele>
        <time>2016-07-01T09:05:34Z</time>
      </trkpt>
      <trkpt lat="42.52203" lon="2.21398">
        <ele>882.15</ele>
        <time>2016-07-01T09:05:35Z</time>
      </trkpt>
      <trkpt lat="42.52203" lon="2.21401">
        <ele>882.63</ele>
        <time>2016-07-01T09:05:36Z</time>
      </trkpt>
      <trkpt lat="42.52203" lon="2.21403">
        <ele>882.63</ele>
        <time>2016-07-01T09:05:37Z</time>
      </trkpt>
      <trkpt lat="42.52203" lon="2.21405">
        <ele>882.63</ele>
        <time>2016-07-01T09:05:38Z</time>
      </trkpt>
      <trkpt lat="42.52204" lon="2.21415">
        <ele>881.67</ele>
        <time>2016-07-01T09:05:43Z</time>
      </trkpt>
      <trkpt lat="42.52204" lon="2.21417">
        <ele>881.67</ele>
        <time>2016-07-01T09:05:44Z</time>
      </trkpt>
      <trkpt lat="42.52205" lon="2.21419">
        <ele>881.19</ele>
        <time>2016-07-01T09:05:45Z</time>
      </trkpt>
      <trkpt lat="42.52205" lon="2.21421">
        <ele>881.19</ele>
        <time>2016-07-01T09:05:46Z</time>
      </trkpt>
      <trkpt lat="42.52205" lon="2.21423">
        <ele>881.19</ele>
        <time>2016-07-01T09:05:47Z</time>
      </trkpt>
      <trkpt lat="42.52205" lon="2.21425">
        <ele>881.19</ele>
        <time>2016-07-01T09:05:48Z</time>
      </trkpt>
      <trkpt lat="42.52206" lon="2.21427">
        <ele>881.19</ele>
        <time>2016-07-01T09:05:49Z</time>
      </trkpt>
      <trkpt lat="42.52206" lon="2.21431">
        <ele>881.19</ele>
        <time>2016-07-01T09:05:51Z</time>
      </trkpt>
      <trkpt lat="42.52206" lon="2.21433">
        <ele>880.71</ele>
        <time>2016-07-01T09:05:52Z</time>
      </trkpt>
      <trkpt lat="42.52206" lon="2.21435">
        <ele>880.71</ele>
        <time>2016-07-01T09:05:53Z</time>
      </trkpt>
      <trkpt lat="42.52206" lon="2.21437">
        <ele>880.71</ele>
        <time>2016-07-01T09:05:54Z</time>
      </trkpt>
      <trkpt lat="42.52206" lon="2.21439">
        <ele>880.71</ele>
        <time>2016-07-01T09:05:55Z</time>
      </trkpt>
      <trkpt lat="42.52206" lon="2.21441">
        <ele>880.71</ele>
        <time>2016-07-01T09:05:56Z</time>
      </trkpt>
      <trkpt lat="42.52206" lon="2.21444">
        <ele>880.22</ele>
        <time>2016-07-01T09:05:57Z</time>
      </trkpt>
      <trkpt lat="42.52206" lon="2.21446">
        <ele>880.22</ele>
        <time>2016-07-01T09:05:58Z</time>
      </trkpt>
      <trkpt lat="42.52206" lon="2.21448">
        <ele>880.22</ele>
        <time>2016-07-01T09:05:59Z</time>
      </trkpt>
      <trkpt lat="42.52206" lon="2.21451">
        <ele>880.22</ele>
        <time>2016-07-01T09:06:00Z</time>
      </trkpt>
      <trkpt lat="42.52205" lon="2.21453">
        <ele>880.22</ele>
        <time>2016-07-01T09:06:01Z</time>
      </trkpt>
      <trkpt lat="42.52204" lon="2.21455">
        <ele>880.22</ele>
        <time>2016-07-01T09:06:02Z</time>
      </trkpt>
      <trkpt lat="42.52203" lon="2.21457">
        <ele>880.22</ele>
        <time>2016-07-01T09:06:03Z</time>
      </trkpt>
      <trkpt lat="42.52203" lon="2.2146">
        <ele>880.22</ele>
        <time>2016-07-01T09:06:04Z</time>
      </trkpt>
      <trkpt lat="42.52201" lon="2.21466">
        <ele>879.74</ele>
        <time>2016-07-01T09:06:07Z</time>
      </trkpt>
      <trkpt lat="42.52201" lon="2.21468">
        <ele>879.74</ele>
        <time>2016-07-01T09:06:08Z</time>
      </trkpt>
      <trkpt lat="42.52201" lon="2.2147">
        <ele>878.78</ele>
        <time>2016-07-01T09:06:09Z</time>
      </trkpt>
      <trkpt lat="42.52199" lon="2.21472">
        <ele>879.26</ele>
        <time>2016-07-01T09:06:10Z</time>
      </trkpt>
      <trkpt lat="42.52198" lon="2.21474">
        <ele>879.26</ele>
        <time>2016-07-01T09:06:11Z</time>
      </trkpt>
      <trkpt lat="42.52198" lon="2.21476">
        <ele>879.26</ele>
        <time>2016-07-01T09:06:12Z</time>
      </trkpt>
      <trkpt lat="42.52197" lon="2.21478">
        <ele>879.26</ele>
        <time>2016-07-01T09:06:13Z</time>
      </trkpt>
      <trkpt lat="42.52196" lon="2.2148">
        <ele>878.3</ele>
        <time>2016-07-01T09:06:14Z</time>
      </trkpt>
      <trkpt lat="42.52195" lon="2.21482">
        <ele>878.78</ele>
        <time>2016-07-01T09:06:15Z</time>
      </trkpt>
      <trkpt lat="42.52194" lon="2.21484">
        <ele>878.78</ele>
        <time>2016-07-01T09:06:16Z</time>
      </trkpt>
      <trkpt lat="42.52193" lon="2.21486">
        <ele>878.78</ele>
        <time>2016-07-01T09:06:17Z</time>
      </trkpt>
      <trkpt lat="42.52192" lon="2.21488">
        <ele>878.78</ele>
        <time>2016-07-01T09:06:18Z</time>
      </trkpt>
      <trkpt lat="42.52191" lon="2.2149">
        <ele>877.82</ele>
        <time>2016-07-01T09:06:19Z</time>
      </trkpt>
      <trkpt lat="42.52191" lon="2.21492">
        <ele>877.82</ele>
        <time>2016-07-01T09:06:20Z</time>
      </trkpt>
      <trkpt lat="42.5219" lon="2.21495">
        <ele>877.82</ele>
        <time>2016-07-01T09:06:21Z</time>
      </trkpt>
      <trkpt lat="42.52189" lon="2.21499">
        <ele>877.82</ele>
        <time>2016-07-01T09:06:23Z</time>
      </trkpt>
      <trkpt lat="42.52188" lon="2.21501">
        <ele>877.82</ele>
        <time>2016-07-01T09:06:24Z</time>
      </trkpt>
      <trkpt lat="42.52188" lon="2.21503">
        <ele>877.34</ele>
        <time>2016-07-01T09:06:25Z</time>
      </trkpt>
      <trkpt lat="42.52191" lon="2.21531">
        <ele>876.38</ele>
        <time>2016-07-01T09:06:38Z</time>
      </trkpt>
      <trkpt lat="42.52205" lon="2.21553">
        <ele>874.46</ele>
        <time>2016-07-01T09:06:50Z</time>
      </trkpt>
      <trkpt lat="42.52207" lon="2.21555">
        <ele>874.46</ele>
        <time>2016-07-01T09:06:52Z</time>
      </trkpt>
      <trkpt lat="42.52208" lon="2.21557">
        <ele>874.46</ele>
        <time>2016-07-01T09:06:53Z</time>
      </trkpt>
      <trkpt lat="42.5221" lon="2.21559">
        <ele>873.98</ele>
        <time>2016-07-01T09:06:54Z</time>
      </trkpt>
      <trkpt lat="42.52211" lon="2.21562">
        <ele>873.98</ele>
        <time>2016-07-01T09:06:56Z</time>
      </trkpt>
      <trkpt lat="42.52212" lon="2.21564">
        <ele>873.98</ele>
        <time>2016-07-01T09:06:57Z</time>
      </trkpt>
      <trkpt lat="42.52213" lon="2.21566">
        <ele>873.98</ele>
        <time>2016-07-01T09:06:58Z</time>
      </trkpt>
      <trkpt lat="42.52224" lon="2.21596">
        <ele>872.53</ele>
        <time>2016-07-01T09:07:13Z</time>
      </trkpt>
      <trkpt lat="42.52226" lon="2.21624">
        <ele>870.61</ele>
        <time>2016-07-01T09:07:26Z</time>
      </trkpt>
      <trkpt lat="42.52224" lon="2.21637">
        <ele>869.65</ele>
        <time>2016-07-01T09:07:32Z</time>
      </trkpt>
      <trkpt lat="42.52224" lon="2.21639">
        <ele>869.65</ele>
        <time>2016-07-01T09:07:33Z</time>
      </trkpt>
      <trkpt lat="42.52223" lon="2.21641">
        <ele>869.65</ele>
        <time>2016-07-01T09:07:34Z</time>
      </trkpt>
      <trkpt lat="42.52223" lon="2.21643">
        <ele>868.69</ele>
        <time>2016-07-01T09:07:35Z</time>
      </trkpt>
      <trkpt lat="42.52223" lon="2.21645">
        <ele>869.17</ele>
        <time>2016-07-01T09:07:36Z</time>
      </trkpt>
      <trkpt lat="42.52222" lon="2.21648">
        <ele>869.17</ele>
        <time>2016-07-01T09:07:37Z</time>
      </trkpt>
      <trkpt lat="42.52222" lon="2.2165">
        <ele>869.17</ele>
        <time>2016-07-01T09:07:38Z</time>
      </trkpt>
      <trkpt lat="42.52222" lon="2.21651">
        <ele>869.17</ele>
        <time>2016-07-01T09:07:39Z</time>
      </trkpt>
      <trkpt lat="42.52221" lon="2.21653">
        <ele>868.21</ele>
        <time>2016-07-01T09:07:40Z</time>
      </trkpt>
      <trkpt lat="42.52221" lon="2.21655">
        <ele>868.69</ele>
        <time>2016-07-01T09:07:41Z</time>
      </trkpt>
      <trkpt lat="42.5222" lon="2.21659">
        <ele>868.69</ele>
        <time>2016-07-01T09:07:42Z</time>
      </trkpt>
      <trkpt lat="42.5222" lon="2.21661">
        <ele>868.69</ele>
        <time>2016-07-01T09:07:43Z</time>
      </trkpt>
      <trkpt lat="42.5222" lon="2.21664">
        <ele>868.69</ele>
        <time>2016-07-01T09:07:44Z</time>
      </trkpt>
      <trkpt lat="42.5222" lon="2.21666">
        <ele>867.73</ele>
        <time>2016-07-01T09:07:45Z</time>
      </trkpt>
      <trkpt lat="42.5222" lon="2.21669">
        <ele>868.21</ele>
        <time>2016-07-01T09:07:46Z</time>
      </trkpt>
      <trkpt lat="42.52221" lon="2.21671">
        <ele>868.21</ele>
        <time>2016-07-01T09:07:47Z</time>
      </trkpt>
      <trkpt lat="42.52221" lon="2.21673">
        <ele>868.21</ele>
        <time>2016-07-01T09:07:48Z</time>
      </trkpt>
      <trkpt lat="42.52221" lon="2.21676">
        <ele>868.21</ele>
        <time>2016-07-01T09:07:49Z</time>
      </trkpt>
      <trkpt lat="42.52221" lon="2.21678">
        <ele>868.21</ele>
        <time>2016-07-01T09:07:50Z</time>
      </trkpt>
      <trkpt lat="42.52222" lon="2.21681">
        <ele>867.25</ele>
        <time>2016-07-01T09:07:51Z</time>
      </trkpt>
      <trkpt lat="42.52222" lon="2.21683">
        <ele>867.25</ele>
        <time>2016-07-01T09:07:52Z</time>
      </trkpt>
      <trkpt lat="42.52224" lon="2.21696">
        <ele>867.25</ele>
        <time>2016-07-01T09:08:00Z</time>
      </trkpt>
      <trkpt lat="42.52225" lon="2.21697">
        <ele>867.25</ele>
        <time>2016-07-01T09:08:01Z</time>
      </trkpt>
      <trkpt lat="42.5223" lon="2.21723">
        <ele>865.8</ele>
        <time>2016-07-01T09:08:15Z</time>
      </trkpt>
      <trkpt lat="42.52231" lon="2.21725">
        <ele>865.8</ele>
        <time>2016-07-01T09:08:16Z</time>
      </trkpt>
      <trkpt lat="42.52231" lon="2.21728">
        <ele>865.8</ele>
        <time>2016-07-01T09:08:17Z</time>
      </trkpt>
      <trkpt lat="42.52232" lon="2.2173">
        <ele>865.8</ele>
        <time>2016-07-01T09:08:18Z</time>
      </trkpt>
      <trkpt lat="42.52233" lon="2.21732">
        <ele>865.32</ele>
        <time>2016-07-01T09:08:19Z</time>
      </trkpt>
      <trkpt lat="42.52233" lon="2.21734">
        <ele>865.32</ele>
        <time>2016-07-01T09:08:20Z</time>
      </trkpt>
      <trkpt lat="42.52234" lon="2.21735">
        <ele>865.32</ele>
        <time>2016-07-01T09:08:21Z</time>
      </trkpt>
      <trkpt lat="42.52235" lon="2.21737">
        <ele>865.32</ele>
        <time>2016-07-01T09:08:22Z</time>
      </trkpt>
      <trkpt lat="42.52236" lon="2.21738">
        <ele>865.32</ele>
        <time>2016-07-01T09:08:23Z</time>
      </trkpt>
      <trkpt lat="42.52237" lon="2.2174">
        <ele>865.32</ele>
        <time>2016-07-01T09:08:24Z</time>
      </trkpt>
      <trkpt lat="42.52238" lon="2.21741">
        <ele>864.84</ele>
        <time>2016-07-01T09:08:25Z</time>
      </trkpt>
      <trkpt lat="42.52239" lon="2.21743">
        <ele>864.84</ele>
        <time>2016-07-01T09:08:26Z</time>
      </trkpt>
      <trkpt lat="42.52254" lon="2.21764">
        <ele>862.92</ele>
        <time>2016-07-01T09:08:40Z</time>
      </trkpt>
      <trkpt lat="42.52269" lon="2.21785">
        <ele>861.96</ele>
        <time>2016-07-01T09:08:53Z</time>
      </trkpt>
      <trkpt lat="42.52274" lon="2.21797">
        <ele>860.52</ele>
        <time>2016-07-01T09:09:00Z</time>
      </trkpt>
      <trkpt lat="42.52277" lon="2.21802">
        <ele>860.52</ele>
        <time>2016-07-01T09:09:03Z</time>
      </trkpt>
      <trkpt lat="42.52277" lon="2.21804">
        <ele>860.52</ele>
        <time>2016-07-01T09:09:04Z</time>
      </trkpt>
      <trkpt lat="42.52278" lon="2.21806">
        <ele>860.52</ele>
        <time>2016-07-01T09:09:05Z</time>
      </trkpt>
      <trkpt lat="42.52279" lon="2.21809">
        <ele>860.52</ele>
        <time>2016-07-01T09:09:06Z</time>
      </trkpt>
      <trkpt lat="42.52279" lon="2.21811">
        <ele>860.04</ele>
        <time>2016-07-01T09:09:07Z</time>
      </trkpt>
      <trkpt lat="42.5228" lon="2.21813">
        <ele>860.04</ele>
        <time>2016-07-01T09:09:08Z</time>
      </trkpt>
      <trkpt lat="42.52281" lon="2.21814">
        <ele>860.04</ele>
        <time>2016-07-01T09:09:09Z</time>
      </trkpt>
      <trkpt lat="42.52281" lon="2.21816">
        <ele>860.04</ele>
        <time>2016-07-01T09:09:10Z</time>
      </trkpt>
      <trkpt lat="42.52282" lon="2.2182">
        <ele>859.56</ele>
        <time>2016-07-01T09:09:12Z</time>
      </trkpt>
      <trkpt lat="42.52283" lon="2.21822">
        <ele>859.56</ele>
        <time>2016-07-01T09:09:13Z</time>
      </trkpt>
      <trkpt lat="42.52285" lon="2.21828">
        <ele>859.56</ele>
        <time>2016-07-01T09:09:16Z</time>
      </trkpt>
      <trkpt lat="42.52301" lon="2.21852">
        <ele>857.63</ele>
        <time>2016-07-01T09:09:30Z</time>
      </trkpt>
      <trkpt lat="42.52322" lon="2.21865">
        <ele>856.67</ele>
        <time>2016-07-01T09:09:45Z</time>
      </trkpt>
      <trkpt lat="42.5234" lon="2.21879">
        <ele>855.23</ele>
        <time>2016-07-01T09:09:59Z</time>
      </trkpt>
      <trkpt lat="42.52341" lon="2.2188">
        <ele>855.23</ele>
        <time>2016-07-01T09:10:00Z</time>
      </trkpt>
      <trkpt lat="42.52343" lon="2.21881">
        <ele>854.75</ele>
        <time>2016-07-01T09:10:01Z</time>
      </trkpt>
      <trkpt lat="42.52347" lon="2.21886">
        <ele>854.75</ele>
        <time>2016-07-01T09:10:04Z</time>
      </trkpt>
      <trkpt lat="42.52348" lon="2.21887">
        <ele>854.75</ele>
        <time>2016-07-01T09:10:05Z</time>
      </trkpt>
      <trkpt lat="42.52349" lon="2.21888">
        <ele>854.27</ele>
        <time>2016-07-01T09:10:06Z</time>
      </trkpt>
      <trkpt lat="42.52351" lon="2.2189">
        <ele>854.27</ele>
        <time>2016-07-01T09:10:07Z</time>
      </trkpt>
      <trkpt lat="42.52352" lon="2.21891">
        <ele>854.27</ele>
        <time>2016-07-01T09:10:08Z</time>
      </trkpt>
      <trkpt lat="42.52353" lon="2.21893">
        <ele>854.27</ele>
        <time>2016-07-01T09:10:09Z</time>
      </trkpt>
      <trkpt lat="42.52354" lon="2.21894">
        <ele>854.27</ele>
        <time>2016-07-01T09:10:10Z</time>
      </trkpt>
      <trkpt lat="42.52374" lon="2.21911">
        <ele>852.35</ele>
        <time>2016-07-01T09:10:24Z</time>
      </trkpt>
      <trkpt lat="42.52393" lon="2.21922">
        <ele>850.9</ele>
        <time>2016-07-01T09:10:37Z</time>
      </trkpt>
      <trkpt lat="42.52396" lon="2.21924">
        <ele>849.94</ele>
        <time>2016-07-01T09:10:39Z</time>
      </trkpt>
      <trkpt lat="42.52398" lon="2.21925">
        <ele>849.94</ele>
        <time>2016-07-01T09:10:40Z</time>
      </trkpt>
      <trkpt lat="42.52399" lon="2.21926">
        <ele>849.94</ele>
        <time>2016-07-01T09:10:41Z</time>
      </trkpt>
      <trkpt lat="42.52401" lon="2.21927">
        <ele>849.94</ele>
        <time>2016-07-01T09:10:42Z</time>
      </trkpt>
      <trkpt lat="42.52402" lon="2.21927">
        <ele>849.94</ele>
        <time>2016-07-01T09:10:43Z</time>
      </trkpt>
      <trkpt lat="42.52404" lon="2.21928">
        <ele>849.46</ele>
        <time>2016-07-01T09:10:44Z</time>
      </trkpt>
      <trkpt lat="42.52405" lon="2.21929">
        <ele>849.46</ele>
        <time>2016-07-01T09:10:45Z</time>
      </trkpt>
      <trkpt lat="42.52407" lon="2.2193">
        <ele>849.46</ele>
        <time>2016-07-01T09:10:46Z</time>
      </trkpt>
      <trkpt lat="42.52408" lon="2.21931">
        <ele>849.46</ele>
        <time>2016-07-01T09:10:47Z</time>
      </trkpt>
      <trkpt lat="42.52409" lon="2.21932">
        <ele>849.46</ele>
        <time>2016-07-01T09:10:48Z</time>
      </trkpt>
      <trkpt lat="42.5241" lon="2.21934">
        <ele>849.46</ele>
        <time>2016-07-01T09:10:49Z</time>
      </trkpt>
      <trkpt lat="42.52411" lon="2.21935">
        <ele>848.98</ele>
        <time>2016-07-01T09:10:50Z</time>
      </trkpt>
      <trkpt lat="42.52412" lon="2.21937">
        <ele>848.98</ele>
        <time>2016-07-01T09:10:51Z</time>
      </trkpt>
      <trkpt lat="42.52414" lon="2.21938">
        <ele>848.98</ele>
        <time>2016-07-01T09:10:52Z</time>
      </trkpt>
      <trkpt lat="42.52415" lon="2.2194">
        <ele>848.98</ele>
        <time>2016-07-01T09:10:53Z</time>
      </trkpt>
      <trkpt lat="42.52415" lon="2.21942">
        <ele>848.98</ele>
        <time>2016-07-01T09:10:54Z</time>
      </trkpt>
      <trkpt lat="42.52416" lon="2.21944">
        <ele>848.5</ele>
        <time>2016-07-01T09:10:55Z</time>
      </trkpt>
      <trkpt lat="42.52418" lon="2.21945">
        <ele>848.5</ele>
        <time>2016-07-01T09:10:56Z</time>
      </trkpt>
      <trkpt lat="42.52418" lon="2.21946">
        <ele>848.5</ele>
        <time>2016-07-01T09:10:57Z</time>
      </trkpt>
      <trkpt lat="42.52426" lon="2.21952">
        <ele>848.02</ele>
        <time>2016-07-01T09:11:05Z</time>
      </trkpt>
      <trkpt lat="42.52427" lon="2.21953">
        <ele>848.02</ele>
        <time>2016-07-01T09:11:06Z</time>
      </trkpt>
      <trkpt lat="42.52428" lon="2.21955">
        <ele>848.02</ele>
        <time>2016-07-01T09:11:07Z</time>
      </trkpt>
      <trkpt lat="42.52429" lon="2.21957">
        <ele>847.54</ele>
        <time>2016-07-01T09:11:08Z</time>
      </trkpt>
      <trkpt lat="42.5243" lon="2.21958">
        <ele>847.54</ele>
        <time>2016-07-01T09:11:09Z</time>
      </trkpt>
      <trkpt lat="42.52431" lon="2.2196">
        <ele>847.54</ele>
        <time>2016-07-01T09:11:10Z</time>
      </trkpt>
      <trkpt lat="42.52436" lon="2.21966">
        <ele>847.06</ele>
        <time>2016-07-01T09:11:14Z</time>
      </trkpt>
      <trkpt lat="42.52437" lon="2.21967">
        <ele>847.06</ele>
        <time>2016-07-01T09:11:15Z</time>
      </trkpt>
      <trkpt lat="42.52446" lon="2.21982">
        <ele>845.62</ele>
        <time>2016-07-01T09:11:24Z</time>
      </trkpt>
      <trkpt lat="42.52447" lon="2.21984">
        <ele>845.62</ele>
        <time>2016-07-01T09:11:25Z</time>
      </trkpt>
      <trkpt lat="42.52448" lon="2.21985">
        <ele>845.62</ele>
        <time>2016-07-01T09:11:26Z</time>
      </trkpt>
      <trkpt lat="42.52448" lon="2.21987">
        <ele>845.62</ele>
        <time>2016-07-01T09:11:27Z</time>
      </trkpt>
      <trkpt lat="42.52449" lon="2.21989">
        <ele>845.62</ele>
        <time>2016-07-01T09:11:28Z</time>
      </trkpt>
      <trkpt lat="42.5245" lon="2.2199">
        <ele>845.14</ele>
        <time>2016-07-01T09:11:29Z</time>
      </trkpt>
      <trkpt lat="42.52453" lon="2.21997">
        <ele>845.14</ele>
        <time>2016-07-01T09:11:33Z</time>
      </trkpt>
      <trkpt lat="42.52454" lon="2.21999">
        <ele>844.66</ele>
        <time>2016-07-01T09:11:34Z</time>
      </trkpt>
      <trkpt lat="42.52454" lon="2.22001">
        <ele>844.66</ele>
        <time>2016-07-01T09:11:35Z</time>
      </trkpt>
      <trkpt lat="42.52455" lon="2.22003">
        <ele>844.66</ele>
        <time>2016-07-01T09:11:36Z</time>
      </trkpt>
      <trkpt lat="42.52456" lon="2.22005">
        <ele>844.66</ele>
        <time>2016-07-01T09:11:37Z</time>
      </trkpt>
      <trkpt lat="42.52457" lon="2.22008">
        <ele>844.66</ele>
        <time>2016-07-01T09:11:38Z</time>
      </trkpt>
      <trkpt lat="42.52458" lon="2.2201">
        <ele>844.18</ele>
        <time>2016-07-01T09:11:39Z</time>
      </trkpt>
      <trkpt lat="42.5246" lon="2.22019">
        <ele>844.18</ele>
        <time>2016-07-01T09:11:43Z</time>
      </trkpt>
      <trkpt lat="42.52461" lon="2.22021">
        <ele>844.18</ele>
        <time>2016-07-01T09:11:44Z</time>
      </trkpt>
      <trkpt lat="42.52461" lon="2.22023">
        <ele>843.69</ele>
        <time>2016-07-01T09:11:45Z</time>
      </trkpt>
      <trkpt lat="42.52462" lon="2.22025">
        <ele>843.69</ele>
        <time>2016-07-01T09:11:46Z</time>
      </trkpt>
      <trkpt lat="42.52462" lon="2.22027">
        <ele>843.69</ele>
        <time>2016-07-01T09:11:47Z</time>
      </trkpt>
      <trkpt lat="42.52462" lon="2.2203">
        <ele>843.69</ele>
        <time>2016-07-01T09:11:48Z</time>
      </trkpt>
      <trkpt lat="42.52463" lon="2.22032">
        <ele>843.69</ele>
        <time>2016-07-01T09:11:49Z</time>
      </trkpt>
      <trkpt lat="42.52463" lon="2.22034">
        <ele>843.69</ele>
        <time>2016-07-01T09:11:50Z</time>
      </trkpt>
      <trkpt lat="42.52463" lon="2.22036">
        <ele>843.21</ele>
        <time>2016-07-01T09:11:51Z</time>
      </trkpt>
      <trkpt lat="42.52464" lon="2.22038">
        <ele>843.21</ele>
        <time>2016-07-01T09:11:52Z</time>
      </trkpt>
      <trkpt lat="42.52465" lon="2.2204">
        <ele>843.21</ele>
        <time>2016-07-01T09:11:53Z</time>
      </trkpt>
      <trkpt lat="42.52465" lon="2.22043">
        <ele>843.21</ele>
        <time>2016-07-01T09:11:54Z</time>
      </trkpt>
      <trkpt lat="42.52466" lon="2.22045">
        <ele>842.73</ele>
        <time>2016-07-01T09:11:55Z</time>
      </trkpt>
      <trkpt lat="42.52466" lon="2.22047">
        <ele>842.73</ele>
        <time>2016-07-01T09:11:56Z</time>
      </trkpt>
      <trkpt lat="42.52466" lon="2.2205">
        <ele>842.25</ele>
        <time>2016-07-01T09:11:57Z</time>
      </trkpt>
      <trkpt lat="42.52466" lon="2.22052">
        <ele>842.25</ele>
        <time>2016-07-01T09:11:58Z</time>
      </trkpt>
      <trkpt lat="42.52467" lon="2.22054">
        <ele>842.25</ele>
        <time>2016-07-01T09:11:59Z</time>
      </trkpt>
      <trkpt lat="42.52468" lon="2.22056">
        <ele>842.25</ele>
        <time>2016-07-01T09:12:00Z</time>
      </trkpt>
      <trkpt lat="42.52469" lon="2.22063">
        <ele>841.77</ele>
        <time>2016-07-01T09:12:03Z</time>
      </trkpt>
      <trkpt lat="42.52469" lon="2.22065">
        <ele>841.77</ele>
        <time>2016-07-01T09:12:04Z</time>
      </trkpt>
      <trkpt lat="42.5247" lon="2.22068">
        <ele>841.77</ele>
        <time>2016-07-01T09:12:05Z</time>
      </trkpt>
      <trkpt lat="42.52471" lon="2.22072">
        <ele>841.77</ele>
        <time>2016-07-01T09:12:07Z</time>
      </trkpt>
      <trkpt lat="42.52472" lon="2.22075">
        <ele>841.77</ele>
        <time>2016-07-01T09:12:08Z</time>
      </trkpt>
      <trkpt lat="42.52473" lon="2.22081">
        <ele>841.29</ele>
        <time>2016-07-01T09:12:11Z</time>
      </trkpt>
      <trkpt lat="42.52474" lon="2.22083">
        <ele>841.29</ele>
        <time>2016-07-01T09:12:12Z</time>
      </trkpt>
      <trkpt lat="42.52475" lon="2.22085">
        <ele>841.29</ele>
        <time>2016-07-01T09:12:13Z</time>
      </trkpt>
      <trkpt lat="42.52475" lon="2.22087">
        <ele>841.29</ele>
        <time>2016-07-01T09:12:14Z</time>
      </trkpt>
      <trkpt lat="42.52475" lon="2.22088">
        <ele>840.81</ele>
        <time>2016-07-01T09:12:15Z</time>
      </trkpt>
      <trkpt lat="42.52476" lon="2.22089">
        <ele>840.81</ele>
        <time>2016-07-01T09:12:16Z</time>
      </trkpt>
      <trkpt lat="42.52477" lon="2.22091">
        <ele>840.81</ele>
        <time>2016-07-01T09:12:17Z</time>
      </trkpt>
      <trkpt lat="42.52478" lon="2.22094">
        <ele>840.81</ele>
        <time>2016-07-01T09:12:19Z</time>
      </trkpt>
      <trkpt lat="42.52479" lon="2.22096">
        <ele>840.81</ele>
        <time>2016-07-01T09:12:20Z</time>
      </trkpt>
      <trkpt lat="42.5248" lon="2.22098">
        <ele>840.81</ele>
        <time>2016-07-01T09:12:21Z</time>
      </trkpt>
      <trkpt lat="42.52481" lon="2.22099">
        <ele>840.33</ele>
        <time>2016-07-01T09:12:22Z</time>
      </trkpt>
      <trkpt lat="42.52482" lon="2.22101">
        <ele>840.33</ele>
        <time>2016-07-01T09:12:23Z</time>
      </trkpt>
      <trkpt lat="42.52483" lon="2.22103">
        <ele>840.33</ele>
        <time>2016-07-01T09:12:24Z</time>
      </trkpt>
      <trkpt lat="42.52484" lon="2.22105">
        <ele>840.33</ele>
        <time>2016-07-01T09:12:25Z</time>
      </trkpt>
      <trkpt lat="42.52484" lon="2.22107">
        <ele>840.33</ele>
        <time>2016-07-01T09:12:26Z</time>
      </trkpt>
      <trkpt lat="42.52485" lon="2.22108">
        <ele>840.33</ele>
        <time>2016-07-01T09:12:27Z</time>
      </trkpt>
      <trkpt lat="42.52486" lon="2.22111">
        <ele>839.37</ele>
        <time>2016-07-01T09:12:28Z</time>
      </trkpt>
      <trkpt lat="42.52487" lon="2.22112">
        <ele>839.37</ele>
        <time>2016-07-01T09:12:29Z</time>
      </trkpt>
      <trkpt lat="42.52488" lon="2.22114">
        <ele>839.37</ele>
        <time>2016-07-01T09:12:30Z</time>
      </trkpt>
      <trkpt lat="42.52489" lon="2.22116">
        <ele>839.37</ele>
        <time>2016-07-01T09:12:31Z</time>
      </trkpt>
      <trkpt lat="42.52491" lon="2.22118">
        <ele>839.37</ele>
        <time>2016-07-01T09:12:32Z</time>
      </trkpt>
      <trkpt lat="42.52491" lon="2.2212">
        <ele>838.89</ele>
        <time>2016-07-01T09:12:33Z</time>
      </trkpt>
      <trkpt lat="42.52492" lon="2.22122">
        <ele>838.89</ele>
        <time>2016-07-01T09:12:34Z</time>
      </trkpt>
      <trkpt lat="42.52493" lon="2.22123">
        <ele>838.89</ele>
        <time>2016-07-01T09:12:35Z</time>
      </trkpt>
      <trkpt lat="42.52495" lon="2.22125">
        <ele>838.89</ele>
        <time>2016-07-01T09:12:36Z</time>
      </trkpt>
      <trkpt lat="42.52495" lon="2.22127">
        <ele>838.89</ele>
        <time>2016-07-01T09:12:37Z</time>
      </trkpt>
      <trkpt lat="42.52496" lon="2.22129">
        <ele>838.89</ele>
        <time>2016-07-01T09:12:38Z</time>
      </trkpt>
      <trkpt lat="42.52497" lon="2.22131">
        <ele>838.41</ele>
        <time>2016-07-01T09:12:39Z</time>
      </trkpt>
      <trkpt lat="42.52498" lon="2.22133">
        <ele>838.41</ele>
        <time>2016-07-01T09:12:40Z</time>
      </trkpt>
      <trkpt lat="42.52499" lon="2.22135">
        <ele>838.41</ele>
        <time>2016-07-01T09:12:41Z</time>
      </trkpt>
      <trkpt lat="42.525" lon="2.22137">
        <ele>838.41</ele>
        <time>2016-07-01T09:12:42Z</time>
      </trkpt>
      <trkpt lat="42.52501" lon="2.22138">
        <ele>838.41</ele>
        <time>2016-07-01T09:12:43Z</time>
      </trkpt>
      <trkpt lat="42.52501" lon="2.2214">
        <ele>838.41</ele>
        <time>2016-07-01T09:12:44Z</time>
      </trkpt>
      <trkpt lat="42.52502" lon="2.22142">
        <ele>837.93</ele>
        <time>2016-07-01T09:12:45Z</time>
      </trkpt>
      <trkpt lat="42.52504" lon="2.22144">
        <ele>837.93</ele>
        <time>2016-07-01T09:12:46Z</time>
      </trkpt>
      <trkpt lat="42.52505" lon="2.22145">
        <ele>837.93</ele>
        <time>2016-07-01T09:12:47Z</time>
      </trkpt>
      <trkpt lat="42.52505" lon="2.22147">
        <ele>837.93</ele>
        <time>2016-07-01T09:12:48Z</time>
      </trkpt>
      <trkpt lat="42.52506" lon="2.22149">
        <ele>837.45</ele>
        <time>2016-07-01T09:12:49Z</time>
      </trkpt>
      <trkpt lat="42.52507" lon="2.22151">
        <ele>837.45</ele>
        <time>2016-07-01T09:12:50Z</time>
      </trkpt>
      <trkpt lat="42.52508" lon="2.22157">
        <ele>837.45</ele>
        <time>2016-07-01T09:12:53Z</time>
      </trkpt>
      <trkpt lat="42.5251" lon="2.22159">
        <ele>837.45</ele>
        <time>2016-07-01T09:12:54Z</time>
      </trkpt>
      <trkpt lat="42.52511" lon="2.2216">
        <ele>836.96</ele>
        <time>2016-07-01T09:12:55Z</time>
      </trkpt>
      <trkpt lat="42.52511" lon="2.22162">
        <ele>836.96</ele>
        <time>2016-07-01T09:12:56Z</time>
      </trkpt>
      <trkpt lat="42.52512" lon="2.22163">
        <ele>836.96</ele>
        <time>2016-07-01T09:12:57Z</time>
      </trkpt>
      <trkpt lat="42.52514" lon="2.22165">
        <ele>836.96</ele>
        <time>2016-07-01T09:12:58Z</time>
      </trkpt>
      <trkpt lat="42.52515" lon="2.22167">
        <ele>836.96</ele>
        <time>2016-07-01T09:12:59Z</time>
      </trkpt>
      <trkpt lat="42.52515" lon="2.22168">
        <ele>836.48</ele>
        <time>2016-07-01T09:13:00Z</time>
      </trkpt>
      <trkpt lat="42.52516" lon="2.2217">
        <ele>836</ele>
        <time>2016-07-01T09:13:01Z</time>
      </trkpt>
      <trkpt lat="42.52518" lon="2.22172">
        <ele>836</ele>
        <time>2016-07-01T09:13:02Z</time>
      </trkpt>
      <trkpt lat="42.52518" lon="2.22174">
        <ele>836</ele>
        <time>2016-07-01T09:13:03Z</time>
      </trkpt>
      <trkpt lat="42.52519" lon="2.22176">
        <ele>836</ele>
        <time>2016-07-01T09:13:04Z</time>
      </trkpt>
      <trkpt lat="42.52519" lon="2.22178">
        <ele>836</ele>
        <time>2016-07-01T09:13:05Z</time>
      </trkpt>
      <trkpt lat="42.52521" lon="2.2218">
        <ele>836</ele>
        <time>2016-07-01T09:13:06Z</time>
      </trkpt>
      <trkpt lat="42.52521" lon="2.22182">
        <ele>836</ele>
        <time>2016-07-01T09:13:07Z</time>
      </trkpt>
      <trkpt lat="42.52522" lon="2.22184">
        <ele>835.52</ele>
        <time>2016-07-01T09:13:08Z</time>
      </trkpt>
      <trkpt lat="42.52523" lon="2.22186">
        <ele>835.52</ele>
        <time>2016-07-01T09:13:09Z</time>
      </trkpt>
      <trkpt lat="42.52523" lon="2.22188">
        <ele>835.52</ele>
        <time>2016-07-01T09:13:10Z</time>
      </trkpt>
      <trkpt lat="42.52523" lon="2.2219">
        <ele>835.52</ele>
        <time>2016-07-01T09:13:11Z</time>
      </trkpt>
      <trkpt lat="42.52523" lon="2.22192">
        <ele>835.52</ele>
        <time>2016-07-01T09:13:12Z</time>
      </trkpt>
      <trkpt lat="42.52523" lon="2.22194">
        <ele>835.04</ele>
        <time>2016-07-01T09:13:13Z</time>
      </trkpt>
      <trkpt lat="42.52523" lon="2.22196">
        <ele>835.04</ele>
        <time>2016-07-01T09:13:14Z</time>
      </trkpt>
      <trkpt lat="42.52524" lon="2.22203">
        <ele>834.56</ele>
        <time>2016-07-01T09:13:17Z</time>
      </trkpt>
      <trkpt lat="42.52523" lon="2.22205">
        <ele>834.56</ele>
        <time>2016-07-01T09:13:18Z</time>
      </trkpt>
      <trkpt lat="42.52524" lon="2.22207">
        <ele>834.56</ele>
        <time>2016-07-01T09:13:19Z</time>
      </trkpt>
      <trkpt lat="42.52524" lon="2.22209">
        <ele>834.56</ele>
        <time>2016-07-01T09:13:20Z</time>
      </trkpt>
      <trkpt lat="42.52525" lon="2.22211">
        <ele>834.56</ele>
        <time>2016-07-01T09:13:21Z</time>
      </trkpt>
      <trkpt lat="42.52524" lon="2.22213">
        <ele>834.56</ele>
        <time>2016-07-01T09:13:22Z</time>
      </trkpt>
      <trkpt lat="42.52525" lon="2.22215">
        <ele>834.08</ele>
        <time>2016-07-01T09:13:23Z</time>
      </trkpt>
      <trkpt lat="42.52525" lon="2.22216">
        <ele>834.08</ele>
        <time>2016-07-01T09:13:24Z</time>
      </trkpt>
      <trkpt lat="42.52525" lon="2.22218">
        <ele>834.08</ele>
        <time>2016-07-01T09:13:25Z</time>
      </trkpt>
      <trkpt lat="42.52527" lon="2.2222">
        <ele>834.08</ele>
        <time>2016-07-01T09:13:26Z</time>
      </trkpt>
      <trkpt lat="42.52529" lon="2.22225">
        <ele>833.6</ele>
        <time>2016-07-01T09:13:30Z</time>
      </trkpt>
      <trkpt lat="42.5253" lon="2.22229">
        <ele>833.6</ele>
        <time>2016-07-01T09:13:32Z</time>
      </trkpt>
      <trkpt lat="42.52529" lon="2.22231">
        <ele>833.6</ele>
        <time>2016-07-01T09:13:33Z</time>
      </trkpt>
      <trkpt lat="42.52528" lon="2.22233">
        <ele>832.64</ele>
        <time>2016-07-01T09:13:34Z</time>
      </trkpt>
      <trkpt lat="42.52527" lon="2.22234">
        <ele>833.12</ele>
        <time>2016-07-01T09:13:35Z</time>
      </trkpt>
      <trkpt lat="42.52526" lon="2.22236">
        <ele>833.12</ele>
        <time>2016-07-01T09:13:36Z</time>
      </trkpt>
      <trkpt lat="42.52525" lon="2.22237">
        <ele>833.12</ele>
        <time>2016-07-01T09:13:37Z</time>
      </trkpt>
      <trkpt lat="42.52524" lon="2.22238">
        <ele>833.12</ele>
        <time>2016-07-01T09:13:38Z</time>
      </trkpt>
      <trkpt lat="42.52523" lon="2.2224">
        <ele>832.16</ele>
        <time>2016-07-01T09:13:39Z</time>
      </trkpt>
      <trkpt lat="42.52522" lon="2.22241">
        <ele>832.16</ele>
        <time>2016-07-01T09:13:40Z</time>
      </trkpt>
      <trkpt lat="42.52505" lon="2.22245">
        <ele>831.2</ele>
        <time>2016-07-01T09:13:52Z</time>
      </trkpt>
      <trkpt lat="42.52496" lon="2.22244">
        <ele>830.72</ele>
        <time>2016-07-01T09:13:58Z</time>
      </trkpt>
      <trkpt lat="42.52486" lon="2.2225">
        <ele>830.24</ele>
        <time>2016-07-01T09:14:08Z</time>
      </trkpt>
      <trkpt lat="42.52485" lon="2.22252">
        <ele>830.24</ele>
        <time>2016-07-01T09:14:09Z</time>
      </trkpt>
      <trkpt lat="42.5248" lon="2.22264">
        <ele>830.24</ele>
        <time>2016-07-01T09:14:18Z</time>
      </trkpt>
      <trkpt lat="42.52478" lon="2.22271">
        <ele>830.24</ele>
        <time>2016-07-01T09:14:23Z</time>
      </trkpt>
      <trkpt lat="42.52478" lon="2.22273">
        <ele>830.24</ele>
        <time>2016-07-01T09:14:24Z</time>
      </trkpt>
      <trkpt lat="42.52477" lon="2.22274">
        <ele>830.24</ele>
        <time>2016-07-01T09:14:25Z</time>
      </trkpt>
      <trkpt lat="42.52476" lon="2.22277">
        <ele>830.24</ele>
        <time>2016-07-01T09:14:27Z</time>
      </trkpt>
      <trkpt lat="42.52475" lon="2.22278">
        <ele>830.24</ele>
        <time>2016-07-01T09:14:28Z</time>
      </trkpt>
      <trkpt lat="42.52469" lon="2.22279">
        <ele>831.68</ele>
        <time>2016-07-01T09:14:34Z</time>
      </trkpt>
      <trkpt lat="42.52466" lon="2.22277">
        <ele>832.16</ele>
        <time>2016-07-01T09:14:38Z</time>
      </trkpt>
      <trkpt lat="42.52456" lon="2.22273">
        <ele>833.6</ele>
        <time>2016-07-01T09:14:48Z</time>
      </trkpt>
      <trkpt lat="42.52447" lon="2.22275">
        <ele>835.04</ele>
        <time>2016-07-01T09:14:57Z</time>
      </trkpt>
      <trkpt lat="42.5244" lon="2.22277">
        <ele>836.48</ele>
        <time>2016-07-01T09:15:05Z</time>
      </trkpt>
      <trkpt lat="42.52437" lon="2.22278">
        <ele>836.48</ele>
        <time>2016-07-01T09:15:07Z</time>
      </trkpt>
      <trkpt lat="42.52428" lon="2.22284">
        <ele>838.41</ele>
        <time>2016-07-01T09:15:17Z</time>
      </trkpt>
      <trkpt lat="42.52426" lon="2.22285">
        <ele>838.41</ele>
        <time>2016-07-01T09:15:18Z</time>
      </trkpt>
      <trkpt lat="42.52425" lon="2.22286">
        <ele>838.89</ele>
        <time>2016-07-01T09:15:19Z</time>
      </trkpt>
      <trkpt lat="42.52416" lon="2.22289">
        <ele>839.85</ele>
        <time>2016-07-01T09:15:27Z</time>
      </trkpt>
      <trkpt lat="42.52415" lon="2.22289">
        <ele>839.85</ele>
        <time>2016-07-01T09:15:28Z</time>
      </trkpt>
      <trkpt lat="42.52405" lon="2.2229">
        <ele>840.81</ele>
        <time>2016-07-01T09:15:37Z</time>
      </trkpt>
      <trkpt lat="42.52401" lon="2.22291">
        <ele>841.29</ele>
        <time>2016-07-01T09:15:41Z</time>
      </trkpt>
      <trkpt lat="42.5239" lon="2.22291">
        <ele>843.21</ele>
        <time>2016-07-01T09:15:51Z</time>
      </trkpt>
      <trkpt lat="42.52387" lon="2.22291">
        <ele>843.69</ele>
        <time>2016-07-01T09:15:55Z</time>
      </trkpt>
      <trkpt lat="42.52379" lon="2.22286">
        <ele>845.14</ele>
        <time>2016-07-01T09:16:06Z</time>
      </trkpt>
      <trkpt lat="42.52373" lon="2.22279">
        <ele>847.54</ele>
        <time>2016-07-01T09:16:18Z</time>
      </trkpt>
      <trkpt lat="42.52372" lon="2.22278">
        <ele>847.54</ele>
        <time>2016-07-01T09:16:19Z</time>
      </trkpt>
      <trkpt lat="42.52363" lon="2.22266">
        <ele>848.98</ele>
        <time>2016-07-01T09:16:33Z</time>
      </trkpt>
      <trkpt lat="42.5236" lon="2.22262">
        <ele>848.98</ele>
        <time>2016-07-01T09:16:40Z</time>
      </trkpt>
      <trkpt lat="42.52359" lon="2.22261">
        <ele>848.98</ele>
        <time>2016-07-01T09:16:41Z</time>
      </trkpt>
      <trkpt lat="42.5235" lon="2.22249">
        <ele>849.46</ele>
        <time>2016-07-01T09:16:52Z</time>
      </trkpt>
      <trkpt lat="42.52341" lon="2.22238">
        <ele>849.46</ele>
        <time>2016-07-01T09:17:03Z</time>
      </trkpt>
      <trkpt lat="42.52331" lon="2.22216">
        <ele>848.98</ele>
        <time>2016-07-01T09:17:17Z</time>
      </trkpt>
      <trkpt lat="42.52327" lon="2.2221">
        <ele>848.98</ele>
        <time>2016-07-01T09:17:23Z</time>
      </trkpt>
      <trkpt lat="42.52326" lon="2.22209">
        <ele>848.98</ele>
        <time>2016-07-01T09:17:24Z</time>
      </trkpt>
      <trkpt lat="42.5232" lon="2.22202">
        <ele>849.46</ele>
        <time>2016-07-01T09:17:33Z</time>
      </trkpt>
      <trkpt lat="42.52317" lon="2.22198">
        <ele>849.46</ele>
        <time>2016-07-01T09:17:36Z</time>
      </trkpt>
      <trkpt lat="42.52315" lon="2.22196">
        <ele>849.46</ele>
        <time>2016-07-01T09:17:38Z</time>
      </trkpt>
      <trkpt lat="42.52305" lon="2.22188">
        <ele>849.94</ele>
        <time>2016-07-01T09:17:47Z</time>
      </trkpt>
      <trkpt lat="42.52299" lon="2.22184">
        <ele>849.94</ele>
        <time>2016-07-01T09:17:51Z</time>
      </trkpt>
      <trkpt lat="42.52298" lon="2.22183">
        <ele>849.94</ele>
        <time>2016-07-01T09:17:52Z</time>
      </trkpt>
      <trkpt lat="42.52296" lon="2.22182">
        <ele>850.42</ele>
        <time>2016-07-01T09:17:53Z</time>
      </trkpt>
      <trkpt lat="42.52294" lon="2.22182">
        <ele>850.42</ele>
        <time>2016-07-01T09:17:54Z</time>
      </trkpt>
      <trkpt lat="42.52292" lon="2.22181">
        <ele>850.42</ele>
        <time>2016-07-01T09:17:55Z</time>
      </trkpt>
      <trkpt lat="42.52291" lon="2.22181">
        <ele>850.42</ele>
        <time>2016-07-01T09:17:56Z</time>
      </trkpt>
      <trkpt lat="42.52289" lon="2.2218">
        <ele>850.42</ele>
        <time>2016-07-01T09:17:57Z</time>
      </trkpt>
      <trkpt lat="42.52287" lon="2.2218">
        <ele>850.42</ele>
        <time>2016-07-01T09:17:58Z</time>
      </trkpt>
      <trkpt lat="42.52286" lon="2.2218">
        <ele>850.42</ele>
        <time>2016-07-01T09:17:59Z</time>
      </trkpt>
      <trkpt lat="42.52284" lon="2.2218">
        <ele>850.42</ele>
        <time>2016-07-01T09:18:00Z</time>
      </trkpt>
      <trkpt lat="42.52283" lon="2.22179">
        <ele>850.42</ele>
        <time>2016-07-01T09:18:01Z</time>
      </trkpt>
      <trkpt lat="42.52282" lon="2.22178">
        <ele>850.9</ele>
        <time>2016-07-01T09:18:02Z</time>
      </trkpt>
      <trkpt lat="42.52269" lon="2.22178">
        <ele>851.38</ele>
        <time>2016-07-01T09:18:13Z</time>
      </trkpt>
      <trkpt lat="42.52259" lon="2.22176">
        <ele>851.87</ele>
        <time>2016-07-01T09:18:20Z</time>
      </trkpt>
      <trkpt lat="42.52255" lon="2.2217">
        <ele>852.35</ele>
        <time>2016-07-01T09:18:26Z</time>
      </trkpt>
      <trkpt lat="42.52249" lon="2.22164">
        <ele>852.35</ele>
        <time>2016-07-01T09:18:40Z</time>
      </trkpt>
      <trkpt lat="42.52248" lon="2.22164">
        <ele>852.35</ele>
        <time>2016-07-01T09:18:50Z</time>
      </trkpt>
    </trkseg>
  </trk>
  <trk>
    <name><![CDATA[Tracé actuel: 01 JUIL 2016 12:32]]></name>
    <trkseg>
      <trkpt lat="42.48078" lon="1.95835">
        <ele>1343.1</ele>
        <time>2016-07-01T10:32:05Z</time>
      </trkpt>
      <trkpt lat="42.48077" lon="1.95835">
        <ele>1343.1</ele>
        <time>2016-07-01T10:32:06Z</time>
      </trkpt>
      <trkpt lat="42.48077" lon="1.95836">
        <ele>1340.22</ele>
        <time>2016-07-01T10:32:22Z</time>
      </trkpt>
      <trkpt lat="42.48078" lon="1.95835">
        <ele>1336.85</ele>
        <time>2016-07-01T10:32:33Z</time>
      </trkpt>
      <trkpt lat="42.48076" lon="1.95835">
        <ele>1334.45</ele>
        <time>2016-07-01T10:32:43Z</time>
      </trkpt>
    </trkseg>
  </trk>
</gpx>